<?xml version="1.0" encoding="UTF-8" standalone="no" ?>
<gpx xmlns="http://www.topografix.com/GPX/1/1" xmlns:xsi="http://www.w3.org/2001/XMLSchema-instance" xsi:schemaLocation="http://www.topografix.com/GPX/1/1 http://www.topografix.com/GPX/1/1/gpx.xsd" version="1.1" creator="VisuGPX - https://www.visugpx.com">
  <metadata>
    <name>sortie Poligny</name>
    <desc><![CDATA[Aumont Poligny Arbois]]></desc>
  </metadata>
  <wpt lat="46.91047" lon="5.63282">
    <ele>242</ele>
  </wpt>
  <trk>
    <name><![CDATA[sortie Poligny_1]]></name>
    <trkseg>
      <trkpt lat="46.91047" lon="5.63282">
        <ele>242</ele>
        <time>2012-09-18T11:49:25Z</time>
      </trkpt>
      <trkpt lat="46.9104" lon="5.63273">
        <ele>248</ele>
        <time>2012-09-18T11:53:08Z</time>
      </trkpt>
      <trkpt lat="46.9103" lon="5.63269">
        <ele>241</ele>
        <time>2012-09-18T11:55:33Z</time>
      </trkpt>
      <trkpt lat="46.91027" lon="5.63256">
        <ele>241</ele>
        <time>2012-09-18T11:55:41Z</time>
      </trkpt>
      <trkpt lat="46.91018" lon="5.63259">
        <ele>241</ele>
        <time>2012-09-18T11:55:47Z</time>
      </trkpt>
      <trkpt lat="46.91008" lon="5.6327">
        <ele>246</ele>
        <time>2012-09-18T11:55:50Z</time>
      </trkpt>
      <trkpt lat="46.90998" lon="5.63283">
        <ele>246</ele>
        <time>2012-09-18T11:55:53Z</time>
      </trkpt>
      <trkpt lat="46.9099" lon="5.63291">
        <ele>246</ele>
        <time>2012-09-18T11:55:55Z</time>
      </trkpt>
      <trkpt lat="46.90982" lon="5.63301">
        <ele>246</ele>
        <time>2012-09-18T11:55:57Z</time>
      </trkpt>
      <trkpt lat="46.90974" lon="5.6331">
        <ele>246</ele>
        <time>2012-09-18T11:55:59Z</time>
      </trkpt>
      <trkpt lat="46.90966" lon="5.63319">
        <ele>246</ele>
        <time>2012-09-18T11:56:01Z</time>
      </trkpt>
      <trkpt lat="46.90958" lon="5.63328">
        <ele>246</ele>
        <time>2012-09-18T11:56:03Z</time>
      </trkpt>
      <trkpt lat="46.9095" lon="5.63337">
        <ele>246</ele>
        <time>2012-09-18T11:56:05Z</time>
      </trkpt>
      <trkpt lat="46.90942" lon="5.63346">
        <ele>246</ele>
        <time>2012-09-18T11:56:07Z</time>
      </trkpt>
      <trkpt lat="46.90933" lon="5.63354">
        <ele>246</ele>
        <time>2012-09-18T11:56:09Z</time>
      </trkpt>
      <trkpt lat="46.90921" lon="5.63367">
        <ele>246</ele>
        <time>2012-09-18T11:56:10Z</time>
      </trkpt>
      <trkpt lat="46.90913" lon="5.63375">
        <ele>246</ele>
        <time>2012-09-18T11:56:12Z</time>
      </trkpt>
      <trkpt lat="46.90904" lon="5.63384">
        <ele>246</ele>
        <time>2012-09-18T11:56:14Z</time>
      </trkpt>
      <trkpt lat="46.90896" lon="5.63392">
        <ele>246</ele>
        <time>2012-09-18T11:56:16Z</time>
      </trkpt>
      <trkpt lat="46.90888" lon="5.634">
        <ele>246</ele>
        <time>2012-09-18T11:56:18Z</time>
      </trkpt>
      <trkpt lat="46.9088" lon="5.63408">
        <ele>246</ele>
        <time>2012-09-18T11:56:20Z</time>
      </trkpt>
      <trkpt lat="46.90872" lon="5.63416">
        <ele>246</ele>
        <time>2012-09-18T11:56:22Z</time>
      </trkpt>
      <trkpt lat="46.90861" lon="5.63427">
        <ele>246</ele>
        <time>2012-09-18T11:56:25Z</time>
      </trkpt>
      <trkpt lat="46.90853" lon="5.63439">
        <ele>246</ele>
        <time>2012-09-18T11:56:48Z</time>
      </trkpt>
      <trkpt lat="46.90843" lon="5.63449">
        <ele>246</ele>
        <time>2012-09-18T11:56:52Z</time>
      </trkpt>
      <trkpt lat="46.90835" lon="5.63456">
        <ele>246</ele>
        <time>2012-09-18T11:57:06Z</time>
      </trkpt>
      <trkpt lat="46.90824" lon="5.63467">
        <ele>246</ele>
        <time>2012-09-18T11:57:10Z</time>
      </trkpt>
      <trkpt lat="46.90816" lon="5.63476">
        <ele>246</ele>
        <time>2012-09-18T11:57:12Z</time>
      </trkpt>
      <trkpt lat="46.90806" lon="5.63486">
        <ele>246</ele>
        <time>2012-09-18T11:57:14Z</time>
      </trkpt>
      <trkpt lat="46.90795" lon="5.63497">
        <ele>246</ele>
        <time>2012-09-18T11:57:16Z</time>
      </trkpt>
      <trkpt lat="46.90784" lon="5.63509">
        <ele>246</ele>
        <time>2012-09-18T11:57:18Z</time>
      </trkpt>
      <trkpt lat="46.90773" lon="5.6352">
        <ele>246</ele>
        <time>2012-09-18T11:57:20Z</time>
      </trkpt>
      <trkpt lat="46.90761" lon="5.63531">
        <ele>246</ele>
        <time>2012-09-18T11:57:22Z</time>
      </trkpt>
      <trkpt lat="46.90749" lon="5.63543">
        <ele>246</ele>
        <time>2012-09-18T11:57:24Z</time>
      </trkpt>
      <trkpt lat="46.90737" lon="5.63555">
        <ele>246</ele>
        <time>2012-09-18T11:57:26Z</time>
      </trkpt>
      <trkpt lat="46.90724" lon="5.63566">
        <ele>246</ele>
        <time>2012-09-18T11:57:28Z</time>
      </trkpt>
      <trkpt lat="46.90712" lon="5.63577">
        <ele>246</ele>
        <time>2012-09-18T11:57:30Z</time>
      </trkpt>
      <trkpt lat="46.907" lon="5.63589">
        <ele>246</ele>
        <time>2012-09-18T11:57:32Z</time>
      </trkpt>
      <trkpt lat="46.90688" lon="5.636">
        <ele>246</ele>
        <time>2012-09-18T11:57:34Z</time>
      </trkpt>
      <trkpt lat="46.90676" lon="5.63611">
        <ele>246</ele>
        <time>2012-09-18T11:57:36Z</time>
      </trkpt>
      <trkpt lat="46.90663" lon="5.63614">
        <ele>246</ele>
        <time>2012-09-18T11:57:38Z</time>
      </trkpt>
      <trkpt lat="46.90649" lon="5.63604">
        <ele>241</ele>
        <time>2012-09-18T11:57:40Z</time>
      </trkpt>
      <trkpt lat="46.90636" lon="5.6359">
        <ele>241</ele>
        <time>2012-09-18T11:57:42Z</time>
      </trkpt>
      <trkpt lat="46.90624" lon="5.63577">
        <ele>241</ele>
        <time>2012-09-18T11:57:44Z</time>
      </trkpt>
      <trkpt lat="46.90611" lon="5.63563">
        <ele>241</ele>
        <time>2012-09-18T11:57:46Z</time>
      </trkpt>
      <trkpt lat="46.90599" lon="5.63547">
        <ele>241</ele>
        <time>2012-09-18T11:57:48Z</time>
      </trkpt>
      <trkpt lat="46.90586" lon="5.63534">
        <ele>241</ele>
        <time>2012-09-18T11:57:50Z</time>
      </trkpt>
      <trkpt lat="46.90574" lon="5.63521">
        <ele>241</ele>
        <time>2012-09-18T11:57:52Z</time>
      </trkpt>
      <trkpt lat="46.90561" lon="5.63509">
        <ele>241</ele>
        <time>2012-09-18T11:57:54Z</time>
      </trkpt>
      <trkpt lat="46.90549" lon="5.63495">
        <ele>241</ele>
        <time>2012-09-18T11:57:56Z</time>
      </trkpt>
      <trkpt lat="46.90537" lon="5.63484">
        <ele>241</ele>
        <time>2012-09-18T11:57:58Z</time>
      </trkpt>
      <trkpt lat="46.90525" lon="5.6347">
        <ele>241</ele>
        <time>2012-09-18T11:58:00Z</time>
      </trkpt>
      <trkpt lat="46.90513" lon="5.63458">
        <ele>241</ele>
        <time>2012-09-18T11:58:02Z</time>
      </trkpt>
      <trkpt lat="46.905" lon="5.63445">
        <ele>241</ele>
        <time>2012-09-18T11:58:04Z</time>
      </trkpt>
      <trkpt lat="46.90487" lon="5.63432">
        <ele>241</ele>
        <time>2012-09-18T11:58:06Z</time>
      </trkpt>
      <trkpt lat="46.90475" lon="5.6342">
        <ele>241</ele>
        <time>2012-09-18T11:58:08Z</time>
      </trkpt>
      <trkpt lat="46.90462" lon="5.63407">
        <ele>241</ele>
        <time>2012-09-18T11:58:10Z</time>
      </trkpt>
      <trkpt lat="46.9045" lon="5.63394">
        <ele>241</ele>
        <time>2012-09-18T11:58:12Z</time>
      </trkpt>
      <trkpt lat="46.90437" lon="5.6338">
        <ele>241</ele>
        <time>2012-09-18T11:58:14Z</time>
      </trkpt>
      <trkpt lat="46.90425" lon="5.63368">
        <ele>235</ele>
        <time>2012-09-18T11:58:16Z</time>
      </trkpt>
      <trkpt lat="46.90412" lon="5.63355">
        <ele>235</ele>
        <time>2012-09-18T11:58:18Z</time>
      </trkpt>
      <trkpt lat="46.90399" lon="5.63342">
        <ele>235</ele>
        <time>2012-09-18T11:58:20Z</time>
      </trkpt>
      <trkpt lat="46.90386" lon="5.63329">
        <ele>235</ele>
        <time>2012-09-18T11:58:22Z</time>
      </trkpt>
      <trkpt lat="46.90374" lon="5.63316">
        <ele>235</ele>
        <time>2012-09-18T11:58:24Z</time>
      </trkpt>
      <trkpt lat="46.90362" lon="5.63303">
        <ele>235</ele>
        <time>2012-09-18T11:58:26Z</time>
      </trkpt>
      <trkpt lat="46.9035" lon="5.6329">
        <ele>235</ele>
        <time>2012-09-18T11:58:28Z</time>
      </trkpt>
      <trkpt lat="46.90337" lon="5.63278">
        <ele>235</ele>
        <time>2012-09-18T11:58:30Z</time>
      </trkpt>
      <trkpt lat="46.90325" lon="5.63266">
        <ele>235</ele>
        <time>2012-09-18T11:58:32Z</time>
      </trkpt>
      <trkpt lat="46.90313" lon="5.63254">
        <ele>235</ele>
        <time>2012-09-18T11:58:34Z</time>
      </trkpt>
      <trkpt lat="46.90302" lon="5.63241">
        <ele>235</ele>
        <time>2012-09-18T11:58:36Z</time>
      </trkpt>
      <trkpt lat="46.9029" lon="5.63229">
        <ele>235</ele>
        <time>2012-09-18T11:58:38Z</time>
      </trkpt>
      <trkpt lat="46.90278" lon="5.63217">
        <ele>235</ele>
        <time>2012-09-18T11:58:40Z</time>
      </trkpt>
      <trkpt lat="46.90266" lon="5.63206">
        <ele>235</ele>
        <time>2012-09-18T11:58:42Z</time>
      </trkpt>
      <trkpt lat="46.90254" lon="5.63193">
        <ele>235</ele>
        <time>2012-09-18T11:58:44Z</time>
      </trkpt>
      <trkpt lat="46.90242" lon="5.63182">
        <ele>235</ele>
        <time>2012-09-18T11:58:46Z</time>
      </trkpt>
      <trkpt lat="46.90231" lon="5.6317">
        <ele>235</ele>
        <time>2012-09-18T11:58:48Z</time>
      </trkpt>
      <trkpt lat="46.90219" lon="5.63157">
        <ele>235</ele>
        <time>2012-09-18T11:58:50Z</time>
      </trkpt>
      <trkpt lat="46.90207" lon="5.63145">
        <ele>235</ele>
        <time>2012-09-18T11:58:52Z</time>
      </trkpt>
      <trkpt lat="46.90195" lon="5.63133">
        <ele>235</ele>
        <time>2012-09-18T11:58:54Z</time>
      </trkpt>
      <trkpt lat="46.90183" lon="5.63122">
        <ele>235</ele>
        <time>2012-09-18T11:58:56Z</time>
      </trkpt>
      <trkpt lat="46.90171" lon="5.63111">
        <ele>235</ele>
        <time>2012-09-18T11:58:58Z</time>
      </trkpt>
      <trkpt lat="46.90159" lon="5.63102">
        <ele>235</ele>
        <time>2012-09-18T11:59:00Z</time>
      </trkpt>
      <trkpt lat="46.90146" lon="5.63094">
        <ele>235</ele>
        <time>2012-09-18T11:59:02Z</time>
      </trkpt>
      <trkpt lat="46.90132" lon="5.63086">
        <ele>235</ele>
        <time>2012-09-18T11:59:04Z</time>
      </trkpt>
      <trkpt lat="46.90119" lon="5.63078">
        <ele>235</ele>
        <time>2012-09-18T11:59:06Z</time>
      </trkpt>
      <trkpt lat="46.90106" lon="5.6307">
        <ele>235</ele>
        <time>2012-09-18T11:59:08Z</time>
      </trkpt>
      <trkpt lat="46.90092" lon="5.63062">
        <ele>235</ele>
        <time>2012-09-18T11:59:10Z</time>
      </trkpt>
      <trkpt lat="46.90077" lon="5.63054">
        <ele>235</ele>
        <time>2012-09-18T11:59:12Z</time>
      </trkpt>
      <trkpt lat="46.90063" lon="5.63046">
        <ele>235</ele>
        <time>2012-09-18T11:59:14Z</time>
      </trkpt>
      <trkpt lat="46.90048" lon="5.63038">
        <ele>235</ele>
        <time>2012-09-18T11:59:16Z</time>
      </trkpt>
      <trkpt lat="46.90033" lon="5.6303">
        <ele>235</ele>
        <time>2012-09-18T11:59:18Z</time>
      </trkpt>
      <trkpt lat="46.90018" lon="5.63021">
        <ele>235</ele>
        <time>2012-09-18T11:59:20Z</time>
      </trkpt>
      <trkpt lat="46.90004" lon="5.63012">
        <ele>235</ele>
        <time>2012-09-18T11:59:22Z</time>
      </trkpt>
      <trkpt lat="46.8999" lon="5.63004">
        <ele>235</ele>
        <time>2012-09-18T11:59:24Z</time>
      </trkpt>
      <trkpt lat="46.89975" lon="5.62996">
        <ele>235</ele>
        <time>2012-09-18T11:59:26Z</time>
      </trkpt>
      <trkpt lat="46.89962" lon="5.62988">
        <ele>235</ele>
        <time>2012-09-18T11:59:28Z</time>
      </trkpt>
      <trkpt lat="46.89947" lon="5.6298">
        <ele>235</ele>
        <time>2012-09-18T11:59:30Z</time>
      </trkpt>
      <trkpt lat="46.89933" lon="5.62972">
        <ele>235</ele>
        <time>2012-09-18T11:59:32Z</time>
      </trkpt>
      <trkpt lat="46.89919" lon="5.62963">
        <ele>235</ele>
        <time>2012-09-18T11:59:34Z</time>
      </trkpt>
      <trkpt lat="46.89906" lon="5.62954">
        <ele>235</ele>
        <time>2012-09-18T11:59:36Z</time>
      </trkpt>
      <trkpt lat="46.89891" lon="5.62946">
        <ele>235</ele>
        <time>2012-09-18T11:59:38Z</time>
      </trkpt>
      <trkpt lat="46.89877" lon="5.62938">
        <ele>235</ele>
        <time>2012-09-18T11:59:40Z</time>
      </trkpt>
      <trkpt lat="46.89864" lon="5.62931">
        <ele>235</ele>
        <time>2012-09-18T11:59:42Z</time>
      </trkpt>
      <trkpt lat="46.8985" lon="5.62922">
        <ele>235</ele>
        <time>2012-09-18T11:59:44Z</time>
      </trkpt>
      <trkpt lat="46.89836" lon="5.62914">
        <ele>235</ele>
        <time>2012-09-18T11:59:46Z</time>
      </trkpt>
      <trkpt lat="46.89822" lon="5.62906">
        <ele>235</ele>
        <time>2012-09-18T11:59:48Z</time>
      </trkpt>
      <trkpt lat="46.89808" lon="5.62897">
        <ele>235</ele>
        <time>2012-09-18T11:59:50Z</time>
      </trkpt>
      <trkpt lat="46.89795" lon="5.6289">
        <ele>235</ele>
        <time>2012-09-18T11:59:52Z</time>
      </trkpt>
      <trkpt lat="46.89781" lon="5.62882">
        <ele>235</ele>
        <time>2012-09-18T11:59:54Z</time>
      </trkpt>
      <trkpt lat="46.89766" lon="5.62874">
        <ele>235</ele>
        <time>2012-09-18T11:59:56Z</time>
      </trkpt>
      <trkpt lat="46.89753" lon="5.62865">
        <ele>235</ele>
        <time>2012-09-18T11:59:58Z</time>
      </trkpt>
      <trkpt lat="46.89739" lon="5.62857">
        <ele>235</ele>
        <time>2012-09-18T12:00:00Z</time>
      </trkpt>
      <trkpt lat="46.89726" lon="5.62848">
        <ele>235</ele>
        <time>2012-09-18T12:00:02Z</time>
      </trkpt>
      <trkpt lat="46.89712" lon="5.6284">
        <ele>235</ele>
        <time>2012-09-18T12:00:04Z</time>
      </trkpt>
      <trkpt lat="46.89698" lon="5.62832">
        <ele>235</ele>
        <time>2012-09-18T12:00:06Z</time>
      </trkpt>
      <trkpt lat="46.89685" lon="5.62824">
        <ele>235</ele>
        <time>2012-09-18T12:00:08Z</time>
      </trkpt>
      <trkpt lat="46.89671" lon="5.62816">
        <ele>235</ele>
        <time>2012-09-18T12:00:10Z</time>
      </trkpt>
      <trkpt lat="46.89657" lon="5.62808">
        <ele>235</ele>
        <time>2012-09-18T12:00:12Z</time>
      </trkpt>
      <trkpt lat="46.89644" lon="5.628">
        <ele>235</ele>
        <time>2012-09-18T12:00:14Z</time>
      </trkpt>
      <trkpt lat="46.8963" lon="5.62793">
        <ele>235</ele>
        <time>2012-09-18T12:00:16Z</time>
      </trkpt>
      <trkpt lat="46.89617" lon="5.62786">
        <ele>235</ele>
        <time>2012-09-18T12:00:18Z</time>
      </trkpt>
      <trkpt lat="46.89604" lon="5.62778">
        <ele>235</ele>
        <time>2012-09-18T12:00:20Z</time>
      </trkpt>
      <trkpt lat="46.89592" lon="5.62771">
        <ele>235</ele>
        <time>2012-09-18T12:00:22Z</time>
      </trkpt>
      <trkpt lat="46.89581" lon="5.62764">
        <ele>235</ele>
        <time>2012-09-18T12:00:24Z</time>
      </trkpt>
      <trkpt lat="46.89571" lon="5.62758">
        <ele>235</ele>
        <time>2012-09-18T12:00:26Z</time>
      </trkpt>
      <trkpt lat="46.8956" lon="5.62752">
        <ele>235</ele>
        <time>2012-09-18T12:00:28Z</time>
      </trkpt>
      <trkpt lat="46.89551" lon="5.62745">
        <ele>235</ele>
        <time>2012-09-18T12:00:30Z</time>
      </trkpt>
      <trkpt lat="46.8954" lon="5.62739">
        <ele>235</ele>
        <time>2012-09-18T12:00:32Z</time>
      </trkpt>
      <trkpt lat="46.89531" lon="5.62732">
        <ele>235</ele>
        <time>2012-09-18T12:00:34Z</time>
      </trkpt>
      <trkpt lat="46.89521" lon="5.62725">
        <ele>235</ele>
        <time>2012-09-18T12:00:36Z</time>
      </trkpt>
      <trkpt lat="46.89512" lon="5.62715">
        <ele>235</ele>
        <time>2012-09-18T12:00:38Z</time>
      </trkpt>
      <trkpt lat="46.89504" lon="5.62702">
        <ele>235</ele>
        <time>2012-09-18T12:00:40Z</time>
      </trkpt>
      <trkpt lat="46.89497" lon="5.62688">
        <ele>230</ele>
        <time>2012-09-18T12:00:42Z</time>
      </trkpt>
      <trkpt lat="46.89491" lon="5.62674">
        <ele>230</ele>
        <time>2012-09-18T12:00:44Z</time>
      </trkpt>
      <trkpt lat="46.89484" lon="5.62661">
        <ele>230</ele>
        <time>2012-09-18T12:00:46Z</time>
      </trkpt>
      <trkpt lat="46.89479" lon="5.62646">
        <ele>230</ele>
        <time>2012-09-18T12:00:48Z</time>
      </trkpt>
      <trkpt lat="46.89473" lon="5.62631">
        <ele>230</ele>
        <time>2012-09-18T12:00:50Z</time>
      </trkpt>
      <trkpt lat="46.89466" lon="5.62616">
        <ele>230</ele>
        <time>2012-09-18T12:00:52Z</time>
      </trkpt>
      <trkpt lat="46.89459" lon="5.62601">
        <ele>230</ele>
        <time>2012-09-18T12:00:54Z</time>
      </trkpt>
      <trkpt lat="46.89452" lon="5.62584">
        <ele>230</ele>
        <time>2012-09-18T12:00:56Z</time>
      </trkpt>
      <trkpt lat="46.89446" lon="5.62568">
        <ele>230</ele>
        <time>2012-09-18T12:00:58Z</time>
      </trkpt>
      <trkpt lat="46.89439" lon="5.62552">
        <ele>230</ele>
        <time>2012-09-18T12:01:00Z</time>
      </trkpt>
      <trkpt lat="46.89432" lon="5.62536">
        <ele>230</ele>
        <time>2012-09-18T12:01:02Z</time>
      </trkpt>
      <trkpt lat="46.89426" lon="5.6252">
        <ele>230</ele>
        <time>2012-09-18T12:01:04Z</time>
      </trkpt>
      <trkpt lat="46.8942" lon="5.62504">
        <ele>230</ele>
        <time>2012-09-18T12:01:06Z</time>
      </trkpt>
      <trkpt lat="46.89415" lon="5.62491">
        <ele>230</ele>
        <time>2012-09-18T12:01:08Z</time>
      </trkpt>
      <trkpt lat="46.89412" lon="5.62477">
        <ele>230</ele>
        <time>2012-09-18T12:01:11Z</time>
      </trkpt>
      <trkpt lat="46.89409" lon="5.62463">
        <ele>230</ele>
        <time>2012-09-18T12:01:16Z</time>
      </trkpt>
      <trkpt lat="46.89404" lon="5.62452">
        <ele>230</ele>
        <time>2012-09-18T12:01:35Z</time>
      </trkpt>
      <trkpt lat="46.89396" lon="5.62442">
        <ele>230</ele>
        <time>2012-09-18T12:01:38Z</time>
      </trkpt>
      <trkpt lat="46.89388" lon="5.62428">
        <ele>230</ele>
        <time>2012-09-18T12:01:41Z</time>
      </trkpt>
      <trkpt lat="46.8938" lon="5.62413">
        <ele>230</ele>
        <time>2012-09-18T12:01:44Z</time>
      </trkpt>
      <trkpt lat="46.89372" lon="5.62402">
        <ele>230</ele>
        <time>2012-09-18T12:01:46Z</time>
      </trkpt>
      <trkpt lat="46.89365" lon="5.62391">
        <ele>230</ele>
        <time>2012-09-18T12:01:48Z</time>
      </trkpt>
      <trkpt lat="46.89356" lon="5.62381">
        <ele>230</ele>
        <time>2012-09-18T12:01:50Z</time>
      </trkpt>
      <trkpt lat="46.89347" lon="5.62371">
        <ele>230</ele>
        <time>2012-09-18T12:01:52Z</time>
      </trkpt>
      <trkpt lat="46.89337" lon="5.62362">
        <ele>230</ele>
        <time>2012-09-18T12:01:54Z</time>
      </trkpt>
      <trkpt lat="46.89327" lon="5.62353">
        <ele>230</ele>
        <time>2012-09-18T12:01:56Z</time>
      </trkpt>
      <trkpt lat="46.89316" lon="5.62345">
        <ele>230</ele>
        <time>2012-09-18T12:01:58Z</time>
      </trkpt>
      <trkpt lat="46.89304" lon="5.62337">
        <ele>230</ele>
        <time>2012-09-18T12:02:00Z</time>
      </trkpt>
      <trkpt lat="46.89292" lon="5.6233">
        <ele>230</ele>
        <time>2012-09-18T12:02:02Z</time>
      </trkpt>
      <trkpt lat="46.89281" lon="5.62326">
        <ele>230</ele>
        <time>2012-09-18T12:02:04Z</time>
      </trkpt>
      <trkpt lat="46.89269" lon="5.62321">
        <ele>230</ele>
        <time>2012-09-18T12:02:06Z</time>
      </trkpt>
      <trkpt lat="46.89257" lon="5.6232">
        <ele>230</ele>
        <time>2012-09-18T12:02:08Z</time>
      </trkpt>
      <trkpt lat="46.89246" lon="5.62321">
        <ele>230</ele>
        <time>2012-09-18T12:02:10Z</time>
      </trkpt>
      <trkpt lat="46.89234" lon="5.62324">
        <ele>230</ele>
        <time>2012-09-18T12:02:12Z</time>
      </trkpt>
      <trkpt lat="46.89222" lon="5.62327">
        <ele>230</ele>
        <time>2012-09-18T12:02:14Z</time>
      </trkpt>
      <trkpt lat="46.89211" lon="5.62329">
        <ele>230</ele>
        <time>2012-09-18T12:02:16Z</time>
      </trkpt>
      <trkpt lat="46.89199" lon="5.6233">
        <ele>230</ele>
        <time>2012-09-18T12:02:18Z</time>
      </trkpt>
      <trkpt lat="46.89188" lon="5.62332">
        <ele>230</ele>
        <time>2012-09-18T12:02:20Z</time>
      </trkpt>
      <trkpt lat="46.89177" lon="5.62335">
        <ele>230</ele>
        <time>2012-09-18T12:02:22Z</time>
      </trkpt>
      <trkpt lat="46.89165" lon="5.62338">
        <ele>237</ele>
        <time>2012-09-18T12:02:24Z</time>
      </trkpt>
      <trkpt lat="46.89155" lon="5.62341">
        <ele>237</ele>
        <time>2012-09-18T12:02:26Z</time>
      </trkpt>
      <trkpt lat="46.89145" lon="5.62343">
        <ele>237</ele>
        <time>2012-09-18T12:02:28Z</time>
      </trkpt>
      <trkpt lat="46.89134" lon="5.62345">
        <ele>242</ele>
        <time>2012-09-18T12:02:30Z</time>
      </trkpt>
      <trkpt lat="46.89123" lon="5.62346">
        <ele>242</ele>
        <time>2012-09-18T12:02:32Z</time>
      </trkpt>
      <trkpt lat="46.89112" lon="5.62347">
        <ele>242</ele>
        <time>2012-09-18T12:02:34Z</time>
      </trkpt>
      <trkpt lat="46.89102" lon="5.62351">
        <ele>242</ele>
        <time>2012-09-18T12:02:36Z</time>
      </trkpt>
      <trkpt lat="46.89091" lon="5.62352">
        <ele>242</ele>
        <time>2012-09-18T12:02:38Z</time>
      </trkpt>
      <trkpt lat="46.89079" lon="5.62354">
        <ele>242</ele>
        <time>2012-09-18T12:02:40Z</time>
      </trkpt>
      <trkpt lat="46.89068" lon="5.62354">
        <ele>250</ele>
        <time>2012-09-18T12:02:42Z</time>
      </trkpt>
      <trkpt lat="46.89058" lon="5.62355">
        <ele>250</ele>
        <time>2012-09-18T12:02:44Z</time>
      </trkpt>
      <trkpt lat="46.89048" lon="5.62355">
        <ele>250</ele>
        <time>2012-09-18T12:02:46Z</time>
      </trkpt>
      <trkpt lat="46.89038" lon="5.62355">
        <ele>250</ele>
        <time>2012-09-18T12:02:48Z</time>
      </trkpt>
      <trkpt lat="46.89026" lon="5.62353">
        <ele>250</ele>
        <time>2012-09-18T12:02:50Z</time>
      </trkpt>
      <trkpt lat="46.89016" lon="5.62353">
        <ele>250</ele>
        <time>2012-09-18T12:02:52Z</time>
      </trkpt>
      <trkpt lat="46.89005" lon="5.6235">
        <ele>250</ele>
        <time>2012-09-18T12:02:54Z</time>
      </trkpt>
      <trkpt lat="46.88995" lon="5.62348">
        <ele>250</ele>
        <time>2012-09-18T12:02:56Z</time>
      </trkpt>
      <trkpt lat="46.88984" lon="5.62345">
        <ele>250</ele>
        <time>2012-09-18T12:02:58Z</time>
      </trkpt>
      <trkpt lat="46.88973" lon="5.62343">
        <ele>250</ele>
        <time>2012-09-18T12:03:00Z</time>
      </trkpt>
      <trkpt lat="46.88963" lon="5.62342">
        <ele>250</ele>
        <time>2012-09-18T12:03:02Z</time>
      </trkpt>
      <trkpt lat="46.88951" lon="5.62339">
        <ele>250</ele>
        <time>2012-09-18T12:03:04Z</time>
      </trkpt>
      <trkpt lat="46.88941" lon="5.62337">
        <ele>250</ele>
        <time>2012-09-18T12:03:06Z</time>
      </trkpt>
      <trkpt lat="46.88929" lon="5.62336">
        <ele>250</ele>
        <time>2012-09-18T12:03:08Z</time>
      </trkpt>
      <trkpt lat="46.88917" lon="5.62333">
        <ele>244</ele>
        <time>2012-09-18T12:03:10Z</time>
      </trkpt>
      <trkpt lat="46.88906" lon="5.62332">
        <ele>244</ele>
        <time>2012-09-18T12:03:12Z</time>
      </trkpt>
      <trkpt lat="46.88896" lon="5.62329">
        <ele>244</ele>
        <time>2012-09-18T12:03:14Z</time>
      </trkpt>
      <trkpt lat="46.88884" lon="5.62327">
        <ele>244</ele>
        <time>2012-09-18T12:03:16Z</time>
      </trkpt>
      <trkpt lat="46.88872" lon="5.62326">
        <ele>244</ele>
        <time>2012-09-18T12:03:18Z</time>
      </trkpt>
      <trkpt lat="46.88862" lon="5.62325">
        <ele>244</ele>
        <time>2012-09-18T12:03:20Z</time>
      </trkpt>
      <trkpt lat="46.88851" lon="5.62324">
        <ele>244</ele>
        <time>2012-09-18T12:03:22Z</time>
      </trkpt>
      <trkpt lat="46.88838" lon="5.62323">
        <ele>244</ele>
        <time>2012-09-18T12:03:24Z</time>
      </trkpt>
      <trkpt lat="46.88826" lon="5.62322">
        <ele>244</ele>
        <time>2012-09-18T12:03:26Z</time>
      </trkpt>
      <trkpt lat="46.88814" lon="5.62321">
        <ele>244</ele>
        <time>2012-09-18T12:03:28Z</time>
      </trkpt>
      <trkpt lat="46.88801" lon="5.62319">
        <ele>244</ele>
        <time>2012-09-18T12:03:30Z</time>
      </trkpt>
      <trkpt lat="46.88788" lon="5.62318">
        <ele>244</ele>
        <time>2012-09-18T12:03:32Z</time>
      </trkpt>
      <trkpt lat="46.88774" lon="5.62317">
        <ele>244</ele>
        <time>2012-09-18T12:03:34Z</time>
      </trkpt>
      <trkpt lat="46.88758" lon="5.62316">
        <ele>244</ele>
        <time>2012-09-18T12:03:36Z</time>
      </trkpt>
      <trkpt lat="46.88744" lon="5.62315">
        <ele>244</ele>
        <time>2012-09-18T12:03:38Z</time>
      </trkpt>
      <trkpt lat="46.88728" lon="5.62311">
        <ele>244</ele>
        <time>2012-09-18T12:03:40Z</time>
      </trkpt>
      <trkpt lat="46.88714" lon="5.62309">
        <ele>244</ele>
        <time>2012-09-18T12:03:42Z</time>
      </trkpt>
      <trkpt lat="46.887" lon="5.62307">
        <ele>244</ele>
        <time>2012-09-18T12:03:44Z</time>
      </trkpt>
      <trkpt lat="46.88686" lon="5.62301">
        <ele>244</ele>
        <time>2012-09-18T12:03:46Z</time>
      </trkpt>
      <trkpt lat="46.88673" lon="5.62295">
        <ele>238</ele>
        <time>2012-09-18T12:03:48Z</time>
      </trkpt>
      <trkpt lat="46.88659" lon="5.62289">
        <ele>238</ele>
        <time>2012-09-18T12:03:50Z</time>
      </trkpt>
      <trkpt lat="46.88647" lon="5.62282">
        <ele>238</ele>
        <time>2012-09-18T12:03:52Z</time>
      </trkpt>
      <trkpt lat="46.88635" lon="5.62274">
        <ele>238</ele>
        <time>2012-09-18T12:03:54Z</time>
      </trkpt>
      <trkpt lat="46.88622" lon="5.62267">
        <ele>238</ele>
        <time>2012-09-18T12:03:56Z</time>
      </trkpt>
      <trkpt lat="46.88609" lon="5.6226">
        <ele>238</ele>
        <time>2012-09-18T12:03:58Z</time>
      </trkpt>
      <trkpt lat="46.88598" lon="5.62255">
        <ele>238</ele>
        <time>2012-09-18T12:04:00Z</time>
      </trkpt>
      <trkpt lat="46.88586" lon="5.62252">
        <ele>232</ele>
        <time>2012-09-18T12:04:02Z</time>
      </trkpt>
      <trkpt lat="46.88575" lon="5.62251">
        <ele>232</ele>
        <time>2012-09-18T12:04:04Z</time>
      </trkpt>
      <trkpt lat="46.88565" lon="5.62249">
        <ele>232</ele>
        <time>2012-09-18T12:04:06Z</time>
      </trkpt>
      <trkpt lat="46.88556" lon="5.62249">
        <ele>232</ele>
        <time>2012-09-18T12:04:08Z</time>
      </trkpt>
      <trkpt lat="46.88546" lon="5.62249">
        <ele>232</ele>
        <time>2012-09-18T12:04:10Z</time>
      </trkpt>
      <trkpt lat="46.88537" lon="5.62248">
        <ele>232</ele>
        <time>2012-09-18T12:04:12Z</time>
      </trkpt>
      <trkpt lat="46.88527" lon="5.62247">
        <ele>239</ele>
        <time>2012-09-18T12:04:14Z</time>
      </trkpt>
      <trkpt lat="46.88518" lon="5.62245">
        <ele>239</ele>
        <time>2012-09-18T12:04:16Z</time>
      </trkpt>
      <trkpt lat="46.88505" lon="5.6224">
        <ele>239</ele>
        <time>2012-09-18T12:04:19Z</time>
      </trkpt>
      <trkpt lat="46.88496" lon="5.62237">
        <ele>239</ele>
        <time>2012-09-18T12:04:21Z</time>
      </trkpt>
      <trkpt lat="46.88487" lon="5.62232">
        <ele>239</ele>
        <time>2012-09-18T12:04:23Z</time>
      </trkpt>
      <trkpt lat="46.88478" lon="5.62229">
        <ele>244</ele>
        <time>2012-09-18T12:04:25Z</time>
      </trkpt>
      <trkpt lat="46.8847" lon="5.62224">
        <ele>244</ele>
        <time>2012-09-18T12:04:27Z</time>
      </trkpt>
      <trkpt lat="46.8846" lon="5.6222">
        <ele>244</ele>
        <time>2012-09-18T12:04:29Z</time>
      </trkpt>
      <trkpt lat="46.88452" lon="5.62215">
        <ele>244</ele>
        <time>2012-09-18T12:04:31Z</time>
      </trkpt>
      <trkpt lat="46.88442" lon="5.6221">
        <ele>244</ele>
        <time>2012-09-18T12:04:33Z</time>
      </trkpt>
      <trkpt lat="46.88433" lon="5.62205">
        <ele>244</ele>
        <time>2012-09-18T12:04:35Z</time>
      </trkpt>
      <trkpt lat="46.88425" lon="5.62202">
        <ele>244</ele>
        <time>2012-09-18T12:04:37Z</time>
      </trkpt>
      <trkpt lat="46.88414" lon="5.62197">
        <ele>244</ele>
        <time>2012-09-18T12:04:39Z</time>
      </trkpt>
      <trkpt lat="46.88405" lon="5.62195">
        <ele>244</ele>
        <time>2012-09-18T12:04:41Z</time>
      </trkpt>
      <trkpt lat="46.88396" lon="5.62191">
        <ele>244</ele>
        <time>2012-09-18T12:04:43Z</time>
      </trkpt>
      <trkpt lat="46.88382" lon="5.62186">
        <ele>244</ele>
        <time>2012-09-18T12:04:46Z</time>
      </trkpt>
      <trkpt lat="46.88373" lon="5.62183">
        <ele>250</ele>
        <time>2012-09-18T12:04:48Z</time>
      </trkpt>
      <trkpt lat="46.88364" lon="5.62179">
        <ele>250</ele>
        <time>2012-09-18T12:04:50Z</time>
      </trkpt>
      <trkpt lat="46.88349" lon="5.62174">
        <ele>250</ele>
        <time>2012-09-18T12:04:53Z</time>
      </trkpt>
      <trkpt lat="46.88341" lon="5.62168">
        <ele>250</ele>
        <time>2012-09-18T12:04:55Z</time>
      </trkpt>
      <trkpt lat="46.88331" lon="5.62161">
        <ele>250</ele>
        <time>2012-09-18T12:04:57Z</time>
      </trkpt>
      <trkpt lat="46.88321" lon="5.62155">
        <ele>250</ele>
        <time>2012-09-18T12:04:59Z</time>
      </trkpt>
      <trkpt lat="46.88312" lon="5.62148">
        <ele>250</ele>
        <time>2012-09-18T12:05:01Z</time>
      </trkpt>
      <trkpt lat="46.88304" lon="5.62138">
        <ele>250</ele>
        <time>2012-09-18T12:05:03Z</time>
      </trkpt>
      <trkpt lat="46.88298" lon="5.62126">
        <ele>250</ele>
        <time>2012-09-18T12:05:05Z</time>
      </trkpt>
      <trkpt lat="46.8829" lon="5.62115">
        <ele>250</ele>
        <time>2012-09-18T12:05:07Z</time>
      </trkpt>
      <trkpt lat="46.88284" lon="5.62103">
        <ele>250</ele>
        <time>2012-09-18T12:05:09Z</time>
      </trkpt>
      <trkpt lat="46.88277" lon="5.62091">
        <ele>250</ele>
        <time>2012-09-18T12:05:11Z</time>
      </trkpt>
      <trkpt lat="46.8827" lon="5.62081">
        <ele>250</ele>
        <time>2012-09-18T12:05:13Z</time>
      </trkpt>
      <trkpt lat="46.88263" lon="5.62071">
        <ele>250</ele>
        <time>2012-09-18T12:05:15Z</time>
      </trkpt>
      <trkpt lat="46.88255" lon="5.62061">
        <ele>250</ele>
        <time>2012-09-18T12:05:17Z</time>
      </trkpt>
      <trkpt lat="46.88246" lon="5.62053">
        <ele>250</ele>
        <time>2012-09-18T12:05:19Z</time>
      </trkpt>
      <trkpt lat="46.88237" lon="5.62044">
        <ele>250</ele>
        <time>2012-09-18T12:05:21Z</time>
      </trkpt>
      <trkpt lat="46.88228" lon="5.62037">
        <ele>250</ele>
        <time>2012-09-18T12:05:23Z</time>
      </trkpt>
      <trkpt lat="46.88218" lon="5.62032">
        <ele>250</ele>
        <time>2012-09-18T12:05:25Z</time>
      </trkpt>
      <trkpt lat="46.88208" lon="5.62028">
        <ele>250</ele>
        <time>2012-09-18T12:05:27Z</time>
      </trkpt>
      <trkpt lat="46.88197" lon="5.62026">
        <ele>250</ele>
        <time>2012-09-18T12:05:29Z</time>
      </trkpt>
      <trkpt lat="46.88187" lon="5.62023">
        <ele>250</ele>
        <time>2012-09-18T12:05:31Z</time>
      </trkpt>
      <trkpt lat="46.88178" lon="5.62023">
        <ele>250</ele>
        <time>2012-09-18T12:05:33Z</time>
      </trkpt>
      <trkpt lat="46.88168" lon="5.62025">
        <ele>250</ele>
        <time>2012-09-18T12:05:35Z</time>
      </trkpt>
      <trkpt lat="46.88157" lon="5.62027">
        <ele>250</ele>
        <time>2012-09-18T12:05:37Z</time>
      </trkpt>
      <trkpt lat="46.88146" lon="5.62031">
        <ele>250</ele>
        <time>2012-09-18T12:05:39Z</time>
      </trkpt>
      <trkpt lat="46.88134" lon="5.62034">
        <ele>250</ele>
        <time>2012-09-18T12:05:41Z</time>
      </trkpt>
      <trkpt lat="46.88124" lon="5.62035">
        <ele>250</ele>
        <time>2012-09-18T12:05:43Z</time>
      </trkpt>
      <trkpt lat="46.88112" lon="5.62037">
        <ele>255</ele>
        <time>2012-09-18T12:05:45Z</time>
      </trkpt>
      <trkpt lat="46.88102" lon="5.62038">
        <ele>255</ele>
        <time>2012-09-18T12:05:47Z</time>
      </trkpt>
      <trkpt lat="46.88091" lon="5.62039">
        <ele>255</ele>
        <time>2012-09-18T12:05:49Z</time>
      </trkpt>
      <trkpt lat="46.8808" lon="5.62039">
        <ele>255</ele>
        <time>2012-09-18T12:05:51Z</time>
      </trkpt>
      <trkpt lat="46.88069" lon="5.6204">
        <ele>255</ele>
        <time>2012-09-18T12:05:53Z</time>
      </trkpt>
      <trkpt lat="46.88059" lon="5.62042">
        <ele>255</ele>
        <time>2012-09-18T12:05:55Z</time>
      </trkpt>
      <trkpt lat="46.88049" lon="5.62044">
        <ele>255</ele>
        <time>2012-09-18T12:05:57Z</time>
      </trkpt>
      <trkpt lat="46.88038" lon="5.62048">
        <ele>255</ele>
        <time>2012-09-18T12:05:59Z</time>
      </trkpt>
      <trkpt lat="46.88029" lon="5.62052">
        <ele>255</ele>
        <time>2012-09-18T12:06:01Z</time>
      </trkpt>
      <trkpt lat="46.88019" lon="5.62055">
        <ele>255</ele>
        <time>2012-09-18T12:06:03Z</time>
      </trkpt>
      <trkpt lat="46.88009" lon="5.62059">
        <ele>255</ele>
        <time>2012-09-18T12:06:05Z</time>
      </trkpt>
      <trkpt lat="46.88001" lon="5.62062">
        <ele>255</ele>
        <time>2012-09-18T12:06:07Z</time>
      </trkpt>
      <trkpt lat="46.87992" lon="5.62067">
        <ele>255</ele>
        <time>2012-09-18T12:06:09Z</time>
      </trkpt>
      <trkpt lat="46.87982" lon="5.62071">
        <ele>255</ele>
        <time>2012-09-18T12:06:11Z</time>
      </trkpt>
      <trkpt lat="46.87972" lon="5.62074">
        <ele>255</ele>
        <time>2012-09-18T12:06:13Z</time>
      </trkpt>
      <trkpt lat="46.87963" lon="5.62075">
        <ele>255</ele>
        <time>2012-09-18T12:06:15Z</time>
      </trkpt>
      <trkpt lat="46.87953" lon="5.62075">
        <ele>255</ele>
        <time>2012-09-18T12:06:17Z</time>
      </trkpt>
      <trkpt lat="46.87943" lon="5.62074">
        <ele>255</ele>
        <time>2012-09-18T12:06:19Z</time>
      </trkpt>
      <trkpt lat="46.87932" lon="5.62071">
        <ele>255</ele>
        <time>2012-09-18T12:06:21Z</time>
      </trkpt>
      <trkpt lat="46.87922" lon="5.62066">
        <ele>255</ele>
        <time>2012-09-18T12:06:23Z</time>
      </trkpt>
      <trkpt lat="46.87911" lon="5.62061">
        <ele>255</ele>
        <time>2012-09-18T12:06:25Z</time>
      </trkpt>
      <trkpt lat="46.87902" lon="5.62053">
        <ele>255</ele>
        <time>2012-09-18T12:06:27Z</time>
      </trkpt>
      <trkpt lat="46.87891" lon="5.62047">
        <ele>255</ele>
        <time>2012-09-18T12:06:29Z</time>
      </trkpt>
      <trkpt lat="46.87882" lon="5.6204">
        <ele>255</ele>
        <time>2012-09-18T12:06:31Z</time>
      </trkpt>
      <trkpt lat="46.87873" lon="5.62033">
        <ele>255</ele>
        <time>2012-09-18T12:06:33Z</time>
      </trkpt>
      <trkpt lat="46.87863" lon="5.62026">
        <ele>260</ele>
        <time>2012-09-18T12:06:35Z</time>
      </trkpt>
      <trkpt lat="46.87854" lon="5.62018">
        <ele>260</ele>
        <time>2012-09-18T12:06:37Z</time>
      </trkpt>
      <trkpt lat="46.87844" lon="5.62011">
        <ele>260</ele>
        <time>2012-09-18T12:06:39Z</time>
      </trkpt>
      <trkpt lat="46.87834" lon="5.62004">
        <ele>260</ele>
        <time>2012-09-18T12:06:41Z</time>
      </trkpt>
      <trkpt lat="46.87825" lon="5.61996">
        <ele>260</ele>
        <time>2012-09-18T12:06:43Z</time>
      </trkpt>
      <trkpt lat="46.87816" lon="5.61987">
        <ele>260</ele>
        <time>2012-09-18T12:06:45Z</time>
      </trkpt>
      <trkpt lat="46.87807" lon="5.61978">
        <ele>260</ele>
        <time>2012-09-18T12:06:47Z</time>
      </trkpt>
      <trkpt lat="46.87799" lon="5.61969">
        <ele>260</ele>
        <time>2012-09-18T12:06:49Z</time>
      </trkpt>
      <trkpt lat="46.87791" lon="5.6196">
        <ele>260</ele>
        <time>2012-09-18T12:06:51Z</time>
      </trkpt>
      <trkpt lat="46.87783" lon="5.61951">
        <ele>260</ele>
        <time>2012-09-18T12:06:53Z</time>
      </trkpt>
      <trkpt lat="46.87774" lon="5.61942">
        <ele>260</ele>
        <time>2012-09-18T12:06:55Z</time>
      </trkpt>
      <trkpt lat="46.87765" lon="5.61934">
        <ele>260</ele>
        <time>2012-09-18T12:06:57Z</time>
      </trkpt>
      <trkpt lat="46.87756" lon="5.61927">
        <ele>260</ele>
        <time>2012-09-18T12:06:59Z</time>
      </trkpt>
      <trkpt lat="46.87747" lon="5.6192">
        <ele>260</ele>
        <time>2012-09-18T12:07:01Z</time>
      </trkpt>
      <trkpt lat="46.87738" lon="5.61912">
        <ele>260</ele>
        <time>2012-09-18T12:07:03Z</time>
      </trkpt>
      <trkpt lat="46.87727" lon="5.61906">
        <ele>260</ele>
        <time>2012-09-18T12:07:05Z</time>
      </trkpt>
      <trkpt lat="46.87717" lon="5.61901">
        <ele>260</ele>
        <time>2012-09-18T12:07:07Z</time>
      </trkpt>
      <trkpt lat="46.87706" lon="5.61894">
        <ele>260</ele>
        <time>2012-09-18T12:07:09Z</time>
      </trkpt>
      <trkpt lat="46.87695" lon="5.61889">
        <ele>260</ele>
        <time>2012-09-18T12:07:11Z</time>
      </trkpt>
      <trkpt lat="46.87683" lon="5.61883">
        <ele>260</ele>
        <time>2012-09-18T12:07:13Z</time>
      </trkpt>
      <trkpt lat="46.87671" lon="5.61877">
        <ele>260</ele>
        <time>2012-09-18T12:07:15Z</time>
      </trkpt>
      <trkpt lat="46.87659" lon="5.61872">
        <ele>260</ele>
        <time>2012-09-18T12:07:17Z</time>
      </trkpt>
      <trkpt lat="46.87645" lon="5.61867">
        <ele>260</ele>
        <time>2012-09-18T12:07:19Z</time>
      </trkpt>
      <trkpt lat="46.87632" lon="5.6186">
        <ele>260</ele>
        <time>2012-09-18T12:07:21Z</time>
      </trkpt>
      <trkpt lat="46.87618" lon="5.61855">
        <ele>260</ele>
        <time>2012-09-18T12:07:23Z</time>
      </trkpt>
      <trkpt lat="46.87605" lon="5.61849">
        <ele>260</ele>
        <time>2012-09-18T12:07:25Z</time>
      </trkpt>
      <trkpt lat="46.87592" lon="5.61843">
        <ele>260</ele>
        <time>2012-09-18T12:07:27Z</time>
      </trkpt>
      <trkpt lat="46.87579" lon="5.61837">
        <ele>260</ele>
        <time>2012-09-18T12:07:29Z</time>
      </trkpt>
      <trkpt lat="46.87567" lon="5.61832">
        <ele>260</ele>
        <time>2012-09-18T12:07:31Z</time>
      </trkpt>
      <trkpt lat="46.87555" lon="5.61825">
        <ele>260</ele>
        <time>2012-09-18T12:07:33Z</time>
      </trkpt>
      <trkpt lat="46.87544" lon="5.61819">
        <ele>260</ele>
        <time>2012-09-18T12:07:35Z</time>
      </trkpt>
      <trkpt lat="46.87534" lon="5.61813">
        <ele>260</ele>
        <time>2012-09-18T12:07:37Z</time>
      </trkpt>
      <trkpt lat="46.87523" lon="5.61806">
        <ele>260</ele>
        <time>2012-09-18T12:07:39Z</time>
      </trkpt>
      <trkpt lat="46.87513" lon="5.618">
        <ele>260</ele>
        <time>2012-09-18T12:07:41Z</time>
      </trkpt>
      <trkpt lat="46.87502" lon="5.61795">
        <ele>260</ele>
        <time>2012-09-18T12:07:43Z</time>
      </trkpt>
      <trkpt lat="46.87493" lon="5.61789">
        <ele>260</ele>
        <time>2012-09-18T12:07:45Z</time>
      </trkpt>
      <trkpt lat="46.87483" lon="5.61789">
        <ele>260</ele>
        <time>2012-09-18T12:07:47Z</time>
      </trkpt>
      <trkpt lat="46.87472" lon="5.618">
        <ele>260</ele>
        <time>2012-09-18T12:07:50Z</time>
      </trkpt>
      <trkpt lat="46.87466" lon="5.61815">
        <ele>260</ele>
        <time>2012-09-18T12:07:53Z</time>
      </trkpt>
      <trkpt lat="46.87457" lon="5.61827">
        <ele>260</ele>
        <time>2012-09-18T12:07:56Z</time>
      </trkpt>
      <trkpt lat="46.87449" lon="5.61837">
        <ele>260</ele>
        <time>2012-09-18T12:07:59Z</time>
      </trkpt>
      <trkpt lat="46.87442" lon="5.61845">
        <ele>260</ele>
        <time>2012-09-18T12:08:02Z</time>
      </trkpt>
      <trkpt lat="46.87434" lon="5.61854">
        <ele>260</ele>
        <time>2012-09-18T12:08:05Z</time>
      </trkpt>
      <trkpt lat="46.87424" lon="5.61863">
        <ele>260</ele>
        <time>2012-09-18T12:08:08Z</time>
      </trkpt>
      <trkpt lat="46.87413" lon="5.61872">
        <ele>260</ele>
        <time>2012-09-18T12:08:11Z</time>
      </trkpt>
      <trkpt lat="46.87404" lon="5.61878">
        <ele>260</ele>
        <time>2012-09-18T12:08:13Z</time>
      </trkpt>
      <trkpt lat="46.87395" lon="5.61882">
        <ele>260</ele>
        <time>2012-09-18T12:08:15Z</time>
      </trkpt>
      <trkpt lat="46.87387" lon="5.61886">
        <ele>260</ele>
        <time>2012-09-18T12:08:17Z</time>
      </trkpt>
      <trkpt lat="46.87377" lon="5.6189">
        <ele>260</ele>
        <time>2012-09-18T12:08:19Z</time>
      </trkpt>
      <trkpt lat="46.87369" lon="5.61895">
        <ele>260</ele>
        <time>2012-09-18T12:08:21Z</time>
      </trkpt>
      <trkpt lat="46.8736" lon="5.61899">
        <ele>260</ele>
        <time>2012-09-18T12:08:23Z</time>
      </trkpt>
      <trkpt lat="46.87351" lon="5.61903">
        <ele>260</ele>
        <time>2012-09-18T12:08:25Z</time>
      </trkpt>
      <trkpt lat="46.87342" lon="5.61907">
        <ele>260</ele>
        <time>2012-09-18T12:08:27Z</time>
      </trkpt>
      <trkpt lat="46.87332" lon="5.61912">
        <ele>260</ele>
        <time>2012-09-18T12:08:29Z</time>
      </trkpt>
      <trkpt lat="46.87322" lon="5.61916">
        <ele>260</ele>
        <time>2012-09-18T12:08:31Z</time>
      </trkpt>
      <trkpt lat="46.87312" lon="5.61921">
        <ele>260</ele>
        <time>2012-09-18T12:08:33Z</time>
      </trkpt>
      <trkpt lat="46.87302" lon="5.61926">
        <ele>260</ele>
        <time>2012-09-18T12:08:35Z</time>
      </trkpt>
      <trkpt lat="46.87292" lon="5.61931">
        <ele>260</ele>
        <time>2012-09-18T12:08:37Z</time>
      </trkpt>
      <trkpt lat="46.87282" lon="5.61938">
        <ele>260</ele>
        <time>2012-09-18T12:08:39Z</time>
      </trkpt>
      <trkpt lat="46.87272" lon="5.61944">
        <ele>260</ele>
        <time>2012-09-18T12:08:41Z</time>
      </trkpt>
      <trkpt lat="46.87262" lon="5.61951">
        <ele>260</ele>
        <time>2012-09-18T12:08:43Z</time>
      </trkpt>
      <trkpt lat="46.87252" lon="5.61962">
        <ele>260</ele>
        <time>2012-09-18T12:08:45Z</time>
      </trkpt>
      <trkpt lat="46.87243" lon="5.61974">
        <ele>260</ele>
        <time>2012-09-18T12:08:47Z</time>
      </trkpt>
      <trkpt lat="46.87234" lon="5.61988">
        <ele>260</ele>
        <time>2012-09-18T12:08:49Z</time>
      </trkpt>
      <trkpt lat="46.87228" lon="5.62003">
        <ele>260</ele>
        <time>2012-09-18T12:08:51Z</time>
      </trkpt>
      <trkpt lat="46.87222" lon="5.62019">
        <ele>260</ele>
        <time>2012-09-18T12:08:53Z</time>
      </trkpt>
      <trkpt lat="46.87217" lon="5.62035">
        <ele>260</ele>
        <time>2012-09-18T12:08:55Z</time>
      </trkpt>
      <trkpt lat="46.8721" lon="5.62049">
        <ele>260</ele>
        <time>2012-09-18T12:08:57Z</time>
      </trkpt>
      <trkpt lat="46.87204" lon="5.62062">
        <ele>260</ele>
        <time>2012-09-18T12:08:59Z</time>
      </trkpt>
      <trkpt lat="46.87197" lon="5.62073">
        <ele>260</ele>
        <time>2012-09-18T12:09:01Z</time>
      </trkpt>
      <trkpt lat="46.8719" lon="5.62083">
        <ele>260</ele>
        <time>2012-09-18T12:09:03Z</time>
      </trkpt>
      <trkpt lat="46.87179" lon="5.62095">
        <ele>260</ele>
        <time>2012-09-18T12:09:06Z</time>
      </trkpt>
      <trkpt lat="46.87169" lon="5.62102">
        <ele>267</ele>
        <time>2012-09-18T12:09:09Z</time>
      </trkpt>
      <trkpt lat="46.87158" lon="5.62112">
        <ele>267</ele>
        <time>2012-09-18T12:09:12Z</time>
      </trkpt>
      <trkpt lat="46.87149" lon="5.62123">
        <ele>267</ele>
        <time>2012-09-18T12:09:15Z</time>
      </trkpt>
      <trkpt lat="46.87141" lon="5.62133">
        <ele>267</ele>
        <time>2012-09-18T12:09:18Z</time>
      </trkpt>
      <trkpt lat="46.87134" lon="5.62145">
        <ele>267</ele>
        <time>2012-09-18T12:09:21Z</time>
      </trkpt>
      <trkpt lat="46.87128" lon="5.62158">
        <ele>267</ele>
        <time>2012-09-18T12:09:24Z</time>
      </trkpt>
      <trkpt lat="46.87122" lon="5.6217">
        <ele>267</ele>
        <time>2012-09-18T12:09:27Z</time>
      </trkpt>
      <trkpt lat="46.87115" lon="5.62182">
        <ele>267</ele>
        <time>2012-09-18T12:09:30Z</time>
      </trkpt>
      <trkpt lat="46.87108" lon="5.62195">
        <ele>267</ele>
        <time>2012-09-18T12:09:33Z</time>
      </trkpt>
      <trkpt lat="46.87101" lon="5.62209">
        <ele>267</ele>
        <time>2012-09-18T12:09:36Z</time>
      </trkpt>
      <trkpt lat="46.87095" lon="5.62223">
        <ele>267</ele>
        <time>2012-09-18T12:09:39Z</time>
      </trkpt>
      <trkpt lat="46.87091" lon="5.62239">
        <ele>267</ele>
        <time>2012-09-18T12:09:42Z</time>
      </trkpt>
      <trkpt lat="46.87087" lon="5.62254">
        <ele>267</ele>
        <time>2012-09-18T12:09:45Z</time>
      </trkpt>
      <trkpt lat="46.87081" lon="5.6227">
        <ele>267</ele>
        <time>2012-09-18T12:09:48Z</time>
      </trkpt>
      <trkpt lat="46.87076" lon="5.62287">
        <ele>267</ele>
        <time>2012-09-18T12:09:51Z</time>
      </trkpt>
      <trkpt lat="46.87071" lon="5.62303">
        <ele>267</ele>
        <time>2012-09-18T12:09:54Z</time>
      </trkpt>
      <trkpt lat="46.87068" lon="5.62318">
        <ele>267</ele>
        <time>2012-09-18T12:09:57Z</time>
      </trkpt>
      <trkpt lat="46.87064" lon="5.62332">
        <ele>267</ele>
        <time>2012-09-18T12:10:00Z</time>
      </trkpt>
      <trkpt lat="46.87058" lon="5.62344">
        <ele>267</ele>
        <time>2012-09-18T12:10:04Z</time>
      </trkpt>
      <trkpt lat="46.87051" lon="5.62354">
        <ele>267</ele>
        <time>2012-09-18T12:10:07Z</time>
      </trkpt>
      <trkpt lat="46.87043" lon="5.62365">
        <ele>267</ele>
        <time>2012-09-18T12:10:10Z</time>
      </trkpt>
      <trkpt lat="46.87036" lon="5.62379">
        <ele>261</ele>
        <time>2012-09-18T12:10:13Z</time>
      </trkpt>
      <trkpt lat="46.87027" lon="5.62392">
        <ele>261</ele>
        <time>2012-09-18T12:10:16Z</time>
      </trkpt>
      <trkpt lat="46.87019" lon="5.62403">
        <ele>261</ele>
        <time>2012-09-18T12:10:18Z</time>
      </trkpt>
      <trkpt lat="46.8701" lon="5.62413">
        <ele>261</ele>
        <time>2012-09-18T12:10:20Z</time>
      </trkpt>
      <trkpt lat="46.86999" lon="5.62421">
        <ele>261</ele>
        <time>2012-09-18T12:10:22Z</time>
      </trkpt>
      <trkpt lat="46.86987" lon="5.6243">
        <ele>261</ele>
        <time>2012-09-18T12:10:24Z</time>
      </trkpt>
      <trkpt lat="46.86976" lon="5.62438">
        <ele>256</ele>
        <time>2012-09-18T12:10:26Z</time>
      </trkpt>
      <trkpt lat="46.86965" lon="5.62442">
        <ele>256</ele>
        <time>2012-09-18T12:10:28Z</time>
      </trkpt>
      <trkpt lat="46.86953" lon="5.6244">
        <ele>256</ele>
        <time>2012-09-18T12:10:30Z</time>
      </trkpt>
      <trkpt lat="46.8694" lon="5.62435">
        <ele>256</ele>
        <time>2012-09-18T12:10:32Z</time>
      </trkpt>
      <trkpt lat="46.86926" lon="5.6243">
        <ele>256</ele>
        <time>2012-09-18T12:10:34Z</time>
      </trkpt>
      <trkpt lat="46.86909" lon="5.62423">
        <ele>250</ele>
        <time>2012-09-18T12:10:36Z</time>
      </trkpt>
      <trkpt lat="46.86892" lon="5.62416">
        <ele>250</ele>
        <time>2012-09-18T12:10:38Z</time>
      </trkpt>
      <trkpt lat="46.86883" lon="5.62413">
        <ele>250</ele>
        <time>2012-09-18T12:10:39Z</time>
      </trkpt>
      <trkpt lat="46.86874" lon="5.62408">
        <ele>250</ele>
        <time>2012-09-18T12:10:40Z</time>
      </trkpt>
      <trkpt lat="46.86865" lon="5.62405">
        <ele>250</ele>
        <time>2012-09-18T12:10:41Z</time>
      </trkpt>
      <trkpt lat="46.86856" lon="5.62401">
        <ele>250</ele>
        <time>2012-09-18T12:10:42Z</time>
      </trkpt>
      <trkpt lat="46.86846" lon="5.62398">
        <ele>250</ele>
        <time>2012-09-18T12:10:43Z</time>
      </trkpt>
      <trkpt lat="46.86837" lon="5.62396">
        <ele>250</ele>
        <time>2012-09-18T12:10:44Z</time>
      </trkpt>
      <trkpt lat="46.86827" lon="5.62394">
        <ele>250</ele>
        <time>2012-09-18T12:10:45Z</time>
      </trkpt>
      <trkpt lat="46.86816" lon="5.62393">
        <ele>250</ele>
        <time>2012-09-18T12:10:46Z</time>
      </trkpt>
      <trkpt lat="46.86806" lon="5.62392">
        <ele>245</ele>
        <time>2012-09-18T12:10:47Z</time>
      </trkpt>
      <trkpt lat="46.86795" lon="5.62392">
        <ele>245</ele>
        <time>2012-09-18T12:10:48Z</time>
      </trkpt>
      <trkpt lat="46.86785" lon="5.62391">
        <ele>245</ele>
        <time>2012-09-18T12:10:49Z</time>
      </trkpt>
      <trkpt lat="46.86774" lon="5.62388">
        <ele>245</ele>
        <time>2012-09-18T12:10:50Z</time>
      </trkpt>
      <trkpt lat="46.86764" lon="5.62382">
        <ele>245</ele>
        <time>2012-09-18T12:10:51Z</time>
      </trkpt>
      <trkpt lat="46.86755" lon="5.62375">
        <ele>245</ele>
        <time>2012-09-18T12:10:52Z</time>
      </trkpt>
      <trkpt lat="46.86745" lon="5.62368">
        <ele>245</ele>
        <time>2012-09-18T12:10:53Z</time>
      </trkpt>
      <trkpt lat="46.86735" lon="5.6236">
        <ele>245</ele>
        <time>2012-09-18T12:10:54Z</time>
      </trkpt>
      <trkpt lat="46.86725" lon="5.62353">
        <ele>245</ele>
        <time>2012-09-18T12:10:55Z</time>
      </trkpt>
      <trkpt lat="46.86715" lon="5.62348">
        <ele>239</ele>
        <time>2012-09-18T12:10:56Z</time>
      </trkpt>
      <trkpt lat="46.86704" lon="5.62345">
        <ele>239</ele>
        <time>2012-09-18T12:10:57Z</time>
      </trkpt>
      <trkpt lat="46.86694" lon="5.62344">
        <ele>239</ele>
        <time>2012-09-18T12:10:58Z</time>
      </trkpt>
      <trkpt lat="46.86684" lon="5.62345">
        <ele>239</ele>
        <time>2012-09-18T12:10:59Z</time>
      </trkpt>
      <trkpt lat="46.86674" lon="5.62349">
        <ele>239</ele>
        <time>2012-09-18T12:11:00Z</time>
      </trkpt>
      <trkpt lat="46.86665" lon="5.62355">
        <ele>239</ele>
        <time>2012-09-18T12:11:01Z</time>
      </trkpt>
      <trkpt lat="46.86657" lon="5.62361">
        <ele>239</ele>
        <time>2012-09-18T12:11:02Z</time>
      </trkpt>
      <trkpt lat="46.86648" lon="5.62366">
        <ele>239</ele>
        <time>2012-09-18T12:11:03Z</time>
      </trkpt>
      <trkpt lat="46.86639" lon="5.6237">
        <ele>239</ele>
        <time>2012-09-18T12:11:04Z</time>
      </trkpt>
      <trkpt lat="46.86631" lon="5.62373">
        <ele>239</ele>
        <time>2012-09-18T12:11:05Z</time>
      </trkpt>
      <trkpt lat="46.86621" lon="5.62375">
        <ele>239</ele>
        <time>2012-09-18T12:11:06Z</time>
      </trkpt>
      <trkpt lat="46.86612" lon="5.62377">
        <ele>239</ele>
        <time>2012-09-18T12:11:07Z</time>
      </trkpt>
      <trkpt lat="46.86594" lon="5.62378">
        <ele>239</ele>
        <time>2012-09-18T12:11:09Z</time>
      </trkpt>
      <trkpt lat="46.86577" lon="5.62375">
        <ele>239</ele>
        <time>2012-09-18T12:11:11Z</time>
      </trkpt>
      <trkpt lat="46.8656" lon="5.62371">
        <ele>239</ele>
        <time>2012-09-18T12:11:13Z</time>
      </trkpt>
      <trkpt lat="46.86545" lon="5.62366">
        <ele>239</ele>
        <time>2012-09-18T12:11:15Z</time>
      </trkpt>
      <trkpt lat="46.86531" lon="5.62362">
        <ele>239</ele>
        <time>2012-09-18T12:11:17Z</time>
      </trkpt>
      <trkpt lat="46.86517" lon="5.62361">
        <ele>239</ele>
        <time>2012-09-18T12:11:19Z</time>
      </trkpt>
      <trkpt lat="46.86503" lon="5.62361">
        <ele>239</ele>
        <time>2012-09-18T12:11:21Z</time>
      </trkpt>
      <trkpt lat="46.8649" lon="5.62361">
        <ele>239</ele>
        <time>2012-09-18T12:11:23Z</time>
      </trkpt>
      <trkpt lat="46.86476" lon="5.62361">
        <ele>239</ele>
        <time>2012-09-18T12:11:25Z</time>
      </trkpt>
      <trkpt lat="46.86462" lon="5.62359">
        <ele>239</ele>
        <time>2012-09-18T12:11:27Z</time>
      </trkpt>
      <trkpt lat="46.86448" lon="5.62357">
        <ele>239</ele>
        <time>2012-09-18T12:11:29Z</time>
      </trkpt>
      <trkpt lat="46.86435" lon="5.62355">
        <ele>239</ele>
        <time>2012-09-18T12:11:31Z</time>
      </trkpt>
      <trkpt lat="46.86422" lon="5.62354">
        <ele>239</ele>
        <time>2012-09-18T12:11:33Z</time>
      </trkpt>
      <trkpt lat="46.86409" lon="5.62352">
        <ele>239</ele>
        <time>2012-09-18T12:11:35Z</time>
      </trkpt>
      <trkpt lat="46.86397" lon="5.62352">
        <ele>239</ele>
        <time>2012-09-18T12:11:37Z</time>
      </trkpt>
      <trkpt lat="46.86384" lon="5.62353">
        <ele>239</ele>
        <time>2012-09-18T12:11:39Z</time>
      </trkpt>
      <trkpt lat="46.86371" lon="5.62356">
        <ele>239</ele>
        <time>2012-09-18T12:11:41Z</time>
      </trkpt>
      <trkpt lat="46.86359" lon="5.6236">
        <ele>239</ele>
        <time>2012-09-18T12:11:43Z</time>
      </trkpt>
      <trkpt lat="46.86347" lon="5.62365">
        <ele>239</ele>
        <time>2012-09-18T12:11:45Z</time>
      </trkpt>
      <trkpt lat="46.86337" lon="5.6237">
        <ele>239</ele>
        <time>2012-09-18T12:11:47Z</time>
      </trkpt>
      <trkpt lat="46.86327" lon="5.62375">
        <ele>239</ele>
        <time>2012-09-18T12:11:49Z</time>
      </trkpt>
      <trkpt lat="46.86318" lon="5.62385">
        <ele>239</ele>
        <time>2012-09-18T12:11:51Z</time>
      </trkpt>
      <trkpt lat="46.86312" lon="5.62398">
        <ele>239</ele>
        <time>2012-09-18T12:11:53Z</time>
      </trkpt>
      <trkpt lat="46.86307" lon="5.62414">
        <ele>239</ele>
        <time>2012-09-18T12:11:55Z</time>
      </trkpt>
      <trkpt lat="46.86304" lon="5.62428">
        <ele>239</ele>
        <time>2012-09-18T12:11:57Z</time>
      </trkpt>
      <trkpt lat="46.863" lon="5.62442">
        <ele>239</ele>
        <time>2012-09-18T12:11:59Z</time>
      </trkpt>
      <trkpt lat="46.86296" lon="5.6246">
        <ele>239</ele>
        <time>2012-09-18T12:12:02Z</time>
      </trkpt>
      <trkpt lat="46.86294" lon="5.62472">
        <ele>239</ele>
        <time>2012-09-18T12:12:04Z</time>
      </trkpt>
      <trkpt lat="46.8629" lon="5.62489">
        <ele>239</ele>
        <time>2012-09-18T12:12:07Z</time>
      </trkpt>
      <trkpt lat="46.86286" lon="5.62506">
        <ele>239</ele>
        <time>2012-09-18T12:12:10Z</time>
      </trkpt>
      <trkpt lat="46.86283" lon="5.62522">
        <ele>239</ele>
        <time>2012-09-18T12:12:13Z</time>
      </trkpt>
      <trkpt lat="46.86278" lon="5.62539">
        <ele>239</ele>
        <time>2012-09-18T12:12:16Z</time>
      </trkpt>
      <trkpt lat="46.86274" lon="5.62557">
        <ele>239</ele>
        <time>2012-09-18T12:12:19Z</time>
      </trkpt>
      <trkpt lat="46.86272" lon="5.6257">
        <ele>239</ele>
        <time>2012-09-18T12:12:21Z</time>
      </trkpt>
      <trkpt lat="46.86268" lon="5.62583">
        <ele>239</ele>
        <time>2012-09-18T12:12:23Z</time>
      </trkpt>
      <trkpt lat="46.86265" lon="5.62597">
        <ele>239</ele>
        <time>2012-09-18T12:12:25Z</time>
      </trkpt>
      <trkpt lat="46.86262" lon="5.6261">
        <ele>239</ele>
        <time>2012-09-18T12:12:27Z</time>
      </trkpt>
      <trkpt lat="46.86259" lon="5.62624">
        <ele>239</ele>
        <time>2012-09-18T12:12:29Z</time>
      </trkpt>
      <trkpt lat="46.86256" lon="5.62638">
        <ele>239</ele>
        <time>2012-09-18T12:12:31Z</time>
      </trkpt>
      <trkpt lat="46.86253" lon="5.62653">
        <ele>239</ele>
        <time>2012-09-18T12:12:33Z</time>
      </trkpt>
      <trkpt lat="46.86252" lon="5.62669">
        <ele>239</ele>
        <time>2012-09-18T12:12:35Z</time>
      </trkpt>
      <trkpt lat="46.86252" lon="5.62687">
        <ele>239</ele>
        <time>2012-09-18T12:12:37Z</time>
      </trkpt>
      <trkpt lat="46.86254" lon="5.62707">
        <ele>239</ele>
        <time>2012-09-18T12:12:39Z</time>
      </trkpt>
      <trkpt lat="46.86256" lon="5.62727">
        <ele>239</ele>
        <time>2012-09-18T12:12:41Z</time>
      </trkpt>
      <trkpt lat="46.86255" lon="5.62747">
        <ele>239</ele>
        <time>2012-09-18T12:12:43Z</time>
      </trkpt>
      <trkpt lat="46.86251" lon="5.62767">
        <ele>239</ele>
        <time>2012-09-18T12:12:45Z</time>
      </trkpt>
      <trkpt lat="46.86246" lon="5.62786">
        <ele>239</ele>
        <time>2012-09-18T12:12:47Z</time>
      </trkpt>
      <trkpt lat="46.8624" lon="5.62803">
        <ele>239</ele>
        <time>2012-09-18T12:12:49Z</time>
      </trkpt>
      <trkpt lat="46.86235" lon="5.62819">
        <ele>239</ele>
        <time>2012-09-18T12:12:51Z</time>
      </trkpt>
      <trkpt lat="46.8623" lon="5.62835">
        <ele>239</ele>
        <time>2012-09-18T12:12:53Z</time>
      </trkpt>
      <trkpt lat="46.86224" lon="5.6285">
        <ele>239</ele>
        <time>2012-09-18T12:12:55Z</time>
      </trkpt>
      <trkpt lat="46.86219" lon="5.62866">
        <ele>239</ele>
        <time>2012-09-18T12:12:57Z</time>
      </trkpt>
      <trkpt lat="46.86214" lon="5.62883">
        <ele>239</ele>
        <time>2012-09-18T12:12:59Z</time>
      </trkpt>
      <trkpt lat="46.86207" lon="5.629">
        <ele>239</ele>
        <time>2012-09-18T12:13:01Z</time>
      </trkpt>
      <trkpt lat="46.86199" lon="5.62916">
        <ele>239</ele>
        <time>2012-09-18T12:13:03Z</time>
      </trkpt>
      <trkpt lat="46.8619" lon="5.6293">
        <ele>239</ele>
        <time>2012-09-18T12:13:05Z</time>
      </trkpt>
      <trkpt lat="46.86179" lon="5.62942">
        <ele>239</ele>
        <time>2012-09-18T12:13:07Z</time>
      </trkpt>
      <trkpt lat="46.86169" lon="5.62953">
        <ele>239</ele>
        <time>2012-09-18T12:13:09Z</time>
      </trkpt>
      <trkpt lat="46.86159" lon="5.6296">
        <ele>239</ele>
        <time>2012-09-18T12:13:11Z</time>
      </trkpt>
      <trkpt lat="46.8615" lon="5.62967">
        <ele>239</ele>
        <time>2012-09-18T12:13:13Z</time>
      </trkpt>
      <trkpt lat="46.8614" lon="5.62973">
        <ele>239</ele>
        <time>2012-09-18T12:13:15Z</time>
      </trkpt>
      <trkpt lat="46.86131" lon="5.6298">
        <ele>247</ele>
        <time>2012-09-18T12:13:17Z</time>
      </trkpt>
      <trkpt lat="46.86121" lon="5.6299">
        <ele>247</ele>
        <time>2012-09-18T12:13:20Z</time>
      </trkpt>
      <trkpt lat="46.86109" lon="5.62999">
        <ele>256</ele>
        <time>2012-09-18T12:13:23Z</time>
      </trkpt>
      <trkpt lat="46.861" lon="5.63004">
        <ele>256</ele>
        <time>2012-09-18T12:13:25Z</time>
      </trkpt>
      <trkpt lat="46.8609" lon="5.6301">
        <ele>256</ele>
        <time>2012-09-18T12:13:27Z</time>
      </trkpt>
      <trkpt lat="46.86082" lon="5.63021">
        <ele>256</ele>
        <time>2012-09-18T12:13:30Z</time>
      </trkpt>
      <trkpt lat="46.86071" lon="5.63028">
        <ele>256</ele>
        <time>2012-09-18T12:13:33Z</time>
      </trkpt>
      <trkpt lat="46.8606" lon="5.63036">
        <ele>256</ele>
        <time>2012-09-18T12:13:36Z</time>
      </trkpt>
      <trkpt lat="46.86051" lon="5.63043">
        <ele>256</ele>
        <time>2012-09-18T12:13:38Z</time>
      </trkpt>
      <trkpt lat="46.86042" lon="5.6305">
        <ele>256</ele>
        <time>2012-09-18T12:13:40Z</time>
      </trkpt>
      <trkpt lat="46.86034" lon="5.63059">
        <ele>256</ele>
        <time>2012-09-18T12:13:42Z</time>
      </trkpt>
      <trkpt lat="46.86027" lon="5.63077">
        <ele>256</ele>
        <time>2012-09-18T12:13:45Z</time>
      </trkpt>
      <trkpt lat="46.86025" lon="5.63092">
        <ele>256</ele>
        <time>2012-09-18T12:13:47Z</time>
      </trkpt>
      <trkpt lat="46.86023" lon="5.63108">
        <ele>256</ele>
        <time>2012-09-18T12:13:49Z</time>
      </trkpt>
      <trkpt lat="46.86021" lon="5.63127">
        <ele>256</ele>
        <time>2012-09-18T12:13:51Z</time>
      </trkpt>
      <trkpt lat="46.8602" lon="5.63146">
        <ele>256</ele>
        <time>2012-09-18T12:13:53Z</time>
      </trkpt>
      <trkpt lat="46.86018" lon="5.63166">
        <ele>250</ele>
        <time>2012-09-18T12:13:55Z</time>
      </trkpt>
      <trkpt lat="46.86017" lon="5.63187">
        <ele>250</ele>
        <time>2012-09-18T12:13:57Z</time>
      </trkpt>
      <trkpt lat="46.86016" lon="5.63209">
        <ele>250</ele>
        <time>2012-09-18T12:13:59Z</time>
      </trkpt>
      <trkpt lat="46.86015" lon="5.6323">
        <ele>250</ele>
        <time>2012-09-18T12:14:01Z</time>
      </trkpt>
      <trkpt lat="46.86015" lon="5.6325">
        <ele>250</ele>
        <time>2012-09-18T12:14:03Z</time>
      </trkpt>
      <trkpt lat="46.86014" lon="5.63268">
        <ele>250</ele>
        <time>2012-09-18T12:14:05Z</time>
      </trkpt>
      <trkpt lat="46.86012" lon="5.63285">
        <ele>250</ele>
        <time>2012-09-18T12:14:07Z</time>
      </trkpt>
      <trkpt lat="46.86011" lon="5.63302">
        <ele>250</ele>
        <time>2012-09-18T12:14:09Z</time>
      </trkpt>
      <trkpt lat="46.8601" lon="5.63317">
        <ele>250</ele>
        <time>2012-09-18T12:14:11Z</time>
      </trkpt>
      <trkpt lat="46.86008" lon="5.63334">
        <ele>250</ele>
        <time>2012-09-18T12:14:13Z</time>
      </trkpt>
      <trkpt lat="46.86006" lon="5.63348">
        <ele>250</ele>
        <time>2012-09-18T12:14:15Z</time>
      </trkpt>
      <trkpt lat="46.86003" lon="5.63362">
        <ele>250</ele>
        <time>2012-09-18T12:14:17Z</time>
      </trkpt>
      <trkpt lat="46.86001" lon="5.63377">
        <ele>250</ele>
        <time>2012-09-18T12:14:19Z</time>
      </trkpt>
      <trkpt lat="46.85999" lon="5.63391">
        <ele>250</ele>
        <time>2012-09-18T12:14:21Z</time>
      </trkpt>
      <trkpt lat="46.85996" lon="5.63407">
        <ele>250</ele>
        <time>2012-09-18T12:14:23Z</time>
      </trkpt>
      <trkpt lat="46.85994" lon="5.63425">
        <ele>250</ele>
        <time>2012-09-18T12:14:25Z</time>
      </trkpt>
      <trkpt lat="46.85995" lon="5.63445">
        <ele>250</ele>
        <time>2012-09-18T12:14:27Z</time>
      </trkpt>
      <trkpt lat="46.86001" lon="5.63461">
        <ele>250</ele>
        <time>2012-09-18T12:14:29Z</time>
      </trkpt>
      <trkpt lat="46.8601" lon="5.63477">
        <ele>250</ele>
        <time>2012-09-18T12:14:31Z</time>
      </trkpt>
      <trkpt lat="46.86017" lon="5.63493">
        <ele>250</ele>
        <time>2012-09-18T12:14:33Z</time>
      </trkpt>
      <trkpt lat="46.86022" lon="5.63511">
        <ele>250</ele>
        <time>2012-09-18T12:14:35Z</time>
      </trkpt>
      <trkpt lat="46.86024" lon="5.63529">
        <ele>250</ele>
        <time>2012-09-18T12:14:37Z</time>
      </trkpt>
      <trkpt lat="46.86023" lon="5.63548">
        <ele>250</ele>
        <time>2012-09-18T12:14:39Z</time>
      </trkpt>
      <trkpt lat="46.86022" lon="5.63567">
        <ele>250</ele>
        <time>2012-09-18T12:14:41Z</time>
      </trkpt>
      <trkpt lat="46.86021" lon="5.63586">
        <ele>250</ele>
        <time>2012-09-18T12:14:43Z</time>
      </trkpt>
      <trkpt lat="46.8602" lon="5.63604">
        <ele>250</ele>
        <time>2012-09-18T12:14:45Z</time>
      </trkpt>
      <trkpt lat="46.86021" lon="5.63622">
        <ele>250</ele>
        <time>2012-09-18T12:14:47Z</time>
      </trkpt>
      <trkpt lat="46.86024" lon="5.6364">
        <ele>250</ele>
        <time>2012-09-18T12:14:49Z</time>
      </trkpt>
      <trkpt lat="46.86027" lon="5.63657">
        <ele>250</ele>
        <time>2012-09-18T12:14:51Z</time>
      </trkpt>
      <trkpt lat="46.86029" lon="5.63675">
        <ele>250</ele>
        <time>2012-09-18T12:14:53Z</time>
      </trkpt>
      <trkpt lat="46.8603" lon="5.63694">
        <ele>250</ele>
        <time>2012-09-18T12:14:55Z</time>
      </trkpt>
      <trkpt lat="46.86028" lon="5.63712">
        <ele>250</ele>
        <time>2012-09-18T12:14:57Z</time>
      </trkpt>
      <trkpt lat="46.86025" lon="5.63729">
        <ele>250</ele>
        <time>2012-09-18T12:14:59Z</time>
      </trkpt>
      <trkpt lat="46.86021" lon="5.63745">
        <ele>250</ele>
        <time>2012-09-18T12:15:01Z</time>
      </trkpt>
      <trkpt lat="46.86017" lon="5.63762">
        <ele>250</ele>
        <time>2012-09-18T12:15:03Z</time>
      </trkpt>
      <trkpt lat="46.86013" lon="5.63777">
        <ele>250</ele>
        <time>2012-09-18T12:15:05Z</time>
      </trkpt>
      <trkpt lat="46.8601" lon="5.63794">
        <ele>250</ele>
        <time>2012-09-18T12:15:07Z</time>
      </trkpt>
      <trkpt lat="46.86008" lon="5.63811">
        <ele>250</ele>
        <time>2012-09-18T12:15:09Z</time>
      </trkpt>
      <trkpt lat="46.86007" lon="5.63829">
        <ele>250</ele>
        <time>2012-09-18T12:15:11Z</time>
      </trkpt>
      <trkpt lat="46.86005" lon="5.63847">
        <ele>250</ele>
        <time>2012-09-18T12:15:13Z</time>
      </trkpt>
      <trkpt lat="46.86005" lon="5.63864">
        <ele>250</ele>
        <time>2012-09-18T12:15:15Z</time>
      </trkpt>
      <trkpt lat="46.86003" lon="5.63882">
        <ele>250</ele>
        <time>2012-09-18T12:15:17Z</time>
      </trkpt>
      <trkpt lat="46.86001" lon="5.639">
        <ele>250</ele>
        <time>2012-09-18T12:15:19Z</time>
      </trkpt>
      <trkpt lat="46.85998" lon="5.63917">
        <ele>250</ele>
        <time>2012-09-18T12:15:21Z</time>
      </trkpt>
      <trkpt lat="46.85994" lon="5.63932">
        <ele>250</ele>
        <time>2012-09-18T12:15:23Z</time>
      </trkpt>
      <trkpt lat="46.85991" lon="5.63946">
        <ele>250</ele>
        <time>2012-09-18T12:15:25Z</time>
      </trkpt>
      <trkpt lat="46.85988" lon="5.63959">
        <ele>250</ele>
        <time>2012-09-18T12:15:27Z</time>
      </trkpt>
      <trkpt lat="46.85985" lon="5.63972">
        <ele>250</ele>
        <time>2012-09-18T12:15:29Z</time>
      </trkpt>
      <trkpt lat="46.85981" lon="5.63986">
        <ele>250</ele>
        <time>2012-09-18T12:15:31Z</time>
      </trkpt>
      <trkpt lat="46.85976" lon="5.63999">
        <ele>250</ele>
        <time>2012-09-18T12:15:33Z</time>
      </trkpt>
      <trkpt lat="46.8597" lon="5.6401">
        <ele>250</ele>
        <time>2012-09-18T12:15:35Z</time>
      </trkpt>
      <trkpt lat="46.85961" lon="5.6402">
        <ele>250</ele>
        <time>2012-09-18T12:15:37Z</time>
      </trkpt>
      <trkpt lat="46.85952" lon="5.64026">
        <ele>250</ele>
        <time>2012-09-18T12:15:39Z</time>
      </trkpt>
      <trkpt lat="46.85943" lon="5.64032">
        <ele>250</ele>
        <time>2012-09-18T12:15:41Z</time>
      </trkpt>
      <trkpt lat="46.85934" lon="5.64036">
        <ele>250</ele>
        <time>2012-09-18T12:15:43Z</time>
      </trkpt>
      <trkpt lat="46.85924" lon="5.64038">
        <ele>250</ele>
        <time>2012-09-18T12:15:45Z</time>
      </trkpt>
      <trkpt lat="46.85913" lon="5.64037">
        <ele>250</ele>
        <time>2012-09-18T12:15:47Z</time>
      </trkpt>
      <trkpt lat="46.85904" lon="5.64037">
        <ele>250</ele>
        <time>2012-09-18T12:15:49Z</time>
      </trkpt>
      <trkpt lat="46.85894" lon="5.64036">
        <ele>250</ele>
        <time>2012-09-18T12:15:51Z</time>
      </trkpt>
      <trkpt lat="46.85884" lon="5.64039">
        <ele>250</ele>
        <time>2012-09-18T12:15:53Z</time>
      </trkpt>
      <trkpt lat="46.85876" lon="5.64046">
        <ele>250</ele>
        <time>2012-09-18T12:15:55Z</time>
      </trkpt>
      <trkpt lat="46.85869" lon="5.64056">
        <ele>250</ele>
        <time>2012-09-18T12:15:57Z</time>
      </trkpt>
      <trkpt lat="46.85864" lon="5.64067">
        <ele>250</ele>
        <time>2012-09-18T12:15:59Z</time>
      </trkpt>
      <trkpt lat="46.85859" lon="5.64084">
        <ele>250</ele>
        <time>2012-09-18T12:16:02Z</time>
      </trkpt>
      <trkpt lat="46.85854" lon="5.64095">
        <ele>250</ele>
        <time>2012-09-18T12:16:04Z</time>
      </trkpt>
      <trkpt lat="46.85849" lon="5.64108">
        <ele>255</ele>
        <time>2012-09-18T12:16:06Z</time>
      </trkpt>
      <trkpt lat="46.85843" lon="5.6412">
        <ele>255</ele>
        <time>2012-09-18T12:16:08Z</time>
      </trkpt>
      <trkpt lat="46.85838" lon="5.64135">
        <ele>255</ele>
        <time>2012-09-18T12:16:10Z</time>
      </trkpt>
      <trkpt lat="46.85832" lon="5.64148">
        <ele>255</ele>
        <time>2012-09-18T12:16:12Z</time>
      </trkpt>
      <trkpt lat="46.85827" lon="5.64163">
        <ele>255</ele>
        <time>2012-09-18T12:16:14Z</time>
      </trkpt>
      <trkpt lat="46.85825" lon="5.64178">
        <ele>255</ele>
        <time>2012-09-18T12:16:16Z</time>
      </trkpt>
      <trkpt lat="46.85822" lon="5.64193">
        <ele>255</ele>
        <time>2012-09-18T12:16:18Z</time>
      </trkpt>
      <trkpt lat="46.85819" lon="5.64208">
        <ele>255</ele>
        <time>2012-09-18T12:16:20Z</time>
      </trkpt>
      <trkpt lat="46.85815" lon="5.64222">
        <ele>255</ele>
        <time>2012-09-18T12:16:22Z</time>
      </trkpt>
      <trkpt lat="46.85811" lon="5.64235">
        <ele>255</ele>
        <time>2012-09-18T12:16:24Z</time>
      </trkpt>
      <trkpt lat="46.85804" lon="5.64251">
        <ele>255</ele>
        <time>2012-09-18T12:16:27Z</time>
      </trkpt>
      <trkpt lat="46.85795" lon="5.64259">
        <ele>255</ele>
        <time>2012-09-18T12:16:30Z</time>
      </trkpt>
      <trkpt lat="46.85785" lon="5.64255">
        <ele>255</ele>
        <time>2012-09-18T12:16:33Z</time>
      </trkpt>
      <trkpt lat="46.85775" lon="5.64252">
        <ele>260</ele>
        <time>2012-09-18T12:16:36Z</time>
      </trkpt>
      <trkpt lat="46.85765" lon="5.64249">
        <ele>260</ele>
        <time>2012-09-18T12:16:39Z</time>
      </trkpt>
      <trkpt lat="46.85755" lon="5.64246">
        <ele>260</ele>
        <time>2012-09-18T12:16:42Z</time>
      </trkpt>
      <trkpt lat="46.85743" lon="5.64244">
        <ele>260</ele>
        <time>2012-09-18T12:16:45Z</time>
      </trkpt>
      <trkpt lat="46.85731" lon="5.64243">
        <ele>260</ele>
        <time>2012-09-18T12:16:48Z</time>
      </trkpt>
      <trkpt lat="46.85719" lon="5.64239">
        <ele>260</ele>
        <time>2012-09-18T12:16:51Z</time>
      </trkpt>
      <trkpt lat="46.85711" lon="5.64234">
        <ele>260</ele>
        <time>2012-09-18T12:16:53Z</time>
      </trkpt>
      <trkpt lat="46.857" lon="5.64226">
        <ele>266</ele>
        <time>2012-09-18T12:16:56Z</time>
      </trkpt>
      <trkpt lat="46.85689" lon="5.64219">
        <ele>266</ele>
        <time>2012-09-18T12:16:59Z</time>
      </trkpt>
      <trkpt lat="46.85677" lon="5.64212">
        <ele>266</ele>
        <time>2012-09-18T12:17:02Z</time>
      </trkpt>
      <trkpt lat="46.85666" lon="5.64205">
        <ele>266</ele>
        <time>2012-09-18T12:17:05Z</time>
      </trkpt>
      <trkpt lat="46.85655" lon="5.64197">
        <ele>266</ele>
        <time>2012-09-18T12:17:08Z</time>
      </trkpt>
      <trkpt lat="46.85645" lon="5.6419">
        <ele>266</ele>
        <time>2012-09-18T12:17:11Z</time>
      </trkpt>
      <trkpt lat="46.85634" lon="5.64182">
        <ele>266</ele>
        <time>2012-09-18T12:17:14Z</time>
      </trkpt>
      <trkpt lat="46.85623" lon="5.64175">
        <ele>266</ele>
        <time>2012-09-18T12:17:17Z</time>
      </trkpt>
      <trkpt lat="46.85612" lon="5.64171">
        <ele>266</ele>
        <time>2012-09-18T12:17:20Z</time>
      </trkpt>
      <trkpt lat="46.856" lon="5.6417">
        <ele>266</ele>
        <time>2012-09-18T12:17:23Z</time>
      </trkpt>
      <trkpt lat="46.85587" lon="5.64173">
        <ele>266</ele>
        <time>2012-09-18T12:17:26Z</time>
      </trkpt>
      <trkpt lat="46.85578" lon="5.64178">
        <ele>266</ele>
        <time>2012-09-18T12:17:28Z</time>
      </trkpt>
      <trkpt lat="46.85566" lon="5.64184">
        <ele>266</ele>
        <time>2012-09-18T12:17:31Z</time>
      </trkpt>
      <trkpt lat="46.85557" lon="5.64189">
        <ele>266</ele>
        <time>2012-09-18T12:17:33Z</time>
      </trkpt>
      <trkpt lat="46.85547" lon="5.64192">
        <ele>266</ele>
        <time>2012-09-18T12:17:35Z</time>
      </trkpt>
      <trkpt lat="46.85538" lon="5.64195">
        <ele>266</ele>
        <time>2012-09-18T12:17:37Z</time>
      </trkpt>
      <trkpt lat="46.85528" lon="5.64193">
        <ele>266</ele>
        <time>2012-09-18T12:17:39Z</time>
      </trkpt>
      <trkpt lat="46.85517" lon="5.64188">
        <ele>266</ele>
        <time>2012-09-18T12:17:41Z</time>
      </trkpt>
      <trkpt lat="46.85506" lon="5.64181">
        <ele>266</ele>
        <time>2012-09-18T12:17:43Z</time>
      </trkpt>
      <trkpt lat="46.85495" lon="5.64173">
        <ele>266</ele>
        <time>2012-09-18T12:17:45Z</time>
      </trkpt>
      <trkpt lat="46.85483" lon="5.64165">
        <ele>266</ele>
        <time>2012-09-18T12:17:47Z</time>
      </trkpt>
      <trkpt lat="46.85471" lon="5.64157">
        <ele>266</ele>
        <time>2012-09-18T12:17:49Z</time>
      </trkpt>
      <trkpt lat="46.85458" lon="5.64149">
        <ele>266</ele>
        <time>2012-09-18T12:17:51Z</time>
      </trkpt>
      <trkpt lat="46.85444" lon="5.6414">
        <ele>266</ele>
        <time>2012-09-18T12:17:53Z</time>
      </trkpt>
      <trkpt lat="46.8543" lon="5.64129">
        <ele>266</ele>
        <time>2012-09-18T12:17:55Z</time>
      </trkpt>
      <trkpt lat="46.85416" lon="5.64119">
        <ele>266</ele>
        <time>2012-09-18T12:17:57Z</time>
      </trkpt>
      <trkpt lat="46.85402" lon="5.64107">
        <ele>260</ele>
        <time>2012-09-18T12:17:59Z</time>
      </trkpt>
      <trkpt lat="46.85388" lon="5.64094">
        <ele>260</ele>
        <time>2012-09-18T12:18:01Z</time>
      </trkpt>
      <trkpt lat="46.85375" lon="5.64082">
        <ele>260</ele>
        <time>2012-09-18T12:18:03Z</time>
      </trkpt>
      <trkpt lat="46.85361" lon="5.64071">
        <ele>260</ele>
        <time>2012-09-18T12:18:05Z</time>
      </trkpt>
      <trkpt lat="46.85347" lon="5.64064">
        <ele>260</ele>
        <time>2012-09-18T12:18:07Z</time>
      </trkpt>
      <trkpt lat="46.85334" lon="5.6406">
        <ele>260</ele>
        <time>2012-09-18T12:18:09Z</time>
      </trkpt>
      <trkpt lat="46.85319" lon="5.64057">
        <ele>260</ele>
        <time>2012-09-18T12:18:11Z</time>
      </trkpt>
      <trkpt lat="46.85305" lon="5.64054">
        <ele>260</ele>
        <time>2012-09-18T12:18:13Z</time>
      </trkpt>
      <trkpt lat="46.85292" lon="5.64051">
        <ele>260</ele>
        <time>2012-09-18T12:18:15Z</time>
      </trkpt>
      <trkpt lat="46.85278" lon="5.64049">
        <ele>260</ele>
        <time>2012-09-18T12:18:17Z</time>
      </trkpt>
      <trkpt lat="46.85264" lon="5.64046">
        <ele>260</ele>
        <time>2012-09-18T12:18:19Z</time>
      </trkpt>
      <trkpt lat="46.8525" lon="5.64043">
        <ele>260</ele>
        <time>2012-09-18T12:18:21Z</time>
      </trkpt>
      <trkpt lat="46.85236" lon="5.64041">
        <ele>260</ele>
        <time>2012-09-18T12:18:23Z</time>
      </trkpt>
      <trkpt lat="46.85222" lon="5.64038">
        <ele>260</ele>
        <time>2012-09-18T12:18:25Z</time>
      </trkpt>
      <trkpt lat="46.85208" lon="5.64036">
        <ele>260</ele>
        <time>2012-09-18T12:18:27Z</time>
      </trkpt>
      <trkpt lat="46.85194" lon="5.64032">
        <ele>260</ele>
        <time>2012-09-18T12:18:29Z</time>
      </trkpt>
      <trkpt lat="46.85178" lon="5.6403">
        <ele>260</ele>
        <time>2012-09-18T12:18:31Z</time>
      </trkpt>
      <trkpt lat="46.85164" lon="5.64026">
        <ele>260</ele>
        <time>2012-09-18T12:18:33Z</time>
      </trkpt>
      <trkpt lat="46.85148" lon="5.64023">
        <ele>260</ele>
        <time>2012-09-18T12:18:35Z</time>
      </trkpt>
      <trkpt lat="46.85133" lon="5.6402">
        <ele>260</ele>
        <time>2012-09-18T12:18:37Z</time>
      </trkpt>
      <trkpt lat="46.8512" lon="5.64016">
        <ele>260</ele>
        <time>2012-09-18T12:18:39Z</time>
      </trkpt>
      <trkpt lat="46.85106" lon="5.64014">
        <ele>260</ele>
        <time>2012-09-18T12:18:41Z</time>
      </trkpt>
      <trkpt lat="46.85093" lon="5.64011">
        <ele>260</ele>
        <time>2012-09-18T12:18:43Z</time>
      </trkpt>
      <trkpt lat="46.8508" lon="5.64008">
        <ele>255</ele>
        <time>2012-09-18T12:18:45Z</time>
      </trkpt>
      <trkpt lat="46.85067" lon="5.64006">
        <ele>255</ele>
        <time>2012-09-18T12:18:47Z</time>
      </trkpt>
      <trkpt lat="46.85054" lon="5.64003">
        <ele>255</ele>
        <time>2012-09-18T12:18:49Z</time>
      </trkpt>
      <trkpt lat="46.85039" lon="5.63999">
        <ele>255</ele>
        <time>2012-09-18T12:18:51Z</time>
      </trkpt>
      <trkpt lat="46.85024" lon="5.63997">
        <ele>255</ele>
        <time>2012-09-18T12:18:53Z</time>
      </trkpt>
      <trkpt lat="46.85009" lon="5.63994">
        <ele>255</ele>
        <time>2012-09-18T12:18:55Z</time>
      </trkpt>
      <trkpt lat="46.84993" lon="5.63991">
        <ele>255</ele>
        <time>2012-09-18T12:18:57Z</time>
      </trkpt>
      <trkpt lat="46.84978" lon="5.63989">
        <ele>255</ele>
        <time>2012-09-18T12:18:59Z</time>
      </trkpt>
      <trkpt lat="46.84963" lon="5.63988">
        <ele>255</ele>
        <time>2012-09-18T12:19:01Z</time>
      </trkpt>
      <trkpt lat="46.84947" lon="5.6399">
        <ele>255</ele>
        <time>2012-09-18T12:19:03Z</time>
      </trkpt>
      <trkpt lat="46.84932" lon="5.63993">
        <ele>255</ele>
        <time>2012-09-18T12:19:05Z</time>
      </trkpt>
      <trkpt lat="46.84919" lon="5.63997">
        <ele>255</ele>
        <time>2012-09-18T12:19:07Z</time>
      </trkpt>
      <trkpt lat="46.84906" lon="5.64001">
        <ele>255</ele>
        <time>2012-09-18T12:19:09Z</time>
      </trkpt>
      <trkpt lat="46.84894" lon="5.64005">
        <ele>255</ele>
        <time>2012-09-18T12:19:11Z</time>
      </trkpt>
      <trkpt lat="46.84882" lon="5.64006">
        <ele>255</ele>
        <time>2012-09-18T12:19:13Z</time>
      </trkpt>
      <trkpt lat="46.84871" lon="5.64008">
        <ele>255</ele>
        <time>2012-09-18T12:19:15Z</time>
      </trkpt>
      <trkpt lat="46.8486" lon="5.64009">
        <ele>255</ele>
        <time>2012-09-18T12:19:17Z</time>
      </trkpt>
      <trkpt lat="46.84849" lon="5.64008">
        <ele>255</ele>
        <time>2012-09-18T12:19:19Z</time>
      </trkpt>
      <trkpt lat="46.84838" lon="5.64006">
        <ele>255</ele>
        <time>2012-09-18T12:19:21Z</time>
      </trkpt>
      <trkpt lat="46.84827" lon="5.64005">
        <ele>255</ele>
        <time>2012-09-18T12:19:23Z</time>
      </trkpt>
      <trkpt lat="46.84817" lon="5.64003">
        <ele>255</ele>
        <time>2012-09-18T12:19:25Z</time>
      </trkpt>
      <trkpt lat="46.84807" lon="5.64002">
        <ele>255</ele>
        <time>2012-09-18T12:19:27Z</time>
      </trkpt>
      <trkpt lat="46.84796" lon="5.64">
        <ele>255</ele>
        <time>2012-09-18T12:19:29Z</time>
      </trkpt>
      <trkpt lat="46.84786" lon="5.63998">
        <ele>255</ele>
        <time>2012-09-18T12:19:31Z</time>
      </trkpt>
      <trkpt lat="46.84775" lon="5.63997">
        <ele>255</ele>
        <time>2012-09-18T12:19:33Z</time>
      </trkpt>
      <trkpt lat="46.84765" lon="5.63998">
        <ele>255</ele>
        <time>2012-09-18T12:19:35Z</time>
      </trkpt>
      <trkpt lat="46.84754" lon="5.63998">
        <ele>255</ele>
        <time>2012-09-18T12:19:37Z</time>
      </trkpt>
      <trkpt lat="46.84742" lon="5.63999">
        <ele>255</ele>
        <time>2012-09-18T12:19:39Z</time>
      </trkpt>
      <trkpt lat="46.8473" lon="5.64001">
        <ele>255</ele>
        <time>2012-09-18T12:19:41Z</time>
      </trkpt>
      <trkpt lat="46.84718" lon="5.64003">
        <ele>255</ele>
        <time>2012-09-18T12:19:43Z</time>
      </trkpt>
      <trkpt lat="46.84706" lon="5.64005">
        <ele>255</ele>
        <time>2012-09-18T12:19:45Z</time>
      </trkpt>
      <trkpt lat="46.84694" lon="5.64006">
        <ele>255</ele>
        <time>2012-09-18T12:19:47Z</time>
      </trkpt>
      <trkpt lat="46.84682" lon="5.64007">
        <ele>255</ele>
        <time>2012-09-18T12:19:49Z</time>
      </trkpt>
      <trkpt lat="46.84669" lon="5.64008">
        <ele>255</ele>
        <time>2012-09-18T12:19:51Z</time>
      </trkpt>
      <trkpt lat="46.84658" lon="5.6401">
        <ele>255</ele>
        <time>2012-09-18T12:19:53Z</time>
      </trkpt>
      <trkpt lat="46.84645" lon="5.64011">
        <ele>255</ele>
        <time>2012-09-18T12:19:55Z</time>
      </trkpt>
      <trkpt lat="46.84634" lon="5.64011">
        <ele>255</ele>
        <time>2012-09-18T12:19:57Z</time>
      </trkpt>
      <trkpt lat="46.84622" lon="5.64012">
        <ele>255</ele>
        <time>2012-09-18T12:19:59Z</time>
      </trkpt>
      <trkpt lat="46.8461" lon="5.64013">
        <ele>255</ele>
        <time>2012-09-18T12:20:01Z</time>
      </trkpt>
      <trkpt lat="46.84599" lon="5.64014">
        <ele>255</ele>
        <time>2012-09-18T12:20:03Z</time>
      </trkpt>
      <trkpt lat="46.84587" lon="5.64015">
        <ele>255</ele>
        <time>2012-09-18T12:20:05Z</time>
      </trkpt>
      <trkpt lat="46.84577" lon="5.64017">
        <ele>255</ele>
        <time>2012-09-18T12:20:07Z</time>
      </trkpt>
      <trkpt lat="46.84567" lon="5.64019">
        <ele>255</ele>
        <time>2012-09-18T12:20:09Z</time>
      </trkpt>
      <trkpt lat="46.84556" lon="5.64022">
        <ele>260</ele>
        <time>2012-09-18T12:20:12Z</time>
      </trkpt>
      <trkpt lat="46.84547" lon="5.64024">
        <ele>260</ele>
        <time>2012-09-18T12:20:16Z</time>
      </trkpt>
      <trkpt lat="46.84537" lon="5.64026">
        <ele>260</ele>
        <time>2012-09-18T12:20:21Z</time>
      </trkpt>
      <trkpt lat="46.84528" lon="5.64028">
        <ele>260</ele>
        <time>2012-09-18T12:20:48Z</time>
      </trkpt>
      <trkpt lat="46.84522" lon="5.64041">
        <ele>260</ele>
        <time>2012-09-18T12:20:53Z</time>
      </trkpt>
      <trkpt lat="46.84521" lon="5.64057">
        <ele>260</ele>
        <time>2012-09-18T12:20:56Z</time>
      </trkpt>
      <trkpt lat="46.84521" lon="5.64074">
        <ele>260</ele>
        <time>2012-09-18T12:20:59Z</time>
      </trkpt>
      <trkpt lat="46.84521" lon="5.64087">
        <ele>260</ele>
        <time>2012-09-18T12:21:01Z</time>
      </trkpt>
      <trkpt lat="46.8452" lon="5.64107">
        <ele>260</ele>
        <time>2012-09-18T12:21:04Z</time>
      </trkpt>
      <trkpt lat="46.84519" lon="5.6412">
        <ele>260</ele>
        <time>2012-09-18T12:21:06Z</time>
      </trkpt>
      <trkpt lat="46.84518" lon="5.64135">
        <ele>260</ele>
        <time>2012-09-18T12:21:08Z</time>
      </trkpt>
      <trkpt lat="46.84518" lon="5.64149">
        <ele>260</ele>
        <time>2012-09-18T12:21:10Z</time>
      </trkpt>
      <trkpt lat="46.84518" lon="5.64164">
        <ele>260</ele>
        <time>2012-09-18T12:21:12Z</time>
      </trkpt>
      <trkpt lat="46.84518" lon="5.64177">
        <ele>260</ele>
        <time>2012-09-18T12:21:14Z</time>
      </trkpt>
      <trkpt lat="46.84518" lon="5.64191">
        <ele>260</ele>
        <time>2012-09-18T12:21:16Z</time>
      </trkpt>
      <trkpt lat="46.84517" lon="5.64205">
        <ele>260</ele>
        <time>2012-09-18T12:21:18Z</time>
      </trkpt>
      <trkpt lat="46.84516" lon="5.64219">
        <ele>260</ele>
        <time>2012-09-18T12:21:20Z</time>
      </trkpt>
      <trkpt lat="46.84516" lon="5.64234">
        <ele>260</ele>
        <time>2012-09-18T12:21:22Z</time>
      </trkpt>
      <trkpt lat="46.84515" lon="5.64249">
        <ele>260</ele>
        <time>2012-09-18T12:21:24Z</time>
      </trkpt>
      <trkpt lat="46.84515" lon="5.64265">
        <ele>260</ele>
        <time>2012-09-18T12:21:26Z</time>
      </trkpt>
      <trkpt lat="46.84514" lon="5.64281">
        <ele>260</ele>
        <time>2012-09-18T12:21:28Z</time>
      </trkpt>
      <trkpt lat="46.84513" lon="5.64298">
        <ele>260</ele>
        <time>2012-09-18T12:21:30Z</time>
      </trkpt>
      <trkpt lat="46.84513" lon="5.64315">
        <ele>260</ele>
        <time>2012-09-18T12:21:32Z</time>
      </trkpt>
      <trkpt lat="46.84512" lon="5.64334">
        <ele>260</ele>
        <time>2012-09-18T12:21:34Z</time>
      </trkpt>
      <trkpt lat="46.84512" lon="5.64353">
        <ele>260</ele>
        <time>2012-09-18T12:21:36Z</time>
      </trkpt>
      <trkpt lat="46.84511" lon="5.64372">
        <ele>260</ele>
        <time>2012-09-18T12:21:38Z</time>
      </trkpt>
      <trkpt lat="46.8451" lon="5.64392">
        <ele>260</ele>
        <time>2012-09-18T12:21:40Z</time>
      </trkpt>
      <trkpt lat="46.8451" lon="5.64412">
        <ele>260</ele>
        <time>2012-09-18T12:21:42Z</time>
      </trkpt>
      <trkpt lat="46.84509" lon="5.64433">
        <ele>260</ele>
        <time>2012-09-18T12:21:44Z</time>
      </trkpt>
      <trkpt lat="46.84508" lon="5.64455">
        <ele>260</ele>
        <time>2012-09-18T12:21:46Z</time>
      </trkpt>
      <trkpt lat="46.84508" lon="5.64477">
        <ele>260</ele>
        <time>2012-09-18T12:21:48Z</time>
      </trkpt>
      <trkpt lat="46.84507" lon="5.645">
        <ele>260</ele>
        <time>2012-09-18T12:21:50Z</time>
      </trkpt>
      <trkpt lat="46.84506" lon="5.64523">
        <ele>260</ele>
        <time>2012-09-18T12:21:52Z</time>
      </trkpt>
      <trkpt lat="46.84505" lon="5.64546">
        <ele>260</ele>
        <time>2012-09-18T12:21:54Z</time>
      </trkpt>
      <trkpt lat="46.84504" lon="5.64571">
        <ele>260</ele>
        <time>2012-09-18T12:21:56Z</time>
      </trkpt>
      <trkpt lat="46.84503" lon="5.64595">
        <ele>260</ele>
        <time>2012-09-18T12:21:58Z</time>
      </trkpt>
      <trkpt lat="46.84502" lon="5.64619">
        <ele>260</ele>
        <time>2012-09-18T12:22:00Z</time>
      </trkpt>
      <trkpt lat="46.84502" lon="5.64643">
        <ele>260</ele>
        <time>2012-09-18T12:22:02Z</time>
      </trkpt>
      <trkpt lat="46.845" lon="5.64667">
        <ele>260</ele>
        <time>2012-09-18T12:22:04Z</time>
      </trkpt>
      <trkpt lat="46.84499" lon="5.6469">
        <ele>260</ele>
        <time>2012-09-18T12:22:06Z</time>
      </trkpt>
      <trkpt lat="46.84498" lon="5.64713">
        <ele>260</ele>
        <time>2012-09-18T12:22:08Z</time>
      </trkpt>
      <trkpt lat="46.84496" lon="5.64735">
        <ele>260</ele>
        <time>2012-09-18T12:22:10Z</time>
      </trkpt>
      <trkpt lat="46.84495" lon="5.64757">
        <ele>260</ele>
        <time>2012-09-18T12:22:12Z</time>
      </trkpt>
      <trkpt lat="46.84493" lon="5.64778">
        <ele>260</ele>
        <time>2012-09-18T12:22:14Z</time>
      </trkpt>
      <trkpt lat="46.84491" lon="5.648">
        <ele>260</ele>
        <time>2012-09-18T12:22:16Z</time>
      </trkpt>
      <trkpt lat="46.84487" lon="5.6482">
        <ele>260</ele>
        <time>2012-09-18T12:22:18Z</time>
      </trkpt>
      <trkpt lat="46.84485" lon="5.6484">
        <ele>260</ele>
        <time>2012-09-18T12:22:20Z</time>
      </trkpt>
      <trkpt lat="46.84481" lon="5.64861">
        <ele>260</ele>
        <time>2012-09-18T12:22:22Z</time>
      </trkpt>
      <trkpt lat="46.84478" lon="5.6488">
        <ele>260</ele>
        <time>2012-09-18T12:22:24Z</time>
      </trkpt>
      <trkpt lat="46.84475" lon="5.64899">
        <ele>266</ele>
        <time>2012-09-18T12:22:26Z</time>
      </trkpt>
      <trkpt lat="46.84471" lon="5.64918">
        <ele>266</ele>
        <time>2012-09-18T12:22:28Z</time>
      </trkpt>
      <trkpt lat="46.84467" lon="5.64936">
        <ele>266</ele>
        <time>2012-09-18T12:22:30Z</time>
      </trkpt>
      <trkpt lat="46.84463" lon="5.64955">
        <ele>266</ele>
        <time>2012-09-18T12:22:32Z</time>
      </trkpt>
      <trkpt lat="46.8446" lon="5.64973">
        <ele>266</ele>
        <time>2012-09-18T12:22:34Z</time>
      </trkpt>
      <trkpt lat="46.84455" lon="5.6499">
        <ele>266</ele>
        <time>2012-09-18T12:22:36Z</time>
      </trkpt>
      <trkpt lat="46.84451" lon="5.65007">
        <ele>266</ele>
        <time>2012-09-18T12:22:38Z</time>
      </trkpt>
      <trkpt lat="46.84448" lon="5.65023">
        <ele>266</ele>
        <time>2012-09-18T12:22:40Z</time>
      </trkpt>
      <trkpt lat="46.84444" lon="5.6504">
        <ele>266</ele>
        <time>2012-09-18T12:22:42Z</time>
      </trkpt>
      <trkpt lat="46.84441" lon="5.65056">
        <ele>266</ele>
        <time>2012-09-18T12:22:44Z</time>
      </trkpt>
      <trkpt lat="46.84437" lon="5.65072">
        <ele>266</ele>
        <time>2012-09-18T12:22:46Z</time>
      </trkpt>
      <trkpt lat="46.84434" lon="5.65087">
        <ele>266</ele>
        <time>2012-09-18T12:22:48Z</time>
      </trkpt>
      <trkpt lat="46.8443" lon="5.65101">
        <ele>266</ele>
        <time>2012-09-18T12:22:50Z</time>
      </trkpt>
      <trkpt lat="46.84427" lon="5.65117">
        <ele>266</ele>
        <time>2012-09-18T12:22:52Z</time>
      </trkpt>
      <trkpt lat="46.84423" lon="5.6513">
        <ele>271</ele>
        <time>2012-09-18T12:22:54Z</time>
      </trkpt>
      <trkpt lat="46.84416" lon="5.65145">
        <ele>271</ele>
        <time>2012-09-18T12:22:57Z</time>
      </trkpt>
      <trkpt lat="46.84407" lon="5.65146">
        <ele>271</ele>
        <time>2012-09-18T12:22:59Z</time>
      </trkpt>
      <trkpt lat="46.84396" lon="5.65137">
        <ele>271</ele>
        <time>2012-09-18T12:23:01Z</time>
      </trkpt>
      <trkpt lat="46.84385" lon="5.65125">
        <ele>271</ele>
        <time>2012-09-18T12:23:03Z</time>
      </trkpt>
      <trkpt lat="46.84373" lon="5.6511">
        <ele>271</ele>
        <time>2012-09-18T12:23:05Z</time>
      </trkpt>
      <trkpt lat="46.8436" lon="5.65092">
        <ele>271</ele>
        <time>2012-09-18T12:23:07Z</time>
      </trkpt>
      <trkpt lat="46.84353" lon="5.65083">
        <ele>266</ele>
        <time>2012-09-18T12:23:08Z</time>
      </trkpt>
      <trkpt lat="46.84346" lon="5.65074">
        <ele>266</ele>
        <time>2012-09-18T12:23:09Z</time>
      </trkpt>
      <trkpt lat="46.84338" lon="5.65066">
        <ele>266</ele>
        <time>2012-09-18T12:23:10Z</time>
      </trkpt>
      <trkpt lat="46.8433" lon="5.65057">
        <ele>266</ele>
        <time>2012-09-18T12:23:11Z</time>
      </trkpt>
      <trkpt lat="46.84322" lon="5.65048">
        <ele>266</ele>
        <time>2012-09-18T12:23:12Z</time>
      </trkpt>
      <trkpt lat="46.84313" lon="5.65041">
        <ele>266</ele>
        <time>2012-09-18T12:23:13Z</time>
      </trkpt>
      <trkpt lat="46.84304" lon="5.65034">
        <ele>266</ele>
        <time>2012-09-18T12:23:14Z</time>
      </trkpt>
      <trkpt lat="46.84296" lon="5.65027">
        <ele>266</ele>
        <time>2012-09-18T12:23:15Z</time>
      </trkpt>
      <trkpt lat="46.84287" lon="5.65021">
        <ele>260</ele>
        <time>2012-09-18T12:23:16Z</time>
      </trkpt>
      <trkpt lat="46.84278" lon="5.65014">
        <ele>260</ele>
        <time>2012-09-18T12:23:17Z</time>
      </trkpt>
      <trkpt lat="46.8427" lon="5.65008">
        <ele>260</ele>
        <time>2012-09-18T12:23:18Z</time>
      </trkpt>
      <trkpt lat="46.84261" lon="5.65002">
        <ele>260</ele>
        <time>2012-09-18T12:23:19Z</time>
      </trkpt>
      <trkpt lat="46.84253" lon="5.64995">
        <ele>260</ele>
        <time>2012-09-18T12:23:20Z</time>
      </trkpt>
      <trkpt lat="46.84245" lon="5.64989">
        <ele>260</ele>
        <time>2012-09-18T12:23:21Z</time>
      </trkpt>
      <trkpt lat="46.84236" lon="5.64983">
        <ele>260</ele>
        <time>2012-09-18T12:23:22Z</time>
      </trkpt>
      <trkpt lat="46.84227" lon="5.64977">
        <ele>255</ele>
        <time>2012-09-18T12:23:23Z</time>
      </trkpt>
      <trkpt lat="46.84218" lon="5.6497">
        <ele>255</ele>
        <time>2012-09-18T12:23:24Z</time>
      </trkpt>
      <trkpt lat="46.84209" lon="5.64963">
        <ele>255</ele>
        <time>2012-09-18T12:23:25Z</time>
      </trkpt>
      <trkpt lat="46.842" lon="5.64958">
        <ele>255</ele>
        <time>2012-09-18T12:23:26Z</time>
      </trkpt>
      <trkpt lat="46.8419" lon="5.64952">
        <ele>255</ele>
        <time>2012-09-18T12:23:27Z</time>
      </trkpt>
      <trkpt lat="46.84179" lon="5.64949">
        <ele>255</ele>
        <time>2012-09-18T12:23:28Z</time>
      </trkpt>
      <trkpt lat="46.8417" lon="5.64948">
        <ele>255</ele>
        <time>2012-09-18T12:23:29Z</time>
      </trkpt>
      <trkpt lat="46.84159" lon="5.6495">
        <ele>255</ele>
        <time>2012-09-18T12:23:30Z</time>
      </trkpt>
      <trkpt lat="46.84148" lon="5.64953">
        <ele>255</ele>
        <time>2012-09-18T12:23:31Z</time>
      </trkpt>
      <trkpt lat="46.84139" lon="5.64958">
        <ele>255</ele>
        <time>2012-09-18T12:23:32Z</time>
      </trkpt>
      <trkpt lat="46.84129" lon="5.64963">
        <ele>255</ele>
        <time>2012-09-18T12:23:33Z</time>
      </trkpt>
      <trkpt lat="46.84121" lon="5.64969">
        <ele>255</ele>
        <time>2012-09-18T12:23:34Z</time>
      </trkpt>
      <trkpt lat="46.84112" lon="5.64974">
        <ele>255</ele>
        <time>2012-09-18T12:23:35Z</time>
      </trkpt>
      <trkpt lat="46.84103" lon="5.64979">
        <ele>255</ele>
        <time>2012-09-18T12:23:36Z</time>
      </trkpt>
      <trkpt lat="46.84087" lon="5.6499">
        <ele>255</ele>
        <time>2012-09-18T12:23:38Z</time>
      </trkpt>
      <trkpt lat="46.84071" lon="5.64999">
        <ele>255</ele>
        <time>2012-09-18T12:23:40Z</time>
      </trkpt>
      <trkpt lat="46.84062" lon="5.65004">
        <ele>255</ele>
        <time>2012-09-18T12:23:41Z</time>
      </trkpt>
      <trkpt lat="46.84045" lon="5.65013">
        <ele>255</ele>
        <time>2012-09-18T12:23:43Z</time>
      </trkpt>
      <trkpt lat="46.84029" lon="5.6502">
        <ele>255</ele>
        <time>2012-09-18T12:23:45Z</time>
      </trkpt>
      <trkpt lat="46.84013" lon="5.65021">
        <ele>255</ele>
        <time>2012-09-18T12:23:47Z</time>
      </trkpt>
      <trkpt lat="46.83997" lon="5.65019">
        <ele>255</ele>
        <time>2012-09-18T12:23:49Z</time>
      </trkpt>
      <trkpt lat="46.83982" lon="5.65012">
        <ele>255</ele>
        <time>2012-09-18T12:23:51Z</time>
      </trkpt>
      <trkpt lat="46.83969" lon="5.65003">
        <ele>255</ele>
        <time>2012-09-18T12:23:53Z</time>
      </trkpt>
      <trkpt lat="46.83957" lon="5.64995">
        <ele>255</ele>
        <time>2012-09-18T12:23:55Z</time>
      </trkpt>
      <trkpt lat="46.83946" lon="5.64986">
        <ele>255</ele>
        <time>2012-09-18T12:23:57Z</time>
      </trkpt>
      <trkpt lat="46.83935" lon="5.64979">
        <ele>255</ele>
        <time>2012-09-18T12:23:59Z</time>
      </trkpt>
      <trkpt lat="46.83925" lon="5.64971">
        <ele>255</ele>
        <time>2012-09-18T12:24:01Z</time>
      </trkpt>
      <trkpt lat="46.83914" lon="5.64964">
        <ele>260</ele>
        <time>2012-09-18T12:24:03Z</time>
      </trkpt>
      <trkpt lat="46.83904" lon="5.64956">
        <ele>260</ele>
        <time>2012-09-18T12:24:05Z</time>
      </trkpt>
      <trkpt lat="46.83893" lon="5.64948">
        <ele>260</ele>
        <time>2012-09-18T12:24:07Z</time>
      </trkpt>
      <trkpt lat="46.83883" lon="5.64941">
        <ele>260</ele>
        <time>2012-09-18T12:24:09Z</time>
      </trkpt>
      <trkpt lat="46.83872" lon="5.64933">
        <ele>260</ele>
        <time>2012-09-18T12:24:11Z</time>
      </trkpt>
      <trkpt lat="46.83862" lon="5.64926">
        <ele>260</ele>
        <time>2012-09-18T12:24:13Z</time>
      </trkpt>
      <trkpt lat="46.83851" lon="5.64918">
        <ele>260</ele>
        <time>2012-09-18T12:24:15Z</time>
      </trkpt>
      <trkpt lat="46.8384" lon="5.6491">
        <ele>260</ele>
        <time>2012-09-18T12:24:17Z</time>
      </trkpt>
      <trkpt lat="46.8383" lon="5.64904">
        <ele>260</ele>
        <time>2012-09-18T12:24:19Z</time>
      </trkpt>
      <trkpt lat="46.83819" lon="5.64897">
        <ele>260</ele>
        <time>2012-09-18T12:24:21Z</time>
      </trkpt>
      <trkpt lat="46.83809" lon="5.64889">
        <ele>260</ele>
        <time>2012-09-18T12:24:23Z</time>
      </trkpt>
      <trkpt lat="46.83798" lon="5.64882">
        <ele>260</ele>
        <time>2012-09-18T12:24:25Z</time>
      </trkpt>
      <trkpt lat="46.83788" lon="5.64874">
        <ele>260</ele>
        <time>2012-09-18T12:24:27Z</time>
      </trkpt>
      <trkpt lat="46.83777" lon="5.64867">
        <ele>260</ele>
        <time>2012-09-18T12:24:29Z</time>
      </trkpt>
      <trkpt lat="46.83765" lon="5.64859">
        <ele>260</ele>
        <time>2012-09-18T12:24:31Z</time>
      </trkpt>
      <trkpt lat="46.83753" lon="5.64851">
        <ele>260</ele>
        <time>2012-09-18T12:24:33Z</time>
      </trkpt>
      <trkpt lat="46.83741" lon="5.64844">
        <ele>260</ele>
        <time>2012-09-18T12:24:35Z</time>
      </trkpt>
      <trkpt lat="46.83729" lon="5.64836">
        <ele>260</ele>
        <time>2012-09-18T12:24:37Z</time>
      </trkpt>
      <trkpt lat="46.83717" lon="5.64827">
        <ele>260</ele>
        <time>2012-09-18T12:24:39Z</time>
      </trkpt>
      <trkpt lat="46.83704" lon="5.6482">
        <ele>260</ele>
        <time>2012-09-18T12:24:41Z</time>
      </trkpt>
      <trkpt lat="46.83692" lon="5.64812">
        <ele>260</ele>
        <time>2012-09-18T12:24:43Z</time>
      </trkpt>
      <trkpt lat="46.83679" lon="5.64804">
        <ele>260</ele>
        <time>2012-09-18T12:24:45Z</time>
      </trkpt>
      <trkpt lat="46.83666" lon="5.64797">
        <ele>260</ele>
        <time>2012-09-18T12:24:47Z</time>
      </trkpt>
      <trkpt lat="46.83653" lon="5.64789">
        <ele>260</ele>
        <time>2012-09-18T12:24:49Z</time>
      </trkpt>
      <trkpt lat="46.83642" lon="5.64781">
        <ele>260</ele>
        <time>2012-09-18T12:24:51Z</time>
      </trkpt>
      <trkpt lat="46.8363" lon="5.64774">
        <ele>260</ele>
        <time>2012-09-18T12:24:53Z</time>
      </trkpt>
      <trkpt lat="46.83618" lon="5.64766">
        <ele>260</ele>
        <time>2012-09-18T12:24:55Z</time>
      </trkpt>
      <trkpt lat="46.83608" lon="5.64759">
        <ele>260</ele>
        <time>2012-09-18T12:24:57Z</time>
      </trkpt>
      <trkpt lat="46.83597" lon="5.64753">
        <ele>260</ele>
        <time>2012-09-18T12:24:59Z</time>
      </trkpt>
      <trkpt lat="46.83587" lon="5.64747">
        <ele>260</ele>
        <time>2012-09-18T12:25:01Z</time>
      </trkpt>
      <trkpt lat="46.83578" lon="5.64741">
        <ele>260</ele>
        <time>2012-09-18T12:25:03Z</time>
      </trkpt>
      <trkpt lat="46.83569" lon="5.64736">
        <ele>260</ele>
        <time>2012-09-18T12:25:05Z</time>
      </trkpt>
      <trkpt lat="46.8356" lon="5.6473">
        <ele>266</ele>
        <time>2012-09-18T12:25:07Z</time>
      </trkpt>
      <trkpt lat="46.83552" lon="5.64724">
        <ele>266</ele>
        <time>2012-09-18T12:25:09Z</time>
      </trkpt>
      <trkpt lat="46.8354" lon="5.64717">
        <ele>266</ele>
        <time>2012-09-18T12:25:12Z</time>
      </trkpt>
      <trkpt lat="46.83528" lon="5.64709">
        <ele>266</ele>
        <time>2012-09-18T12:25:15Z</time>
      </trkpt>
      <trkpt lat="46.83516" lon="5.64702">
        <ele>266</ele>
        <time>2012-09-18T12:25:18Z</time>
      </trkpt>
      <trkpt lat="46.83504" lon="5.64694">
        <ele>266</ele>
        <time>2012-09-18T12:25:21Z</time>
      </trkpt>
      <trkpt lat="46.83493" lon="5.64686">
        <ele>266</ele>
        <time>2012-09-18T12:25:24Z</time>
      </trkpt>
      <trkpt lat="46.83481" lon="5.64677">
        <ele>266</ele>
        <time>2012-09-18T12:25:27Z</time>
      </trkpt>
      <trkpt lat="46.83472" lon="5.64673">
        <ele>271</ele>
        <time>2012-09-18T12:25:29Z</time>
      </trkpt>
      <trkpt lat="46.83461" lon="5.64667">
        <ele>271</ele>
        <time>2012-09-18T12:25:32Z</time>
      </trkpt>
      <trkpt lat="46.8345" lon="5.6466">
        <ele>271</ele>
        <time>2012-09-18T12:25:35Z</time>
      </trkpt>
      <trkpt lat="46.83439" lon="5.64653">
        <ele>271</ele>
        <time>2012-09-18T12:25:38Z</time>
      </trkpt>
      <trkpt lat="46.83428" lon="5.64647">
        <ele>271</ele>
        <time>2012-09-18T12:25:41Z</time>
      </trkpt>
      <trkpt lat="46.83418" lon="5.64641">
        <ele>271</ele>
        <time>2012-09-18T12:25:44Z</time>
      </trkpt>
      <trkpt lat="46.83407" lon="5.64634">
        <ele>271</ele>
        <time>2012-09-18T12:25:47Z</time>
      </trkpt>
      <trkpt lat="46.83397" lon="5.64629">
        <ele>271</ele>
        <time>2012-09-18T12:25:50Z</time>
      </trkpt>
      <trkpt lat="46.83386" lon="5.64624">
        <ele>271</ele>
        <time>2012-09-18T12:25:53Z</time>
      </trkpt>
      <trkpt lat="46.83375" lon="5.64619">
        <ele>271</ele>
        <time>2012-09-18T12:25:56Z</time>
      </trkpt>
      <trkpt lat="46.83364" lon="5.64615">
        <ele>277</ele>
        <time>2012-09-18T12:25:59Z</time>
      </trkpt>
      <trkpt lat="46.83353" lon="5.64611">
        <ele>277</ele>
        <time>2012-09-18T12:26:02Z</time>
      </trkpt>
      <trkpt lat="46.83342" lon="5.64607">
        <ele>277</ele>
        <time>2012-09-18T12:26:05Z</time>
      </trkpt>
      <trkpt lat="46.83332" lon="5.64603">
        <ele>277</ele>
        <time>2012-09-18T12:26:08Z</time>
      </trkpt>
      <trkpt lat="46.83321" lon="5.646">
        <ele>277</ele>
        <time>2012-09-18T12:26:11Z</time>
      </trkpt>
      <trkpt lat="46.8331" lon="5.64597">
        <ele>277</ele>
        <time>2012-09-18T12:26:14Z</time>
      </trkpt>
      <trkpt lat="46.83299" lon="5.64593">
        <ele>277</ele>
        <time>2012-09-18T12:26:17Z</time>
      </trkpt>
      <trkpt lat="46.83287" lon="5.6459">
        <ele>277</ele>
        <time>2012-09-18T12:26:20Z</time>
      </trkpt>
      <trkpt lat="46.83276" lon="5.64588">
        <ele>277</ele>
        <time>2012-09-18T12:26:23Z</time>
      </trkpt>
      <trkpt lat="46.83263" lon="5.64585">
        <ele>277</ele>
        <time>2012-09-18T12:26:26Z</time>
      </trkpt>
      <trkpt lat="46.83249" lon="5.64583">
        <ele>282</ele>
        <time>2012-09-18T12:26:29Z</time>
      </trkpt>
      <trkpt lat="46.83236" lon="5.6458">
        <ele>282</ele>
        <time>2012-09-18T12:26:32Z</time>
      </trkpt>
      <trkpt lat="46.83227" lon="5.64578">
        <ele>282</ele>
        <time>2012-09-18T12:26:34Z</time>
      </trkpt>
      <trkpt lat="46.83214" lon="5.64573">
        <ele>282</ele>
        <time>2012-09-18T12:26:37Z</time>
      </trkpt>
      <trkpt lat="46.83205" lon="5.64568">
        <ele>282</ele>
        <time>2012-09-18T12:26:39Z</time>
      </trkpt>
      <trkpt lat="46.83197" lon="5.64562">
        <ele>282</ele>
        <time>2012-09-18T12:26:41Z</time>
      </trkpt>
      <trkpt lat="46.83188" lon="5.64557">
        <ele>282</ele>
        <time>2012-09-18T12:26:43Z</time>
      </trkpt>
      <trkpt lat="46.83176" lon="5.64549">
        <ele>282</ele>
        <time>2012-09-18T12:26:46Z</time>
      </trkpt>
      <trkpt lat="46.83165" lon="5.64542">
        <ele>282</ele>
        <time>2012-09-18T12:26:49Z</time>
      </trkpt>
      <trkpt lat="46.83154" lon="5.64536">
        <ele>282</ele>
        <time>2012-09-18T12:26:52Z</time>
      </trkpt>
      <trkpt lat="46.83144" lon="5.6453">
        <ele>282</ele>
        <time>2012-09-18T12:26:55Z</time>
      </trkpt>
      <trkpt lat="46.83133" lon="5.64526">
        <ele>282</ele>
        <time>2012-09-18T12:26:58Z</time>
      </trkpt>
      <trkpt lat="46.83123" lon="5.64521">
        <ele>282</ele>
        <time>2012-09-18T12:27:01Z</time>
      </trkpt>
      <trkpt lat="46.83113" lon="5.64518">
        <ele>288</ele>
        <time>2012-09-18T12:27:04Z</time>
      </trkpt>
      <trkpt lat="46.83102" lon="5.64515">
        <ele>288</ele>
        <time>2012-09-18T12:27:07Z</time>
      </trkpt>
      <trkpt lat="46.83092" lon="5.64512">
        <ele>288</ele>
        <time>2012-09-18T12:27:10Z</time>
      </trkpt>
      <trkpt lat="46.83081" lon="5.64509">
        <ele>288</ele>
        <time>2012-09-18T12:27:13Z</time>
      </trkpt>
      <trkpt lat="46.83071" lon="5.64508">
        <ele>288</ele>
        <time>2012-09-18T12:27:16Z</time>
      </trkpt>
      <trkpt lat="46.8306" lon="5.64507">
        <ele>288</ele>
        <time>2012-09-18T12:27:19Z</time>
      </trkpt>
      <trkpt lat="46.83049" lon="5.64507">
        <ele>288</ele>
        <time>2012-09-18T12:27:22Z</time>
      </trkpt>
      <trkpt lat="46.83038" lon="5.64508">
        <ele>293</ele>
        <time>2012-09-18T12:27:25Z</time>
      </trkpt>
      <trkpt lat="46.83026" lon="5.64509">
        <ele>293</ele>
        <time>2012-09-18T12:27:28Z</time>
      </trkpt>
      <trkpt lat="46.83016" lon="5.64512">
        <ele>293</ele>
        <time>2012-09-18T12:27:31Z</time>
      </trkpt>
      <trkpt lat="46.83004" lon="5.64514">
        <ele>293</ele>
        <time>2012-09-18T12:27:34Z</time>
      </trkpt>
      <trkpt lat="46.82994" lon="5.64517">
        <ele>293</ele>
        <time>2012-09-18T12:27:37Z</time>
      </trkpt>
      <trkpt lat="46.82983" lon="5.64518">
        <ele>293</ele>
        <time>2012-09-18T12:27:40Z</time>
      </trkpt>
      <trkpt lat="46.82973" lon="5.64519">
        <ele>300</ele>
        <time>2012-09-18T12:27:43Z</time>
      </trkpt>
      <trkpt lat="46.82961" lon="5.64519">
        <ele>300</ele>
        <time>2012-09-18T12:27:46Z</time>
      </trkpt>
      <trkpt lat="46.8295" lon="5.64517">
        <ele>300</ele>
        <time>2012-09-18T12:27:49Z</time>
      </trkpt>
      <trkpt lat="46.82939" lon="5.64513">
        <ele>300</ele>
        <time>2012-09-18T12:27:52Z</time>
      </trkpt>
      <trkpt lat="46.82927" lon="5.64509">
        <ele>300</ele>
        <time>2012-09-18T12:27:55Z</time>
      </trkpt>
      <trkpt lat="46.82916" lon="5.64507">
        <ele>300</ele>
        <time>2012-09-18T12:27:58Z</time>
      </trkpt>
      <trkpt lat="46.82905" lon="5.64502">
        <ele>300</ele>
        <time>2012-09-18T12:28:01Z</time>
      </trkpt>
      <trkpt lat="46.82894" lon="5.64499">
        <ele>300</ele>
        <time>2012-09-18T12:28:04Z</time>
      </trkpt>
      <trkpt lat="46.82883" lon="5.64494">
        <ele>300</ele>
        <time>2012-09-18T12:28:07Z</time>
      </trkpt>
      <trkpt lat="46.82872" lon="5.64489">
        <ele>300</ele>
        <time>2012-09-18T12:28:10Z</time>
      </trkpt>
      <trkpt lat="46.8286" lon="5.64484">
        <ele>300</ele>
        <time>2012-09-18T12:28:13Z</time>
      </trkpt>
      <trkpt lat="46.82849" lon="5.64478">
        <ele>300</ele>
        <time>2012-09-18T12:28:16Z</time>
      </trkpt>
      <trkpt lat="46.82838" lon="5.64474">
        <ele>300</ele>
        <time>2012-09-18T12:28:19Z</time>
      </trkpt>
      <trkpt lat="46.82827" lon="5.6447">
        <ele>300</ele>
        <time>2012-09-18T12:28:22Z</time>
      </trkpt>
      <trkpt lat="46.82817" lon="5.64466">
        <ele>300</ele>
        <time>2012-09-18T12:28:25Z</time>
      </trkpt>
      <trkpt lat="46.82808" lon="5.64462">
        <ele>300</ele>
        <time>2012-09-18T12:28:27Z</time>
      </trkpt>
      <trkpt lat="46.82796" lon="5.64458">
        <ele>300</ele>
        <time>2012-09-18T12:28:30Z</time>
      </trkpt>
      <trkpt lat="46.82786" lon="5.64455">
        <ele>307</ele>
        <time>2012-09-18T12:28:33Z</time>
      </trkpt>
      <trkpt lat="46.82777" lon="5.64453">
        <ele>307</ele>
        <time>2012-09-18T12:28:36Z</time>
      </trkpt>
      <trkpt lat="46.82766" lon="5.64448">
        <ele>307</ele>
        <time>2012-09-18T12:28:39Z</time>
      </trkpt>
      <trkpt lat="46.82753" lon="5.64444">
        <ele>307</ele>
        <time>2012-09-18T12:28:42Z</time>
      </trkpt>
      <trkpt lat="46.82744" lon="5.64441">
        <ele>307</ele>
        <time>2012-09-18T12:28:44Z</time>
      </trkpt>
      <trkpt lat="46.82733" lon="5.64437">
        <ele>307</ele>
        <time>2012-09-18T12:28:47Z</time>
      </trkpt>
      <trkpt lat="46.82723" lon="5.64431">
        <ele>307</ele>
        <time>2012-09-18T12:28:50Z</time>
      </trkpt>
      <trkpt lat="46.82714" lon="5.64428">
        <ele>307</ele>
        <time>2012-09-18T12:28:52Z</time>
      </trkpt>
      <trkpt lat="46.82704" lon="5.64424">
        <ele>307</ele>
        <time>2012-09-18T12:28:54Z</time>
      </trkpt>
      <trkpt lat="46.82694" lon="5.64421">
        <ele>307</ele>
        <time>2012-09-18T12:28:56Z</time>
      </trkpt>
      <trkpt lat="46.82684" lon="5.64417">
        <ele>307</ele>
        <time>2012-09-18T12:28:58Z</time>
      </trkpt>
      <trkpt lat="46.82674" lon="5.64414">
        <ele>307</ele>
        <time>2012-09-18T12:29:00Z</time>
      </trkpt>
      <trkpt lat="46.82666" lon="5.64411">
        <ele>307</ele>
        <time>2012-09-18T12:29:02Z</time>
      </trkpt>
      <trkpt lat="46.82657" lon="5.64408">
        <ele>307</ele>
        <time>2012-09-18T12:29:04Z</time>
      </trkpt>
      <trkpt lat="46.82647" lon="5.64407">
        <ele>307</ele>
        <time>2012-09-18T12:29:07Z</time>
      </trkpt>
      <trkpt lat="46.82637" lon="5.64405">
        <ele>307</ele>
        <time>2012-09-18T12:29:10Z</time>
      </trkpt>
      <trkpt lat="46.82627" lon="5.64403">
        <ele>312</ele>
        <time>2012-09-18T12:29:13Z</time>
      </trkpt>
      <trkpt lat="46.82614" lon="5.64402">
        <ele>312</ele>
        <time>2012-09-18T12:29:16Z</time>
      </trkpt>
      <trkpt lat="46.82604" lon="5.64398">
        <ele>312</ele>
        <time>2012-09-18T12:29:18Z</time>
      </trkpt>
      <trkpt lat="46.82594" lon="5.64394">
        <ele>312</ele>
        <time>2012-09-18T12:29:20Z</time>
      </trkpt>
      <trkpt lat="46.82584" lon="5.64391">
        <ele>312</ele>
        <time>2012-09-18T12:29:22Z</time>
      </trkpt>
      <trkpt lat="46.82572" lon="5.64388">
        <ele>312</ele>
        <time>2012-09-18T12:29:24Z</time>
      </trkpt>
      <trkpt lat="46.8256" lon="5.64385">
        <ele>312</ele>
        <time>2012-09-18T12:29:26Z</time>
      </trkpt>
      <trkpt lat="46.82547" lon="5.64381">
        <ele>317</ele>
        <time>2012-09-18T12:29:28Z</time>
      </trkpt>
      <trkpt lat="46.82534" lon="5.64376">
        <ele>317</ele>
        <time>2012-09-18T12:29:30Z</time>
      </trkpt>
      <trkpt lat="46.82523" lon="5.64369">
        <ele>317</ele>
        <time>2012-09-18T12:29:32Z</time>
      </trkpt>
      <trkpt lat="46.82515" lon="5.64362">
        <ele>317</ele>
        <time>2012-09-18T12:29:34Z</time>
      </trkpt>
      <trkpt lat="46.82505" lon="5.64359">
        <ele>317</ele>
        <time>2012-09-18T12:29:37Z</time>
      </trkpt>
      <trkpt lat="46.82497" lon="5.64369">
        <ele>317</ele>
        <time>2012-09-18T12:29:40Z</time>
      </trkpt>
      <trkpt lat="46.8249" lon="5.6438">
        <ele>311</ele>
        <time>2012-09-18T12:29:42Z</time>
      </trkpt>
      <trkpt lat="46.82482" lon="5.64391">
        <ele>311</ele>
        <time>2012-09-18T12:29:44Z</time>
      </trkpt>
      <trkpt lat="46.82473" lon="5.64403">
        <ele>311</ele>
        <time>2012-09-18T12:29:46Z</time>
      </trkpt>
      <trkpt lat="46.82464" lon="5.64417">
        <ele>311</ele>
        <time>2012-09-18T12:29:48Z</time>
      </trkpt>
      <trkpt lat="46.82454" lon="5.6443">
        <ele>311</ele>
        <time>2012-09-18T12:29:50Z</time>
      </trkpt>
      <trkpt lat="46.82447" lon="5.64442">
        <ele>306</ele>
        <time>2012-09-18T12:29:52Z</time>
      </trkpt>
      <trkpt lat="46.82438" lon="5.64454">
        <ele>306</ele>
        <time>2012-09-18T12:29:54Z</time>
      </trkpt>
      <trkpt lat="46.8243" lon="5.64467">
        <ele>306</ele>
        <time>2012-09-18T12:29:56Z</time>
      </trkpt>
      <trkpt lat="46.8242" lon="5.64481">
        <ele>306</ele>
        <time>2012-09-18T12:29:58Z</time>
      </trkpt>
      <trkpt lat="46.82411" lon="5.64492">
        <ele>306</ele>
        <time>2012-09-18T12:30:00Z</time>
      </trkpt>
      <trkpt lat="46.82403" lon="5.64505">
        <ele>306</ele>
        <time>2012-09-18T12:30:02Z</time>
      </trkpt>
      <trkpt lat="46.82393" lon="5.64518">
        <ele>306</ele>
        <time>2012-09-18T12:30:04Z</time>
      </trkpt>
      <trkpt lat="46.82385" lon="5.64528">
        <ele>300</ele>
        <time>2012-09-18T12:30:06Z</time>
      </trkpt>
      <trkpt lat="46.82376" lon="5.6454">
        <ele>300</ele>
        <time>2012-09-18T12:30:09Z</time>
      </trkpt>
      <trkpt lat="46.82363" lon="5.64548">
        <ele>300</ele>
        <time>2012-09-18T12:30:12Z</time>
      </trkpt>
      <trkpt lat="46.82353" lon="5.64551">
        <ele>300</ele>
        <time>2012-09-18T12:30:14Z</time>
      </trkpt>
      <trkpt lat="46.82343" lon="5.64553">
        <ele>300</ele>
        <time>2012-09-18T12:30:16Z</time>
      </trkpt>
      <trkpt lat="46.82333" lon="5.64554">
        <ele>300</ele>
        <time>2012-09-18T12:30:18Z</time>
      </trkpt>
      <trkpt lat="46.82324" lon="5.64558">
        <ele>300</ele>
        <time>2012-09-18T12:30:20Z</time>
      </trkpt>
      <trkpt lat="46.82316" lon="5.64564">
        <ele>300</ele>
        <time>2012-09-18T12:30:22Z</time>
      </trkpt>
      <trkpt lat="46.82308" lon="5.64572">
        <ele>300</ele>
        <time>2012-09-18T12:30:24Z</time>
      </trkpt>
      <trkpt lat="46.82301" lon="5.64582">
        <ele>300</ele>
        <time>2012-09-18T12:30:26Z</time>
      </trkpt>
      <trkpt lat="46.82294" lon="5.64592">
        <ele>300</ele>
        <time>2012-09-18T12:30:28Z</time>
      </trkpt>
      <trkpt lat="46.82288" lon="5.64602">
        <ele>300</ele>
        <time>2012-09-18T12:30:30Z</time>
      </trkpt>
      <trkpt lat="46.82283" lon="5.64614">
        <ele>300</ele>
        <time>2012-09-18T12:30:32Z</time>
      </trkpt>
      <trkpt lat="46.82279" lon="5.64626">
        <ele>300</ele>
        <time>2012-09-18T12:30:34Z</time>
      </trkpt>
      <trkpt lat="46.82275" lon="5.64639">
        <ele>300</ele>
        <time>2012-09-18T12:30:36Z</time>
      </trkpt>
      <trkpt lat="46.82273" lon="5.64652">
        <ele>300</ele>
        <time>2012-09-18T12:30:38Z</time>
      </trkpt>
      <trkpt lat="46.82271" lon="5.64666">
        <ele>300</ele>
        <time>2012-09-18T12:30:40Z</time>
      </trkpt>
      <trkpt lat="46.82269" lon="5.64685">
        <ele>300</ele>
        <time>2012-09-18T12:30:43Z</time>
      </trkpt>
      <trkpt lat="46.82266" lon="5.64703">
        <ele>300</ele>
        <time>2012-09-18T12:30:46Z</time>
      </trkpt>
      <trkpt lat="46.82264" lon="5.64721">
        <ele>300</ele>
        <time>2012-09-18T12:30:49Z</time>
      </trkpt>
      <trkpt lat="46.82261" lon="5.64737">
        <ele>300</ele>
        <time>2012-09-18T12:30:52Z</time>
      </trkpt>
      <trkpt lat="46.82258" lon="5.64753">
        <ele>300</ele>
        <time>2012-09-18T12:30:55Z</time>
      </trkpt>
      <trkpt lat="46.82254" lon="5.64769">
        <ele>300</ele>
        <time>2012-09-18T12:30:58Z</time>
      </trkpt>
      <trkpt lat="46.82249" lon="5.64784">
        <ele>300</ele>
        <time>2012-09-18T12:31:01Z</time>
      </trkpt>
      <trkpt lat="46.82244" lon="5.648">
        <ele>300</ele>
        <time>2012-09-18T12:31:04Z</time>
      </trkpt>
      <trkpt lat="46.82238" lon="5.64815">
        <ele>306</ele>
        <time>2012-09-18T12:31:07Z</time>
      </trkpt>
      <trkpt lat="46.82233" lon="5.6483">
        <ele>306</ele>
        <time>2012-09-18T12:31:10Z</time>
      </trkpt>
      <trkpt lat="46.82229" lon="5.64845">
        <ele>306</ele>
        <time>2012-09-18T12:31:13Z</time>
      </trkpt>
      <trkpt lat="46.82224" lon="5.64861">
        <ele>306</ele>
        <time>2012-09-18T12:31:16Z</time>
      </trkpt>
      <trkpt lat="46.8222" lon="5.64876">
        <ele>306</ele>
        <time>2012-09-18T12:31:19Z</time>
      </trkpt>
      <trkpt lat="46.82216" lon="5.64891">
        <ele>306</ele>
        <time>2012-09-18T12:31:22Z</time>
      </trkpt>
      <trkpt lat="46.82213" lon="5.64906">
        <ele>306</ele>
        <time>2012-09-18T12:31:25Z</time>
      </trkpt>
      <trkpt lat="46.82208" lon="5.64921">
        <ele>306</ele>
        <time>2012-09-18T12:31:28Z</time>
      </trkpt>
      <trkpt lat="46.82203" lon="5.64935">
        <ele>311</ele>
        <time>2012-09-18T12:31:31Z</time>
      </trkpt>
      <trkpt lat="46.82199" lon="5.64949">
        <ele>311</ele>
        <time>2012-09-18T12:31:34Z</time>
      </trkpt>
      <trkpt lat="46.82194" lon="5.64962">
        <ele>311</ele>
        <time>2012-09-18T12:31:37Z</time>
      </trkpt>
      <trkpt lat="46.8219" lon="5.64976">
        <ele>311</ele>
        <time>2012-09-18T12:31:40Z</time>
      </trkpt>
      <trkpt lat="46.82185" lon="5.64989">
        <ele>311</ele>
        <time>2012-09-18T12:31:43Z</time>
      </trkpt>
      <trkpt lat="46.82181" lon="5.65003">
        <ele>316</ele>
        <time>2012-09-18T12:31:46Z</time>
      </trkpt>
      <trkpt lat="46.82176" lon="5.65015">
        <ele>316</ele>
        <time>2012-09-18T12:31:49Z</time>
      </trkpt>
      <trkpt lat="46.82174" lon="5.6503">
        <ele>316</ele>
        <time>2012-09-18T12:31:52Z</time>
      </trkpt>
      <trkpt lat="46.82174" lon="5.65046">
        <ele>316</ele>
        <time>2012-09-18T12:31:55Z</time>
      </trkpt>
      <trkpt lat="46.82176" lon="5.65061">
        <ele>316</ele>
        <time>2012-09-18T12:31:58Z</time>
      </trkpt>
      <trkpt lat="46.82179" lon="5.65076">
        <ele>316</ele>
        <time>2012-09-18T12:32:01Z</time>
      </trkpt>
      <trkpt lat="46.82181" lon="5.65092">
        <ele>316</ele>
        <time>2012-09-18T12:32:04Z</time>
      </trkpt>
      <trkpt lat="46.82184" lon="5.65106">
        <ele>316</ele>
        <time>2012-09-18T12:32:07Z</time>
      </trkpt>
      <trkpt lat="46.82186" lon="5.6512">
        <ele>316</ele>
        <time>2012-09-18T12:32:10Z</time>
      </trkpt>
      <trkpt lat="46.82189" lon="5.65135">
        <ele>316</ele>
        <time>2012-09-18T12:32:13Z</time>
      </trkpt>
      <trkpt lat="46.82192" lon="5.65148">
        <ele>316</ele>
        <time>2012-09-18T12:32:16Z</time>
      </trkpt>
      <trkpt lat="46.82194" lon="5.65163">
        <ele>316</ele>
        <time>2012-09-18T12:32:19Z</time>
      </trkpt>
      <trkpt lat="46.82196" lon="5.65179">
        <ele>316</ele>
        <time>2012-09-18T12:32:22Z</time>
      </trkpt>
      <trkpt lat="46.82199" lon="5.65194">
        <ele>316</ele>
        <time>2012-09-18T12:32:25Z</time>
      </trkpt>
      <trkpt lat="46.82202" lon="5.65209">
        <ele>316</ele>
        <time>2012-09-18T12:32:28Z</time>
      </trkpt>
      <trkpt lat="46.82205" lon="5.65225">
        <ele>322</ele>
        <time>2012-09-18T12:32:31Z</time>
      </trkpt>
      <trkpt lat="46.82207" lon="5.65241">
        <ele>322</ele>
        <time>2012-09-18T12:32:34Z</time>
      </trkpt>
      <trkpt lat="46.8221" lon="5.65256">
        <ele>322</ele>
        <time>2012-09-18T12:32:37Z</time>
      </trkpt>
      <trkpt lat="46.82212" lon="5.6527">
        <ele>322</ele>
        <time>2012-09-18T12:32:40Z</time>
      </trkpt>
      <trkpt lat="46.82214" lon="5.65286">
        <ele>322</ele>
        <time>2012-09-18T12:32:43Z</time>
      </trkpt>
      <trkpt lat="46.82216" lon="5.653">
        <ele>322</ele>
        <time>2012-09-18T12:32:46Z</time>
      </trkpt>
      <trkpt lat="46.82218" lon="5.65314">
        <ele>322</ele>
        <time>2012-09-18T12:32:49Z</time>
      </trkpt>
      <trkpt lat="46.8222" lon="5.6533">
        <ele>327</ele>
        <time>2012-09-18T12:32:52Z</time>
      </trkpt>
      <trkpt lat="46.82222" lon="5.65344">
        <ele>327</ele>
        <time>2012-09-18T12:32:55Z</time>
      </trkpt>
      <trkpt lat="46.82224" lon="5.65357">
        <ele>327</ele>
        <time>2012-09-18T12:32:58Z</time>
      </trkpt>
      <trkpt lat="46.82226" lon="5.65372">
        <ele>327</ele>
        <time>2012-09-18T12:33:01Z</time>
      </trkpt>
      <trkpt lat="46.82228" lon="5.65386">
        <ele>327</ele>
        <time>2012-09-18T12:33:04Z</time>
      </trkpt>
      <trkpt lat="46.8223" lon="5.65402">
        <ele>327</ele>
        <time>2012-09-18T12:33:07Z</time>
      </trkpt>
      <trkpt lat="46.82232" lon="5.6542">
        <ele>327</ele>
        <time>2012-09-18T12:33:10Z</time>
      </trkpt>
      <trkpt lat="46.82233" lon="5.65435">
        <ele>327</ele>
        <time>2012-09-18T12:33:12Z</time>
      </trkpt>
      <trkpt lat="46.82234" lon="5.65449">
        <ele>327</ele>
        <time>2012-09-18T12:33:14Z</time>
      </trkpt>
      <trkpt lat="46.82235" lon="5.65464">
        <ele>327</ele>
        <time>2012-09-18T12:33:16Z</time>
      </trkpt>
      <trkpt lat="46.82237" lon="5.6548">
        <ele>327</ele>
        <time>2012-09-18T12:33:18Z</time>
      </trkpt>
      <trkpt lat="46.82239" lon="5.65495">
        <ele>327</ele>
        <time>2012-09-18T12:33:20Z</time>
      </trkpt>
      <trkpt lat="46.82241" lon="5.6551">
        <ele>327</ele>
        <time>2012-09-18T12:33:22Z</time>
      </trkpt>
      <trkpt lat="46.82243" lon="5.65525">
        <ele>327</ele>
        <time>2012-09-18T12:33:24Z</time>
      </trkpt>
      <trkpt lat="46.82245" lon="5.6554">
        <ele>327</ele>
        <time>2012-09-18T12:33:26Z</time>
      </trkpt>
      <trkpt lat="46.82248" lon="5.65555">
        <ele>327</ele>
        <time>2012-09-18T12:33:28Z</time>
      </trkpt>
      <trkpt lat="46.82251" lon="5.6557">
        <ele>327</ele>
        <time>2012-09-18T12:33:30Z</time>
      </trkpt>
      <trkpt lat="46.82255" lon="5.65586">
        <ele>332</ele>
        <time>2012-09-18T12:33:32Z</time>
      </trkpt>
      <trkpt lat="46.82259" lon="5.656">
        <ele>332</ele>
        <time>2012-09-18T12:33:34Z</time>
      </trkpt>
      <trkpt lat="46.82266" lon="5.65613">
        <ele>332</ele>
        <time>2012-09-18T12:33:36Z</time>
      </trkpt>
      <trkpt lat="46.82271" lon="5.65628">
        <ele>332</ele>
        <time>2012-09-18T12:33:38Z</time>
      </trkpt>
      <trkpt lat="46.82277" lon="5.65641">
        <ele>332</ele>
        <time>2012-09-18T12:33:40Z</time>
      </trkpt>
      <trkpt lat="46.82282" lon="5.65657">
        <ele>332</ele>
        <time>2012-09-18T12:33:42Z</time>
      </trkpt>
      <trkpt lat="46.82287" lon="5.65674">
        <ele>332</ele>
        <time>2012-09-18T12:33:44Z</time>
      </trkpt>
      <trkpt lat="46.8229" lon="5.65692">
        <ele>332</ele>
        <time>2012-09-18T12:33:46Z</time>
      </trkpt>
      <trkpt lat="46.82291" lon="5.65709">
        <ele>332</ele>
        <time>2012-09-18T12:33:48Z</time>
      </trkpt>
      <trkpt lat="46.82293" lon="5.65723">
        <ele>332</ele>
        <time>2012-09-18T12:33:50Z</time>
      </trkpt>
      <trkpt lat="46.82295" lon="5.6574">
        <ele>332</ele>
        <time>2012-09-18T12:33:53Z</time>
      </trkpt>
      <trkpt lat="46.82296" lon="5.65755">
        <ele>332</ele>
        <time>2012-09-18T12:33:56Z</time>
      </trkpt>
      <trkpt lat="46.82299" lon="5.65771">
        <ele>332</ele>
        <time>2012-09-18T12:33:59Z</time>
      </trkpt>
      <trkpt lat="46.82301" lon="5.65784">
        <ele>332</ele>
        <time>2012-09-18T12:34:02Z</time>
      </trkpt>
      <trkpt lat="46.82304" lon="5.65798">
        <ele>339</ele>
        <time>2012-09-18T12:34:05Z</time>
      </trkpt>
      <trkpt lat="46.82305" lon="5.65812">
        <ele>339</ele>
        <time>2012-09-18T12:34:08Z</time>
      </trkpt>
      <trkpt lat="46.82306" lon="5.65829">
        <ele>339</ele>
        <time>2012-09-18T12:34:11Z</time>
      </trkpt>
      <trkpt lat="46.82308" lon="5.65846">
        <ele>339</ele>
        <time>2012-09-18T12:34:14Z</time>
      </trkpt>
      <trkpt lat="46.82309" lon="5.65862">
        <ele>339</ele>
        <time>2012-09-18T12:34:17Z</time>
      </trkpt>
      <trkpt lat="46.82313" lon="5.65877">
        <ele>339</ele>
        <time>2012-09-18T12:34:20Z</time>
      </trkpt>
      <trkpt lat="46.82314" lon="5.65892">
        <ele>339</ele>
        <time>2012-09-18T12:34:23Z</time>
      </trkpt>
      <trkpt lat="46.82314" lon="5.65906">
        <ele>344</ele>
        <time>2012-09-18T12:34:26Z</time>
      </trkpt>
      <trkpt lat="46.82314" lon="5.65922">
        <ele>344</ele>
        <time>2012-09-18T12:34:29Z</time>
      </trkpt>
      <trkpt lat="46.82314" lon="5.65937">
        <ele>344</ele>
        <time>2012-09-18T12:34:32Z</time>
      </trkpt>
      <trkpt lat="46.82316" lon="5.65952">
        <ele>344</ele>
        <time>2012-09-18T12:34:35Z</time>
      </trkpt>
      <trkpt lat="46.82317" lon="5.65967">
        <ele>344</ele>
        <time>2012-09-18T12:34:38Z</time>
      </trkpt>
      <trkpt lat="46.82319" lon="5.65981">
        <ele>344</ele>
        <time>2012-09-18T12:34:41Z</time>
      </trkpt>
      <trkpt lat="46.82321" lon="5.65995">
        <ele>344</ele>
        <time>2012-09-18T12:34:44Z</time>
      </trkpt>
      <trkpt lat="46.82324" lon="5.66011">
        <ele>351</ele>
        <time>2012-09-18T12:34:47Z</time>
      </trkpt>
      <trkpt lat="46.82324" lon="5.66027">
        <ele>351</ele>
        <time>2012-09-18T12:34:50Z</time>
      </trkpt>
      <trkpt lat="46.82324" lon="5.66044">
        <ele>351</ele>
        <time>2012-09-18T12:34:53Z</time>
      </trkpt>
      <trkpt lat="46.82322" lon="5.6606">
        <ele>351</ele>
        <time>2012-09-18T12:34:56Z</time>
      </trkpt>
      <trkpt lat="46.82322" lon="5.66075">
        <ele>357</ele>
        <time>2012-09-18T12:34:59Z</time>
      </trkpt>
      <trkpt lat="46.82323" lon="5.6609">
        <ele>357</ele>
        <time>2012-09-18T12:35:02Z</time>
      </trkpt>
      <trkpt lat="46.82324" lon="5.66108">
        <ele>357</ele>
        <time>2012-09-18T12:35:05Z</time>
      </trkpt>
      <trkpt lat="46.82323" lon="5.66125">
        <ele>357</ele>
        <time>2012-09-18T12:35:08Z</time>
      </trkpt>
      <trkpt lat="46.82324" lon="5.66138">
        <ele>357</ele>
        <time>2012-09-18T12:35:10Z</time>
      </trkpt>
      <trkpt lat="46.82323" lon="5.66152">
        <ele>357</ele>
        <time>2012-09-18T12:35:12Z</time>
      </trkpt>
      <trkpt lat="46.82324" lon="5.6617">
        <ele>357</ele>
        <time>2012-09-18T12:35:15Z</time>
      </trkpt>
      <trkpt lat="46.82327" lon="5.66188">
        <ele>357</ele>
        <time>2012-09-18T12:35:18Z</time>
      </trkpt>
      <trkpt lat="46.82332" lon="5.66205">
        <ele>357</ele>
        <time>2012-09-18T12:35:21Z</time>
      </trkpt>
      <trkpt lat="46.82332" lon="5.6622">
        <ele>357</ele>
        <time>2012-09-18T12:35:24Z</time>
      </trkpt>
      <trkpt lat="46.82331" lon="5.66239">
        <ele>357</ele>
        <time>2012-09-18T12:35:27Z</time>
      </trkpt>
      <trkpt lat="46.82332" lon="5.66258">
        <ele>357</ele>
        <time>2012-09-18T12:35:30Z</time>
      </trkpt>
      <trkpt lat="46.82333" lon="5.66275">
        <ele>357</ele>
        <time>2012-09-18T12:35:33Z</time>
      </trkpt>
      <trkpt lat="46.82334" lon="5.66291">
        <ele>357</ele>
        <time>2012-09-18T12:35:36Z</time>
      </trkpt>
      <trkpt lat="46.82334" lon="5.66307">
        <ele>357</ele>
        <time>2012-09-18T12:35:39Z</time>
      </trkpt>
      <trkpt lat="46.82333" lon="5.66323">
        <ele>357</ele>
        <time>2012-09-18T12:35:42Z</time>
      </trkpt>
      <trkpt lat="46.82333" lon="5.6634">
        <ele>357</ele>
        <time>2012-09-18T12:35:45Z</time>
      </trkpt>
      <trkpt lat="46.82332" lon="5.66357">
        <ele>357</ele>
        <time>2012-09-18T12:35:48Z</time>
      </trkpt>
      <trkpt lat="46.8233" lon="5.66374">
        <ele>357</ele>
        <time>2012-09-18T12:35:51Z</time>
      </trkpt>
      <trkpt lat="46.8233" lon="5.66391">
        <ele>357</ele>
        <time>2012-09-18T12:35:54Z</time>
      </trkpt>
      <trkpt lat="46.82329" lon="5.66408">
        <ele>357</ele>
        <time>2012-09-18T12:35:57Z</time>
      </trkpt>
      <trkpt lat="46.82325" lon="5.66425">
        <ele>357</ele>
        <time>2012-09-18T12:36:00Z</time>
      </trkpt>
      <trkpt lat="46.82324" lon="5.66443">
        <ele>357</ele>
        <time>2012-09-18T12:36:03Z</time>
      </trkpt>
      <trkpt lat="46.82324" lon="5.66461">
        <ele>357</ele>
        <time>2012-09-18T12:36:06Z</time>
      </trkpt>
      <trkpt lat="46.82323" lon="5.66479">
        <ele>362</ele>
        <time>2012-09-18T12:36:09Z</time>
      </trkpt>
      <trkpt lat="46.82322" lon="5.66497">
        <ele>362</ele>
        <time>2012-09-18T12:36:12Z</time>
      </trkpt>
      <trkpt lat="46.82322" lon="5.66514">
        <ele>362</ele>
        <time>2012-09-18T12:36:15Z</time>
      </trkpt>
      <trkpt lat="46.8232" lon="5.66532">
        <ele>362</ele>
        <time>2012-09-18T12:36:18Z</time>
      </trkpt>
      <trkpt lat="46.82319" lon="5.6655">
        <ele>362</ele>
        <time>2012-09-18T12:36:21Z</time>
      </trkpt>
      <trkpt lat="46.82317" lon="5.66568">
        <ele>362</ele>
        <time>2012-09-18T12:36:24Z</time>
      </trkpt>
      <trkpt lat="46.82316" lon="5.66587">
        <ele>362</ele>
        <time>2012-09-18T12:36:27Z</time>
      </trkpt>
      <trkpt lat="46.82315" lon="5.66601">
        <ele>362</ele>
        <time>2012-09-18T12:36:29Z</time>
      </trkpt>
      <trkpt lat="46.82314" lon="5.66614">
        <ele>362</ele>
        <time>2012-09-18T12:36:31Z</time>
      </trkpt>
      <trkpt lat="46.82312" lon="5.66628">
        <ele>362</ele>
        <time>2012-09-18T12:36:33Z</time>
      </trkpt>
      <trkpt lat="46.8231" lon="5.66641">
        <ele>362</ele>
        <time>2012-09-18T12:36:35Z</time>
      </trkpt>
      <trkpt lat="46.82308" lon="5.66655">
        <ele>362</ele>
        <time>2012-09-18T12:36:37Z</time>
      </trkpt>
      <trkpt lat="46.82307" lon="5.66668">
        <ele>362</ele>
        <time>2012-09-18T12:36:39Z</time>
      </trkpt>
      <trkpt lat="46.82306" lon="5.66682">
        <ele>362</ele>
        <time>2012-09-18T12:36:41Z</time>
      </trkpt>
      <trkpt lat="46.82304" lon="5.66695">
        <ele>362</ele>
        <time>2012-09-18T12:36:43Z</time>
      </trkpt>
      <trkpt lat="46.82303" lon="5.66714">
        <ele>362</ele>
        <time>2012-09-18T12:36:46Z</time>
      </trkpt>
      <trkpt lat="46.823" lon="5.66732">
        <ele>362</ele>
        <time>2012-09-18T12:36:49Z</time>
      </trkpt>
      <trkpt lat="46.82298" lon="5.6675">
        <ele>362</ele>
        <time>2012-09-18T12:36:52Z</time>
      </trkpt>
      <trkpt lat="46.82295" lon="5.66767">
        <ele>367</ele>
        <time>2012-09-18T12:36:55Z</time>
      </trkpt>
      <trkpt lat="46.82293" lon="5.66783">
        <ele>367</ele>
        <time>2012-09-18T12:36:58Z</time>
      </trkpt>
      <trkpt lat="46.82293" lon="5.66798">
        <ele>367</ele>
        <time>2012-09-18T12:37:01Z</time>
      </trkpt>
      <trkpt lat="46.82292" lon="5.66813">
        <ele>367</ele>
        <time>2012-09-18T12:37:04Z</time>
      </trkpt>
      <trkpt lat="46.8229" lon="5.66828">
        <ele>367</ele>
        <time>2012-09-18T12:37:07Z</time>
      </trkpt>
      <trkpt lat="46.82288" lon="5.66842">
        <ele>367</ele>
        <time>2012-09-18T12:37:10Z</time>
      </trkpt>
      <trkpt lat="46.82287" lon="5.66858">
        <ele>367</ele>
        <time>2012-09-18T12:37:13Z</time>
      </trkpt>
      <trkpt lat="46.82286" lon="5.66873">
        <ele>367</ele>
        <time>2012-09-18T12:37:16Z</time>
      </trkpt>
      <trkpt lat="46.82284" lon="5.66888">
        <ele>372</ele>
        <time>2012-09-18T12:37:19Z</time>
      </trkpt>
      <trkpt lat="46.82282" lon="5.66903">
        <ele>372</ele>
        <time>2012-09-18T12:37:22Z</time>
      </trkpt>
      <trkpt lat="46.8228" lon="5.6692">
        <ele>372</ele>
        <time>2012-09-18T12:37:25Z</time>
      </trkpt>
      <trkpt lat="46.82278" lon="5.66933">
        <ele>372</ele>
        <time>2012-09-18T12:37:28Z</time>
      </trkpt>
      <trkpt lat="46.82274" lon="5.66947">
        <ele>372</ele>
        <time>2012-09-18T12:37:31Z</time>
      </trkpt>
      <trkpt lat="46.82269" lon="5.66964">
        <ele>372</ele>
        <time>2012-09-18T12:37:34Z</time>
      </trkpt>
      <trkpt lat="46.82266" lon="5.66976">
        <ele>372</ele>
        <time>2012-09-18T12:37:36Z</time>
      </trkpt>
      <trkpt lat="46.82261" lon="5.66992">
        <ele>372</ele>
        <time>2012-09-18T12:37:38Z</time>
      </trkpt>
      <trkpt lat="46.82255" lon="5.67008">
        <ele>372</ele>
        <time>2012-09-18T12:37:40Z</time>
      </trkpt>
      <trkpt lat="46.82249" lon="5.67026">
        <ele>372</ele>
        <time>2012-09-18T12:37:42Z</time>
      </trkpt>
      <trkpt lat="46.82242" lon="5.67045">
        <ele>372</ele>
        <time>2012-09-18T12:37:44Z</time>
      </trkpt>
      <trkpt lat="46.82234" lon="5.67062">
        <ele>372</ele>
        <time>2012-09-18T12:37:46Z</time>
      </trkpt>
      <trkpt lat="46.82224" lon="5.6708">
        <ele>372</ele>
        <time>2012-09-18T12:37:48Z</time>
      </trkpt>
      <trkpt lat="46.82216" lon="5.67098">
        <ele>372</ele>
        <time>2012-09-18T12:37:50Z</time>
      </trkpt>
      <trkpt lat="46.82207" lon="5.67115">
        <ele>372</ele>
        <time>2012-09-18T12:37:52Z</time>
      </trkpt>
      <trkpt lat="46.82198" lon="5.67131">
        <ele>372</ele>
        <time>2012-09-18T12:37:54Z</time>
      </trkpt>
      <trkpt lat="46.8219" lon="5.67145">
        <ele>372</ele>
        <time>2012-09-18T12:37:56Z</time>
      </trkpt>
      <trkpt lat="46.82182" lon="5.67159">
        <ele>372</ele>
        <time>2012-09-18T12:37:58Z</time>
      </trkpt>
      <trkpt lat="46.82174" lon="5.67173">
        <ele>372</ele>
        <time>2012-09-18T12:38:00Z</time>
      </trkpt>
      <trkpt lat="46.82166" lon="5.67186">
        <ele>372</ele>
        <time>2012-09-18T12:38:02Z</time>
      </trkpt>
      <trkpt lat="46.82157" lon="5.672">
        <ele>372</ele>
        <time>2012-09-18T12:38:04Z</time>
      </trkpt>
      <trkpt lat="46.82148" lon="5.67212">
        <ele>372</ele>
        <time>2012-09-18T12:38:06Z</time>
      </trkpt>
      <trkpt lat="46.82139" lon="5.67226">
        <ele>372</ele>
        <time>2012-09-18T12:38:08Z</time>
      </trkpt>
      <trkpt lat="46.82128" lon="5.67239">
        <ele>372</ele>
        <time>2012-09-18T12:38:10Z</time>
      </trkpt>
      <trkpt lat="46.82118" lon="5.67249">
        <ele>372</ele>
        <time>2012-09-18T12:38:12Z</time>
      </trkpt>
      <trkpt lat="46.82107" lon="5.67258">
        <ele>372</ele>
        <time>2012-09-18T12:38:14Z</time>
      </trkpt>
      <trkpt lat="46.82096" lon="5.67267">
        <ele>372</ele>
        <time>2012-09-18T12:38:16Z</time>
      </trkpt>
      <trkpt lat="46.82084" lon="5.67274">
        <ele>372</ele>
        <time>2012-09-18T12:38:18Z</time>
      </trkpt>
      <trkpt lat="46.82073" lon="5.67283">
        <ele>372</ele>
        <time>2012-09-18T12:38:20Z</time>
      </trkpt>
      <trkpt lat="46.82063" lon="5.6729">
        <ele>372</ele>
        <time>2012-09-18T12:38:22Z</time>
      </trkpt>
      <trkpt lat="46.82053" lon="5.67297">
        <ele>372</ele>
        <time>2012-09-18T12:38:24Z</time>
      </trkpt>
      <trkpt lat="46.82044" lon="5.67304">
        <ele>367</ele>
        <time>2012-09-18T12:38:26Z</time>
      </trkpt>
      <trkpt lat="46.82034" lon="5.67312">
        <ele>367</ele>
        <time>2012-09-18T12:38:28Z</time>
      </trkpt>
      <trkpt lat="46.82025" lon="5.6732">
        <ele>367</ele>
        <time>2012-09-18T12:38:30Z</time>
      </trkpt>
      <trkpt lat="46.82016" lon="5.67329">
        <ele>367</ele>
        <time>2012-09-18T12:38:32Z</time>
      </trkpt>
      <trkpt lat="46.82008" lon="5.6734">
        <ele>367</ele>
        <time>2012-09-18T12:38:34Z</time>
      </trkpt>
      <trkpt lat="46.82" lon="5.67352">
        <ele>367</ele>
        <time>2012-09-18T12:38:36Z</time>
      </trkpt>
      <trkpt lat="46.81994" lon="5.67365">
        <ele>367</ele>
        <time>2012-09-18T12:38:38Z</time>
      </trkpt>
      <trkpt lat="46.81987" lon="5.6738">
        <ele>367</ele>
        <time>2012-09-18T12:38:40Z</time>
      </trkpt>
      <trkpt lat="46.8198" lon="5.67394">
        <ele>367</ele>
        <time>2012-09-18T12:38:42Z</time>
      </trkpt>
      <trkpt lat="46.81975" lon="5.67409">
        <ele>367</ele>
        <time>2012-09-18T12:38:44Z</time>
      </trkpt>
      <trkpt lat="46.81968" lon="5.67424">
        <ele>367</ele>
        <time>2012-09-18T12:38:46Z</time>
      </trkpt>
      <trkpt lat="46.81962" lon="5.67439">
        <ele>367</ele>
        <time>2012-09-18T12:38:48Z</time>
      </trkpt>
      <trkpt lat="46.81955" lon="5.67454">
        <ele>367</ele>
        <time>2012-09-18T12:38:50Z</time>
      </trkpt>
      <trkpt lat="46.81949" lon="5.67469">
        <ele>367</ele>
        <time>2012-09-18T12:38:52Z</time>
      </trkpt>
      <trkpt lat="46.81942" lon="5.67484">
        <ele>367</ele>
        <time>2012-09-18T12:38:54Z</time>
      </trkpt>
      <trkpt lat="46.81935" lon="5.67498">
        <ele>367</ele>
        <time>2012-09-18T12:38:56Z</time>
      </trkpt>
      <trkpt lat="46.81928" lon="5.67512">
        <ele>367</ele>
        <time>2012-09-18T12:38:58Z</time>
      </trkpt>
      <trkpt lat="46.81921" lon="5.67525">
        <ele>367</ele>
        <time>2012-09-18T12:39:00Z</time>
      </trkpt>
      <trkpt lat="46.81914" lon="5.67539">
        <ele>367</ele>
        <time>2012-09-18T12:39:02Z</time>
      </trkpt>
      <trkpt lat="46.81907" lon="5.67553">
        <ele>367</ele>
        <time>2012-09-18T12:39:04Z</time>
      </trkpt>
      <trkpt lat="46.81901" lon="5.67567">
        <ele>367</ele>
        <time>2012-09-18T12:39:06Z</time>
      </trkpt>
      <trkpt lat="46.81894" lon="5.67579">
        <ele>367</ele>
        <time>2012-09-18T12:39:08Z</time>
      </trkpt>
      <trkpt lat="46.81888" lon="5.6759">
        <ele>367</ele>
        <time>2012-09-18T12:39:10Z</time>
      </trkpt>
      <trkpt lat="46.8188" lon="5.676">
        <ele>367</ele>
        <time>2012-09-18T12:39:12Z</time>
      </trkpt>
      <trkpt lat="46.81872" lon="5.6761">
        <ele>367</ele>
        <time>2012-09-18T12:39:14Z</time>
      </trkpt>
      <trkpt lat="46.81865" lon="5.67619">
        <ele>367</ele>
        <time>2012-09-18T12:39:16Z</time>
      </trkpt>
      <trkpt lat="46.81857" lon="5.67628">
        <ele>367</ele>
        <time>2012-09-18T12:39:18Z</time>
      </trkpt>
      <trkpt lat="46.81849" lon="5.67641">
        <ele>367</ele>
        <time>2012-09-18T12:39:21Z</time>
      </trkpt>
      <trkpt lat="46.81843" lon="5.67652">
        <ele>367</ele>
        <time>2012-09-18T12:39:24Z</time>
      </trkpt>
      <trkpt lat="46.81836" lon="5.67665">
        <ele>367</ele>
        <time>2012-09-18T12:39:28Z</time>
      </trkpt>
      <trkpt lat="46.81831" lon="5.6768">
        <ele>367</ele>
        <time>2012-09-18T12:39:32Z</time>
      </trkpt>
      <trkpt lat="46.81826" lon="5.67694">
        <ele>367</ele>
        <time>2012-09-18T12:39:36Z</time>
      </trkpt>
      <trkpt lat="46.8182" lon="5.67708">
        <ele>373</ele>
        <time>2012-09-18T12:39:40Z</time>
      </trkpt>
      <trkpt lat="46.81815" lon="5.6772">
        <ele>373</ele>
        <time>2012-09-18T12:39:43Z</time>
      </trkpt>
      <trkpt lat="46.81811" lon="5.67733">
        <ele>373</ele>
        <time>2012-09-18T12:39:46Z</time>
      </trkpt>
      <trkpt lat="46.81806" lon="5.67746">
        <ele>373</ele>
        <time>2012-09-18T12:39:49Z</time>
      </trkpt>
      <trkpt lat="46.81802" lon="5.67762">
        <ele>373</ele>
        <time>2012-09-18T12:39:52Z</time>
      </trkpt>
      <trkpt lat="46.81798" lon="5.67778">
        <ele>373</ele>
        <time>2012-09-18T12:39:55Z</time>
      </trkpt>
      <trkpt lat="46.81795" lon="5.67791">
        <ele>373</ele>
        <time>2012-09-18T12:39:58Z</time>
      </trkpt>
      <trkpt lat="46.81792" lon="5.67804">
        <ele>379</ele>
        <time>2012-09-18T12:40:01Z</time>
      </trkpt>
      <trkpt lat="46.81786" lon="5.67817">
        <ele>379</ele>
        <time>2012-09-18T12:40:05Z</time>
      </trkpt>
      <trkpt lat="46.81778" lon="5.67827">
        <ele>379</ele>
        <time>2012-09-18T12:40:09Z</time>
      </trkpt>
      <trkpt lat="46.81769" lon="5.67832">
        <ele>379</ele>
        <time>2012-09-18T12:40:13Z</time>
      </trkpt>
      <trkpt lat="46.81757" lon="5.67834">
        <ele>384</ele>
        <time>2012-09-18T12:40:17Z</time>
      </trkpt>
      <trkpt lat="46.81746" lon="5.67834">
        <ele>384</ele>
        <time>2012-09-18T12:40:21Z</time>
      </trkpt>
      <trkpt lat="46.81735" lon="5.67834">
        <ele>384</ele>
        <time>2012-09-18T12:40:25Z</time>
      </trkpt>
      <trkpt lat="46.81725" lon="5.67835">
        <ele>384</ele>
        <time>2012-09-18T12:40:28Z</time>
      </trkpt>
      <trkpt lat="46.81714" lon="5.67837">
        <ele>384</ele>
        <time>2012-09-18T12:40:32Z</time>
      </trkpt>
      <trkpt lat="46.81704" lon="5.67842">
        <ele>384</ele>
        <time>2012-09-18T12:40:35Z</time>
      </trkpt>
      <trkpt lat="46.81695" lon="5.67848">
        <ele>384</ele>
        <time>2012-09-18T12:40:38Z</time>
      </trkpt>
      <trkpt lat="46.81685" lon="5.67855">
        <ele>384</ele>
        <time>2012-09-18T12:40:41Z</time>
      </trkpt>
      <trkpt lat="46.81675" lon="5.67865">
        <ele>384</ele>
        <time>2012-09-18T12:40:44Z</time>
      </trkpt>
      <trkpt lat="46.81667" lon="5.67875">
        <ele>384</ele>
        <time>2012-09-18T12:40:47Z</time>
      </trkpt>
      <trkpt lat="46.81661" lon="5.67889">
        <ele>384</ele>
        <time>2012-09-18T12:40:50Z</time>
      </trkpt>
      <trkpt lat="46.81655" lon="5.67902">
        <ele>384</ele>
        <time>2012-09-18T12:40:53Z</time>
      </trkpt>
      <trkpt lat="46.81652" lon="5.67916">
        <ele>384</ele>
        <time>2012-09-18T12:40:56Z</time>
      </trkpt>
      <trkpt lat="46.81649" lon="5.67928">
        <ele>384</ele>
        <time>2012-09-18T12:40:59Z</time>
      </trkpt>
      <trkpt lat="46.81645" lon="5.67942">
        <ele>384</ele>
        <time>2012-09-18T12:41:02Z</time>
      </trkpt>
      <trkpt lat="46.8164" lon="5.67957">
        <ele>384</ele>
        <time>2012-09-18T12:41:06Z</time>
      </trkpt>
      <trkpt lat="46.81632" lon="5.67968">
        <ele>384</ele>
        <time>2012-09-18T12:41:10Z</time>
      </trkpt>
      <trkpt lat="46.81624" lon="5.67975">
        <ele>384</ele>
        <time>2012-09-18T12:41:16Z</time>
      </trkpt>
      <trkpt lat="46.81629" lon="5.67987">
        <ele>384</ele>
        <time>2012-09-18T12:42:31Z</time>
      </trkpt>
      <trkpt lat="46.81636" lon="5.67998">
        <ele>384</ele>
        <time>2012-09-18T12:42:34Z</time>
      </trkpt>
      <trkpt lat="46.81645" lon="5.6801">
        <ele>384</ele>
        <time>2012-09-18T12:42:37Z</time>
      </trkpt>
      <trkpt lat="46.81653" lon="5.68018">
        <ele>384</ele>
        <time>2012-09-18T12:42:39Z</time>
      </trkpt>
      <trkpt lat="46.81661" lon="5.68028">
        <ele>384</ele>
        <time>2012-09-18T12:42:41Z</time>
      </trkpt>
      <trkpt lat="46.8167" lon="5.68038">
        <ele>384</ele>
        <time>2012-09-18T12:42:43Z</time>
      </trkpt>
      <trkpt lat="46.81678" lon="5.68048">
        <ele>384</ele>
        <time>2012-09-18T12:42:45Z</time>
      </trkpt>
      <trkpt lat="46.81686" lon="5.68059">
        <ele>384</ele>
        <time>2012-09-18T12:42:47Z</time>
      </trkpt>
      <trkpt lat="46.81694" lon="5.68069">
        <ele>384</ele>
        <time>2012-09-18T12:42:49Z</time>
      </trkpt>
      <trkpt lat="46.81702" lon="5.6808">
        <ele>384</ele>
        <time>2012-09-18T12:42:51Z</time>
      </trkpt>
      <trkpt lat="46.8171" lon="5.68091">
        <ele>384</ele>
        <time>2012-09-18T12:42:53Z</time>
      </trkpt>
      <trkpt lat="46.81717" lon="5.68102">
        <ele>384</ele>
        <time>2012-09-18T12:42:55Z</time>
      </trkpt>
      <trkpt lat="46.81725" lon="5.68112">
        <ele>384</ele>
        <time>2012-09-18T12:42:57Z</time>
      </trkpt>
      <trkpt lat="46.81734" lon="5.68122">
        <ele>384</ele>
        <time>2012-09-18T12:42:59Z</time>
      </trkpt>
      <trkpt lat="46.81743" lon="5.68132">
        <ele>384</ele>
        <time>2012-09-18T12:43:01Z</time>
      </trkpt>
      <trkpt lat="46.81752" lon="5.68143">
        <ele>384</ele>
        <time>2012-09-18T12:43:03Z</time>
      </trkpt>
      <trkpt lat="46.81762" lon="5.68152">
        <ele>384</ele>
        <time>2012-09-18T12:43:05Z</time>
      </trkpt>
      <trkpt lat="46.81773" lon="5.68162">
        <ele>384</ele>
        <time>2012-09-18T12:43:07Z</time>
      </trkpt>
      <trkpt lat="46.81783" lon="5.68172">
        <ele>384</ele>
        <time>2012-09-18T12:43:09Z</time>
      </trkpt>
      <trkpt lat="46.81793" lon="5.68183">
        <ele>384</ele>
        <time>2012-09-18T12:43:11Z</time>
      </trkpt>
      <trkpt lat="46.81803" lon="5.68194">
        <ele>384</ele>
        <time>2012-09-18T12:43:13Z</time>
      </trkpt>
      <trkpt lat="46.81811" lon="5.68206">
        <ele>384</ele>
        <time>2012-09-18T12:43:15Z</time>
      </trkpt>
      <trkpt lat="46.81819" lon="5.68217">
        <ele>384</ele>
        <time>2012-09-18T12:43:17Z</time>
      </trkpt>
      <trkpt lat="46.81825" lon="5.68228">
        <ele>384</ele>
        <time>2012-09-18T12:43:19Z</time>
      </trkpt>
      <trkpt lat="46.81833" lon="5.68238">
        <ele>384</ele>
        <time>2012-09-18T12:43:21Z</time>
      </trkpt>
      <trkpt lat="46.8184" lon="5.68249">
        <ele>384</ele>
        <time>2012-09-18T12:43:23Z</time>
      </trkpt>
      <trkpt lat="46.81846" lon="5.6826">
        <ele>384</ele>
        <time>2012-09-18T12:43:25Z</time>
      </trkpt>
      <trkpt lat="46.81852" lon="5.68271">
        <ele>384</ele>
        <time>2012-09-18T12:43:27Z</time>
      </trkpt>
      <trkpt lat="46.81858" lon="5.68281">
        <ele>384</ele>
        <time>2012-09-18T12:43:29Z</time>
      </trkpt>
      <trkpt lat="46.81864" lon="5.68293">
        <ele>384</ele>
        <time>2012-09-18T12:43:31Z</time>
      </trkpt>
      <trkpt lat="46.8187" lon="5.68304">
        <ele>384</ele>
        <time>2012-09-18T12:43:33Z</time>
      </trkpt>
      <trkpt lat="46.81878" lon="5.68316">
        <ele>384</ele>
        <time>2012-09-18T12:43:35Z</time>
      </trkpt>
      <trkpt lat="46.81885" lon="5.68327">
        <ele>384</ele>
        <time>2012-09-18T12:43:37Z</time>
      </trkpt>
      <trkpt lat="46.81893" lon="5.68337">
        <ele>384</ele>
        <time>2012-09-18T12:43:39Z</time>
      </trkpt>
      <trkpt lat="46.81902" lon="5.68347">
        <ele>384</ele>
        <time>2012-09-18T12:43:41Z</time>
      </trkpt>
      <trkpt lat="46.8191" lon="5.6836">
        <ele>384</ele>
        <time>2012-09-18T12:43:43Z</time>
      </trkpt>
      <trkpt lat="46.81917" lon="5.68375">
        <ele>384</ele>
        <time>2012-09-18T12:43:45Z</time>
      </trkpt>
      <trkpt lat="46.81919" lon="5.68393">
        <ele>384</ele>
        <time>2012-09-18T12:43:47Z</time>
      </trkpt>
      <trkpt lat="46.8192" lon="5.68411">
        <ele>384</ele>
        <time>2012-09-18T12:43:49Z</time>
      </trkpt>
      <trkpt lat="46.8192" lon="5.68428">
        <ele>384</ele>
        <time>2012-09-18T12:43:51Z</time>
      </trkpt>
      <trkpt lat="46.8192" lon="5.68445">
        <ele>384</ele>
        <time>2012-09-18T12:43:53Z</time>
      </trkpt>
      <trkpt lat="46.8192" lon="5.68461">
        <ele>384</ele>
        <time>2012-09-18T12:43:55Z</time>
      </trkpt>
      <trkpt lat="46.8192" lon="5.68476">
        <ele>384</ele>
        <time>2012-09-18T12:43:57Z</time>
      </trkpt>
      <trkpt lat="46.8192" lon="5.68492">
        <ele>384</ele>
        <time>2012-09-18T12:43:59Z</time>
      </trkpt>
      <trkpt lat="46.81922" lon="5.68507">
        <ele>384</ele>
        <time>2012-09-18T12:44:01Z</time>
      </trkpt>
      <trkpt lat="46.81924" lon="5.68524">
        <ele>384</ele>
        <time>2012-09-18T12:44:03Z</time>
      </trkpt>
      <trkpt lat="46.81926" lon="5.68541">
        <ele>384</ele>
        <time>2012-09-18T12:44:05Z</time>
      </trkpt>
      <trkpt lat="46.81928" lon="5.68558">
        <ele>384</ele>
        <time>2012-09-18T12:44:07Z</time>
      </trkpt>
      <trkpt lat="46.8193" lon="5.68575">
        <ele>384</ele>
        <time>2012-09-18T12:44:09Z</time>
      </trkpt>
      <trkpt lat="46.81931" lon="5.68591">
        <ele>384</ele>
        <time>2012-09-18T12:44:11Z</time>
      </trkpt>
      <trkpt lat="46.81933" lon="5.68608">
        <ele>384</ele>
        <time>2012-09-18T12:44:13Z</time>
      </trkpt>
      <trkpt lat="46.81935" lon="5.68624">
        <ele>384</ele>
        <time>2012-09-18T12:44:15Z</time>
      </trkpt>
      <trkpt lat="46.81939" lon="5.68639">
        <ele>384</ele>
        <time>2012-09-18T12:44:17Z</time>
      </trkpt>
      <trkpt lat="46.81943" lon="5.68653">
        <ele>384</ele>
        <time>2012-09-18T12:44:19Z</time>
      </trkpt>
      <trkpt lat="46.81948" lon="5.68667">
        <ele>384</ele>
        <time>2012-09-18T12:44:21Z</time>
      </trkpt>
      <trkpt lat="46.81954" lon="5.68679">
        <ele>384</ele>
        <time>2012-09-18T12:44:23Z</time>
      </trkpt>
      <trkpt lat="46.8196" lon="5.68693">
        <ele>384</ele>
        <time>2012-09-18T12:44:25Z</time>
      </trkpt>
      <trkpt lat="46.81966" lon="5.68705">
        <ele>384</ele>
        <time>2012-09-18T12:44:27Z</time>
      </trkpt>
      <trkpt lat="46.81972" lon="5.68716">
        <ele>384</ele>
        <time>2012-09-18T12:44:29Z</time>
      </trkpt>
      <trkpt lat="46.81978" lon="5.68726">
        <ele>384</ele>
        <time>2012-09-18T12:44:31Z</time>
      </trkpt>
      <trkpt lat="46.81986" lon="5.6874">
        <ele>384</ele>
        <time>2012-09-18T12:44:34Z</time>
      </trkpt>
      <trkpt lat="46.81993" lon="5.68749">
        <ele>384</ele>
        <time>2012-09-18T12:44:36Z</time>
      </trkpt>
      <trkpt lat="46.82" lon="5.68759">
        <ele>384</ele>
        <time>2012-09-18T12:44:38Z</time>
      </trkpt>
      <trkpt lat="46.82007" lon="5.68771">
        <ele>384</ele>
        <time>2012-09-18T12:44:40Z</time>
      </trkpt>
      <trkpt lat="46.82013" lon="5.68786">
        <ele>384</ele>
        <time>2012-09-18T12:44:42Z</time>
      </trkpt>
      <trkpt lat="46.82019" lon="5.68803">
        <ele>384</ele>
        <time>2012-09-18T12:44:44Z</time>
      </trkpt>
      <trkpt lat="46.82024" lon="5.68821">
        <ele>384</ele>
        <time>2012-09-18T12:44:46Z</time>
      </trkpt>
      <trkpt lat="46.82031" lon="5.6884">
        <ele>384</ele>
        <time>2012-09-18T12:44:48Z</time>
      </trkpt>
      <trkpt lat="46.82039" lon="5.68859">
        <ele>384</ele>
        <time>2012-09-18T12:44:50Z</time>
      </trkpt>
      <trkpt lat="46.8205" lon="5.68876">
        <ele>384</ele>
        <time>2012-09-18T12:44:52Z</time>
      </trkpt>
      <trkpt lat="46.8206" lon="5.68892">
        <ele>384</ele>
        <time>2012-09-18T12:44:54Z</time>
      </trkpt>
      <trkpt lat="46.8207" lon="5.68908">
        <ele>384</ele>
        <time>2012-09-18T12:44:56Z</time>
      </trkpt>
      <trkpt lat="46.82079" lon="5.68923">
        <ele>384</ele>
        <time>2012-09-18T12:44:58Z</time>
      </trkpt>
      <trkpt lat="46.82087" lon="5.68936">
        <ele>384</ele>
        <time>2012-09-18T12:45:00Z</time>
      </trkpt>
      <trkpt lat="46.82096" lon="5.68949">
        <ele>384</ele>
        <time>2012-09-18T12:45:02Z</time>
      </trkpt>
      <trkpt lat="46.82105" lon="5.68961">
        <ele>384</ele>
        <time>2012-09-18T12:45:04Z</time>
      </trkpt>
      <trkpt lat="46.82115" lon="5.68972">
        <ele>384</ele>
        <time>2012-09-18T12:45:06Z</time>
      </trkpt>
      <trkpt lat="46.82126" lon="5.68983">
        <ele>384</ele>
        <time>2012-09-18T12:45:08Z</time>
      </trkpt>
      <trkpt lat="46.82139" lon="5.68992">
        <ele>384</ele>
        <time>2012-09-18T12:45:10Z</time>
      </trkpt>
      <trkpt lat="46.82151" lon="5.69004">
        <ele>384</ele>
        <time>2012-09-18T12:45:12Z</time>
      </trkpt>
      <trkpt lat="46.82163" lon="5.69017">
        <ele>384</ele>
        <time>2012-09-18T12:45:14Z</time>
      </trkpt>
      <trkpt lat="46.82173" lon="5.69032">
        <ele>384</ele>
        <time>2012-09-18T12:45:16Z</time>
      </trkpt>
      <trkpt lat="46.82181" lon="5.69048">
        <ele>384</ele>
        <time>2012-09-18T12:45:18Z</time>
      </trkpt>
      <trkpt lat="46.82189" lon="5.69063">
        <ele>384</ele>
        <time>2012-09-18T12:45:20Z</time>
      </trkpt>
      <trkpt lat="46.82198" lon="5.69078">
        <ele>384</ele>
        <time>2012-09-18T12:45:22Z</time>
      </trkpt>
      <trkpt lat="46.82208" lon="5.69094">
        <ele>379</ele>
        <time>2012-09-18T12:45:24Z</time>
      </trkpt>
      <trkpt lat="46.82217" lon="5.6911">
        <ele>379</ele>
        <time>2012-09-18T12:45:26Z</time>
      </trkpt>
      <trkpt lat="46.82227" lon="5.69126">
        <ele>379</ele>
        <time>2012-09-18T12:45:28Z</time>
      </trkpt>
      <trkpt lat="46.82237" lon="5.69141">
        <ele>379</ele>
        <time>2012-09-18T12:45:30Z</time>
      </trkpt>
      <trkpt lat="46.82248" lon="5.69157">
        <ele>379</ele>
        <time>2012-09-18T12:45:32Z</time>
      </trkpt>
      <trkpt lat="46.82259" lon="5.69173">
        <ele>379</ele>
        <time>2012-09-18T12:45:34Z</time>
      </trkpt>
      <trkpt lat="46.82271" lon="5.69188">
        <ele>379</ele>
        <time>2012-09-18T12:45:36Z</time>
      </trkpt>
      <trkpt lat="46.8228" lon="5.69204">
        <ele>379</ele>
        <time>2012-09-18T12:45:38Z</time>
      </trkpt>
      <trkpt lat="46.8229" lon="5.69221">
        <ele>374</ele>
        <time>2012-09-18T12:45:40Z</time>
      </trkpt>
      <trkpt lat="46.82297" lon="5.69239">
        <ele>374</ele>
        <time>2012-09-18T12:45:42Z</time>
      </trkpt>
      <trkpt lat="46.82304" lon="5.69258">
        <ele>374</ele>
        <time>2012-09-18T12:45:44Z</time>
      </trkpt>
      <trkpt lat="46.82311" lon="5.69277">
        <ele>374</ele>
        <time>2012-09-18T12:45:46Z</time>
      </trkpt>
      <trkpt lat="46.82319" lon="5.69298">
        <ele>374</ele>
        <time>2012-09-18T12:45:48Z</time>
      </trkpt>
      <trkpt lat="46.82327" lon="5.69318">
        <ele>374</ele>
        <time>2012-09-18T12:45:50Z</time>
      </trkpt>
      <trkpt lat="46.82337" lon="5.69337">
        <ele>374</ele>
        <time>2012-09-18T12:45:52Z</time>
      </trkpt>
      <trkpt lat="46.82346" lon="5.69358">
        <ele>374</ele>
        <time>2012-09-18T12:45:54Z</time>
      </trkpt>
      <trkpt lat="46.82356" lon="5.69379">
        <ele>374</ele>
        <time>2012-09-18T12:45:56Z</time>
      </trkpt>
      <trkpt lat="46.82362" lon="5.69391">
        <ele>374</ele>
        <time>2012-09-18T12:45:57Z</time>
      </trkpt>
      <trkpt lat="46.82372" lon="5.69415">
        <ele>367</ele>
        <time>2012-09-18T12:45:59Z</time>
      </trkpt>
      <trkpt lat="46.82377" lon="5.69429">
        <ele>367</ele>
        <time>2012-09-18T12:46:00Z</time>
      </trkpt>
      <trkpt lat="46.82381" lon="5.69443">
        <ele>367</ele>
        <time>2012-09-18T12:46:01Z</time>
      </trkpt>
      <trkpt lat="46.82385" lon="5.69457">
        <ele>367</ele>
        <time>2012-09-18T12:46:02Z</time>
      </trkpt>
      <trkpt lat="46.82389" lon="5.69473">
        <ele>367</ele>
        <time>2012-09-18T12:46:03Z</time>
      </trkpt>
      <trkpt lat="46.82393" lon="5.6949">
        <ele>367</ele>
        <time>2012-09-18T12:46:04Z</time>
      </trkpt>
      <trkpt lat="46.82397" lon="5.69505">
        <ele>367</ele>
        <time>2012-09-18T12:46:05Z</time>
      </trkpt>
      <trkpt lat="46.82401" lon="5.6952">
        <ele>362</ele>
        <time>2012-09-18T12:46:06Z</time>
      </trkpt>
      <trkpt lat="46.82404" lon="5.69536">
        <ele>362</ele>
        <time>2012-09-18T12:46:07Z</time>
      </trkpt>
      <trkpt lat="46.82408" lon="5.6955">
        <ele>362</ele>
        <time>2012-09-18T12:46:08Z</time>
      </trkpt>
      <trkpt lat="46.82412" lon="5.69563">
        <ele>362</ele>
        <time>2012-09-18T12:46:09Z</time>
      </trkpt>
      <trkpt lat="46.82415" lon="5.69576">
        <ele>362</ele>
        <time>2012-09-18T12:46:10Z</time>
      </trkpt>
      <trkpt lat="46.82421" lon="5.69599">
        <ele>362</ele>
        <time>2012-09-18T12:46:12Z</time>
      </trkpt>
      <trkpt lat="46.82424" lon="5.69612">
        <ele>357</ele>
        <time>2012-09-18T12:46:13Z</time>
      </trkpt>
      <trkpt lat="46.82427" lon="5.69624">
        <ele>357</ele>
        <time>2012-09-18T12:46:14Z</time>
      </trkpt>
      <trkpt lat="46.8243" lon="5.69637">
        <ele>357</ele>
        <time>2012-09-18T12:46:15Z</time>
      </trkpt>
      <trkpt lat="46.82435" lon="5.6966">
        <ele>357</ele>
        <time>2012-09-18T12:46:17Z</time>
      </trkpt>
      <trkpt lat="46.8244" lon="5.6968">
        <ele>357</ele>
        <time>2012-09-18T12:46:19Z</time>
      </trkpt>
      <trkpt lat="46.82447" lon="5.69699">
        <ele>357</ele>
        <time>2012-09-18T12:46:21Z</time>
      </trkpt>
      <trkpt lat="46.82456" lon="5.69716">
        <ele>357</ele>
        <time>2012-09-18T12:46:23Z</time>
      </trkpt>
      <trkpt lat="46.82467" lon="5.6973">
        <ele>357</ele>
        <time>2012-09-18T12:46:25Z</time>
      </trkpt>
      <trkpt lat="46.82478" lon="5.69743">
        <ele>357</ele>
        <time>2012-09-18T12:46:27Z</time>
      </trkpt>
      <trkpt lat="46.82489" lon="5.69755">
        <ele>357</ele>
        <time>2012-09-18T12:46:29Z</time>
      </trkpt>
      <trkpt lat="46.82498" lon="5.69766">
        <ele>357</ele>
        <time>2012-09-18T12:46:31Z</time>
      </trkpt>
      <trkpt lat="46.82505" lon="5.69778">
        <ele>357</ele>
        <time>2012-09-18T12:46:33Z</time>
      </trkpt>
      <trkpt lat="46.82509" lon="5.69792">
        <ele>357</ele>
        <time>2012-09-18T12:46:35Z</time>
      </trkpt>
      <trkpt lat="46.82509" lon="5.69808">
        <ele>357</ele>
        <time>2012-09-18T12:46:38Z</time>
      </trkpt>
      <trkpt lat="46.82509" lon="5.69824">
        <ele>357</ele>
        <time>2012-09-18T12:46:42Z</time>
      </trkpt>
      <trkpt lat="46.82511" lon="5.69839">
        <ele>357</ele>
        <time>2012-09-18T12:46:46Z</time>
      </trkpt>
      <trkpt lat="46.82517" lon="5.69851">
        <ele>357</ele>
        <time>2012-09-18T12:46:50Z</time>
      </trkpt>
      <trkpt lat="46.82525" lon="5.69857">
        <ele>357</ele>
        <time>2012-09-18T12:46:55Z</time>
      </trkpt>
      <trkpt lat="46.82534" lon="5.69862">
        <ele>366</ele>
        <time>2012-09-18T12:47:00Z</time>
      </trkpt>
      <trkpt lat="46.82542" lon="5.69872">
        <ele>366</ele>
        <time>2012-09-18T12:47:04Z</time>
      </trkpt>
      <trkpt lat="46.82548" lon="5.69885">
        <ele>366</ele>
        <time>2012-09-18T12:47:08Z</time>
      </trkpt>
      <trkpt lat="46.82554" lon="5.69898">
        <ele>371</ele>
        <time>2012-09-18T12:47:12Z</time>
      </trkpt>
      <trkpt lat="46.8256" lon="5.69909">
        <ele>371</ele>
        <time>2012-09-18T12:47:16Z</time>
      </trkpt>
      <trkpt lat="46.82568" lon="5.6992">
        <ele>371</ele>
        <time>2012-09-18T12:47:20Z</time>
      </trkpt>
      <trkpt lat="46.82577" lon="5.69929">
        <ele>371</ele>
        <time>2012-09-18T12:47:24Z</time>
      </trkpt>
      <trkpt lat="46.82585" lon="5.69935">
        <ele>377</ele>
        <time>2012-09-18T12:47:27Z</time>
      </trkpt>
      <trkpt lat="46.82595" lon="5.69941">
        <ele>377</ele>
        <time>2012-09-18T12:47:31Z</time>
      </trkpt>
      <trkpt lat="46.82608" lon="5.69944">
        <ele>377</ele>
        <time>2012-09-18T12:47:35Z</time>
      </trkpt>
      <trkpt lat="46.82617" lon="5.69945">
        <ele>377</ele>
        <time>2012-09-18T12:47:38Z</time>
      </trkpt>
      <trkpt lat="46.82628" lon="5.6995">
        <ele>377</ele>
        <time>2012-09-18T12:47:41Z</time>
      </trkpt>
      <trkpt lat="46.82637" lon="5.69956">
        <ele>377</ele>
        <time>2012-09-18T12:47:44Z</time>
      </trkpt>
      <trkpt lat="46.82647" lon="5.69966">
        <ele>377</ele>
        <time>2012-09-18T12:47:48Z</time>
      </trkpt>
      <trkpt lat="46.82655" lon="5.69975">
        <ele>377</ele>
        <time>2012-09-18T12:47:52Z</time>
      </trkpt>
      <trkpt lat="46.82663" lon="5.69985">
        <ele>377</ele>
        <time>2012-09-18T12:47:56Z</time>
      </trkpt>
      <trkpt lat="46.82671" lon="5.69995">
        <ele>377</ele>
        <time>2012-09-18T12:48:00Z</time>
      </trkpt>
      <trkpt lat="46.8268" lon="5.70005">
        <ele>377</ele>
        <time>2012-09-18T12:48:04Z</time>
      </trkpt>
      <trkpt lat="46.82689" lon="5.70013">
        <ele>377</ele>
        <time>2012-09-18T12:48:08Z</time>
      </trkpt>
      <trkpt lat="46.827" lon="5.70019">
        <ele>377</ele>
        <time>2012-09-18T12:48:12Z</time>
      </trkpt>
      <trkpt lat="46.82705" lon="5.70031">
        <ele>377</ele>
        <time>2012-09-18T12:48:16Z</time>
      </trkpt>
      <trkpt lat="46.82696" lon="5.70033">
        <ele>377</ele>
        <time>2012-09-18T12:48:20Z</time>
      </trkpt>
      <trkpt lat="46.82685" lon="5.7003">
        <ele>377</ele>
        <time>2012-09-18T12:48:24Z</time>
      </trkpt>
      <trkpt lat="46.82673" lon="5.70026">
        <ele>377</ele>
        <time>2012-09-18T12:48:28Z</time>
      </trkpt>
      <trkpt lat="46.82663" lon="5.70023">
        <ele>382</ele>
        <time>2012-09-18T12:48:31Z</time>
      </trkpt>
      <trkpt lat="46.82654" lon="5.70022">
        <ele>382</ele>
        <time>2012-09-18T12:48:34Z</time>
      </trkpt>
      <trkpt lat="46.82642" lon="5.70022">
        <ele>382</ele>
        <time>2012-09-18T12:48:38Z</time>
      </trkpt>
      <trkpt lat="46.82631" lon="5.70022">
        <ele>382</ele>
        <time>2012-09-18T12:48:42Z</time>
      </trkpt>
      <trkpt lat="46.82621" lon="5.70024">
        <ele>382</ele>
        <time>2012-09-18T12:48:46Z</time>
      </trkpt>
      <trkpt lat="46.82612" lon="5.70027">
        <ele>382</ele>
        <time>2012-09-18T12:48:50Z</time>
      </trkpt>
      <trkpt lat="46.82602" lon="5.7003">
        <ele>382</ele>
        <time>2012-09-18T12:48:54Z</time>
      </trkpt>
      <trkpt lat="46.82594" lon="5.70033">
        <ele>388</ele>
        <time>2012-09-18T12:48:58Z</time>
      </trkpt>
      <trkpt lat="46.82584" lon="5.70036">
        <ele>388</ele>
        <time>2012-09-18T12:49:02Z</time>
      </trkpt>
      <trkpt lat="46.82575" lon="5.7004">
        <ele>388</ele>
        <time>2012-09-18T12:49:07Z</time>
      </trkpt>
      <trkpt lat="46.82565" lon="5.70044">
        <ele>388</ele>
        <time>2012-09-18T12:49:12Z</time>
      </trkpt>
      <trkpt lat="46.82556" lon="5.7005">
        <ele>393</ele>
        <time>2012-09-18T12:49:17Z</time>
      </trkpt>
      <trkpt lat="46.82547" lon="5.70056">
        <ele>393</ele>
        <time>2012-09-18T12:49:22Z</time>
      </trkpt>
      <trkpt lat="46.82538" lon="5.70061">
        <ele>393</ele>
        <time>2012-09-18T12:49:27Z</time>
      </trkpt>
      <trkpt lat="46.82529" lon="5.70067">
        <ele>399</ele>
        <time>2012-09-18T12:49:32Z</time>
      </trkpt>
      <trkpt lat="46.8252" lon="5.70073">
        <ele>399</ele>
        <time>2012-09-18T12:49:37Z</time>
      </trkpt>
      <trkpt lat="46.8251" lon="5.70076">
        <ele>404</ele>
        <time>2012-09-18T12:49:42Z</time>
      </trkpt>
      <trkpt lat="46.82501" lon="5.70077">
        <ele>410</ele>
        <time>2012-09-18T12:49:48Z</time>
      </trkpt>
      <trkpt lat="46.8249" lon="5.70078">
        <ele>410</ele>
        <time>2012-09-18T12:49:53Z</time>
      </trkpt>
      <trkpt lat="46.82481" lon="5.70075">
        <ele>410</ele>
        <time>2012-09-18T12:49:57Z</time>
      </trkpt>
      <trkpt lat="46.82472" lon="5.70073">
        <ele>410</ele>
        <time>2012-09-18T12:50:01Z</time>
      </trkpt>
      <trkpt lat="46.82461" lon="5.70069">
        <ele>410</ele>
        <time>2012-09-18T12:50:05Z</time>
      </trkpt>
      <trkpt lat="46.82452" lon="5.70065">
        <ele>410</ele>
        <time>2012-09-18T12:50:09Z</time>
      </trkpt>
      <trkpt lat="46.82441" lon="5.70059">
        <ele>410</ele>
        <time>2012-09-18T12:50:13Z</time>
      </trkpt>
      <trkpt lat="46.8243" lon="5.70057">
        <ele>410</ele>
        <time>2012-09-18T12:50:17Z</time>
      </trkpt>
      <trkpt lat="46.82419" lon="5.70052">
        <ele>410</ele>
        <time>2012-09-18T12:50:21Z</time>
      </trkpt>
      <trkpt lat="46.82408" lon="5.70047">
        <ele>417</ele>
        <time>2012-09-18T12:50:25Z</time>
      </trkpt>
      <trkpt lat="46.82399" lon="5.7004">
        <ele>417</ele>
        <time>2012-09-18T12:50:29Z</time>
      </trkpt>
      <trkpt lat="46.8239" lon="5.70037">
        <ele>417</ele>
        <time>2012-09-18T12:50:32Z</time>
      </trkpt>
      <trkpt lat="46.82381" lon="5.70032">
        <ele>417</ele>
        <time>2012-09-18T12:50:35Z</time>
      </trkpt>
      <trkpt lat="46.82372" lon="5.70027">
        <ele>417</ele>
        <time>2012-09-18T12:50:39Z</time>
      </trkpt>
      <trkpt lat="46.82363" lon="5.70021">
        <ele>417</ele>
        <time>2012-09-18T12:50:44Z</time>
      </trkpt>
      <trkpt lat="46.82355" lon="5.70014">
        <ele>417</ele>
        <time>2012-09-18T12:50:49Z</time>
      </trkpt>
      <trkpt lat="46.82345" lon="5.70012">
        <ele>426</ele>
        <time>2012-09-18T12:50:55Z</time>
      </trkpt>
      <trkpt lat="46.82333" lon="5.70009">
        <ele>426</ele>
        <time>2012-09-18T12:51:00Z</time>
      </trkpt>
      <trkpt lat="46.82324" lon="5.70004">
        <ele>426</ele>
        <time>2012-09-18T12:51:05Z</time>
      </trkpt>
      <trkpt lat="46.82313" lon="5.70002">
        <ele>431</ele>
        <time>2012-09-18T12:51:08Z</time>
      </trkpt>
      <trkpt lat="46.82304" lon="5.69995">
        <ele>431</ele>
        <time>2012-09-18T12:51:11Z</time>
      </trkpt>
      <trkpt lat="46.82296" lon="5.69991">
        <ele>431</ele>
        <time>2012-09-18T12:51:14Z</time>
      </trkpt>
      <trkpt lat="46.82288" lon="5.69984">
        <ele>431</ele>
        <time>2012-09-18T12:51:17Z</time>
      </trkpt>
      <trkpt lat="46.82279" lon="5.69974">
        <ele>431</ele>
        <time>2012-09-18T12:51:21Z</time>
      </trkpt>
      <trkpt lat="46.82271" lon="5.69962">
        <ele>431</ele>
        <time>2012-09-18T12:51:24Z</time>
      </trkpt>
      <trkpt lat="46.82263" lon="5.6995">
        <ele>431</ele>
        <time>2012-09-18T12:51:27Z</time>
      </trkpt>
      <trkpt lat="46.82251" lon="5.69941">
        <ele>431</ele>
        <time>2012-09-18T12:51:30Z</time>
      </trkpt>
      <trkpt lat="46.82242" lon="5.69931">
        <ele>431</ele>
        <time>2012-09-18T12:51:33Z</time>
      </trkpt>
      <trkpt lat="46.82234" lon="5.69922">
        <ele>431</ele>
        <time>2012-09-18T12:51:36Z</time>
      </trkpt>
      <trkpt lat="46.82226" lon="5.69911">
        <ele>437</ele>
        <time>2012-09-18T12:51:40Z</time>
      </trkpt>
      <trkpt lat="46.82217" lon="5.69903">
        <ele>437</ele>
        <time>2012-09-18T12:51:44Z</time>
      </trkpt>
      <trkpt lat="46.82206" lon="5.69902">
        <ele>445</ele>
        <time>2012-09-18T12:51:48Z</time>
      </trkpt>
      <trkpt lat="46.822" lon="5.69893">
        <ele>456</ele>
        <time>2012-09-18T12:51:53Z</time>
      </trkpt>
      <trkpt lat="46.82194" lon="5.6988">
        <ele>456</ele>
        <time>2012-09-18T12:51:57Z</time>
      </trkpt>
      <trkpt lat="46.82187" lon="5.69866">
        <ele>456</ele>
        <time>2012-09-18T12:52:01Z</time>
      </trkpt>
      <trkpt lat="46.82179" lon="5.69855">
        <ele>456</ele>
        <time>2012-09-18T12:52:04Z</time>
      </trkpt>
      <trkpt lat="46.82173" lon="5.69844">
        <ele>463</ele>
        <time>2012-09-18T12:52:09Z</time>
      </trkpt>
      <trkpt lat="46.82167" lon="5.6983">
        <ele>463</ele>
        <time>2012-09-18T12:52:12Z</time>
      </trkpt>
      <trkpt lat="46.82161" lon="5.69817">
        <ele>463</ele>
        <time>2012-09-18T12:52:15Z</time>
      </trkpt>
      <trkpt lat="46.82152" lon="5.69809">
        <ele>463</ele>
        <time>2012-09-18T12:52:17Z</time>
      </trkpt>
      <trkpt lat="46.82147" lon="5.69792">
        <ele>456</ele>
        <time>2012-09-18T12:52:21Z</time>
      </trkpt>
      <trkpt lat="46.82137" lon="5.6978">
        <ele>449</ele>
        <time>2012-09-18T12:52:24Z</time>
      </trkpt>
      <trkpt lat="46.82127" lon="5.69767">
        <ele>449</ele>
        <time>2012-09-18T12:52:27Z</time>
      </trkpt>
      <trkpt lat="46.82124" lon="5.69754">
        <ele>443</ele>
        <time>2012-09-18T12:52:30Z</time>
      </trkpt>
      <trkpt lat="46.82123" lon="5.69738">
        <ele>443</ele>
        <time>2012-09-18T12:52:34Z</time>
      </trkpt>
      <trkpt lat="46.82119" lon="5.69723">
        <ele>449</ele>
        <time>2012-09-18T12:52:38Z</time>
      </trkpt>
      <trkpt lat="46.82117" lon="5.69711">
        <ele>449</ele>
        <time>2012-09-18T12:52:41Z</time>
      </trkpt>
      <trkpt lat="46.82115" lon="5.69697">
        <ele>449</ele>
        <time>2012-09-18T12:52:45Z</time>
      </trkpt>
      <trkpt lat="46.82108" lon="5.69686">
        <ele>449</ele>
        <time>2012-09-18T12:52:48Z</time>
      </trkpt>
      <trkpt lat="46.82098" lon="5.69677">
        <ele>449</ele>
        <time>2012-09-18T12:52:51Z</time>
      </trkpt>
      <trkpt lat="46.82091" lon="5.69663">
        <ele>449</ele>
        <time>2012-09-18T12:52:55Z</time>
      </trkpt>
      <trkpt lat="46.82082" lon="5.6967">
        <ele>449</ele>
        <time>2012-09-18T12:53:01Z</time>
      </trkpt>
      <trkpt lat="46.82084" lon="5.69685">
        <ele>449</ele>
        <time>2012-09-18T12:53:05Z</time>
      </trkpt>
      <trkpt lat="46.82086" lon="5.69698">
        <ele>449</ele>
        <time>2012-09-18T12:53:09Z</time>
      </trkpt>
      <trkpt lat="46.82087" lon="5.69712">
        <ele>449</ele>
        <time>2012-09-18T12:53:12Z</time>
      </trkpt>
      <trkpt lat="46.82089" lon="5.69726">
        <ele>449</ele>
        <time>2012-09-18T12:53:15Z</time>
      </trkpt>
      <trkpt lat="46.82089" lon="5.69739">
        <ele>449</ele>
        <time>2012-09-18T12:53:18Z</time>
      </trkpt>
      <trkpt lat="46.82089" lon="5.69754">
        <ele>449</ele>
        <time>2012-09-18T12:53:21Z</time>
      </trkpt>
      <trkpt lat="46.82087" lon="5.69768">
        <ele>449</ele>
        <time>2012-09-18T12:53:24Z</time>
      </trkpt>
      <trkpt lat="46.82089" lon="5.69785">
        <ele>449</ele>
        <time>2012-09-18T12:53:28Z</time>
      </trkpt>
      <trkpt lat="46.82092" lon="5.698">
        <ele>449</ele>
        <time>2012-09-18T12:53:31Z</time>
      </trkpt>
      <trkpt lat="46.82097" lon="5.69812">
        <ele>449</ele>
        <time>2012-09-18T12:53:34Z</time>
      </trkpt>
      <trkpt lat="46.82101" lon="5.69826">
        <ele>449</ele>
        <time>2012-09-18T12:53:38Z</time>
      </trkpt>
      <trkpt lat="46.82107" lon="5.69836">
        <ele>457</ele>
        <time>2012-09-18T12:53:41Z</time>
      </trkpt>
      <trkpt lat="46.82111" lon="5.69848">
        <ele>457</ele>
        <time>2012-09-18T12:53:44Z</time>
      </trkpt>
      <trkpt lat="46.82116" lon="5.69861">
        <ele>466</ele>
        <time>2012-09-18T12:53:48Z</time>
      </trkpt>
      <trkpt lat="46.8212" lon="5.69876">
        <ele>466</ele>
        <time>2012-09-18T12:53:52Z</time>
      </trkpt>
      <trkpt lat="46.82123" lon="5.69889">
        <ele>472</ele>
        <time>2012-09-18T12:53:55Z</time>
      </trkpt>
      <trkpt lat="46.82126" lon="5.69903">
        <ele>472</ele>
        <time>2012-09-18T12:53:58Z</time>
      </trkpt>
      <trkpt lat="46.82127" lon="5.69919">
        <ele>472</ele>
        <time>2012-09-18T12:54:02Z</time>
      </trkpt>
      <trkpt lat="46.82127" lon="5.69935">
        <ele>479</ele>
        <time>2012-09-18T12:54:06Z</time>
      </trkpt>
      <trkpt lat="46.82131" lon="5.69948">
        <ele>485</ele>
        <time>2012-09-18T12:54:10Z</time>
      </trkpt>
      <trkpt lat="46.8214" lon="5.69959">
        <ele>485</ele>
        <time>2012-09-18T12:54:14Z</time>
      </trkpt>
      <trkpt lat="46.82152" lon="5.69967">
        <ele>485</ele>
        <time>2012-09-18T12:54:17Z</time>
      </trkpt>
      <trkpt lat="46.82165" lon="5.69973">
        <ele>485</ele>
        <time>2012-09-18T12:54:20Z</time>
      </trkpt>
      <trkpt lat="46.82175" lon="5.69976">
        <ele>485</ele>
        <time>2012-09-18T12:54:23Z</time>
      </trkpt>
      <trkpt lat="46.82185" lon="5.69973">
        <ele>485</ele>
        <time>2012-09-18T12:54:26Z</time>
      </trkpt>
      <trkpt lat="46.82196" lon="5.69971">
        <ele>485</ele>
        <time>2012-09-18T12:54:31Z</time>
      </trkpt>
      <trkpt lat="46.82205" lon="5.69977">
        <ele>485</ele>
        <time>2012-09-18T12:54:35Z</time>
      </trkpt>
      <trkpt lat="46.82212" lon="5.69988">
        <ele>485</ele>
        <time>2012-09-18T12:54:40Z</time>
      </trkpt>
      <trkpt lat="46.82219" lon="5.70004">
        <ele>485</ele>
        <time>2012-09-18T12:54:45Z</time>
      </trkpt>
      <trkpt lat="46.82225" lon="5.70013">
        <ele>485</ele>
        <time>2012-09-18T12:54:48Z</time>
      </trkpt>
      <trkpt lat="46.82234" lon="5.70022">
        <ele>485</ele>
        <time>2012-09-18T12:54:52Z</time>
      </trkpt>
      <trkpt lat="46.82242" lon="5.70032">
        <ele>485</ele>
        <time>2012-09-18T12:54:56Z</time>
      </trkpt>
      <trkpt lat="46.82249" lon="5.70043">
        <ele>485</ele>
        <time>2012-09-18T12:55:00Z</time>
      </trkpt>
      <trkpt lat="46.82255" lon="5.70053">
        <ele>485</ele>
        <time>2012-09-18T12:55:03Z</time>
      </trkpt>
      <trkpt lat="46.82262" lon="5.70066">
        <ele>485</ele>
        <time>2012-09-18T12:55:07Z</time>
      </trkpt>
      <trkpt lat="46.82269" lon="5.70076">
        <ele>485</ele>
        <time>2012-09-18T12:55:10Z</time>
      </trkpt>
      <trkpt lat="46.82275" lon="5.70087">
        <ele>485</ele>
        <time>2012-09-18T12:55:13Z</time>
      </trkpt>
      <trkpt lat="46.82284" lon="5.70094">
        <ele>485</ele>
        <time>2012-09-18T12:55:17Z</time>
      </trkpt>
      <trkpt lat="46.82293" lon="5.70103">
        <ele>485</ele>
        <time>2012-09-18T12:55:20Z</time>
      </trkpt>
      <trkpt lat="46.82301" lon="5.70108">
        <ele>485</ele>
        <time>2012-09-18T12:55:24Z</time>
      </trkpt>
      <trkpt lat="46.82309" lon="5.70117">
        <ele>485</ele>
        <time>2012-09-18T12:55:27Z</time>
      </trkpt>
      <trkpt lat="46.82316" lon="5.70127">
        <ele>491</ele>
        <time>2012-09-18T12:55:31Z</time>
      </trkpt>
      <trkpt lat="46.82322" lon="5.70136">
        <ele>491</ele>
        <time>2012-09-18T12:55:35Z</time>
      </trkpt>
      <trkpt lat="46.82328" lon="5.70151">
        <ele>491</ele>
        <time>2012-09-18T12:55:38Z</time>
      </trkpt>
      <trkpt lat="46.82335" lon="5.70165">
        <ele>491</ele>
        <time>2012-09-18T12:55:41Z</time>
      </trkpt>
      <trkpt lat="46.8234" lon="5.70177">
        <ele>491</ele>
        <time>2012-09-18T12:55:44Z</time>
      </trkpt>
      <trkpt lat="46.82347" lon="5.70192">
        <ele>491</ele>
        <time>2012-09-18T12:55:48Z</time>
      </trkpt>
      <trkpt lat="46.82354" lon="5.70204">
        <ele>491</ele>
        <time>2012-09-18T12:55:52Z</time>
      </trkpt>
      <trkpt lat="46.82363" lon="5.70214">
        <ele>497</ele>
        <time>2012-09-18T12:55:57Z</time>
      </trkpt>
      <trkpt lat="46.82371" lon="5.70225">
        <ele>497</ele>
        <time>2012-09-18T12:56:01Z</time>
      </trkpt>
      <trkpt lat="46.82377" lon="5.70236">
        <ele>497</ele>
        <time>2012-09-18T12:56:05Z</time>
      </trkpt>
      <trkpt lat="46.82386" lon="5.70245">
        <ele>497</ele>
        <time>2012-09-18T12:56:09Z</time>
      </trkpt>
      <trkpt lat="46.82396" lon="5.70253">
        <ele>497</ele>
        <time>2012-09-18T12:56:13Z</time>
      </trkpt>
      <trkpt lat="46.82406" lon="5.70264">
        <ele>497</ele>
        <time>2012-09-18T12:56:17Z</time>
      </trkpt>
      <trkpt lat="46.82412" lon="5.70273">
        <ele>497</ele>
        <time>2012-09-18T12:56:20Z</time>
      </trkpt>
      <trkpt lat="46.82422" lon="5.70282">
        <ele>497</ele>
        <time>2012-09-18T12:56:24Z</time>
      </trkpt>
      <trkpt lat="46.82431" lon="5.70291">
        <ele>491</ele>
        <time>2012-09-18T12:56:28Z</time>
      </trkpt>
      <trkpt lat="46.82439" lon="5.70299">
        <ele>491</ele>
        <time>2012-09-18T12:56:31Z</time>
      </trkpt>
      <trkpt lat="46.82449" lon="5.70305">
        <ele>491</ele>
        <time>2012-09-18T12:56:36Z</time>
      </trkpt>
      <trkpt lat="46.82459" lon="5.70313">
        <ele>491</ele>
        <time>2012-09-18T12:56:40Z</time>
      </trkpt>
      <trkpt lat="46.82468" lon="5.70322">
        <ele>496</ele>
        <time>2012-09-18T12:56:44Z</time>
      </trkpt>
      <trkpt lat="46.82476" lon="5.70329">
        <ele>496</ele>
        <time>2012-09-18T12:56:48Z</time>
      </trkpt>
      <trkpt lat="46.82485" lon="5.70334">
        <ele>504</ele>
        <time>2012-09-18T12:56:53Z</time>
      </trkpt>
      <trkpt lat="46.82493" lon="5.70342">
        <ele>504</ele>
        <time>2012-09-18T12:56:56Z</time>
      </trkpt>
      <trkpt lat="46.82502" lon="5.70349">
        <ele>504</ele>
        <time>2012-09-18T12:57:00Z</time>
      </trkpt>
      <trkpt lat="46.82509" lon="5.70359">
        <ele>504</ele>
        <time>2012-09-18T12:57:03Z</time>
      </trkpt>
      <trkpt lat="46.82517" lon="5.70366">
        <ele>504</ele>
        <time>2012-09-18T12:57:06Z</time>
      </trkpt>
      <trkpt lat="46.82526" lon="5.70375">
        <ele>504</ele>
        <time>2012-09-18T12:57:10Z</time>
      </trkpt>
      <trkpt lat="46.82536" lon="5.70382">
        <ele>504</ele>
        <time>2012-09-18T12:57:14Z</time>
      </trkpt>
      <trkpt lat="46.82545" lon="5.70388">
        <ele>504</ele>
        <time>2012-09-18T12:57:18Z</time>
      </trkpt>
      <trkpt lat="46.82554" lon="5.70396">
        <ele>504</ele>
        <time>2012-09-18T12:57:22Z</time>
      </trkpt>
      <trkpt lat="46.82563" lon="5.70402">
        <ele>504</ele>
        <time>2012-09-18T12:57:25Z</time>
      </trkpt>
      <trkpt lat="46.82572" lon="5.70406">
        <ele>504</ele>
        <time>2012-09-18T12:57:28Z</time>
      </trkpt>
      <trkpt lat="46.82581" lon="5.7041">
        <ele>504</ele>
        <time>2012-09-18T12:57:31Z</time>
      </trkpt>
      <trkpt lat="46.82591" lon="5.70416">
        <ele>504</ele>
        <time>2012-09-18T12:57:35Z</time>
      </trkpt>
      <trkpt lat="46.82601" lon="5.70423">
        <ele>504</ele>
        <time>2012-09-18T12:57:40Z</time>
      </trkpt>
      <trkpt lat="46.82611" lon="5.70428">
        <ele>504</ele>
        <time>2012-09-18T12:57:45Z</time>
      </trkpt>
      <trkpt lat="46.8262" lon="5.70433">
        <ele>504</ele>
        <time>2012-09-18T12:57:50Z</time>
      </trkpt>
      <trkpt lat="46.82629" lon="5.70438">
        <ele>504</ele>
        <time>2012-09-18T12:57:55Z</time>
      </trkpt>
      <trkpt lat="46.82638" lon="5.70446">
        <ele>510</ele>
        <time>2012-09-18T12:58:00Z</time>
      </trkpt>
      <trkpt lat="46.82646" lon="5.70455">
        <ele>510</ele>
        <time>2012-09-18T12:58:05Z</time>
      </trkpt>
      <trkpt lat="46.82656" lon="5.70455">
        <ele>510</ele>
        <time>2012-09-18T12:58:11Z</time>
      </trkpt>
      <trkpt lat="46.82647" lon="5.7046">
        <ele>510</ele>
        <time>2012-09-18T13:03:35Z</time>
      </trkpt>
      <trkpt lat="46.82638" lon="5.7045">
        <ele>510</ele>
        <time>2012-09-18T13:03:38Z</time>
      </trkpt>
      <trkpt lat="46.8263" lon="5.70442">
        <ele>510</ele>
        <time>2012-09-18T13:03:40Z</time>
      </trkpt>
      <trkpt lat="46.8262" lon="5.70436">
        <ele>510</ele>
        <time>2012-09-18T13:03:42Z</time>
      </trkpt>
      <trkpt lat="46.82609" lon="5.70429">
        <ele>504</ele>
        <time>2012-09-18T13:03:44Z</time>
      </trkpt>
      <trkpt lat="46.82595" lon="5.70421">
        <ele>504</ele>
        <time>2012-09-18T13:03:46Z</time>
      </trkpt>
      <trkpt lat="46.82579" lon="5.70413">
        <ele>504</ele>
        <time>2012-09-18T13:03:48Z</time>
      </trkpt>
      <trkpt lat="46.82565" lon="5.70405">
        <ele>498</ele>
        <time>2012-09-18T13:03:50Z</time>
      </trkpt>
      <trkpt lat="46.82553" lon="5.70398">
        <ele>498</ele>
        <time>2012-09-18T13:03:52Z</time>
      </trkpt>
      <trkpt lat="46.82542" lon="5.7039">
        <ele>498</ele>
        <time>2012-09-18T13:03:54Z</time>
      </trkpt>
      <trkpt lat="46.82533" lon="5.70381">
        <ele>498</ele>
        <time>2012-09-18T13:03:56Z</time>
      </trkpt>
      <trkpt lat="46.82522" lon="5.70376">
        <ele>498</ele>
        <time>2012-09-18T13:03:59Z</time>
      </trkpt>
      <trkpt lat="46.82514" lon="5.70387">
        <ele>498</ele>
        <time>2012-09-18T13:04:02Z</time>
      </trkpt>
      <trkpt lat="46.82517" lon="5.70404">
        <ele>498</ele>
        <time>2012-09-18T13:04:05Z</time>
      </trkpt>
      <trkpt lat="46.82519" lon="5.70419">
        <ele>498</ele>
        <time>2012-09-18T13:04:08Z</time>
      </trkpt>
      <trkpt lat="46.82521" lon="5.70433">
        <ele>498</ele>
        <time>2012-09-18T13:04:11Z</time>
      </trkpt>
      <trkpt lat="46.82522" lon="5.70447">
        <ele>498</ele>
        <time>2012-09-18T13:04:14Z</time>
      </trkpt>
      <trkpt lat="46.82525" lon="5.70463">
        <ele>498</ele>
        <time>2012-09-18T13:04:17Z</time>
      </trkpt>
      <trkpt lat="46.82527" lon="5.70477">
        <ele>498</ele>
        <time>2012-09-18T13:04:20Z</time>
      </trkpt>
      <trkpt lat="46.82528" lon="5.70491">
        <ele>506</ele>
        <time>2012-09-18T13:04:23Z</time>
      </trkpt>
      <trkpt lat="46.8253" lon="5.70507">
        <ele>506</ele>
        <time>2012-09-18T13:04:26Z</time>
      </trkpt>
      <trkpt lat="46.82533" lon="5.70522">
        <ele>513</ele>
        <time>2012-09-18T13:04:29Z</time>
      </trkpt>
      <trkpt lat="46.82537" lon="5.70537">
        <ele>513</ele>
        <time>2012-09-18T13:04:32Z</time>
      </trkpt>
      <trkpt lat="46.82542" lon="5.70548">
        <ele>519</ele>
        <time>2012-09-18T13:04:35Z</time>
      </trkpt>
      <trkpt lat="46.82545" lon="5.70561">
        <ele>519</ele>
        <time>2012-09-18T13:04:38Z</time>
      </trkpt>
      <trkpt lat="46.8255" lon="5.70578">
        <ele>519</ele>
        <time>2012-09-18T13:04:41Z</time>
      </trkpt>
      <trkpt lat="46.82554" lon="5.7059">
        <ele>519</ele>
        <time>2012-09-18T13:04:43Z</time>
      </trkpt>
      <trkpt lat="46.82557" lon="5.70608">
        <ele>519</ele>
        <time>2012-09-18T13:04:46Z</time>
      </trkpt>
      <trkpt lat="46.82555" lon="5.70625">
        <ele>519</ele>
        <time>2012-09-18T13:04:49Z</time>
      </trkpt>
      <trkpt lat="46.82551" lon="5.7064">
        <ele>519</ele>
        <time>2012-09-18T13:04:52Z</time>
      </trkpt>
      <trkpt lat="46.82546" lon="5.70655">
        <ele>519</ele>
        <time>2012-09-18T13:04:55Z</time>
      </trkpt>
      <trkpt lat="46.82539" lon="5.70667">
        <ele>519</ele>
        <time>2012-09-18T13:04:58Z</time>
      </trkpt>
      <trkpt lat="46.82534" lon="5.70681">
        <ele>519</ele>
        <time>2012-09-18T13:05:01Z</time>
      </trkpt>
      <trkpt lat="46.82528" lon="5.70693">
        <ele>519</ele>
        <time>2012-09-18T13:05:04Z</time>
      </trkpt>
      <trkpt lat="46.82522" lon="5.70707">
        <ele>519</ele>
        <time>2012-09-18T13:05:07Z</time>
      </trkpt>
      <trkpt lat="46.82518" lon="5.7072">
        <ele>519</ele>
        <time>2012-09-18T13:05:10Z</time>
      </trkpt>
      <trkpt lat="46.82514" lon="5.70735">
        <ele>519</ele>
        <time>2012-09-18T13:05:14Z</time>
      </trkpt>
      <trkpt lat="46.82511" lon="5.70747">
        <ele>528</ele>
        <time>2012-09-18T13:05:17Z</time>
      </trkpt>
      <trkpt lat="46.82507" lon="5.70761">
        <ele>528</ele>
        <time>2012-09-18T13:05:20Z</time>
      </trkpt>
      <trkpt lat="46.82503" lon="5.70773">
        <ele>528</ele>
        <time>2012-09-18T13:05:23Z</time>
      </trkpt>
      <trkpt lat="46.82499" lon="5.70786">
        <ele>528</ele>
        <time>2012-09-18T13:05:26Z</time>
      </trkpt>
      <trkpt lat="46.82495" lon="5.70799">
        <ele>528</ele>
        <time>2012-09-18T13:05:29Z</time>
      </trkpt>
      <trkpt lat="46.8249" lon="5.70811">
        <ele>528</ele>
        <time>2012-09-18T13:05:32Z</time>
      </trkpt>
      <trkpt lat="46.82486" lon="5.70823">
        <ele>528</ele>
        <time>2012-09-18T13:05:35Z</time>
      </trkpt>
      <trkpt lat="46.82481" lon="5.70834">
        <ele>528</ele>
        <time>2012-09-18T13:05:38Z</time>
      </trkpt>
      <trkpt lat="46.82479" lon="5.70848">
        <ele>528</ele>
        <time>2012-09-18T13:05:41Z</time>
      </trkpt>
      <trkpt lat="46.82475" lon="5.70862">
        <ele>528</ele>
        <time>2012-09-18T13:05:44Z</time>
      </trkpt>
      <trkpt lat="46.82475" lon="5.70878">
        <ele>528</ele>
        <time>2012-09-18T13:05:47Z</time>
      </trkpt>
      <trkpt lat="46.82474" lon="5.70891">
        <ele>528</ele>
        <time>2012-09-18T13:05:50Z</time>
      </trkpt>
      <trkpt lat="46.82472" lon="5.70906">
        <ele>528</ele>
        <time>2012-09-18T13:05:54Z</time>
      </trkpt>
      <trkpt lat="46.82471" lon="5.70923">
        <ele>528</ele>
        <time>2012-09-18T13:05:58Z</time>
      </trkpt>
      <trkpt lat="46.8247" lon="5.7094">
        <ele>528</ele>
        <time>2012-09-18T13:06:02Z</time>
      </trkpt>
      <trkpt lat="46.82469" lon="5.70956">
        <ele>528</ele>
        <time>2012-09-18T13:06:06Z</time>
      </trkpt>
      <trkpt lat="46.82469" lon="5.70971">
        <ele>528</ele>
        <time>2012-09-18T13:06:10Z</time>
      </trkpt>
      <trkpt lat="46.82468" lon="5.70987">
        <ele>528</ele>
        <time>2012-09-18T13:06:14Z</time>
      </trkpt>
      <trkpt lat="46.82468" lon="5.71002">
        <ele>528</ele>
        <time>2012-09-18T13:06:18Z</time>
      </trkpt>
      <trkpt lat="46.82468" lon="5.71019">
        <ele>528</ele>
        <time>2012-09-18T13:06:22Z</time>
      </trkpt>
      <trkpt lat="46.82467" lon="5.71034">
        <ele>528</ele>
        <time>2012-09-18T13:06:26Z</time>
      </trkpt>
      <trkpt lat="46.82467" lon="5.7105">
        <ele>528</ele>
        <time>2012-09-18T13:06:30Z</time>
      </trkpt>
      <trkpt lat="46.82467" lon="5.71065">
        <ele>528</ele>
        <time>2012-09-18T13:06:34Z</time>
      </trkpt>
      <trkpt lat="46.82468" lon="5.71081">
        <ele>528</ele>
        <time>2012-09-18T13:06:38Z</time>
      </trkpt>
      <trkpt lat="46.82468" lon="5.71096">
        <ele>528</ele>
        <time>2012-09-18T13:06:42Z</time>
      </trkpt>
      <trkpt lat="46.82468" lon="5.71111">
        <ele>528</ele>
        <time>2012-09-18T13:06:46Z</time>
      </trkpt>
      <trkpt lat="46.82467" lon="5.71126">
        <ele>534</ele>
        <time>2012-09-18T13:06:50Z</time>
      </trkpt>
      <trkpt lat="46.82464" lon="5.71142">
        <ele>534</ele>
        <time>2012-09-18T13:06:54Z</time>
      </trkpt>
      <trkpt lat="46.8246" lon="5.71158">
        <ele>534</ele>
        <time>2012-09-18T13:06:58Z</time>
      </trkpt>
      <trkpt lat="46.82456" lon="5.71171">
        <ele>534</ele>
        <time>2012-09-18T13:07:01Z</time>
      </trkpt>
      <trkpt lat="46.82451" lon="5.71185">
        <ele>534</ele>
        <time>2012-09-18T13:07:04Z</time>
      </trkpt>
      <trkpt lat="46.82443" lon="5.71197">
        <ele>534</ele>
        <time>2012-09-18T13:07:07Z</time>
      </trkpt>
      <trkpt lat="46.82435" lon="5.71206">
        <ele>534</ele>
        <time>2012-09-18T13:07:10Z</time>
      </trkpt>
      <trkpt lat="46.82425" lon="5.71213">
        <ele>534</ele>
        <time>2012-09-18T13:07:13Z</time>
      </trkpt>
      <trkpt lat="46.82414" lon="5.71215">
        <ele>534</ele>
        <time>2012-09-18T13:07:16Z</time>
      </trkpt>
      <trkpt lat="46.82404" lon="5.71214">
        <ele>534</ele>
        <time>2012-09-18T13:07:19Z</time>
      </trkpt>
      <trkpt lat="46.82394" lon="5.71211">
        <ele>534</ele>
        <time>2012-09-18T13:07:22Z</time>
      </trkpt>
      <trkpt lat="46.82385" lon="5.71207">
        <ele>539</ele>
        <time>2012-09-18T13:07:25Z</time>
      </trkpt>
      <trkpt lat="46.82376" lon="5.71204">
        <ele>539</ele>
        <time>2012-09-18T13:07:28Z</time>
      </trkpt>
      <trkpt lat="46.82367" lon="5.71202">
        <ele>539</ele>
        <time>2012-09-18T13:07:31Z</time>
      </trkpt>
      <trkpt lat="46.82357" lon="5.71202">
        <ele>539</ele>
        <time>2012-09-18T13:07:34Z</time>
      </trkpt>
      <trkpt lat="46.82348" lon="5.71201">
        <ele>539</ele>
        <time>2012-09-18T13:07:37Z</time>
      </trkpt>
      <trkpt lat="46.82337" lon="5.712">
        <ele>539</ele>
        <time>2012-09-18T13:07:41Z</time>
      </trkpt>
      <trkpt lat="46.82328" lon="5.712">
        <ele>539</ele>
        <time>2012-09-18T13:07:44Z</time>
      </trkpt>
      <trkpt lat="46.82319" lon="5.71199">
        <ele>539</ele>
        <time>2012-09-18T13:07:47Z</time>
      </trkpt>
      <trkpt lat="46.82309" lon="5.71197">
        <ele>544</ele>
        <time>2012-09-18T13:07:50Z</time>
      </trkpt>
      <trkpt lat="46.823" lon="5.71196">
        <ele>544</ele>
        <time>2012-09-18T13:07:53Z</time>
      </trkpt>
      <trkpt lat="46.8229" lon="5.71195">
        <ele>544</ele>
        <time>2012-09-18T13:07:56Z</time>
      </trkpt>
      <trkpt lat="46.8228" lon="5.71193">
        <ele>544</ele>
        <time>2012-09-18T13:07:59Z</time>
      </trkpt>
      <trkpt lat="46.82269" lon="5.7119">
        <ele>544</ele>
        <time>2012-09-18T13:08:03Z</time>
      </trkpt>
      <trkpt lat="46.82259" lon="5.71188">
        <ele>544</ele>
        <time>2012-09-18T13:08:06Z</time>
      </trkpt>
      <trkpt lat="46.82248" lon="5.71183">
        <ele>549</ele>
        <time>2012-09-18T13:08:10Z</time>
      </trkpt>
      <trkpt lat="46.82238" lon="5.71179">
        <ele>549</ele>
        <time>2012-09-18T13:08:13Z</time>
      </trkpt>
      <trkpt lat="46.82227" lon="5.71176">
        <ele>549</ele>
        <time>2012-09-18T13:08:17Z</time>
      </trkpt>
      <trkpt lat="46.82217" lon="5.71173">
        <ele>549</ele>
        <time>2012-09-18T13:08:20Z</time>
      </trkpt>
      <trkpt lat="46.82206" lon="5.7117">
        <ele>549</ele>
        <time>2012-09-18T13:08:23Z</time>
      </trkpt>
      <trkpt lat="46.82195" lon="5.71168">
        <ele>549</ele>
        <time>2012-09-18T13:08:26Z</time>
      </trkpt>
      <trkpt lat="46.82182" lon="5.71166">
        <ele>549</ele>
        <time>2012-09-18T13:08:29Z</time>
      </trkpt>
      <trkpt lat="46.82173" lon="5.71162">
        <ele>549</ele>
        <time>2012-09-18T13:08:31Z</time>
      </trkpt>
      <trkpt lat="46.82164" lon="5.71158">
        <ele>549</ele>
        <time>2012-09-18T13:08:33Z</time>
      </trkpt>
      <trkpt lat="46.82155" lon="5.71152">
        <ele>549</ele>
        <time>2012-09-18T13:08:35Z</time>
      </trkpt>
      <trkpt lat="46.82146" lon="5.71145">
        <ele>549</ele>
        <time>2012-09-18T13:08:37Z</time>
      </trkpt>
      <trkpt lat="46.82138" lon="5.71137">
        <ele>549</ele>
        <time>2012-09-18T13:08:39Z</time>
      </trkpt>
      <trkpt lat="46.8213" lon="5.71128">
        <ele>549</ele>
        <time>2012-09-18T13:08:41Z</time>
      </trkpt>
      <trkpt lat="46.82123" lon="5.71119">
        <ele>549</ele>
        <time>2012-09-18T13:08:43Z</time>
      </trkpt>
      <trkpt lat="46.82116" lon="5.7111">
        <ele>549</ele>
        <time>2012-09-18T13:08:45Z</time>
      </trkpt>
      <trkpt lat="46.82107" lon="5.71098">
        <ele>549</ele>
        <time>2012-09-18T13:08:48Z</time>
      </trkpt>
      <trkpt lat="46.821" lon="5.71086">
        <ele>549</ele>
        <time>2012-09-18T13:08:51Z</time>
      </trkpt>
      <trkpt lat="46.82093" lon="5.71075">
        <ele>555</ele>
        <time>2012-09-18T13:08:54Z</time>
      </trkpt>
      <trkpt lat="46.82085" lon="5.71067">
        <ele>560</ele>
        <time>2012-09-18T13:08:57Z</time>
      </trkpt>
      <trkpt lat="46.82079" lon="5.71053">
        <ele>560</ele>
        <time>2012-09-18T13:09:00Z</time>
      </trkpt>
      <trkpt lat="46.8207" lon="5.71041">
        <ele>560</ele>
        <time>2012-09-18T13:09:03Z</time>
      </trkpt>
      <trkpt lat="46.82062" lon="5.7103">
        <ele>560</ele>
        <time>2012-09-18T13:09:06Z</time>
      </trkpt>
      <trkpt lat="46.82053" lon="5.7102">
        <ele>560</ele>
        <time>2012-09-18T13:09:09Z</time>
      </trkpt>
      <trkpt lat="46.82044" lon="5.71011">
        <ele>560</ele>
        <time>2012-09-18T13:09:13Z</time>
      </trkpt>
      <trkpt lat="46.82037" lon="5.71021">
        <ele>560</ele>
        <time>2012-09-18T13:09:47Z</time>
      </trkpt>
      <trkpt lat="46.82031" lon="5.71031">
        <ele>560</ele>
        <time>2012-09-18T13:09:50Z</time>
      </trkpt>
      <trkpt lat="46.82026" lon="5.71047">
        <ele>560</ele>
        <time>2012-09-18T13:09:53Z</time>
      </trkpt>
      <trkpt lat="46.82023" lon="5.7106">
        <ele>560</ele>
        <time>2012-09-18T13:09:55Z</time>
      </trkpt>
      <trkpt lat="46.82019" lon="5.71075">
        <ele>560</ele>
        <time>2012-09-18T13:09:57Z</time>
      </trkpt>
      <trkpt lat="46.82015" lon="5.71093">
        <ele>555</ele>
        <time>2012-09-18T13:09:59Z</time>
      </trkpt>
      <trkpt lat="46.82013" lon="5.71115">
        <ele>555</ele>
        <time>2012-09-18T13:10:01Z</time>
      </trkpt>
      <trkpt lat="46.82012" lon="5.71138">
        <ele>555</ele>
        <time>2012-09-18T13:10:03Z</time>
      </trkpt>
      <trkpt lat="46.8201" lon="5.71163">
        <ele>555</ele>
        <time>2012-09-18T13:10:05Z</time>
      </trkpt>
      <trkpt lat="46.82007" lon="5.71188">
        <ele>555</ele>
        <time>2012-09-18T13:10:07Z</time>
      </trkpt>
      <trkpt lat="46.82003" lon="5.71212">
        <ele>555</ele>
        <time>2012-09-18T13:10:09Z</time>
      </trkpt>
      <trkpt lat="46.81998" lon="5.71233">
        <ele>555</ele>
        <time>2012-09-18T13:10:11Z</time>
      </trkpt>
      <trkpt lat="46.81992" lon="5.71255">
        <ele>555</ele>
        <time>2012-09-18T13:10:13Z</time>
      </trkpt>
      <trkpt lat="46.81988" lon="5.71275">
        <ele>555</ele>
        <time>2012-09-18T13:10:15Z</time>
      </trkpt>
      <trkpt lat="46.81984" lon="5.71293">
        <ele>555</ele>
        <time>2012-09-18T13:10:17Z</time>
      </trkpt>
      <trkpt lat="46.81981" lon="5.71307">
        <ele>555</ele>
        <time>2012-09-18T13:10:19Z</time>
      </trkpt>
      <trkpt lat="46.81978" lon="5.71321">
        <ele>555</ele>
        <time>2012-09-18T13:10:21Z</time>
      </trkpt>
      <trkpt lat="46.81975" lon="5.71336">
        <ele>555</ele>
        <time>2012-09-18T13:10:23Z</time>
      </trkpt>
      <trkpt lat="46.81973" lon="5.7135">
        <ele>555</ele>
        <time>2012-09-18T13:10:25Z</time>
      </trkpt>
      <trkpt lat="46.8197" lon="5.71365">
        <ele>555</ele>
        <time>2012-09-18T13:10:27Z</time>
      </trkpt>
      <trkpt lat="46.81967" lon="5.71379">
        <ele>555</ele>
        <time>2012-09-18T13:10:29Z</time>
      </trkpt>
      <trkpt lat="46.81963" lon="5.71393">
        <ele>555</ele>
        <time>2012-09-18T13:10:31Z</time>
      </trkpt>
      <trkpt lat="46.8196" lon="5.71408">
        <ele>555</ele>
        <time>2012-09-18T13:10:33Z</time>
      </trkpt>
      <trkpt lat="46.81957" lon="5.71422">
        <ele>555</ele>
        <time>2012-09-18T13:10:35Z</time>
      </trkpt>
      <trkpt lat="46.81953" lon="5.71435">
        <ele>555</ele>
        <time>2012-09-18T13:10:37Z</time>
      </trkpt>
      <trkpt lat="46.81949" lon="5.71449">
        <ele>555</ele>
        <time>2012-09-18T13:10:39Z</time>
      </trkpt>
      <trkpt lat="46.81945" lon="5.71461">
        <ele>555</ele>
        <time>2012-09-18T13:10:41Z</time>
      </trkpt>
      <trkpt lat="46.81941" lon="5.71478">
        <ele>555</ele>
        <time>2012-09-18T13:10:44Z</time>
      </trkpt>
      <trkpt lat="46.81935" lon="5.71494">
        <ele>555</ele>
        <time>2012-09-18T13:10:47Z</time>
      </trkpt>
      <trkpt lat="46.81931" lon="5.71508">
        <ele>555</ele>
        <time>2012-09-18T13:10:50Z</time>
      </trkpt>
      <trkpt lat="46.81926" lon="5.71523">
        <ele>555</ele>
        <time>2012-09-18T13:10:53Z</time>
      </trkpt>
      <trkpt lat="46.8192" lon="5.71536">
        <ele>555</ele>
        <time>2012-09-18T13:10:56Z</time>
      </trkpt>
      <trkpt lat="46.81916" lon="5.7155">
        <ele>555</ele>
        <time>2012-09-18T13:10:59Z</time>
      </trkpt>
      <trkpt lat="46.81911" lon="5.71564">
        <ele>555</ele>
        <time>2012-09-18T13:11:02Z</time>
      </trkpt>
      <trkpt lat="46.81905" lon="5.71577">
        <ele>555</ele>
        <time>2012-09-18T13:11:05Z</time>
      </trkpt>
      <trkpt lat="46.81901" lon="5.71591">
        <ele>555</ele>
        <time>2012-09-18T13:11:08Z</time>
      </trkpt>
      <trkpt lat="46.81896" lon="5.71604">
        <ele>560</ele>
        <time>2012-09-18T13:11:11Z</time>
      </trkpt>
      <trkpt lat="46.81892" lon="5.71618">
        <ele>560</ele>
        <time>2012-09-18T13:11:14Z</time>
      </trkpt>
      <trkpt lat="46.81887" lon="5.7163">
        <ele>560</ele>
        <time>2012-09-18T13:11:17Z</time>
      </trkpt>
      <trkpt lat="46.81883" lon="5.71644">
        <ele>560</ele>
        <time>2012-09-18T13:11:20Z</time>
      </trkpt>
      <trkpt lat="46.81878" lon="5.71657">
        <ele>560</ele>
        <time>2012-09-18T13:11:23Z</time>
      </trkpt>
      <trkpt lat="46.81873" lon="5.71671">
        <ele>560</ele>
        <time>2012-09-18T13:11:26Z</time>
      </trkpt>
      <trkpt lat="46.81868" lon="5.71684">
        <ele>560</ele>
        <time>2012-09-18T13:11:29Z</time>
      </trkpt>
      <trkpt lat="46.81863" lon="5.71697">
        <ele>565</ele>
        <time>2012-09-18T13:11:32Z</time>
      </trkpt>
      <trkpt lat="46.81859" lon="5.71709">
        <ele>565</ele>
        <time>2012-09-18T13:11:35Z</time>
      </trkpt>
      <trkpt lat="46.81853" lon="5.71722">
        <ele>565</ele>
        <time>2012-09-18T13:11:38Z</time>
      </trkpt>
      <trkpt lat="46.81847" lon="5.71735">
        <ele>565</ele>
        <time>2012-09-18T13:11:41Z</time>
      </trkpt>
      <trkpt lat="46.8184" lon="5.71747">
        <ele>565</ele>
        <time>2012-09-18T13:11:44Z</time>
      </trkpt>
      <trkpt lat="46.81832" lon="5.7176">
        <ele>565</ele>
        <time>2012-09-18T13:11:47Z</time>
      </trkpt>
      <trkpt lat="46.81825" lon="5.71773">
        <ele>565</ele>
        <time>2012-09-18T13:11:50Z</time>
      </trkpt>
      <trkpt lat="46.81817" lon="5.71786">
        <ele>565</ele>
        <time>2012-09-18T13:11:53Z</time>
      </trkpt>
      <trkpt lat="46.81809" lon="5.71799">
        <ele>565</ele>
        <time>2012-09-18T13:11:56Z</time>
      </trkpt>
      <trkpt lat="46.81802" lon="5.71813">
        <ele>565</ele>
        <time>2012-09-18T13:11:59Z</time>
      </trkpt>
      <trkpt lat="46.81794" lon="5.71824">
        <ele>565</ele>
        <time>2012-09-18T13:12:02Z</time>
      </trkpt>
      <trkpt lat="46.81786" lon="5.71836">
        <ele>565</ele>
        <time>2012-09-18T13:12:05Z</time>
      </trkpt>
      <trkpt lat="46.81778" lon="5.71849">
        <ele>565</ele>
        <time>2012-09-18T13:12:08Z</time>
      </trkpt>
      <trkpt lat="46.81769" lon="5.71861">
        <ele>565</ele>
        <time>2012-09-18T13:12:11Z</time>
      </trkpt>
      <trkpt lat="46.81761" lon="5.71875">
        <ele>565</ele>
        <time>2012-09-18T13:12:14Z</time>
      </trkpt>
      <trkpt lat="46.81753" lon="5.71889">
        <ele>565</ele>
        <time>2012-09-18T13:12:17Z</time>
      </trkpt>
      <trkpt lat="46.81745" lon="5.71903">
        <ele>565</ele>
        <time>2012-09-18T13:12:20Z</time>
      </trkpt>
      <trkpt lat="46.81738" lon="5.71919">
        <ele>565</ele>
        <time>2012-09-18T13:12:23Z</time>
      </trkpt>
      <trkpt lat="46.8173" lon="5.71932">
        <ele>565</ele>
        <time>2012-09-18T13:12:26Z</time>
      </trkpt>
      <trkpt lat="46.81723" lon="5.71946">
        <ele>565</ele>
        <time>2012-09-18T13:12:29Z</time>
      </trkpt>
      <trkpt lat="46.81716" lon="5.7196">
        <ele>565</ele>
        <time>2012-09-18T13:12:32Z</time>
      </trkpt>
      <trkpt lat="46.81708" lon="5.71974">
        <ele>565</ele>
        <time>2012-09-18T13:12:35Z</time>
      </trkpt>
      <trkpt lat="46.817" lon="5.71987">
        <ele>565</ele>
        <time>2012-09-18T13:12:38Z</time>
      </trkpt>
      <trkpt lat="46.81692" lon="5.72001">
        <ele>565</ele>
        <time>2012-09-18T13:12:41Z</time>
      </trkpt>
      <trkpt lat="46.81685" lon="5.72014">
        <ele>565</ele>
        <time>2012-09-18T13:12:44Z</time>
      </trkpt>
      <trkpt lat="46.81678" lon="5.72027">
        <ele>565</ele>
        <time>2012-09-18T13:12:47Z</time>
      </trkpt>
      <trkpt lat="46.81671" lon="5.72045">
        <ele>565</ele>
        <time>2012-09-18T13:12:50Z</time>
      </trkpt>
      <trkpt lat="46.81666" lon="5.72062">
        <ele>565</ele>
        <time>2012-09-18T13:12:53Z</time>
      </trkpt>
      <trkpt lat="46.81662" lon="5.72076">
        <ele>565</ele>
        <time>2012-09-18T13:12:55Z</time>
      </trkpt>
      <trkpt lat="46.81658" lon="5.72089">
        <ele>565</ele>
        <time>2012-09-18T13:12:57Z</time>
      </trkpt>
      <trkpt lat="46.81652" lon="5.72103">
        <ele>565</ele>
        <time>2012-09-18T13:12:59Z</time>
      </trkpt>
      <trkpt lat="46.81645" lon="5.72115">
        <ele>565</ele>
        <time>2012-09-18T13:13:01Z</time>
      </trkpt>
      <trkpt lat="46.81637" lon="5.72127">
        <ele>565</ele>
        <time>2012-09-18T13:13:03Z</time>
      </trkpt>
      <trkpt lat="46.81627" lon="5.72138">
        <ele>565</ele>
        <time>2012-09-18T13:13:05Z</time>
      </trkpt>
      <trkpt lat="46.81616" lon="5.72145">
        <ele>565</ele>
        <time>2012-09-18T13:13:07Z</time>
      </trkpt>
      <trkpt lat="46.81604" lon="5.72152">
        <ele>565</ele>
        <time>2012-09-18T13:13:09Z</time>
      </trkpt>
      <trkpt lat="46.81592" lon="5.7216">
        <ele>565</ele>
        <time>2012-09-18T13:13:11Z</time>
      </trkpt>
      <trkpt lat="46.8158" lon="5.72168">
        <ele>565</ele>
        <time>2012-09-18T13:13:13Z</time>
      </trkpt>
      <trkpt lat="46.81568" lon="5.72175">
        <ele>565</ele>
        <time>2012-09-18T13:13:15Z</time>
      </trkpt>
      <trkpt lat="46.81556" lon="5.72182">
        <ele>565</ele>
        <time>2012-09-18T13:13:17Z</time>
      </trkpt>
      <trkpt lat="46.81545" lon="5.72191">
        <ele>565</ele>
        <time>2012-09-18T13:13:19Z</time>
      </trkpt>
      <trkpt lat="46.81534" lon="5.72201">
        <ele>565</ele>
        <time>2012-09-18T13:13:21Z</time>
      </trkpt>
      <trkpt lat="46.81525" lon="5.72212">
        <ele>565</ele>
        <time>2012-09-18T13:13:23Z</time>
      </trkpt>
      <trkpt lat="46.81516" lon="5.72221">
        <ele>565</ele>
        <time>2012-09-18T13:13:25Z</time>
      </trkpt>
      <trkpt lat="46.81507" lon="5.7223">
        <ele>565</ele>
        <time>2012-09-18T13:13:27Z</time>
      </trkpt>
      <trkpt lat="46.81497" lon="5.72239">
        <ele>565</ele>
        <time>2012-09-18T13:13:29Z</time>
      </trkpt>
      <trkpt lat="46.81489" lon="5.72247">
        <ele>565</ele>
        <time>2012-09-18T13:13:31Z</time>
      </trkpt>
      <trkpt lat="46.81479" lon="5.72255">
        <ele>565</ele>
        <time>2012-09-18T13:13:33Z</time>
      </trkpt>
      <trkpt lat="46.81471" lon="5.72265">
        <ele>565</ele>
        <time>2012-09-18T13:13:35Z</time>
      </trkpt>
      <trkpt lat="46.81463" lon="5.72275">
        <ele>565</ele>
        <time>2012-09-18T13:13:37Z</time>
      </trkpt>
      <trkpt lat="46.81455" lon="5.72287">
        <ele>565</ele>
        <time>2012-09-18T13:13:39Z</time>
      </trkpt>
      <trkpt lat="46.81448" lon="5.72299">
        <ele>565</ele>
        <time>2012-09-18T13:13:41Z</time>
      </trkpt>
      <trkpt lat="46.8144" lon="5.7231">
        <ele>565</ele>
        <time>2012-09-18T13:13:43Z</time>
      </trkpt>
      <trkpt lat="46.81432" lon="5.72322">
        <ele>565</ele>
        <time>2012-09-18T13:13:45Z</time>
      </trkpt>
      <trkpt lat="46.81424" lon="5.72335">
        <ele>565</ele>
        <time>2012-09-18T13:13:47Z</time>
      </trkpt>
      <trkpt lat="46.81415" lon="5.72347">
        <ele>565</ele>
        <time>2012-09-18T13:13:49Z</time>
      </trkpt>
      <trkpt lat="46.81407" lon="5.72359">
        <ele>565</ele>
        <time>2012-09-18T13:13:51Z</time>
      </trkpt>
      <trkpt lat="46.81398" lon="5.72372">
        <ele>565</ele>
        <time>2012-09-18T13:13:53Z</time>
      </trkpt>
      <trkpt lat="46.8139" lon="5.72381">
        <ele>560</ele>
        <time>2012-09-18T13:13:55Z</time>
      </trkpt>
      <trkpt lat="46.8138" lon="5.7239">
        <ele>560</ele>
        <time>2012-09-18T13:13:58Z</time>
      </trkpt>
      <trkpt lat="46.81371" lon="5.72399">
        <ele>560</ele>
        <time>2012-09-18T13:14:02Z</time>
      </trkpt>
      <trkpt lat="46.81367" lon="5.72413">
        <ele>560</ele>
        <time>2012-09-18T13:14:05Z</time>
      </trkpt>
      <trkpt lat="46.81368" lon="5.72431">
        <ele>560</ele>
        <time>2012-09-18T13:14:08Z</time>
      </trkpt>
      <trkpt lat="46.81368" lon="5.72444">
        <ele>560</ele>
        <time>2012-09-18T13:14:10Z</time>
      </trkpt>
      <trkpt lat="46.81368" lon="5.72458">
        <ele>560</ele>
        <time>2012-09-18T13:14:12Z</time>
      </trkpt>
      <trkpt lat="46.81368" lon="5.72472">
        <ele>560</ele>
        <time>2012-09-18T13:14:14Z</time>
      </trkpt>
      <trkpt lat="46.81369" lon="5.72486">
        <ele>560</ele>
        <time>2012-09-18T13:14:16Z</time>
      </trkpt>
      <trkpt lat="46.81369" lon="5.72503">
        <ele>560</ele>
        <time>2012-09-18T13:14:18Z</time>
      </trkpt>
      <trkpt lat="46.8137" lon="5.72518">
        <ele>560</ele>
        <time>2012-09-18T13:14:20Z</time>
      </trkpt>
      <trkpt lat="46.81372" lon="5.72534">
        <ele>560</ele>
        <time>2012-09-18T13:14:22Z</time>
      </trkpt>
      <trkpt lat="46.81374" lon="5.72551">
        <ele>560</ele>
        <time>2012-09-18T13:14:24Z</time>
      </trkpt>
      <trkpt lat="46.81377" lon="5.72567">
        <ele>560</ele>
        <time>2012-09-18T13:14:26Z</time>
      </trkpt>
      <trkpt lat="46.8138" lon="5.72583">
        <ele>560</ele>
        <time>2012-09-18T13:14:28Z</time>
      </trkpt>
      <trkpt lat="46.81383" lon="5.72599">
        <ele>560</ele>
        <time>2012-09-18T13:14:30Z</time>
      </trkpt>
      <trkpt lat="46.81387" lon="5.72616">
        <ele>560</ele>
        <time>2012-09-18T13:14:32Z</time>
      </trkpt>
      <trkpt lat="46.81391" lon="5.72633">
        <ele>560</ele>
        <time>2012-09-18T13:14:34Z</time>
      </trkpt>
      <trkpt lat="46.81395" lon="5.7265">
        <ele>560</ele>
        <time>2012-09-18T13:14:36Z</time>
      </trkpt>
      <trkpt lat="46.81399" lon="5.72667">
        <ele>560</ele>
        <time>2012-09-18T13:14:38Z</time>
      </trkpt>
      <trkpt lat="46.81404" lon="5.72683">
        <ele>560</ele>
        <time>2012-09-18T13:14:40Z</time>
      </trkpt>
      <trkpt lat="46.8141" lon="5.72698">
        <ele>560</ele>
        <time>2012-09-18T13:14:42Z</time>
      </trkpt>
      <trkpt lat="46.81416" lon="5.72713">
        <ele>560</ele>
        <time>2012-09-18T13:14:44Z</time>
      </trkpt>
      <trkpt lat="46.81423" lon="5.72727">
        <ele>560</ele>
        <time>2012-09-18T13:14:46Z</time>
      </trkpt>
      <trkpt lat="46.81429" lon="5.72742">
        <ele>560</ele>
        <time>2012-09-18T13:14:48Z</time>
      </trkpt>
      <trkpt lat="46.81436" lon="5.72755">
        <ele>560</ele>
        <time>2012-09-18T13:14:50Z</time>
      </trkpt>
      <trkpt lat="46.81441" lon="5.72769">
        <ele>560</ele>
        <time>2012-09-18T13:14:52Z</time>
      </trkpt>
      <trkpt lat="46.81447" lon="5.72783">
        <ele>560</ele>
        <time>2012-09-18T13:14:54Z</time>
      </trkpt>
      <trkpt lat="46.81453" lon="5.72796">
        <ele>560</ele>
        <time>2012-09-18T13:14:56Z</time>
      </trkpt>
      <trkpt lat="46.8146" lon="5.72811">
        <ele>560</ele>
        <time>2012-09-18T13:14:58Z</time>
      </trkpt>
      <trkpt lat="46.81467" lon="5.72825">
        <ele>560</ele>
        <time>2012-09-18T13:15:00Z</time>
      </trkpt>
      <trkpt lat="46.81473" lon="5.72841">
        <ele>560</ele>
        <time>2012-09-18T13:15:02Z</time>
      </trkpt>
      <trkpt lat="46.81478" lon="5.72858">
        <ele>560</ele>
        <time>2012-09-18T13:15:04Z</time>
      </trkpt>
      <trkpt lat="46.81482" lon="5.72875">
        <ele>560</ele>
        <time>2012-09-18T13:15:06Z</time>
      </trkpt>
      <trkpt lat="46.81487" lon="5.72891">
        <ele>560</ele>
        <time>2012-09-18T13:15:08Z</time>
      </trkpt>
      <trkpt lat="46.8149" lon="5.72907">
        <ele>560</ele>
        <time>2012-09-18T13:15:10Z</time>
      </trkpt>
      <trkpt lat="46.81494" lon="5.72922">
        <ele>560</ele>
        <time>2012-09-18T13:15:12Z</time>
      </trkpt>
      <trkpt lat="46.81497" lon="5.72937">
        <ele>560</ele>
        <time>2012-09-18T13:15:14Z</time>
      </trkpt>
      <trkpt lat="46.81499" lon="5.72951">
        <ele>560</ele>
        <time>2012-09-18T13:15:16Z</time>
      </trkpt>
      <trkpt lat="46.81502" lon="5.72966">
        <ele>560</ele>
        <time>2012-09-18T13:15:18Z</time>
      </trkpt>
      <trkpt lat="46.81505" lon="5.72983">
        <ele>560</ele>
        <time>2012-09-18T13:15:20Z</time>
      </trkpt>
      <trkpt lat="46.81508" lon="5.72999">
        <ele>560</ele>
        <time>2012-09-18T13:15:22Z</time>
      </trkpt>
      <trkpt lat="46.81511" lon="5.73016">
        <ele>560</ele>
        <time>2012-09-18T13:15:24Z</time>
      </trkpt>
      <trkpt lat="46.81513" lon="5.73032">
        <ele>560</ele>
        <time>2012-09-18T13:15:26Z</time>
      </trkpt>
      <trkpt lat="46.81516" lon="5.73048">
        <ele>560</ele>
        <time>2012-09-18T13:15:28Z</time>
      </trkpt>
      <trkpt lat="46.81519" lon="5.73064">
        <ele>560</ele>
        <time>2012-09-18T13:15:30Z</time>
      </trkpt>
      <trkpt lat="46.81522" lon="5.73079">
        <ele>560</ele>
        <time>2012-09-18T13:15:32Z</time>
      </trkpt>
      <trkpt lat="46.81526" lon="5.73094">
        <ele>560</ele>
        <time>2012-09-18T13:15:34Z</time>
      </trkpt>
      <trkpt lat="46.81531" lon="5.73108">
        <ele>560</ele>
        <time>2012-09-18T13:15:36Z</time>
      </trkpt>
      <trkpt lat="46.81535" lon="5.73121">
        <ele>560</ele>
        <time>2012-09-18T13:15:38Z</time>
      </trkpt>
      <trkpt lat="46.8154" lon="5.73134">
        <ele>560</ele>
        <time>2012-09-18T13:15:40Z</time>
      </trkpt>
      <trkpt lat="46.81546" lon="5.73147">
        <ele>565</ele>
        <time>2012-09-18T13:15:42Z</time>
      </trkpt>
      <trkpt lat="46.81552" lon="5.73159">
        <ele>565</ele>
        <time>2012-09-18T13:15:44Z</time>
      </trkpt>
      <trkpt lat="46.81556" lon="5.73172">
        <ele>565</ele>
        <time>2012-09-18T13:15:46Z</time>
      </trkpt>
      <trkpt lat="46.8156" lon="5.73184">
        <ele>565</ele>
        <time>2012-09-18T13:15:48Z</time>
      </trkpt>
      <trkpt lat="46.81565" lon="5.73196">
        <ele>565</ele>
        <time>2012-09-18T13:15:50Z</time>
      </trkpt>
      <trkpt lat="46.8157" lon="5.73208">
        <ele>565</ele>
        <time>2012-09-18T13:15:52Z</time>
      </trkpt>
      <trkpt lat="46.81576" lon="5.73225">
        <ele>565</ele>
        <time>2012-09-18T13:15:55Z</time>
      </trkpt>
      <trkpt lat="46.81582" lon="5.73242">
        <ele>565</ele>
        <time>2012-09-18T13:15:58Z</time>
      </trkpt>
      <trkpt lat="46.81587" lon="5.73258">
        <ele>565</ele>
        <time>2012-09-18T13:16:01Z</time>
      </trkpt>
      <trkpt lat="46.81589" lon="5.73271">
        <ele>565</ele>
        <time>2012-09-18T13:16:03Z</time>
      </trkpt>
      <trkpt lat="46.81591" lon="5.7329">
        <ele>565</ele>
        <time>2012-09-18T13:16:06Z</time>
      </trkpt>
      <trkpt lat="46.81592" lon="5.73308">
        <ele>565</ele>
        <time>2012-09-18T13:16:09Z</time>
      </trkpt>
      <trkpt lat="46.81591" lon="5.73326">
        <ele>565</ele>
        <time>2012-09-18T13:16:12Z</time>
      </trkpt>
      <trkpt lat="46.81589" lon="5.73346">
        <ele>565</ele>
        <time>2012-09-18T13:16:15Z</time>
      </trkpt>
      <trkpt lat="46.81587" lon="5.7336">
        <ele>565</ele>
        <time>2012-09-18T13:16:17Z</time>
      </trkpt>
      <trkpt lat="46.81584" lon="5.73379">
        <ele>565</ele>
        <time>2012-09-18T13:16:20Z</time>
      </trkpt>
      <trkpt lat="46.81581" lon="5.73393">
        <ele>565</ele>
        <time>2012-09-18T13:16:22Z</time>
      </trkpt>
      <trkpt lat="46.81579" lon="5.73407">
        <ele>565</ele>
        <time>2012-09-18T13:16:24Z</time>
      </trkpt>
      <trkpt lat="46.81575" lon="5.73423">
        <ele>565</ele>
        <time>2012-09-18T13:16:26Z</time>
      </trkpt>
      <trkpt lat="46.81568" lon="5.73441">
        <ele>565</ele>
        <time>2012-09-18T13:16:28Z</time>
      </trkpt>
      <trkpt lat="46.8156" lon="5.73456">
        <ele>565</ele>
        <time>2012-09-18T13:16:30Z</time>
      </trkpt>
      <trkpt lat="46.8155" lon="5.7347">
        <ele>565</ele>
        <time>2012-09-18T13:16:32Z</time>
      </trkpt>
      <trkpt lat="46.8154" lon="5.73483">
        <ele>565</ele>
        <time>2012-09-18T13:16:34Z</time>
      </trkpt>
      <trkpt lat="46.81531" lon="5.73495">
        <ele>565</ele>
        <time>2012-09-18T13:16:36Z</time>
      </trkpt>
      <trkpt lat="46.81523" lon="5.73512">
        <ele>565</ele>
        <time>2012-09-18T13:16:38Z</time>
      </trkpt>
      <trkpt lat="46.81519" lon="5.73533">
        <ele>560</ele>
        <time>2012-09-18T13:16:40Z</time>
      </trkpt>
      <trkpt lat="46.81516" lon="5.73556">
        <ele>560</ele>
        <time>2012-09-18T13:16:42Z</time>
      </trkpt>
      <trkpt lat="46.81515" lon="5.73579">
        <ele>560</ele>
        <time>2012-09-18T13:16:44Z</time>
      </trkpt>
      <trkpt lat="46.81514" lon="5.736">
        <ele>560</ele>
        <time>2012-09-18T13:16:46Z</time>
      </trkpt>
      <trkpt lat="46.81513" lon="5.7362">
        <ele>560</ele>
        <time>2012-09-18T13:16:48Z</time>
      </trkpt>
      <trkpt lat="46.81512" lon="5.73638">
        <ele>560</ele>
        <time>2012-09-18T13:16:50Z</time>
      </trkpt>
      <trkpt lat="46.81511" lon="5.73654">
        <ele>560</ele>
        <time>2012-09-18T13:16:52Z</time>
      </trkpt>
      <trkpt lat="46.8151" lon="5.7367">
        <ele>560</ele>
        <time>2012-09-18T13:16:54Z</time>
      </trkpt>
      <trkpt lat="46.81508" lon="5.73686">
        <ele>560</ele>
        <time>2012-09-18T13:16:56Z</time>
      </trkpt>
      <trkpt lat="46.81506" lon="5.73702">
        <ele>560</ele>
        <time>2012-09-18T13:16:58Z</time>
      </trkpt>
      <trkpt lat="46.81505" lon="5.73717">
        <ele>560</ele>
        <time>2012-09-18T13:17:00Z</time>
      </trkpt>
      <trkpt lat="46.81505" lon="5.73732">
        <ele>560</ele>
        <time>2012-09-18T13:17:02Z</time>
      </trkpt>
      <trkpt lat="46.81507" lon="5.73747">
        <ele>560</ele>
        <time>2012-09-18T13:17:04Z</time>
      </trkpt>
      <trkpt lat="46.8151" lon="5.7376">
        <ele>560</ele>
        <time>2012-09-18T13:17:06Z</time>
      </trkpt>
      <trkpt lat="46.81514" lon="5.73774">
        <ele>566</ele>
        <time>2012-09-18T13:17:08Z</time>
      </trkpt>
      <trkpt lat="46.81521" lon="5.73785">
        <ele>566</ele>
        <time>2012-09-18T13:17:10Z</time>
      </trkpt>
      <trkpt lat="46.81528" lon="5.73796">
        <ele>566</ele>
        <time>2012-09-18T13:17:12Z</time>
      </trkpt>
      <trkpt lat="46.81537" lon="5.73807">
        <ele>566</ele>
        <time>2012-09-18T13:17:14Z</time>
      </trkpt>
      <trkpt lat="46.81545" lon="5.73817">
        <ele>566</ele>
        <time>2012-09-18T13:17:16Z</time>
      </trkpt>
      <trkpt lat="46.81555" lon="5.73826">
        <ele>566</ele>
        <time>2012-09-18T13:17:18Z</time>
      </trkpt>
      <trkpt lat="46.81565" lon="5.73833">
        <ele>566</ele>
        <time>2012-09-18T13:17:20Z</time>
      </trkpt>
      <trkpt lat="46.81574" lon="5.73838">
        <ele>566</ele>
        <time>2012-09-18T13:17:22Z</time>
      </trkpt>
      <trkpt lat="46.81584" lon="5.73843">
        <ele>566</ele>
        <time>2012-09-18T13:17:24Z</time>
      </trkpt>
      <trkpt lat="46.81592" lon="5.73847">
        <ele>566</ele>
        <time>2012-09-18T13:17:26Z</time>
      </trkpt>
      <trkpt lat="46.81601" lon="5.7385">
        <ele>566</ele>
        <time>2012-09-18T13:17:28Z</time>
      </trkpt>
      <trkpt lat="46.81609" lon="5.73855">
        <ele>566</ele>
        <time>2012-09-18T13:17:30Z</time>
      </trkpt>
      <trkpt lat="46.81618" lon="5.73858">
        <ele>566</ele>
        <time>2012-09-18T13:17:32Z</time>
      </trkpt>
      <trkpt lat="46.8163" lon="5.73864">
        <ele>566</ele>
        <time>2012-09-18T13:17:35Z</time>
      </trkpt>
      <trkpt lat="46.81643" lon="5.73873">
        <ele>571</ele>
        <time>2012-09-18T13:17:38Z</time>
      </trkpt>
      <trkpt lat="46.8165" lon="5.73881">
        <ele>571</ele>
        <time>2012-09-18T13:17:40Z</time>
      </trkpt>
      <trkpt lat="46.81656" lon="5.73891">
        <ele>571</ele>
        <time>2012-09-18T13:17:42Z</time>
      </trkpt>
      <trkpt lat="46.81663" lon="5.73906">
        <ele>571</ele>
        <time>2012-09-18T13:17:45Z</time>
      </trkpt>
      <trkpt lat="46.8167" lon="5.73921">
        <ele>571</ele>
        <time>2012-09-18T13:17:48Z</time>
      </trkpt>
      <trkpt lat="46.81678" lon="5.73937">
        <ele>571</ele>
        <time>2012-09-18T13:17:51Z</time>
      </trkpt>
      <trkpt lat="46.81683" lon="5.73949">
        <ele>571</ele>
        <time>2012-09-18T13:17:53Z</time>
      </trkpt>
      <trkpt lat="46.8169" lon="5.7396">
        <ele>571</ele>
        <time>2012-09-18T13:17:55Z</time>
      </trkpt>
      <trkpt lat="46.81699" lon="5.7397">
        <ele>571</ele>
        <time>2012-09-18T13:17:57Z</time>
      </trkpt>
      <trkpt lat="46.81709" lon="5.73974">
        <ele>571</ele>
        <time>2012-09-18T13:17:59Z</time>
      </trkpt>
      <trkpt lat="46.81719" lon="5.73977">
        <ele>571</ele>
        <time>2012-09-18T13:18:01Z</time>
      </trkpt>
      <trkpt lat="46.81731" lon="5.73977">
        <ele>571</ele>
        <time>2012-09-18T13:18:04Z</time>
      </trkpt>
      <trkpt lat="46.81741" lon="5.7398">
        <ele>571</ele>
        <time>2012-09-18T13:18:07Z</time>
      </trkpt>
      <trkpt lat="46.81751" lon="5.73987">
        <ele>571</ele>
        <time>2012-09-18T13:18:21Z</time>
      </trkpt>
      <trkpt lat="46.81761" lon="5.73987">
        <ele>571</ele>
        <time>2012-09-18T13:18:25Z</time>
      </trkpt>
      <trkpt lat="46.81773" lon="5.73983">
        <ele>571</ele>
        <time>2012-09-18T13:18:28Z</time>
      </trkpt>
      <trkpt lat="46.81782" lon="5.73981">
        <ele>571</ele>
        <time>2012-09-18T13:18:30Z</time>
      </trkpt>
      <trkpt lat="46.81792" lon="5.73979">
        <ele>571</ele>
        <time>2012-09-18T13:18:32Z</time>
      </trkpt>
      <trkpt lat="46.81802" lon="5.73976">
        <ele>571</ele>
        <time>2012-09-18T13:18:34Z</time>
      </trkpt>
      <trkpt lat="46.81811" lon="5.73971">
        <ele>571</ele>
        <time>2012-09-18T13:18:36Z</time>
      </trkpt>
      <trkpt lat="46.81821" lon="5.73965">
        <ele>571</ele>
        <time>2012-09-18T13:18:38Z</time>
      </trkpt>
      <trkpt lat="46.8183" lon="5.73961">
        <ele>571</ele>
        <time>2012-09-18T13:18:40Z</time>
      </trkpt>
      <trkpt lat="46.81843" lon="5.73955">
        <ele>571</ele>
        <time>2012-09-18T13:18:43Z</time>
      </trkpt>
      <trkpt lat="46.81853" lon="5.73951">
        <ele>571</ele>
        <time>2012-09-18T13:18:46Z</time>
      </trkpt>
      <trkpt lat="46.81864" lon="5.73945">
        <ele>571</ele>
        <time>2012-09-18T13:18:49Z</time>
      </trkpt>
      <trkpt lat="46.81893" lon="5.73937">
        <ele>571</ele>
        <time>2012-09-18T13:18:56Z</time>
      </trkpt>
      <trkpt lat="46.81904" lon="5.73932">
        <ele>571</ele>
        <time>2012-09-18T13:18:59Z</time>
      </trkpt>
      <trkpt lat="46.81916" lon="5.73926">
        <ele>571</ele>
        <time>2012-09-18T13:19:02Z</time>
      </trkpt>
      <trkpt lat="46.81928" lon="5.7392">
        <ele>571</ele>
        <time>2012-09-18T13:19:05Z</time>
      </trkpt>
      <trkpt lat="46.81941" lon="5.73912">
        <ele>571</ele>
        <time>2012-09-18T13:19:08Z</time>
      </trkpt>
      <trkpt lat="46.81949" lon="5.73907">
        <ele>571</ele>
        <time>2012-09-18T13:19:10Z</time>
      </trkpt>
      <trkpt lat="46.81958" lon="5.73899">
        <ele>571</ele>
        <time>2012-09-18T13:19:12Z</time>
      </trkpt>
      <trkpt lat="46.81966" lon="5.73888">
        <ele>565</ele>
        <time>2012-09-18T13:19:14Z</time>
      </trkpt>
      <trkpt lat="46.81973" lon="5.73871">
        <ele>565</ele>
        <time>2012-09-18T13:19:16Z</time>
      </trkpt>
      <trkpt lat="46.81983" lon="5.73856">
        <ele>565</ele>
        <time>2012-09-18T13:19:18Z</time>
      </trkpt>
      <trkpt lat="46.81992" lon="5.73843">
        <ele>565</ele>
        <time>2012-09-18T13:19:20Z</time>
      </trkpt>
      <trkpt lat="46.82002" lon="5.73831">
        <ele>565</ele>
        <time>2012-09-18T13:19:22Z</time>
      </trkpt>
      <trkpt lat="46.82013" lon="5.7382">
        <ele>565</ele>
        <time>2012-09-18T13:19:24Z</time>
      </trkpt>
      <trkpt lat="46.82022" lon="5.73807">
        <ele>565</ele>
        <time>2012-09-18T13:19:26Z</time>
      </trkpt>
      <trkpt lat="46.82031" lon="5.73793">
        <ele>565</ele>
        <time>2012-09-18T13:19:28Z</time>
      </trkpt>
      <trkpt lat="46.8204" lon="5.73778">
        <ele>565</ele>
        <time>2012-09-18T13:19:30Z</time>
      </trkpt>
      <trkpt lat="46.82049" lon="5.73763">
        <ele>565</ele>
        <time>2012-09-18T13:19:32Z</time>
      </trkpt>
      <trkpt lat="46.82057" lon="5.73749">
        <ele>565</ele>
        <time>2012-09-18T13:19:34Z</time>
      </trkpt>
      <trkpt lat="46.82066" lon="5.73736">
        <ele>565</ele>
        <time>2012-09-18T13:19:36Z</time>
      </trkpt>
      <trkpt lat="46.82074" lon="5.73723">
        <ele>565</ele>
        <time>2012-09-18T13:19:38Z</time>
      </trkpt>
      <trkpt lat="46.82084" lon="5.73712">
        <ele>571</ele>
        <time>2012-09-18T13:19:40Z</time>
      </trkpt>
      <trkpt lat="46.82092" lon="5.737">
        <ele>571</ele>
        <time>2012-09-18T13:19:42Z</time>
      </trkpt>
      <trkpt lat="46.82102" lon="5.7369">
        <ele>571</ele>
        <time>2012-09-18T13:19:44Z</time>
      </trkpt>
      <trkpt lat="46.82111" lon="5.73681">
        <ele>571</ele>
        <time>2012-09-18T13:19:46Z</time>
      </trkpt>
      <trkpt lat="46.8212" lon="5.73671">
        <ele>571</ele>
        <time>2012-09-18T13:19:48Z</time>
      </trkpt>
      <trkpt lat="46.8213" lon="5.73662">
        <ele>571</ele>
        <time>2012-09-18T13:19:50Z</time>
      </trkpt>
      <trkpt lat="46.8214" lon="5.73651">
        <ele>571</ele>
        <time>2012-09-18T13:19:52Z</time>
      </trkpt>
      <trkpt lat="46.82149" lon="5.7364">
        <ele>571</ele>
        <time>2012-09-18T13:19:54Z</time>
      </trkpt>
      <trkpt lat="46.82158" lon="5.73626">
        <ele>571</ele>
        <time>2012-09-18T13:19:56Z</time>
      </trkpt>
      <trkpt lat="46.82168" lon="5.73615">
        <ele>571</ele>
        <time>2012-09-18T13:19:58Z</time>
      </trkpt>
      <trkpt lat="46.82179" lon="5.73605">
        <ele>571</ele>
        <time>2012-09-18T13:20:00Z</time>
      </trkpt>
      <trkpt lat="46.82193" lon="5.73593">
        <ele>571</ele>
        <time>2012-09-18T13:20:02Z</time>
      </trkpt>
      <trkpt lat="46.82206" lon="5.73582">
        <ele>571</ele>
        <time>2012-09-18T13:20:04Z</time>
      </trkpt>
      <trkpt lat="46.82222" lon="5.73572">
        <ele>571</ele>
        <time>2012-09-18T13:20:06Z</time>
      </trkpt>
      <trkpt lat="46.8223" lon="5.73564">
        <ele>565</ele>
        <time>2012-09-18T13:20:07Z</time>
      </trkpt>
      <trkpt lat="46.82239" lon="5.73558">
        <ele>565</ele>
        <time>2012-09-18T13:20:08Z</time>
      </trkpt>
      <trkpt lat="46.82256" lon="5.73547">
        <ele>565</ele>
        <time>2012-09-18T13:20:10Z</time>
      </trkpt>
      <trkpt lat="46.82272" lon="5.73535">
        <ele>565</ele>
        <time>2012-09-18T13:20:12Z</time>
      </trkpt>
      <trkpt lat="46.82281" lon="5.73529">
        <ele>565</ele>
        <time>2012-09-18T13:20:13Z</time>
      </trkpt>
      <trkpt lat="46.82289" lon="5.73523">
        <ele>565</ele>
        <time>2012-09-18T13:20:14Z</time>
      </trkpt>
      <trkpt lat="46.82298" lon="5.73517">
        <ele>565</ele>
        <time>2012-09-18T13:20:15Z</time>
      </trkpt>
      <trkpt lat="46.82306" lon="5.73511">
        <ele>565</ele>
        <time>2012-09-18T13:20:16Z</time>
      </trkpt>
      <trkpt lat="46.82314" lon="5.73505">
        <ele>565</ele>
        <time>2012-09-18T13:20:17Z</time>
      </trkpt>
      <trkpt lat="46.82323" lon="5.73499">
        <ele>565</ele>
        <time>2012-09-18T13:20:18Z</time>
      </trkpt>
      <trkpt lat="46.82339" lon="5.73488">
        <ele>565</ele>
        <time>2012-09-18T13:20:20Z</time>
      </trkpt>
      <trkpt lat="46.82347" lon="5.73482">
        <ele>565</ele>
        <time>2012-09-18T13:20:21Z</time>
      </trkpt>
      <trkpt lat="46.82361" lon="5.73471">
        <ele>565</ele>
        <time>2012-09-18T13:20:23Z</time>
      </trkpt>
      <trkpt lat="46.82375" lon="5.73461">
        <ele>565</ele>
        <time>2012-09-18T13:20:25Z</time>
      </trkpt>
      <trkpt lat="46.82388" lon="5.73451">
        <ele>565</ele>
        <time>2012-09-18T13:20:27Z</time>
      </trkpt>
      <trkpt lat="46.824" lon="5.73441">
        <ele>565</ele>
        <time>2012-09-18T13:20:29Z</time>
      </trkpt>
      <trkpt lat="46.82412" lon="5.7343">
        <ele>565</ele>
        <time>2012-09-18T13:20:31Z</time>
      </trkpt>
      <trkpt lat="46.82423" lon="5.7342">
        <ele>565</ele>
        <time>2012-09-18T13:20:33Z</time>
      </trkpt>
      <trkpt lat="46.82435" lon="5.73412">
        <ele>565</ele>
        <time>2012-09-18T13:20:35Z</time>
      </trkpt>
      <trkpt lat="46.82448" lon="5.73406">
        <ele>565</ele>
        <time>2012-09-18T13:20:37Z</time>
      </trkpt>
      <trkpt lat="46.82462" lon="5.73405">
        <ele>565</ele>
        <time>2012-09-18T13:20:39Z</time>
      </trkpt>
      <trkpt lat="46.82475" lon="5.73406">
        <ele>565</ele>
        <time>2012-09-18T13:20:41Z</time>
      </trkpt>
      <trkpt lat="46.82489" lon="5.73409">
        <ele>565</ele>
        <time>2012-09-18T13:20:43Z</time>
      </trkpt>
      <trkpt lat="46.82502" lon="5.73413">
        <ele>565</ele>
        <time>2012-09-18T13:20:45Z</time>
      </trkpt>
      <trkpt lat="46.82515" lon="5.73416">
        <ele>565</ele>
        <time>2012-09-18T13:20:47Z</time>
      </trkpt>
      <trkpt lat="46.82527" lon="5.73422">
        <ele>565</ele>
        <time>2012-09-18T13:20:49Z</time>
      </trkpt>
      <trkpt lat="46.8254" lon="5.73428">
        <ele>565</ele>
        <time>2012-09-18T13:20:51Z</time>
      </trkpt>
      <trkpt lat="46.82552" lon="5.73433">
        <ele>565</ele>
        <time>2012-09-18T13:20:53Z</time>
      </trkpt>
      <trkpt lat="46.82565" lon="5.73438">
        <ele>565</ele>
        <time>2012-09-18T13:20:55Z</time>
      </trkpt>
      <trkpt lat="46.82578" lon="5.73442">
        <ele>565</ele>
        <time>2012-09-18T13:20:57Z</time>
      </trkpt>
      <trkpt lat="46.82592" lon="5.73443">
        <ele>565</ele>
        <time>2012-09-18T13:20:59Z</time>
      </trkpt>
      <trkpt lat="46.82605" lon="5.73442">
        <ele>565</ele>
        <time>2012-09-18T13:21:01Z</time>
      </trkpt>
      <trkpt lat="46.82618" lon="5.73441">
        <ele>565</ele>
        <time>2012-09-18T13:21:03Z</time>
      </trkpt>
      <trkpt lat="46.82631" lon="5.73436">
        <ele>565</ele>
        <time>2012-09-18T13:21:05Z</time>
      </trkpt>
      <trkpt lat="46.82645" lon="5.73429">
        <ele>565</ele>
        <time>2012-09-18T13:21:07Z</time>
      </trkpt>
      <trkpt lat="46.82659" lon="5.73423">
        <ele>565</ele>
        <time>2012-09-18T13:21:09Z</time>
      </trkpt>
      <trkpt lat="46.82673" lon="5.73415">
        <ele>565</ele>
        <time>2012-09-18T13:21:11Z</time>
      </trkpt>
      <trkpt lat="46.82688" lon="5.73406">
        <ele>565</ele>
        <time>2012-09-18T13:21:13Z</time>
      </trkpt>
      <trkpt lat="46.82704" lon="5.73399">
        <ele>565</ele>
        <time>2012-09-18T13:21:15Z</time>
      </trkpt>
      <trkpt lat="46.82719" lon="5.73393">
        <ele>565</ele>
        <time>2012-09-18T13:21:17Z</time>
      </trkpt>
      <trkpt lat="46.82733" lon="5.73386">
        <ele>565</ele>
        <time>2012-09-18T13:21:19Z</time>
      </trkpt>
      <trkpt lat="46.82744" lon="5.73379">
        <ele>565</ele>
        <time>2012-09-18T13:21:21Z</time>
      </trkpt>
      <trkpt lat="46.82756" lon="5.73374">
        <ele>565</ele>
        <time>2012-09-18T13:21:24Z</time>
      </trkpt>
      <trkpt lat="46.82764" lon="5.7337">
        <ele>565</ele>
        <time>2012-09-18T13:23:06Z</time>
      </trkpt>
      <trkpt lat="46.82771" lon="5.7336">
        <ele>565</ele>
        <time>2012-09-18T13:23:10Z</time>
      </trkpt>
      <trkpt lat="46.82778" lon="5.7335">
        <ele>565</ele>
        <time>2012-09-18T13:23:13Z</time>
      </trkpt>
      <trkpt lat="46.82789" lon="5.73337">
        <ele>565</ele>
        <time>2012-09-18T13:23:16Z</time>
      </trkpt>
      <trkpt lat="46.82798" lon="5.7333">
        <ele>565</ele>
        <time>2012-09-18T13:23:18Z</time>
      </trkpt>
      <trkpt lat="46.8281" lon="5.73323">
        <ele>565</ele>
        <time>2012-09-18T13:23:20Z</time>
      </trkpt>
      <trkpt lat="46.82823" lon="5.73316">
        <ele>565</ele>
        <time>2012-09-18T13:23:22Z</time>
      </trkpt>
      <trkpt lat="46.82836" lon="5.73307">
        <ele>565</ele>
        <time>2012-09-18T13:23:24Z</time>
      </trkpt>
      <trkpt lat="46.8285" lon="5.73297">
        <ele>565</ele>
        <time>2012-09-18T13:23:26Z</time>
      </trkpt>
      <trkpt lat="46.82863" lon="5.73288">
        <ele>565</ele>
        <time>2012-09-18T13:23:28Z</time>
      </trkpt>
      <trkpt lat="46.82876" lon="5.7328">
        <ele>565</ele>
        <time>2012-09-18T13:23:30Z</time>
      </trkpt>
      <trkpt lat="46.82888" lon="5.73271">
        <ele>560</ele>
        <time>2012-09-18T13:23:32Z</time>
      </trkpt>
      <trkpt lat="46.82901" lon="5.73263">
        <ele>560</ele>
        <time>2012-09-18T13:23:34Z</time>
      </trkpt>
      <trkpt lat="46.82913" lon="5.73254">
        <ele>560</ele>
        <time>2012-09-18T13:23:36Z</time>
      </trkpt>
      <trkpt lat="46.82926" lon="5.73246">
        <ele>560</ele>
        <time>2012-09-18T13:23:38Z</time>
      </trkpt>
      <trkpt lat="46.82938" lon="5.73237">
        <ele>560</ele>
        <time>2012-09-18T13:23:40Z</time>
      </trkpt>
      <trkpt lat="46.82949" lon="5.73229">
        <ele>560</ele>
        <time>2012-09-18T13:23:42Z</time>
      </trkpt>
      <trkpt lat="46.8296" lon="5.73222">
        <ele>560</ele>
        <time>2012-09-18T13:23:44Z</time>
      </trkpt>
      <trkpt lat="46.8297" lon="5.73217">
        <ele>560</ele>
        <time>2012-09-18T13:23:47Z</time>
      </trkpt>
      <trkpt lat="46.82978" lon="5.73209">
        <ele>560</ele>
        <time>2012-09-18T13:24:07Z</time>
      </trkpt>
      <trkpt lat="46.82987" lon="5.73199">
        <ele>560</ele>
        <time>2012-09-18T13:24:10Z</time>
      </trkpt>
      <trkpt lat="46.82996" lon="5.73192">
        <ele>560</ele>
        <time>2012-09-18T13:24:12Z</time>
      </trkpt>
      <trkpt lat="46.83008" lon="5.73188">
        <ele>560</ele>
        <time>2012-09-18T13:24:15Z</time>
      </trkpt>
      <trkpt lat="46.83018" lon="5.7319">
        <ele>560</ele>
        <time>2012-09-18T13:24:17Z</time>
      </trkpt>
      <trkpt lat="46.83028" lon="5.73193">
        <ele>560</ele>
        <time>2012-09-18T13:24:19Z</time>
      </trkpt>
      <trkpt lat="46.83039" lon="5.73196">
        <ele>560</ele>
        <time>2012-09-18T13:24:21Z</time>
      </trkpt>
      <trkpt lat="46.83049" lon="5.73201">
        <ele>560</ele>
        <time>2012-09-18T13:24:23Z</time>
      </trkpt>
      <trkpt lat="46.83059" lon="5.73207">
        <ele>560</ele>
        <time>2012-09-18T13:24:25Z</time>
      </trkpt>
      <trkpt lat="46.83069" lon="5.73214">
        <ele>560</ele>
        <time>2012-09-18T13:24:27Z</time>
      </trkpt>
      <trkpt lat="46.83079" lon="5.7322">
        <ele>560</ele>
        <time>2012-09-18T13:24:29Z</time>
      </trkpt>
      <trkpt lat="46.8309" lon="5.73225">
        <ele>560</ele>
        <time>2012-09-18T13:24:31Z</time>
      </trkpt>
      <trkpt lat="46.83101" lon="5.73229">
        <ele>560</ele>
        <time>2012-09-18T13:24:33Z</time>
      </trkpt>
      <trkpt lat="46.83113" lon="5.73229">
        <ele>560</ele>
        <time>2012-09-18T13:24:35Z</time>
      </trkpt>
      <trkpt lat="46.83125" lon="5.73228">
        <ele>560</ele>
        <time>2012-09-18T13:24:37Z</time>
      </trkpt>
      <trkpt lat="46.83137" lon="5.73226">
        <ele>560</ele>
        <time>2012-09-18T13:24:39Z</time>
      </trkpt>
      <trkpt lat="46.83149" lon="5.73223">
        <ele>560</ele>
        <time>2012-09-18T13:24:41Z</time>
      </trkpt>
      <trkpt lat="46.83161" lon="5.7322">
        <ele>560</ele>
        <time>2012-09-18T13:24:43Z</time>
      </trkpt>
      <trkpt lat="46.83171" lon="5.73218">
        <ele>560</ele>
        <time>2012-09-18T13:24:45Z</time>
      </trkpt>
      <trkpt lat="46.83181" lon="5.73215">
        <ele>560</ele>
        <time>2012-09-18T13:24:47Z</time>
      </trkpt>
      <trkpt lat="46.83189" lon="5.73211">
        <ele>560</ele>
        <time>2012-09-18T13:24:49Z</time>
      </trkpt>
      <trkpt lat="46.83198" lon="5.7321">
        <ele>560</ele>
        <time>2012-09-18T13:24:51Z</time>
      </trkpt>
      <trkpt lat="46.83208" lon="5.73207">
        <ele>560</ele>
        <time>2012-09-18T13:24:53Z</time>
      </trkpt>
      <trkpt lat="46.83218" lon="5.73206">
        <ele>560</ele>
        <time>2012-09-18T13:24:55Z</time>
      </trkpt>
      <trkpt lat="46.83229" lon="5.73206">
        <ele>560</ele>
        <time>2012-09-18T13:24:57Z</time>
      </trkpt>
      <trkpt lat="46.8324" lon="5.73209">
        <ele>560</ele>
        <time>2012-09-18T13:24:59Z</time>
      </trkpt>
      <trkpt lat="46.83252" lon="5.73211">
        <ele>560</ele>
        <time>2012-09-18T13:25:01Z</time>
      </trkpt>
      <trkpt lat="46.83264" lon="5.73216">
        <ele>560</ele>
        <time>2012-09-18T13:25:03Z</time>
      </trkpt>
      <trkpt lat="46.83277" lon="5.73221">
        <ele>560</ele>
        <time>2012-09-18T13:25:05Z</time>
      </trkpt>
      <trkpt lat="46.83291" lon="5.7323">
        <ele>560</ele>
        <time>2012-09-18T13:25:07Z</time>
      </trkpt>
      <trkpt lat="46.83303" lon="5.73239">
        <ele>560</ele>
        <time>2012-09-18T13:25:09Z</time>
      </trkpt>
      <trkpt lat="46.83314" lon="5.7325">
        <ele>560</ele>
        <time>2012-09-18T13:25:11Z</time>
      </trkpt>
      <trkpt lat="46.83324" lon="5.7326">
        <ele>560</ele>
        <time>2012-09-18T13:25:13Z</time>
      </trkpt>
      <trkpt lat="46.83334" lon="5.73269">
        <ele>560</ele>
        <time>2012-09-18T13:25:15Z</time>
      </trkpt>
      <trkpt lat="46.83345" lon="5.73276">
        <ele>560</ele>
        <time>2012-09-18T13:25:17Z</time>
      </trkpt>
      <trkpt lat="46.83354" lon="5.73282">
        <ele>560</ele>
        <time>2012-09-18T13:25:19Z</time>
      </trkpt>
      <trkpt lat="46.83364" lon="5.73288">
        <ele>560</ele>
        <time>2012-09-18T13:25:21Z</time>
      </trkpt>
      <trkpt lat="46.83373" lon="5.73292">
        <ele>560</ele>
        <time>2012-09-18T13:25:23Z</time>
      </trkpt>
      <trkpt lat="46.83382" lon="5.73298">
        <ele>560</ele>
        <time>2012-09-18T13:25:25Z</time>
      </trkpt>
      <trkpt lat="46.8339" lon="5.73301">
        <ele>560</ele>
        <time>2012-09-18T13:25:27Z</time>
      </trkpt>
      <trkpt lat="46.83399" lon="5.73307">
        <ele>565</ele>
        <time>2012-09-18T13:25:29Z</time>
      </trkpt>
      <trkpt lat="46.83408" lon="5.73311">
        <ele>565</ele>
        <time>2012-09-18T13:25:31Z</time>
      </trkpt>
      <trkpt lat="46.83418" lon="5.73315">
        <ele>565</ele>
        <time>2012-09-18T13:25:33Z</time>
      </trkpt>
      <trkpt lat="46.83428" lon="5.73316">
        <ele>565</ele>
        <time>2012-09-18T13:25:35Z</time>
      </trkpt>
      <trkpt lat="46.83438" lon="5.73316">
        <ele>565</ele>
        <time>2012-09-18T13:25:37Z</time>
      </trkpt>
      <trkpt lat="46.83448" lon="5.73315">
        <ele>565</ele>
        <time>2012-09-18T13:25:39Z</time>
      </trkpt>
      <trkpt lat="46.83459" lon="5.73313">
        <ele>565</ele>
        <time>2012-09-18T13:25:41Z</time>
      </trkpt>
      <trkpt lat="46.83468" lon="5.73311">
        <ele>565</ele>
        <time>2012-09-18T13:25:43Z</time>
      </trkpt>
      <trkpt lat="46.83478" lon="5.73308">
        <ele>565</ele>
        <time>2012-09-18T13:25:45Z</time>
      </trkpt>
      <trkpt lat="46.83487" lon="5.73307">
        <ele>565</ele>
        <time>2012-09-18T13:25:47Z</time>
      </trkpt>
      <trkpt lat="46.83496" lon="5.73305">
        <ele>565</ele>
        <time>2012-09-18T13:25:49Z</time>
      </trkpt>
      <trkpt lat="46.83507" lon="5.73304">
        <ele>565</ele>
        <time>2012-09-18T13:25:51Z</time>
      </trkpt>
      <trkpt lat="46.83517" lon="5.73305">
        <ele>565</ele>
        <time>2012-09-18T13:25:53Z</time>
      </trkpt>
      <trkpt lat="46.83528" lon="5.73308">
        <ele>565</ele>
        <time>2012-09-18T13:25:55Z</time>
      </trkpt>
      <trkpt lat="46.83539" lon="5.7331">
        <ele>565</ele>
        <time>2012-09-18T13:25:57Z</time>
      </trkpt>
      <trkpt lat="46.8355" lon="5.73312">
        <ele>565</ele>
        <time>2012-09-18T13:25:59Z</time>
      </trkpt>
      <trkpt lat="46.83561" lon="5.73314">
        <ele>565</ele>
        <time>2012-09-18T13:26:01Z</time>
      </trkpt>
      <trkpt lat="46.83573" lon="5.73316">
        <ele>565</ele>
        <time>2012-09-18T13:26:03Z</time>
      </trkpt>
      <trkpt lat="46.83584" lon="5.73317">
        <ele>565</ele>
        <time>2012-09-18T13:26:05Z</time>
      </trkpt>
      <trkpt lat="46.83595" lon="5.73317">
        <ele>565</ele>
        <time>2012-09-18T13:26:07Z</time>
      </trkpt>
      <trkpt lat="46.83607" lon="5.73315">
        <ele>565</ele>
        <time>2012-09-18T13:26:09Z</time>
      </trkpt>
      <trkpt lat="46.83618" lon="5.73313">
        <ele>565</ele>
        <time>2012-09-18T13:26:11Z</time>
      </trkpt>
      <trkpt lat="46.83629" lon="5.73309">
        <ele>565</ele>
        <time>2012-09-18T13:26:13Z</time>
      </trkpt>
      <trkpt lat="46.8364" lon="5.73305">
        <ele>565</ele>
        <time>2012-09-18T13:26:15Z</time>
      </trkpt>
      <trkpt lat="46.83651" lon="5.733">
        <ele>565</ele>
        <time>2012-09-18T13:26:17Z</time>
      </trkpt>
      <trkpt lat="46.83661" lon="5.73295">
        <ele>565</ele>
        <time>2012-09-18T13:26:19Z</time>
      </trkpt>
      <trkpt lat="46.83669" lon="5.7329">
        <ele>565</ele>
        <time>2012-09-18T13:26:21Z</time>
      </trkpt>
      <trkpt lat="46.83681" lon="5.73283">
        <ele>565</ele>
        <time>2012-09-18T13:26:24Z</time>
      </trkpt>
      <trkpt lat="46.83692" lon="5.73274">
        <ele>565</ele>
        <time>2012-09-18T13:26:28Z</time>
      </trkpt>
      <trkpt lat="46.837" lon="5.73263">
        <ele>565</ele>
        <time>2012-09-18T13:26:32Z</time>
      </trkpt>
      <trkpt lat="46.83711" lon="5.7326">
        <ele>565</ele>
        <time>2012-09-18T13:28:19Z</time>
      </trkpt>
      <trkpt lat="46.8372" lon="5.73257">
        <ele>565</ele>
        <time>2012-09-18T13:28:22Z</time>
      </trkpt>
      <trkpt lat="46.83731" lon="5.73254">
        <ele>565</ele>
        <time>2012-09-18T13:28:25Z</time>
      </trkpt>
      <trkpt lat="46.83742" lon="5.73251">
        <ele>565</ele>
        <time>2012-09-18T13:28:28Z</time>
      </trkpt>
      <trkpt lat="46.83754" lon="5.73247">
        <ele>565</ele>
        <time>2012-09-18T13:28:31Z</time>
      </trkpt>
      <trkpt lat="46.83766" lon="5.73244">
        <ele>565</ele>
        <time>2012-09-18T13:28:34Z</time>
      </trkpt>
      <trkpt lat="46.83777" lon="5.73239">
        <ele>565</ele>
        <time>2012-09-18T13:28:37Z</time>
      </trkpt>
      <trkpt lat="46.83789" lon="5.73235">
        <ele>565</ele>
        <time>2012-09-18T13:28:40Z</time>
      </trkpt>
      <trkpt lat="46.83802" lon="5.7323">
        <ele>565</ele>
        <time>2012-09-18T13:28:43Z</time>
      </trkpt>
      <trkpt lat="46.83816" lon="5.73228">
        <ele>565</ele>
        <time>2012-09-18T13:28:46Z</time>
      </trkpt>
      <trkpt lat="46.83829" lon="5.73223">
        <ele>565</ele>
        <time>2012-09-18T13:28:49Z</time>
      </trkpt>
      <trkpt lat="46.83838" lon="5.73219">
        <ele>565</ele>
        <time>2012-09-18T13:28:51Z</time>
      </trkpt>
      <trkpt lat="46.83848" lon="5.73215">
        <ele>565</ele>
        <time>2012-09-18T13:28:53Z</time>
      </trkpt>
      <trkpt lat="46.83857" lon="5.73209">
        <ele>565</ele>
        <time>2012-09-18T13:28:55Z</time>
      </trkpt>
      <trkpt lat="46.83866" lon="5.73202">
        <ele>565</ele>
        <time>2012-09-18T13:28:57Z</time>
      </trkpt>
      <trkpt lat="46.83875" lon="5.73197">
        <ele>565</ele>
        <time>2012-09-18T13:28:59Z</time>
      </trkpt>
      <trkpt lat="46.83885" lon="5.73193">
        <ele>565</ele>
        <time>2012-09-18T13:29:01Z</time>
      </trkpt>
      <trkpt lat="46.83895" lon="5.73187">
        <ele>565</ele>
        <time>2012-09-18T13:29:03Z</time>
      </trkpt>
      <trkpt lat="46.83905" lon="5.73183">
        <ele>565</ele>
        <time>2012-09-18T13:29:05Z</time>
      </trkpt>
      <trkpt lat="46.83916" lon="5.73177">
        <ele>565</ele>
        <time>2012-09-18T13:29:07Z</time>
      </trkpt>
      <trkpt lat="46.83926" lon="5.73172">
        <ele>565</ele>
        <time>2012-09-18T13:29:09Z</time>
      </trkpt>
      <trkpt lat="46.83936" lon="5.73164">
        <ele>565</ele>
        <time>2012-09-18T13:29:11Z</time>
      </trkpt>
      <trkpt lat="46.83944" lon="5.73156">
        <ele>565</ele>
        <time>2012-09-18T13:29:13Z</time>
      </trkpt>
      <trkpt lat="46.83952" lon="5.73147">
        <ele>565</ele>
        <time>2012-09-18T13:29:15Z</time>
      </trkpt>
      <trkpt lat="46.83959" lon="5.73138">
        <ele>565</ele>
        <time>2012-09-18T13:29:17Z</time>
      </trkpt>
      <trkpt lat="46.83967" lon="5.73129">
        <ele>565</ele>
        <time>2012-09-18T13:29:19Z</time>
      </trkpt>
      <trkpt lat="46.83973" lon="5.73118">
        <ele>565</ele>
        <time>2012-09-18T13:29:21Z</time>
      </trkpt>
      <trkpt lat="46.8398" lon="5.73105">
        <ele>565</ele>
        <time>2012-09-18T13:29:23Z</time>
      </trkpt>
      <trkpt lat="46.83987" lon="5.7309">
        <ele>565</ele>
        <time>2012-09-18T13:29:25Z</time>
      </trkpt>
      <trkpt lat="46.83994" lon="5.73076">
        <ele>565</ele>
        <time>2012-09-18T13:29:27Z</time>
      </trkpt>
      <trkpt lat="46.84002" lon="5.73061">
        <ele>565</ele>
        <time>2012-09-18T13:29:29Z</time>
      </trkpt>
      <trkpt lat="46.84009" lon="5.73048">
        <ele>565</ele>
        <time>2012-09-18T13:29:31Z</time>
      </trkpt>
      <trkpt lat="46.84018" lon="5.73033">
        <ele>565</ele>
        <time>2012-09-18T13:29:33Z</time>
      </trkpt>
      <trkpt lat="46.84026" lon="5.73017">
        <ele>565</ele>
        <time>2012-09-18T13:29:35Z</time>
      </trkpt>
      <trkpt lat="46.84035" lon="5.72999">
        <ele>565</ele>
        <time>2012-09-18T13:29:37Z</time>
      </trkpt>
      <trkpt lat="46.84044" lon="5.72981">
        <ele>560</ele>
        <time>2012-09-18T13:29:39Z</time>
      </trkpt>
      <trkpt lat="46.84053" lon="5.72961">
        <ele>560</ele>
        <time>2012-09-18T13:29:41Z</time>
      </trkpt>
      <trkpt lat="46.84062" lon="5.7294">
        <ele>560</ele>
        <time>2012-09-18T13:29:43Z</time>
      </trkpt>
      <trkpt lat="46.84071" lon="5.72921">
        <ele>560</ele>
        <time>2012-09-18T13:29:45Z</time>
      </trkpt>
      <trkpt lat="46.84081" lon="5.72903">
        <ele>560</ele>
        <time>2012-09-18T13:29:47Z</time>
      </trkpt>
      <trkpt lat="46.84094" lon="5.72886">
        <ele>560</ele>
        <time>2012-09-18T13:29:49Z</time>
      </trkpt>
      <trkpt lat="46.841" lon="5.72876">
        <ele>560</ele>
        <time>2012-09-18T13:29:50Z</time>
      </trkpt>
      <trkpt lat="46.84113" lon="5.72859">
        <ele>555</ele>
        <time>2012-09-18T13:29:52Z</time>
      </trkpt>
      <trkpt lat="46.84126" lon="5.72842">
        <ele>555</ele>
        <time>2012-09-18T13:29:54Z</time>
      </trkpt>
      <trkpt lat="46.84134" lon="5.72825">
        <ele>555</ele>
        <time>2012-09-18T13:29:56Z</time>
      </trkpt>
      <trkpt lat="46.84139" lon="5.72811">
        <ele>555</ele>
        <time>2012-09-18T13:29:58Z</time>
      </trkpt>
      <trkpt lat="46.84144" lon="5.72797">
        <ele>555</ele>
        <time>2012-09-18T13:30:01Z</time>
      </trkpt>
      <trkpt lat="46.8415" lon="5.72787">
        <ele>555</ele>
        <time>2012-09-18T13:30:05Z</time>
      </trkpt>
      <trkpt lat="46.84156" lon="5.72773">
        <ele>550</ele>
        <time>2012-09-18T13:30:08Z</time>
      </trkpt>
      <trkpt lat="46.84163" lon="5.72759">
        <ele>550</ele>
        <time>2012-09-18T13:30:11Z</time>
      </trkpt>
      <trkpt lat="46.84165" lon="5.72746">
        <ele>550</ele>
        <time>2012-09-18T13:30:13Z</time>
      </trkpt>
      <trkpt lat="46.84165" lon="5.72733">
        <ele>550</ele>
        <time>2012-09-18T13:30:15Z</time>
      </trkpt>
      <trkpt lat="46.84162" lon="5.72714">
        <ele>550</ele>
        <time>2012-09-18T13:30:18Z</time>
      </trkpt>
      <trkpt lat="46.8416" lon="5.72701">
        <ele>550</ele>
        <time>2012-09-18T13:30:20Z</time>
      </trkpt>
      <trkpt lat="46.84157" lon="5.72688">
        <ele>555</ele>
        <time>2012-09-18T13:30:22Z</time>
      </trkpt>
      <trkpt lat="46.84158" lon="5.72673">
        <ele>555</ele>
        <time>2012-09-18T13:30:24Z</time>
      </trkpt>
      <trkpt lat="46.8416" lon="5.72658">
        <ele>555</ele>
        <time>2012-09-18T13:30:26Z</time>
      </trkpt>
      <trkpt lat="46.84163" lon="5.7264">
        <ele>555</ele>
        <time>2012-09-18T13:30:28Z</time>
      </trkpt>
      <trkpt lat="46.84167" lon="5.72623">
        <ele>555</ele>
        <time>2012-09-18T13:30:30Z</time>
      </trkpt>
      <trkpt lat="46.84174" lon="5.72606">
        <ele>555</ele>
        <time>2012-09-18T13:30:32Z</time>
      </trkpt>
      <trkpt lat="46.8418" lon="5.72591">
        <ele>555</ele>
        <time>2012-09-18T13:30:34Z</time>
      </trkpt>
      <trkpt lat="46.84187" lon="5.72575">
        <ele>555</ele>
        <time>2012-09-18T13:30:36Z</time>
      </trkpt>
      <trkpt lat="46.84192" lon="5.72561">
        <ele>555</ele>
        <time>2012-09-18T13:30:38Z</time>
      </trkpt>
      <trkpt lat="46.84197" lon="5.72544">
        <ele>555</ele>
        <time>2012-09-18T13:30:40Z</time>
      </trkpt>
      <trkpt lat="46.84203" lon="5.72527">
        <ele>555</ele>
        <time>2012-09-18T13:30:42Z</time>
      </trkpt>
      <trkpt lat="46.84211" lon="5.72511">
        <ele>555</ele>
        <time>2012-09-18T13:30:44Z</time>
      </trkpt>
      <trkpt lat="46.8422" lon="5.72496">
        <ele>555</ele>
        <time>2012-09-18T13:30:46Z</time>
      </trkpt>
      <trkpt lat="46.84229" lon="5.72482">
        <ele>555</ele>
        <time>2012-09-18T13:30:48Z</time>
      </trkpt>
      <trkpt lat="46.84237" lon="5.72468">
        <ele>555</ele>
        <time>2012-09-18T13:30:50Z</time>
      </trkpt>
      <trkpt lat="46.84248" lon="5.72456">
        <ele>555</ele>
        <time>2012-09-18T13:30:52Z</time>
      </trkpt>
      <trkpt lat="46.84258" lon="5.72447">
        <ele>555</ele>
        <time>2012-09-18T13:30:54Z</time>
      </trkpt>
      <trkpt lat="46.84269" lon="5.7244">
        <ele>555</ele>
        <time>2012-09-18T13:30:56Z</time>
      </trkpt>
      <trkpt lat="46.8428" lon="5.72434">
        <ele>555</ele>
        <time>2012-09-18T13:30:58Z</time>
      </trkpt>
      <trkpt lat="46.84291" lon="5.72429">
        <ele>555</ele>
        <time>2012-09-18T13:31:00Z</time>
      </trkpt>
      <trkpt lat="46.84302" lon="5.72425">
        <ele>555</ele>
        <time>2012-09-18T13:31:02Z</time>
      </trkpt>
      <trkpt lat="46.84312" lon="5.72424">
        <ele>555</ele>
        <time>2012-09-18T13:31:04Z</time>
      </trkpt>
      <trkpt lat="46.84323" lon="5.72425">
        <ele>555</ele>
        <time>2012-09-18T13:31:06Z</time>
      </trkpt>
      <trkpt lat="46.84334" lon="5.72427">
        <ele>555</ele>
        <time>2012-09-18T13:31:08Z</time>
      </trkpt>
      <trkpt lat="46.84344" lon="5.72431">
        <ele>555</ele>
        <time>2012-09-18T13:31:10Z</time>
      </trkpt>
      <trkpt lat="46.84356" lon="5.72436">
        <ele>555</ele>
        <time>2012-09-18T13:31:12Z</time>
      </trkpt>
      <trkpt lat="46.84367" lon="5.7244">
        <ele>555</ele>
        <time>2012-09-18T13:31:14Z</time>
      </trkpt>
      <trkpt lat="46.8438" lon="5.72444">
        <ele>555</ele>
        <time>2012-09-18T13:31:16Z</time>
      </trkpt>
      <trkpt lat="46.84392" lon="5.72449">
        <ele>555</ele>
        <time>2012-09-18T13:31:18Z</time>
      </trkpt>
      <trkpt lat="46.84405" lon="5.72453">
        <ele>555</ele>
        <time>2012-09-18T13:31:20Z</time>
      </trkpt>
      <trkpt lat="46.84418" lon="5.72459">
        <ele>555</ele>
        <time>2012-09-18T13:31:22Z</time>
      </trkpt>
      <trkpt lat="46.84432" lon="5.72463">
        <ele>555</ele>
        <time>2012-09-18T13:31:24Z</time>
      </trkpt>
      <trkpt lat="46.84446" lon="5.72465">
        <ele>555</ele>
        <time>2012-09-18T13:31:26Z</time>
      </trkpt>
      <trkpt lat="46.84461" lon="5.72466">
        <ele>555</ele>
        <time>2012-09-18T13:31:28Z</time>
      </trkpt>
      <trkpt lat="46.84478" lon="5.72465">
        <ele>555</ele>
        <time>2012-09-18T13:31:30Z</time>
      </trkpt>
      <trkpt lat="46.84495" lon="5.72462">
        <ele>555</ele>
        <time>2012-09-18T13:31:32Z</time>
      </trkpt>
      <trkpt lat="46.84504" lon="5.7246">
        <ele>555</ele>
        <time>2012-09-18T13:31:33Z</time>
      </trkpt>
      <trkpt lat="46.84513" lon="5.7246">
        <ele>555</ele>
        <time>2012-09-18T13:31:34Z</time>
      </trkpt>
      <trkpt lat="46.84523" lon="5.7246">
        <ele>555</ele>
        <time>2012-09-18T13:31:35Z</time>
      </trkpt>
      <trkpt lat="46.84532" lon="5.7246">
        <ele>555</ele>
        <time>2012-09-18T13:31:36Z</time>
      </trkpt>
      <trkpt lat="46.84541" lon="5.72463">
        <ele>555</ele>
        <time>2012-09-18T13:31:37Z</time>
      </trkpt>
      <trkpt lat="46.8455" lon="5.72468">
        <ele>555</ele>
        <time>2012-09-18T13:31:38Z</time>
      </trkpt>
      <trkpt lat="46.8456" lon="5.72474">
        <ele>555</ele>
        <time>2012-09-18T13:31:39Z</time>
      </trkpt>
      <trkpt lat="46.84568" lon="5.72481">
        <ele>550</ele>
        <time>2012-09-18T13:31:40Z</time>
      </trkpt>
      <trkpt lat="46.84577" lon="5.72487">
        <ele>550</ele>
        <time>2012-09-18T13:31:41Z</time>
      </trkpt>
      <trkpt lat="46.84585" lon="5.72495">
        <ele>550</ele>
        <time>2012-09-18T13:31:42Z</time>
      </trkpt>
      <trkpt lat="46.84594" lon="5.72503">
        <ele>550</ele>
        <time>2012-09-18T13:31:43Z</time>
      </trkpt>
      <trkpt lat="46.84603" lon="5.72511">
        <ele>550</ele>
        <time>2012-09-18T13:31:44Z</time>
      </trkpt>
      <trkpt lat="46.84612" lon="5.72517">
        <ele>550</ele>
        <time>2012-09-18T13:31:45Z</time>
      </trkpt>
      <trkpt lat="46.84621" lon="5.72523">
        <ele>550</ele>
        <time>2012-09-18T13:31:46Z</time>
      </trkpt>
      <trkpt lat="46.84631" lon="5.72527">
        <ele>550</ele>
        <time>2012-09-18T13:31:47Z</time>
      </trkpt>
      <trkpt lat="46.84642" lon="5.72531">
        <ele>550</ele>
        <time>2012-09-18T13:31:48Z</time>
      </trkpt>
      <trkpt lat="46.84652" lon="5.72533">
        <ele>544</ele>
        <time>2012-09-18T13:31:49Z</time>
      </trkpt>
      <trkpt lat="46.84663" lon="5.72537">
        <ele>544</ele>
        <time>2012-09-18T13:31:50Z</time>
      </trkpt>
      <trkpt lat="46.84674" lon="5.7254">
        <ele>544</ele>
        <time>2012-09-18T13:31:51Z</time>
      </trkpt>
      <trkpt lat="46.84685" lon="5.72544">
        <ele>544</ele>
        <time>2012-09-18T13:31:52Z</time>
      </trkpt>
      <trkpt lat="46.84696" lon="5.72548">
        <ele>544</ele>
        <time>2012-09-18T13:31:53Z</time>
      </trkpt>
      <trkpt lat="46.84708" lon="5.72551">
        <ele>539</ele>
        <time>2012-09-18T13:31:54Z</time>
      </trkpt>
      <trkpt lat="46.8472" lon="5.72556">
        <ele>539</ele>
        <time>2012-09-18T13:31:55Z</time>
      </trkpt>
      <trkpt lat="46.84732" lon="5.7256">
        <ele>539</ele>
        <time>2012-09-18T13:31:56Z</time>
      </trkpt>
      <trkpt lat="46.84744" lon="5.72565">
        <ele>539</ele>
        <time>2012-09-18T13:31:57Z</time>
      </trkpt>
      <trkpt lat="46.84754" lon="5.7257">
        <ele>539</ele>
        <time>2012-09-18T13:31:58Z</time>
      </trkpt>
      <trkpt lat="46.84765" lon="5.72575">
        <ele>533</ele>
        <time>2012-09-18T13:31:59Z</time>
      </trkpt>
      <trkpt lat="46.84777" lon="5.72581">
        <ele>533</ele>
        <time>2012-09-18T13:32:00Z</time>
      </trkpt>
      <trkpt lat="46.84787" lon="5.72586">
        <ele>533</ele>
        <time>2012-09-18T13:32:01Z</time>
      </trkpt>
      <trkpt lat="46.84798" lon="5.72595">
        <ele>533</ele>
        <time>2012-09-18T13:32:02Z</time>
      </trkpt>
      <trkpt lat="46.84809" lon="5.72604">
        <ele>533</ele>
        <time>2012-09-18T13:32:03Z</time>
      </trkpt>
      <trkpt lat="46.84821" lon="5.72614">
        <ele>528</ele>
        <time>2012-09-18T13:32:04Z</time>
      </trkpt>
      <trkpt lat="46.84833" lon="5.72621">
        <ele>528</ele>
        <time>2012-09-18T13:32:05Z</time>
      </trkpt>
      <trkpt lat="46.84844" lon="5.72629">
        <ele>528</ele>
        <time>2012-09-18T13:32:06Z</time>
      </trkpt>
      <trkpt lat="46.84855" lon="5.72637">
        <ele>528</ele>
        <time>2012-09-18T13:32:07Z</time>
      </trkpt>
      <trkpt lat="46.84866" lon="5.72646">
        <ele>523</ele>
        <time>2012-09-18T13:32:08Z</time>
      </trkpt>
      <trkpt lat="46.84878" lon="5.72654">
        <ele>523</ele>
        <time>2012-09-18T13:32:09Z</time>
      </trkpt>
      <trkpt lat="46.84889" lon="5.72662">
        <ele>523</ele>
        <time>2012-09-18T13:32:10Z</time>
      </trkpt>
      <trkpt lat="46.84901" lon="5.72668">
        <ele>523</ele>
        <time>2012-09-18T13:32:11Z</time>
      </trkpt>
      <trkpt lat="46.84912" lon="5.72674">
        <ele>523</ele>
        <time>2012-09-18T13:32:12Z</time>
      </trkpt>
      <trkpt lat="46.84923" lon="5.72681">
        <ele>523</ele>
        <time>2012-09-18T13:32:13Z</time>
      </trkpt>
      <trkpt lat="46.84934" lon="5.72688">
        <ele>523</ele>
        <time>2012-09-18T13:32:14Z</time>
      </trkpt>
      <trkpt lat="46.84945" lon="5.72696">
        <ele>523</ele>
        <time>2012-09-18T13:32:15Z</time>
      </trkpt>
      <trkpt lat="46.84955" lon="5.72703">
        <ele>523</ele>
        <time>2012-09-18T13:32:16Z</time>
      </trkpt>
      <trkpt lat="46.84966" lon="5.72713">
        <ele>517</ele>
        <time>2012-09-18T13:32:17Z</time>
      </trkpt>
      <trkpt lat="46.84978" lon="5.72721">
        <ele>517</ele>
        <time>2012-09-18T13:32:18Z</time>
      </trkpt>
      <trkpt lat="46.84989" lon="5.72728">
        <ele>517</ele>
        <time>2012-09-18T13:32:19Z</time>
      </trkpt>
      <trkpt lat="46.85" lon="5.72737">
        <ele>517</ele>
        <time>2012-09-18T13:32:20Z</time>
      </trkpt>
      <trkpt lat="46.8501" lon="5.72746">
        <ele>517</ele>
        <time>2012-09-18T13:32:21Z</time>
      </trkpt>
      <trkpt lat="46.85021" lon="5.72757">
        <ele>517</ele>
        <time>2012-09-18T13:32:22Z</time>
      </trkpt>
      <trkpt lat="46.85032" lon="5.72767">
        <ele>517</ele>
        <time>2012-09-18T13:32:23Z</time>
      </trkpt>
      <trkpt lat="46.85042" lon="5.72778">
        <ele>517</ele>
        <time>2012-09-18T13:32:24Z</time>
      </trkpt>
      <trkpt lat="46.85051" lon="5.72789">
        <ele>517</ele>
        <time>2012-09-18T13:32:25Z</time>
      </trkpt>
      <trkpt lat="46.8506" lon="5.72801">
        <ele>517</ele>
        <time>2012-09-18T13:32:26Z</time>
      </trkpt>
      <trkpt lat="46.8507" lon="5.72814">
        <ele>517</ele>
        <time>2012-09-18T13:32:27Z</time>
      </trkpt>
      <trkpt lat="46.85079" lon="5.72827">
        <ele>517</ele>
        <time>2012-09-18T13:32:28Z</time>
      </trkpt>
      <trkpt lat="46.85087" lon="5.72839">
        <ele>512</ele>
        <time>2012-09-18T13:32:29Z</time>
      </trkpt>
      <trkpt lat="46.85097" lon="5.7285">
        <ele>512</ele>
        <time>2012-09-18T13:32:30Z</time>
      </trkpt>
      <trkpt lat="46.85107" lon="5.72861">
        <ele>512</ele>
        <time>2012-09-18T13:32:31Z</time>
      </trkpt>
      <trkpt lat="46.85116" lon="5.7287">
        <ele>512</ele>
        <time>2012-09-18T13:32:32Z</time>
      </trkpt>
      <trkpt lat="46.85125" lon="5.7288">
        <ele>512</ele>
        <time>2012-09-18T13:32:33Z</time>
      </trkpt>
      <trkpt lat="46.85135" lon="5.72892">
        <ele>512</ele>
        <time>2012-09-18T13:32:34Z</time>
      </trkpt>
      <trkpt lat="46.85142" lon="5.72905">
        <ele>512</ele>
        <time>2012-09-18T13:32:35Z</time>
      </trkpt>
      <trkpt lat="46.85149" lon="5.72918">
        <ele>512</ele>
        <time>2012-09-18T13:32:36Z</time>
      </trkpt>
      <trkpt lat="46.85152" lon="5.7293">
        <ele>512</ele>
        <time>2012-09-18T13:32:37Z</time>
      </trkpt>
      <trkpt lat="46.85161" lon="5.72951">
        <ele>512</ele>
        <time>2012-09-18T13:32:39Z</time>
      </trkpt>
      <trkpt lat="46.85173" lon="5.72965">
        <ele>512</ele>
        <time>2012-09-18T13:32:41Z</time>
      </trkpt>
      <trkpt lat="46.85185" lon="5.7298">
        <ele>512</ele>
        <time>2012-09-18T13:32:43Z</time>
      </trkpt>
      <trkpt lat="46.85195" lon="5.7299">
        <ele>512</ele>
        <time>2012-09-18T13:32:45Z</time>
      </trkpt>
      <trkpt lat="46.85204" lon="5.72994">
        <ele>517</ele>
        <time>2012-09-18T13:32:47Z</time>
      </trkpt>
      <trkpt lat="46.85215" lon="5.72999">
        <ele>517</ele>
        <time>2012-09-18T13:32:49Z</time>
      </trkpt>
      <trkpt lat="46.85229" lon="5.73008">
        <ele>517</ele>
        <time>2012-09-18T13:32:51Z</time>
      </trkpt>
      <trkpt lat="46.85237" lon="5.73015">
        <ele>517</ele>
        <time>2012-09-18T13:32:52Z</time>
      </trkpt>
      <trkpt lat="46.85245" lon="5.73021">
        <ele>517</ele>
        <time>2012-09-18T13:32:53Z</time>
      </trkpt>
      <trkpt lat="46.85262" lon="5.73033">
        <ele>517</ele>
        <time>2012-09-18T13:32:55Z</time>
      </trkpt>
      <trkpt lat="46.85281" lon="5.73035">
        <ele>517</ele>
        <time>2012-09-18T13:32:57Z</time>
      </trkpt>
      <trkpt lat="46.85291" lon="5.73034">
        <ele>517</ele>
        <time>2012-09-18T13:32:58Z</time>
      </trkpt>
      <trkpt lat="46.85301" lon="5.73028">
        <ele>517</ele>
        <time>2012-09-18T13:32:59Z</time>
      </trkpt>
      <trkpt lat="46.85311" lon="5.73022">
        <ele>517</ele>
        <time>2012-09-18T13:33:00Z</time>
      </trkpt>
      <trkpt lat="46.85318" lon="5.73013">
        <ele>517</ele>
        <time>2012-09-18T13:33:01Z</time>
      </trkpt>
      <trkpt lat="46.85329" lon="5.72995">
        <ele>511</ele>
        <time>2012-09-18T13:33:03Z</time>
      </trkpt>
      <trkpt lat="46.85337" lon="5.7298">
        <ele>511</ele>
        <time>2012-09-18T13:33:05Z</time>
      </trkpt>
      <trkpt lat="46.8534" lon="5.72967">
        <ele>504</ele>
        <time>2012-09-18T13:33:07Z</time>
      </trkpt>
      <trkpt lat="46.85337" lon="5.72953">
        <ele>504</ele>
        <time>2012-09-18T13:33:10Z</time>
      </trkpt>
      <trkpt lat="46.85341" lon="5.7294">
        <ele>504</ele>
        <time>2012-09-18T13:33:13Z</time>
      </trkpt>
      <trkpt lat="46.85352" lon="5.72935">
        <ele>498</ele>
        <time>2012-09-18T13:33:16Z</time>
      </trkpt>
      <trkpt lat="46.85362" lon="5.72928">
        <ele>498</ele>
        <time>2012-09-18T13:33:19Z</time>
      </trkpt>
      <trkpt lat="46.85376" lon="5.72927">
        <ele>492</ele>
        <time>2012-09-18T13:33:22Z</time>
      </trkpt>
      <trkpt lat="46.85385" lon="5.72927">
        <ele>492</ele>
        <time>2012-09-18T13:33:24Z</time>
      </trkpt>
      <trkpt lat="46.85395" lon="5.72928">
        <ele>492</ele>
        <time>2012-09-18T13:33:26Z</time>
      </trkpt>
      <trkpt lat="46.85405" lon="5.72928">
        <ele>492</ele>
        <time>2012-09-18T13:33:28Z</time>
      </trkpt>
      <trkpt lat="46.85415" lon="5.72933">
        <ele>492</ele>
        <time>2012-09-18T13:33:30Z</time>
      </trkpt>
      <trkpt lat="46.85424" lon="5.72938">
        <ele>492</ele>
        <time>2012-09-18T13:33:32Z</time>
      </trkpt>
      <trkpt lat="46.85432" lon="5.72945">
        <ele>492</ele>
        <time>2012-09-18T13:33:34Z</time>
      </trkpt>
      <trkpt lat="46.85442" lon="5.72955">
        <ele>486</ele>
        <time>2012-09-18T13:33:36Z</time>
      </trkpt>
      <trkpt lat="46.85452" lon="5.72966">
        <ele>486</ele>
        <time>2012-09-18T13:33:38Z</time>
      </trkpt>
      <trkpt lat="46.8546" lon="5.72975">
        <ele>486</ele>
        <time>2012-09-18T13:33:40Z</time>
      </trkpt>
      <trkpt lat="46.85469" lon="5.72981">
        <ele>486</ele>
        <time>2012-09-18T13:33:42Z</time>
      </trkpt>
      <trkpt lat="46.8548" lon="5.72984">
        <ele>486</ele>
        <time>2012-09-18T13:33:44Z</time>
      </trkpt>
      <trkpt lat="46.85488" lon="5.7298">
        <ele>478</ele>
        <time>2012-09-18T13:33:46Z</time>
      </trkpt>
      <trkpt lat="46.85491" lon="5.72963">
        <ele>478</ele>
        <time>2012-09-18T13:33:48Z</time>
      </trkpt>
      <trkpt lat="46.85495" lon="5.72941">
        <ele>478</ele>
        <time>2012-09-18T13:33:50Z</time>
      </trkpt>
      <trkpt lat="46.85501" lon="5.72928">
        <ele>478</ele>
        <time>2012-09-18T13:33:52Z</time>
      </trkpt>
      <trkpt lat="46.85512" lon="5.72922">
        <ele>469</ele>
        <time>2012-09-18T13:33:54Z</time>
      </trkpt>
      <trkpt lat="46.85526" lon="5.72919">
        <ele>469</ele>
        <time>2012-09-18T13:33:56Z</time>
      </trkpt>
      <trkpt lat="46.85541" lon="5.72913">
        <ele>463</ele>
        <time>2012-09-18T13:33:58Z</time>
      </trkpt>
      <trkpt lat="46.85555" lon="5.72904">
        <ele>463</ele>
        <time>2012-09-18T13:34:00Z</time>
      </trkpt>
      <trkpt lat="46.85568" lon="5.72891">
        <ele>463</ele>
        <time>2012-09-18T13:34:02Z</time>
      </trkpt>
      <trkpt lat="46.8558" lon="5.72874">
        <ele>455</ele>
        <time>2012-09-18T13:34:04Z</time>
      </trkpt>
      <trkpt lat="46.85588" lon="5.72866">
        <ele>455</ele>
        <time>2012-09-18T13:34:05Z</time>
      </trkpt>
      <trkpt lat="46.85596" lon="5.72857">
        <ele>455</ele>
        <time>2012-09-18T13:34:06Z</time>
      </trkpt>
      <trkpt lat="46.85604" lon="5.72848">
        <ele>455</ele>
        <time>2012-09-18T13:34:07Z</time>
      </trkpt>
      <trkpt lat="46.85613" lon="5.7284">
        <ele>455</ele>
        <time>2012-09-18T13:34:08Z</time>
      </trkpt>
      <trkpt lat="46.85622" lon="5.72831">
        <ele>450</ele>
        <time>2012-09-18T13:34:09Z</time>
      </trkpt>
      <trkpt lat="46.85631" lon="5.72824">
        <ele>450</ele>
        <time>2012-09-18T13:34:10Z</time>
      </trkpt>
      <trkpt lat="46.85641" lon="5.72818">
        <ele>450</ele>
        <time>2012-09-18T13:34:11Z</time>
      </trkpt>
      <trkpt lat="46.8565" lon="5.72813">
        <ele>450</ele>
        <time>2012-09-18T13:34:12Z</time>
      </trkpt>
      <trkpt lat="46.8566" lon="5.72806">
        <ele>450</ele>
        <time>2012-09-18T13:34:13Z</time>
      </trkpt>
      <trkpt lat="46.85668" lon="5.728">
        <ele>450</ele>
        <time>2012-09-18T13:34:14Z</time>
      </trkpt>
      <trkpt lat="46.85676" lon="5.72792">
        <ele>450</ele>
        <time>2012-09-18T13:34:15Z</time>
      </trkpt>
      <trkpt lat="46.85684" lon="5.72784">
        <ele>450</ele>
        <time>2012-09-18T13:34:16Z</time>
      </trkpt>
      <trkpt lat="46.85692" lon="5.72776">
        <ele>450</ele>
        <time>2012-09-18T13:34:17Z</time>
      </trkpt>
      <trkpt lat="46.85701" lon="5.72768">
        <ele>444</ele>
        <time>2012-09-18T13:34:18Z</time>
      </trkpt>
      <trkpt lat="46.85711" lon="5.7276">
        <ele>444</ele>
        <time>2012-09-18T13:34:19Z</time>
      </trkpt>
      <trkpt lat="46.85721" lon="5.72754">
        <ele>444</ele>
        <time>2012-09-18T13:34:20Z</time>
      </trkpt>
      <trkpt lat="46.85732" lon="5.72747">
        <ele>444</ele>
        <time>2012-09-18T13:34:21Z</time>
      </trkpt>
      <trkpt lat="46.85742" lon="5.72741">
        <ele>444</ele>
        <time>2012-09-18T13:34:22Z</time>
      </trkpt>
      <trkpt lat="46.85753" lon="5.72734">
        <ele>444</ele>
        <time>2012-09-18T13:34:23Z</time>
      </trkpt>
      <trkpt lat="46.85764" lon="5.72728">
        <ele>444</ele>
        <time>2012-09-18T13:34:24Z</time>
      </trkpt>
      <trkpt lat="46.85775" lon="5.72724">
        <ele>439</ele>
        <time>2012-09-18T13:34:25Z</time>
      </trkpt>
      <trkpt lat="46.85787" lon="5.72718">
        <ele>439</ele>
        <time>2012-09-18T13:34:26Z</time>
      </trkpt>
      <trkpt lat="46.85798" lon="5.72713">
        <ele>439</ele>
        <time>2012-09-18T13:34:27Z</time>
      </trkpt>
      <trkpt lat="46.85809" lon="5.72707">
        <ele>439</ele>
        <time>2012-09-18T13:34:28Z</time>
      </trkpt>
      <trkpt lat="46.8582" lon="5.72701">
        <ele>439</ele>
        <time>2012-09-18T13:34:29Z</time>
      </trkpt>
      <trkpt lat="46.85831" lon="5.72694">
        <ele>439</ele>
        <time>2012-09-18T13:34:30Z</time>
      </trkpt>
      <trkpt lat="46.85841" lon="5.72688">
        <ele>439</ele>
        <time>2012-09-18T13:34:31Z</time>
      </trkpt>
      <trkpt lat="46.85851" lon="5.72681">
        <ele>439</ele>
        <time>2012-09-18T13:34:32Z</time>
      </trkpt>
      <trkpt lat="46.85861" lon="5.72674">
        <ele>439</ele>
        <time>2012-09-18T13:34:33Z</time>
      </trkpt>
      <trkpt lat="46.85871" lon="5.72667">
        <ele>439</ele>
        <time>2012-09-18T13:34:34Z</time>
      </trkpt>
      <trkpt lat="46.8588" lon="5.72661">
        <ele>439</ele>
        <time>2012-09-18T13:34:35Z</time>
      </trkpt>
      <trkpt lat="46.85889" lon="5.72654">
        <ele>439</ele>
        <time>2012-09-18T13:34:36Z</time>
      </trkpt>
      <trkpt lat="46.85898" lon="5.72646">
        <ele>439</ele>
        <time>2012-09-18T13:34:37Z</time>
      </trkpt>
      <trkpt lat="46.85907" lon="5.72638">
        <ele>439</ele>
        <time>2012-09-18T13:34:38Z</time>
      </trkpt>
      <trkpt lat="46.85915" lon="5.7263">
        <ele>439</ele>
        <time>2012-09-18T13:34:39Z</time>
      </trkpt>
      <trkpt lat="46.85923" lon="5.72622">
        <ele>439</ele>
        <time>2012-09-18T13:34:40Z</time>
      </trkpt>
      <trkpt lat="46.8593" lon="5.72613">
        <ele>433</ele>
        <time>2012-09-18T13:34:41Z</time>
      </trkpt>
      <trkpt lat="46.85938" lon="5.72604">
        <ele>433</ele>
        <time>2012-09-18T13:34:42Z</time>
      </trkpt>
      <trkpt lat="46.85946" lon="5.72595">
        <ele>433</ele>
        <time>2012-09-18T13:34:43Z</time>
      </trkpt>
      <trkpt lat="46.85955" lon="5.72586">
        <ele>433</ele>
        <time>2012-09-18T13:34:44Z</time>
      </trkpt>
      <trkpt lat="46.85965" lon="5.72578">
        <ele>433</ele>
        <time>2012-09-18T13:34:45Z</time>
      </trkpt>
      <trkpt lat="46.85975" lon="5.72571">
        <ele>433</ele>
        <time>2012-09-18T13:34:46Z</time>
      </trkpt>
      <trkpt lat="46.85986" lon="5.72564">
        <ele>433</ele>
        <time>2012-09-18T13:34:47Z</time>
      </trkpt>
      <trkpt lat="46.85996" lon="5.72557">
        <ele>433</ele>
        <time>2012-09-18T13:34:48Z</time>
      </trkpt>
      <trkpt lat="46.86008" lon="5.72552">
        <ele>428</ele>
        <time>2012-09-18T13:34:49Z</time>
      </trkpt>
      <trkpt lat="46.86019" lon="5.72547">
        <ele>428</ele>
        <time>2012-09-18T13:34:50Z</time>
      </trkpt>
      <trkpt lat="46.86031" lon="5.72541">
        <ele>428</ele>
        <time>2012-09-18T13:34:51Z</time>
      </trkpt>
      <trkpt lat="46.86042" lon="5.72535">
        <ele>428</ele>
        <time>2012-09-18T13:34:52Z</time>
      </trkpt>
      <trkpt lat="46.86053" lon="5.7253">
        <ele>428</ele>
        <time>2012-09-18T13:34:53Z</time>
      </trkpt>
      <trkpt lat="46.86064" lon="5.72523">
        <ele>428</ele>
        <time>2012-09-18T13:34:54Z</time>
      </trkpt>
      <trkpt lat="46.86075" lon="5.72518">
        <ele>428</ele>
        <time>2012-09-18T13:34:55Z</time>
      </trkpt>
      <trkpt lat="46.86086" lon="5.72513">
        <ele>422</ele>
        <time>2012-09-18T13:34:56Z</time>
      </trkpt>
      <trkpt lat="46.86098" lon="5.72507">
        <ele>422</ele>
        <time>2012-09-18T13:34:57Z</time>
      </trkpt>
      <trkpt lat="46.86109" lon="5.72502">
        <ele>422</ele>
        <time>2012-09-18T13:34:58Z</time>
      </trkpt>
      <trkpt lat="46.86121" lon="5.72495">
        <ele>422</ele>
        <time>2012-09-18T13:34:59Z</time>
      </trkpt>
      <trkpt lat="46.86132" lon="5.72491">
        <ele>422</ele>
        <time>2012-09-18T13:35:00Z</time>
      </trkpt>
      <trkpt lat="46.86143" lon="5.72486">
        <ele>422</ele>
        <time>2012-09-18T13:35:01Z</time>
      </trkpt>
      <trkpt lat="46.86154" lon="5.7248">
        <ele>422</ele>
        <time>2012-09-18T13:35:02Z</time>
      </trkpt>
      <trkpt lat="46.86165" lon="5.72475">
        <ele>422</ele>
        <time>2012-09-18T13:35:03Z</time>
      </trkpt>
      <trkpt lat="46.86175" lon="5.7247">
        <ele>422</ele>
        <time>2012-09-18T13:35:04Z</time>
      </trkpt>
      <trkpt lat="46.86185" lon="5.72465">
        <ele>417</ele>
        <time>2012-09-18T13:35:05Z</time>
      </trkpt>
      <trkpt lat="46.86193" lon="5.72459">
        <ele>417</ele>
        <time>2012-09-18T13:35:06Z</time>
      </trkpt>
      <trkpt lat="46.86203" lon="5.72453">
        <ele>417</ele>
        <time>2012-09-18T13:35:07Z</time>
      </trkpt>
      <trkpt lat="46.86211" lon="5.72448">
        <ele>417</ele>
        <time>2012-09-18T13:35:08Z</time>
      </trkpt>
      <trkpt lat="46.8622" lon="5.72442">
        <ele>417</ele>
        <time>2012-09-18T13:35:09Z</time>
      </trkpt>
      <trkpt lat="46.86228" lon="5.72438">
        <ele>417</ele>
        <time>2012-09-18T13:35:10Z</time>
      </trkpt>
      <trkpt lat="46.86237" lon="5.72433">
        <ele>417</ele>
        <time>2012-09-18T13:35:11Z</time>
      </trkpt>
      <trkpt lat="46.86247" lon="5.72427">
        <ele>417</ele>
        <time>2012-09-18T13:35:12Z</time>
      </trkpt>
      <trkpt lat="46.86257" lon="5.72422">
        <ele>411</ele>
        <time>2012-09-18T13:35:13Z</time>
      </trkpt>
      <trkpt lat="46.86268" lon="5.72417">
        <ele>411</ele>
        <time>2012-09-18T13:35:14Z</time>
      </trkpt>
      <trkpt lat="46.86278" lon="5.72415">
        <ele>411</ele>
        <time>2012-09-18T13:35:15Z</time>
      </trkpt>
      <trkpt lat="46.86289" lon="5.72414">
        <ele>411</ele>
        <time>2012-09-18T13:35:16Z</time>
      </trkpt>
      <trkpt lat="46.863" lon="5.72415">
        <ele>411</ele>
        <time>2012-09-18T13:35:17Z</time>
      </trkpt>
      <trkpt lat="46.8631" lon="5.72416">
        <ele>411</ele>
        <time>2012-09-18T13:35:18Z</time>
      </trkpt>
      <trkpt lat="46.8632" lon="5.72418">
        <ele>411</ele>
        <time>2012-09-18T13:35:19Z</time>
      </trkpt>
      <trkpt lat="46.8633" lon="5.72419">
        <ele>406</ele>
        <time>2012-09-18T13:35:20Z</time>
      </trkpt>
      <trkpt lat="46.8634" lon="5.72417">
        <ele>406</ele>
        <time>2012-09-18T13:35:21Z</time>
      </trkpt>
      <trkpt lat="46.8635" lon="5.72415">
        <ele>406</ele>
        <time>2012-09-18T13:35:22Z</time>
      </trkpt>
      <trkpt lat="46.86361" lon="5.72411">
        <ele>406</ele>
        <time>2012-09-18T13:35:23Z</time>
      </trkpt>
      <trkpt lat="46.86371" lon="5.72407">
        <ele>406</ele>
        <time>2012-09-18T13:35:24Z</time>
      </trkpt>
      <trkpt lat="46.86382" lon="5.72401">
        <ele>406</ele>
        <time>2012-09-18T13:35:25Z</time>
      </trkpt>
      <trkpt lat="46.86392" lon="5.72397">
        <ele>406</ele>
        <time>2012-09-18T13:35:26Z</time>
      </trkpt>
      <trkpt lat="46.86402" lon="5.72391">
        <ele>406</ele>
        <time>2012-09-18T13:35:27Z</time>
      </trkpt>
      <trkpt lat="46.86412" lon="5.72386">
        <ele>406</ele>
        <time>2012-09-18T13:35:28Z</time>
      </trkpt>
      <trkpt lat="46.86421" lon="5.7238">
        <ele>406</ele>
        <time>2012-09-18T13:35:29Z</time>
      </trkpt>
      <trkpt lat="46.8643" lon="5.72376">
        <ele>406</ele>
        <time>2012-09-18T13:35:30Z</time>
      </trkpt>
      <trkpt lat="46.8644" lon="5.72371">
        <ele>401</ele>
        <time>2012-09-18T13:35:31Z</time>
      </trkpt>
      <trkpt lat="46.86449" lon="5.72366">
        <ele>401</ele>
        <time>2012-09-18T13:35:32Z</time>
      </trkpt>
      <trkpt lat="46.86458" lon="5.72362">
        <ele>401</ele>
        <time>2012-09-18T13:35:33Z</time>
      </trkpt>
      <trkpt lat="46.86467" lon="5.72356">
        <ele>401</ele>
        <time>2012-09-18T13:35:34Z</time>
      </trkpt>
      <trkpt lat="46.86477" lon="5.72351">
        <ele>401</ele>
        <time>2012-09-18T13:35:35Z</time>
      </trkpt>
      <trkpt lat="46.86485" lon="5.72346">
        <ele>401</ele>
        <time>2012-09-18T13:35:36Z</time>
      </trkpt>
      <trkpt lat="46.86494" lon="5.72343">
        <ele>401</ele>
        <time>2012-09-18T13:35:37Z</time>
      </trkpt>
      <trkpt lat="46.86508" lon="5.72334">
        <ele>401</ele>
        <time>2012-09-18T13:35:39Z</time>
      </trkpt>
      <trkpt lat="46.8652" lon="5.72324">
        <ele>401</ele>
        <time>2012-09-18T13:35:41Z</time>
      </trkpt>
      <trkpt lat="46.86532" lon="5.72311">
        <ele>401</ele>
        <time>2012-09-18T13:35:43Z</time>
      </trkpt>
      <trkpt lat="46.86542" lon="5.72298">
        <ele>401</ele>
        <time>2012-09-18T13:35:45Z</time>
      </trkpt>
      <trkpt lat="46.86551" lon="5.72287">
        <ele>401</ele>
        <time>2012-09-18T13:35:47Z</time>
      </trkpt>
      <trkpt lat="46.8656" lon="5.7228">
        <ele>396</ele>
        <time>2012-09-18T13:35:49Z</time>
      </trkpt>
      <trkpt lat="46.86569" lon="5.72273">
        <ele>396</ele>
        <time>2012-09-18T13:35:51Z</time>
      </trkpt>
      <trkpt lat="46.86577" lon="5.72266">
        <ele>396</ele>
        <time>2012-09-18T13:35:53Z</time>
      </trkpt>
      <trkpt lat="46.86586" lon="5.7226">
        <ele>396</ele>
        <time>2012-09-18T13:35:55Z</time>
      </trkpt>
      <trkpt lat="46.86594" lon="5.72255">
        <ele>396</ele>
        <time>2012-09-18T13:35:57Z</time>
      </trkpt>
      <trkpt lat="46.86605" lon="5.72247">
        <ele>396</ele>
        <time>2012-09-18T13:36:00Z</time>
      </trkpt>
      <trkpt lat="46.86613" lon="5.72238">
        <ele>391</ele>
        <time>2012-09-18T13:36:04Z</time>
      </trkpt>
      <trkpt lat="46.8662" lon="5.72226">
        <ele>391</ele>
        <time>2012-09-18T13:36:09Z</time>
      </trkpt>
      <trkpt lat="46.86621" lon="5.72241">
        <ele>391</ele>
        <time>2012-09-18T13:37:27Z</time>
      </trkpt>
      <trkpt lat="46.86616" lon="5.72255">
        <ele>391</ele>
        <time>2012-09-18T13:37:31Z</time>
      </trkpt>
      <trkpt lat="46.86612" lon="5.72269">
        <ele>391</ele>
        <time>2012-09-18T13:37:34Z</time>
      </trkpt>
      <trkpt lat="46.86606" lon="5.72283">
        <ele>391</ele>
        <time>2012-09-18T13:37:37Z</time>
      </trkpt>
      <trkpt lat="46.86601" lon="5.72297">
        <ele>391</ele>
        <time>2012-09-18T13:37:40Z</time>
      </trkpt>
      <trkpt lat="46.86595" lon="5.72313">
        <ele>391</ele>
        <time>2012-09-18T13:37:43Z</time>
      </trkpt>
      <trkpt lat="46.86589" lon="5.72327">
        <ele>391</ele>
        <time>2012-09-18T13:37:46Z</time>
      </trkpt>
      <trkpt lat="46.86583" lon="5.7234">
        <ele>391</ele>
        <time>2012-09-18T13:37:49Z</time>
      </trkpt>
      <trkpt lat="46.86577" lon="5.72353">
        <ele>391</ele>
        <time>2012-09-18T13:37:52Z</time>
      </trkpt>
      <trkpt lat="46.86569" lon="5.72365">
        <ele>391</ele>
        <time>2012-09-18T13:37:55Z</time>
      </trkpt>
      <trkpt lat="46.86562" lon="5.7238">
        <ele>391</ele>
        <time>2012-09-18T13:37:58Z</time>
      </trkpt>
      <trkpt lat="46.86555" lon="5.72395">
        <ele>391</ele>
        <time>2012-09-18T13:38:01Z</time>
      </trkpt>
      <trkpt lat="46.86548" lon="5.72412">
        <ele>391</ele>
        <time>2012-09-18T13:38:04Z</time>
      </trkpt>
      <trkpt lat="46.86543" lon="5.72425">
        <ele>391</ele>
        <time>2012-09-18T13:38:06Z</time>
      </trkpt>
      <trkpt lat="46.8654" lon="5.72437">
        <ele>391</ele>
        <time>2012-09-18T13:38:08Z</time>
      </trkpt>
      <trkpt lat="46.86536" lon="5.72451">
        <ele>391</ele>
        <time>2012-09-18T13:38:10Z</time>
      </trkpt>
      <trkpt lat="46.86535" lon="5.72466">
        <ele>391</ele>
        <time>2012-09-18T13:38:12Z</time>
      </trkpt>
      <trkpt lat="46.86533" lon="5.7248">
        <ele>391</ele>
        <time>2012-09-18T13:38:14Z</time>
      </trkpt>
      <trkpt lat="46.86532" lon="5.72495">
        <ele>391</ele>
        <time>2012-09-18T13:38:16Z</time>
      </trkpt>
      <trkpt lat="46.86531" lon="5.72508">
        <ele>391</ele>
        <time>2012-09-18T13:38:18Z</time>
      </trkpt>
      <trkpt lat="46.86531" lon="5.72526">
        <ele>391</ele>
        <time>2012-09-18T13:38:21Z</time>
      </trkpt>
      <trkpt lat="46.86531" lon="5.72539">
        <ele>396</ele>
        <time>2012-09-18T13:38:24Z</time>
      </trkpt>
      <trkpt lat="46.86531" lon="5.72557">
        <ele>396</ele>
        <time>2012-09-18T13:38:28Z</time>
      </trkpt>
      <trkpt lat="46.8653" lon="5.7257">
        <ele>396</ele>
        <time>2012-09-18T13:38:31Z</time>
      </trkpt>
      <trkpt lat="46.86529" lon="5.72584">
        <ele>396</ele>
        <time>2012-09-18T13:38:34Z</time>
      </trkpt>
      <trkpt lat="46.86528" lon="5.726">
        <ele>396</ele>
        <time>2012-09-18T13:38:38Z</time>
      </trkpt>
      <trkpt lat="46.86528" lon="5.72616">
        <ele>402</ele>
        <time>2012-09-18T13:38:42Z</time>
      </trkpt>
      <trkpt lat="46.86527" lon="5.72631">
        <ele>402</ele>
        <time>2012-09-18T13:38:46Z</time>
      </trkpt>
      <trkpt lat="46.86527" lon="5.72645">
        <ele>402</ele>
        <time>2012-09-18T13:38:50Z</time>
      </trkpt>
      <trkpt lat="46.86526" lon="5.72659">
        <ele>402</ele>
        <time>2012-09-18T13:38:54Z</time>
      </trkpt>
      <trkpt lat="46.86526" lon="5.72673">
        <ele>402</ele>
        <time>2012-09-18T13:38:58Z</time>
      </trkpt>
      <trkpt lat="46.86525" lon="5.72688">
        <ele>407</ele>
        <time>2012-09-18T13:39:02Z</time>
      </trkpt>
      <trkpt lat="46.86525" lon="5.72702">
        <ele>407</ele>
        <time>2012-09-18T13:39:06Z</time>
      </trkpt>
      <trkpt lat="46.86524" lon="5.72716">
        <ele>407</ele>
        <time>2012-09-18T13:39:10Z</time>
      </trkpt>
      <trkpt lat="46.86524" lon="5.7273">
        <ele>407</ele>
        <time>2012-09-18T13:39:14Z</time>
      </trkpt>
      <trkpt lat="46.86524" lon="5.72745">
        <ele>407</ele>
        <time>2012-09-18T13:39:18Z</time>
      </trkpt>
      <trkpt lat="46.86524" lon="5.7276">
        <ele>412</ele>
        <time>2012-09-18T13:39:22Z</time>
      </trkpt>
      <trkpt lat="46.86523" lon="5.72774">
        <ele>412</ele>
        <time>2012-09-18T13:39:26Z</time>
      </trkpt>
      <trkpt lat="46.86522" lon="5.72787">
        <ele>412</ele>
        <time>2012-09-18T13:39:30Z</time>
      </trkpt>
      <trkpt lat="46.86522" lon="5.72802">
        <ele>412</ele>
        <time>2012-09-18T13:39:34Z</time>
      </trkpt>
      <trkpt lat="46.86521" lon="5.72816">
        <ele>412</ele>
        <time>2012-09-18T13:39:38Z</time>
      </trkpt>
      <trkpt lat="46.8652" lon="5.72831">
        <ele>418</ele>
        <time>2012-09-18T13:39:42Z</time>
      </trkpt>
      <trkpt lat="46.8652" lon="5.72845">
        <ele>418</ele>
        <time>2012-09-18T13:39:46Z</time>
      </trkpt>
      <trkpt lat="46.8652" lon="5.72859">
        <ele>418</ele>
        <time>2012-09-18T13:39:50Z</time>
      </trkpt>
      <trkpt lat="46.8652" lon="5.72874">
        <ele>418</ele>
        <time>2012-09-18T13:39:54Z</time>
      </trkpt>
      <trkpt lat="46.86519" lon="5.72888">
        <ele>418</ele>
        <time>2012-09-18T13:39:58Z</time>
      </trkpt>
      <trkpt lat="46.86519" lon="5.72902">
        <ele>418</ele>
        <time>2012-09-18T13:40:02Z</time>
      </trkpt>
      <trkpt lat="46.86519" lon="5.72916">
        <ele>423</ele>
        <time>2012-09-18T13:40:06Z</time>
      </trkpt>
      <trkpt lat="46.86518" lon="5.72929">
        <ele>423</ele>
        <time>2012-09-18T13:40:10Z</time>
      </trkpt>
      <trkpt lat="46.86517" lon="5.72945">
        <ele>423</ele>
        <time>2012-09-18T13:40:14Z</time>
      </trkpt>
      <trkpt lat="46.86517" lon="5.72959">
        <ele>423</ele>
        <time>2012-09-18T13:40:18Z</time>
      </trkpt>
      <trkpt lat="46.86516" lon="5.72972">
        <ele>423</ele>
        <time>2012-09-18T13:40:22Z</time>
      </trkpt>
      <trkpt lat="46.86516" lon="5.72986">
        <ele>423</ele>
        <time>2012-09-18T13:40:26Z</time>
      </trkpt>
      <trkpt lat="46.86516" lon="5.72999">
        <ele>429</ele>
        <time>2012-09-18T13:40:30Z</time>
      </trkpt>
      <trkpt lat="46.86516" lon="5.73014">
        <ele>429</ele>
        <time>2012-09-18T13:40:34Z</time>
      </trkpt>
      <trkpt lat="46.86514" lon="5.73027">
        <ele>429</ele>
        <time>2012-09-18T13:40:38Z</time>
      </trkpt>
      <trkpt lat="46.86513" lon="5.73042">
        <ele>429</ele>
        <time>2012-09-18T13:40:42Z</time>
      </trkpt>
      <trkpt lat="46.86512" lon="5.73055">
        <ele>429</ele>
        <time>2012-09-18T13:40:46Z</time>
      </trkpt>
      <trkpt lat="46.8651" lon="5.7307">
        <ele>429</ele>
        <time>2012-09-18T13:40:50Z</time>
      </trkpt>
      <trkpt lat="46.86509" lon="5.73083">
        <ele>429</ele>
        <time>2012-09-18T13:40:54Z</time>
      </trkpt>
      <trkpt lat="46.86504" lon="5.73097">
        <ele>429</ele>
        <time>2012-09-18T13:40:58Z</time>
      </trkpt>
      <trkpt lat="46.86498" lon="5.7311">
        <ele>429</ele>
        <time>2012-09-18T13:41:02Z</time>
      </trkpt>
      <trkpt lat="46.86491" lon="5.73123">
        <ele>429</ele>
        <time>2012-09-18T13:41:06Z</time>
      </trkpt>
      <trkpt lat="46.86484" lon="5.73134">
        <ele>435</ele>
        <time>2012-09-18T13:41:10Z</time>
      </trkpt>
      <trkpt lat="46.86477" lon="5.73145">
        <ele>435</ele>
        <time>2012-09-18T13:41:14Z</time>
      </trkpt>
      <trkpt lat="46.8647" lon="5.73157">
        <ele>435</ele>
        <time>2012-09-18T13:41:18Z</time>
      </trkpt>
      <trkpt lat="46.86462" lon="5.73167">
        <ele>435</ele>
        <time>2012-09-18T13:41:22Z</time>
      </trkpt>
      <trkpt lat="46.86453" lon="5.73179">
        <ele>435</ele>
        <time>2012-09-18T13:41:26Z</time>
      </trkpt>
      <trkpt lat="46.86445" lon="5.73189">
        <ele>435</ele>
        <time>2012-09-18T13:41:30Z</time>
      </trkpt>
      <trkpt lat="46.86438" lon="5.73201">
        <ele>435</ele>
        <time>2012-09-18T13:41:34Z</time>
      </trkpt>
      <trkpt lat="46.86432" lon="5.73211">
        <ele>441</ele>
        <time>2012-09-18T13:41:38Z</time>
      </trkpt>
      <trkpt lat="46.86426" lon="5.73223">
        <ele>441</ele>
        <time>2012-09-18T13:41:43Z</time>
      </trkpt>
      <trkpt lat="46.86422" lon="5.73235">
        <ele>441</ele>
        <time>2012-09-18T13:41:47Z</time>
      </trkpt>
      <trkpt lat="46.86414" lon="5.73243">
        <ele>441</ele>
        <time>2012-09-18T13:41:51Z</time>
      </trkpt>
      <trkpt lat="46.86406" lon="5.73253">
        <ele>441</ele>
        <time>2012-09-18T13:41:55Z</time>
      </trkpt>
      <trkpt lat="46.86398" lon="5.73263">
        <ele>441</ele>
        <time>2012-09-18T13:41:59Z</time>
      </trkpt>
      <trkpt lat="46.8639" lon="5.73272">
        <ele>441</ele>
        <time>2012-09-18T13:42:03Z</time>
      </trkpt>
      <trkpt lat="46.86384" lon="5.73281">
        <ele>447</ele>
        <time>2012-09-18T13:42:07Z</time>
      </trkpt>
      <trkpt lat="46.86377" lon="5.7329">
        <ele>447</ele>
        <time>2012-09-18T13:42:11Z</time>
      </trkpt>
      <trkpt lat="46.8637" lon="5.733">
        <ele>447</ele>
        <time>2012-09-18T13:42:15Z</time>
      </trkpt>
      <trkpt lat="46.86363" lon="5.73311">
        <ele>447</ele>
        <time>2012-09-18T13:42:20Z</time>
      </trkpt>
      <trkpt lat="46.86355" lon="5.73323">
        <ele>452</ele>
        <time>2012-09-18T13:42:25Z</time>
      </trkpt>
      <trkpt lat="46.86347" lon="5.73331">
        <ele>452</ele>
        <time>2012-09-18T13:42:29Z</time>
      </trkpt>
      <trkpt lat="46.86339" lon="5.73339">
        <ele>452</ele>
        <time>2012-09-18T13:42:34Z</time>
      </trkpt>
      <trkpt lat="46.86329" lon="5.73343">
        <ele>452</ele>
        <time>2012-09-18T13:42:38Z</time>
      </trkpt>
      <trkpt lat="46.86319" lon="5.73348">
        <ele>452</ele>
        <time>2012-09-18T13:42:43Z</time>
      </trkpt>
      <trkpt lat="46.86308" lon="5.73351">
        <ele>452</ele>
        <time>2012-09-18T13:42:48Z</time>
      </trkpt>
      <trkpt lat="46.86299" lon="5.73353">
        <ele>452</ele>
        <time>2012-09-18T13:42:53Z</time>
      </trkpt>
      <trkpt lat="46.86288" lon="5.73356">
        <ele>459</ele>
        <time>2012-09-18T13:42:58Z</time>
      </trkpt>
      <trkpt lat="46.86278" lon="5.73359">
        <ele>459</ele>
        <time>2012-09-18T13:43:03Z</time>
      </trkpt>
      <trkpt lat="46.8627" lon="5.73363">
        <ele>459</ele>
        <time>2012-09-18T13:43:08Z</time>
      </trkpt>
      <trkpt lat="46.86261" lon="5.73369">
        <ele>459</ele>
        <time>2012-09-18T13:43:13Z</time>
      </trkpt>
      <trkpt lat="46.86254" lon="5.73378">
        <ele>465</ele>
        <time>2012-09-18T13:43:18Z</time>
      </trkpt>
      <trkpt lat="46.86253" lon="5.73393">
        <ele>465</ele>
        <time>2012-09-18T13:43:24Z</time>
      </trkpt>
      <trkpt lat="46.86252" lon="5.73407">
        <ele>471</ele>
        <time>2012-09-18T13:43:30Z</time>
      </trkpt>
      <trkpt lat="46.86254" lon="5.73422">
        <ele>471</ele>
        <time>2012-09-18T13:43:36Z</time>
      </trkpt>
      <trkpt lat="46.86256" lon="5.73437">
        <ele>477</ele>
        <time>2012-09-18T13:43:41Z</time>
      </trkpt>
      <trkpt lat="46.86259" lon="5.73451">
        <ele>477</ele>
        <time>2012-09-18T13:43:45Z</time>
      </trkpt>
      <trkpt lat="46.86262" lon="5.73464">
        <ele>477</ele>
        <time>2012-09-18T13:43:48Z</time>
      </trkpt>
      <trkpt lat="46.86265" lon="5.73477">
        <ele>477</ele>
        <time>2012-09-18T13:43:51Z</time>
      </trkpt>
      <trkpt lat="46.86268" lon="5.73492">
        <ele>477</ele>
        <time>2012-09-18T13:43:54Z</time>
      </trkpt>
      <trkpt lat="46.86273" lon="5.73507">
        <ele>477</ele>
        <time>2012-09-18T13:43:57Z</time>
      </trkpt>
      <trkpt lat="46.8628" lon="5.73523">
        <ele>477</ele>
        <time>2012-09-18T13:44:00Z</time>
      </trkpt>
      <trkpt lat="46.86287" lon="5.73532">
        <ele>477</ele>
        <time>2012-09-18T13:44:02Z</time>
      </trkpt>
      <trkpt lat="46.86295" lon="5.73543">
        <ele>477</ele>
        <time>2012-09-18T13:44:04Z</time>
      </trkpt>
      <trkpt lat="46.86304" lon="5.73554">
        <ele>477</ele>
        <time>2012-09-18T13:44:06Z</time>
      </trkpt>
      <trkpt lat="46.86312" lon="5.73564">
        <ele>477</ele>
        <time>2012-09-18T13:44:08Z</time>
      </trkpt>
      <trkpt lat="46.8632" lon="5.73574">
        <ele>477</ele>
        <time>2012-09-18T13:44:10Z</time>
      </trkpt>
      <trkpt lat="46.86328" lon="5.73583">
        <ele>477</ele>
        <time>2012-09-18T13:44:12Z</time>
      </trkpt>
      <trkpt lat="46.86337" lon="5.73594">
        <ele>477</ele>
        <time>2012-09-18T13:44:14Z</time>
      </trkpt>
      <trkpt lat="46.86345" lon="5.73605">
        <ele>477</ele>
        <time>2012-09-18T13:44:16Z</time>
      </trkpt>
      <trkpt lat="46.86352" lon="5.73616">
        <ele>477</ele>
        <time>2012-09-18T13:44:18Z</time>
      </trkpt>
      <trkpt lat="46.8636" lon="5.73625">
        <ele>477</ele>
        <time>2012-09-18T13:44:20Z</time>
      </trkpt>
      <trkpt lat="46.86366" lon="5.73634">
        <ele>477</ele>
        <time>2012-09-18T13:44:22Z</time>
      </trkpt>
      <trkpt lat="46.86376" lon="5.73646">
        <ele>477</ele>
        <time>2012-09-18T13:44:25Z</time>
      </trkpt>
      <trkpt lat="46.86384" lon="5.73656">
        <ele>477</ele>
        <time>2012-09-18T13:44:28Z</time>
      </trkpt>
      <trkpt lat="46.86392" lon="5.73668">
        <ele>477</ele>
        <time>2012-09-18T13:44:32Z</time>
      </trkpt>
      <trkpt lat="46.86401" lon="5.73679">
        <ele>477</ele>
        <time>2012-09-18T13:44:36Z</time>
      </trkpt>
      <trkpt lat="46.86409" lon="5.7369">
        <ele>477</ele>
        <time>2012-09-18T13:44:39Z</time>
      </trkpt>
      <trkpt lat="46.86417" lon="5.737">
        <ele>477</ele>
        <time>2012-09-18T13:44:42Z</time>
      </trkpt>
      <trkpt lat="46.86426" lon="5.7371">
        <ele>477</ele>
        <time>2012-09-18T13:44:45Z</time>
      </trkpt>
      <trkpt lat="46.86435" lon="5.73721">
        <ele>477</ele>
        <time>2012-09-18T13:44:48Z</time>
      </trkpt>
      <trkpt lat="46.86443" lon="5.73732">
        <ele>477</ele>
        <time>2012-09-18T13:44:51Z</time>
      </trkpt>
      <trkpt lat="46.86453" lon="5.73742">
        <ele>477</ele>
        <time>2012-09-18T13:44:54Z</time>
      </trkpt>
      <trkpt lat="46.86461" lon="5.73752">
        <ele>477</ele>
        <time>2012-09-18T13:44:57Z</time>
      </trkpt>
      <trkpt lat="46.86469" lon="5.73762">
        <ele>477</ele>
        <time>2012-09-18T13:45:00Z</time>
      </trkpt>
      <trkpt lat="46.86475" lon="5.73773">
        <ele>477</ele>
        <time>2012-09-18T13:45:03Z</time>
      </trkpt>
      <trkpt lat="46.86484" lon="5.73785">
        <ele>477</ele>
        <time>2012-09-18T13:45:07Z</time>
      </trkpt>
      <trkpt lat="46.86491" lon="5.73794">
        <ele>483</ele>
        <time>2012-09-18T13:45:10Z</time>
      </trkpt>
      <trkpt lat="46.86498" lon="5.73805">
        <ele>483</ele>
        <time>2012-09-18T13:45:14Z</time>
      </trkpt>
      <trkpt lat="46.86505" lon="5.73815">
        <ele>483</ele>
        <time>2012-09-18T13:45:18Z</time>
      </trkpt>
      <trkpt lat="46.86513" lon="5.73827">
        <ele>483</ele>
        <time>2012-09-18T13:45:22Z</time>
      </trkpt>
      <trkpt lat="46.8652" lon="5.73836">
        <ele>483</ele>
        <time>2012-09-18T13:45:25Z</time>
      </trkpt>
      <trkpt lat="46.86528" lon="5.73847">
        <ele>489</ele>
        <time>2012-09-18T13:45:29Z</time>
      </trkpt>
      <trkpt lat="46.86535" lon="5.73856">
        <ele>489</ele>
        <time>2012-09-18T13:45:32Z</time>
      </trkpt>
      <trkpt lat="46.86544" lon="5.73865">
        <ele>489</ele>
        <time>2012-09-18T13:45:36Z</time>
      </trkpt>
      <trkpt lat="46.86551" lon="5.73873">
        <ele>495</ele>
        <time>2012-09-18T13:45:39Z</time>
      </trkpt>
      <trkpt lat="46.86559" lon="5.73883">
        <ele>495</ele>
        <time>2012-09-18T13:45:43Z</time>
      </trkpt>
      <trkpt lat="46.86569" lon="5.73894">
        <ele>495</ele>
        <time>2012-09-18T13:45:46Z</time>
      </trkpt>
      <trkpt lat="46.86579" lon="5.73906">
        <ele>495</ele>
        <time>2012-09-18T13:45:49Z</time>
      </trkpt>
      <trkpt lat="46.86588" lon="5.73919">
        <ele>495</ele>
        <time>2012-09-18T13:45:52Z</time>
      </trkpt>
      <trkpt lat="46.86595" lon="5.73929">
        <ele>495</ele>
        <time>2012-09-18T13:45:54Z</time>
      </trkpt>
      <trkpt lat="46.86604" lon="5.73943">
        <ele>495</ele>
        <time>2012-09-18T13:45:57Z</time>
      </trkpt>
      <trkpt lat="46.86612" lon="5.73953">
        <ele>495</ele>
        <time>2012-09-18T13:45:59Z</time>
      </trkpt>
      <trkpt lat="46.86619" lon="5.73965">
        <ele>495</ele>
        <time>2012-09-18T13:46:01Z</time>
      </trkpt>
      <trkpt lat="46.86626" lon="5.73976">
        <ele>495</ele>
        <time>2012-09-18T13:46:03Z</time>
      </trkpt>
      <trkpt lat="46.86633" lon="5.73987">
        <ele>495</ele>
        <time>2012-09-18T13:46:05Z</time>
      </trkpt>
      <trkpt lat="46.86641" lon="5.73997">
        <ele>495</ele>
        <time>2012-09-18T13:46:07Z</time>
      </trkpt>
      <trkpt lat="46.86647" lon="5.74007">
        <ele>495</ele>
        <time>2012-09-18T13:46:09Z</time>
      </trkpt>
      <trkpt lat="46.86654" lon="5.74018">
        <ele>495</ele>
        <time>2012-09-18T13:46:11Z</time>
      </trkpt>
      <trkpt lat="46.86662" lon="5.74028">
        <ele>495</ele>
        <time>2012-09-18T13:46:13Z</time>
      </trkpt>
      <trkpt lat="46.86671" lon="5.74039">
        <ele>495</ele>
        <time>2012-09-18T13:46:15Z</time>
      </trkpt>
      <trkpt lat="46.86681" lon="5.74053">
        <ele>495</ele>
        <time>2012-09-18T13:46:17Z</time>
      </trkpt>
      <trkpt lat="46.86692" lon="5.74069">
        <ele>495</ele>
        <time>2012-09-18T13:46:19Z</time>
      </trkpt>
      <trkpt lat="46.86703" lon="5.74086">
        <ele>495</ele>
        <time>2012-09-18T13:46:21Z</time>
      </trkpt>
      <trkpt lat="46.86715" lon="5.74104">
        <ele>495</ele>
        <time>2012-09-18T13:46:23Z</time>
      </trkpt>
      <trkpt lat="46.86726" lon="5.74122">
        <ele>495</ele>
        <time>2012-09-18T13:46:25Z</time>
      </trkpt>
      <trkpt lat="46.86739" lon="5.7414">
        <ele>495</ele>
        <time>2012-09-18T13:46:27Z</time>
      </trkpt>
      <trkpt lat="46.86751" lon="5.74158">
        <ele>495</ele>
        <time>2012-09-18T13:46:29Z</time>
      </trkpt>
      <trkpt lat="46.86763" lon="5.74176">
        <ele>495</ele>
        <time>2012-09-18T13:46:31Z</time>
      </trkpt>
      <trkpt lat="46.86774" lon="5.74193">
        <ele>495</ele>
        <time>2012-09-18T13:46:33Z</time>
      </trkpt>
      <trkpt lat="46.86786" lon="5.74211">
        <ele>495</ele>
        <time>2012-09-18T13:46:35Z</time>
      </trkpt>
      <trkpt lat="46.86798" lon="5.74227">
        <ele>495</ele>
        <time>2012-09-18T13:46:37Z</time>
      </trkpt>
      <trkpt lat="46.86811" lon="5.74245">
        <ele>495</ele>
        <time>2012-09-18T13:46:39Z</time>
      </trkpt>
      <trkpt lat="46.86817" lon="5.74254">
        <ele>495</ele>
        <time>2012-09-18T13:46:40Z</time>
      </trkpt>
      <trkpt lat="46.8683" lon="5.74272">
        <ele>495</ele>
        <time>2012-09-18T13:46:42Z</time>
      </trkpt>
      <trkpt lat="46.86842" lon="5.7429">
        <ele>495</ele>
        <time>2012-09-18T13:46:44Z</time>
      </trkpt>
      <trkpt lat="46.86854" lon="5.74307">
        <ele>495</ele>
        <time>2012-09-18T13:46:46Z</time>
      </trkpt>
      <trkpt lat="46.86866" lon="5.74324">
        <ele>495</ele>
        <time>2012-09-18T13:46:48Z</time>
      </trkpt>
      <trkpt lat="46.86878" lon="5.74342">
        <ele>495</ele>
        <time>2012-09-18T13:46:50Z</time>
      </trkpt>
      <trkpt lat="46.8689" lon="5.74359">
        <ele>495</ele>
        <time>2012-09-18T13:46:52Z</time>
      </trkpt>
      <trkpt lat="46.86902" lon="5.74376">
        <ele>490</ele>
        <time>2012-09-18T13:46:54Z</time>
      </trkpt>
      <trkpt lat="46.86913" lon="5.74392">
        <ele>490</ele>
        <time>2012-09-18T13:46:56Z</time>
      </trkpt>
      <trkpt lat="46.86924" lon="5.74408">
        <ele>490</ele>
        <time>2012-09-18T13:46:58Z</time>
      </trkpt>
      <trkpt lat="46.86935" lon="5.74422">
        <ele>490</ele>
        <time>2012-09-18T13:47:00Z</time>
      </trkpt>
      <trkpt lat="46.86946" lon="5.74437">
        <ele>490</ele>
        <time>2012-09-18T13:47:02Z</time>
      </trkpt>
      <trkpt lat="46.86955" lon="5.74451">
        <ele>490</ele>
        <time>2012-09-18T13:47:04Z</time>
      </trkpt>
      <trkpt lat="46.86965" lon="5.74465">
        <ele>490</ele>
        <time>2012-09-18T13:47:06Z</time>
      </trkpt>
      <trkpt lat="46.86975" lon="5.74479">
        <ele>490</ele>
        <time>2012-09-18T13:47:08Z</time>
      </trkpt>
      <trkpt lat="46.86984" lon="5.74492">
        <ele>490</ele>
        <time>2012-09-18T13:47:10Z</time>
      </trkpt>
      <trkpt lat="46.86993" lon="5.74506">
        <ele>490</ele>
        <time>2012-09-18T13:47:12Z</time>
      </trkpt>
      <trkpt lat="46.87002" lon="5.74518">
        <ele>490</ele>
        <time>2012-09-18T13:47:14Z</time>
      </trkpt>
      <trkpt lat="46.87011" lon="5.74531">
        <ele>490</ele>
        <time>2012-09-18T13:47:16Z</time>
      </trkpt>
      <trkpt lat="46.87021" lon="5.74544">
        <ele>490</ele>
        <time>2012-09-18T13:47:18Z</time>
      </trkpt>
      <trkpt lat="46.87031" lon="5.74558">
        <ele>490</ele>
        <time>2012-09-18T13:47:20Z</time>
      </trkpt>
      <trkpt lat="46.87042" lon="5.74572">
        <ele>490</ele>
        <time>2012-09-18T13:47:22Z</time>
      </trkpt>
      <trkpt lat="46.87052" lon="5.74588">
        <ele>490</ele>
        <time>2012-09-18T13:47:24Z</time>
      </trkpt>
      <trkpt lat="46.87061" lon="5.74603">
        <ele>490</ele>
        <time>2012-09-18T13:47:26Z</time>
      </trkpt>
      <trkpt lat="46.87072" lon="5.74619">
        <ele>490</ele>
        <time>2012-09-18T13:47:28Z</time>
      </trkpt>
      <trkpt lat="46.87082" lon="5.74636">
        <ele>490</ele>
        <time>2012-09-18T13:47:30Z</time>
      </trkpt>
      <trkpt lat="46.87092" lon="5.74655">
        <ele>490</ele>
        <time>2012-09-18T13:47:32Z</time>
      </trkpt>
      <trkpt lat="46.87102" lon="5.74675">
        <ele>490</ele>
        <time>2012-09-18T13:47:34Z</time>
      </trkpt>
      <trkpt lat="46.87113" lon="5.74695">
        <ele>490</ele>
        <time>2012-09-18T13:47:36Z</time>
      </trkpt>
      <trkpt lat="46.87123" lon="5.74716">
        <ele>490</ele>
        <time>2012-09-18T13:47:38Z</time>
      </trkpt>
      <trkpt lat="46.87129" lon="5.74728">
        <ele>490</ele>
        <time>2012-09-18T13:47:39Z</time>
      </trkpt>
      <trkpt lat="46.87135" lon="5.74739">
        <ele>490</ele>
        <time>2012-09-18T13:47:40Z</time>
      </trkpt>
      <trkpt lat="46.8714" lon="5.74751">
        <ele>490</ele>
        <time>2012-09-18T13:47:41Z</time>
      </trkpt>
      <trkpt lat="46.87147" lon="5.74763">
        <ele>490</ele>
        <time>2012-09-18T13:47:42Z</time>
      </trkpt>
      <trkpt lat="46.87154" lon="5.74774">
        <ele>490</ele>
        <time>2012-09-18T13:47:43Z</time>
      </trkpt>
      <trkpt lat="46.87161" lon="5.74784">
        <ele>490</ele>
        <time>2012-09-18T13:47:44Z</time>
      </trkpt>
      <trkpt lat="46.87169" lon="5.74794">
        <ele>490</ele>
        <time>2012-09-18T13:47:45Z</time>
      </trkpt>
      <trkpt lat="46.87177" lon="5.74803">
        <ele>490</ele>
        <time>2012-09-18T13:47:46Z</time>
      </trkpt>
      <trkpt lat="46.87185" lon="5.74812">
        <ele>490</ele>
        <time>2012-09-18T13:47:47Z</time>
      </trkpt>
      <trkpt lat="46.87194" lon="5.74819">
        <ele>490</ele>
        <time>2012-09-18T13:47:48Z</time>
      </trkpt>
      <trkpt lat="46.87202" lon="5.74828">
        <ele>490</ele>
        <time>2012-09-18T13:47:49Z</time>
      </trkpt>
      <trkpt lat="46.8721" lon="5.74835">
        <ele>490</ele>
        <time>2012-09-18T13:47:50Z</time>
      </trkpt>
      <trkpt lat="46.87218" lon="5.74841">
        <ele>490</ele>
        <time>2012-09-18T13:47:51Z</time>
      </trkpt>
      <trkpt lat="46.87226" lon="5.74848">
        <ele>490</ele>
        <time>2012-09-18T13:47:52Z</time>
      </trkpt>
      <trkpt lat="46.87234" lon="5.74854">
        <ele>490</ele>
        <time>2012-09-18T13:47:53Z</time>
      </trkpt>
      <trkpt lat="46.8725" lon="5.74866">
        <ele>490</ele>
        <time>2012-09-18T13:47:55Z</time>
      </trkpt>
      <trkpt lat="46.87264" lon="5.74877">
        <ele>490</ele>
        <time>2012-09-18T13:47:57Z</time>
      </trkpt>
      <trkpt lat="46.87278" lon="5.74889">
        <ele>490</ele>
        <time>2012-09-18T13:47:59Z</time>
      </trkpt>
      <trkpt lat="46.8729" lon="5.74903">
        <ele>490</ele>
        <time>2012-09-18T13:48:01Z</time>
      </trkpt>
      <trkpt lat="46.87301" lon="5.74922">
        <ele>490</ele>
        <time>2012-09-18T13:48:03Z</time>
      </trkpt>
      <trkpt lat="46.87305" lon="5.74934">
        <ele>490</ele>
        <time>2012-09-18T13:48:04Z</time>
      </trkpt>
      <trkpt lat="46.8731" lon="5.74945">
        <ele>490</ele>
        <time>2012-09-18T13:48:05Z</time>
      </trkpt>
      <trkpt lat="46.87313" lon="5.7496">
        <ele>490</ele>
        <time>2012-09-18T13:48:06Z</time>
      </trkpt>
      <trkpt lat="46.87316" lon="5.74978">
        <ele>483</ele>
        <time>2012-09-18T13:48:07Z</time>
      </trkpt>
      <trkpt lat="46.8732" lon="5.74995">
        <ele>483</ele>
        <time>2012-09-18T13:48:08Z</time>
      </trkpt>
      <trkpt lat="46.87323" lon="5.75011">
        <ele>483</ele>
        <time>2012-09-18T13:48:09Z</time>
      </trkpt>
      <trkpt lat="46.87327" lon="5.75025">
        <ele>483</ele>
        <time>2012-09-18T13:48:10Z</time>
      </trkpt>
      <trkpt lat="46.87331" lon="5.7504">
        <ele>483</ele>
        <time>2012-09-18T13:48:11Z</time>
      </trkpt>
      <trkpt lat="46.87336" lon="5.75054">
        <ele>483</ele>
        <time>2012-09-18T13:48:12Z</time>
      </trkpt>
      <trkpt lat="46.8734" lon="5.75067">
        <ele>483</ele>
        <time>2012-09-18T13:48:13Z</time>
      </trkpt>
      <trkpt lat="46.87344" lon="5.7508">
        <ele>483</ele>
        <time>2012-09-18T13:48:14Z</time>
      </trkpt>
      <trkpt lat="46.87348" lon="5.75092">
        <ele>483</ele>
        <time>2012-09-18T13:48:15Z</time>
      </trkpt>
      <trkpt lat="46.87357" lon="5.75112">
        <ele>483</ele>
        <time>2012-09-18T13:48:17Z</time>
      </trkpt>
      <trkpt lat="46.87365" lon="5.75129">
        <ele>483</ele>
        <time>2012-09-18T13:48:19Z</time>
      </trkpt>
      <trkpt lat="46.87375" lon="5.75144">
        <ele>483</ele>
        <time>2012-09-18T13:48:21Z</time>
      </trkpt>
      <trkpt lat="46.87385" lon="5.75154">
        <ele>483</ele>
        <time>2012-09-18T13:48:23Z</time>
      </trkpt>
      <trkpt lat="46.87394" lon="5.75165">
        <ele>483</ele>
        <time>2012-09-18T13:48:25Z</time>
      </trkpt>
      <trkpt lat="46.87403" lon="5.75175">
        <ele>483</ele>
        <time>2012-09-18T13:48:27Z</time>
      </trkpt>
      <trkpt lat="46.87411" lon="5.75183">
        <ele>483</ele>
        <time>2012-09-18T13:48:29Z</time>
      </trkpt>
      <trkpt lat="46.87422" lon="5.75193">
        <ele>483</ele>
        <time>2012-09-18T13:48:32Z</time>
      </trkpt>
      <trkpt lat="46.87432" lon="5.75201">
        <ele>483</ele>
        <time>2012-09-18T13:48:35Z</time>
      </trkpt>
      <trkpt lat="46.87441" lon="5.75209">
        <ele>489</ele>
        <time>2012-09-18T13:48:38Z</time>
      </trkpt>
      <trkpt lat="46.87449" lon="5.75216">
        <ele>489</ele>
        <time>2012-09-18T13:48:41Z</time>
      </trkpt>
      <trkpt lat="46.8746" lon="5.75225">
        <ele>489</ele>
        <time>2012-09-18T13:48:45Z</time>
      </trkpt>
      <trkpt lat="46.8747" lon="5.75232">
        <ele>498</ele>
        <time>2012-09-18T13:48:49Z</time>
      </trkpt>
      <trkpt lat="46.87479" lon="5.75238">
        <ele>498</ele>
        <time>2012-09-18T13:48:52Z</time>
      </trkpt>
      <trkpt lat="46.87488" lon="5.75244">
        <ele>498</ele>
        <time>2012-09-18T13:48:56Z</time>
      </trkpt>
      <trkpt lat="46.87496" lon="5.7525">
        <ele>498</ele>
        <time>2012-09-18T13:49:00Z</time>
      </trkpt>
      <trkpt lat="46.87507" lon="5.75258">
        <ele>498</ele>
        <time>2012-09-18T13:49:05Z</time>
      </trkpt>
      <trkpt lat="46.87515" lon="5.75261">
        <ele>498</ele>
        <time>2012-09-18T13:49:09Z</time>
      </trkpt>
      <trkpt lat="46.87525" lon="5.75267">
        <ele>503</ele>
        <time>2012-09-18T13:49:13Z</time>
      </trkpt>
      <trkpt lat="46.87534" lon="5.7527">
        <ele>503</ele>
        <time>2012-09-18T13:49:17Z</time>
      </trkpt>
      <trkpt lat="46.87544" lon="5.75274">
        <ele>503</ele>
        <time>2012-09-18T13:49:21Z</time>
      </trkpt>
      <trkpt lat="46.87554" lon="5.75276">
        <ele>503</ele>
        <time>2012-09-18T13:49:24Z</time>
      </trkpt>
      <trkpt lat="46.87565" lon="5.75278">
        <ele>503</ele>
        <time>2012-09-18T13:49:27Z</time>
      </trkpt>
      <trkpt lat="46.87578" lon="5.75282">
        <ele>503</ele>
        <time>2012-09-18T13:49:30Z</time>
      </trkpt>
      <trkpt lat="46.87587" lon="5.75285">
        <ele>503</ele>
        <time>2012-09-18T13:49:32Z</time>
      </trkpt>
      <trkpt lat="46.87597" lon="5.7529">
        <ele>503</ele>
        <time>2012-09-18T13:49:34Z</time>
      </trkpt>
      <trkpt lat="46.87606" lon="5.75296">
        <ele>503</ele>
        <time>2012-09-18T13:49:36Z</time>
      </trkpt>
      <trkpt lat="46.87616" lon="5.75304">
        <ele>503</ele>
        <time>2012-09-18T13:49:38Z</time>
      </trkpt>
      <trkpt lat="46.87627" lon="5.75311">
        <ele>503</ele>
        <time>2012-09-18T13:49:40Z</time>
      </trkpt>
      <trkpt lat="46.87639" lon="5.75321">
        <ele>503</ele>
        <time>2012-09-18T13:49:42Z</time>
      </trkpt>
      <trkpt lat="46.87651" lon="5.75331">
        <ele>503</ele>
        <time>2012-09-18T13:49:44Z</time>
      </trkpt>
      <trkpt lat="46.87664" lon="5.75341">
        <ele>503</ele>
        <time>2012-09-18T13:49:46Z</time>
      </trkpt>
      <trkpt lat="46.87677" lon="5.75351">
        <ele>498</ele>
        <time>2012-09-18T13:49:48Z</time>
      </trkpt>
      <trkpt lat="46.8769" lon="5.75362">
        <ele>498</ele>
        <time>2012-09-18T13:49:50Z</time>
      </trkpt>
      <trkpt lat="46.87705" lon="5.75373">
        <ele>498</ele>
        <time>2012-09-18T13:49:52Z</time>
      </trkpt>
      <trkpt lat="46.8772" lon="5.75384">
        <ele>498</ele>
        <time>2012-09-18T13:49:54Z</time>
      </trkpt>
      <trkpt lat="46.87728" lon="5.75391">
        <ele>498</ele>
        <time>2012-09-18T13:49:55Z</time>
      </trkpt>
      <trkpt lat="46.87745" lon="5.75402">
        <ele>498</ele>
        <time>2012-09-18T13:49:57Z</time>
      </trkpt>
      <trkpt lat="46.87753" lon="5.75409">
        <ele>498</ele>
        <time>2012-09-18T13:49:58Z</time>
      </trkpt>
      <trkpt lat="46.87762" lon="5.75415">
        <ele>498</ele>
        <time>2012-09-18T13:49:59Z</time>
      </trkpt>
      <trkpt lat="46.8777" lon="5.75422">
        <ele>498</ele>
        <time>2012-09-18T13:50:00Z</time>
      </trkpt>
      <trkpt lat="46.8778" lon="5.75429">
        <ele>498</ele>
        <time>2012-09-18T13:50:01Z</time>
      </trkpt>
      <trkpt lat="46.87789" lon="5.75437">
        <ele>493</ele>
        <time>2012-09-18T13:50:02Z</time>
      </trkpt>
      <trkpt lat="46.87798" lon="5.75443">
        <ele>493</ele>
        <time>2012-09-18T13:50:03Z</time>
      </trkpt>
      <trkpt lat="46.87808" lon="5.7545">
        <ele>493</ele>
        <time>2012-09-18T13:50:04Z</time>
      </trkpt>
      <trkpt lat="46.87818" lon="5.75457">
        <ele>493</ele>
        <time>2012-09-18T13:50:05Z</time>
      </trkpt>
      <trkpt lat="46.87828" lon="5.75464">
        <ele>493</ele>
        <time>2012-09-18T13:50:06Z</time>
      </trkpt>
      <trkpt lat="46.87838" lon="5.75471">
        <ele>493</ele>
        <time>2012-09-18T13:50:07Z</time>
      </trkpt>
      <trkpt lat="46.87847" lon="5.75478">
        <ele>493</ele>
        <time>2012-09-18T13:50:08Z</time>
      </trkpt>
      <trkpt lat="46.87857" lon="5.75484">
        <ele>493</ele>
        <time>2012-09-18T13:50:09Z</time>
      </trkpt>
      <trkpt lat="46.87867" lon="5.75491">
        <ele>493</ele>
        <time>2012-09-18T13:50:10Z</time>
      </trkpt>
      <trkpt lat="46.87876" lon="5.75498">
        <ele>493</ele>
        <time>2012-09-18T13:50:11Z</time>
      </trkpt>
      <trkpt lat="46.87885" lon="5.75504">
        <ele>493</ele>
        <time>2012-09-18T13:50:12Z</time>
      </trkpt>
      <trkpt lat="46.87893" lon="5.7551">
        <ele>493</ele>
        <time>2012-09-18T13:50:13Z</time>
      </trkpt>
      <trkpt lat="46.87908" lon="5.75523">
        <ele>487</ele>
        <time>2012-09-18T13:50:15Z</time>
      </trkpt>
      <trkpt lat="46.87922" lon="5.75534">
        <ele>487</ele>
        <time>2012-09-18T13:50:17Z</time>
      </trkpt>
      <trkpt lat="46.87937" lon="5.75547">
        <ele>487</ele>
        <time>2012-09-18T13:50:19Z</time>
      </trkpt>
      <trkpt lat="46.87946" lon="5.75553">
        <ele>487</ele>
        <time>2012-09-18T13:50:20Z</time>
      </trkpt>
      <trkpt lat="46.87961" lon="5.75566">
        <ele>487</ele>
        <time>2012-09-18T13:50:22Z</time>
      </trkpt>
      <trkpt lat="46.87975" lon="5.75578">
        <ele>482</ele>
        <time>2012-09-18T13:50:24Z</time>
      </trkpt>
      <trkpt lat="46.87988" lon="5.75589">
        <ele>482</ele>
        <time>2012-09-18T13:50:26Z</time>
      </trkpt>
      <trkpt lat="46.88001" lon="5.75601">
        <ele>482</ele>
        <time>2012-09-18T13:50:28Z</time>
      </trkpt>
      <trkpt lat="46.88012" lon="5.75613">
        <ele>482</ele>
        <time>2012-09-18T13:50:30Z</time>
      </trkpt>
      <trkpt lat="46.88022" lon="5.75622">
        <ele>482</ele>
        <time>2012-09-18T13:50:32Z</time>
      </trkpt>
      <trkpt lat="46.8803" lon="5.75631">
        <ele>482</ele>
        <time>2012-09-18T13:50:34Z</time>
      </trkpt>
      <trkpt lat="46.88038" lon="5.75637">
        <ele>482</ele>
        <time>2012-09-18T13:50:37Z</time>
      </trkpt>
      <trkpt lat="46.88046" lon="5.75644">
        <ele>482</ele>
        <time>2012-09-18T13:50:43Z</time>
      </trkpt>
      <trkpt lat="46.8804" lon="5.75634">
        <ele>482</ele>
        <time>2012-09-18T13:51:24Z</time>
      </trkpt>
      <trkpt lat="46.88049" lon="5.75625">
        <ele>482</ele>
        <time>2012-09-18T13:51:32Z</time>
      </trkpt>
      <trkpt lat="46.88058" lon="5.75613">
        <ele>482</ele>
        <time>2012-09-18T13:51:36Z</time>
      </trkpt>
      <trkpt lat="46.88065" lon="5.75602">
        <ele>482</ele>
        <time>2012-09-18T13:51:39Z</time>
      </trkpt>
      <trkpt lat="46.88072" lon="5.75592">
        <ele>482</ele>
        <time>2012-09-18T13:51:44Z</time>
      </trkpt>
      <trkpt lat="46.88065" lon="5.756">
        <ele>482</ele>
        <time>2012-09-18T13:51:53Z</time>
      </trkpt>
      <trkpt lat="46.88059" lon="5.75615">
        <ele>482</ele>
        <time>2012-09-18T13:51:57Z</time>
      </trkpt>
      <trkpt lat="46.88053" lon="5.75626">
        <ele>482</ele>
        <time>2012-09-18T13:52:00Z</time>
      </trkpt>
      <trkpt lat="46.88049" lon="5.7564">
        <ele>482</ele>
        <time>2012-09-18T13:52:05Z</time>
      </trkpt>
      <trkpt lat="46.88046" lon="5.75653">
        <ele>476</ele>
        <time>2012-09-18T13:52:28Z</time>
      </trkpt>
      <trkpt lat="46.88054" lon="5.7566">
        <ele>487</ele>
        <time>2012-09-18T13:59:47Z</time>
      </trkpt>
      <trkpt lat="46.88063" lon="5.75667">
        <ele>487</ele>
        <time>2012-09-18T13:59:50Z</time>
      </trkpt>
      <trkpt lat="46.88071" lon="5.75675">
        <ele>487</ele>
        <time>2012-09-18T13:59:52Z</time>
      </trkpt>
      <trkpt lat="46.8808" lon="5.75682">
        <ele>487</ele>
        <time>2012-09-18T13:59:54Z</time>
      </trkpt>
      <trkpt lat="46.88089" lon="5.75691">
        <ele>487</ele>
        <time>2012-09-18T13:59:56Z</time>
      </trkpt>
      <trkpt lat="46.88099" lon="5.75701">
        <ele>482</ele>
        <time>2012-09-18T13:59:58Z</time>
      </trkpt>
      <trkpt lat="46.88109" lon="5.75711">
        <ele>482</ele>
        <time>2012-09-18T14:00:00Z</time>
      </trkpt>
      <trkpt lat="46.8812" lon="5.75722">
        <ele>482</ele>
        <time>2012-09-18T14:00:02Z</time>
      </trkpt>
      <trkpt lat="46.88131" lon="5.75733">
        <ele>482</ele>
        <time>2012-09-18T14:00:04Z</time>
      </trkpt>
      <trkpt lat="46.88141" lon="5.75745">
        <ele>476</ele>
        <time>2012-09-18T14:00:06Z</time>
      </trkpt>
      <trkpt lat="46.88152" lon="5.75756">
        <ele>476</ele>
        <time>2012-09-18T14:00:08Z</time>
      </trkpt>
      <trkpt lat="46.8816" lon="5.75764">
        <ele>476</ele>
        <time>2012-09-18T14:00:10Z</time>
      </trkpt>
      <trkpt lat="46.8817" lon="5.75776">
        <ele>471</ele>
        <time>2012-09-18T14:00:13Z</time>
      </trkpt>
      <trkpt lat="46.88177" lon="5.75785">
        <ele>471</ele>
        <time>2012-09-18T14:00:15Z</time>
      </trkpt>
      <trkpt lat="46.88187" lon="5.75799">
        <ele>471</ele>
        <time>2012-09-18T14:00:18Z</time>
      </trkpt>
      <trkpt lat="46.88194" lon="5.7581">
        <ele>471</ele>
        <time>2012-09-18T14:00:20Z</time>
      </trkpt>
      <trkpt lat="46.88201" lon="5.75821">
        <ele>471</ele>
        <time>2012-09-18T14:00:22Z</time>
      </trkpt>
      <trkpt lat="46.88208" lon="5.75834">
        <ele>471</ele>
        <time>2012-09-18T14:00:24Z</time>
      </trkpt>
      <trkpt lat="46.88216" lon="5.75846">
        <ele>471</ele>
        <time>2012-09-18T14:00:26Z</time>
      </trkpt>
      <trkpt lat="46.88224" lon="5.7586">
        <ele>471</ele>
        <time>2012-09-18T14:00:28Z</time>
      </trkpt>
      <trkpt lat="46.88234" lon="5.75874">
        <ele>471</ele>
        <time>2012-09-18T14:00:30Z</time>
      </trkpt>
      <trkpt lat="46.88243" lon="5.75888">
        <ele>465</ele>
        <time>2012-09-18T14:00:32Z</time>
      </trkpt>
      <trkpt lat="46.88253" lon="5.75903">
        <ele>465</ele>
        <time>2012-09-18T14:00:34Z</time>
      </trkpt>
      <trkpt lat="46.88263" lon="5.75917">
        <ele>465</ele>
        <time>2012-09-18T14:00:36Z</time>
      </trkpt>
      <trkpt lat="46.88274" lon="5.75932">
        <ele>465</ele>
        <time>2012-09-18T14:00:38Z</time>
      </trkpt>
      <trkpt lat="46.88284" lon="5.75948">
        <ele>465</ele>
        <time>2012-09-18T14:00:40Z</time>
      </trkpt>
      <trkpt lat="46.88295" lon="5.75963">
        <ele>465</ele>
        <time>2012-09-18T14:00:42Z</time>
      </trkpt>
      <trkpt lat="46.88307" lon="5.7598">
        <ele>465</ele>
        <time>2012-09-18T14:00:44Z</time>
      </trkpt>
      <trkpt lat="46.8832" lon="5.75994">
        <ele>465</ele>
        <time>2012-09-18T14:00:46Z</time>
      </trkpt>
      <trkpt lat="46.88335" lon="5.76006">
        <ele>465</ele>
        <time>2012-09-18T14:00:48Z</time>
      </trkpt>
      <trkpt lat="46.88349" lon="5.76015">
        <ele>459</ele>
        <time>2012-09-18T14:00:50Z</time>
      </trkpt>
      <trkpt lat="46.88365" lon="5.76023">
        <ele>459</ele>
        <time>2012-09-18T14:00:52Z</time>
      </trkpt>
      <trkpt lat="46.8838" lon="5.76032">
        <ele>459</ele>
        <time>2012-09-18T14:00:54Z</time>
      </trkpt>
      <trkpt lat="46.88394" lon="5.76039">
        <ele>459</ele>
        <time>2012-09-18T14:00:56Z</time>
      </trkpt>
      <trkpt lat="46.88408" lon="5.76047">
        <ele>459</ele>
        <time>2012-09-18T14:00:58Z</time>
      </trkpt>
      <trkpt lat="46.88423" lon="5.76054">
        <ele>459</ele>
        <time>2012-09-18T14:01:00Z</time>
      </trkpt>
      <trkpt lat="46.88439" lon="5.76058">
        <ele>459</ele>
        <time>2012-09-18T14:01:02Z</time>
      </trkpt>
      <trkpt lat="46.88457" lon="5.76063">
        <ele>459</ele>
        <time>2012-09-18T14:01:04Z</time>
      </trkpt>
      <trkpt lat="46.88474" lon="5.76068">
        <ele>459</ele>
        <time>2012-09-18T14:01:06Z</time>
      </trkpt>
      <trkpt lat="46.88484" lon="5.76072">
        <ele>459</ele>
        <time>2012-09-18T14:01:07Z</time>
      </trkpt>
      <trkpt lat="46.88492" lon="5.76077">
        <ele>459</ele>
        <time>2012-09-18T14:01:08Z</time>
      </trkpt>
      <trkpt lat="46.88501" lon="5.76083">
        <ele>459</ele>
        <time>2012-09-18T14:01:09Z</time>
      </trkpt>
      <trkpt lat="46.8851" lon="5.76091">
        <ele>459</ele>
        <time>2012-09-18T14:01:10Z</time>
      </trkpt>
      <trkpt lat="46.88518" lon="5.761">
        <ele>459</ele>
        <time>2012-09-18T14:01:11Z</time>
      </trkpt>
      <trkpt lat="46.88526" lon="5.76109">
        <ele>459</ele>
        <time>2012-09-18T14:01:12Z</time>
      </trkpt>
      <trkpt lat="46.88534" lon="5.76119">
        <ele>453</ele>
        <time>2012-09-18T14:01:13Z</time>
      </trkpt>
      <trkpt lat="46.88543" lon="5.76129">
        <ele>453</ele>
        <time>2012-09-18T14:01:14Z</time>
      </trkpt>
      <trkpt lat="46.88552" lon="5.7614">
        <ele>453</ele>
        <time>2012-09-18T14:01:15Z</time>
      </trkpt>
      <trkpt lat="46.88561" lon="5.76151">
        <ele>453</ele>
        <time>2012-09-18T14:01:16Z</time>
      </trkpt>
      <trkpt lat="46.88572" lon="5.76162">
        <ele>453</ele>
        <time>2012-09-18T14:01:17Z</time>
      </trkpt>
      <trkpt lat="46.88582" lon="5.76172">
        <ele>453</ele>
        <time>2012-09-18T14:01:18Z</time>
      </trkpt>
      <trkpt lat="46.88593" lon="5.76183">
        <ele>453</ele>
        <time>2012-09-18T14:01:19Z</time>
      </trkpt>
      <trkpt lat="46.88603" lon="5.76194">
        <ele>448</ele>
        <time>2012-09-18T14:01:20Z</time>
      </trkpt>
      <trkpt lat="46.88614" lon="5.76204">
        <ele>448</ele>
        <time>2012-09-18T14:01:21Z</time>
      </trkpt>
      <trkpt lat="46.88623" lon="5.76213">
        <ele>448</ele>
        <time>2012-09-18T14:01:22Z</time>
      </trkpt>
      <trkpt lat="46.88635" lon="5.76222">
        <ele>448</ele>
        <time>2012-09-18T14:01:23Z</time>
      </trkpt>
      <trkpt lat="46.88645" lon="5.76231">
        <ele>448</ele>
        <time>2012-09-18T14:01:24Z</time>
      </trkpt>
      <trkpt lat="46.88656" lon="5.76241">
        <ele>448</ele>
        <time>2012-09-18T14:01:25Z</time>
      </trkpt>
      <trkpt lat="46.88667" lon="5.7625">
        <ele>442</ele>
        <time>2012-09-18T14:01:26Z</time>
      </trkpt>
      <trkpt lat="46.88677" lon="5.76261">
        <ele>442</ele>
        <time>2012-09-18T14:01:27Z</time>
      </trkpt>
      <trkpt lat="46.88687" lon="5.76273">
        <ele>442</ele>
        <time>2012-09-18T14:01:28Z</time>
      </trkpt>
      <trkpt lat="46.88696" lon="5.76285">
        <ele>442</ele>
        <time>2012-09-18T14:01:29Z</time>
      </trkpt>
      <trkpt lat="46.88705" lon="5.76295">
        <ele>436</ele>
        <time>2012-09-18T14:01:30Z</time>
      </trkpt>
      <trkpt lat="46.88714" lon="5.76306">
        <ele>436</ele>
        <time>2012-09-18T14:01:31Z</time>
      </trkpt>
      <trkpt lat="46.88723" lon="5.76316">
        <ele>436</ele>
        <time>2012-09-18T14:01:32Z</time>
      </trkpt>
      <trkpt lat="46.88734" lon="5.76326">
        <ele>436</ele>
        <time>2012-09-18T14:01:33Z</time>
      </trkpt>
      <trkpt lat="46.88745" lon="5.76335">
        <ele>436</ele>
        <time>2012-09-18T14:01:34Z</time>
      </trkpt>
      <trkpt lat="46.88757" lon="5.76343">
        <ele>436</ele>
        <time>2012-09-18T14:01:35Z</time>
      </trkpt>
      <trkpt lat="46.88768" lon="5.76351">
        <ele>431</ele>
        <time>2012-09-18T14:01:36Z</time>
      </trkpt>
      <trkpt lat="46.88781" lon="5.76358">
        <ele>431</ele>
        <time>2012-09-18T14:01:37Z</time>
      </trkpt>
      <trkpt lat="46.88792" lon="5.76365">
        <ele>431</ele>
        <time>2012-09-18T14:01:38Z</time>
      </trkpt>
      <trkpt lat="46.88803" lon="5.76371">
        <ele>431</ele>
        <time>2012-09-18T14:01:39Z</time>
      </trkpt>
      <trkpt lat="46.88813" lon="5.76377">
        <ele>431</ele>
        <time>2012-09-18T14:01:40Z</time>
      </trkpt>
      <trkpt lat="46.88824" lon="5.76382">
        <ele>431</ele>
        <time>2012-09-18T14:01:41Z</time>
      </trkpt>
      <trkpt lat="46.88834" lon="5.76387">
        <ele>431</ele>
        <time>2012-09-18T14:01:42Z</time>
      </trkpt>
      <trkpt lat="46.88845" lon="5.7639">
        <ele>431</ele>
        <time>2012-09-18T14:01:43Z</time>
      </trkpt>
      <trkpt lat="46.88856" lon="5.76391">
        <ele>425</ele>
        <time>2012-09-18T14:01:44Z</time>
      </trkpt>
      <trkpt lat="46.88869" lon="5.7639">
        <ele>425</ele>
        <time>2012-09-18T14:01:45Z</time>
      </trkpt>
      <trkpt lat="46.88881" lon="5.76388">
        <ele>425</ele>
        <time>2012-09-18T14:01:46Z</time>
      </trkpt>
      <trkpt lat="46.88893" lon="5.76387">
        <ele>420</ele>
        <time>2012-09-18T14:01:47Z</time>
      </trkpt>
      <trkpt lat="46.88906" lon="5.76385">
        <ele>420</ele>
        <time>2012-09-18T14:01:48Z</time>
      </trkpt>
      <trkpt lat="46.88918" lon="5.76385">
        <ele>420</ele>
        <time>2012-09-18T14:01:49Z</time>
      </trkpt>
      <trkpt lat="46.8893" lon="5.76385">
        <ele>420</ele>
        <time>2012-09-18T14:01:50Z</time>
      </trkpt>
      <trkpt lat="46.88941" lon="5.76388">
        <ele>414</ele>
        <time>2012-09-18T14:01:51Z</time>
      </trkpt>
      <trkpt lat="46.88952" lon="5.76391">
        <ele>414</ele>
        <time>2012-09-18T14:01:52Z</time>
      </trkpt>
      <trkpt lat="46.88962" lon="5.76397">
        <ele>414</ele>
        <time>2012-09-18T14:01:53Z</time>
      </trkpt>
      <trkpt lat="46.88972" lon="5.76403">
        <ele>414</ele>
        <time>2012-09-18T14:01:54Z</time>
      </trkpt>
      <trkpt lat="46.88981" lon="5.76411">
        <ele>414</ele>
        <time>2012-09-18T14:01:55Z</time>
      </trkpt>
      <trkpt lat="46.88991" lon="5.76419">
        <ele>414</ele>
        <time>2012-09-18T14:01:56Z</time>
      </trkpt>
      <trkpt lat="46.89" lon="5.76428">
        <ele>409</ele>
        <time>2012-09-18T14:01:57Z</time>
      </trkpt>
      <trkpt lat="46.8901" lon="5.76438">
        <ele>409</ele>
        <time>2012-09-18T14:01:58Z</time>
      </trkpt>
      <trkpt lat="46.89018" lon="5.76449">
        <ele>409</ele>
        <time>2012-09-18T14:01:59Z</time>
      </trkpt>
      <trkpt lat="46.89026" lon="5.76461">
        <ele>409</ele>
        <time>2012-09-18T14:02:00Z</time>
      </trkpt>
      <trkpt lat="46.89032" lon="5.76472">
        <ele>409</ele>
        <time>2012-09-18T14:02:01Z</time>
      </trkpt>
      <trkpt lat="46.8904" lon="5.76483">
        <ele>409</ele>
        <time>2012-09-18T14:02:02Z</time>
      </trkpt>
      <trkpt lat="46.89048" lon="5.76493">
        <ele>409</ele>
        <time>2012-09-18T14:02:03Z</time>
      </trkpt>
      <trkpt lat="46.89058" lon="5.76502">
        <ele>403</ele>
        <time>2012-09-18T14:02:04Z</time>
      </trkpt>
      <trkpt lat="46.89068" lon="5.76508">
        <ele>403</ele>
        <time>2012-09-18T14:02:05Z</time>
      </trkpt>
      <trkpt lat="46.89079" lon="5.76513">
        <ele>403</ele>
        <time>2012-09-18T14:02:06Z</time>
      </trkpt>
      <trkpt lat="46.8909" lon="5.76515">
        <ele>403</ele>
        <time>2012-09-18T14:02:07Z</time>
      </trkpt>
      <trkpt lat="46.89101" lon="5.76514">
        <ele>403</ele>
        <time>2012-09-18T14:02:08Z</time>
      </trkpt>
      <trkpt lat="46.89111" lon="5.76512">
        <ele>403</ele>
        <time>2012-09-18T14:02:09Z</time>
      </trkpt>
      <trkpt lat="46.89121" lon="5.76509">
        <ele>403</ele>
        <time>2012-09-18T14:02:10Z</time>
      </trkpt>
      <trkpt lat="46.89131" lon="5.76508">
        <ele>403</ele>
        <time>2012-09-18T14:02:11Z</time>
      </trkpt>
      <trkpt lat="46.8914" lon="5.7651">
        <ele>397</ele>
        <time>2012-09-18T14:02:12Z</time>
      </trkpt>
      <trkpt lat="46.89149" lon="5.76515">
        <ele>397</ele>
        <time>2012-09-18T14:02:13Z</time>
      </trkpt>
      <trkpt lat="46.89157" lon="5.76524">
        <ele>397</ele>
        <time>2012-09-18T14:02:14Z</time>
      </trkpt>
      <trkpt lat="46.89165" lon="5.76535">
        <ele>397</ele>
        <time>2012-09-18T14:02:15Z</time>
      </trkpt>
      <trkpt lat="46.89172" lon="5.76547">
        <ele>391</ele>
        <time>2012-09-18T14:02:16Z</time>
      </trkpt>
      <trkpt lat="46.89178" lon="5.76559">
        <ele>391</ele>
        <time>2012-09-18T14:02:17Z</time>
      </trkpt>
      <trkpt lat="46.89184" lon="5.7657">
        <ele>391</ele>
        <time>2012-09-18T14:02:18Z</time>
      </trkpt>
      <trkpt lat="46.89191" lon="5.7658">
        <ele>391</ele>
        <time>2012-09-18T14:02:19Z</time>
      </trkpt>
      <trkpt lat="46.89197" lon="5.76589">
        <ele>391</ele>
        <time>2012-09-18T14:02:20Z</time>
      </trkpt>
      <trkpt lat="46.89205" lon="5.76596">
        <ele>391</ele>
        <time>2012-09-18T14:02:21Z</time>
      </trkpt>
      <trkpt lat="46.89214" lon="5.76602">
        <ele>391</ele>
        <time>2012-09-18T14:02:22Z</time>
      </trkpt>
      <trkpt lat="46.89223" lon="5.76606">
        <ele>391</ele>
        <time>2012-09-18T14:02:23Z</time>
      </trkpt>
      <trkpt lat="46.89232" lon="5.76609">
        <ele>391</ele>
        <time>2012-09-18T14:02:24Z</time>
      </trkpt>
      <trkpt lat="46.89247" lon="5.76601">
        <ele>386</ele>
        <time>2012-09-18T14:02:26Z</time>
      </trkpt>
      <trkpt lat="46.89254" lon="5.76592">
        <ele>386</ele>
        <time>2012-09-18T14:02:27Z</time>
      </trkpt>
      <trkpt lat="46.89263" lon="5.76585">
        <ele>386</ele>
        <time>2012-09-18T14:02:28Z</time>
      </trkpt>
      <trkpt lat="46.89271" lon="5.76577">
        <ele>386</ele>
        <time>2012-09-18T14:02:29Z</time>
      </trkpt>
      <trkpt lat="46.89281" lon="5.76569">
        <ele>386</ele>
        <time>2012-09-18T14:02:30Z</time>
      </trkpt>
      <trkpt lat="46.8929" lon="5.76565">
        <ele>386</ele>
        <time>2012-09-18T14:02:31Z</time>
      </trkpt>
      <trkpt lat="46.89302" lon="5.76563">
        <ele>386</ele>
        <time>2012-09-18T14:02:32Z</time>
      </trkpt>
      <trkpt lat="46.89314" lon="5.76563">
        <ele>380</ele>
        <time>2012-09-18T14:02:33Z</time>
      </trkpt>
      <trkpt lat="46.89326" lon="5.76562">
        <ele>380</ele>
        <time>2012-09-18T14:02:34Z</time>
      </trkpt>
      <trkpt lat="46.89338" lon="5.76561">
        <ele>380</ele>
        <time>2012-09-18T14:02:35Z</time>
      </trkpt>
      <trkpt lat="46.8935" lon="5.7656">
        <ele>380</ele>
        <time>2012-09-18T14:02:36Z</time>
      </trkpt>
      <trkpt lat="46.89362" lon="5.7656">
        <ele>380</ele>
        <time>2012-09-18T14:02:37Z</time>
      </trkpt>
      <trkpt lat="46.89374" lon="5.76561">
        <ele>380</ele>
        <time>2012-09-18T14:02:38Z</time>
      </trkpt>
      <trkpt lat="46.89385" lon="5.76562">
        <ele>380</ele>
        <time>2012-09-18T14:02:39Z</time>
      </trkpt>
      <trkpt lat="46.89396" lon="5.76564">
        <ele>374</ele>
        <time>2012-09-18T14:02:40Z</time>
      </trkpt>
      <trkpt lat="46.89407" lon="5.76566">
        <ele>374</ele>
        <time>2012-09-18T14:02:41Z</time>
      </trkpt>
      <trkpt lat="46.89417" lon="5.76568">
        <ele>374</ele>
        <time>2012-09-18T14:02:42Z</time>
      </trkpt>
      <trkpt lat="46.89427" lon="5.76574">
        <ele>374</ele>
        <time>2012-09-18T14:02:43Z</time>
      </trkpt>
      <trkpt lat="46.89436" lon="5.76579">
        <ele>374</ele>
        <time>2012-09-18T14:02:44Z</time>
      </trkpt>
      <trkpt lat="46.89444" lon="5.76586">
        <ele>374</ele>
        <time>2012-09-18T14:02:45Z</time>
      </trkpt>
      <trkpt lat="46.89453" lon="5.76594">
        <ele>368</ele>
        <time>2012-09-18T14:02:46Z</time>
      </trkpt>
      <trkpt lat="46.89462" lon="5.766">
        <ele>368</ele>
        <time>2012-09-18T14:02:47Z</time>
      </trkpt>
      <trkpt lat="46.89471" lon="5.76604">
        <ele>368</ele>
        <time>2012-09-18T14:02:48Z</time>
      </trkpt>
      <trkpt lat="46.8948" lon="5.76606">
        <ele>368</ele>
        <time>2012-09-18T14:02:49Z</time>
      </trkpt>
      <trkpt lat="46.8949" lon="5.76607">
        <ele>368</ele>
        <time>2012-09-18T14:02:50Z</time>
      </trkpt>
      <trkpt lat="46.89499" lon="5.76605">
        <ele>363</ele>
        <time>2012-09-18T14:02:51Z</time>
      </trkpt>
      <trkpt lat="46.89508" lon="5.76602">
        <ele>363</ele>
        <time>2012-09-18T14:02:52Z</time>
      </trkpt>
      <trkpt lat="46.89517" lon="5.76596">
        <ele>363</ele>
        <time>2012-09-18T14:02:53Z</time>
      </trkpt>
      <trkpt lat="46.89526" lon="5.76588">
        <ele>363</ele>
        <time>2012-09-18T14:02:54Z</time>
      </trkpt>
      <trkpt lat="46.89535" lon="5.7658">
        <ele>363</ele>
        <time>2012-09-18T14:02:55Z</time>
      </trkpt>
      <trkpt lat="46.89543" lon="5.76572">
        <ele>357</ele>
        <time>2012-09-18T14:02:56Z</time>
      </trkpt>
      <trkpt lat="46.89551" lon="5.76564">
        <ele>357</ele>
        <time>2012-09-18T14:02:57Z</time>
      </trkpt>
      <trkpt lat="46.89563" lon="5.76544">
        <ele>357</ele>
        <time>2012-09-18T14:02:59Z</time>
      </trkpt>
      <trkpt lat="46.89568" lon="5.76533">
        <ele>357</ele>
        <time>2012-09-18T14:03:00Z</time>
      </trkpt>
      <trkpt lat="46.89574" lon="5.7651">
        <ele>357</ele>
        <time>2012-09-18T14:03:02Z</time>
      </trkpt>
      <trkpt lat="46.89581" lon="5.76493">
        <ele>357</ele>
        <time>2012-09-18T14:03:04Z</time>
      </trkpt>
      <trkpt lat="46.89592" lon="5.76488">
        <ele>352</ele>
        <time>2012-09-18T14:03:06Z</time>
      </trkpt>
      <trkpt lat="46.89601" lon="5.76499">
        <ele>352</ele>
        <time>2012-09-18T14:03:08Z</time>
      </trkpt>
      <trkpt lat="46.89601" lon="5.7652">
        <ele>352</ele>
        <time>2012-09-18T14:03:10Z</time>
      </trkpt>
      <trkpt lat="46.89595" lon="5.76542">
        <ele>352</ele>
        <time>2012-09-18T14:03:12Z</time>
      </trkpt>
      <trkpt lat="46.89593" lon="5.76555">
        <ele>352</ele>
        <time>2012-09-18T14:03:13Z</time>
      </trkpt>
      <trkpt lat="46.8959" lon="5.76568">
        <ele>352</ele>
        <time>2012-09-18T14:03:14Z</time>
      </trkpt>
      <trkpt lat="46.89588" lon="5.76581">
        <ele>352</ele>
        <time>2012-09-18T14:03:15Z</time>
      </trkpt>
      <trkpt lat="46.89585" lon="5.76594">
        <ele>347</ele>
        <time>2012-09-18T14:03:16Z</time>
      </trkpt>
      <trkpt lat="46.89584" lon="5.7661">
        <ele>347</ele>
        <time>2012-09-18T14:03:17Z</time>
      </trkpt>
      <trkpt lat="46.89582" lon="5.76624">
        <ele>347</ele>
        <time>2012-09-18T14:03:18Z</time>
      </trkpt>
      <trkpt lat="46.89579" lon="5.7664">
        <ele>347</ele>
        <time>2012-09-18T14:03:19Z</time>
      </trkpt>
      <trkpt lat="46.89577" lon="5.76656">
        <ele>347</ele>
        <time>2012-09-18T14:03:20Z</time>
      </trkpt>
      <trkpt lat="46.89574" lon="5.76673">
        <ele>347</ele>
        <time>2012-09-18T14:03:21Z</time>
      </trkpt>
      <trkpt lat="46.8957" lon="5.76689">
        <ele>347</ele>
        <time>2012-09-18T14:03:22Z</time>
      </trkpt>
      <trkpt lat="46.89565" lon="5.76705">
        <ele>347</ele>
        <time>2012-09-18T14:03:23Z</time>
      </trkpt>
      <trkpt lat="46.89561" lon="5.76722">
        <ele>341</ele>
        <time>2012-09-18T14:03:24Z</time>
      </trkpt>
      <trkpt lat="46.89556" lon="5.76737">
        <ele>341</ele>
        <time>2012-09-18T14:03:25Z</time>
      </trkpt>
      <trkpt lat="46.89552" lon="5.76753">
        <ele>341</ele>
        <time>2012-09-18T14:03:26Z</time>
      </trkpt>
      <trkpt lat="46.89547" lon="5.76768">
        <ele>341</ele>
        <time>2012-09-18T14:03:27Z</time>
      </trkpt>
      <trkpt lat="46.89542" lon="5.76781">
        <ele>341</ele>
        <time>2012-09-18T14:03:28Z</time>
      </trkpt>
      <trkpt lat="46.89538" lon="5.76794">
        <ele>341</ele>
        <time>2012-09-18T14:03:29Z</time>
      </trkpt>
      <trkpt lat="46.89532" lon="5.76806">
        <ele>341</ele>
        <time>2012-09-18T14:03:30Z</time>
      </trkpt>
      <trkpt lat="46.89526" lon="5.76815">
        <ele>335</ele>
        <time>2012-09-18T14:03:31Z</time>
      </trkpt>
      <trkpt lat="46.89512" lon="5.7683">
        <ele>335</ele>
        <time>2012-09-18T14:03:33Z</time>
      </trkpt>
      <trkpt lat="46.89502" lon="5.76833">
        <ele>335</ele>
        <time>2012-09-18T14:03:34Z</time>
      </trkpt>
      <trkpt lat="46.89492" lon="5.76836">
        <ele>335</ele>
        <time>2012-09-18T14:03:35Z</time>
      </trkpt>
      <trkpt lat="46.89483" lon="5.76839">
        <ele>335</ele>
        <time>2012-09-18T14:03:36Z</time>
      </trkpt>
      <trkpt lat="46.89473" lon="5.76841">
        <ele>335</ele>
        <time>2012-09-18T14:03:37Z</time>
      </trkpt>
      <trkpt lat="46.89463" lon="5.76842">
        <ele>335</ele>
        <time>2012-09-18T14:03:38Z</time>
      </trkpt>
      <trkpt lat="46.89454" lon="5.76845">
        <ele>330</ele>
        <time>2012-09-18T14:03:39Z</time>
      </trkpt>
      <trkpt lat="46.89438" lon="5.76852">
        <ele>330</ele>
        <time>2012-09-18T14:03:41Z</time>
      </trkpt>
      <trkpt lat="46.89425" lon="5.76865">
        <ele>330</ele>
        <time>2012-09-18T14:03:43Z</time>
      </trkpt>
      <trkpt lat="46.89417" lon="5.76884">
        <ele>330</ele>
        <time>2012-09-18T14:03:45Z</time>
      </trkpt>
      <trkpt lat="46.89417" lon="5.76904">
        <ele>324</ele>
        <time>2012-09-18T14:03:47Z</time>
      </trkpt>
      <trkpt lat="46.89425" lon="5.76921">
        <ele>324</ele>
        <time>2012-09-18T14:03:49Z</time>
      </trkpt>
      <trkpt lat="46.89439" lon="5.76934">
        <ele>324</ele>
        <time>2012-09-18T14:03:51Z</time>
      </trkpt>
      <trkpt lat="46.89455" lon="5.76944">
        <ele>324</ele>
        <time>2012-09-18T14:03:53Z</time>
      </trkpt>
      <trkpt lat="46.89464" lon="5.7695">
        <ele>324</ele>
        <time>2012-09-18T14:03:54Z</time>
      </trkpt>
      <trkpt lat="46.89473" lon="5.76956">
        <ele>324</ele>
        <time>2012-09-18T14:03:55Z</time>
      </trkpt>
      <trkpt lat="46.89482" lon="5.76962">
        <ele>324</ele>
        <time>2012-09-18T14:03:56Z</time>
      </trkpt>
      <trkpt lat="46.89491" lon="5.76969">
        <ele>324</ele>
        <time>2012-09-18T14:03:57Z</time>
      </trkpt>
      <trkpt lat="46.89499" lon="5.76976">
        <ele>324</ele>
        <time>2012-09-18T14:03:58Z</time>
      </trkpt>
      <trkpt lat="46.89508" lon="5.76983">
        <ele>324</ele>
        <time>2012-09-18T14:03:59Z</time>
      </trkpt>
      <trkpt lat="46.89517" lon="5.76991">
        <ele>319</ele>
        <time>2012-09-18T14:04:00Z</time>
      </trkpt>
      <trkpt lat="46.89526" lon="5.76999">
        <ele>319</ele>
        <time>2012-09-18T14:04:01Z</time>
      </trkpt>
      <trkpt lat="46.89534" lon="5.77006">
        <ele>319</ele>
        <time>2012-09-18T14:04:02Z</time>
      </trkpt>
      <trkpt lat="46.89544" lon="5.77014">
        <ele>319</ele>
        <time>2012-09-18T14:04:03Z</time>
      </trkpt>
      <trkpt lat="46.89552" lon="5.77021">
        <ele>319</ele>
        <time>2012-09-18T14:04:04Z</time>
      </trkpt>
      <trkpt lat="46.89561" lon="5.77028">
        <ele>319</ele>
        <time>2012-09-18T14:04:05Z</time>
      </trkpt>
      <trkpt lat="46.8957" lon="5.77036">
        <ele>319</ele>
        <time>2012-09-18T14:04:06Z</time>
      </trkpt>
      <trkpt lat="46.89579" lon="5.77043">
        <ele>319</ele>
        <time>2012-09-18T14:04:07Z</time>
      </trkpt>
      <trkpt lat="46.89588" lon="5.7705">
        <ele>319</ele>
        <time>2012-09-18T14:04:08Z</time>
      </trkpt>
      <trkpt lat="46.89598" lon="5.77058">
        <ele>319</ele>
        <time>2012-09-18T14:04:09Z</time>
      </trkpt>
      <trkpt lat="46.89606" lon="5.77064">
        <ele>313</ele>
        <time>2012-09-18T14:04:10Z</time>
      </trkpt>
      <trkpt lat="46.89615" lon="5.77071">
        <ele>313</ele>
        <time>2012-09-18T14:04:11Z</time>
      </trkpt>
      <trkpt lat="46.89624" lon="5.77077">
        <ele>313</ele>
        <time>2012-09-18T14:04:12Z</time>
      </trkpt>
      <trkpt lat="46.89633" lon="5.77082">
        <ele>313</ele>
        <time>2012-09-18T14:04:13Z</time>
      </trkpt>
      <trkpt lat="46.89642" lon="5.77088">
        <ele>313</ele>
        <time>2012-09-18T14:04:14Z</time>
      </trkpt>
      <trkpt lat="46.89651" lon="5.77093">
        <ele>313</ele>
        <time>2012-09-18T14:04:15Z</time>
      </trkpt>
      <trkpt lat="46.89661" lon="5.77098">
        <ele>313</ele>
        <time>2012-09-18T14:04:16Z</time>
      </trkpt>
      <trkpt lat="46.8967" lon="5.77102">
        <ele>313</ele>
        <time>2012-09-18T14:04:17Z</time>
      </trkpt>
      <trkpt lat="46.8968" lon="5.77106">
        <ele>313</ele>
        <time>2012-09-18T14:04:18Z</time>
      </trkpt>
      <trkpt lat="46.89689" lon="5.7711">
        <ele>313</ele>
        <time>2012-09-18T14:04:19Z</time>
      </trkpt>
      <trkpt lat="46.89699" lon="5.77114">
        <ele>313</ele>
        <time>2012-09-18T14:04:20Z</time>
      </trkpt>
      <trkpt lat="46.89708" lon="5.77118">
        <ele>313</ele>
        <time>2012-09-18T14:04:21Z</time>
      </trkpt>
      <trkpt lat="46.89717" lon="5.77122">
        <ele>313</ele>
        <time>2012-09-18T14:04:22Z</time>
      </trkpt>
      <trkpt lat="46.89725" lon="5.77125">
        <ele>313</ele>
        <time>2012-09-18T14:04:23Z</time>
      </trkpt>
      <trkpt lat="46.89734" lon="5.77129">
        <ele>313</ele>
        <time>2012-09-18T14:04:24Z</time>
      </trkpt>
      <trkpt lat="46.89743" lon="5.77133">
        <ele>313</ele>
        <time>2012-09-18T14:04:25Z</time>
      </trkpt>
      <trkpt lat="46.89752" lon="5.77138">
        <ele>313</ele>
        <time>2012-09-18T14:04:26Z</time>
      </trkpt>
      <trkpt lat="46.8976" lon="5.77143">
        <ele>308</ele>
        <time>2012-09-18T14:04:27Z</time>
      </trkpt>
      <trkpt lat="46.89768" lon="5.7715">
        <ele>308</ele>
        <time>2012-09-18T14:04:28Z</time>
      </trkpt>
      <trkpt lat="46.89777" lon="5.77155">
        <ele>308</ele>
        <time>2012-09-18T14:04:29Z</time>
      </trkpt>
      <trkpt lat="46.89785" lon="5.77161">
        <ele>308</ele>
        <time>2012-09-18T14:04:30Z</time>
      </trkpt>
      <trkpt lat="46.89794" lon="5.77168">
        <ele>308</ele>
        <time>2012-09-18T14:04:31Z</time>
      </trkpt>
      <trkpt lat="46.89802" lon="5.77174">
        <ele>308</ele>
        <time>2012-09-18T14:04:32Z</time>
      </trkpt>
      <trkpt lat="46.89816" lon="5.77186">
        <ele>308</ele>
        <time>2012-09-18T14:04:34Z</time>
      </trkpt>
      <trkpt lat="46.89832" lon="5.77197">
        <ele>308</ele>
        <time>2012-09-18T14:04:36Z</time>
      </trkpt>
      <trkpt lat="46.89847" lon="5.77206">
        <ele>308</ele>
        <time>2012-09-18T14:04:38Z</time>
      </trkpt>
      <trkpt lat="46.89862" lon="5.77214">
        <ele>308</ele>
        <time>2012-09-18T14:04:40Z</time>
      </trkpt>
      <trkpt lat="46.89878" lon="5.7722">
        <ele>308</ele>
        <time>2012-09-18T14:04:42Z</time>
      </trkpt>
      <trkpt lat="46.89893" lon="5.77222">
        <ele>308</ele>
        <time>2012-09-18T14:04:44Z</time>
      </trkpt>
      <trkpt lat="46.89907" lon="5.77225">
        <ele>308</ele>
        <time>2012-09-18T14:04:46Z</time>
      </trkpt>
      <trkpt lat="46.89922" lon="5.77225">
        <ele>308</ele>
        <time>2012-09-18T14:04:48Z</time>
      </trkpt>
      <trkpt lat="46.89936" lon="5.77225">
        <ele>308</ele>
        <time>2012-09-18T14:04:50Z</time>
      </trkpt>
      <trkpt lat="46.89952" lon="5.77226">
        <ele>308</ele>
        <time>2012-09-18T14:04:52Z</time>
      </trkpt>
      <trkpt lat="46.89967" lon="5.77227">
        <ele>308</ele>
        <time>2012-09-18T14:04:54Z</time>
      </trkpt>
      <trkpt lat="46.89981" lon="5.77233">
        <ele>308</ele>
        <time>2012-09-18T14:04:56Z</time>
      </trkpt>
      <trkpt lat="46.89992" lon="5.77248">
        <ele>308</ele>
        <time>2012-09-18T14:04:58Z</time>
      </trkpt>
      <trkpt lat="46.90001" lon="5.77266">
        <ele>308</ele>
        <time>2012-09-18T14:05:00Z</time>
      </trkpt>
      <trkpt lat="46.90009" lon="5.77284">
        <ele>303</ele>
        <time>2012-09-18T14:05:02Z</time>
      </trkpt>
      <trkpt lat="46.90016" lon="5.77299">
        <ele>303</ele>
        <time>2012-09-18T14:05:04Z</time>
      </trkpt>
      <trkpt lat="46.90021" lon="5.77311">
        <ele>303</ele>
        <time>2012-09-18T14:05:06Z</time>
      </trkpt>
      <trkpt lat="46.90028" lon="5.77322">
        <ele>303</ele>
        <time>2012-09-18T14:05:09Z</time>
      </trkpt>
      <trkpt lat="46.90039" lon="5.77324">
        <ele>303</ele>
        <time>2012-09-18T14:05:15Z</time>
      </trkpt>
      <trkpt lat="46.90047" lon="5.77319">
        <ele>303</ele>
        <time>2012-09-18T14:05:17Z</time>
      </trkpt>
      <trkpt lat="46.90057" lon="5.7731">
        <ele>303</ele>
        <time>2012-09-18T14:05:19Z</time>
      </trkpt>
      <trkpt lat="46.90068" lon="5.773">
        <ele>303</ele>
        <time>2012-09-18T14:05:21Z</time>
      </trkpt>
      <trkpt lat="46.9008" lon="5.77288">
        <ele>303</ele>
        <time>2012-09-18T14:05:23Z</time>
      </trkpt>
      <trkpt lat="46.90092" lon="5.77277">
        <ele>303</ele>
        <time>2012-09-18T14:05:25Z</time>
      </trkpt>
      <trkpt lat="46.90105" lon="5.77266">
        <ele>303</ele>
        <time>2012-09-18T14:05:27Z</time>
      </trkpt>
      <trkpt lat="46.90119" lon="5.77254">
        <ele>303</ele>
        <time>2012-09-18T14:05:29Z</time>
      </trkpt>
      <trkpt lat="46.90132" lon="5.77241">
        <ele>303</ele>
        <time>2012-09-18T14:05:31Z</time>
      </trkpt>
      <trkpt lat="46.90145" lon="5.7723">
        <ele>303</ele>
        <time>2012-09-18T14:05:33Z</time>
      </trkpt>
      <trkpt lat="46.90158" lon="5.77218">
        <ele>303</ele>
        <time>2012-09-18T14:05:35Z</time>
      </trkpt>
      <trkpt lat="46.9017" lon="5.77207">
        <ele>303</ele>
        <time>2012-09-18T14:05:37Z</time>
      </trkpt>
      <trkpt lat="46.90182" lon="5.77197">
        <ele>303</ele>
        <time>2012-09-18T14:05:39Z</time>
      </trkpt>
      <trkpt lat="46.90193" lon="5.77187">
        <ele>303</ele>
        <time>2012-09-18T14:05:41Z</time>
      </trkpt>
      <trkpt lat="46.90201" lon="5.77183">
        <ele>303</ele>
        <time>2012-09-18T14:05:43Z</time>
      </trkpt>
      <trkpt lat="46.90213" lon="5.77186">
        <ele>303</ele>
        <time>2012-09-18T14:05:46Z</time>
      </trkpt>
      <trkpt lat="46.90221" lon="5.77195">
        <ele>303</ele>
        <time>2012-09-18T14:05:48Z</time>
      </trkpt>
      <trkpt lat="46.90232" lon="5.77205">
        <ele>303</ele>
        <time>2012-09-18T14:05:50Z</time>
      </trkpt>
      <trkpt lat="46.90242" lon="5.77217">
        <ele>303</ele>
        <time>2012-09-18T14:05:52Z</time>
      </trkpt>
      <trkpt lat="46.90253" lon="5.77229">
        <ele>303</ele>
        <time>2012-09-18T14:05:54Z</time>
      </trkpt>
      <trkpt lat="46.90264" lon="5.77239">
        <ele>303</ele>
        <time>2012-09-18T14:05:56Z</time>
      </trkpt>
      <trkpt lat="46.90274" lon="5.7725">
        <ele>303</ele>
        <time>2012-09-18T14:05:58Z</time>
      </trkpt>
      <trkpt lat="46.90284" lon="5.77257">
        <ele>303</ele>
        <time>2012-09-18T14:06:00Z</time>
      </trkpt>
      <trkpt lat="46.90292" lon="5.77265">
        <ele>303</ele>
        <time>2012-09-18T14:06:02Z</time>
      </trkpt>
      <trkpt lat="46.903" lon="5.77273">
        <ele>303</ele>
        <time>2012-09-18T14:06:04Z</time>
      </trkpt>
      <trkpt lat="46.90308" lon="5.77284">
        <ele>310</ele>
        <time>2012-09-18T14:06:06Z</time>
      </trkpt>
      <trkpt lat="46.90314" lon="5.77296">
        <ele>310</ele>
        <time>2012-09-18T14:06:09Z</time>
      </trkpt>
      <trkpt lat="46.90327" lon="5.77303">
        <ele>310</ele>
        <time>2012-09-18T14:06:12Z</time>
      </trkpt>
      <trkpt lat="46.90336" lon="5.7731">
        <ele>310</ele>
        <time>2012-09-18T14:06:14Z</time>
      </trkpt>
      <trkpt lat="46.90345" lon="5.77321">
        <ele>310</ele>
        <time>2012-09-18T14:06:16Z</time>
      </trkpt>
      <trkpt lat="46.90354" lon="5.77331">
        <ele>310</ele>
        <time>2012-09-18T14:06:18Z</time>
      </trkpt>
      <trkpt lat="46.90363" lon="5.77343">
        <ele>310</ele>
        <time>2012-09-18T14:06:20Z</time>
      </trkpt>
      <trkpt lat="46.90372" lon="5.77354">
        <ele>310</ele>
        <time>2012-09-18T14:06:22Z</time>
      </trkpt>
      <trkpt lat="46.90381" lon="5.77364">
        <ele>310</ele>
        <time>2012-09-18T14:06:24Z</time>
      </trkpt>
      <trkpt lat="46.90393" lon="5.77368">
        <ele>310</ele>
        <time>2012-09-18T14:06:26Z</time>
      </trkpt>
      <trkpt lat="46.90403" lon="5.77359">
        <ele>310</ele>
        <time>2012-09-18T14:06:28Z</time>
      </trkpt>
      <trkpt lat="46.90414" lon="5.77344">
        <ele>310</ele>
        <time>2012-09-18T14:06:30Z</time>
      </trkpt>
      <trkpt lat="46.90425" lon="5.77324">
        <ele>310</ele>
        <time>2012-09-18T14:06:32Z</time>
      </trkpt>
      <trkpt lat="46.90435" lon="5.77305">
        <ele>303</ele>
        <time>2012-09-18T14:06:34Z</time>
      </trkpt>
      <trkpt lat="46.90441" lon="5.77294">
        <ele>303</ele>
        <time>2012-09-18T14:06:35Z</time>
      </trkpt>
      <trkpt lat="46.90451" lon="5.77275">
        <ele>303</ele>
        <time>2012-09-18T14:06:37Z</time>
      </trkpt>
      <trkpt lat="46.90461" lon="5.77252">
        <ele>303</ele>
        <time>2012-09-18T14:06:39Z</time>
      </trkpt>
      <trkpt lat="46.90466" lon="5.77229">
        <ele>303</ele>
        <time>2012-09-18T14:06:41Z</time>
      </trkpt>
      <trkpt lat="46.90467" lon="5.77207">
        <ele>298</ele>
        <time>2012-09-18T14:06:43Z</time>
      </trkpt>
      <trkpt lat="46.9046" lon="5.77187">
        <ele>298</ele>
        <time>2012-09-18T14:06:45Z</time>
      </trkpt>
      <trkpt lat="46.90451" lon="5.77168">
        <ele>298</ele>
        <time>2012-09-18T14:06:47Z</time>
      </trkpt>
      <trkpt lat="46.90442" lon="5.77151">
        <ele>298</ele>
        <time>2012-09-18T14:06:49Z</time>
      </trkpt>
      <trkpt lat="46.90437" lon="5.77136">
        <ele>298</ele>
        <time>2012-09-18T14:06:51Z</time>
      </trkpt>
      <trkpt lat="46.90441" lon="5.77122">
        <ele>298</ele>
        <time>2012-09-18T14:06:53Z</time>
      </trkpt>
      <trkpt lat="46.90452" lon="5.77111">
        <ele>298</ele>
        <time>2012-09-18T14:06:55Z</time>
      </trkpt>
      <trkpt lat="46.90465" lon="5.77102">
        <ele>292</ele>
        <time>2012-09-18T14:06:57Z</time>
      </trkpt>
      <trkpt lat="46.90479" lon="5.77093">
        <ele>292</ele>
        <time>2012-09-18T14:06:59Z</time>
      </trkpt>
      <trkpt lat="46.90494" lon="5.77083">
        <ele>292</ele>
        <time>2012-09-18T14:07:01Z</time>
      </trkpt>
      <trkpt lat="46.90508" lon="5.77071">
        <ele>292</ele>
        <time>2012-09-18T14:07:03Z</time>
      </trkpt>
      <trkpt lat="46.90522" lon="5.77057">
        <ele>287</ele>
        <time>2012-09-18T14:07:05Z</time>
      </trkpt>
      <trkpt lat="46.90536" lon="5.77043">
        <ele>287</ele>
        <time>2012-09-18T14:07:07Z</time>
      </trkpt>
      <trkpt lat="46.90549" lon="5.77031">
        <ele>287</ele>
        <time>2012-09-18T14:07:09Z</time>
      </trkpt>
      <trkpt lat="46.9056" lon="5.77019">
        <ele>287</ele>
        <time>2012-09-18T14:07:11Z</time>
      </trkpt>
      <trkpt lat="46.90571" lon="5.7701">
        <ele>287</ele>
        <time>2012-09-18T14:07:13Z</time>
      </trkpt>
      <trkpt lat="46.9058" lon="5.77002">
        <ele>287</ele>
        <time>2012-09-18T14:07:15Z</time>
      </trkpt>
      <trkpt lat="46.9059" lon="5.76996">
        <ele>287</ele>
        <time>2012-09-18T14:07:17Z</time>
      </trkpt>
      <trkpt lat="46.906" lon="5.76992">
        <ele>287</ele>
        <time>2012-09-18T14:07:20Z</time>
      </trkpt>
      <trkpt lat="46.90611" lon="5.7699">
        <ele>287</ele>
        <time>2012-09-18T14:08:04Z</time>
      </trkpt>
      <trkpt lat="46.90622" lon="5.76982">
        <ele>287</ele>
        <time>2012-09-18T14:08:07Z</time>
      </trkpt>
      <trkpt lat="46.9063" lon="5.76973">
        <ele>287</ele>
        <time>2012-09-18T14:08:09Z</time>
      </trkpt>
      <trkpt lat="46.9064" lon="5.76965">
        <ele>287</ele>
        <time>2012-09-18T14:08:11Z</time>
      </trkpt>
      <trkpt lat="46.90651" lon="5.76958">
        <ele>287</ele>
        <time>2012-09-18T14:08:13Z</time>
      </trkpt>
      <trkpt lat="46.90664" lon="5.76957">
        <ele>287</ele>
        <time>2012-09-18T14:08:15Z</time>
      </trkpt>
      <trkpt lat="46.90676" lon="5.76954">
        <ele>287</ele>
        <time>2012-09-18T14:08:17Z</time>
      </trkpt>
      <trkpt lat="46.90689" lon="5.7695">
        <ele>287</ele>
        <time>2012-09-18T14:08:19Z</time>
      </trkpt>
      <trkpt lat="46.90703" lon="5.76948">
        <ele>287</ele>
        <time>2012-09-18T14:08:21Z</time>
      </trkpt>
      <trkpt lat="46.90716" lon="5.76946">
        <ele>287</ele>
        <time>2012-09-18T14:08:23Z</time>
      </trkpt>
      <trkpt lat="46.9073" lon="5.76946">
        <ele>287</ele>
        <time>2012-09-18T14:08:25Z</time>
      </trkpt>
      <trkpt lat="46.90742" lon="5.76942">
        <ele>287</ele>
        <time>2012-09-18T14:08:27Z</time>
      </trkpt>
      <trkpt lat="46.90756" lon="5.76941">
        <ele>287</ele>
        <time>2012-09-18T14:08:29Z</time>
      </trkpt>
      <trkpt lat="46.90771" lon="5.76939">
        <ele>287</ele>
        <time>2012-09-18T14:08:31Z</time>
      </trkpt>
      <trkpt lat="46.90787" lon="5.76936">
        <ele>287</ele>
        <time>2012-09-18T14:08:33Z</time>
      </trkpt>
      <trkpt lat="46.90801" lon="5.76931">
        <ele>287</ele>
        <time>2012-09-18T14:08:35Z</time>
      </trkpt>
      <trkpt lat="46.90816" lon="5.76929">
        <ele>287</ele>
        <time>2012-09-18T14:08:37Z</time>
      </trkpt>
      <trkpt lat="46.90831" lon="5.76928">
        <ele>287</ele>
        <time>2012-09-18T14:08:39Z</time>
      </trkpt>
      <trkpt lat="46.90846" lon="5.76929">
        <ele>287</ele>
        <time>2012-09-18T14:08:41Z</time>
      </trkpt>
      <trkpt lat="46.9086" lon="5.76934">
        <ele>287</ele>
        <time>2012-09-18T14:08:43Z</time>
      </trkpt>
      <trkpt lat="46.90873" lon="5.76943">
        <ele>287</ele>
        <time>2012-09-18T14:08:45Z</time>
      </trkpt>
      <trkpt lat="46.90885" lon="5.76955">
        <ele>287</ele>
        <time>2012-09-18T14:08:47Z</time>
      </trkpt>
      <trkpt lat="46.90896" lon="5.76967">
        <ele>281</ele>
        <time>2012-09-18T14:08:49Z</time>
      </trkpt>
      <trkpt lat="46.90905" lon="5.76979">
        <ele>281</ele>
        <time>2012-09-18T14:08:51Z</time>
      </trkpt>
      <trkpt lat="46.90913" lon="5.76987">
        <ele>281</ele>
        <time>2012-09-18T14:08:54Z</time>
      </trkpt>
      <trkpt lat="46.90923" lon="5.76993">
        <ele>281</ele>
        <time>2012-09-18T14:08:58Z</time>
      </trkpt>
      <trkpt lat="46.90934" lon="5.76999">
        <ele>281</ele>
        <time>2012-09-18T14:09:02Z</time>
      </trkpt>
      <trkpt lat="46.90946" lon="5.77005">
        <ele>281</ele>
        <time>2012-09-18T14:09:05Z</time>
      </trkpt>
      <trkpt lat="46.90959" lon="5.77011">
        <ele>275</ele>
        <time>2012-09-18T14:09:08Z</time>
      </trkpt>
      <trkpt lat="46.90969" lon="5.77017">
        <ele>275</ele>
        <time>2012-09-18T14:09:10Z</time>
      </trkpt>
      <trkpt lat="46.90982" lon="5.77023">
        <ele>275</ele>
        <time>2012-09-18T14:09:12Z</time>
      </trkpt>
      <trkpt lat="46.90994" lon="5.77028">
        <ele>275</ele>
        <time>2012-09-18T14:09:14Z</time>
      </trkpt>
      <trkpt lat="46.91008" lon="5.77034">
        <ele>275</ele>
        <time>2012-09-18T14:09:16Z</time>
      </trkpt>
      <trkpt lat="46.91021" lon="5.77039">
        <ele>275</ele>
        <time>2012-09-18T14:09:18Z</time>
      </trkpt>
      <trkpt lat="46.91036" lon="5.77043">
        <ele>275</ele>
        <time>2012-09-18T14:09:20Z</time>
      </trkpt>
      <trkpt lat="46.9105" lon="5.77045">
        <ele>275</ele>
        <time>2012-09-18T14:09:22Z</time>
      </trkpt>
      <trkpt lat="46.91064" lon="5.77045">
        <ele>275</ele>
        <time>2012-09-18T14:09:24Z</time>
      </trkpt>
      <trkpt lat="46.91077" lon="5.77046">
        <ele>275</ele>
        <time>2012-09-18T14:09:26Z</time>
      </trkpt>
      <trkpt lat="46.91089" lon="5.77047">
        <ele>275</ele>
        <time>2012-09-18T14:09:28Z</time>
      </trkpt>
      <trkpt lat="46.911" lon="5.77047">
        <ele>275</ele>
        <time>2012-09-18T14:09:30Z</time>
      </trkpt>
      <trkpt lat="46.91111" lon="5.77047">
        <ele>275</ele>
        <time>2012-09-18T14:09:32Z</time>
      </trkpt>
      <trkpt lat="46.91122" lon="5.77047">
        <ele>275</ele>
        <time>2012-09-18T14:09:34Z</time>
      </trkpt>
      <trkpt lat="46.91132" lon="5.77046">
        <ele>275</ele>
        <time>2012-09-18T14:09:36Z</time>
      </trkpt>
      <trkpt lat="46.91142" lon="5.77045">
        <ele>275</ele>
        <time>2012-09-18T14:09:38Z</time>
      </trkpt>
      <trkpt lat="46.91152" lon="5.77044">
        <ele>275</ele>
        <time>2012-09-18T14:09:40Z</time>
      </trkpt>
      <trkpt lat="46.91161" lon="5.77042">
        <ele>275</ele>
        <time>2012-09-18T14:09:42Z</time>
      </trkpt>
      <trkpt lat="46.9117" lon="5.77038">
        <ele>275</ele>
        <time>2012-09-18T14:09:44Z</time>
      </trkpt>
      <trkpt lat="46.91179" lon="5.77026">
        <ele>281</ele>
        <time>2012-09-18T14:09:47Z</time>
      </trkpt>
      <trkpt lat="46.91184" lon="5.77014">
        <ele>281</ele>
        <time>2012-09-18T14:09:49Z</time>
      </trkpt>
      <trkpt lat="46.91193" lon="5.77">
        <ele>281</ele>
        <time>2012-09-18T14:09:51Z</time>
      </trkpt>
      <trkpt lat="46.91204" lon="5.76982">
        <ele>281</ele>
        <time>2012-09-18T14:09:53Z</time>
      </trkpt>
      <trkpt lat="46.91211" lon="5.76973">
        <ele>281</ele>
        <time>2012-09-18T14:09:54Z</time>
      </trkpt>
      <trkpt lat="46.91224" lon="5.76954">
        <ele>281</ele>
        <time>2012-09-18T14:09:56Z</time>
      </trkpt>
      <trkpt lat="46.9123" lon="5.76944">
        <ele>281</ele>
        <time>2012-09-18T14:09:57Z</time>
      </trkpt>
      <trkpt lat="46.91241" lon="5.76923">
        <ele>281</ele>
        <time>2012-09-18T14:09:59Z</time>
      </trkpt>
      <trkpt lat="46.9125" lon="5.76903">
        <ele>276</ele>
        <time>2012-09-18T14:10:01Z</time>
      </trkpt>
      <trkpt lat="46.91259" lon="5.76884">
        <ele>276</ele>
        <time>2012-09-18T14:10:03Z</time>
      </trkpt>
      <trkpt lat="46.91267" lon="5.76865">
        <ele>276</ele>
        <time>2012-09-18T14:10:05Z</time>
      </trkpt>
      <trkpt lat="46.91275" lon="5.76846">
        <ele>276</ele>
        <time>2012-09-18T14:10:07Z</time>
      </trkpt>
      <trkpt lat="46.91284" lon="5.76827">
        <ele>276</ele>
        <time>2012-09-18T14:10:09Z</time>
      </trkpt>
      <trkpt lat="46.91292" lon="5.76811">
        <ele>276</ele>
        <time>2012-09-18T14:10:11Z</time>
      </trkpt>
      <trkpt lat="46.91299" lon="5.76795">
        <ele>276</ele>
        <time>2012-09-18T14:10:13Z</time>
      </trkpt>
      <trkpt lat="46.91307" lon="5.7678">
        <ele>276</ele>
        <time>2012-09-18T14:10:15Z</time>
      </trkpt>
      <trkpt lat="46.91313" lon="5.76765">
        <ele>276</ele>
        <time>2012-09-18T14:10:17Z</time>
      </trkpt>
      <trkpt lat="46.91319" lon="5.76753">
        <ele>276</ele>
        <time>2012-09-18T14:10:19Z</time>
      </trkpt>
      <trkpt lat="46.91325" lon="5.7674">
        <ele>276</ele>
        <time>2012-09-18T14:10:23Z</time>
      </trkpt>
      <trkpt lat="46.91331" lon="5.7673">
        <ele>276</ele>
        <time>2012-09-18T14:10:26Z</time>
      </trkpt>
      <trkpt lat="46.91338" lon="5.76715">
        <ele>276</ele>
        <time>2012-09-18T14:10:29Z</time>
      </trkpt>
      <trkpt lat="46.91346" lon="5.76705">
        <ele>276</ele>
        <time>2012-09-18T14:10:32Z</time>
      </trkpt>
      <trkpt lat="46.91353" lon="5.76695">
        <ele>276</ele>
        <time>2012-09-18T14:10:54Z</time>
      </trkpt>
      <trkpt lat="46.91362" lon="5.76683">
        <ele>276</ele>
        <time>2012-09-18T14:10:57Z</time>
      </trkpt>
      <trkpt lat="46.91369" lon="5.76672">
        <ele>276</ele>
        <time>2012-09-18T14:10:59Z</time>
      </trkpt>
      <trkpt lat="46.91377" lon="5.7666">
        <ele>276</ele>
        <time>2012-09-18T14:11:01Z</time>
      </trkpt>
      <trkpt lat="46.91386" lon="5.76648">
        <ele>276</ele>
        <time>2012-09-18T14:11:03Z</time>
      </trkpt>
      <trkpt lat="46.91394" lon="5.76636">
        <ele>276</ele>
        <time>2012-09-18T14:11:05Z</time>
      </trkpt>
      <trkpt lat="46.914" lon="5.76625">
        <ele>276</ele>
        <time>2012-09-18T14:11:07Z</time>
      </trkpt>
      <trkpt lat="46.91405" lon="5.7661">
        <ele>276</ele>
        <time>2012-09-18T14:11:10Z</time>
      </trkpt>
      <trkpt lat="46.91408" lon="5.76594">
        <ele>276</ele>
        <time>2012-09-18T14:11:13Z</time>
      </trkpt>
      <trkpt lat="46.91412" lon="5.76577">
        <ele>276</ele>
        <time>2012-09-18T14:11:16Z</time>
      </trkpt>
      <trkpt lat="46.91416" lon="5.7656">
        <ele>276</ele>
        <time>2012-09-18T14:11:19Z</time>
      </trkpt>
      <trkpt lat="46.91423" lon="5.76543">
        <ele>276</ele>
        <time>2012-09-18T14:11:22Z</time>
      </trkpt>
      <trkpt lat="46.91429" lon="5.76527">
        <ele>276</ele>
        <time>2012-09-18T14:11:25Z</time>
      </trkpt>
      <trkpt lat="46.91434" lon="5.76515">
        <ele>276</ele>
        <time>2012-09-18T14:11:27Z</time>
      </trkpt>
      <trkpt lat="46.91442" lon="5.76502">
        <ele>276</ele>
        <time>2012-09-18T14:11:29Z</time>
      </trkpt>
      <trkpt lat="46.91448" lon="5.76488">
        <ele>276</ele>
        <time>2012-09-18T14:11:31Z</time>
      </trkpt>
      <trkpt lat="46.91456" lon="5.76475">
        <ele>276</ele>
        <time>2012-09-18T14:11:33Z</time>
      </trkpt>
      <trkpt lat="46.91463" lon="5.76462">
        <ele>276</ele>
        <time>2012-09-18T14:11:35Z</time>
      </trkpt>
      <trkpt lat="46.91471" lon="5.7645">
        <ele>276</ele>
        <time>2012-09-18T14:11:37Z</time>
      </trkpt>
      <trkpt lat="46.91479" lon="5.76438">
        <ele>276</ele>
        <time>2012-09-18T14:11:39Z</time>
      </trkpt>
      <trkpt lat="46.91486" lon="5.76427">
        <ele>276</ele>
        <time>2012-09-18T14:11:41Z</time>
      </trkpt>
      <trkpt lat="46.91495" lon="5.76417">
        <ele>276</ele>
        <time>2012-09-18T14:11:43Z</time>
      </trkpt>
      <trkpt lat="46.91504" lon="5.76404">
        <ele>276</ele>
        <time>2012-09-18T14:11:45Z</time>
      </trkpt>
      <trkpt lat="46.91513" lon="5.76391">
        <ele>276</ele>
        <time>2012-09-18T14:11:47Z</time>
      </trkpt>
      <trkpt lat="46.91522" lon="5.76379">
        <ele>276</ele>
        <time>2012-09-18T14:11:49Z</time>
      </trkpt>
      <trkpt lat="46.91532" lon="5.76366">
        <ele>276</ele>
        <time>2012-09-18T14:11:51Z</time>
      </trkpt>
      <trkpt lat="46.91542" lon="5.76353">
        <ele>276</ele>
        <time>2012-09-18T14:11:53Z</time>
      </trkpt>
      <trkpt lat="46.91551" lon="5.76339">
        <ele>276</ele>
        <time>2012-09-18T14:11:55Z</time>
      </trkpt>
      <trkpt lat="46.9156" lon="5.76327">
        <ele>276</ele>
        <time>2012-09-18T14:11:57Z</time>
      </trkpt>
      <trkpt lat="46.91569" lon="5.76315">
        <ele>276</ele>
        <time>2012-09-18T14:11:59Z</time>
      </trkpt>
      <trkpt lat="46.91578" lon="5.76303">
        <ele>276</ele>
        <time>2012-09-18T14:12:01Z</time>
      </trkpt>
      <trkpt lat="46.91586" lon="5.76291">
        <ele>276</ele>
        <time>2012-09-18T14:12:03Z</time>
      </trkpt>
      <trkpt lat="46.91594" lon="5.76278">
        <ele>276</ele>
        <time>2012-09-18T14:12:05Z</time>
      </trkpt>
      <trkpt lat="46.91603" lon="5.76264">
        <ele>276</ele>
        <time>2012-09-18T14:12:07Z</time>
      </trkpt>
      <trkpt lat="46.91612" lon="5.7625">
        <ele>276</ele>
        <time>2012-09-18T14:12:09Z</time>
      </trkpt>
      <trkpt lat="46.91621" lon="5.76237">
        <ele>276</ele>
        <time>2012-09-18T14:12:11Z</time>
      </trkpt>
      <trkpt lat="46.91631" lon="5.76224">
        <ele>276</ele>
        <time>2012-09-18T14:12:13Z</time>
      </trkpt>
      <trkpt lat="46.91639" lon="5.76212">
        <ele>276</ele>
        <time>2012-09-18T14:12:15Z</time>
      </trkpt>
      <trkpt lat="46.91648" lon="5.76198">
        <ele>276</ele>
        <time>2012-09-18T14:12:17Z</time>
      </trkpt>
      <trkpt lat="46.91658" lon="5.76184">
        <ele>276</ele>
        <time>2012-09-18T14:12:19Z</time>
      </trkpt>
      <trkpt lat="46.91668" lon="5.7617">
        <ele>276</ele>
        <time>2012-09-18T14:12:21Z</time>
      </trkpt>
      <trkpt lat="46.91677" lon="5.76155">
        <ele>276</ele>
        <time>2012-09-18T14:12:23Z</time>
      </trkpt>
      <trkpt lat="46.91685" lon="5.7614">
        <ele>271</ele>
        <time>2012-09-18T14:12:25Z</time>
      </trkpt>
      <trkpt lat="46.91694" lon="5.76125">
        <ele>271</ele>
        <time>2012-09-18T14:12:27Z</time>
      </trkpt>
      <trkpt lat="46.91702" lon="5.7611">
        <ele>271</ele>
        <time>2012-09-18T14:12:29Z</time>
      </trkpt>
      <trkpt lat="46.91709" lon="5.76095">
        <ele>271</ele>
        <time>2012-09-18T14:12:31Z</time>
      </trkpt>
      <trkpt lat="46.91717" lon="5.7608">
        <ele>271</ele>
        <time>2012-09-18T14:12:33Z</time>
      </trkpt>
      <trkpt lat="46.91725" lon="5.76064">
        <ele>271</ele>
        <time>2012-09-18T14:12:35Z</time>
      </trkpt>
      <trkpt lat="46.91733" lon="5.76049">
        <ele>271</ele>
        <time>2012-09-18T14:12:37Z</time>
      </trkpt>
      <trkpt lat="46.91742" lon="5.76033">
        <ele>271</ele>
        <time>2012-09-18T14:12:39Z</time>
      </trkpt>
      <trkpt lat="46.91751" lon="5.76017">
        <ele>271</ele>
        <time>2012-09-18T14:12:41Z</time>
      </trkpt>
      <trkpt lat="46.9176" lon="5.76002">
        <ele>271</ele>
        <time>2012-09-18T14:12:43Z</time>
      </trkpt>
      <trkpt lat="46.91769" lon="5.75985">
        <ele>271</ele>
        <time>2012-09-18T14:12:45Z</time>
      </trkpt>
      <trkpt lat="46.91777" lon="5.7597">
        <ele>271</ele>
        <time>2012-09-18T14:12:47Z</time>
      </trkpt>
      <trkpt lat="46.91786" lon="5.75955">
        <ele>271</ele>
        <time>2012-09-18T14:12:49Z</time>
      </trkpt>
      <trkpt lat="46.91796" lon="5.7594">
        <ele>271</ele>
        <time>2012-09-18T14:12:51Z</time>
      </trkpt>
      <trkpt lat="46.91805" lon="5.75925">
        <ele>271</ele>
        <time>2012-09-18T14:12:53Z</time>
      </trkpt>
      <trkpt lat="46.91815" lon="5.75911">
        <ele>271</ele>
        <time>2012-09-18T14:12:55Z</time>
      </trkpt>
      <trkpt lat="46.91824" lon="5.75897">
        <ele>271</ele>
        <time>2012-09-18T14:12:57Z</time>
      </trkpt>
      <trkpt lat="46.91833" lon="5.75884">
        <ele>271</ele>
        <time>2012-09-18T14:12:59Z</time>
      </trkpt>
      <trkpt lat="46.91843" lon="5.7587">
        <ele>271</ele>
        <time>2012-09-18T14:13:01Z</time>
      </trkpt>
      <trkpt lat="46.91853" lon="5.75857">
        <ele>271</ele>
        <time>2012-09-18T14:13:03Z</time>
      </trkpt>
      <trkpt lat="46.91863" lon="5.75844">
        <ele>271</ele>
        <time>2012-09-18T14:13:05Z</time>
      </trkpt>
      <trkpt lat="46.91874" lon="5.75832">
        <ele>271</ele>
        <time>2012-09-18T14:13:07Z</time>
      </trkpt>
      <trkpt lat="46.91885" lon="5.75819">
        <ele>271</ele>
        <time>2012-09-18T14:13:09Z</time>
      </trkpt>
      <trkpt lat="46.91896" lon="5.75808">
        <ele>271</ele>
        <time>2012-09-18T14:13:11Z</time>
      </trkpt>
      <trkpt lat="46.91908" lon="5.75797">
        <ele>271</ele>
        <time>2012-09-18T14:13:13Z</time>
      </trkpt>
      <trkpt lat="46.91917" lon="5.75788">
        <ele>265</ele>
        <time>2012-09-18T14:13:15Z</time>
      </trkpt>
      <trkpt lat="46.91925" lon="5.75781">
        <ele>265</ele>
        <time>2012-09-18T14:13:17Z</time>
      </trkpt>
      <trkpt lat="46.91933" lon="5.75772">
        <ele>265</ele>
        <time>2012-09-18T14:13:19Z</time>
      </trkpt>
      <trkpt lat="46.91943" lon="5.75762">
        <ele>265</ele>
        <time>2012-09-18T14:13:21Z</time>
      </trkpt>
      <trkpt lat="46.91953" lon="5.7575">
        <ele>265</ele>
        <time>2012-09-18T14:13:23Z</time>
      </trkpt>
      <trkpt lat="46.91962" lon="5.75738">
        <ele>265</ele>
        <time>2012-09-18T14:13:25Z</time>
      </trkpt>
      <trkpt lat="46.91972" lon="5.75723">
        <ele>265</ele>
        <time>2012-09-18T14:13:27Z</time>
      </trkpt>
      <trkpt lat="46.9198" lon="5.75709">
        <ele>265</ele>
        <time>2012-09-18T14:13:29Z</time>
      </trkpt>
      <trkpt lat="46.91989" lon="5.75695">
        <ele>265</ele>
        <time>2012-09-18T14:13:31Z</time>
      </trkpt>
      <trkpt lat="46.91997" lon="5.75681">
        <ele>265</ele>
        <time>2012-09-18T14:13:33Z</time>
      </trkpt>
      <trkpt lat="46.92005" lon="5.75667">
        <ele>265</ele>
        <time>2012-09-18T14:13:35Z</time>
      </trkpt>
      <trkpt lat="46.92013" lon="5.75653">
        <ele>265</ele>
        <time>2012-09-18T14:13:37Z</time>
      </trkpt>
      <trkpt lat="46.9202" lon="5.7564">
        <ele>265</ele>
        <time>2012-09-18T14:13:39Z</time>
      </trkpt>
      <trkpt lat="46.92026" lon="5.75626">
        <ele>265</ele>
        <time>2012-09-18T14:13:41Z</time>
      </trkpt>
      <trkpt lat="46.92032" lon="5.75614">
        <ele>265</ele>
        <time>2012-09-18T14:13:43Z</time>
      </trkpt>
      <trkpt lat="46.92037" lon="5.756">
        <ele>265</ele>
        <time>2012-09-18T14:13:45Z</time>
      </trkpt>
      <trkpt lat="46.92044" lon="5.75587">
        <ele>265</ele>
        <time>2012-09-18T14:13:47Z</time>
      </trkpt>
      <trkpt lat="46.9205" lon="5.75572">
        <ele>265</ele>
        <time>2012-09-18T14:13:49Z</time>
      </trkpt>
      <trkpt lat="46.92056" lon="5.75557">
        <ele>265</ele>
        <time>2012-09-18T14:13:51Z</time>
      </trkpt>
      <trkpt lat="46.92063" lon="5.75543">
        <ele>265</ele>
        <time>2012-09-18T14:13:53Z</time>
      </trkpt>
      <trkpt lat="46.9207" lon="5.7553">
        <ele>265</ele>
        <time>2012-09-18T14:13:55Z</time>
      </trkpt>
      <trkpt lat="46.92076" lon="5.75517">
        <ele>265</ele>
        <time>2012-09-18T14:13:57Z</time>
      </trkpt>
      <trkpt lat="46.92082" lon="5.75504">
        <ele>265</ele>
        <time>2012-09-18T14:13:59Z</time>
      </trkpt>
      <trkpt lat="46.92088" lon="5.75492">
        <ele>265</ele>
        <time>2012-09-18T14:14:01Z</time>
      </trkpt>
      <trkpt lat="46.92095" lon="5.75478">
        <ele>265</ele>
        <time>2012-09-18T14:14:04Z</time>
      </trkpt>
      <trkpt lat="46.92101" lon="5.75467">
        <ele>265</ele>
        <time>2012-09-18T14:14:08Z</time>
      </trkpt>
      <trkpt lat="46.92105" lon="5.75454">
        <ele>265</ele>
        <time>2012-09-18T14:14:21Z</time>
      </trkpt>
      <trkpt lat="46.92111" lon="5.75441">
        <ele>265</ele>
        <time>2012-09-18T14:14:25Z</time>
      </trkpt>
      <trkpt lat="46.92119" lon="5.75426">
        <ele>265</ele>
        <time>2012-09-18T14:14:28Z</time>
      </trkpt>
      <trkpt lat="46.92125" lon="5.75415">
        <ele>265</ele>
        <time>2012-09-18T14:14:30Z</time>
      </trkpt>
      <trkpt lat="46.92132" lon="5.75403">
        <ele>265</ele>
        <time>2012-09-18T14:14:32Z</time>
      </trkpt>
      <trkpt lat="46.92139" lon="5.75393">
        <ele>265</ele>
        <time>2012-09-18T14:14:34Z</time>
      </trkpt>
      <trkpt lat="46.92148" lon="5.75382">
        <ele>265</ele>
        <time>2012-09-18T14:14:36Z</time>
      </trkpt>
      <trkpt lat="46.92156" lon="5.75369">
        <ele>265</ele>
        <time>2012-09-18T14:14:38Z</time>
      </trkpt>
      <trkpt lat="46.92165" lon="5.75357">
        <ele>265</ele>
        <time>2012-09-18T14:14:40Z</time>
      </trkpt>
      <trkpt lat="46.92173" lon="5.75342">
        <ele>265</ele>
        <time>2012-09-18T14:14:42Z</time>
      </trkpt>
      <trkpt lat="46.9218" lon="5.75328">
        <ele>265</ele>
        <time>2012-09-18T14:14:44Z</time>
      </trkpt>
      <trkpt lat="46.92188" lon="5.75313">
        <ele>265</ele>
        <time>2012-09-18T14:14:46Z</time>
      </trkpt>
      <trkpt lat="46.92195" lon="5.75297">
        <ele>265</ele>
        <time>2012-09-18T14:14:48Z</time>
      </trkpt>
      <trkpt lat="46.92202" lon="5.75282">
        <ele>265</ele>
        <time>2012-09-18T14:14:50Z</time>
      </trkpt>
      <trkpt lat="46.9221" lon="5.75267">
        <ele>265</ele>
        <time>2012-09-18T14:14:52Z</time>
      </trkpt>
      <trkpt lat="46.92216" lon="5.75251">
        <ele>265</ele>
        <time>2012-09-18T14:14:54Z</time>
      </trkpt>
      <trkpt lat="46.92222" lon="5.75234">
        <ele>265</ele>
        <time>2012-09-18T14:14:56Z</time>
      </trkpt>
      <trkpt lat="46.92227" lon="5.75218">
        <ele>265</ele>
        <time>2012-09-18T14:14:58Z</time>
      </trkpt>
      <trkpt lat="46.92232" lon="5.75202">
        <ele>265</ele>
        <time>2012-09-18T14:15:00Z</time>
      </trkpt>
      <trkpt lat="46.92236" lon="5.75185">
        <ele>265</ele>
        <time>2012-09-18T14:15:02Z</time>
      </trkpt>
      <trkpt lat="46.92241" lon="5.75168">
        <ele>265</ele>
        <time>2012-09-18T14:15:04Z</time>
      </trkpt>
      <trkpt lat="46.92244" lon="5.75151">
        <ele>265</ele>
        <time>2012-09-18T14:15:06Z</time>
      </trkpt>
      <trkpt lat="46.92247" lon="5.75137">
        <ele>265</ele>
        <time>2012-09-18T14:15:08Z</time>
      </trkpt>
      <trkpt lat="46.92252" lon="5.75119">
        <ele>265</ele>
        <time>2012-09-18T14:15:11Z</time>
      </trkpt>
      <trkpt lat="46.92254" lon="5.75106">
        <ele>265</ele>
        <time>2012-09-18T14:15:13Z</time>
      </trkpt>
      <trkpt lat="46.92258" lon="5.75093">
        <ele>265</ele>
        <time>2012-09-18T14:15:15Z</time>
      </trkpt>
      <trkpt lat="46.92263" lon="5.75081">
        <ele>265</ele>
        <time>2012-09-18T14:15:17Z</time>
      </trkpt>
      <trkpt lat="46.9227" lon="5.75069">
        <ele>265</ele>
        <time>2012-09-18T14:15:19Z</time>
      </trkpt>
      <trkpt lat="46.92278" lon="5.75058">
        <ele>265</ele>
        <time>2012-09-18T14:15:21Z</time>
      </trkpt>
      <trkpt lat="46.92287" lon="5.75048">
        <ele>265</ele>
        <time>2012-09-18T14:15:23Z</time>
      </trkpt>
      <trkpt lat="46.92296" lon="5.7504">
        <ele>265</ele>
        <time>2012-09-18T14:15:25Z</time>
      </trkpt>
      <trkpt lat="46.92305" lon="5.75031">
        <ele>265</ele>
        <time>2012-09-18T14:15:27Z</time>
      </trkpt>
      <trkpt lat="46.92314" lon="5.75022">
        <ele>265</ele>
        <time>2012-09-18T14:15:29Z</time>
      </trkpt>
      <trkpt lat="46.92324" lon="5.75013">
        <ele>265</ele>
        <time>2012-09-18T14:15:31Z</time>
      </trkpt>
      <trkpt lat="46.92335" lon="5.75006">
        <ele>265</ele>
        <time>2012-09-18T14:15:33Z</time>
      </trkpt>
      <trkpt lat="46.92347" lon="5.75004">
        <ele>265</ele>
        <time>2012-09-18T14:15:35Z</time>
      </trkpt>
      <trkpt lat="46.92359" lon="5.75004">
        <ele>265</ele>
        <time>2012-09-18T14:15:37Z</time>
      </trkpt>
      <trkpt lat="46.9237" lon="5.75007">
        <ele>265</ele>
        <time>2012-09-18T14:15:39Z</time>
      </trkpt>
      <trkpt lat="46.92381" lon="5.7501">
        <ele>265</ele>
        <time>2012-09-18T14:15:41Z</time>
      </trkpt>
      <trkpt lat="46.92392" lon="5.75013">
        <ele>265</ele>
        <time>2012-09-18T14:15:43Z</time>
      </trkpt>
      <trkpt lat="46.92402" lon="5.75016">
        <ele>265</ele>
        <time>2012-09-18T14:15:45Z</time>
      </trkpt>
      <trkpt lat="46.92414" lon="5.75021">
        <ele>265</ele>
        <time>2012-09-18T14:15:47Z</time>
      </trkpt>
      <trkpt lat="46.92425" lon="5.75026">
        <ele>265</ele>
        <time>2012-09-18T14:15:49Z</time>
      </trkpt>
      <trkpt lat="46.92436" lon="5.75032">
        <ele>265</ele>
        <time>2012-09-18T14:15:51Z</time>
      </trkpt>
      <trkpt lat="46.92447" lon="5.75039">
        <ele>265</ele>
        <time>2012-09-18T14:15:53Z</time>
      </trkpt>
      <trkpt lat="46.92457" lon="5.75046">
        <ele>265</ele>
        <time>2012-09-18T14:15:55Z</time>
      </trkpt>
      <trkpt lat="46.92468" lon="5.75053">
        <ele>265</ele>
        <time>2012-09-18T14:15:57Z</time>
      </trkpt>
      <trkpt lat="46.92478" lon="5.75059">
        <ele>265</ele>
        <time>2012-09-18T14:15:59Z</time>
      </trkpt>
      <trkpt lat="46.92487" lon="5.75066">
        <ele>265</ele>
        <time>2012-09-18T14:16:01Z</time>
      </trkpt>
      <trkpt lat="46.92497" lon="5.75071">
        <ele>265</ele>
        <time>2012-09-18T14:16:03Z</time>
      </trkpt>
      <trkpt lat="46.92506" lon="5.75076">
        <ele>265</ele>
        <time>2012-09-18T14:16:05Z</time>
      </trkpt>
      <trkpt lat="46.92516" lon="5.75081">
        <ele>265</ele>
        <time>2012-09-18T14:16:08Z</time>
      </trkpt>
      <trkpt lat="46.92526" lon="5.75085">
        <ele>265</ele>
        <time>2012-09-18T14:16:12Z</time>
      </trkpt>
      <trkpt lat="46.92536" lon="5.75092">
        <ele>265</ele>
        <time>2012-09-18T14:16:15Z</time>
      </trkpt>
      <trkpt lat="46.92545" lon="5.75096">
        <ele>265</ele>
        <time>2012-09-18T14:16:17Z</time>
      </trkpt>
      <trkpt lat="46.92553" lon="5.75101">
        <ele>265</ele>
        <time>2012-09-18T14:16:19Z</time>
      </trkpt>
      <trkpt lat="46.92562" lon="5.75108">
        <ele>265</ele>
        <time>2012-09-18T14:16:21Z</time>
      </trkpt>
      <trkpt lat="46.92572" lon="5.75114">
        <ele>265</ele>
        <time>2012-09-18T14:16:23Z</time>
      </trkpt>
      <trkpt lat="46.92582" lon="5.75119">
        <ele>265</ele>
        <time>2012-09-18T14:16:25Z</time>
      </trkpt>
      <trkpt lat="46.92591" lon="5.75126">
        <ele>265</ele>
        <time>2012-09-18T14:16:27Z</time>
      </trkpt>
      <trkpt lat="46.92602" lon="5.75131">
        <ele>265</ele>
        <time>2012-09-18T14:16:29Z</time>
      </trkpt>
      <trkpt lat="46.92612" lon="5.75136">
        <ele>265</ele>
        <time>2012-09-18T14:16:31Z</time>
      </trkpt>
      <trkpt lat="46.92623" lon="5.75137">
        <ele>265</ele>
        <time>2012-09-18T14:16:33Z</time>
      </trkpt>
      <trkpt lat="46.92633" lon="5.75134">
        <ele>265</ele>
        <time>2012-09-18T14:16:35Z</time>
      </trkpt>
      <trkpt lat="46.92643" lon="5.75128">
        <ele>265</ele>
        <time>2012-09-18T14:16:37Z</time>
      </trkpt>
      <trkpt lat="46.92651" lon="5.75119">
        <ele>265</ele>
        <time>2012-09-18T14:16:39Z</time>
      </trkpt>
      <trkpt lat="46.92658" lon="5.7511">
        <ele>265</ele>
        <time>2012-09-18T14:16:41Z</time>
      </trkpt>
      <trkpt lat="46.92668" lon="5.75098">
        <ele>265</ele>
        <time>2012-09-18T14:16:44Z</time>
      </trkpt>
      <trkpt lat="46.92673" lon="5.75087">
        <ele>265</ele>
        <time>2012-09-18T14:16:46Z</time>
      </trkpt>
      <trkpt lat="46.92679" lon="5.75076">
        <ele>265</ele>
        <time>2012-09-18T14:16:48Z</time>
      </trkpt>
      <trkpt lat="46.92685" lon="5.75066">
        <ele>265</ele>
        <time>2012-09-18T14:16:50Z</time>
      </trkpt>
      <trkpt lat="46.92691" lon="5.75055">
        <ele>265</ele>
        <time>2012-09-18T14:16:52Z</time>
      </trkpt>
      <trkpt lat="46.92698" lon="5.75044">
        <ele>265</ele>
        <time>2012-09-18T14:16:54Z</time>
      </trkpt>
      <trkpt lat="46.92706" lon="5.75033">
        <ele>265</ele>
        <time>2012-09-18T14:16:56Z</time>
      </trkpt>
      <trkpt lat="46.92714" lon="5.75022">
        <ele>265</ele>
        <time>2012-09-18T14:16:58Z</time>
      </trkpt>
      <trkpt lat="46.92723" lon="5.75013">
        <ele>265</ele>
        <time>2012-09-18T14:17:00Z</time>
      </trkpt>
      <trkpt lat="46.92732" lon="5.75002">
        <ele>265</ele>
        <time>2012-09-18T14:17:02Z</time>
      </trkpt>
      <trkpt lat="46.9274" lon="5.74991">
        <ele>265</ele>
        <time>2012-09-18T14:17:04Z</time>
      </trkpt>
      <trkpt lat="46.92749" lon="5.7498">
        <ele>265</ele>
        <time>2012-09-18T14:17:06Z</time>
      </trkpt>
      <trkpt lat="46.92758" lon="5.74969">
        <ele>265</ele>
        <time>2012-09-18T14:17:08Z</time>
      </trkpt>
      <trkpt lat="46.92766" lon="5.74957">
        <ele>265</ele>
        <time>2012-09-18T14:17:10Z</time>
      </trkpt>
      <trkpt lat="46.92773" lon="5.74946">
        <ele>265</ele>
        <time>2012-09-18T14:17:12Z</time>
      </trkpt>
      <trkpt lat="46.92781" lon="5.74935">
        <ele>265</ele>
        <time>2012-09-18T14:17:14Z</time>
      </trkpt>
      <trkpt lat="46.92788" lon="5.74925">
        <ele>265</ele>
        <time>2012-09-18T14:17:16Z</time>
      </trkpt>
      <trkpt lat="46.92797" lon="5.74915">
        <ele>265</ele>
        <time>2012-09-18T14:17:18Z</time>
      </trkpt>
      <trkpt lat="46.92807" lon="5.74907">
        <ele>265</ele>
        <time>2012-09-18T14:17:20Z</time>
      </trkpt>
      <trkpt lat="46.92817" lon="5.74902">
        <ele>265</ele>
        <time>2012-09-18T14:17:22Z</time>
      </trkpt>
      <trkpt lat="46.92829" lon="5.749">
        <ele>265</ele>
        <time>2012-09-18T14:17:24Z</time>
      </trkpt>
      <trkpt lat="46.92839" lon="5.749">
        <ele>265</ele>
        <time>2012-09-18T14:17:26Z</time>
      </trkpt>
      <trkpt lat="46.9285" lon="5.74902">
        <ele>265</ele>
        <time>2012-09-18T14:17:28Z</time>
      </trkpt>
      <trkpt lat="46.9286" lon="5.74906">
        <ele>265</ele>
        <time>2012-09-18T14:17:30Z</time>
      </trkpt>
      <trkpt lat="46.9287" lon="5.74908">
        <ele>265</ele>
        <time>2012-09-18T14:17:32Z</time>
      </trkpt>
      <trkpt lat="46.9288" lon="5.74912">
        <ele>265</ele>
        <time>2012-09-18T14:17:34Z</time>
      </trkpt>
      <trkpt lat="46.92889" lon="5.74915">
        <ele>265</ele>
        <time>2012-09-18T14:17:36Z</time>
      </trkpt>
      <trkpt lat="46.92899" lon="5.74918">
        <ele>265</ele>
        <time>2012-09-18T14:17:38Z</time>
      </trkpt>
      <trkpt lat="46.92909" lon="5.74921">
        <ele>265</ele>
        <time>2012-09-18T14:17:40Z</time>
      </trkpt>
      <trkpt lat="46.92918" lon="5.74924">
        <ele>265</ele>
        <time>2012-09-18T14:17:42Z</time>
      </trkpt>
      <trkpt lat="46.92927" lon="5.74925">
        <ele>265</ele>
        <time>2012-09-18T14:17:44Z</time>
      </trkpt>
      <trkpt lat="46.92937" lon="5.74928">
        <ele>265</ele>
        <time>2012-09-18T14:17:46Z</time>
      </trkpt>
      <trkpt lat="46.92946" lon="5.7493">
        <ele>265</ele>
        <time>2012-09-18T14:17:48Z</time>
      </trkpt>
      <trkpt lat="46.92955" lon="5.74934">
        <ele>265</ele>
        <time>2012-09-18T14:17:50Z</time>
      </trkpt>
      <trkpt lat="46.92969" lon="5.74937">
        <ele>265</ele>
        <time>2012-09-18T14:17:53Z</time>
      </trkpt>
      <trkpt lat="46.92982" lon="5.74941">
        <ele>270</ele>
        <time>2012-09-18T14:17:56Z</time>
      </trkpt>
      <trkpt lat="46.92996" lon="5.74943">
        <ele>270</ele>
        <time>2012-09-18T14:17:59Z</time>
      </trkpt>
      <trkpt lat="46.93009" lon="5.74947">
        <ele>270</ele>
        <time>2012-09-18T14:18:02Z</time>
      </trkpt>
      <trkpt lat="46.93018" lon="5.74949">
        <ele>270</ele>
        <time>2012-09-18T14:18:04Z</time>
      </trkpt>
      <trkpt lat="46.93028" lon="5.74951">
        <ele>270</ele>
        <time>2012-09-18T14:18:06Z</time>
      </trkpt>
      <trkpt lat="46.93037" lon="5.74954">
        <ele>270</ele>
        <time>2012-09-18T14:18:08Z</time>
      </trkpt>
      <trkpt lat="46.93046" lon="5.74957">
        <ele>270</ele>
        <time>2012-09-18T14:18:10Z</time>
      </trkpt>
      <trkpt lat="46.93059" lon="5.7496">
        <ele>270</ele>
        <time>2012-09-18T14:18:13Z</time>
      </trkpt>
      <trkpt lat="46.93072" lon="5.74964">
        <ele>270</ele>
        <time>2012-09-18T14:18:16Z</time>
      </trkpt>
      <trkpt lat="46.93085" lon="5.74968">
        <ele>270</ele>
        <time>2012-09-18T14:18:19Z</time>
      </trkpt>
      <trkpt lat="46.93097" lon="5.74971">
        <ele>270</ele>
        <time>2012-09-18T14:18:22Z</time>
      </trkpt>
      <trkpt lat="46.9311" lon="5.74975">
        <ele>270</ele>
        <time>2012-09-18T14:18:25Z</time>
      </trkpt>
      <trkpt lat="46.93123" lon="5.74978">
        <ele>276</ele>
        <time>2012-09-18T14:18:28Z</time>
      </trkpt>
      <trkpt lat="46.93136" lon="5.74981">
        <ele>276</ele>
        <time>2012-09-18T14:18:31Z</time>
      </trkpt>
      <trkpt lat="46.93149" lon="5.74984">
        <ele>276</ele>
        <time>2012-09-18T14:18:34Z</time>
      </trkpt>
      <trkpt lat="46.93162" lon="5.74988">
        <ele>276</ele>
        <time>2012-09-18T14:18:37Z</time>
      </trkpt>
      <trkpt lat="46.93174" lon="5.74992">
        <ele>276</ele>
        <time>2012-09-18T14:18:40Z</time>
      </trkpt>
      <trkpt lat="46.93186" lon="5.74995">
        <ele>276</ele>
        <time>2012-09-18T14:18:43Z</time>
      </trkpt>
      <trkpt lat="46.93198" lon="5.75">
        <ele>276</ele>
        <time>2012-09-18T14:18:46Z</time>
      </trkpt>
      <trkpt lat="46.9321" lon="5.75003">
        <ele>276</ele>
        <time>2012-09-18T14:18:49Z</time>
      </trkpt>
      <trkpt lat="46.93222" lon="5.75006">
        <ele>281</ele>
        <time>2012-09-18T14:18:52Z</time>
      </trkpt>
      <trkpt lat="46.93234" lon="5.75009">
        <ele>281</ele>
        <time>2012-09-18T14:18:55Z</time>
      </trkpt>
      <trkpt lat="46.93247" lon="5.75012">
        <ele>281</ele>
        <time>2012-09-18T14:18:58Z</time>
      </trkpt>
      <trkpt lat="46.93258" lon="5.75015">
        <ele>281</ele>
        <time>2012-09-18T14:19:01Z</time>
      </trkpt>
      <trkpt lat="46.93271" lon="5.75018">
        <ele>281</ele>
        <time>2012-09-18T14:19:04Z</time>
      </trkpt>
      <trkpt lat="46.93282" lon="5.75022">
        <ele>281</ele>
        <time>2012-09-18T14:19:07Z</time>
      </trkpt>
      <trkpt lat="46.93295" lon="5.75025">
        <ele>281</ele>
        <time>2012-09-18T14:19:10Z</time>
      </trkpt>
      <trkpt lat="46.93306" lon="5.75029">
        <ele>281</ele>
        <time>2012-09-18T14:19:13Z</time>
      </trkpt>
      <trkpt lat="46.93318" lon="5.75031">
        <ele>286</ele>
        <time>2012-09-18T14:19:16Z</time>
      </trkpt>
      <trkpt lat="46.9333" lon="5.75034">
        <ele>286</ele>
        <time>2012-09-18T14:19:19Z</time>
      </trkpt>
      <trkpt lat="46.93342" lon="5.75037">
        <ele>286</ele>
        <time>2012-09-18T14:19:22Z</time>
      </trkpt>
      <trkpt lat="46.93354" lon="5.7504">
        <ele>286</ele>
        <time>2012-09-18T14:19:25Z</time>
      </trkpt>
      <trkpt lat="46.93366" lon="5.75044">
        <ele>286</ele>
        <time>2012-09-18T14:19:28Z</time>
      </trkpt>
      <trkpt lat="46.93378" lon="5.75048">
        <ele>286</ele>
        <time>2012-09-18T14:19:31Z</time>
      </trkpt>
      <trkpt lat="46.93391" lon="5.7505">
        <ele>286</ele>
        <time>2012-09-18T14:19:34Z</time>
      </trkpt>
      <trkpt lat="46.93402" lon="5.75054">
        <ele>286</ele>
        <time>2012-09-18T14:19:37Z</time>
      </trkpt>
      <trkpt lat="46.93414" lon="5.75057">
        <ele>291</ele>
        <time>2012-09-18T14:19:40Z</time>
      </trkpt>
      <trkpt lat="46.93426" lon="5.7506">
        <ele>291</ele>
        <time>2012-09-18T14:19:43Z</time>
      </trkpt>
      <trkpt lat="46.93438" lon="5.75064">
        <ele>291</ele>
        <time>2012-09-18T14:19:46Z</time>
      </trkpt>
      <trkpt lat="46.9345" lon="5.75067">
        <ele>291</ele>
        <time>2012-09-18T14:19:49Z</time>
      </trkpt>
      <trkpt lat="46.93462" lon="5.7507">
        <ele>291</ele>
        <time>2012-09-18T14:19:52Z</time>
      </trkpt>
      <trkpt lat="46.93474" lon="5.75074">
        <ele>291</ele>
        <time>2012-09-18T14:19:55Z</time>
      </trkpt>
      <trkpt lat="46.93486" lon="5.75076">
        <ele>291</ele>
        <time>2012-09-18T14:19:58Z</time>
      </trkpt>
      <trkpt lat="46.93498" lon="5.75079">
        <ele>291</ele>
        <time>2012-09-18T14:20:01Z</time>
      </trkpt>
      <trkpt lat="46.93509" lon="5.75083">
        <ele>296</ele>
        <time>2012-09-18T14:20:04Z</time>
      </trkpt>
      <trkpt lat="46.93521" lon="5.75086">
        <ele>296</ele>
        <time>2012-09-18T14:20:07Z</time>
      </trkpt>
      <trkpt lat="46.93532" lon="5.75089">
        <ele>296</ele>
        <time>2012-09-18T14:20:10Z</time>
      </trkpt>
      <trkpt lat="46.93544" lon="5.75092">
        <ele>296</ele>
        <time>2012-09-18T14:20:13Z</time>
      </trkpt>
      <trkpt lat="46.93556" lon="5.75094">
        <ele>296</ele>
        <time>2012-09-18T14:20:16Z</time>
      </trkpt>
      <trkpt lat="46.93568" lon="5.75098">
        <ele>296</ele>
        <time>2012-09-18T14:20:19Z</time>
      </trkpt>
      <trkpt lat="46.9358" lon="5.75101">
        <ele>296</ele>
        <time>2012-09-18T14:20:22Z</time>
      </trkpt>
      <trkpt lat="46.93592" lon="5.75103">
        <ele>302</ele>
        <time>2012-09-18T14:20:25Z</time>
      </trkpt>
      <trkpt lat="46.93604" lon="5.75107">
        <ele>302</ele>
        <time>2012-09-18T14:20:28Z</time>
      </trkpt>
      <trkpt lat="46.93615" lon="5.7511">
        <ele>302</ele>
        <time>2012-09-18T14:20:31Z</time>
      </trkpt>
      <trkpt lat="46.93626" lon="5.75112">
        <ele>302</ele>
        <time>2012-09-18T14:20:34Z</time>
      </trkpt>
      <trkpt lat="46.93638" lon="5.75115">
        <ele>302</ele>
        <time>2012-09-18T14:20:37Z</time>
      </trkpt>
      <trkpt lat="46.93649" lon="5.75118">
        <ele>302</ele>
        <time>2012-09-18T14:20:40Z</time>
      </trkpt>
      <trkpt lat="46.93662" lon="5.7512">
        <ele>307</ele>
        <time>2012-09-18T14:20:43Z</time>
      </trkpt>
      <trkpt lat="46.93674" lon="5.75123">
        <ele>307</ele>
        <time>2012-09-18T14:20:46Z</time>
      </trkpt>
      <trkpt lat="46.93686" lon="5.75127">
        <ele>307</ele>
        <time>2012-09-18T14:20:49Z</time>
      </trkpt>
      <trkpt lat="46.93698" lon="5.75129">
        <ele>307</ele>
        <time>2012-09-18T14:20:52Z</time>
      </trkpt>
      <trkpt lat="46.9371" lon="5.75132">
        <ele>307</ele>
        <time>2012-09-18T14:20:55Z</time>
      </trkpt>
      <trkpt lat="46.93721" lon="5.75135">
        <ele>307</ele>
        <time>2012-09-18T14:20:58Z</time>
      </trkpt>
      <trkpt lat="46.93734" lon="5.75135">
        <ele>307</ele>
        <time>2012-09-18T14:21:01Z</time>
      </trkpt>
      <trkpt lat="46.93743" lon="5.7513">
        <ele>307</ele>
        <time>2012-09-18T14:21:03Z</time>
      </trkpt>
      <trkpt lat="46.93754" lon="5.75119">
        <ele>307</ele>
        <time>2012-09-18T14:21:06Z</time>
      </trkpt>
      <trkpt lat="46.93759" lon="5.75108">
        <ele>312</ele>
        <time>2012-09-18T14:21:08Z</time>
      </trkpt>
      <trkpt lat="46.93762" lon="5.75094">
        <ele>312</ele>
        <time>2012-09-18T14:21:10Z</time>
      </trkpt>
      <trkpt lat="46.93763" lon="5.7508">
        <ele>312</ele>
        <time>2012-09-18T14:21:12Z</time>
      </trkpt>
      <trkpt lat="46.93763" lon="5.75066">
        <ele>312</ele>
        <time>2012-09-18T14:21:14Z</time>
      </trkpt>
      <trkpt lat="46.93763" lon="5.75051">
        <ele>312</ele>
        <time>2012-09-18T14:21:16Z</time>
      </trkpt>
      <trkpt lat="46.93764" lon="5.75037">
        <ele>312</ele>
        <time>2012-09-18T14:21:18Z</time>
      </trkpt>
      <trkpt lat="46.93764" lon="5.75022">
        <ele>312</ele>
        <time>2012-09-18T14:21:20Z</time>
      </trkpt>
      <trkpt lat="46.93767" lon="5.75007">
        <ele>317</ele>
        <time>2012-09-18T14:21:22Z</time>
      </trkpt>
      <trkpt lat="46.9377" lon="5.74992">
        <ele>317</ele>
        <time>2012-09-18T14:21:24Z</time>
      </trkpt>
      <trkpt lat="46.93774" lon="5.74978">
        <ele>317</ele>
        <time>2012-09-18T14:21:26Z</time>
      </trkpt>
      <trkpt lat="46.93778" lon="5.74964">
        <ele>317</ele>
        <time>2012-09-18T14:21:28Z</time>
      </trkpt>
      <trkpt lat="46.93781" lon="5.7495">
        <ele>317</ele>
        <time>2012-09-18T14:21:30Z</time>
      </trkpt>
      <trkpt lat="46.93786" lon="5.74935">
        <ele>317</ele>
        <time>2012-09-18T14:21:32Z</time>
      </trkpt>
      <trkpt lat="46.9379" lon="5.74921">
        <ele>317</ele>
        <time>2012-09-18T14:21:34Z</time>
      </trkpt>
      <trkpt lat="46.93794" lon="5.74907">
        <ele>317</ele>
        <time>2012-09-18T14:21:36Z</time>
      </trkpt>
      <trkpt lat="46.93797" lon="5.74893">
        <ele>317</ele>
        <time>2012-09-18T14:21:38Z</time>
      </trkpt>
      <trkpt lat="46.93799" lon="5.74878">
        <ele>317</ele>
        <time>2012-09-18T14:21:40Z</time>
      </trkpt>
      <trkpt lat="46.93797" lon="5.74862">
        <ele>317</ele>
        <time>2012-09-18T14:21:42Z</time>
      </trkpt>
      <trkpt lat="46.93793" lon="5.74845">
        <ele>323</ele>
        <time>2012-09-18T14:21:44Z</time>
      </trkpt>
      <trkpt lat="46.93789" lon="5.74831">
        <ele>323</ele>
        <time>2012-09-18T14:21:46Z</time>
      </trkpt>
      <trkpt lat="46.93785" lon="5.74817">
        <ele>329</ele>
        <time>2012-09-18T14:21:48Z</time>
      </trkpt>
      <trkpt lat="46.93783" lon="5.74801">
        <ele>329</ele>
        <time>2012-09-18T14:21:50Z</time>
      </trkpt>
      <trkpt lat="46.93781" lon="5.74786">
        <ele>329</ele>
        <time>2012-09-18T14:21:52Z</time>
      </trkpt>
      <trkpt lat="46.93784" lon="5.74769">
        <ele>335</ele>
        <time>2012-09-18T14:21:54Z</time>
      </trkpt>
      <trkpt lat="46.93789" lon="5.74754">
        <ele>335</ele>
        <time>2012-09-18T14:21:56Z</time>
      </trkpt>
      <trkpt lat="46.93797" lon="5.7474">
        <ele>335</ele>
        <time>2012-09-18T14:21:58Z</time>
      </trkpt>
      <trkpt lat="46.93809" lon="5.7473">
        <ele>335</ele>
        <time>2012-09-18T14:22:00Z</time>
      </trkpt>
      <trkpt lat="46.9382" lon="5.74722">
        <ele>335</ele>
        <time>2012-09-18T14:22:02Z</time>
      </trkpt>
      <trkpt lat="46.93831" lon="5.74714">
        <ele>341</ele>
        <time>2012-09-18T14:22:04Z</time>
      </trkpt>
      <trkpt lat="46.93843" lon="5.74706">
        <ele>341</ele>
        <time>2012-09-18T14:22:06Z</time>
      </trkpt>
      <trkpt lat="46.93856" lon="5.74695">
        <ele>341</ele>
        <time>2012-09-18T14:22:08Z</time>
      </trkpt>
      <trkpt lat="46.93869" lon="5.74684">
        <ele>330</ele>
        <time>2012-09-18T14:22:10Z</time>
      </trkpt>
      <trkpt lat="46.93881" lon="5.74675">
        <ele>330</ele>
        <time>2012-09-18T14:22:12Z</time>
      </trkpt>
      <trkpt lat="46.93893" lon="5.74667">
        <ele>330</ele>
        <time>2012-09-18T14:22:14Z</time>
      </trkpt>
      <trkpt lat="46.93905" lon="5.74657">
        <ele>330</ele>
        <time>2012-09-18T14:22:16Z</time>
      </trkpt>
      <trkpt lat="46.93917" lon="5.74645">
        <ele>336</ele>
        <time>2012-09-18T14:22:18Z</time>
      </trkpt>
      <trkpt lat="46.9393" lon="5.74633">
        <ele>336</ele>
        <time>2012-09-18T14:22:20Z</time>
      </trkpt>
      <trkpt lat="46.93941" lon="5.74617">
        <ele>330</ele>
        <time>2012-09-18T14:22:22Z</time>
      </trkpt>
      <trkpt lat="46.9395" lon="5.74598">
        <ele>330</ele>
        <time>2012-09-18T14:22:24Z</time>
      </trkpt>
      <trkpt lat="46.93956" lon="5.74579">
        <ele>330</ele>
        <time>2012-09-18T14:22:26Z</time>
      </trkpt>
      <trkpt lat="46.93964" lon="5.74559">
        <ele>330</ele>
        <time>2012-09-18T14:22:28Z</time>
      </trkpt>
      <trkpt lat="46.93974" lon="5.74544">
        <ele>330</ele>
        <time>2012-09-18T14:22:30Z</time>
      </trkpt>
      <trkpt lat="46.93989" lon="5.74536">
        <ele>330</ele>
        <time>2012-09-18T14:22:32Z</time>
      </trkpt>
      <trkpt lat="46.94005" lon="5.74535">
        <ele>330</ele>
        <time>2012-09-18T14:22:34Z</time>
      </trkpt>
      <trkpt lat="46.94021" lon="5.74536">
        <ele>330</ele>
        <time>2012-09-18T14:22:36Z</time>
      </trkpt>
      <trkpt lat="46.94037" lon="5.74536">
        <ele>330</ele>
        <time>2012-09-18T14:22:38Z</time>
      </trkpt>
      <trkpt lat="46.94052" lon="5.74532">
        <ele>330</ele>
        <time>2012-09-18T14:22:40Z</time>
      </trkpt>
      <trkpt lat="46.94065" lon="5.7452">
        <ele>330</ele>
        <time>2012-09-18T14:22:42Z</time>
      </trkpt>
      <trkpt lat="46.94076" lon="5.74501">
        <ele>330</ele>
        <time>2012-09-18T14:22:44Z</time>
      </trkpt>
      <trkpt lat="46.94087" lon="5.74482">
        <ele>330</ele>
        <time>2012-09-18T14:22:46Z</time>
      </trkpt>
      <trkpt lat="46.94099" lon="5.74461">
        <ele>330</ele>
        <time>2012-09-18T14:22:48Z</time>
      </trkpt>
      <trkpt lat="46.94114" lon="5.74447">
        <ele>330</ele>
        <time>2012-09-18T14:22:50Z</time>
      </trkpt>
      <trkpt lat="46.94123" lon="5.74439">
        <ele>330</ele>
        <time>2012-09-18T14:22:51Z</time>
      </trkpt>
      <trkpt lat="46.94132" lon="5.74433">
        <ele>330</ele>
        <time>2012-09-18T14:22:52Z</time>
      </trkpt>
      <trkpt lat="46.94143" lon="5.7443">
        <ele>330</ele>
        <time>2012-09-18T14:22:53Z</time>
      </trkpt>
      <trkpt lat="46.94153" lon="5.74427">
        <ele>330</ele>
        <time>2012-09-18T14:22:54Z</time>
      </trkpt>
      <trkpt lat="46.94165" lon="5.74424">
        <ele>330</ele>
        <time>2012-09-18T14:22:55Z</time>
      </trkpt>
      <trkpt lat="46.94177" lon="5.74421">
        <ele>323</ele>
        <time>2012-09-18T14:22:56Z</time>
      </trkpt>
      <trkpt lat="46.94189" lon="5.7442">
        <ele>323</ele>
        <time>2012-09-18T14:22:57Z</time>
      </trkpt>
      <trkpt lat="46.94202" lon="5.74418">
        <ele>323</ele>
        <time>2012-09-18T14:22:58Z</time>
      </trkpt>
      <trkpt lat="46.94215" lon="5.74417">
        <ele>323</ele>
        <time>2012-09-18T14:22:59Z</time>
      </trkpt>
      <trkpt lat="46.94228" lon="5.74415">
        <ele>323</ele>
        <time>2012-09-18T14:23:00Z</time>
      </trkpt>
      <trkpt lat="46.94241" lon="5.74413">
        <ele>323</ele>
        <time>2012-09-18T14:23:01Z</time>
      </trkpt>
      <trkpt lat="46.94254" lon="5.7441">
        <ele>318</ele>
        <time>2012-09-18T14:23:02Z</time>
      </trkpt>
      <trkpt lat="46.94265" lon="5.74404">
        <ele>318</ele>
        <time>2012-09-18T14:23:03Z</time>
      </trkpt>
      <trkpt lat="46.94276" lon="5.74395">
        <ele>318</ele>
        <time>2012-09-18T14:23:04Z</time>
      </trkpt>
      <trkpt lat="46.94286" lon="5.74385">
        <ele>318</ele>
        <time>2012-09-18T14:23:05Z</time>
      </trkpt>
      <trkpt lat="46.94296" lon="5.74372">
        <ele>318</ele>
        <time>2012-09-18T14:23:06Z</time>
      </trkpt>
      <trkpt lat="46.94304" lon="5.74359">
        <ele>318</ele>
        <time>2012-09-18T14:23:07Z</time>
      </trkpt>
      <trkpt lat="46.94312" lon="5.74345">
        <ele>318</ele>
        <time>2012-09-18T14:23:08Z</time>
      </trkpt>
      <trkpt lat="46.94319" lon="5.74331">
        <ele>318</ele>
        <time>2012-09-18T14:23:09Z</time>
      </trkpt>
      <trkpt lat="46.94325" lon="5.74316">
        <ele>318</ele>
        <time>2012-09-18T14:23:10Z</time>
      </trkpt>
      <trkpt lat="46.94332" lon="5.74302">
        <ele>318</ele>
        <time>2012-09-18T14:23:11Z</time>
      </trkpt>
      <trkpt lat="46.94338" lon="5.74289">
        <ele>318</ele>
        <time>2012-09-18T14:23:12Z</time>
      </trkpt>
      <trkpt lat="46.94344" lon="5.74275">
        <ele>318</ele>
        <time>2012-09-18T14:23:13Z</time>
      </trkpt>
      <trkpt lat="46.94351" lon="5.74262">
        <ele>312</ele>
        <time>2012-09-18T14:23:14Z</time>
      </trkpt>
      <trkpt lat="46.94357" lon="5.74252">
        <ele>312</ele>
        <time>2012-09-18T14:23:15Z</time>
      </trkpt>
      <trkpt lat="46.94362" lon="5.74241">
        <ele>312</ele>
        <time>2012-09-18T14:23:16Z</time>
      </trkpt>
      <trkpt lat="46.94374" lon="5.74221">
        <ele>312</ele>
        <time>2012-09-18T14:23:18Z</time>
      </trkpt>
      <trkpt lat="46.94384" lon="5.74205">
        <ele>312</ele>
        <time>2012-09-18T14:23:20Z</time>
      </trkpt>
      <trkpt lat="46.94392" lon="5.7419">
        <ele>318</ele>
        <time>2012-09-18T14:23:22Z</time>
      </trkpt>
      <trkpt lat="46.944" lon="5.74174">
        <ele>318</ele>
        <time>2012-09-18T14:23:24Z</time>
      </trkpt>
      <trkpt lat="46.94407" lon="5.74161">
        <ele>318</ele>
        <time>2012-09-18T14:23:26Z</time>
      </trkpt>
      <trkpt lat="46.94414" lon="5.74149">
        <ele>324</ele>
        <time>2012-09-18T14:23:28Z</time>
      </trkpt>
      <trkpt lat="46.9442" lon="5.74137">
        <ele>324</ele>
        <time>2012-09-18T14:23:30Z</time>
      </trkpt>
      <trkpt lat="46.94426" lon="5.74126">
        <ele>324</ele>
        <time>2012-09-18T14:23:32Z</time>
      </trkpt>
      <trkpt lat="46.94432" lon="5.74114">
        <ele>324</ele>
        <time>2012-09-18T14:23:34Z</time>
      </trkpt>
      <trkpt lat="46.9444" lon="5.74099">
        <ele>324</ele>
        <time>2012-09-18T14:23:37Z</time>
      </trkpt>
      <trkpt lat="46.94447" lon="5.74087">
        <ele>324</ele>
        <time>2012-09-18T14:23:39Z</time>
      </trkpt>
      <trkpt lat="46.94455" lon="5.74074">
        <ele>324</ele>
        <time>2012-09-18T14:23:41Z</time>
      </trkpt>
      <trkpt lat="46.94463" lon="5.7406">
        <ele>324</ele>
        <time>2012-09-18T14:23:43Z</time>
      </trkpt>
      <trkpt lat="46.9447" lon="5.74046">
        <ele>324</ele>
        <time>2012-09-18T14:23:45Z</time>
      </trkpt>
      <trkpt lat="46.94477" lon="5.7403">
        <ele>324</ele>
        <time>2012-09-18T14:23:47Z</time>
      </trkpt>
      <trkpt lat="46.94483" lon="5.74014">
        <ele>324</ele>
        <time>2012-09-18T14:23:49Z</time>
      </trkpt>
      <trkpt lat="46.94489" lon="5.73997">
        <ele>324</ele>
        <time>2012-09-18T14:23:51Z</time>
      </trkpt>
      <trkpt lat="46.94492" lon="5.73978">
        <ele>324</ele>
        <time>2012-09-18T14:23:53Z</time>
      </trkpt>
      <trkpt lat="46.94493" lon="5.73958">
        <ele>324</ele>
        <time>2012-09-18T14:23:55Z</time>
      </trkpt>
      <trkpt lat="46.94493" lon="5.73937">
        <ele>324</ele>
        <time>2012-09-18T14:23:57Z</time>
      </trkpt>
      <trkpt lat="46.94494" lon="5.73915">
        <ele>324</ele>
        <time>2012-09-18T14:23:59Z</time>
      </trkpt>
      <trkpt lat="46.94495" lon="5.73891">
        <ele>330</ele>
        <time>2012-09-18T14:24:01Z</time>
      </trkpt>
      <trkpt lat="46.94496" lon="5.73871">
        <ele>330</ele>
        <time>2012-09-18T14:24:03Z</time>
      </trkpt>
      <trkpt lat="46.94501" lon="5.73847">
        <ele>330</ele>
        <time>2012-09-18T14:24:05Z</time>
      </trkpt>
      <trkpt lat="46.94506" lon="5.73822">
        <ele>330</ele>
        <time>2012-09-18T14:24:07Z</time>
      </trkpt>
      <trkpt lat="46.94514" lon="5.738">
        <ele>330</ele>
        <time>2012-09-18T14:24:09Z</time>
      </trkpt>
      <trkpt lat="46.9452" lon="5.7378">
        <ele>330</ele>
        <time>2012-09-18T14:24:11Z</time>
      </trkpt>
      <trkpt lat="46.94527" lon="5.7376">
        <ele>324</ele>
        <time>2012-09-18T14:24:13Z</time>
      </trkpt>
      <trkpt lat="46.94533" lon="5.73741">
        <ele>324</ele>
        <time>2012-09-18T14:24:15Z</time>
      </trkpt>
      <trkpt lat="46.9454" lon="5.73723">
        <ele>324</ele>
        <time>2012-09-18T14:24:17Z</time>
      </trkpt>
      <trkpt lat="46.94547" lon="5.73706">
        <ele>324</ele>
        <time>2012-09-18T14:24:19Z</time>
      </trkpt>
      <trkpt lat="46.94557" lon="5.73689">
        <ele>324</ele>
        <time>2012-09-18T14:24:21Z</time>
      </trkpt>
      <trkpt lat="46.94572" lon="5.73677">
        <ele>318</ele>
        <time>2012-09-18T14:24:23Z</time>
      </trkpt>
      <trkpt lat="46.94581" lon="5.73673">
        <ele>318</ele>
        <time>2012-09-18T14:24:24Z</time>
      </trkpt>
      <trkpt lat="46.94591" lon="5.73672">
        <ele>318</ele>
        <time>2012-09-18T14:24:25Z</time>
      </trkpt>
      <trkpt lat="46.946" lon="5.73672">
        <ele>318</ele>
        <time>2012-09-18T14:24:26Z</time>
      </trkpt>
      <trkpt lat="46.9461" lon="5.73673">
        <ele>318</ele>
        <time>2012-09-18T14:24:27Z</time>
      </trkpt>
      <trkpt lat="46.94619" lon="5.73675">
        <ele>318</ele>
        <time>2012-09-18T14:24:28Z</time>
      </trkpt>
      <trkpt lat="46.94629" lon="5.73678">
        <ele>318</ele>
        <time>2012-09-18T14:24:29Z</time>
      </trkpt>
      <trkpt lat="46.94638" lon="5.73681">
        <ele>318</ele>
        <time>2012-09-18T14:24:30Z</time>
      </trkpt>
      <trkpt lat="46.94655" lon="5.73688">
        <ele>318</ele>
        <time>2012-09-18T14:24:32Z</time>
      </trkpt>
      <trkpt lat="46.94663" lon="5.73692">
        <ele>318</ele>
        <time>2012-09-18T14:24:33Z</time>
      </trkpt>
      <trkpt lat="46.94672" lon="5.73696">
        <ele>318</ele>
        <time>2012-09-18T14:24:34Z</time>
      </trkpt>
      <trkpt lat="46.94682" lon="5.737">
        <ele>318</ele>
        <time>2012-09-18T14:24:35Z</time>
      </trkpt>
      <trkpt lat="46.94691" lon="5.73706">
        <ele>312</ele>
        <time>2012-09-18T14:24:36Z</time>
      </trkpt>
      <trkpt lat="46.94701" lon="5.7371">
        <ele>312</ele>
        <time>2012-09-18T14:24:37Z</time>
      </trkpt>
      <trkpt lat="46.94711" lon="5.73714">
        <ele>312</ele>
        <time>2012-09-18T14:24:38Z</time>
      </trkpt>
      <trkpt lat="46.94722" lon="5.7372">
        <ele>312</ele>
        <time>2012-09-18T14:24:39Z</time>
      </trkpt>
      <trkpt lat="46.94732" lon="5.73723">
        <ele>312</ele>
        <time>2012-09-18T14:24:40Z</time>
      </trkpt>
      <trkpt lat="46.94744" lon="5.73725">
        <ele>312</ele>
        <time>2012-09-18T14:24:41Z</time>
      </trkpt>
      <trkpt lat="46.94756" lon="5.73723">
        <ele>307</ele>
        <time>2012-09-18T14:24:42Z</time>
      </trkpt>
      <trkpt lat="46.94768" lon="5.7372">
        <ele>307</ele>
        <time>2012-09-18T14:24:43Z</time>
      </trkpt>
      <trkpt lat="46.9478" lon="5.73714">
        <ele>307</ele>
        <time>2012-09-18T14:24:44Z</time>
      </trkpt>
      <trkpt lat="46.94792" lon="5.73706">
        <ele>307</ele>
        <time>2012-09-18T14:24:45Z</time>
      </trkpt>
      <trkpt lat="46.94804" lon="5.73697">
        <ele>307</ele>
        <time>2012-09-18T14:24:46Z</time>
      </trkpt>
      <trkpt lat="46.94816" lon="5.73687">
        <ele>307</ele>
        <time>2012-09-18T14:24:47Z</time>
      </trkpt>
      <trkpt lat="46.94829" lon="5.73677">
        <ele>307</ele>
        <time>2012-09-18T14:24:48Z</time>
      </trkpt>
      <trkpt lat="46.9484" lon="5.73666">
        <ele>307</ele>
        <time>2012-09-18T14:24:49Z</time>
      </trkpt>
      <trkpt lat="46.94851" lon="5.73655">
        <ele>301</ele>
        <time>2012-09-18T14:24:50Z</time>
      </trkpt>
      <trkpt lat="46.94862" lon="5.73644">
        <ele>301</ele>
        <time>2012-09-18T14:24:51Z</time>
      </trkpt>
      <trkpt lat="46.94872" lon="5.73631">
        <ele>301</ele>
        <time>2012-09-18T14:24:52Z</time>
      </trkpt>
      <trkpt lat="46.94882" lon="5.73618">
        <ele>301</ele>
        <time>2012-09-18T14:24:53Z</time>
      </trkpt>
      <trkpt lat="46.9489" lon="5.73605">
        <ele>301</ele>
        <time>2012-09-18T14:24:54Z</time>
      </trkpt>
      <trkpt lat="46.94896" lon="5.73591">
        <ele>301</ele>
        <time>2012-09-18T14:24:55Z</time>
      </trkpt>
      <trkpt lat="46.94902" lon="5.73575">
        <ele>301</ele>
        <time>2012-09-18T14:24:56Z</time>
      </trkpt>
      <trkpt lat="46.94908" lon="5.7356">
        <ele>301</ele>
        <time>2012-09-18T14:24:57Z</time>
      </trkpt>
      <trkpt lat="46.94912" lon="5.73545">
        <ele>301</ele>
        <time>2012-09-18T14:24:58Z</time>
      </trkpt>
      <trkpt lat="46.94916" lon="5.73529">
        <ele>301</ele>
        <time>2012-09-18T14:24:59Z</time>
      </trkpt>
      <trkpt lat="46.9492" lon="5.73514">
        <ele>301</ele>
        <time>2012-09-18T14:25:00Z</time>
      </trkpt>
      <trkpt lat="46.94924" lon="5.73498">
        <ele>301</ele>
        <time>2012-09-18T14:25:01Z</time>
      </trkpt>
      <trkpt lat="46.94929" lon="5.73483">
        <ele>301</ele>
        <time>2012-09-18T14:25:02Z</time>
      </trkpt>
      <trkpt lat="46.94936" lon="5.73467">
        <ele>295</ele>
        <time>2012-09-18T14:25:03Z</time>
      </trkpt>
      <trkpt lat="46.94943" lon="5.73451">
        <ele>295</ele>
        <time>2012-09-18T14:25:04Z</time>
      </trkpt>
      <trkpt lat="46.94951" lon="5.73436">
        <ele>295</ele>
        <time>2012-09-18T14:25:05Z</time>
      </trkpt>
      <trkpt lat="46.94959" lon="5.7342">
        <ele>295</ele>
        <time>2012-09-18T14:25:06Z</time>
      </trkpt>
      <trkpt lat="46.94967" lon="5.73404">
        <ele>295</ele>
        <time>2012-09-18T14:25:07Z</time>
      </trkpt>
      <trkpt lat="46.94974" lon="5.73387">
        <ele>290</ele>
        <time>2012-09-18T14:25:08Z</time>
      </trkpt>
      <trkpt lat="46.94981" lon="5.7337">
        <ele>290</ele>
        <time>2012-09-18T14:25:09Z</time>
      </trkpt>
      <trkpt lat="46.94987" lon="5.73352">
        <ele>290</ele>
        <time>2012-09-18T14:25:10Z</time>
      </trkpt>
      <trkpt lat="46.94992" lon="5.73335">
        <ele>290</ele>
        <time>2012-09-18T14:25:11Z</time>
      </trkpt>
      <trkpt lat="46.94997" lon="5.73317">
        <ele>290</ele>
        <time>2012-09-18T14:25:12Z</time>
      </trkpt>
      <trkpt lat="46.95001" lon="5.73301">
        <ele>290</ele>
        <time>2012-09-18T14:25:13Z</time>
      </trkpt>
      <trkpt lat="46.95007" lon="5.73286">
        <ele>290</ele>
        <time>2012-09-18T14:25:14Z</time>
      </trkpt>
      <trkpt lat="46.95014" lon="5.73273">
        <ele>290</ele>
        <time>2012-09-18T14:25:15Z</time>
      </trkpt>
      <trkpt lat="46.95021" lon="5.73261">
        <ele>290</ele>
        <time>2012-09-18T14:25:16Z</time>
      </trkpt>
      <trkpt lat="46.95027" lon="5.73251">
        <ele>290</ele>
        <time>2012-09-18T14:25:17Z</time>
      </trkpt>
      <trkpt lat="46.95039" lon="5.73235">
        <ele>290</ele>
        <time>2012-09-18T14:25:19Z</time>
      </trkpt>
      <trkpt lat="46.95049" lon="5.7322">
        <ele>290</ele>
        <time>2012-09-18T14:25:21Z</time>
      </trkpt>
      <trkpt lat="46.95059" lon="5.73204">
        <ele>290</ele>
        <time>2012-09-18T14:25:23Z</time>
      </trkpt>
      <trkpt lat="46.95069" lon="5.73188">
        <ele>290</ele>
        <time>2012-09-18T14:25:25Z</time>
      </trkpt>
      <trkpt lat="46.9508" lon="5.7317">
        <ele>290</ele>
        <time>2012-09-18T14:25:27Z</time>
      </trkpt>
      <trkpt lat="46.95087" lon="5.7315">
        <ele>290</ele>
        <time>2012-09-18T14:25:29Z</time>
      </trkpt>
      <trkpt lat="46.95092" lon="5.73134">
        <ele>290</ele>
        <time>2012-09-18T14:25:31Z</time>
      </trkpt>
      <trkpt lat="46.95094" lon="5.73122">
        <ele>290</ele>
        <time>2012-09-18T14:25:33Z</time>
      </trkpt>
      <trkpt lat="46.95097" lon="5.73106">
        <ele>290</ele>
        <time>2012-09-18T14:25:36Z</time>
      </trkpt>
      <trkpt lat="46.95107" lon="5.73105">
        <ele>290</ele>
        <time>2012-09-18T14:29:09Z</time>
      </trkpt>
      <trkpt lat="46.95117" lon="5.73108">
        <ele>290</ele>
        <time>2012-09-18T14:29:14Z</time>
      </trkpt>
      <trkpt lat="46.95126" lon="5.73113">
        <ele>290</ele>
        <time>2012-09-18T14:29:20Z</time>
      </trkpt>
      <trkpt lat="46.95134" lon="5.73116">
        <ele>290</ele>
        <time>2012-09-18T14:29:24Z</time>
      </trkpt>
      <trkpt lat="46.95146" lon="5.73119">
        <ele>290</ele>
        <time>2012-09-18T14:29:28Z</time>
      </trkpt>
      <trkpt lat="46.95157" lon="5.73123">
        <ele>290</ele>
        <time>2012-09-18T14:29:31Z</time>
      </trkpt>
      <trkpt lat="46.95168" lon="5.73127">
        <ele>290</ele>
        <time>2012-09-18T14:29:34Z</time>
      </trkpt>
      <trkpt lat="46.9518" lon="5.73132">
        <ele>290</ele>
        <time>2012-09-18T14:29:37Z</time>
      </trkpt>
      <trkpt lat="46.95188" lon="5.73138">
        <ele>290</ele>
        <time>2012-09-18T14:29:39Z</time>
      </trkpt>
      <trkpt lat="46.95196" lon="5.73144">
        <ele>290</ele>
        <time>2012-09-18T14:29:41Z</time>
      </trkpt>
      <trkpt lat="46.95204" lon="5.73152">
        <ele>290</ele>
        <time>2012-09-18T14:29:43Z</time>
      </trkpt>
      <trkpt lat="46.95211" lon="5.73161">
        <ele>290</ele>
        <time>2012-09-18T14:29:45Z</time>
      </trkpt>
      <trkpt lat="46.95217" lon="5.73172">
        <ele>290</ele>
        <time>2012-09-18T14:29:47Z</time>
      </trkpt>
      <trkpt lat="46.95225" lon="5.73186">
        <ele>290</ele>
        <time>2012-09-18T14:29:50Z</time>
      </trkpt>
      <trkpt lat="46.95232" lon="5.73195">
        <ele>290</ele>
        <time>2012-09-18T14:29:52Z</time>
      </trkpt>
      <trkpt lat="46.95242" lon="5.73202">
        <ele>290</ele>
        <time>2012-09-18T14:29:54Z</time>
      </trkpt>
      <trkpt lat="46.95254" lon="5.73205">
        <ele>290</ele>
        <time>2012-09-18T14:29:56Z</time>
      </trkpt>
      <trkpt lat="46.95268" lon="5.73205">
        <ele>290</ele>
        <time>2012-09-18T14:29:58Z</time>
      </trkpt>
      <trkpt lat="46.95281" lon="5.73205">
        <ele>290</ele>
        <time>2012-09-18T14:30:00Z</time>
      </trkpt>
      <trkpt lat="46.95295" lon="5.73205">
        <ele>290</ele>
        <time>2012-09-18T14:30:02Z</time>
      </trkpt>
      <trkpt lat="46.95309" lon="5.73203">
        <ele>290</ele>
        <time>2012-09-18T14:30:04Z</time>
      </trkpt>
      <trkpt lat="46.95325" lon="5.73202">
        <ele>290</ele>
        <time>2012-09-18T14:30:06Z</time>
      </trkpt>
      <trkpt lat="46.95342" lon="5.732">
        <ele>284</ele>
        <time>2012-09-18T14:30:08Z</time>
      </trkpt>
      <trkpt lat="46.95351" lon="5.73199">
        <ele>284</ele>
        <time>2012-09-18T14:30:09Z</time>
      </trkpt>
      <trkpt lat="46.95361" lon="5.73198">
        <ele>284</ele>
        <time>2012-09-18T14:30:10Z</time>
      </trkpt>
      <trkpt lat="46.9537" lon="5.73198">
        <ele>284</ele>
        <time>2012-09-18T14:30:11Z</time>
      </trkpt>
      <trkpt lat="46.9538" lon="5.73197">
        <ele>284</ele>
        <time>2012-09-18T14:30:12Z</time>
      </trkpt>
      <trkpt lat="46.95389" lon="5.73197">
        <ele>284</ele>
        <time>2012-09-18T14:30:13Z</time>
      </trkpt>
      <trkpt lat="46.95399" lon="5.73197">
        <ele>284</ele>
        <time>2012-09-18T14:30:14Z</time>
      </trkpt>
      <trkpt lat="46.9541" lon="5.73197">
        <ele>284</ele>
        <time>2012-09-18T14:30:15Z</time>
      </trkpt>
      <trkpt lat="46.9542" lon="5.73198">
        <ele>284</ele>
        <time>2012-09-18T14:30:16Z</time>
      </trkpt>
      <trkpt lat="46.95431" lon="5.732">
        <ele>279</ele>
        <time>2012-09-18T14:30:17Z</time>
      </trkpt>
      <trkpt lat="46.95441" lon="5.73203">
        <ele>279</ele>
        <time>2012-09-18T14:30:18Z</time>
      </trkpt>
      <trkpt lat="46.95452" lon="5.73209">
        <ele>279</ele>
        <time>2012-09-18T14:30:19Z</time>
      </trkpt>
      <trkpt lat="46.95462" lon="5.73216">
        <ele>279</ele>
        <time>2012-09-18T14:30:20Z</time>
      </trkpt>
      <trkpt lat="46.95473" lon="5.73223">
        <ele>279</ele>
        <time>2012-09-18T14:30:21Z</time>
      </trkpt>
      <trkpt lat="46.95483" lon="5.7323">
        <ele>279</ele>
        <time>2012-09-18T14:30:22Z</time>
      </trkpt>
      <trkpt lat="46.95494" lon="5.73236">
        <ele>279</ele>
        <time>2012-09-18T14:30:23Z</time>
      </trkpt>
      <trkpt lat="46.95505" lon="5.7324">
        <ele>279</ele>
        <time>2012-09-18T14:30:24Z</time>
      </trkpt>
      <trkpt lat="46.95516" lon="5.73243">
        <ele>279</ele>
        <time>2012-09-18T14:30:25Z</time>
      </trkpt>
      <trkpt lat="46.95526" lon="5.73244">
        <ele>279</ele>
        <time>2012-09-18T14:30:26Z</time>
      </trkpt>
      <trkpt lat="46.95537" lon="5.73242">
        <ele>279</ele>
        <time>2012-09-18T14:30:27Z</time>
      </trkpt>
      <trkpt lat="46.95547" lon="5.73239">
        <ele>279</ele>
        <time>2012-09-18T14:30:28Z</time>
      </trkpt>
      <trkpt lat="46.95558" lon="5.73236">
        <ele>279</ele>
        <time>2012-09-18T14:30:29Z</time>
      </trkpt>
      <trkpt lat="46.95567" lon="5.73232">
        <ele>279</ele>
        <time>2012-09-18T14:30:30Z</time>
      </trkpt>
      <trkpt lat="46.95577" lon="5.73228">
        <ele>279</ele>
        <time>2012-09-18T14:30:31Z</time>
      </trkpt>
      <trkpt lat="46.95587" lon="5.73223">
        <ele>279</ele>
        <time>2012-09-18T14:30:32Z</time>
      </trkpt>
      <trkpt lat="46.95596" lon="5.73219">
        <ele>279</ele>
        <time>2012-09-18T14:30:33Z</time>
      </trkpt>
      <trkpt lat="46.95606" lon="5.73214">
        <ele>279</ele>
        <time>2012-09-18T14:30:34Z</time>
      </trkpt>
      <trkpt lat="46.95614" lon="5.7321">
        <ele>279</ele>
        <time>2012-09-18T14:30:35Z</time>
      </trkpt>
      <trkpt lat="46.95623" lon="5.73205">
        <ele>279</ele>
        <time>2012-09-18T14:30:36Z</time>
      </trkpt>
      <trkpt lat="46.95639" lon="5.73197">
        <ele>279</ele>
        <time>2012-09-18T14:30:38Z</time>
      </trkpt>
      <trkpt lat="46.95654" lon="5.7319">
        <ele>279</ele>
        <time>2012-09-18T14:30:40Z</time>
      </trkpt>
      <trkpt lat="46.95669" lon="5.73183">
        <ele>279</ele>
        <time>2012-09-18T14:30:42Z</time>
      </trkpt>
      <trkpt lat="46.95684" lon="5.73175">
        <ele>279</ele>
        <time>2012-09-18T14:30:44Z</time>
      </trkpt>
      <trkpt lat="46.957" lon="5.73167">
        <ele>279</ele>
        <time>2012-09-18T14:30:46Z</time>
      </trkpt>
      <trkpt lat="46.95715" lon="5.7316">
        <ele>279</ele>
        <time>2012-09-18T14:30:48Z</time>
      </trkpt>
      <trkpt lat="46.9573" lon="5.73154">
        <ele>279</ele>
        <time>2012-09-18T14:30:50Z</time>
      </trkpt>
      <trkpt lat="46.95745" lon="5.73147">
        <ele>279</ele>
        <time>2012-09-18T14:30:52Z</time>
      </trkpt>
      <trkpt lat="46.95759" lon="5.7314">
        <ele>279</ele>
        <time>2012-09-18T14:30:54Z</time>
      </trkpt>
      <trkpt lat="46.95774" lon="5.73133">
        <ele>279</ele>
        <time>2012-09-18T14:30:56Z</time>
      </trkpt>
      <trkpt lat="46.95788" lon="5.73127">
        <ele>279</ele>
        <time>2012-09-18T14:30:58Z</time>
      </trkpt>
      <trkpt lat="46.95802" lon="5.7312">
        <ele>279</ele>
        <time>2012-09-18T14:31:00Z</time>
      </trkpt>
      <trkpt lat="46.95816" lon="5.73114">
        <ele>279</ele>
        <time>2012-09-18T14:31:02Z</time>
      </trkpt>
      <trkpt lat="46.9583" lon="5.73107">
        <ele>279</ele>
        <time>2012-09-18T14:31:04Z</time>
      </trkpt>
      <trkpt lat="46.95844" lon="5.73101">
        <ele>279</ele>
        <time>2012-09-18T14:31:06Z</time>
      </trkpt>
      <trkpt lat="46.95857" lon="5.73095">
        <ele>279</ele>
        <time>2012-09-18T14:31:08Z</time>
      </trkpt>
      <trkpt lat="46.95871" lon="5.73089">
        <ele>279</ele>
        <time>2012-09-18T14:31:10Z</time>
      </trkpt>
      <trkpt lat="46.95884" lon="5.73083">
        <ele>279</ele>
        <time>2012-09-18T14:31:12Z</time>
      </trkpt>
      <trkpt lat="46.95896" lon="5.73078">
        <ele>279</ele>
        <time>2012-09-18T14:31:14Z</time>
      </trkpt>
      <trkpt lat="46.95909" lon="5.73071">
        <ele>279</ele>
        <time>2012-09-18T14:31:16Z</time>
      </trkpt>
      <trkpt lat="46.95922" lon="5.73064">
        <ele>279</ele>
        <time>2012-09-18T14:31:18Z</time>
      </trkpt>
      <trkpt lat="46.95934" lon="5.73055">
        <ele>279</ele>
        <time>2012-09-18T14:31:20Z</time>
      </trkpt>
      <trkpt lat="46.95945" lon="5.73044">
        <ele>279</ele>
        <time>2012-09-18T14:31:22Z</time>
      </trkpt>
      <trkpt lat="46.95955" lon="5.73032">
        <ele>279</ele>
        <time>2012-09-18T14:31:24Z</time>
      </trkpt>
      <trkpt lat="46.95965" lon="5.73017">
        <ele>279</ele>
        <time>2012-09-18T14:31:26Z</time>
      </trkpt>
      <trkpt lat="46.95973" lon="5.73003">
        <ele>279</ele>
        <time>2012-09-18T14:31:28Z</time>
      </trkpt>
      <trkpt lat="46.95981" lon="5.72988">
        <ele>279</ele>
        <time>2012-09-18T14:31:30Z</time>
      </trkpt>
      <trkpt lat="46.95989" lon="5.72972">
        <ele>279</ele>
        <time>2012-09-18T14:31:32Z</time>
      </trkpt>
      <trkpt lat="46.95997" lon="5.72957">
        <ele>279</ele>
        <time>2012-09-18T14:31:34Z</time>
      </trkpt>
      <trkpt lat="46.96005" lon="5.72943">
        <ele>279</ele>
        <time>2012-09-18T14:31:36Z</time>
      </trkpt>
      <trkpt lat="46.96013" lon="5.72928">
        <ele>279</ele>
        <time>2012-09-18T14:31:38Z</time>
      </trkpt>
      <trkpt lat="46.9602" lon="5.72914">
        <ele>279</ele>
        <time>2012-09-18T14:31:40Z</time>
      </trkpt>
      <trkpt lat="46.96027" lon="5.72899">
        <ele>279</ele>
        <time>2012-09-18T14:31:42Z</time>
      </trkpt>
      <trkpt lat="46.96035" lon="5.72885">
        <ele>279</ele>
        <time>2012-09-18T14:31:44Z</time>
      </trkpt>
      <trkpt lat="46.96042" lon="5.72871">
        <ele>279</ele>
        <time>2012-09-18T14:31:46Z</time>
      </trkpt>
      <trkpt lat="46.96049" lon="5.72858">
        <ele>284</ele>
        <time>2012-09-18T14:31:48Z</time>
      </trkpt>
      <trkpt lat="46.96056" lon="5.72845">
        <ele>284</ele>
        <time>2012-09-18T14:31:50Z</time>
      </trkpt>
      <trkpt lat="46.96063" lon="5.72831">
        <ele>284</ele>
        <time>2012-09-18T14:31:52Z</time>
      </trkpt>
      <trkpt lat="46.96069" lon="5.72819">
        <ele>284</ele>
        <time>2012-09-18T14:31:54Z</time>
      </trkpt>
      <trkpt lat="46.96075" lon="5.72806">
        <ele>284</ele>
        <time>2012-09-18T14:31:56Z</time>
      </trkpt>
      <trkpt lat="46.96082" lon="5.72794">
        <ele>284</ele>
        <time>2012-09-18T14:31:58Z</time>
      </trkpt>
      <trkpt lat="46.96089" lon="5.72782">
        <ele>284</ele>
        <time>2012-09-18T14:32:00Z</time>
      </trkpt>
      <trkpt lat="46.96096" lon="5.72769">
        <ele>284</ele>
        <time>2012-09-18T14:32:02Z</time>
      </trkpt>
      <trkpt lat="46.96102" lon="5.72757">
        <ele>284</ele>
        <time>2012-09-18T14:32:04Z</time>
      </trkpt>
      <trkpt lat="46.96109" lon="5.72743">
        <ele>284</ele>
        <time>2012-09-18T14:32:06Z</time>
      </trkpt>
      <trkpt lat="46.96115" lon="5.72732">
        <ele>284</ele>
        <time>2012-09-18T14:32:08Z</time>
      </trkpt>
      <trkpt lat="46.96122" lon="5.72719">
        <ele>284</ele>
        <time>2012-09-18T14:32:10Z</time>
      </trkpt>
      <trkpt lat="46.96129" lon="5.72707">
        <ele>284</ele>
        <time>2012-09-18T14:32:12Z</time>
      </trkpt>
      <trkpt lat="46.96136" lon="5.72696">
        <ele>284</ele>
        <time>2012-09-18T14:32:14Z</time>
      </trkpt>
      <trkpt lat="46.96144" lon="5.72686">
        <ele>284</ele>
        <time>2012-09-18T14:32:16Z</time>
      </trkpt>
      <trkpt lat="46.96154" lon="5.72676">
        <ele>284</ele>
        <time>2012-09-18T14:32:18Z</time>
      </trkpt>
      <trkpt lat="46.96163" lon="5.72669">
        <ele>284</ele>
        <time>2012-09-18T14:32:20Z</time>
      </trkpt>
      <trkpt lat="46.96174" lon="5.72663">
        <ele>284</ele>
        <time>2012-09-18T14:32:22Z</time>
      </trkpt>
      <trkpt lat="46.96184" lon="5.72659">
        <ele>284</ele>
        <time>2012-09-18T14:32:24Z</time>
      </trkpt>
      <trkpt lat="46.96195" lon="5.72655">
        <ele>284</ele>
        <time>2012-09-18T14:32:26Z</time>
      </trkpt>
      <trkpt lat="46.96206" lon="5.72653">
        <ele>289</ele>
        <time>2012-09-18T14:32:28Z</time>
      </trkpt>
      <trkpt lat="46.96217" lon="5.7265">
        <ele>289</ele>
        <time>2012-09-18T14:32:30Z</time>
      </trkpt>
      <trkpt lat="46.96229" lon="5.72647">
        <ele>289</ele>
        <time>2012-09-18T14:32:32Z</time>
      </trkpt>
      <trkpt lat="46.96241" lon="5.72645">
        <ele>289</ele>
        <time>2012-09-18T14:32:34Z</time>
      </trkpt>
      <trkpt lat="46.96253" lon="5.72642">
        <ele>289</ele>
        <time>2012-09-18T14:32:36Z</time>
      </trkpt>
      <trkpt lat="46.96264" lon="5.72639">
        <ele>289</ele>
        <time>2012-09-18T14:32:38Z</time>
      </trkpt>
      <trkpt lat="46.96275" lon="5.72637">
        <ele>289</ele>
        <time>2012-09-18T14:32:40Z</time>
      </trkpt>
      <trkpt lat="46.96286" lon="5.72634">
        <ele>289</ele>
        <time>2012-09-18T14:32:42Z</time>
      </trkpt>
      <trkpt lat="46.96297" lon="5.72631">
        <ele>289</ele>
        <time>2012-09-18T14:32:44Z</time>
      </trkpt>
      <trkpt lat="46.96309" lon="5.72628">
        <ele>289</ele>
        <time>2012-09-18T14:32:46Z</time>
      </trkpt>
      <trkpt lat="46.9632" lon="5.72624">
        <ele>289</ele>
        <time>2012-09-18T14:32:48Z</time>
      </trkpt>
      <trkpt lat="46.96331" lon="5.72618">
        <ele>289</ele>
        <time>2012-09-18T14:32:50Z</time>
      </trkpt>
      <trkpt lat="46.96342" lon="5.72608">
        <ele>289</ele>
        <time>2012-09-18T14:32:52Z</time>
      </trkpt>
      <trkpt lat="46.96351" lon="5.72593">
        <ele>289</ele>
        <time>2012-09-18T14:32:54Z</time>
      </trkpt>
      <trkpt lat="46.96358" lon="5.72574">
        <ele>289</ele>
        <time>2012-09-18T14:32:56Z</time>
      </trkpt>
      <trkpt lat="46.96363" lon="5.72551">
        <ele>289</ele>
        <time>2012-09-18T14:32:58Z</time>
      </trkpt>
      <trkpt lat="46.96368" lon="5.72527">
        <ele>289</ele>
        <time>2012-09-18T14:33:00Z</time>
      </trkpt>
      <trkpt lat="46.96371" lon="5.72514">
        <ele>289</ele>
        <time>2012-09-18T14:33:01Z</time>
      </trkpt>
      <trkpt lat="46.96381" lon="5.72491">
        <ele>289</ele>
        <time>2012-09-18T14:33:03Z</time>
      </trkpt>
      <trkpt lat="46.96388" lon="5.72481">
        <ele>289</ele>
        <time>2012-09-18T14:33:04Z</time>
      </trkpt>
      <trkpt lat="46.96396" lon="5.72473">
        <ele>289</ele>
        <time>2012-09-18T14:33:05Z</time>
      </trkpt>
      <trkpt lat="46.96406" lon="5.72468">
        <ele>289</ele>
        <time>2012-09-18T14:33:06Z</time>
      </trkpt>
      <trkpt lat="46.96416" lon="5.72463">
        <ele>289</ele>
        <time>2012-09-18T14:33:07Z</time>
      </trkpt>
      <trkpt lat="46.96426" lon="5.7246">
        <ele>289</ele>
        <time>2012-09-18T14:33:08Z</time>
      </trkpt>
      <trkpt lat="46.96436" lon="5.72458">
        <ele>289</ele>
        <time>2012-09-18T14:33:09Z</time>
      </trkpt>
      <trkpt lat="46.96447" lon="5.72456">
        <ele>289</ele>
        <time>2012-09-18T14:33:10Z</time>
      </trkpt>
      <trkpt lat="46.96458" lon="5.72454">
        <ele>289</ele>
        <time>2012-09-18T14:33:11Z</time>
      </trkpt>
      <trkpt lat="46.96468" lon="5.72452">
        <ele>289</ele>
        <time>2012-09-18T14:33:12Z</time>
      </trkpt>
      <trkpt lat="46.96479" lon="5.72451">
        <ele>289</ele>
        <time>2012-09-18T14:33:13Z</time>
      </trkpt>
      <trkpt lat="46.9649" lon="5.72448">
        <ele>289</ele>
        <time>2012-09-18T14:33:14Z</time>
      </trkpt>
      <trkpt lat="46.96501" lon="5.72445">
        <ele>283</ele>
        <time>2012-09-18T14:33:15Z</time>
      </trkpt>
      <trkpt lat="46.96513" lon="5.72442">
        <ele>283</ele>
        <time>2012-09-18T14:33:16Z</time>
      </trkpt>
      <trkpt lat="46.96524" lon="5.7244">
        <ele>283</ele>
        <time>2012-09-18T14:33:17Z</time>
      </trkpt>
      <trkpt lat="46.96535" lon="5.72438">
        <ele>283</ele>
        <time>2012-09-18T14:33:18Z</time>
      </trkpt>
      <trkpt lat="46.96547" lon="5.72435">
        <ele>283</ele>
        <time>2012-09-18T14:33:19Z</time>
      </trkpt>
      <trkpt lat="46.96559" lon="5.72433">
        <ele>283</ele>
        <time>2012-09-18T14:33:20Z</time>
      </trkpt>
      <trkpt lat="46.9657" lon="5.72431">
        <ele>283</ele>
        <time>2012-09-18T14:33:21Z</time>
      </trkpt>
      <trkpt lat="46.96582" lon="5.72428">
        <ele>283</ele>
        <time>2012-09-18T14:33:22Z</time>
      </trkpt>
      <trkpt lat="46.96593" lon="5.72426">
        <ele>278</ele>
        <time>2012-09-18T14:33:23Z</time>
      </trkpt>
      <trkpt lat="46.96604" lon="5.72424">
        <ele>278</ele>
        <time>2012-09-18T14:33:24Z</time>
      </trkpt>
      <trkpt lat="46.96616" lon="5.72421">
        <ele>278</ele>
        <time>2012-09-18T14:33:25Z</time>
      </trkpt>
      <trkpt lat="46.96628" lon="5.72418">
        <ele>278</ele>
        <time>2012-09-18T14:33:26Z</time>
      </trkpt>
      <trkpt lat="46.96639" lon="5.72416">
        <ele>278</ele>
        <time>2012-09-18T14:33:27Z</time>
      </trkpt>
      <trkpt lat="46.9665" lon="5.72414">
        <ele>278</ele>
        <time>2012-09-18T14:33:28Z</time>
      </trkpt>
      <trkpt lat="46.96662" lon="5.72411">
        <ele>278</ele>
        <time>2012-09-18T14:33:29Z</time>
      </trkpt>
      <trkpt lat="46.96673" lon="5.72408">
        <ele>278</ele>
        <time>2012-09-18T14:33:30Z</time>
      </trkpt>
      <trkpt lat="46.96684" lon="5.72407">
        <ele>278</ele>
        <time>2012-09-18T14:33:31Z</time>
      </trkpt>
      <trkpt lat="46.96694" lon="5.72404">
        <ele>278</ele>
        <time>2012-09-18T14:33:32Z</time>
      </trkpt>
      <trkpt lat="46.96705" lon="5.72401">
        <ele>278</ele>
        <time>2012-09-18T14:33:33Z</time>
      </trkpt>
      <trkpt lat="46.96716" lon="5.72399">
        <ele>278</ele>
        <time>2012-09-18T14:33:34Z</time>
      </trkpt>
      <trkpt lat="46.96726" lon="5.72398">
        <ele>278</ele>
        <time>2012-09-18T14:33:35Z</time>
      </trkpt>
      <trkpt lat="46.96737" lon="5.72395">
        <ele>278</ele>
        <time>2012-09-18T14:33:36Z</time>
      </trkpt>
      <trkpt lat="46.96746" lon="5.72391">
        <ele>278</ele>
        <time>2012-09-18T14:33:37Z</time>
      </trkpt>
      <trkpt lat="46.96756" lon="5.72388">
        <ele>278</ele>
        <time>2012-09-18T14:33:38Z</time>
      </trkpt>
      <trkpt lat="46.96765" lon="5.72383">
        <ele>278</ele>
        <time>2012-09-18T14:33:39Z</time>
      </trkpt>
      <trkpt lat="46.96774" lon="5.72378">
        <ele>278</ele>
        <time>2012-09-18T14:33:40Z</time>
      </trkpt>
      <trkpt lat="46.96782" lon="5.72372">
        <ele>278</ele>
        <time>2012-09-18T14:33:41Z</time>
      </trkpt>
      <trkpt lat="46.9679" lon="5.72364">
        <ele>278</ele>
        <time>2012-09-18T14:33:42Z</time>
      </trkpt>
      <trkpt lat="46.96805" lon="5.72351">
        <ele>278</ele>
        <time>2012-09-18T14:33:44Z</time>
      </trkpt>
      <trkpt lat="46.96819" lon="5.72336">
        <ele>278</ele>
        <time>2012-09-18T14:33:46Z</time>
      </trkpt>
      <trkpt lat="46.96826" lon="5.72328">
        <ele>278</ele>
        <time>2012-09-18T14:33:47Z</time>
      </trkpt>
      <trkpt lat="46.9684" lon="5.72314">
        <ele>278</ele>
        <time>2012-09-18T14:33:49Z</time>
      </trkpt>
      <trkpt lat="46.96855" lon="5.723">
        <ele>278</ele>
        <time>2012-09-18T14:33:51Z</time>
      </trkpt>
      <trkpt lat="46.96869" lon="5.72286">
        <ele>278</ele>
        <time>2012-09-18T14:33:53Z</time>
      </trkpt>
      <trkpt lat="46.96883" lon="5.72272">
        <ele>278</ele>
        <time>2012-09-18T14:33:55Z</time>
      </trkpt>
      <trkpt lat="46.96896" lon="5.72258">
        <ele>278</ele>
        <time>2012-09-18T14:33:57Z</time>
      </trkpt>
      <trkpt lat="46.96911" lon="5.72244">
        <ele>278</ele>
        <time>2012-09-18T14:33:59Z</time>
      </trkpt>
      <trkpt lat="46.96925" lon="5.7223">
        <ele>278</ele>
        <time>2012-09-18T14:34:01Z</time>
      </trkpt>
      <trkpt lat="46.96939" lon="5.72214">
        <ele>278</ele>
        <time>2012-09-18T14:34:03Z</time>
      </trkpt>
      <trkpt lat="46.96953" lon="5.72199">
        <ele>278</ele>
        <time>2012-09-18T14:34:05Z</time>
      </trkpt>
      <trkpt lat="46.96961" lon="5.72192">
        <ele>278</ele>
        <time>2012-09-18T14:34:06Z</time>
      </trkpt>
      <trkpt lat="46.96975" lon="5.72177">
        <ele>278</ele>
        <time>2012-09-18T14:34:08Z</time>
      </trkpt>
      <trkpt lat="46.96983" lon="5.72169">
        <ele>278</ele>
        <time>2012-09-18T14:34:09Z</time>
      </trkpt>
      <trkpt lat="46.9699" lon="5.72161">
        <ele>278</ele>
        <time>2012-09-18T14:34:10Z</time>
      </trkpt>
      <trkpt lat="46.96997" lon="5.72152">
        <ele>278</ele>
        <time>2012-09-18T14:34:11Z</time>
      </trkpt>
      <trkpt lat="46.97005" lon="5.72144">
        <ele>278</ele>
        <time>2012-09-18T14:34:12Z</time>
      </trkpt>
      <trkpt lat="46.97012" lon="5.72136">
        <ele>278</ele>
        <time>2012-09-18T14:34:13Z</time>
      </trkpt>
      <trkpt lat="46.97019" lon="5.72128">
        <ele>278</ele>
        <time>2012-09-18T14:34:14Z</time>
      </trkpt>
      <trkpt lat="46.97027" lon="5.7212">
        <ele>278</ele>
        <time>2012-09-18T14:34:15Z</time>
      </trkpt>
      <trkpt lat="46.97034" lon="5.72112">
        <ele>278</ele>
        <time>2012-09-18T14:34:16Z</time>
      </trkpt>
      <trkpt lat="46.97042" lon="5.72104">
        <ele>278</ele>
        <time>2012-09-18T14:34:17Z</time>
      </trkpt>
      <trkpt lat="46.9705" lon="5.72096">
        <ele>278</ele>
        <time>2012-09-18T14:34:18Z</time>
      </trkpt>
      <trkpt lat="46.97058" lon="5.72088">
        <ele>278</ele>
        <time>2012-09-18T14:34:19Z</time>
      </trkpt>
      <trkpt lat="46.97066" lon="5.72079">
        <ele>278</ele>
        <time>2012-09-18T14:34:20Z</time>
      </trkpt>
      <trkpt lat="46.97073" lon="5.7207">
        <ele>278</ele>
        <time>2012-09-18T14:34:21Z</time>
      </trkpt>
      <trkpt lat="46.97081" lon="5.72062">
        <ele>278</ele>
        <time>2012-09-18T14:34:22Z</time>
      </trkpt>
      <trkpt lat="46.97089" lon="5.72053">
        <ele>278</ele>
        <time>2012-09-18T14:34:23Z</time>
      </trkpt>
      <trkpt lat="46.97096" lon="5.72044">
        <ele>278</ele>
        <time>2012-09-18T14:34:24Z</time>
      </trkpt>
      <trkpt lat="46.97104" lon="5.72035">
        <ele>278</ele>
        <time>2012-09-18T14:34:25Z</time>
      </trkpt>
      <trkpt lat="46.97113" lon="5.72027">
        <ele>278</ele>
        <time>2012-09-18T14:34:26Z</time>
      </trkpt>
      <trkpt lat="46.9712" lon="5.72018">
        <ele>278</ele>
        <time>2012-09-18T14:34:27Z</time>
      </trkpt>
      <trkpt lat="46.97129" lon="5.7201">
        <ele>278</ele>
        <time>2012-09-18T14:34:28Z</time>
      </trkpt>
      <trkpt lat="46.97137" lon="5.72001">
        <ele>278</ele>
        <time>2012-09-18T14:34:29Z</time>
      </trkpt>
      <trkpt lat="46.97145" lon="5.71992">
        <ele>278</ele>
        <time>2012-09-18T14:34:30Z</time>
      </trkpt>
      <trkpt lat="46.97153" lon="5.71982">
        <ele>278</ele>
        <time>2012-09-18T14:34:31Z</time>
      </trkpt>
      <trkpt lat="46.9716" lon="5.71971">
        <ele>278</ele>
        <time>2012-09-18T14:34:32Z</time>
      </trkpt>
      <trkpt lat="46.97168" lon="5.7196">
        <ele>278</ele>
        <time>2012-09-18T14:34:33Z</time>
      </trkpt>
      <trkpt lat="46.97176" lon="5.71948">
        <ele>278</ele>
        <time>2012-09-18T14:34:34Z</time>
      </trkpt>
      <trkpt lat="46.97183" lon="5.71937">
        <ele>278</ele>
        <time>2012-09-18T14:34:35Z</time>
      </trkpt>
      <trkpt lat="46.9719" lon="5.71925">
        <ele>273</ele>
        <time>2012-09-18T14:34:36Z</time>
      </trkpt>
      <trkpt lat="46.97197" lon="5.71913">
        <ele>273</ele>
        <time>2012-09-18T14:34:37Z</time>
      </trkpt>
      <trkpt lat="46.97204" lon="5.71902">
        <ele>273</ele>
        <time>2012-09-18T14:34:38Z</time>
      </trkpt>
      <trkpt lat="46.97212" lon="5.71891">
        <ele>273</ele>
        <time>2012-09-18T14:34:39Z</time>
      </trkpt>
      <trkpt lat="46.97219" lon="5.71879">
        <ele>273</ele>
        <time>2012-09-18T14:34:40Z</time>
      </trkpt>
      <trkpt lat="46.97226" lon="5.71868">
        <ele>273</ele>
        <time>2012-09-18T14:34:41Z</time>
      </trkpt>
      <trkpt lat="46.97233" lon="5.71858">
        <ele>273</ele>
        <time>2012-09-18T14:34:42Z</time>
      </trkpt>
      <trkpt lat="46.97241" lon="5.71847">
        <ele>273</ele>
        <time>2012-09-18T14:34:43Z</time>
      </trkpt>
      <trkpt lat="46.97248" lon="5.71836">
        <ele>268</ele>
        <time>2012-09-18T14:34:44Z</time>
      </trkpt>
      <trkpt lat="46.97255" lon="5.71824">
        <ele>268</ele>
        <time>2012-09-18T14:34:45Z</time>
      </trkpt>
      <trkpt lat="46.97262" lon="5.71813">
        <ele>268</ele>
        <time>2012-09-18T14:34:46Z</time>
      </trkpt>
      <trkpt lat="46.97269" lon="5.71802">
        <ele>268</ele>
        <time>2012-09-18T14:34:47Z</time>
      </trkpt>
      <trkpt lat="46.97276" lon="5.7179">
        <ele>268</ele>
        <time>2012-09-18T14:34:48Z</time>
      </trkpt>
      <trkpt lat="46.97283" lon="5.71779">
        <ele>268</ele>
        <time>2012-09-18T14:34:49Z</time>
      </trkpt>
      <trkpt lat="46.9729" lon="5.71768">
        <ele>268</ele>
        <time>2012-09-18T14:34:50Z</time>
      </trkpt>
      <trkpt lat="46.97297" lon="5.71757">
        <ele>268</ele>
        <time>2012-09-18T14:34:51Z</time>
      </trkpt>
      <trkpt lat="46.97304" lon="5.71746">
        <ele>268</ele>
        <time>2012-09-18T14:34:52Z</time>
      </trkpt>
      <trkpt lat="46.97311" lon="5.71736">
        <ele>268</ele>
        <time>2012-09-18T14:34:53Z</time>
      </trkpt>
      <trkpt lat="46.97318" lon="5.71724">
        <ele>268</ele>
        <time>2012-09-18T14:34:54Z</time>
      </trkpt>
      <trkpt lat="46.97326" lon="5.71712">
        <ele>268</ele>
        <time>2012-09-18T14:34:55Z</time>
      </trkpt>
      <trkpt lat="46.97333" lon="5.71701">
        <ele>268</ele>
        <time>2012-09-18T14:34:56Z</time>
      </trkpt>
      <trkpt lat="46.9734" lon="5.7169">
        <ele>262</ele>
        <time>2012-09-18T14:34:57Z</time>
      </trkpt>
      <trkpt lat="46.97348" lon="5.71678">
        <ele>262</ele>
        <time>2012-09-18T14:34:58Z</time>
      </trkpt>
      <trkpt lat="46.97355" lon="5.71667">
        <ele>262</ele>
        <time>2012-09-18T14:34:59Z</time>
      </trkpt>
      <trkpt lat="46.97363" lon="5.71656">
        <ele>262</ele>
        <time>2012-09-18T14:35:00Z</time>
      </trkpt>
      <trkpt lat="46.97371" lon="5.71646">
        <ele>262</ele>
        <time>2012-09-18T14:35:01Z</time>
      </trkpt>
      <trkpt lat="46.9738" lon="5.71637">
        <ele>262</ele>
        <time>2012-09-18T14:35:02Z</time>
      </trkpt>
      <trkpt lat="46.97388" lon="5.71627">
        <ele>262</ele>
        <time>2012-09-18T14:35:03Z</time>
      </trkpt>
      <trkpt lat="46.97396" lon="5.71618">
        <ele>262</ele>
        <time>2012-09-18T14:35:04Z</time>
      </trkpt>
      <trkpt lat="46.97405" lon="5.7161">
        <ele>262</ele>
        <time>2012-09-18T14:35:05Z</time>
      </trkpt>
      <trkpt lat="46.97414" lon="5.71603">
        <ele>262</ele>
        <time>2012-09-18T14:35:06Z</time>
      </trkpt>
      <trkpt lat="46.97423" lon="5.71597">
        <ele>262</ele>
        <time>2012-09-18T14:35:07Z</time>
      </trkpt>
      <trkpt lat="46.97432" lon="5.71593">
        <ele>262</ele>
        <time>2012-09-18T14:35:08Z</time>
      </trkpt>
      <trkpt lat="46.97442" lon="5.71589">
        <ele>262</ele>
        <time>2012-09-18T14:35:09Z</time>
      </trkpt>
      <trkpt lat="46.97451" lon="5.71586">
        <ele>262</ele>
        <time>2012-09-18T14:35:10Z</time>
      </trkpt>
      <trkpt lat="46.9746" lon="5.71584">
        <ele>262</ele>
        <time>2012-09-18T14:35:11Z</time>
      </trkpt>
      <trkpt lat="46.97469" lon="5.71582">
        <ele>262</ele>
        <time>2012-09-18T14:35:12Z</time>
      </trkpt>
      <trkpt lat="46.97487" lon="5.71579">
        <ele>262</ele>
        <time>2012-09-18T14:35:14Z</time>
      </trkpt>
      <trkpt lat="46.97497" lon="5.71579">
        <ele>262</ele>
        <time>2012-09-18T14:35:15Z</time>
      </trkpt>
      <trkpt lat="46.97514" lon="5.7158">
        <ele>262</ele>
        <time>2012-09-18T14:35:17Z</time>
      </trkpt>
      <trkpt lat="46.97531" lon="5.71578">
        <ele>262</ele>
        <time>2012-09-18T14:35:19Z</time>
      </trkpt>
      <trkpt lat="46.97548" lon="5.71573">
        <ele>262</ele>
        <time>2012-09-18T14:35:21Z</time>
      </trkpt>
      <trkpt lat="46.97564" lon="5.71562">
        <ele>262</ele>
        <time>2012-09-18T14:35:23Z</time>
      </trkpt>
      <trkpt lat="46.97577" lon="5.71547">
        <ele>262</ele>
        <time>2012-09-18T14:35:25Z</time>
      </trkpt>
      <trkpt lat="46.97589" lon="5.71528">
        <ele>262</ele>
        <time>2012-09-18T14:35:27Z</time>
      </trkpt>
      <trkpt lat="46.97601" lon="5.71509">
        <ele>262</ele>
        <time>2012-09-18T14:35:29Z</time>
      </trkpt>
      <trkpt lat="46.97614" lon="5.71494">
        <ele>262</ele>
        <time>2012-09-18T14:35:31Z</time>
      </trkpt>
      <trkpt lat="46.97628" lon="5.71481">
        <ele>262</ele>
        <time>2012-09-18T14:35:33Z</time>
      </trkpt>
      <trkpt lat="46.97643" lon="5.71471">
        <ele>262</ele>
        <time>2012-09-18T14:35:35Z</time>
      </trkpt>
      <trkpt lat="46.97658" lon="5.71459">
        <ele>262</ele>
        <time>2012-09-18T14:35:37Z</time>
      </trkpt>
      <trkpt lat="46.97674" lon="5.71448">
        <ele>262</ele>
        <time>2012-09-18T14:35:39Z</time>
      </trkpt>
      <trkpt lat="46.9769" lon="5.71438">
        <ele>262</ele>
        <time>2012-09-18T14:35:41Z</time>
      </trkpt>
      <trkpt lat="46.97705" lon="5.71427">
        <ele>262</ele>
        <time>2012-09-18T14:35:43Z</time>
      </trkpt>
      <trkpt lat="46.97714" lon="5.71423">
        <ele>262</ele>
        <time>2012-09-18T14:35:44Z</time>
      </trkpt>
      <trkpt lat="46.9773" lon="5.71414">
        <ele>262</ele>
        <time>2012-09-18T14:35:46Z</time>
      </trkpt>
      <trkpt lat="46.97739" lon="5.7141">
        <ele>262</ele>
        <time>2012-09-18T14:35:47Z</time>
      </trkpt>
      <trkpt lat="46.97748" lon="5.71409">
        <ele>262</ele>
        <time>2012-09-18T14:35:48Z</time>
      </trkpt>
      <trkpt lat="46.97757" lon="5.71407">
        <ele>262</ele>
        <time>2012-09-18T14:35:49Z</time>
      </trkpt>
      <trkpt lat="46.97766" lon="5.71406">
        <ele>262</ele>
        <time>2012-09-18T14:35:50Z</time>
      </trkpt>
      <trkpt lat="46.97776" lon="5.71406">
        <ele>262</ele>
        <time>2012-09-18T14:35:51Z</time>
      </trkpt>
      <trkpt lat="46.97785" lon="5.71407">
        <ele>262</ele>
        <time>2012-09-18T14:35:52Z</time>
      </trkpt>
      <trkpt lat="46.97795" lon="5.71409">
        <ele>262</ele>
        <time>2012-09-18T14:35:53Z</time>
      </trkpt>
      <trkpt lat="46.97804" lon="5.7141">
        <ele>262</ele>
        <time>2012-09-18T14:35:54Z</time>
      </trkpt>
      <trkpt lat="46.97814" lon="5.71413">
        <ele>262</ele>
        <time>2012-09-18T14:35:55Z</time>
      </trkpt>
      <trkpt lat="46.97824" lon="5.71415">
        <ele>262</ele>
        <time>2012-09-18T14:35:56Z</time>
      </trkpt>
      <trkpt lat="46.97833" lon="5.71418">
        <ele>262</ele>
        <time>2012-09-18T14:35:57Z</time>
      </trkpt>
      <trkpt lat="46.97843" lon="5.71419">
        <ele>262</ele>
        <time>2012-09-18T14:35:58Z</time>
      </trkpt>
      <trkpt lat="46.97853" lon="5.71422">
        <ele>262</ele>
        <time>2012-09-18T14:35:59Z</time>
      </trkpt>
      <trkpt lat="46.97864" lon="5.71424">
        <ele>262</ele>
        <time>2012-09-18T14:36:00Z</time>
      </trkpt>
      <trkpt lat="46.97874" lon="5.71426">
        <ele>262</ele>
        <time>2012-09-18T14:36:01Z</time>
      </trkpt>
      <trkpt lat="46.97885" lon="5.71426">
        <ele>262</ele>
        <time>2012-09-18T14:36:02Z</time>
      </trkpt>
      <trkpt lat="46.97894" lon="5.71426">
        <ele>262</ele>
        <time>2012-09-18T14:36:03Z</time>
      </trkpt>
      <trkpt lat="46.97904" lon="5.71424">
        <ele>262</ele>
        <time>2012-09-18T14:36:04Z</time>
      </trkpt>
      <trkpt lat="46.97914" lon="5.7142">
        <ele>262</ele>
        <time>2012-09-18T14:36:05Z</time>
      </trkpt>
      <trkpt lat="46.97924" lon="5.71418">
        <ele>262</ele>
        <time>2012-09-18T14:36:06Z</time>
      </trkpt>
      <trkpt lat="46.97933" lon="5.71414">
        <ele>262</ele>
        <time>2012-09-18T14:36:07Z</time>
      </trkpt>
      <trkpt lat="46.97943" lon="5.71411">
        <ele>262</ele>
        <time>2012-09-18T14:36:08Z</time>
      </trkpt>
      <trkpt lat="46.97953" lon="5.71409">
        <ele>262</ele>
        <time>2012-09-18T14:36:09Z</time>
      </trkpt>
      <trkpt lat="46.97964" lon="5.71409">
        <ele>262</ele>
        <time>2012-09-18T14:36:10Z</time>
      </trkpt>
      <trkpt lat="46.97974" lon="5.7141">
        <ele>262</ele>
        <time>2012-09-18T14:36:11Z</time>
      </trkpt>
      <trkpt lat="46.97985" lon="5.71413">
        <ele>262</ele>
        <time>2012-09-18T14:36:12Z</time>
      </trkpt>
      <trkpt lat="46.97995" lon="5.71417">
        <ele>262</ele>
        <time>2012-09-18T14:36:13Z</time>
      </trkpt>
      <trkpt lat="46.98004" lon="5.71421">
        <ele>262</ele>
        <time>2012-09-18T14:36:14Z</time>
      </trkpt>
      <trkpt lat="46.98015" lon="5.71425">
        <ele>262</ele>
        <time>2012-09-18T14:36:15Z</time>
      </trkpt>
      <trkpt lat="46.98025" lon="5.71429">
        <ele>262</ele>
        <time>2012-09-18T14:36:16Z</time>
      </trkpt>
      <trkpt lat="46.98035" lon="5.71433">
        <ele>257</ele>
        <time>2012-09-18T14:36:17Z</time>
      </trkpt>
      <trkpt lat="46.98045" lon="5.71435">
        <ele>257</ele>
        <time>2012-09-18T14:36:18Z</time>
      </trkpt>
      <trkpt lat="46.98055" lon="5.71436">
        <ele>257</ele>
        <time>2012-09-18T14:36:19Z</time>
      </trkpt>
      <trkpt lat="46.98065" lon="5.71435">
        <ele>257</ele>
        <time>2012-09-18T14:36:20Z</time>
      </trkpt>
      <trkpt lat="46.98074" lon="5.71433">
        <ele>257</ele>
        <time>2012-09-18T14:36:21Z</time>
      </trkpt>
      <trkpt lat="46.98083" lon="5.71429">
        <ele>257</ele>
        <time>2012-09-18T14:36:22Z</time>
      </trkpt>
      <trkpt lat="46.98092" lon="5.71426">
        <ele>257</ele>
        <time>2012-09-18T14:36:23Z</time>
      </trkpt>
      <trkpt lat="46.98102" lon="5.71422">
        <ele>257</ele>
        <time>2012-09-18T14:36:24Z</time>
      </trkpt>
      <trkpt lat="46.98111" lon="5.71419">
        <ele>257</ele>
        <time>2012-09-18T14:36:25Z</time>
      </trkpt>
      <trkpt lat="46.98128" lon="5.71414">
        <ele>257</ele>
        <time>2012-09-18T14:36:27Z</time>
      </trkpt>
      <trkpt lat="46.98137" lon="5.71411">
        <ele>257</ele>
        <time>2012-09-18T14:36:28Z</time>
      </trkpt>
      <trkpt lat="46.98155" lon="5.71407">
        <ele>257</ele>
        <time>2012-09-18T14:36:30Z</time>
      </trkpt>
      <trkpt lat="46.98164" lon="5.71404">
        <ele>257</ele>
        <time>2012-09-18T14:36:31Z</time>
      </trkpt>
      <trkpt lat="46.98173" lon="5.714">
        <ele>257</ele>
        <time>2012-09-18T14:36:32Z</time>
      </trkpt>
      <trkpt lat="46.98183" lon="5.71397">
        <ele>257</ele>
        <time>2012-09-18T14:36:33Z</time>
      </trkpt>
      <trkpt lat="46.98191" lon="5.71392">
        <ele>257</ele>
        <time>2012-09-18T14:36:34Z</time>
      </trkpt>
      <trkpt lat="46.98201" lon="5.71388">
        <ele>257</ele>
        <time>2012-09-18T14:36:35Z</time>
      </trkpt>
      <trkpt lat="46.98209" lon="5.71382">
        <ele>257</ele>
        <time>2012-09-18T14:36:36Z</time>
      </trkpt>
      <trkpt lat="46.98218" lon="5.71376">
        <ele>257</ele>
        <time>2012-09-18T14:36:37Z</time>
      </trkpt>
      <trkpt lat="46.98226" lon="5.71371">
        <ele>257</ele>
        <time>2012-09-18T14:36:38Z</time>
      </trkpt>
      <trkpt lat="46.98242" lon="5.71359">
        <ele>257</ele>
        <time>2012-09-18T14:36:40Z</time>
      </trkpt>
      <trkpt lat="46.98258" lon="5.71349">
        <ele>257</ele>
        <time>2012-09-18T14:36:42Z</time>
      </trkpt>
      <trkpt lat="46.98272" lon="5.71338">
        <ele>257</ele>
        <time>2012-09-18T14:36:44Z</time>
      </trkpt>
      <trkpt lat="46.98287" lon="5.71328">
        <ele>257</ele>
        <time>2012-09-18T14:36:46Z</time>
      </trkpt>
      <trkpt lat="46.98301" lon="5.71319">
        <ele>257</ele>
        <time>2012-09-18T14:36:48Z</time>
      </trkpt>
      <trkpt lat="46.98317" lon="5.71311">
        <ele>257</ele>
        <time>2012-09-18T14:36:50Z</time>
      </trkpt>
      <trkpt lat="46.98333" lon="5.71301">
        <ele>257</ele>
        <time>2012-09-18T14:36:52Z</time>
      </trkpt>
      <trkpt lat="46.98342" lon="5.71296">
        <ele>257</ele>
        <time>2012-09-18T14:36:53Z</time>
      </trkpt>
      <trkpt lat="46.98351" lon="5.71292">
        <ele>257</ele>
        <time>2012-09-18T14:36:54Z</time>
      </trkpt>
      <trkpt lat="46.9836" lon="5.71288">
        <ele>257</ele>
        <time>2012-09-18T14:36:55Z</time>
      </trkpt>
      <trkpt lat="46.98369" lon="5.71284">
        <ele>257</ele>
        <time>2012-09-18T14:36:56Z</time>
      </trkpt>
      <trkpt lat="46.98378" lon="5.71279">
        <ele>257</ele>
        <time>2012-09-18T14:36:57Z</time>
      </trkpt>
      <trkpt lat="46.98387" lon="5.71274">
        <ele>257</ele>
        <time>2012-09-18T14:36:58Z</time>
      </trkpt>
      <trkpt lat="46.98396" lon="5.71268">
        <ele>257</ele>
        <time>2012-09-18T14:36:59Z</time>
      </trkpt>
      <trkpt lat="46.98406" lon="5.71265">
        <ele>257</ele>
        <time>2012-09-18T14:37:00Z</time>
      </trkpt>
      <trkpt lat="46.98415" lon="5.7126">
        <ele>257</ele>
        <time>2012-09-18T14:37:01Z</time>
      </trkpt>
      <trkpt lat="46.98424" lon="5.71256">
        <ele>257</ele>
        <time>2012-09-18T14:37:02Z</time>
      </trkpt>
      <trkpt lat="46.98433" lon="5.7125">
        <ele>257</ele>
        <time>2012-09-18T14:37:03Z</time>
      </trkpt>
      <trkpt lat="46.98442" lon="5.71245">
        <ele>257</ele>
        <time>2012-09-18T14:37:04Z</time>
      </trkpt>
      <trkpt lat="46.9845" lon="5.71241">
        <ele>257</ele>
        <time>2012-09-18T14:37:05Z</time>
      </trkpt>
      <trkpt lat="46.98459" lon="5.71236">
        <ele>257</ele>
        <time>2012-09-18T14:37:06Z</time>
      </trkpt>
      <trkpt lat="46.98467" lon="5.7123">
        <ele>257</ele>
        <time>2012-09-18T14:37:07Z</time>
      </trkpt>
      <trkpt lat="46.98475" lon="5.71223">
        <ele>257</ele>
        <time>2012-09-18T14:37:08Z</time>
      </trkpt>
      <trkpt lat="46.98489" lon="5.71211">
        <ele>257</ele>
        <time>2012-09-18T14:37:10Z</time>
      </trkpt>
      <trkpt lat="46.98504" lon="5.71197">
        <ele>257</ele>
        <time>2012-09-18T14:37:12Z</time>
      </trkpt>
      <trkpt lat="46.98518" lon="5.71183">
        <ele>257</ele>
        <time>2012-09-18T14:37:14Z</time>
      </trkpt>
      <trkpt lat="46.98531" lon="5.7117">
        <ele>257</ele>
        <time>2012-09-18T14:37:16Z</time>
      </trkpt>
      <trkpt lat="46.98546" lon="5.71154">
        <ele>257</ele>
        <time>2012-09-18T14:37:18Z</time>
      </trkpt>
      <trkpt lat="46.98553" lon="5.71146">
        <ele>257</ele>
        <time>2012-09-18T14:37:19Z</time>
      </trkpt>
      <trkpt lat="46.98561" lon="5.71137">
        <ele>257</ele>
        <time>2012-09-18T14:37:20Z</time>
      </trkpt>
      <trkpt lat="46.98568" lon="5.71128">
        <ele>257</ele>
        <time>2012-09-18T14:37:21Z</time>
      </trkpt>
      <trkpt lat="46.98575" lon="5.71119">
        <ele>257</ele>
        <time>2012-09-18T14:37:22Z</time>
      </trkpt>
      <trkpt lat="46.98582" lon="5.7111">
        <ele>257</ele>
        <time>2012-09-18T14:37:23Z</time>
      </trkpt>
      <trkpt lat="46.98595" lon="5.71094">
        <ele>257</ele>
        <time>2012-09-18T14:37:25Z</time>
      </trkpt>
      <trkpt lat="46.98607" lon="5.71078">
        <ele>257</ele>
        <time>2012-09-18T14:37:27Z</time>
      </trkpt>
      <trkpt lat="46.98618" lon="5.71064">
        <ele>257</ele>
        <time>2012-09-18T14:37:29Z</time>
      </trkpt>
      <trkpt lat="46.98628" lon="5.7105">
        <ele>257</ele>
        <time>2012-09-18T14:37:31Z</time>
      </trkpt>
      <trkpt lat="46.98639" lon="5.71038">
        <ele>257</ele>
        <time>2012-09-18T14:37:33Z</time>
      </trkpt>
      <trkpt lat="46.9865" lon="5.71024">
        <ele>257</ele>
        <time>2012-09-18T14:37:35Z</time>
      </trkpt>
      <trkpt lat="46.98661" lon="5.71011">
        <ele>257</ele>
        <time>2012-09-18T14:37:37Z</time>
      </trkpt>
      <trkpt lat="46.98671" lon="5.70998">
        <ele>257</ele>
        <time>2012-09-18T14:37:39Z</time>
      </trkpt>
      <trkpt lat="46.9868" lon="5.70982">
        <ele>257</ele>
        <time>2012-09-18T14:37:41Z</time>
      </trkpt>
      <trkpt lat="46.98687" lon="5.70965">
        <ele>257</ele>
        <time>2012-09-18T14:37:43Z</time>
      </trkpt>
      <trkpt lat="46.98693" lon="5.70946">
        <ele>257</ele>
        <time>2012-09-18T14:37:45Z</time>
      </trkpt>
      <trkpt lat="46.98698" lon="5.7093">
        <ele>257</ele>
        <time>2012-09-18T14:37:47Z</time>
      </trkpt>
      <trkpt lat="46.987" lon="5.70913">
        <ele>257</ele>
        <time>2012-09-18T14:37:49Z</time>
      </trkpt>
      <trkpt lat="46.98704" lon="5.70895">
        <ele>257</ele>
        <time>2012-09-18T14:37:51Z</time>
      </trkpt>
      <trkpt lat="46.98714" lon="5.70874">
        <ele>257</ele>
        <time>2012-09-18T14:37:53Z</time>
      </trkpt>
      <trkpt lat="46.98727" lon="5.70861">
        <ele>257</ele>
        <time>2012-09-18T14:37:55Z</time>
      </trkpt>
      <trkpt lat="46.98743" lon="5.70856">
        <ele>257</ele>
        <time>2012-09-18T14:37:57Z</time>
      </trkpt>
      <trkpt lat="46.98759" lon="5.70853">
        <ele>257</ele>
        <time>2012-09-18T14:37:59Z</time>
      </trkpt>
      <trkpt lat="46.98774" lon="5.70852">
        <ele>257</ele>
        <time>2012-09-18T14:38:01Z</time>
      </trkpt>
      <trkpt lat="46.98788" lon="5.70852">
        <ele>257</ele>
        <time>2012-09-18T14:38:03Z</time>
      </trkpt>
      <trkpt lat="46.98801" lon="5.70851">
        <ele>257</ele>
        <time>2012-09-18T14:38:05Z</time>
      </trkpt>
      <trkpt lat="46.98813" lon="5.7085">
        <ele>257</ele>
        <time>2012-09-18T14:38:07Z</time>
      </trkpt>
      <trkpt lat="46.98826" lon="5.70846">
        <ele>257</ele>
        <time>2012-09-18T14:38:09Z</time>
      </trkpt>
      <trkpt lat="46.9884" lon="5.70843">
        <ele>257</ele>
        <time>2012-09-18T14:38:11Z</time>
      </trkpt>
      <trkpt lat="46.98853" lon="5.70836">
        <ele>257</ele>
        <time>2012-09-18T14:38:13Z</time>
      </trkpt>
      <trkpt lat="46.98868" lon="5.70829">
        <ele>257</ele>
        <time>2012-09-18T14:38:15Z</time>
      </trkpt>
      <trkpt lat="46.98882" lon="5.70821">
        <ele>257</ele>
        <time>2012-09-18T14:38:17Z</time>
      </trkpt>
      <trkpt lat="46.98898" lon="5.70813">
        <ele>257</ele>
        <time>2012-09-18T14:38:19Z</time>
      </trkpt>
      <trkpt lat="46.98914" lon="5.70805">
        <ele>257</ele>
        <time>2012-09-18T14:38:21Z</time>
      </trkpt>
      <trkpt lat="46.9893" lon="5.70797">
        <ele>257</ele>
        <time>2012-09-18T14:38:23Z</time>
      </trkpt>
      <trkpt lat="46.98946" lon="5.70789">
        <ele>257</ele>
        <time>2012-09-18T14:38:25Z</time>
      </trkpt>
      <trkpt lat="46.98961" lon="5.70781">
        <ele>257</ele>
        <time>2012-09-18T14:38:27Z</time>
      </trkpt>
      <trkpt lat="46.98976" lon="5.70773">
        <ele>257</ele>
        <time>2012-09-18T14:38:29Z</time>
      </trkpt>
      <trkpt lat="46.98989" lon="5.70766">
        <ele>257</ele>
        <time>2012-09-18T14:38:31Z</time>
      </trkpt>
      <trkpt lat="46.99002" lon="5.70759">
        <ele>257</ele>
        <time>2012-09-18T14:38:33Z</time>
      </trkpt>
      <trkpt lat="46.99014" lon="5.70753">
        <ele>257</ele>
        <time>2012-09-18T14:38:35Z</time>
      </trkpt>
      <trkpt lat="46.99027" lon="5.70746">
        <ele>257</ele>
        <time>2012-09-18T14:38:37Z</time>
      </trkpt>
      <trkpt lat="46.9904" lon="5.70743">
        <ele>257</ele>
        <time>2012-09-18T14:38:39Z</time>
      </trkpt>
      <trkpt lat="46.99054" lon="5.70741">
        <ele>257</ele>
        <time>2012-09-18T14:38:41Z</time>
      </trkpt>
      <trkpt lat="46.99069" lon="5.70741">
        <ele>257</ele>
        <time>2012-09-18T14:38:43Z</time>
      </trkpt>
      <trkpt lat="46.99084" lon="5.70742">
        <ele>257</ele>
        <time>2012-09-18T14:38:45Z</time>
      </trkpt>
      <trkpt lat="46.99094" lon="5.70742">
        <ele>252</ele>
        <time>2012-09-18T14:38:46Z</time>
      </trkpt>
      <trkpt lat="46.99103" lon="5.70741">
        <ele>252</ele>
        <time>2012-09-18T14:38:47Z</time>
      </trkpt>
      <trkpt lat="46.99112" lon="5.70737">
        <ele>252</ele>
        <time>2012-09-18T14:38:48Z</time>
      </trkpt>
      <trkpt lat="46.99121" lon="5.70732">
        <ele>252</ele>
        <time>2012-09-18T14:38:49Z</time>
      </trkpt>
      <trkpt lat="46.99131" lon="5.70726">
        <ele>252</ele>
        <time>2012-09-18T14:38:50Z</time>
      </trkpt>
      <trkpt lat="46.9914" lon="5.7072">
        <ele>252</ele>
        <time>2012-09-18T14:38:51Z</time>
      </trkpt>
      <trkpt lat="46.99151" lon="5.70713">
        <ele>252</ele>
        <time>2012-09-18T14:38:52Z</time>
      </trkpt>
      <trkpt lat="46.99161" lon="5.70707">
        <ele>252</ele>
        <time>2012-09-18T14:38:53Z</time>
      </trkpt>
      <trkpt lat="46.99172" lon="5.70701">
        <ele>247</ele>
        <time>2012-09-18T14:38:54Z</time>
      </trkpt>
      <trkpt lat="46.99183" lon="5.70693">
        <ele>247</ele>
        <time>2012-09-18T14:38:55Z</time>
      </trkpt>
      <trkpt lat="46.99193" lon="5.70687">
        <ele>247</ele>
        <time>2012-09-18T14:38:56Z</time>
      </trkpt>
      <trkpt lat="46.99203" lon="5.7068">
        <ele>247</ele>
        <time>2012-09-18T14:38:57Z</time>
      </trkpt>
      <trkpt lat="46.99213" lon="5.70673">
        <ele>247</ele>
        <time>2012-09-18T14:38:58Z</time>
      </trkpt>
      <trkpt lat="46.99222" lon="5.70664">
        <ele>247</ele>
        <time>2012-09-18T14:38:59Z</time>
      </trkpt>
      <trkpt lat="46.99229" lon="5.70654">
        <ele>247</ele>
        <time>2012-09-18T14:39:00Z</time>
      </trkpt>
      <trkpt lat="46.99236" lon="5.70642">
        <ele>242</ele>
        <time>2012-09-18T14:39:01Z</time>
      </trkpt>
      <trkpt lat="46.99242" lon="5.70631">
        <ele>242</ele>
        <time>2012-09-18T14:39:02Z</time>
      </trkpt>
      <trkpt lat="46.99249" lon="5.70619">
        <ele>242</ele>
        <time>2012-09-18T14:39:03Z</time>
      </trkpt>
      <trkpt lat="46.99257" lon="5.70608">
        <ele>242</ele>
        <time>2012-09-18T14:39:04Z</time>
      </trkpt>
      <trkpt lat="46.99265" lon="5.70598">
        <ele>242</ele>
        <time>2012-09-18T14:39:05Z</time>
      </trkpt>
      <trkpt lat="46.99273" lon="5.7059">
        <ele>242</ele>
        <time>2012-09-18T14:39:06Z</time>
      </trkpt>
      <trkpt lat="46.99282" lon="5.70582">
        <ele>242</ele>
        <time>2012-09-18T14:39:07Z</time>
      </trkpt>
      <trkpt lat="46.99291" lon="5.70576">
        <ele>242</ele>
        <time>2012-09-18T14:39:08Z</time>
      </trkpt>
      <trkpt lat="46.99301" lon="5.70569">
        <ele>236</ele>
        <time>2012-09-18T14:39:09Z</time>
      </trkpt>
      <trkpt lat="46.99311" lon="5.70564">
        <ele>236</ele>
        <time>2012-09-18T14:39:10Z</time>
      </trkpt>
      <trkpt lat="46.99321" lon="5.70559">
        <ele>236</ele>
        <time>2012-09-18T14:39:11Z</time>
      </trkpt>
      <trkpt lat="46.99331" lon="5.70552">
        <ele>236</ele>
        <time>2012-09-18T14:39:12Z</time>
      </trkpt>
      <trkpt lat="46.99341" lon="5.70545">
        <ele>236</ele>
        <time>2012-09-18T14:39:13Z</time>
      </trkpt>
      <trkpt lat="46.9935" lon="5.70537">
        <ele>236</ele>
        <time>2012-09-18T14:39:14Z</time>
      </trkpt>
      <trkpt lat="46.99359" lon="5.70528">
        <ele>236</ele>
        <time>2012-09-18T14:39:15Z</time>
      </trkpt>
      <trkpt lat="46.99368" lon="5.70519">
        <ele>236</ele>
        <time>2012-09-18T14:39:16Z</time>
      </trkpt>
      <trkpt lat="46.99376" lon="5.7051">
        <ele>236</ele>
        <time>2012-09-18T14:39:17Z</time>
      </trkpt>
      <trkpt lat="46.99385" lon="5.70501">
        <ele>236</ele>
        <time>2012-09-18T14:39:18Z</time>
      </trkpt>
      <trkpt lat="46.99394" lon="5.70492">
        <ele>231</ele>
        <time>2012-09-18T14:39:19Z</time>
      </trkpt>
      <trkpt lat="46.99402" lon="5.70484">
        <ele>231</ele>
        <time>2012-09-18T14:39:20Z</time>
      </trkpt>
      <trkpt lat="46.99411" lon="5.70475">
        <ele>231</ele>
        <time>2012-09-18T14:39:21Z</time>
      </trkpt>
      <trkpt lat="46.99419" lon="5.70466">
        <ele>231</ele>
        <time>2012-09-18T14:39:22Z</time>
      </trkpt>
      <trkpt lat="46.99428" lon="5.70458">
        <ele>231</ele>
        <time>2012-09-18T14:39:23Z</time>
      </trkpt>
      <trkpt lat="46.99437" lon="5.70451">
        <ele>231</ele>
        <time>2012-09-18T14:39:24Z</time>
      </trkpt>
      <trkpt lat="46.99447" lon="5.70445">
        <ele>231</ele>
        <time>2012-09-18T14:39:25Z</time>
      </trkpt>
      <trkpt lat="46.99455" lon="5.70439">
        <ele>231</ele>
        <time>2012-09-18T14:39:26Z</time>
      </trkpt>
      <trkpt lat="46.99464" lon="5.70433">
        <ele>231</ele>
        <time>2012-09-18T14:39:27Z</time>
      </trkpt>
      <trkpt lat="46.99473" lon="5.70428">
        <ele>231</ele>
        <time>2012-09-18T14:39:28Z</time>
      </trkpt>
      <trkpt lat="46.99482" lon="5.70422">
        <ele>231</ele>
        <time>2012-09-18T14:39:29Z</time>
      </trkpt>
      <trkpt lat="46.9949" lon="5.70417">
        <ele>231</ele>
        <time>2012-09-18T14:39:30Z</time>
      </trkpt>
      <trkpt lat="46.99499" lon="5.70412">
        <ele>231</ele>
        <time>2012-09-18T14:39:31Z</time>
      </trkpt>
      <trkpt lat="46.99515" lon="5.70402">
        <ele>231</ele>
        <time>2012-09-18T14:39:33Z</time>
      </trkpt>
      <trkpt lat="46.9953" lon="5.70392">
        <ele>231</ele>
        <time>2012-09-18T14:39:35Z</time>
      </trkpt>
      <trkpt lat="46.99545" lon="5.70383">
        <ele>231</ele>
        <time>2012-09-18T14:39:37Z</time>
      </trkpt>
      <trkpt lat="46.9956" lon="5.70374">
        <ele>231</ele>
        <time>2012-09-18T14:39:39Z</time>
      </trkpt>
      <trkpt lat="46.99574" lon="5.70365">
        <ele>231</ele>
        <time>2012-09-18T14:39:41Z</time>
      </trkpt>
      <trkpt lat="46.99589" lon="5.70356">
        <ele>231</ele>
        <time>2012-09-18T14:39:43Z</time>
      </trkpt>
      <trkpt lat="46.99603" lon="5.70348">
        <ele>231</ele>
        <time>2012-09-18T14:39:45Z</time>
      </trkpt>
      <trkpt lat="46.99616" lon="5.70339">
        <ele>231</ele>
        <time>2012-09-18T14:39:47Z</time>
      </trkpt>
      <trkpt lat="46.9963" lon="5.70331">
        <ele>231</ele>
        <time>2012-09-18T14:39:49Z</time>
      </trkpt>
      <trkpt lat="46.99644" lon="5.70325">
        <ele>231</ele>
        <time>2012-09-18T14:39:51Z</time>
      </trkpt>
      <trkpt lat="46.99658" lon="5.70319">
        <ele>231</ele>
        <time>2012-09-18T14:39:53Z</time>
      </trkpt>
      <trkpt lat="46.99671" lon="5.70313">
        <ele>231</ele>
        <time>2012-09-18T14:39:55Z</time>
      </trkpt>
      <trkpt lat="46.99683" lon="5.70309">
        <ele>231</ele>
        <time>2012-09-18T14:39:57Z</time>
      </trkpt>
      <trkpt lat="46.99694" lon="5.70305">
        <ele>231</ele>
        <time>2012-09-18T14:40:00Z</time>
      </trkpt>
      <trkpt lat="46.99695" lon="5.70291">
        <ele>231</ele>
        <time>2012-09-18T14:41:20Z</time>
      </trkpt>
      <trkpt lat="46.99692" lon="5.70278">
        <ele>231</ele>
        <time>2012-09-18T14:41:23Z</time>
      </trkpt>
      <trkpt lat="46.9969" lon="5.70263">
        <ele>231</ele>
        <time>2012-09-18T14:41:26Z</time>
      </trkpt>
      <trkpt lat="46.99687" lon="5.70245">
        <ele>236</ele>
        <time>2012-09-18T14:41:29Z</time>
      </trkpt>
      <trkpt lat="46.99685" lon="5.70232">
        <ele>236</ele>
        <time>2012-09-18T14:41:31Z</time>
      </trkpt>
      <trkpt lat="46.99683" lon="5.70216">
        <ele>236</ele>
        <time>2012-09-18T14:41:33Z</time>
      </trkpt>
      <trkpt lat="46.99681" lon="5.70201">
        <ele>236</ele>
        <time>2012-09-18T14:41:35Z</time>
      </trkpt>
      <trkpt lat="46.99679" lon="5.70185">
        <ele>236</ele>
        <time>2012-09-18T14:41:37Z</time>
      </trkpt>
      <trkpt lat="46.99676" lon="5.70168">
        <ele>236</ele>
        <time>2012-09-18T14:41:39Z</time>
      </trkpt>
      <trkpt lat="46.99674" lon="5.7015">
        <ele>236</ele>
        <time>2012-09-18T14:41:41Z</time>
      </trkpt>
      <trkpt lat="46.99672" lon="5.70132">
        <ele>236</ele>
        <time>2012-09-18T14:41:43Z</time>
      </trkpt>
      <trkpt lat="46.9967" lon="5.70113">
        <ele>236</ele>
        <time>2012-09-18T14:41:45Z</time>
      </trkpt>
      <trkpt lat="46.9967" lon="5.70094">
        <ele>236</ele>
        <time>2012-09-18T14:41:47Z</time>
      </trkpt>
      <trkpt lat="46.9967" lon="5.70075">
        <ele>236</ele>
        <time>2012-09-18T14:41:49Z</time>
      </trkpt>
      <trkpt lat="46.99672" lon="5.70056">
        <ele>241</ele>
        <time>2012-09-18T14:41:51Z</time>
      </trkpt>
      <trkpt lat="46.99675" lon="5.70036">
        <ele>241</ele>
        <time>2012-09-18T14:41:53Z</time>
      </trkpt>
      <trkpt lat="46.99678" lon="5.70016">
        <ele>241</ele>
        <time>2012-09-18T14:41:55Z</time>
      </trkpt>
      <trkpt lat="46.99681" lon="5.69996">
        <ele>241</ele>
        <time>2012-09-18T14:41:57Z</time>
      </trkpt>
      <trkpt lat="46.99683" lon="5.69977">
        <ele>241</ele>
        <time>2012-09-18T14:41:59Z</time>
      </trkpt>
      <trkpt lat="46.99686" lon="5.69956">
        <ele>241</ele>
        <time>2012-09-18T14:42:01Z</time>
      </trkpt>
      <trkpt lat="46.99689" lon="5.69936">
        <ele>241</ele>
        <time>2012-09-18T14:42:03Z</time>
      </trkpt>
      <trkpt lat="46.99692" lon="5.69916">
        <ele>241</ele>
        <time>2012-09-18T14:42:05Z</time>
      </trkpt>
      <trkpt lat="46.99695" lon="5.69896">
        <ele>241</ele>
        <time>2012-09-18T14:42:07Z</time>
      </trkpt>
      <trkpt lat="46.99697" lon="5.69876">
        <ele>241</ele>
        <time>2012-09-18T14:42:09Z</time>
      </trkpt>
      <trkpt lat="46.99698" lon="5.69856">
        <ele>241</ele>
        <time>2012-09-18T14:42:11Z</time>
      </trkpt>
      <trkpt lat="46.99697" lon="5.69836">
        <ele>241</ele>
        <time>2012-09-18T14:42:13Z</time>
      </trkpt>
      <trkpt lat="46.99695" lon="5.69816">
        <ele>241</ele>
        <time>2012-09-18T14:42:15Z</time>
      </trkpt>
      <trkpt lat="46.99694" lon="5.69797">
        <ele>241</ele>
        <time>2012-09-18T14:42:17Z</time>
      </trkpt>
      <trkpt lat="46.99691" lon="5.69777">
        <ele>241</ele>
        <time>2012-09-18T14:42:19Z</time>
      </trkpt>
      <trkpt lat="46.99689" lon="5.69757">
        <ele>241</ele>
        <time>2012-09-18T14:42:21Z</time>
      </trkpt>
      <trkpt lat="46.99687" lon="5.69739">
        <ele>241</ele>
        <time>2012-09-18T14:42:23Z</time>
      </trkpt>
      <trkpt lat="46.99684" lon="5.69719">
        <ele>241</ele>
        <time>2012-09-18T14:42:25Z</time>
      </trkpt>
      <trkpt lat="46.99681" lon="5.69699">
        <ele>241</ele>
        <time>2012-09-18T14:42:27Z</time>
      </trkpt>
      <trkpt lat="46.99679" lon="5.69678">
        <ele>241</ele>
        <time>2012-09-18T14:42:29Z</time>
      </trkpt>
      <trkpt lat="46.99677" lon="5.69658">
        <ele>241</ele>
        <time>2012-09-18T14:42:31Z</time>
      </trkpt>
      <trkpt lat="46.99675" lon="5.69636">
        <ele>241</ele>
        <time>2012-09-18T14:42:33Z</time>
      </trkpt>
      <trkpt lat="46.99672" lon="5.69615">
        <ele>241</ele>
        <time>2012-09-18T14:42:35Z</time>
      </trkpt>
      <trkpt lat="46.9967" lon="5.69594">
        <ele>241</ele>
        <time>2012-09-18T14:42:37Z</time>
      </trkpt>
      <trkpt lat="46.99667" lon="5.69573">
        <ele>241</ele>
        <time>2012-09-18T14:42:39Z</time>
      </trkpt>
      <trkpt lat="46.99665" lon="5.69553">
        <ele>241</ele>
        <time>2012-09-18T14:42:41Z</time>
      </trkpt>
      <trkpt lat="46.99662" lon="5.69532">
        <ele>241</ele>
        <time>2012-09-18T14:42:43Z</time>
      </trkpt>
      <trkpt lat="46.9966" lon="5.6951">
        <ele>241</ele>
        <time>2012-09-18T14:42:45Z</time>
      </trkpt>
      <trkpt lat="46.99658" lon="5.69491">
        <ele>241</ele>
        <time>2012-09-18T14:42:47Z</time>
      </trkpt>
      <trkpt lat="46.99655" lon="5.69471">
        <ele>241</ele>
        <time>2012-09-18T14:42:49Z</time>
      </trkpt>
      <trkpt lat="46.99653" lon="5.69451">
        <ele>241</ele>
        <time>2012-09-18T14:42:51Z</time>
      </trkpt>
      <trkpt lat="46.9965" lon="5.6943">
        <ele>241</ele>
        <time>2012-09-18T14:42:53Z</time>
      </trkpt>
      <trkpt lat="46.99648" lon="5.69409">
        <ele>241</ele>
        <time>2012-09-18T14:42:55Z</time>
      </trkpt>
      <trkpt lat="46.99646" lon="5.69387">
        <ele>241</ele>
        <time>2012-09-18T14:42:57Z</time>
      </trkpt>
      <trkpt lat="46.99643" lon="5.69366">
        <ele>241</ele>
        <time>2012-09-18T14:42:59Z</time>
      </trkpt>
      <trkpt lat="46.99641" lon="5.69343">
        <ele>241</ele>
        <time>2012-09-18T14:43:01Z</time>
      </trkpt>
      <trkpt lat="46.99638" lon="5.69322">
        <ele>241</ele>
        <time>2012-09-18T14:43:03Z</time>
      </trkpt>
      <trkpt lat="46.99636" lon="5.693">
        <ele>241</ele>
        <time>2012-09-18T14:43:05Z</time>
      </trkpt>
      <trkpt lat="46.99633" lon="5.6928">
        <ele>241</ele>
        <time>2012-09-18T14:43:07Z</time>
      </trkpt>
      <trkpt lat="46.99631" lon="5.69259">
        <ele>241</ele>
        <time>2012-09-18T14:43:09Z</time>
      </trkpt>
      <trkpt lat="46.99628" lon="5.69237">
        <ele>241</ele>
        <time>2012-09-18T14:43:11Z</time>
      </trkpt>
      <trkpt lat="46.99626" lon="5.69216">
        <ele>241</ele>
        <time>2012-09-18T14:43:13Z</time>
      </trkpt>
      <trkpt lat="46.99624" lon="5.69194">
        <ele>241</ele>
        <time>2012-09-18T14:43:15Z</time>
      </trkpt>
      <trkpt lat="46.99621" lon="5.69172">
        <ele>241</ele>
        <time>2012-09-18T14:43:17Z</time>
      </trkpt>
      <trkpt lat="46.99619" lon="5.69148">
        <ele>241</ele>
        <time>2012-09-18T14:43:19Z</time>
      </trkpt>
      <trkpt lat="46.99616" lon="5.69126">
        <ele>241</ele>
        <time>2012-09-18T14:43:21Z</time>
      </trkpt>
      <trkpt lat="46.99613" lon="5.69103">
        <ele>241</ele>
        <time>2012-09-18T14:43:23Z</time>
      </trkpt>
      <trkpt lat="46.99611" lon="5.6908">
        <ele>241</ele>
        <time>2012-09-18T14:43:25Z</time>
      </trkpt>
      <trkpt lat="46.99608" lon="5.69058">
        <ele>241</ele>
        <time>2012-09-18T14:43:27Z</time>
      </trkpt>
      <trkpt lat="46.99606" lon="5.69037">
        <ele>241</ele>
        <time>2012-09-18T14:43:29Z</time>
      </trkpt>
      <trkpt lat="46.99603" lon="5.69015">
        <ele>241</ele>
        <time>2012-09-18T14:43:31Z</time>
      </trkpt>
      <trkpt lat="46.99601" lon="5.68995">
        <ele>241</ele>
        <time>2012-09-18T14:43:33Z</time>
      </trkpt>
      <trkpt lat="46.99599" lon="5.68973">
        <ele>241</ele>
        <time>2012-09-18T14:43:35Z</time>
      </trkpt>
      <trkpt lat="46.99596" lon="5.68952">
        <ele>241</ele>
        <time>2012-09-18T14:43:37Z</time>
      </trkpt>
      <trkpt lat="46.99594" lon="5.68929">
        <ele>241</ele>
        <time>2012-09-18T14:43:39Z</time>
      </trkpt>
      <trkpt lat="46.99592" lon="5.68907">
        <ele>241</ele>
        <time>2012-09-18T14:43:41Z</time>
      </trkpt>
      <trkpt lat="46.99589" lon="5.68884">
        <ele>241</ele>
        <time>2012-09-18T14:43:43Z</time>
      </trkpt>
      <trkpt lat="46.99586" lon="5.68861">
        <ele>241</ele>
        <time>2012-09-18T14:43:45Z</time>
      </trkpt>
      <trkpt lat="46.99584" lon="5.68838">
        <ele>241</ele>
        <time>2012-09-18T14:43:47Z</time>
      </trkpt>
      <trkpt lat="46.99581" lon="5.68817">
        <ele>241</ele>
        <time>2012-09-18T14:43:49Z</time>
      </trkpt>
      <trkpt lat="46.99579" lon="5.68794">
        <ele>241</ele>
        <time>2012-09-18T14:43:51Z</time>
      </trkpt>
      <trkpt lat="46.99576" lon="5.68773">
        <ele>241</ele>
        <time>2012-09-18T14:43:53Z</time>
      </trkpt>
      <trkpt lat="46.99574" lon="5.68752">
        <ele>241</ele>
        <time>2012-09-18T14:43:55Z</time>
      </trkpt>
      <trkpt lat="46.99571" lon="5.68731">
        <ele>241</ele>
        <time>2012-09-18T14:43:57Z</time>
      </trkpt>
      <trkpt lat="46.99569" lon="5.68709">
        <ele>241</ele>
        <time>2012-09-18T14:43:59Z</time>
      </trkpt>
      <trkpt lat="46.99566" lon="5.68688">
        <ele>241</ele>
        <time>2012-09-18T14:44:01Z</time>
      </trkpt>
      <trkpt lat="46.99564" lon="5.68667">
        <ele>241</ele>
        <time>2012-09-18T14:44:03Z</time>
      </trkpt>
      <trkpt lat="46.99561" lon="5.68645">
        <ele>241</ele>
        <time>2012-09-18T14:44:05Z</time>
      </trkpt>
      <trkpt lat="46.99559" lon="5.68624">
        <ele>241</ele>
        <time>2012-09-18T14:44:07Z</time>
      </trkpt>
      <trkpt lat="46.99557" lon="5.68602">
        <ele>241</ele>
        <time>2012-09-18T14:44:09Z</time>
      </trkpt>
      <trkpt lat="46.99554" lon="5.68582">
        <ele>241</ele>
        <time>2012-09-18T14:44:11Z</time>
      </trkpt>
      <trkpt lat="46.99552" lon="5.6856">
        <ele>241</ele>
        <time>2012-09-18T14:44:13Z</time>
      </trkpt>
      <trkpt lat="46.99549" lon="5.68538">
        <ele>241</ele>
        <time>2012-09-18T14:44:15Z</time>
      </trkpt>
      <trkpt lat="46.99547" lon="5.68516">
        <ele>241</ele>
        <time>2012-09-18T14:44:17Z</time>
      </trkpt>
      <trkpt lat="46.99544" lon="5.68495">
        <ele>241</ele>
        <time>2012-09-18T14:44:19Z</time>
      </trkpt>
      <trkpt lat="46.99542" lon="5.68474">
        <ele>241</ele>
        <time>2012-09-18T14:44:21Z</time>
      </trkpt>
      <trkpt lat="46.9954" lon="5.68452">
        <ele>241</ele>
        <time>2012-09-18T14:44:23Z</time>
      </trkpt>
      <trkpt lat="46.99538" lon="5.68432">
        <ele>241</ele>
        <time>2012-09-18T14:44:25Z</time>
      </trkpt>
      <trkpt lat="46.99536" lon="5.6841">
        <ele>241</ele>
        <time>2012-09-18T14:44:27Z</time>
      </trkpt>
      <trkpt lat="46.99534" lon="5.68389">
        <ele>241</ele>
        <time>2012-09-18T14:44:29Z</time>
      </trkpt>
      <trkpt lat="46.99531" lon="5.68369">
        <ele>241</ele>
        <time>2012-09-18T14:44:31Z</time>
      </trkpt>
      <trkpt lat="46.99529" lon="5.68348">
        <ele>241</ele>
        <time>2012-09-18T14:44:33Z</time>
      </trkpt>
      <trkpt lat="46.99526" lon="5.68326">
        <ele>241</ele>
        <time>2012-09-18T14:44:35Z</time>
      </trkpt>
      <trkpt lat="46.99524" lon="5.68304">
        <ele>241</ele>
        <time>2012-09-18T14:44:37Z</time>
      </trkpt>
      <trkpt lat="46.99522" lon="5.68283">
        <ele>241</ele>
        <time>2012-09-18T14:44:39Z</time>
      </trkpt>
      <trkpt lat="46.9952" lon="5.68263">
        <ele>241</ele>
        <time>2012-09-18T14:44:41Z</time>
      </trkpt>
      <trkpt lat="46.99517" lon="5.68242">
        <ele>241</ele>
        <time>2012-09-18T14:44:43Z</time>
      </trkpt>
      <trkpt lat="46.99515" lon="5.68221">
        <ele>241</ele>
        <time>2012-09-18T14:44:45Z</time>
      </trkpt>
      <trkpt lat="46.99513" lon="5.68202">
        <ele>241</ele>
        <time>2012-09-18T14:44:47Z</time>
      </trkpt>
      <trkpt lat="46.9951" lon="5.68181">
        <ele>241</ele>
        <time>2012-09-18T14:44:49Z</time>
      </trkpt>
      <trkpt lat="46.99509" lon="5.68161">
        <ele>241</ele>
        <time>2012-09-18T14:44:51Z</time>
      </trkpt>
      <trkpt lat="46.99506" lon="5.6814">
        <ele>241</ele>
        <time>2012-09-18T14:44:53Z</time>
      </trkpt>
      <trkpt lat="46.99504" lon="5.6812">
        <ele>241</ele>
        <time>2012-09-18T14:44:55Z</time>
      </trkpt>
      <trkpt lat="46.99501" lon="5.681">
        <ele>241</ele>
        <time>2012-09-18T14:44:57Z</time>
      </trkpt>
      <trkpt lat="46.99499" lon="5.68079">
        <ele>241</ele>
        <time>2012-09-18T14:44:59Z</time>
      </trkpt>
      <trkpt lat="46.99496" lon="5.68058">
        <ele>241</ele>
        <time>2012-09-18T14:45:01Z</time>
      </trkpt>
      <trkpt lat="46.99494" lon="5.68037">
        <ele>241</ele>
        <time>2012-09-18T14:45:03Z</time>
      </trkpt>
      <trkpt lat="46.99492" lon="5.68016">
        <ele>236</ele>
        <time>2012-09-18T14:45:05Z</time>
      </trkpt>
      <trkpt lat="46.9949" lon="5.67996">
        <ele>236</ele>
        <time>2012-09-18T14:45:07Z</time>
      </trkpt>
      <trkpt lat="46.99487" lon="5.67974">
        <ele>236</ele>
        <time>2012-09-18T14:45:09Z</time>
      </trkpt>
      <trkpt lat="46.99485" lon="5.67953">
        <ele>236</ele>
        <time>2012-09-18T14:45:11Z</time>
      </trkpt>
      <trkpt lat="46.99483" lon="5.67931">
        <ele>236</ele>
        <time>2012-09-18T14:45:13Z</time>
      </trkpt>
      <trkpt lat="46.9948" lon="5.6791">
        <ele>236</ele>
        <time>2012-09-18T14:45:15Z</time>
      </trkpt>
      <trkpt lat="46.99478" lon="5.67888">
        <ele>236</ele>
        <time>2012-09-18T14:45:17Z</time>
      </trkpt>
      <trkpt lat="46.99475" lon="5.67866">
        <ele>236</ele>
        <time>2012-09-18T14:45:19Z</time>
      </trkpt>
      <trkpt lat="46.99473" lon="5.67844">
        <ele>236</ele>
        <time>2012-09-18T14:45:21Z</time>
      </trkpt>
      <trkpt lat="46.9947" lon="5.67822">
        <ele>236</ele>
        <time>2012-09-18T14:45:23Z</time>
      </trkpt>
      <trkpt lat="46.99468" lon="5.67801">
        <ele>236</ele>
        <time>2012-09-18T14:45:25Z</time>
      </trkpt>
      <trkpt lat="46.99466" lon="5.67779">
        <ele>236</ele>
        <time>2012-09-18T14:45:27Z</time>
      </trkpt>
      <trkpt lat="46.99463" lon="5.67758">
        <ele>236</ele>
        <time>2012-09-18T14:45:29Z</time>
      </trkpt>
      <trkpt lat="46.99461" lon="5.67737">
        <ele>236</ele>
        <time>2012-09-18T14:45:31Z</time>
      </trkpt>
      <trkpt lat="46.99458" lon="5.67716">
        <ele>236</ele>
        <time>2012-09-18T14:45:33Z</time>
      </trkpt>
      <trkpt lat="46.99456" lon="5.67694">
        <ele>236</ele>
        <time>2012-09-18T14:45:35Z</time>
      </trkpt>
      <trkpt lat="46.99453" lon="5.67673">
        <ele>236</ele>
        <time>2012-09-18T14:45:37Z</time>
      </trkpt>
      <trkpt lat="46.99451" lon="5.67652">
        <ele>236</ele>
        <time>2012-09-18T14:45:39Z</time>
      </trkpt>
      <trkpt lat="46.99448" lon="5.6763">
        <ele>236</ele>
        <time>2012-09-18T14:45:41Z</time>
      </trkpt>
      <trkpt lat="46.99446" lon="5.67609">
        <ele>236</ele>
        <time>2012-09-18T14:45:43Z</time>
      </trkpt>
      <trkpt lat="46.99443" lon="5.67587">
        <ele>236</ele>
        <time>2012-09-18T14:45:45Z</time>
      </trkpt>
      <trkpt lat="46.99441" lon="5.67566">
        <ele>236</ele>
        <time>2012-09-18T14:45:47Z</time>
      </trkpt>
      <trkpt lat="46.99438" lon="5.67545">
        <ele>236</ele>
        <time>2012-09-18T14:45:49Z</time>
      </trkpt>
      <trkpt lat="46.99435" lon="5.67524">
        <ele>236</ele>
        <time>2012-09-18T14:45:51Z</time>
      </trkpt>
      <trkpt lat="46.99433" lon="5.67504">
        <ele>236</ele>
        <time>2012-09-18T14:45:53Z</time>
      </trkpt>
      <trkpt lat="46.99431" lon="5.67482">
        <ele>236</ele>
        <time>2012-09-18T14:45:55Z</time>
      </trkpt>
      <trkpt lat="46.99429" lon="5.67462">
        <ele>236</ele>
        <time>2012-09-18T14:45:57Z</time>
      </trkpt>
      <trkpt lat="46.99426" lon="5.67442">
        <ele>236</ele>
        <time>2012-09-18T14:45:59Z</time>
      </trkpt>
      <trkpt lat="46.99424" lon="5.67422">
        <ele>236</ele>
        <time>2012-09-18T14:46:01Z</time>
      </trkpt>
      <trkpt lat="46.99422" lon="5.67401">
        <ele>236</ele>
        <time>2012-09-18T14:46:03Z</time>
      </trkpt>
      <trkpt lat="46.99419" lon="5.6738">
        <ele>236</ele>
        <time>2012-09-18T14:46:05Z</time>
      </trkpt>
      <trkpt lat="46.99417" lon="5.6736">
        <ele>236</ele>
        <time>2012-09-18T14:46:07Z</time>
      </trkpt>
      <trkpt lat="46.99415" lon="5.6734">
        <ele>236</ele>
        <time>2012-09-18T14:46:09Z</time>
      </trkpt>
      <trkpt lat="46.99413" lon="5.67319">
        <ele>236</ele>
        <time>2012-09-18T14:46:11Z</time>
      </trkpt>
      <trkpt lat="46.9941" lon="5.67299">
        <ele>236</ele>
        <time>2012-09-18T14:46:13Z</time>
      </trkpt>
      <trkpt lat="46.99408" lon="5.67278">
        <ele>236</ele>
        <time>2012-09-18T14:46:15Z</time>
      </trkpt>
      <trkpt lat="46.99405" lon="5.67257">
        <ele>236</ele>
        <time>2012-09-18T14:46:17Z</time>
      </trkpt>
      <trkpt lat="46.99402" lon="5.67235">
        <ele>236</ele>
        <time>2012-09-18T14:46:19Z</time>
      </trkpt>
      <trkpt lat="46.994" lon="5.67214">
        <ele>236</ele>
        <time>2012-09-18T14:46:21Z</time>
      </trkpt>
      <trkpt lat="46.99398" lon="5.67194">
        <ele>236</ele>
        <time>2012-09-18T14:46:23Z</time>
      </trkpt>
      <trkpt lat="46.99396" lon="5.67173">
        <ele>236</ele>
        <time>2012-09-18T14:46:25Z</time>
      </trkpt>
      <trkpt lat="46.99394" lon="5.67152">
        <ele>236</ele>
        <time>2012-09-18T14:46:27Z</time>
      </trkpt>
      <trkpt lat="46.99392" lon="5.67133">
        <ele>236</ele>
        <time>2012-09-18T14:46:29Z</time>
      </trkpt>
      <trkpt lat="46.9939" lon="5.67111">
        <ele>236</ele>
        <time>2012-09-18T14:46:31Z</time>
      </trkpt>
      <trkpt lat="46.99389" lon="5.6709">
        <ele>236</ele>
        <time>2012-09-18T14:46:33Z</time>
      </trkpt>
      <trkpt lat="46.99388" lon="5.67069">
        <ele>236</ele>
        <time>2012-09-18T14:46:35Z</time>
      </trkpt>
      <trkpt lat="46.99388" lon="5.67047">
        <ele>236</ele>
        <time>2012-09-18T14:46:37Z</time>
      </trkpt>
      <trkpt lat="46.99388" lon="5.67026">
        <ele>236</ele>
        <time>2012-09-18T14:46:39Z</time>
      </trkpt>
      <trkpt lat="46.99389" lon="5.67005">
        <ele>236</ele>
        <time>2012-09-18T14:46:41Z</time>
      </trkpt>
      <trkpt lat="46.9939" lon="5.66984">
        <ele>236</ele>
        <time>2012-09-18T14:46:43Z</time>
      </trkpt>
      <trkpt lat="46.99391" lon="5.66965">
        <ele>236</ele>
        <time>2012-09-18T14:46:45Z</time>
      </trkpt>
      <trkpt lat="46.99392" lon="5.66946">
        <ele>236</ele>
        <time>2012-09-18T14:46:47Z</time>
      </trkpt>
      <trkpt lat="46.99394" lon="5.66926">
        <ele>236</ele>
        <time>2012-09-18T14:46:49Z</time>
      </trkpt>
      <trkpt lat="46.99394" lon="5.66906">
        <ele>236</ele>
        <time>2012-09-18T14:46:51Z</time>
      </trkpt>
      <trkpt lat="46.99396" lon="5.66886">
        <ele>236</ele>
        <time>2012-09-18T14:46:53Z</time>
      </trkpt>
      <trkpt lat="46.99397" lon="5.66866">
        <ele>241</ele>
        <time>2012-09-18T14:46:55Z</time>
      </trkpt>
      <trkpt lat="46.994" lon="5.66846">
        <ele>241</ele>
        <time>2012-09-18T14:46:57Z</time>
      </trkpt>
      <trkpt lat="46.99404" lon="5.66827">
        <ele>241</ele>
        <time>2012-09-18T14:46:59Z</time>
      </trkpt>
      <trkpt lat="46.99407" lon="5.6681">
        <ele>241</ele>
        <time>2012-09-18T14:47:01Z</time>
      </trkpt>
      <trkpt lat="46.99411" lon="5.66793">
        <ele>241</ele>
        <time>2012-09-18T14:47:03Z</time>
      </trkpt>
      <trkpt lat="46.99416" lon="5.66777">
        <ele>241</ele>
        <time>2012-09-18T14:47:05Z</time>
      </trkpt>
      <trkpt lat="46.99421" lon="5.66761">
        <ele>241</ele>
        <time>2012-09-18T14:47:07Z</time>
      </trkpt>
      <trkpt lat="46.99427" lon="5.66744">
        <ele>241</ele>
        <time>2012-09-18T14:47:09Z</time>
      </trkpt>
      <trkpt lat="46.99432" lon="5.66728">
        <ele>241</ele>
        <time>2012-09-18T14:47:11Z</time>
      </trkpt>
      <trkpt lat="46.99436" lon="5.6671">
        <ele>241</ele>
        <time>2012-09-18T14:47:13Z</time>
      </trkpt>
      <trkpt lat="46.99437" lon="5.66693">
        <ele>241</ele>
        <time>2012-09-18T14:47:15Z</time>
      </trkpt>
      <trkpt lat="46.99435" lon="5.66675">
        <ele>241</ele>
        <time>2012-09-18T14:47:17Z</time>
      </trkpt>
      <trkpt lat="46.99433" lon="5.6666">
        <ele>241</ele>
        <time>2012-09-18T14:47:19Z</time>
      </trkpt>
      <trkpt lat="46.99437" lon="5.66646">
        <ele>241</ele>
        <time>2012-09-18T14:47:21Z</time>
      </trkpt>
      <trkpt lat="46.99447" lon="5.66637">
        <ele>241</ele>
        <time>2012-09-18T14:47:23Z</time>
      </trkpt>
      <trkpt lat="46.99459" lon="5.66632">
        <ele>241</ele>
        <time>2012-09-18T14:47:25Z</time>
      </trkpt>
      <trkpt lat="46.99473" lon="5.66628">
        <ele>235</ele>
        <time>2012-09-18T14:47:27Z</time>
      </trkpt>
      <trkpt lat="46.99488" lon="5.66624">
        <ele>235</ele>
        <time>2012-09-18T14:47:29Z</time>
      </trkpt>
      <trkpt lat="46.99502" lon="5.66621">
        <ele>235</ele>
        <time>2012-09-18T14:47:31Z</time>
      </trkpt>
      <trkpt lat="46.99516" lon="5.66619">
        <ele>235</ele>
        <time>2012-09-18T14:47:33Z</time>
      </trkpt>
      <trkpt lat="46.99529" lon="5.66618">
        <ele>235</ele>
        <time>2012-09-18T14:47:35Z</time>
      </trkpt>
      <trkpt lat="46.99541" lon="5.66618">
        <ele>235</ele>
        <time>2012-09-18T14:47:37Z</time>
      </trkpt>
      <trkpt lat="46.99554" lon="5.66618">
        <ele>235</ele>
        <time>2012-09-18T14:47:39Z</time>
      </trkpt>
      <trkpt lat="46.99567" lon="5.66618">
        <ele>235</ele>
        <time>2012-09-18T14:47:41Z</time>
      </trkpt>
      <trkpt lat="46.99581" lon="5.66618">
        <ele>235</ele>
        <time>2012-09-18T14:47:43Z</time>
      </trkpt>
      <trkpt lat="46.99594" lon="5.66617">
        <ele>235</ele>
        <time>2012-09-18T14:47:45Z</time>
      </trkpt>
      <trkpt lat="46.99608" lon="5.66617">
        <ele>235</ele>
        <time>2012-09-18T14:47:47Z</time>
      </trkpt>
      <trkpt lat="46.99622" lon="5.66618">
        <ele>235</ele>
        <time>2012-09-18T14:47:49Z</time>
      </trkpt>
      <trkpt lat="46.99636" lon="5.66618">
        <ele>235</ele>
        <time>2012-09-18T14:47:51Z</time>
      </trkpt>
      <trkpt lat="46.99651" lon="5.66619">
        <ele>235</ele>
        <time>2012-09-18T14:47:53Z</time>
      </trkpt>
      <trkpt lat="46.99665" lon="5.66619">
        <ele>235</ele>
        <time>2012-09-18T14:47:55Z</time>
      </trkpt>
      <trkpt lat="46.99679" lon="5.6662">
        <ele>230</ele>
        <time>2012-09-18T14:47:57Z</time>
      </trkpt>
      <trkpt lat="46.99694" lon="5.66621">
        <ele>230</ele>
        <time>2012-09-18T14:47:59Z</time>
      </trkpt>
      <trkpt lat="46.99707" lon="5.66622">
        <ele>230</ele>
        <time>2012-09-18T14:48:01Z</time>
      </trkpt>
      <trkpt lat="46.99721" lon="5.66625">
        <ele>230</ele>
        <time>2012-09-18T14:48:03Z</time>
      </trkpt>
      <trkpt lat="46.99735" lon="5.66631">
        <ele>230</ele>
        <time>2012-09-18T14:48:05Z</time>
      </trkpt>
      <trkpt lat="46.99748" lon="5.66642">
        <ele>230</ele>
        <time>2012-09-18T14:48:07Z</time>
      </trkpt>
      <trkpt lat="46.99757" lon="5.66661">
        <ele>230</ele>
        <time>2012-09-18T14:48:09Z</time>
      </trkpt>
      <trkpt lat="46.99762" lon="5.66682">
        <ele>225</ele>
        <time>2012-09-18T14:48:11Z</time>
      </trkpt>
      <trkpt lat="46.99767" lon="5.66704">
        <ele>225</ele>
        <time>2012-09-18T14:48:13Z</time>
      </trkpt>
      <trkpt lat="46.99772" lon="5.66725">
        <ele>225</ele>
        <time>2012-09-18T14:48:15Z</time>
      </trkpt>
      <trkpt lat="46.99777" lon="5.66744">
        <ele>225</ele>
        <time>2012-09-18T14:48:17Z</time>
      </trkpt>
      <trkpt lat="46.99783" lon="5.66763">
        <ele>225</ele>
        <time>2012-09-18T14:48:19Z</time>
      </trkpt>
      <trkpt lat="46.9979" lon="5.6678">
        <ele>225</ele>
        <time>2012-09-18T14:48:21Z</time>
      </trkpt>
      <trkpt lat="46.99799" lon="5.66796">
        <ele>225</ele>
        <time>2012-09-18T14:48:23Z</time>
      </trkpt>
      <trkpt lat="46.99809" lon="5.6681">
        <ele>225</ele>
        <time>2012-09-18T14:48:25Z</time>
      </trkpt>
      <trkpt lat="46.9982" lon="5.66824">
        <ele>225</ele>
        <time>2012-09-18T14:48:27Z</time>
      </trkpt>
      <trkpt lat="46.99829" lon="5.66839">
        <ele>225</ele>
        <time>2012-09-18T14:48:29Z</time>
      </trkpt>
      <trkpt lat="46.99839" lon="5.66854">
        <ele>225</ele>
        <time>2012-09-18T14:48:31Z</time>
      </trkpt>
      <trkpt lat="46.99849" lon="5.66869">
        <ele>225</ele>
        <time>2012-09-18T14:48:33Z</time>
      </trkpt>
      <trkpt lat="46.99859" lon="5.66885">
        <ele>225</ele>
        <time>2012-09-18T14:48:35Z</time>
      </trkpt>
      <trkpt lat="46.99869" lon="5.66898">
        <ele>225</ele>
        <time>2012-09-18T14:48:37Z</time>
      </trkpt>
      <trkpt lat="46.99881" lon="5.66909">
        <ele>225</ele>
        <time>2012-09-18T14:48:39Z</time>
      </trkpt>
      <trkpt lat="46.99895" lon="5.66914">
        <ele>225</ele>
        <time>2012-09-18T14:48:41Z</time>
      </trkpt>
      <trkpt lat="46.99909" lon="5.66915">
        <ele>225</ele>
        <time>2012-09-18T14:48:43Z</time>
      </trkpt>
      <trkpt lat="46.99923" lon="5.66912">
        <ele>225</ele>
        <time>2012-09-18T14:48:45Z</time>
      </trkpt>
      <trkpt lat="46.99938" lon="5.66911">
        <ele>225</ele>
        <time>2012-09-18T14:48:47Z</time>
      </trkpt>
      <trkpt lat="46.99952" lon="5.66908">
        <ele>225</ele>
        <time>2012-09-18T14:48:49Z</time>
      </trkpt>
      <trkpt lat="46.99966" lon="5.66906">
        <ele>225</ele>
        <time>2012-09-18T14:48:51Z</time>
      </trkpt>
      <trkpt lat="46.9998" lon="5.66904">
        <ele>225</ele>
        <time>2012-09-18T14:48:53Z</time>
      </trkpt>
      <trkpt lat="46.99993" lon="5.66903">
        <ele>225</ele>
        <time>2012-09-18T14:48:55Z</time>
      </trkpt>
      <trkpt lat="47.00006" lon="5.66901">
        <ele>225</ele>
        <time>2012-09-18T14:48:57Z</time>
      </trkpt>
      <trkpt lat="47.00019" lon="5.66898">
        <ele>225</ele>
        <time>2012-09-18T14:48:59Z</time>
      </trkpt>
      <trkpt lat="47.00032" lon="5.66896">
        <ele>225</ele>
        <time>2012-09-18T14:49:01Z</time>
      </trkpt>
      <trkpt lat="47.00045" lon="5.66894">
        <ele>225</ele>
        <time>2012-09-18T14:49:03Z</time>
      </trkpt>
      <trkpt lat="47.00059" lon="5.66893">
        <ele>225</ele>
        <time>2012-09-18T14:49:05Z</time>
      </trkpt>
      <trkpt lat="47.00073" lon="5.66891">
        <ele>225</ele>
        <time>2012-09-18T14:49:07Z</time>
      </trkpt>
      <trkpt lat="47.00088" lon="5.66888">
        <ele>225</ele>
        <time>2012-09-18T14:49:09Z</time>
      </trkpt>
      <trkpt lat="47.00102" lon="5.66884">
        <ele>225</ele>
        <time>2012-09-18T14:49:11Z</time>
      </trkpt>
      <trkpt lat="47.00116" lon="5.66879">
        <ele>225</ele>
        <time>2012-09-18T14:49:13Z</time>
      </trkpt>
      <trkpt lat="47.00129" lon="5.66872">
        <ele>225</ele>
        <time>2012-09-18T14:49:15Z</time>
      </trkpt>
      <trkpt lat="47.00141" lon="5.66863">
        <ele>225</ele>
        <time>2012-09-18T14:49:17Z</time>
      </trkpt>
      <trkpt lat="47.00152" lon="5.66853">
        <ele>225</ele>
        <time>2012-09-18T14:49:19Z</time>
      </trkpt>
      <trkpt lat="47.00162" lon="5.66843">
        <ele>225</ele>
        <time>2012-09-18T14:49:21Z</time>
      </trkpt>
      <trkpt lat="47.00171" lon="5.66832">
        <ele>225</ele>
        <time>2012-09-18T14:49:23Z</time>
      </trkpt>
      <trkpt lat="47.0018" lon="5.66821">
        <ele>225</ele>
        <time>2012-09-18T14:49:25Z</time>
      </trkpt>
      <trkpt lat="47.0019" lon="5.66809">
        <ele>225</ele>
        <time>2012-09-18T14:49:27Z</time>
      </trkpt>
      <trkpt lat="47.002" lon="5.66798">
        <ele>225</ele>
        <time>2012-09-18T14:49:29Z</time>
      </trkpt>
      <trkpt lat="47.0021" lon="5.66788">
        <ele>225</ele>
        <time>2012-09-18T14:49:31Z</time>
      </trkpt>
      <trkpt lat="47.0022" lon="5.6678">
        <ele>225</ele>
        <time>2012-09-18T14:49:33Z</time>
      </trkpt>
      <trkpt lat="47.00231" lon="5.66771">
        <ele>225</ele>
        <time>2012-09-18T14:49:35Z</time>
      </trkpt>
      <trkpt lat="47.00241" lon="5.66763">
        <ele>225</ele>
        <time>2012-09-18T14:49:37Z</time>
      </trkpt>
      <trkpt lat="47.0025" lon="5.66755">
        <ele>225</ele>
        <time>2012-09-18T14:49:39Z</time>
      </trkpt>
      <trkpt lat="47.0026" lon="5.66747">
        <ele>225</ele>
        <time>2012-09-18T14:49:41Z</time>
      </trkpt>
      <trkpt lat="47.0027" lon="5.6674">
        <ele>225</ele>
        <time>2012-09-18T14:49:43Z</time>
      </trkpt>
      <trkpt lat="47.00281" lon="5.66733">
        <ele>225</ele>
        <time>2012-09-18T14:49:45Z</time>
      </trkpt>
      <trkpt lat="47.0029" lon="5.66725">
        <ele>225</ele>
        <time>2012-09-18T14:49:47Z</time>
      </trkpt>
      <trkpt lat="47.00301" lon="5.66717">
        <ele>225</ele>
        <time>2012-09-18T14:49:49Z</time>
      </trkpt>
      <trkpt lat="47.00311" lon="5.66709">
        <ele>225</ele>
        <time>2012-09-18T14:49:51Z</time>
      </trkpt>
      <trkpt lat="47.00322" lon="5.667">
        <ele>225</ele>
        <time>2012-09-18T14:49:53Z</time>
      </trkpt>
      <trkpt lat="47.00333" lon="5.66691">
        <ele>225</ele>
        <time>2012-09-18T14:49:55Z</time>
      </trkpt>
      <trkpt lat="47.00345" lon="5.66683">
        <ele>225</ele>
        <time>2012-09-18T14:49:57Z</time>
      </trkpt>
      <trkpt lat="47.00357" lon="5.66675">
        <ele>225</ele>
        <time>2012-09-18T14:49:59Z</time>
      </trkpt>
      <trkpt lat="47.0037" lon="5.66667">
        <ele>225</ele>
        <time>2012-09-18T14:50:01Z</time>
      </trkpt>
      <trkpt lat="47.00384" lon="5.66659">
        <ele>225</ele>
        <time>2012-09-18T14:50:03Z</time>
      </trkpt>
      <trkpt lat="47.00398" lon="5.66652">
        <ele>225</ele>
        <time>2012-09-18T14:50:05Z</time>
      </trkpt>
      <trkpt lat="47.00412" lon="5.66645">
        <ele>225</ele>
        <time>2012-09-18T14:50:07Z</time>
      </trkpt>
      <trkpt lat="47.00427" lon="5.66638">
        <ele>225</ele>
        <time>2012-09-18T14:50:09Z</time>
      </trkpt>
      <trkpt lat="47.00441" lon="5.66631">
        <ele>225</ele>
        <time>2012-09-18T14:50:11Z</time>
      </trkpt>
      <trkpt lat="47.00454" lon="5.66622">
        <ele>225</ele>
        <time>2012-09-18T14:50:13Z</time>
      </trkpt>
      <trkpt lat="47.00467" lon="5.66612">
        <ele>225</ele>
        <time>2012-09-18T14:50:15Z</time>
      </trkpt>
      <trkpt lat="47.00478" lon="5.666">
        <ele>225</ele>
        <time>2012-09-18T14:50:17Z</time>
      </trkpt>
      <trkpt lat="47.00488" lon="5.66585">
        <ele>225</ele>
        <time>2012-09-18T14:50:19Z</time>
      </trkpt>
      <trkpt lat="47.00497" lon="5.6657">
        <ele>225</ele>
        <time>2012-09-18T14:50:21Z</time>
      </trkpt>
      <trkpt lat="47.00505" lon="5.66554">
        <ele>225</ele>
        <time>2012-09-18T14:50:23Z</time>
      </trkpt>
      <trkpt lat="47.00512" lon="5.66536">
        <ele>225</ele>
        <time>2012-09-18T14:50:25Z</time>
      </trkpt>
      <trkpt lat="47.00518" lon="5.66516">
        <ele>225</ele>
        <time>2012-09-18T14:50:27Z</time>
      </trkpt>
      <trkpt lat="47.00524" lon="5.66497">
        <ele>225</ele>
        <time>2012-09-18T14:50:29Z</time>
      </trkpt>
      <trkpt lat="47.0053" lon="5.66479">
        <ele>225</ele>
        <time>2012-09-18T14:50:31Z</time>
      </trkpt>
      <trkpt lat="47.00535" lon="5.6646">
        <ele>225</ele>
        <time>2012-09-18T14:50:33Z</time>
      </trkpt>
      <trkpt lat="47.0054" lon="5.66442">
        <ele>225</ele>
        <time>2012-09-18T14:50:35Z</time>
      </trkpt>
      <trkpt lat="47.00545" lon="5.66424">
        <ele>225</ele>
        <time>2012-09-18T14:50:37Z</time>
      </trkpt>
      <trkpt lat="47.0055" lon="5.66408">
        <ele>225</ele>
        <time>2012-09-18T14:50:39Z</time>
      </trkpt>
      <trkpt lat="47.00555" lon="5.66392">
        <ele>225</ele>
        <time>2012-09-18T14:50:41Z</time>
      </trkpt>
      <trkpt lat="47.00559" lon="5.66376">
        <ele>225</ele>
        <time>2012-09-18T14:50:43Z</time>
      </trkpt>
      <trkpt lat="47.00564" lon="5.6636">
        <ele>225</ele>
        <time>2012-09-18T14:50:45Z</time>
      </trkpt>
      <trkpt lat="47.00569" lon="5.66344">
        <ele>225</ele>
        <time>2012-09-18T14:50:47Z</time>
      </trkpt>
      <trkpt lat="47.00575" lon="5.66326">
        <ele>225</ele>
        <time>2012-09-18T14:50:49Z</time>
      </trkpt>
      <trkpt lat="47.00582" lon="5.66308">
        <ele>225</ele>
        <time>2012-09-18T14:50:51Z</time>
      </trkpt>
      <trkpt lat="47.00587" lon="5.66289">
        <ele>225</ele>
        <time>2012-09-18T14:50:53Z</time>
      </trkpt>
      <trkpt lat="47.00593" lon="5.66269">
        <ele>225</ele>
        <time>2012-09-18T14:50:55Z</time>
      </trkpt>
      <trkpt lat="47.00599" lon="5.6625">
        <ele>225</ele>
        <time>2012-09-18T14:50:57Z</time>
      </trkpt>
      <trkpt lat="47.00604" lon="5.66232">
        <ele>225</ele>
        <time>2012-09-18T14:50:59Z</time>
      </trkpt>
      <trkpt lat="47.00611" lon="5.66213">
        <ele>225</ele>
        <time>2012-09-18T14:51:01Z</time>
      </trkpt>
      <trkpt lat="47.00616" lon="5.66195">
        <ele>225</ele>
        <time>2012-09-18T14:51:03Z</time>
      </trkpt>
      <trkpt lat="47.00622" lon="5.66176">
        <ele>225</ele>
        <time>2012-09-18T14:51:05Z</time>
      </trkpt>
      <trkpt lat="47.00628" lon="5.66157">
        <ele>225</ele>
        <time>2012-09-18T14:51:07Z</time>
      </trkpt>
      <trkpt lat="47.00633" lon="5.66138">
        <ele>225</ele>
        <time>2012-09-18T14:51:09Z</time>
      </trkpt>
      <trkpt lat="47.00639" lon="5.6612">
        <ele>225</ele>
        <time>2012-09-18T14:51:11Z</time>
      </trkpt>
      <trkpt lat="47.00645" lon="5.66102">
        <ele>225</ele>
        <time>2012-09-18T14:51:13Z</time>
      </trkpt>
      <trkpt lat="47.0065" lon="5.66083">
        <ele>225</ele>
        <time>2012-09-18T14:51:15Z</time>
      </trkpt>
      <trkpt lat="47.00656" lon="5.66065">
        <ele>225</ele>
        <time>2012-09-18T14:51:17Z</time>
      </trkpt>
      <trkpt lat="47.00662" lon="5.66047">
        <ele>225</ele>
        <time>2012-09-18T14:51:19Z</time>
      </trkpt>
      <trkpt lat="47.00668" lon="5.66029">
        <ele>225</ele>
        <time>2012-09-18T14:51:21Z</time>
      </trkpt>
      <trkpt lat="47.00673" lon="5.66011">
        <ele>225</ele>
        <time>2012-09-18T14:51:23Z</time>
      </trkpt>
      <trkpt lat="47.00679" lon="5.65993">
        <ele>225</ele>
        <time>2012-09-18T14:51:25Z</time>
      </trkpt>
      <trkpt lat="47.00684" lon="5.65975">
        <ele>225</ele>
        <time>2012-09-18T14:51:27Z</time>
      </trkpt>
      <trkpt lat="47.0069" lon="5.65957">
        <ele>225</ele>
        <time>2012-09-18T14:51:29Z</time>
      </trkpt>
      <trkpt lat="47.00696" lon="5.65938">
        <ele>225</ele>
        <time>2012-09-18T14:51:31Z</time>
      </trkpt>
      <trkpt lat="47.00701" lon="5.6592">
        <ele>225</ele>
        <time>2012-09-18T14:51:33Z</time>
      </trkpt>
      <trkpt lat="47.00706" lon="5.659">
        <ele>225</ele>
        <time>2012-09-18T14:51:35Z</time>
      </trkpt>
      <trkpt lat="47.00711" lon="5.6588">
        <ele>225</ele>
        <time>2012-09-18T14:51:37Z</time>
      </trkpt>
      <trkpt lat="47.00716" lon="5.65861">
        <ele>225</ele>
        <time>2012-09-18T14:51:39Z</time>
      </trkpt>
      <trkpt lat="47.00721" lon="5.65842">
        <ele>225</ele>
        <time>2012-09-18T14:51:41Z</time>
      </trkpt>
      <trkpt lat="47.00727" lon="5.65822">
        <ele>225</ele>
        <time>2012-09-18T14:51:43Z</time>
      </trkpt>
      <trkpt lat="47.00732" lon="5.65802">
        <ele>225</ele>
        <time>2012-09-18T14:51:45Z</time>
      </trkpt>
      <trkpt lat="47.00736" lon="5.65782">
        <ele>225</ele>
        <time>2012-09-18T14:51:47Z</time>
      </trkpt>
      <trkpt lat="47.00741" lon="5.65763">
        <ele>225</ele>
        <time>2012-09-18T14:51:49Z</time>
      </trkpt>
      <trkpt lat="47.00746" lon="5.65742">
        <ele>225</ele>
        <time>2012-09-18T14:51:51Z</time>
      </trkpt>
      <trkpt lat="47.00751" lon="5.65722">
        <ele>225</ele>
        <time>2012-09-18T14:51:53Z</time>
      </trkpt>
      <trkpt lat="47.00756" lon="5.65702">
        <ele>225</ele>
        <time>2012-09-18T14:51:55Z</time>
      </trkpt>
      <trkpt lat="47.0076" lon="5.65682">
        <ele>225</ele>
        <time>2012-09-18T14:51:57Z</time>
      </trkpt>
      <trkpt lat="47.00765" lon="5.65662">
        <ele>225</ele>
        <time>2012-09-18T14:51:59Z</time>
      </trkpt>
      <trkpt lat="47.0077" lon="5.65642">
        <ele>225</ele>
        <time>2012-09-18T14:52:01Z</time>
      </trkpt>
      <trkpt lat="47.00775" lon="5.65622">
        <ele>225</ele>
        <time>2012-09-18T14:52:03Z</time>
      </trkpt>
      <trkpt lat="47.0078" lon="5.65604">
        <ele>225</ele>
        <time>2012-09-18T14:52:05Z</time>
      </trkpt>
      <trkpt lat="47.00784" lon="5.65585">
        <ele>225</ele>
        <time>2012-09-18T14:52:07Z</time>
      </trkpt>
      <trkpt lat="47.0079" lon="5.65566">
        <ele>225</ele>
        <time>2012-09-18T14:52:09Z</time>
      </trkpt>
      <trkpt lat="47.00797" lon="5.65548">
        <ele>225</ele>
        <time>2012-09-18T14:52:11Z</time>
      </trkpt>
      <trkpt lat="47.00804" lon="5.6553">
        <ele>225</ele>
        <time>2012-09-18T14:52:13Z</time>
      </trkpt>
      <trkpt lat="47.00813" lon="5.65513">
        <ele>225</ele>
        <time>2012-09-18T14:52:15Z</time>
      </trkpt>
      <trkpt lat="47.00824" lon="5.65498">
        <ele>225</ele>
        <time>2012-09-18T14:52:17Z</time>
      </trkpt>
      <trkpt lat="47.00835" lon="5.65483">
        <ele>225</ele>
        <time>2012-09-18T14:52:19Z</time>
      </trkpt>
      <trkpt lat="47.00846" lon="5.6547">
        <ele>225</ele>
        <time>2012-09-18T14:52:21Z</time>
      </trkpt>
      <trkpt lat="47.00858" lon="5.65456">
        <ele>225</ele>
        <time>2012-09-18T14:52:23Z</time>
      </trkpt>
      <trkpt lat="47.0087" lon="5.65443">
        <ele>225</ele>
        <time>2012-09-18T14:52:25Z</time>
      </trkpt>
      <trkpt lat="47.00882" lon="5.6543">
        <ele>225</ele>
        <time>2012-09-18T14:52:27Z</time>
      </trkpt>
      <trkpt lat="47.00894" lon="5.65417">
        <ele>225</ele>
        <time>2012-09-18T14:52:29Z</time>
      </trkpt>
      <trkpt lat="47.00906" lon="5.65404">
        <ele>225</ele>
        <time>2012-09-18T14:52:31Z</time>
      </trkpt>
      <trkpt lat="47.00918" lon="5.65392">
        <ele>225</ele>
        <time>2012-09-18T14:52:33Z</time>
      </trkpt>
      <trkpt lat="47.0093" lon="5.65378">
        <ele>225</ele>
        <time>2012-09-18T14:52:35Z</time>
      </trkpt>
      <trkpt lat="47.00942" lon="5.65365">
        <ele>225</ele>
        <time>2012-09-18T14:52:37Z</time>
      </trkpt>
      <trkpt lat="47.00953" lon="5.65352">
        <ele>225</ele>
        <time>2012-09-18T14:52:39Z</time>
      </trkpt>
      <trkpt lat="47.00965" lon="5.65339">
        <ele>225</ele>
        <time>2012-09-18T14:52:41Z</time>
      </trkpt>
      <trkpt lat="47.00977" lon="5.65325">
        <ele>225</ele>
        <time>2012-09-18T14:52:43Z</time>
      </trkpt>
      <trkpt lat="47.00988" lon="5.65313">
        <ele>225</ele>
        <time>2012-09-18T14:52:45Z</time>
      </trkpt>
      <trkpt lat="47.01" lon="5.653">
        <ele>225</ele>
        <time>2012-09-18T14:52:47Z</time>
      </trkpt>
      <trkpt lat="47.01012" lon="5.65287">
        <ele>225</ele>
        <time>2012-09-18T14:52:49Z</time>
      </trkpt>
      <trkpt lat="47.01023" lon="5.65274">
        <ele>225</ele>
        <time>2012-09-18T14:52:51Z</time>
      </trkpt>
      <trkpt lat="47.01035" lon="5.65261">
        <ele>225</ele>
        <time>2012-09-18T14:52:53Z</time>
      </trkpt>
      <trkpt lat="47.01046" lon="5.65249">
        <ele>225</ele>
        <time>2012-09-18T14:52:55Z</time>
      </trkpt>
      <trkpt lat="47.01057" lon="5.65235">
        <ele>225</ele>
        <time>2012-09-18T14:52:57Z</time>
      </trkpt>
      <trkpt lat="47.01068" lon="5.65221">
        <ele>225</ele>
        <time>2012-09-18T14:52:59Z</time>
      </trkpt>
      <trkpt lat="47.01078" lon="5.65207">
        <ele>225</ele>
        <time>2012-09-18T14:53:01Z</time>
      </trkpt>
      <trkpt lat="47.01088" lon="5.6519">
        <ele>225</ele>
        <time>2012-09-18T14:53:03Z</time>
      </trkpt>
      <trkpt lat="47.01097" lon="5.65175">
        <ele>225</ele>
        <time>2012-09-18T14:53:05Z</time>
      </trkpt>
      <trkpt lat="47.01106" lon="5.65159">
        <ele>225</ele>
        <time>2012-09-18T14:53:07Z</time>
      </trkpt>
      <trkpt lat="47.01114" lon="5.65143">
        <ele>225</ele>
        <time>2012-09-18T14:53:09Z</time>
      </trkpt>
      <trkpt lat="47.01122" lon="5.65126">
        <ele>225</ele>
        <time>2012-09-18T14:53:11Z</time>
      </trkpt>
      <trkpt lat="47.0113" lon="5.6511">
        <ele>225</ele>
        <time>2012-09-18T14:53:13Z</time>
      </trkpt>
      <trkpt lat="47.01138" lon="5.65093">
        <ele>225</ele>
        <time>2012-09-18T14:53:15Z</time>
      </trkpt>
      <trkpt lat="47.01146" lon="5.65077">
        <ele>225</ele>
        <time>2012-09-18T14:53:17Z</time>
      </trkpt>
      <trkpt lat="47.01154" lon="5.6506">
        <ele>225</ele>
        <time>2012-09-18T14:53:19Z</time>
      </trkpt>
      <trkpt lat="47.01162" lon="5.65044">
        <ele>225</ele>
        <time>2012-09-18T14:53:21Z</time>
      </trkpt>
      <trkpt lat="47.0117" lon="5.65028">
        <ele>225</ele>
        <time>2012-09-18T14:53:23Z</time>
      </trkpt>
      <trkpt lat="47.01178" lon="5.65012">
        <ele>225</ele>
        <time>2012-09-18T14:53:25Z</time>
      </trkpt>
      <trkpt lat="47.01186" lon="5.64995">
        <ele>225</ele>
        <time>2012-09-18T14:53:27Z</time>
      </trkpt>
      <trkpt lat="47.01193" lon="5.64978">
        <ele>225</ele>
        <time>2012-09-18T14:53:29Z</time>
      </trkpt>
      <trkpt lat="47.012" lon="5.64961">
        <ele>225</ele>
        <time>2012-09-18T14:53:31Z</time>
      </trkpt>
      <trkpt lat="47.01207" lon="5.64944">
        <ele>225</ele>
        <time>2012-09-18T14:53:33Z</time>
      </trkpt>
      <trkpt lat="47.01215" lon="5.64927">
        <ele>225</ele>
        <time>2012-09-18T14:53:35Z</time>
      </trkpt>
      <trkpt lat="47.01221" lon="5.6491">
        <ele>225</ele>
        <time>2012-09-18T14:53:37Z</time>
      </trkpt>
      <trkpt lat="47.01227" lon="5.64893">
        <ele>225</ele>
        <time>2012-09-18T14:53:39Z</time>
      </trkpt>
      <trkpt lat="47.01234" lon="5.64875">
        <ele>225</ele>
        <time>2012-09-18T14:53:41Z</time>
      </trkpt>
      <trkpt lat="47.0124" lon="5.64858">
        <ele>225</ele>
        <time>2012-09-18T14:53:43Z</time>
      </trkpt>
      <trkpt lat="47.01246" lon="5.64841">
        <ele>225</ele>
        <time>2012-09-18T14:53:45Z</time>
      </trkpt>
      <trkpt lat="47.01253" lon="5.64825">
        <ele>225</ele>
        <time>2012-09-18T14:53:47Z</time>
      </trkpt>
      <trkpt lat="47.01259" lon="5.64808">
        <ele>225</ele>
        <time>2012-09-18T14:53:49Z</time>
      </trkpt>
      <trkpt lat="47.01266" lon="5.64791">
        <ele>225</ele>
        <time>2012-09-18T14:53:51Z</time>
      </trkpt>
      <trkpt lat="47.01274" lon="5.64773">
        <ele>225</ele>
        <time>2012-09-18T14:53:53Z</time>
      </trkpt>
      <trkpt lat="47.01282" lon="5.64756">
        <ele>225</ele>
        <time>2012-09-18T14:53:55Z</time>
      </trkpt>
      <trkpt lat="47.01289" lon="5.6474">
        <ele>225</ele>
        <time>2012-09-18T14:53:57Z</time>
      </trkpt>
      <trkpt lat="47.01298" lon="5.64724">
        <ele>225</ele>
        <time>2012-09-18T14:53:59Z</time>
      </trkpt>
      <trkpt lat="47.01307" lon="5.6471">
        <ele>225</ele>
        <time>2012-09-18T14:54:01Z</time>
      </trkpt>
      <trkpt lat="47.01317" lon="5.64695">
        <ele>225</ele>
        <time>2012-09-18T14:54:03Z</time>
      </trkpt>
      <trkpt lat="47.01326" lon="5.6468">
        <ele>225</ele>
        <time>2012-09-18T14:54:05Z</time>
      </trkpt>
      <trkpt lat="47.01335" lon="5.64666">
        <ele>225</ele>
        <time>2012-09-18T14:54:07Z</time>
      </trkpt>
      <trkpt lat="47.01345" lon="5.6465">
        <ele>225</ele>
        <time>2012-09-18T14:54:09Z</time>
      </trkpt>
      <trkpt lat="47.01354" lon="5.64635">
        <ele>225</ele>
        <time>2012-09-18T14:54:11Z</time>
      </trkpt>
      <trkpt lat="47.01364" lon="5.64621">
        <ele>225</ele>
        <time>2012-09-18T14:54:13Z</time>
      </trkpt>
      <trkpt lat="47.01373" lon="5.64606">
        <ele>225</ele>
        <time>2012-09-18T14:54:15Z</time>
      </trkpt>
      <trkpt lat="47.01382" lon="5.64591">
        <ele>225</ele>
        <time>2012-09-18T14:54:17Z</time>
      </trkpt>
      <trkpt lat="47.01392" lon="5.64576">
        <ele>225</ele>
        <time>2012-09-18T14:54:19Z</time>
      </trkpt>
      <trkpt lat="47.01401" lon="5.64561">
        <ele>220</ele>
        <time>2012-09-18T14:54:21Z</time>
      </trkpt>
      <trkpt lat="47.01411" lon="5.64546">
        <ele>220</ele>
        <time>2012-09-18T14:54:23Z</time>
      </trkpt>
      <trkpt lat="47.01421" lon="5.64531">
        <ele>220</ele>
        <time>2012-09-18T14:54:25Z</time>
      </trkpt>
      <trkpt lat="47.01431" lon="5.64516">
        <ele>220</ele>
        <time>2012-09-18T14:54:27Z</time>
      </trkpt>
      <trkpt lat="47.0144" lon="5.645">
        <ele>220</ele>
        <time>2012-09-18T14:54:29Z</time>
      </trkpt>
      <trkpt lat="47.01449" lon="5.64485">
        <ele>220</ele>
        <time>2012-09-18T14:54:31Z</time>
      </trkpt>
      <trkpt lat="47.01458" lon="5.64468">
        <ele>220</ele>
        <time>2012-09-18T14:54:33Z</time>
      </trkpt>
      <trkpt lat="47.01464" lon="5.6445">
        <ele>220</ele>
        <time>2012-09-18T14:54:35Z</time>
      </trkpt>
      <trkpt lat="47.0147" lon="5.64431">
        <ele>220</ele>
        <time>2012-09-18T14:54:37Z</time>
      </trkpt>
      <trkpt lat="47.01474" lon="5.64412">
        <ele>220</ele>
        <time>2012-09-18T14:54:39Z</time>
      </trkpt>
      <trkpt lat="47.01479" lon="5.64392">
        <ele>220</ele>
        <time>2012-09-18T14:54:41Z</time>
      </trkpt>
      <trkpt lat="47.01484" lon="5.64372">
        <ele>220</ele>
        <time>2012-09-18T14:54:43Z</time>
      </trkpt>
      <trkpt lat="47.01489" lon="5.64352">
        <ele>220</ele>
        <time>2012-09-18T14:54:45Z</time>
      </trkpt>
      <trkpt lat="47.01493" lon="5.64332">
        <ele>220</ele>
        <time>2012-09-18T14:54:47Z</time>
      </trkpt>
      <trkpt lat="47.01498" lon="5.64314">
        <ele>220</ele>
        <time>2012-09-18T14:54:49Z</time>
      </trkpt>
      <trkpt lat="47.01503" lon="5.64294">
        <ele>220</ele>
        <time>2012-09-18T14:54:51Z</time>
      </trkpt>
      <trkpt lat="47.01511" lon="5.64277">
        <ele>220</ele>
        <time>2012-09-18T14:54:53Z</time>
      </trkpt>
      <trkpt lat="47.01522" lon="5.64263">
        <ele>220</ele>
        <time>2012-09-18T14:54:55Z</time>
      </trkpt>
      <trkpt lat="47.01535" lon="5.64256">
        <ele>220</ele>
        <time>2012-09-18T14:54:57Z</time>
      </trkpt>
      <trkpt lat="47.01549" lon="5.64253">
        <ele>220</ele>
        <time>2012-09-18T14:54:59Z</time>
      </trkpt>
      <trkpt lat="47.01562" lon="5.6425">
        <ele>220</ele>
        <time>2012-09-18T14:55:01Z</time>
      </trkpt>
      <trkpt lat="47.01576" lon="5.64245">
        <ele>220</ele>
        <time>2012-09-18T14:55:03Z</time>
      </trkpt>
      <trkpt lat="47.0159" lon="5.64242">
        <ele>220</ele>
        <time>2012-09-18T14:55:05Z</time>
      </trkpt>
      <trkpt lat="47.01604" lon="5.64236">
        <ele>220</ele>
        <time>2012-09-18T14:55:07Z</time>
      </trkpt>
      <trkpt lat="47.01617" lon="5.6423">
        <ele>220</ele>
        <time>2012-09-18T14:55:09Z</time>
      </trkpt>
      <trkpt lat="47.0163" lon="5.64222">
        <ele>220</ele>
        <time>2012-09-18T14:55:11Z</time>
      </trkpt>
      <trkpt lat="47.01643" lon="5.64213">
        <ele>220</ele>
        <time>2012-09-18T14:55:13Z</time>
      </trkpt>
      <trkpt lat="47.01656" lon="5.64205">
        <ele>220</ele>
        <time>2012-09-18T14:55:15Z</time>
      </trkpt>
      <trkpt lat="47.01669" lon="5.64195">
        <ele>220</ele>
        <time>2012-09-18T14:55:17Z</time>
      </trkpt>
      <trkpt lat="47.01681" lon="5.64187">
        <ele>220</ele>
        <time>2012-09-18T14:55:19Z</time>
      </trkpt>
      <trkpt lat="47.01695" lon="5.64179">
        <ele>220</ele>
        <time>2012-09-18T14:55:21Z</time>
      </trkpt>
      <trkpt lat="47.01709" lon="5.64173">
        <ele>220</ele>
        <time>2012-09-18T14:55:23Z</time>
      </trkpt>
      <trkpt lat="47.01724" lon="5.64169">
        <ele>220</ele>
        <time>2012-09-18T14:55:25Z</time>
      </trkpt>
      <trkpt lat="47.01738" lon="5.64168">
        <ele>220</ele>
        <time>2012-09-18T14:55:27Z</time>
      </trkpt>
      <trkpt lat="47.01752" lon="5.64168">
        <ele>220</ele>
        <time>2012-09-18T14:55:29Z</time>
      </trkpt>
      <trkpt lat="47.01764" lon="5.64166">
        <ele>220</ele>
        <time>2012-09-18T14:55:31Z</time>
      </trkpt>
      <trkpt lat="47.01777" lon="5.64166">
        <ele>220</ele>
        <time>2012-09-18T14:55:33Z</time>
      </trkpt>
      <trkpt lat="47.01787" lon="5.64172">
        <ele>220</ele>
        <time>2012-09-18T14:55:35Z</time>
      </trkpt>
      <trkpt lat="47.01796" lon="5.64178">
        <ele>220</ele>
        <time>2012-09-18T14:55:37Z</time>
      </trkpt>
      <trkpt lat="47.01807" lon="5.64182">
        <ele>220</ele>
        <time>2012-09-18T14:55:39Z</time>
      </trkpt>
      <trkpt lat="47.01817" lon="5.64182">
        <ele>220</ele>
        <time>2012-09-18T14:55:41Z</time>
      </trkpt>
      <trkpt lat="47.01828" lon="5.64182">
        <ele>220</ele>
        <time>2012-09-18T14:55:43Z</time>
      </trkpt>
      <trkpt lat="47.01838" lon="5.64178">
        <ele>220</ele>
        <time>2012-09-18T14:55:45Z</time>
      </trkpt>
      <trkpt lat="47.01848" lon="5.64175">
        <ele>220</ele>
        <time>2012-09-18T14:55:47Z</time>
      </trkpt>
      <trkpt lat="47.01858" lon="5.64173">
        <ele>225</ele>
        <time>2012-09-18T14:55:49Z</time>
      </trkpt>
      <trkpt lat="47.01868" lon="5.64168">
        <ele>225</ele>
        <time>2012-09-18T14:55:51Z</time>
      </trkpt>
      <trkpt lat="47.01877" lon="5.64164">
        <ele>225</ele>
        <time>2012-09-18T14:55:53Z</time>
      </trkpt>
      <trkpt lat="47.01885" lon="5.64157">
        <ele>225</ele>
        <time>2012-09-18T14:55:55Z</time>
      </trkpt>
      <trkpt lat="47.01897" lon="5.6415">
        <ele>225</ele>
        <time>2012-09-18T14:55:58Z</time>
      </trkpt>
      <trkpt lat="47.01904" lon="5.64144">
        <ele>225</ele>
        <time>2012-09-18T14:56:01Z</time>
      </trkpt>
      <trkpt lat="47.01914" lon="5.64141">
        <ele>225</ele>
        <time>2012-09-18T14:56:09Z</time>
      </trkpt>
      <trkpt lat="47.01924" lon="5.64137">
        <ele>225</ele>
        <time>2012-09-18T14:56:13Z</time>
      </trkpt>
      <trkpt lat="47.01933" lon="5.64132">
        <ele>225</ele>
        <time>2012-09-18T14:56:16Z</time>
      </trkpt>
      <trkpt lat="47.01944" lon="5.64129">
        <ele>225</ele>
        <time>2012-09-18T14:56:19Z</time>
      </trkpt>
      <trkpt lat="47.01955" lon="5.64123">
        <ele>225</ele>
        <time>2012-09-18T14:56:22Z</time>
      </trkpt>
      <trkpt lat="47.01967" lon="5.64119">
        <ele>230</ele>
        <time>2012-09-18T14:56:25Z</time>
      </trkpt>
      <trkpt lat="47.01979" lon="5.64114">
        <ele>230</ele>
        <time>2012-09-18T14:56:28Z</time>
      </trkpt>
      <trkpt lat="47.01991" lon="5.6411">
        <ele>230</ele>
        <time>2012-09-18T14:56:31Z</time>
      </trkpt>
      <trkpt lat="47.02003" lon="5.64105">
        <ele>230</ele>
        <time>2012-09-18T14:56:34Z</time>
      </trkpt>
      <trkpt lat="47.02012" lon="5.64101">
        <ele>230</ele>
        <time>2012-09-18T14:56:36Z</time>
      </trkpt>
      <trkpt lat="47.02024" lon="5.64095">
        <ele>230</ele>
        <time>2012-09-18T14:56:39Z</time>
      </trkpt>
      <trkpt lat="47.02035" lon="5.64091">
        <ele>230</ele>
        <time>2012-09-18T14:56:42Z</time>
      </trkpt>
      <trkpt lat="47.02048" lon="5.64085">
        <ele>235</ele>
        <time>2012-09-18T14:56:45Z</time>
      </trkpt>
      <trkpt lat="47.02059" lon="5.64079">
        <ele>235</ele>
        <time>2012-09-18T14:56:48Z</time>
      </trkpt>
      <trkpt lat="47.0207" lon="5.64074">
        <ele>235</ele>
        <time>2012-09-18T14:56:51Z</time>
      </trkpt>
      <trkpt lat="47.02082" lon="5.64068">
        <ele>235</ele>
        <time>2012-09-18T14:56:54Z</time>
      </trkpt>
      <trkpt lat="47.02094" lon="5.64063">
        <ele>235</ele>
        <time>2012-09-18T14:56:57Z</time>
      </trkpt>
      <trkpt lat="47.02103" lon="5.64059">
        <ele>235</ele>
        <time>2012-09-18T14:56:59Z</time>
      </trkpt>
      <trkpt lat="47.02115" lon="5.64054">
        <ele>235</ele>
        <time>2012-09-18T14:57:02Z</time>
      </trkpt>
      <trkpt lat="47.02124" lon="5.6405">
        <ele>235</ele>
        <time>2012-09-18T14:57:04Z</time>
      </trkpt>
      <trkpt lat="47.02132" lon="5.64047">
        <ele>235</ele>
        <time>2012-09-18T14:57:06Z</time>
      </trkpt>
      <trkpt lat="47.02141" lon="5.64043">
        <ele>235</ele>
        <time>2012-09-18T14:57:08Z</time>
      </trkpt>
      <trkpt lat="47.0215" lon="5.6404">
        <ele>235</ele>
        <time>2012-09-18T14:57:10Z</time>
      </trkpt>
      <trkpt lat="47.02159" lon="5.64037">
        <ele>235</ele>
        <time>2012-09-18T14:57:12Z</time>
      </trkpt>
      <trkpt lat="47.02169" lon="5.64035">
        <ele>235</ele>
        <time>2012-09-18T14:57:14Z</time>
      </trkpt>
      <trkpt lat="47.0218" lon="5.64033">
        <ele>235</ele>
        <time>2012-09-18T14:57:16Z</time>
      </trkpt>
      <trkpt lat="47.0219" lon="5.64033">
        <ele>235</ele>
        <time>2012-09-18T14:57:18Z</time>
      </trkpt>
      <trkpt lat="47.02201" lon="5.64034">
        <ele>235</ele>
        <time>2012-09-18T14:57:20Z</time>
      </trkpt>
      <trkpt lat="47.0221" lon="5.64037">
        <ele>235</ele>
        <time>2012-09-18T14:57:22Z</time>
      </trkpt>
      <trkpt lat="47.02221" lon="5.64039">
        <ele>235</ele>
        <time>2012-09-18T14:57:24Z</time>
      </trkpt>
      <trkpt lat="47.02231" lon="5.64042">
        <ele>235</ele>
        <time>2012-09-18T14:57:26Z</time>
      </trkpt>
      <trkpt lat="47.02241" lon="5.64046">
        <ele>235</ele>
        <time>2012-09-18T14:57:28Z</time>
      </trkpt>
      <trkpt lat="47.02252" lon="5.6405">
        <ele>235</ele>
        <time>2012-09-18T14:57:30Z</time>
      </trkpt>
      <trkpt lat="47.02261" lon="5.64055">
        <ele>235</ele>
        <time>2012-09-18T14:57:32Z</time>
      </trkpt>
      <trkpt lat="47.02272" lon="5.64059">
        <ele>235</ele>
        <time>2012-09-18T14:57:34Z</time>
      </trkpt>
      <trkpt lat="47.02282" lon="5.64062">
        <ele>235</ele>
        <time>2012-09-18T14:57:36Z</time>
      </trkpt>
      <trkpt lat="47.02292" lon="5.64064">
        <ele>235</ele>
        <time>2012-09-18T14:57:38Z</time>
      </trkpt>
      <trkpt lat="47.02302" lon="5.64065">
        <ele>235</ele>
        <time>2012-09-18T14:57:40Z</time>
      </trkpt>
      <trkpt lat="47.02312" lon="5.64066">
        <ele>241</ele>
        <time>2012-09-18T14:57:42Z</time>
      </trkpt>
      <trkpt lat="47.02322" lon="5.64066">
        <ele>241</ele>
        <time>2012-09-18T14:57:44Z</time>
      </trkpt>
      <trkpt lat="47.02333" lon="5.64066">
        <ele>241</ele>
        <time>2012-09-18T14:57:46Z</time>
      </trkpt>
      <trkpt lat="47.02343" lon="5.64065">
        <ele>241</ele>
        <time>2012-09-18T14:57:48Z</time>
      </trkpt>
      <trkpt lat="47.02354" lon="5.64065">
        <ele>241</ele>
        <time>2012-09-18T14:57:50Z</time>
      </trkpt>
      <trkpt lat="47.02366" lon="5.64065">
        <ele>241</ele>
        <time>2012-09-18T14:57:52Z</time>
      </trkpt>
      <trkpt lat="47.02378" lon="5.64065">
        <ele>241</ele>
        <time>2012-09-18T14:57:54Z</time>
      </trkpt>
      <trkpt lat="47.0239" lon="5.64064">
        <ele>241</ele>
        <time>2012-09-18T14:57:56Z</time>
      </trkpt>
      <trkpt lat="47.02401" lon="5.64061">
        <ele>241</ele>
        <time>2012-09-18T14:57:58Z</time>
      </trkpt>
      <trkpt lat="47.02412" lon="5.64057">
        <ele>241</ele>
        <time>2012-09-18T14:58:00Z</time>
      </trkpt>
      <trkpt lat="47.02422" lon="5.6405">
        <ele>241</ele>
        <time>2012-09-18T14:58:02Z</time>
      </trkpt>
      <trkpt lat="47.02431" lon="5.64043">
        <ele>241</ele>
        <time>2012-09-18T14:58:04Z</time>
      </trkpt>
      <trkpt lat="47.0244" lon="5.64035">
        <ele>241</ele>
        <time>2012-09-18T14:58:06Z</time>
      </trkpt>
      <trkpt lat="47.02449" lon="5.64027">
        <ele>241</ele>
        <time>2012-09-18T14:58:08Z</time>
      </trkpt>
      <trkpt lat="47.02459" lon="5.6402">
        <ele>241</ele>
        <time>2012-09-18T14:58:10Z</time>
      </trkpt>
      <trkpt lat="47.02468" lon="5.64013">
        <ele>241</ele>
        <time>2012-09-18T14:58:12Z</time>
      </trkpt>
      <trkpt lat="47.02478" lon="5.64006">
        <ele>241</ele>
        <time>2012-09-18T14:58:14Z</time>
      </trkpt>
      <trkpt lat="47.02488" lon="5.64">
        <ele>241</ele>
        <time>2012-09-18T14:58:16Z</time>
      </trkpt>
      <trkpt lat="47.02498" lon="5.63995">
        <ele>241</ele>
        <time>2012-09-18T14:58:18Z</time>
      </trkpt>
      <trkpt lat="47.02508" lon="5.63989">
        <ele>246</ele>
        <time>2012-09-18T14:58:20Z</time>
      </trkpt>
      <trkpt lat="47.02519" lon="5.63984">
        <ele>246</ele>
        <time>2012-09-18T14:58:22Z</time>
      </trkpt>
      <trkpt lat="47.02529" lon="5.63979">
        <ele>246</ele>
        <time>2012-09-18T14:58:24Z</time>
      </trkpt>
      <trkpt lat="47.0254" lon="5.63973">
        <ele>246</ele>
        <time>2012-09-18T14:58:26Z</time>
      </trkpt>
      <trkpt lat="47.0255" lon="5.63968">
        <ele>246</ele>
        <time>2012-09-18T14:58:28Z</time>
      </trkpt>
      <trkpt lat="47.0256" lon="5.63962">
        <ele>246</ele>
        <time>2012-09-18T14:58:30Z</time>
      </trkpt>
      <trkpt lat="47.0257" lon="5.63957">
        <ele>246</ele>
        <time>2012-09-18T14:58:32Z</time>
      </trkpt>
      <trkpt lat="47.0258" lon="5.63952">
        <ele>246</ele>
        <time>2012-09-18T14:58:34Z</time>
      </trkpt>
      <trkpt lat="47.0259" lon="5.63947">
        <ele>246</ele>
        <time>2012-09-18T14:58:36Z</time>
      </trkpt>
      <trkpt lat="47.02601" lon="5.63942">
        <ele>246</ele>
        <time>2012-09-18T14:58:38Z</time>
      </trkpt>
      <trkpt lat="47.0261" lon="5.63937">
        <ele>246</ele>
        <time>2012-09-18T14:58:40Z</time>
      </trkpt>
      <trkpt lat="47.0262" lon="5.63933">
        <ele>246</ele>
        <time>2012-09-18T14:58:42Z</time>
      </trkpt>
      <trkpt lat="47.02631" lon="5.63929">
        <ele>246</ele>
        <time>2012-09-18T14:58:44Z</time>
      </trkpt>
      <trkpt lat="47.02642" lon="5.63926">
        <ele>246</ele>
        <time>2012-09-18T14:58:46Z</time>
      </trkpt>
      <trkpt lat="47.02652" lon="5.63922">
        <ele>246</ele>
        <time>2012-09-18T14:58:48Z</time>
      </trkpt>
      <trkpt lat="47.02663" lon="5.63917">
        <ele>246</ele>
        <time>2012-09-18T14:58:50Z</time>
      </trkpt>
      <trkpt lat="47.02674" lon="5.63913">
        <ele>246</ele>
        <time>2012-09-18T14:58:52Z</time>
      </trkpt>
      <trkpt lat="47.02685" lon="5.63909">
        <ele>246</ele>
        <time>2012-09-18T14:58:54Z</time>
      </trkpt>
      <trkpt lat="47.02696" lon="5.63906">
        <ele>252</ele>
        <time>2012-09-18T14:58:56Z</time>
      </trkpt>
      <trkpt lat="47.02707" lon="5.63901">
        <ele>252</ele>
        <time>2012-09-18T14:58:58Z</time>
      </trkpt>
      <trkpt lat="47.02719" lon="5.63897">
        <ele>252</ele>
        <time>2012-09-18T14:59:00Z</time>
      </trkpt>
      <trkpt lat="47.02731" lon="5.63893">
        <ele>252</ele>
        <time>2012-09-18T14:59:02Z</time>
      </trkpt>
      <trkpt lat="47.02742" lon="5.63889">
        <ele>252</ele>
        <time>2012-09-18T14:59:04Z</time>
      </trkpt>
      <trkpt lat="47.02753" lon="5.63884">
        <ele>252</ele>
        <time>2012-09-18T14:59:06Z</time>
      </trkpt>
      <trkpt lat="47.02765" lon="5.6388">
        <ele>252</ele>
        <time>2012-09-18T14:59:08Z</time>
      </trkpt>
      <trkpt lat="47.02776" lon="5.63875">
        <ele>252</ele>
        <time>2012-09-18T14:59:10Z</time>
      </trkpt>
      <trkpt lat="47.02787" lon="5.63872">
        <ele>252</ele>
        <time>2012-09-18T14:59:12Z</time>
      </trkpt>
      <trkpt lat="47.02798" lon="5.63867">
        <ele>257</ele>
        <time>2012-09-18T14:59:14Z</time>
      </trkpt>
      <trkpt lat="47.02809" lon="5.63863">
        <ele>257</ele>
        <time>2012-09-18T14:59:16Z</time>
      </trkpt>
      <trkpt lat="47.0282" lon="5.63859">
        <ele>257</ele>
        <time>2012-09-18T14:59:18Z</time>
      </trkpt>
      <trkpt lat="47.02832" lon="5.63855">
        <ele>257</ele>
        <time>2012-09-18T14:59:20Z</time>
      </trkpt>
      <trkpt lat="47.02843" lon="5.63851">
        <ele>257</ele>
        <time>2012-09-18T14:59:22Z</time>
      </trkpt>
      <trkpt lat="47.02855" lon="5.63849">
        <ele>257</ele>
        <time>2012-09-18T14:59:24Z</time>
      </trkpt>
      <trkpt lat="47.02866" lon="5.63845">
        <ele>257</ele>
        <time>2012-09-18T14:59:26Z</time>
      </trkpt>
      <trkpt lat="47.02877" lon="5.63841">
        <ele>257</ele>
        <time>2012-09-18T14:59:28Z</time>
      </trkpt>
      <trkpt lat="47.02888" lon="5.63838">
        <ele>257</ele>
        <time>2012-09-18T14:59:30Z</time>
      </trkpt>
      <trkpt lat="47.02898" lon="5.63833">
        <ele>257</ele>
        <time>2012-09-18T14:59:32Z</time>
      </trkpt>
      <trkpt lat="47.02909" lon="5.63829">
        <ele>257</ele>
        <time>2012-09-18T14:59:34Z</time>
      </trkpt>
      <trkpt lat="47.02921" lon="5.63825">
        <ele>257</ele>
        <time>2012-09-18T14:59:36Z</time>
      </trkpt>
      <trkpt lat="47.02932" lon="5.6382">
        <ele>257</ele>
        <time>2012-09-18T14:59:38Z</time>
      </trkpt>
      <trkpt lat="47.02943" lon="5.63817">
        <ele>257</ele>
        <time>2012-09-18T14:59:40Z</time>
      </trkpt>
      <trkpt lat="47.02954" lon="5.63812">
        <ele>257</ele>
        <time>2012-09-18T14:59:42Z</time>
      </trkpt>
      <trkpt lat="47.02965" lon="5.63809">
        <ele>257</ele>
        <time>2012-09-18T14:59:44Z</time>
      </trkpt>
      <trkpt lat="47.02977" lon="5.63805">
        <ele>257</ele>
        <time>2012-09-18T14:59:46Z</time>
      </trkpt>
      <trkpt lat="47.02989" lon="5.63802">
        <ele>257</ele>
        <time>2012-09-18T14:59:48Z</time>
      </trkpt>
      <trkpt lat="47.03" lon="5.63798">
        <ele>257</ele>
        <time>2012-09-18T14:59:50Z</time>
      </trkpt>
      <trkpt lat="47.03011" lon="5.63794">
        <ele>257</ele>
        <time>2012-09-18T14:59:52Z</time>
      </trkpt>
      <trkpt lat="47.03023" lon="5.63791">
        <ele>262</ele>
        <time>2012-09-18T14:59:54Z</time>
      </trkpt>
      <trkpt lat="47.03034" lon="5.63788">
        <ele>262</ele>
        <time>2012-09-18T14:59:56Z</time>
      </trkpt>
      <trkpt lat="47.03046" lon="5.63786">
        <ele>262</ele>
        <time>2012-09-18T14:59:58Z</time>
      </trkpt>
      <trkpt lat="47.03058" lon="5.63782">
        <ele>262</ele>
        <time>2012-09-18T15:00:00Z</time>
      </trkpt>
      <trkpt lat="47.03069" lon="5.63778">
        <ele>262</ele>
        <time>2012-09-18T15:00:02Z</time>
      </trkpt>
      <trkpt lat="47.03081" lon="5.63775">
        <ele>262</ele>
        <time>2012-09-18T15:00:04Z</time>
      </trkpt>
      <trkpt lat="47.03093" lon="5.63771">
        <ele>262</ele>
        <time>2012-09-18T15:00:06Z</time>
      </trkpt>
      <trkpt lat="47.03106" lon="5.63767">
        <ele>262</ele>
        <time>2012-09-18T15:00:08Z</time>
      </trkpt>
      <trkpt lat="47.0312" lon="5.63764">
        <ele>262</ele>
        <time>2012-09-18T15:00:10Z</time>
      </trkpt>
      <trkpt lat="47.03134" lon="5.6376">
        <ele>262</ele>
        <time>2012-09-18T15:00:12Z</time>
      </trkpt>
      <trkpt lat="47.0315" lon="5.63756">
        <ele>262</ele>
        <time>2012-09-18T15:00:14Z</time>
      </trkpt>
      <trkpt lat="47.03166" lon="5.63749">
        <ele>262</ele>
        <time>2012-09-18T15:00:16Z</time>
      </trkpt>
      <trkpt lat="47.03183" lon="5.63744">
        <ele>257</ele>
        <time>2012-09-18T15:00:18Z</time>
      </trkpt>
      <trkpt lat="47.03193" lon="5.63741">
        <ele>257</ele>
        <time>2012-09-18T15:00:19Z</time>
      </trkpt>
      <trkpt lat="47.0321" lon="5.63736">
        <ele>257</ele>
        <time>2012-09-18T15:00:21Z</time>
      </trkpt>
      <trkpt lat="47.03228" lon="5.63731">
        <ele>257</ele>
        <time>2012-09-18T15:00:23Z</time>
      </trkpt>
      <trkpt lat="47.03236" lon="5.63727">
        <ele>257</ele>
        <time>2012-09-18T15:00:24Z</time>
      </trkpt>
      <trkpt lat="47.03245" lon="5.63725">
        <ele>257</ele>
        <time>2012-09-18T15:00:25Z</time>
      </trkpt>
      <trkpt lat="47.03263" lon="5.6372">
        <ele>257</ele>
        <time>2012-09-18T15:00:27Z</time>
      </trkpt>
      <trkpt lat="47.0328" lon="5.63714">
        <ele>257</ele>
        <time>2012-09-18T15:00:29Z</time>
      </trkpt>
      <trkpt lat="47.03297" lon="5.63709">
        <ele>257</ele>
        <time>2012-09-18T15:00:31Z</time>
      </trkpt>
      <trkpt lat="47.03314" lon="5.63704">
        <ele>257</ele>
        <time>2012-09-18T15:00:33Z</time>
      </trkpt>
      <trkpt lat="47.0333" lon="5.63699">
        <ele>257</ele>
        <time>2012-09-18T15:00:35Z</time>
      </trkpt>
      <trkpt lat="47.03346" lon="5.63694">
        <ele>257</ele>
        <time>2012-09-18T15:00:37Z</time>
      </trkpt>
      <trkpt lat="47.03361" lon="5.63689">
        <ele>257</ele>
        <time>2012-09-18T15:00:39Z</time>
      </trkpt>
      <trkpt lat="47.03376" lon="5.63685">
        <ele>257</ele>
        <time>2012-09-18T15:00:41Z</time>
      </trkpt>
      <trkpt lat="47.0339" lon="5.6368">
        <ele>257</ele>
        <time>2012-09-18T15:00:43Z</time>
      </trkpt>
      <trkpt lat="47.03403" lon="5.63677">
        <ele>257</ele>
        <time>2012-09-18T15:00:45Z</time>
      </trkpt>
      <trkpt lat="47.03417" lon="5.63673">
        <ele>257</ele>
        <time>2012-09-18T15:00:47Z</time>
      </trkpt>
      <trkpt lat="47.03431" lon="5.63668">
        <ele>251</ele>
        <time>2012-09-18T15:00:49Z</time>
      </trkpt>
      <trkpt lat="47.03446" lon="5.63664">
        <ele>251</ele>
        <time>2012-09-18T15:00:51Z</time>
      </trkpt>
      <trkpt lat="47.03462" lon="5.63659">
        <ele>251</ele>
        <time>2012-09-18T15:00:53Z</time>
      </trkpt>
      <trkpt lat="47.03479" lon="5.63653">
        <ele>251</ele>
        <time>2012-09-18T15:00:55Z</time>
      </trkpt>
      <trkpt lat="47.03497" lon="5.63648">
        <ele>251</ele>
        <time>2012-09-18T15:00:57Z</time>
      </trkpt>
      <trkpt lat="47.03514" lon="5.63643">
        <ele>251</ele>
        <time>2012-09-18T15:00:59Z</time>
      </trkpt>
      <trkpt lat="47.03532" lon="5.63637">
        <ele>251</ele>
        <time>2012-09-18T15:01:01Z</time>
      </trkpt>
      <trkpt lat="47.03549" lon="5.63632">
        <ele>246</ele>
        <time>2012-09-18T15:01:03Z</time>
      </trkpt>
      <trkpt lat="47.03566" lon="5.63627">
        <ele>246</ele>
        <time>2012-09-18T15:01:05Z</time>
      </trkpt>
      <trkpt lat="47.03582" lon="5.63622">
        <ele>246</ele>
        <time>2012-09-18T15:01:07Z</time>
      </trkpt>
      <trkpt lat="47.03597" lon="5.63617">
        <ele>246</ele>
        <time>2012-09-18T15:01:09Z</time>
      </trkpt>
      <trkpt lat="47.03612" lon="5.63612">
        <ele>246</ele>
        <time>2012-09-18T15:01:11Z</time>
      </trkpt>
      <trkpt lat="47.03626" lon="5.63608">
        <ele>246</ele>
        <time>2012-09-18T15:01:13Z</time>
      </trkpt>
      <trkpt lat="47.03641" lon="5.63604">
        <ele>246</ele>
        <time>2012-09-18T15:01:15Z</time>
      </trkpt>
      <trkpt lat="47.03656" lon="5.63599">
        <ele>246</ele>
        <time>2012-09-18T15:01:17Z</time>
      </trkpt>
      <trkpt lat="47.03672" lon="5.63592">
        <ele>246</ele>
        <time>2012-09-18T15:01:19Z</time>
      </trkpt>
      <trkpt lat="47.03688" lon="5.63586">
        <ele>246</ele>
        <time>2012-09-18T15:01:21Z</time>
      </trkpt>
      <trkpt lat="47.03704" lon="5.63581">
        <ele>246</ele>
        <time>2012-09-18T15:01:23Z</time>
      </trkpt>
      <trkpt lat="47.03713" lon="5.63577">
        <ele>246</ele>
        <time>2012-09-18T15:01:24Z</time>
      </trkpt>
      <trkpt lat="47.03731" lon="5.63572">
        <ele>246</ele>
        <time>2012-09-18T15:01:26Z</time>
      </trkpt>
      <trkpt lat="47.03748" lon="5.63565">
        <ele>246</ele>
        <time>2012-09-18T15:01:28Z</time>
      </trkpt>
      <trkpt lat="47.03758" lon="5.63563">
        <ele>246</ele>
        <time>2012-09-18T15:01:29Z</time>
      </trkpt>
      <trkpt lat="47.03767" lon="5.63559">
        <ele>246</ele>
        <time>2012-09-18T15:01:30Z</time>
      </trkpt>
      <trkpt lat="47.03777" lon="5.63556">
        <ele>241</ele>
        <time>2012-09-18T15:01:31Z</time>
      </trkpt>
      <trkpt lat="47.03786" lon="5.63553">
        <ele>241</ele>
        <time>2012-09-18T15:01:32Z</time>
      </trkpt>
      <trkpt lat="47.03796" lon="5.6355">
        <ele>241</ele>
        <time>2012-09-18T15:01:33Z</time>
      </trkpt>
      <trkpt lat="47.03805" lon="5.63546">
        <ele>241</ele>
        <time>2012-09-18T15:01:34Z</time>
      </trkpt>
      <trkpt lat="47.03815" lon="5.63543">
        <ele>241</ele>
        <time>2012-09-18T15:01:35Z</time>
      </trkpt>
      <trkpt lat="47.03824" lon="5.63539">
        <ele>241</ele>
        <time>2012-09-18T15:01:36Z</time>
      </trkpt>
      <trkpt lat="47.03833" lon="5.63536">
        <ele>241</ele>
        <time>2012-09-18T15:01:37Z</time>
      </trkpt>
      <trkpt lat="47.03842" lon="5.63533">
        <ele>241</ele>
        <time>2012-09-18T15:01:38Z</time>
      </trkpt>
      <trkpt lat="47.03851" lon="5.6353">
        <ele>241</ele>
        <time>2012-09-18T15:01:39Z</time>
      </trkpt>
      <trkpt lat="47.0386" lon="5.63527">
        <ele>241</ele>
        <time>2012-09-18T15:01:40Z</time>
      </trkpt>
      <trkpt lat="47.03878" lon="5.63521">
        <ele>241</ele>
        <time>2012-09-18T15:01:42Z</time>
      </trkpt>
      <trkpt lat="47.03887" lon="5.63519">
        <ele>241</ele>
        <time>2012-09-18T15:01:43Z</time>
      </trkpt>
      <trkpt lat="47.03896" lon="5.63516">
        <ele>241</ele>
        <time>2012-09-18T15:01:44Z</time>
      </trkpt>
      <trkpt lat="47.03905" lon="5.63512">
        <ele>235</ele>
        <time>2012-09-18T15:01:45Z</time>
      </trkpt>
      <trkpt lat="47.03922" lon="5.63507">
        <ele>235</ele>
        <time>2012-09-18T15:01:47Z</time>
      </trkpt>
      <trkpt lat="47.03931" lon="5.63504">
        <ele>235</ele>
        <time>2012-09-18T15:01:48Z</time>
      </trkpt>
      <trkpt lat="47.0394" lon="5.63501">
        <ele>235</ele>
        <time>2012-09-18T15:01:49Z</time>
      </trkpt>
      <trkpt lat="47.03958" lon="5.63495">
        <ele>235</ele>
        <time>2012-09-18T15:01:51Z</time>
      </trkpt>
      <trkpt lat="47.03975" lon="5.63489">
        <ele>235</ele>
        <time>2012-09-18T15:01:53Z</time>
      </trkpt>
      <trkpt lat="47.03992" lon="5.63484">
        <ele>235</ele>
        <time>2012-09-18T15:01:55Z</time>
      </trkpt>
      <trkpt lat="47.04008" lon="5.63476">
        <ele>235</ele>
        <time>2012-09-18T15:01:57Z</time>
      </trkpt>
      <trkpt lat="47.04021" lon="5.63464">
        <ele>235</ele>
        <time>2012-09-18T15:01:59Z</time>
      </trkpt>
      <trkpt lat="47.04029" lon="5.63449">
        <ele>235</ele>
        <time>2012-09-18T15:02:01Z</time>
      </trkpt>
      <trkpt lat="47.04034" lon="5.63432">
        <ele>235</ele>
        <time>2012-09-18T15:02:03Z</time>
      </trkpt>
      <trkpt lat="47.04039" lon="5.63418">
        <ele>235</ele>
        <time>2012-09-18T15:02:05Z</time>
      </trkpt>
      <trkpt lat="47.04043" lon="5.63404">
        <ele>235</ele>
        <time>2012-09-18T15:02:07Z</time>
      </trkpt>
      <trkpt lat="47.04047" lon="5.63391">
        <ele>235</ele>
        <time>2012-09-18T15:02:09Z</time>
      </trkpt>
      <trkpt lat="47.04051" lon="5.63378">
        <ele>235</ele>
        <time>2012-09-18T15:02:11Z</time>
      </trkpt>
      <trkpt lat="47.04056" lon="5.63366">
        <ele>235</ele>
        <time>2012-09-18T15:02:13Z</time>
      </trkpt>
      <trkpt lat="47.0406" lon="5.63354">
        <ele>235</ele>
        <time>2012-09-18T15:02:15Z</time>
      </trkpt>
      <trkpt lat="47.04065" lon="5.63343">
        <ele>235</ele>
        <time>2012-09-18T15:02:17Z</time>
      </trkpt>
      <trkpt lat="47.04071" lon="5.63332">
        <ele>235</ele>
        <time>2012-09-18T15:02:19Z</time>
      </trkpt>
      <trkpt lat="47.04079" lon="5.63316">
        <ele>235</ele>
        <time>2012-09-18T15:02:22Z</time>
      </trkpt>
      <trkpt lat="47.04084" lon="5.63306">
        <ele>235</ele>
        <time>2012-09-18T15:02:24Z</time>
      </trkpt>
      <trkpt lat="47.04092" lon="5.63291">
        <ele>235</ele>
        <time>2012-09-18T15:02:27Z</time>
      </trkpt>
      <trkpt lat="47.041" lon="5.63277">
        <ele>241</ele>
        <time>2012-09-18T15:02:30Z</time>
      </trkpt>
      <trkpt lat="47.04108" lon="5.63263">
        <ele>241</ele>
        <time>2012-09-18T15:02:33Z</time>
      </trkpt>
      <trkpt lat="47.04117" lon="5.63251">
        <ele>241</ele>
        <time>2012-09-18T15:02:36Z</time>
      </trkpt>
      <trkpt lat="47.04125" lon="5.6324">
        <ele>241</ele>
        <time>2012-09-18T15:02:39Z</time>
      </trkpt>
      <trkpt lat="47.04133" lon="5.63229">
        <ele>241</ele>
        <time>2012-09-18T15:02:42Z</time>
      </trkpt>
      <trkpt lat="47.04141" lon="5.63219">
        <ele>241</ele>
        <time>2012-09-18T15:02:45Z</time>
      </trkpt>
      <trkpt lat="47.04151" lon="5.6321">
        <ele>241</ele>
        <time>2012-09-18T15:02:48Z</time>
      </trkpt>
      <trkpt lat="47.04161" lon="5.63199">
        <ele>241</ele>
        <time>2012-09-18T15:02:51Z</time>
      </trkpt>
      <trkpt lat="47.04169" lon="5.63191">
        <ele>241</ele>
        <time>2012-09-18T15:02:53Z</time>
      </trkpt>
      <trkpt lat="47.04177" lon="5.63183">
        <ele>241</ele>
        <time>2012-09-18T15:02:55Z</time>
      </trkpt>
      <trkpt lat="47.04184" lon="5.63174">
        <ele>241</ele>
        <time>2012-09-18T15:02:57Z</time>
      </trkpt>
      <trkpt lat="47.04192" lon="5.63162">
        <ele>241</ele>
        <time>2012-09-18T15:03:01Z</time>
      </trkpt>
      <trkpt lat="47.04199" lon="5.63147">
        <ele>241</ele>
        <time>2012-09-18T15:03:04Z</time>
      </trkpt>
      <trkpt lat="47.04204" lon="5.63134">
        <ele>241</ele>
        <time>2012-09-18T15:03:06Z</time>
      </trkpt>
      <trkpt lat="47.04209" lon="5.6312">
        <ele>241</ele>
        <time>2012-09-18T15:03:08Z</time>
      </trkpt>
      <trkpt lat="47.04213" lon="5.63102">
        <ele>241</ele>
        <time>2012-09-18T15:03:10Z</time>
      </trkpt>
      <trkpt lat="47.04215" lon="5.63082">
        <ele>241</ele>
        <time>2012-09-18T15:03:12Z</time>
      </trkpt>
      <trkpt lat="47.04215" lon="5.63059">
        <ele>241</ele>
        <time>2012-09-18T15:03:14Z</time>
      </trkpt>
      <trkpt lat="47.04215" lon="5.63034">
        <ele>241</ele>
        <time>2012-09-18T15:03:16Z</time>
      </trkpt>
      <trkpt lat="47.04216" lon="5.63019">
        <ele>241</ele>
        <time>2012-09-18T15:03:17Z</time>
      </trkpt>
      <trkpt lat="47.04216" lon="5.63005">
        <ele>235</ele>
        <time>2012-09-18T15:03:18Z</time>
      </trkpt>
      <trkpt lat="47.04217" lon="5.6299">
        <ele>235</ele>
        <time>2012-09-18T15:03:19Z</time>
      </trkpt>
      <trkpt lat="47.04218" lon="5.62974">
        <ele>235</ele>
        <time>2012-09-18T15:03:20Z</time>
      </trkpt>
      <trkpt lat="47.04218" lon="5.62958">
        <ele>235</ele>
        <time>2012-09-18T15:03:21Z</time>
      </trkpt>
      <trkpt lat="47.04219" lon="5.62942">
        <ele>235</ele>
        <time>2012-09-18T15:03:22Z</time>
      </trkpt>
      <trkpt lat="47.0422" lon="5.62925">
        <ele>235</ele>
        <time>2012-09-18T15:03:23Z</time>
      </trkpt>
      <trkpt lat="47.04222" lon="5.62909">
        <ele>235</ele>
        <time>2012-09-18T15:03:24Z</time>
      </trkpt>
      <trkpt lat="47.04226" lon="5.62892">
        <ele>235</ele>
        <time>2012-09-18T15:03:25Z</time>
      </trkpt>
      <trkpt lat="47.0423" lon="5.62876">
        <ele>230</ele>
        <time>2012-09-18T15:03:26Z</time>
      </trkpt>
      <trkpt lat="47.04234" lon="5.62862">
        <ele>230</ele>
        <time>2012-09-18T15:03:27Z</time>
      </trkpt>
      <trkpt lat="47.04239" lon="5.62848">
        <ele>230</ele>
        <time>2012-09-18T15:03:28Z</time>
      </trkpt>
      <trkpt lat="47.04243" lon="5.62836">
        <ele>230</ele>
        <time>2012-09-18T15:03:29Z</time>
      </trkpt>
      <trkpt lat="47.04248" lon="5.62823">
        <ele>230</ele>
        <time>2012-09-18T15:03:30Z</time>
      </trkpt>
      <trkpt lat="47.04253" lon="5.62812">
        <ele>230</ele>
        <time>2012-09-18T15:03:31Z</time>
      </trkpt>
      <trkpt lat="47.04258" lon="5.62799">
        <ele>230</ele>
        <time>2012-09-18T15:03:32Z</time>
      </trkpt>
      <trkpt lat="47.04264" lon="5.62788">
        <ele>230</ele>
        <time>2012-09-18T15:03:33Z</time>
      </trkpt>
      <trkpt lat="47.0427" lon="5.62779">
        <ele>230</ele>
        <time>2012-09-18T15:03:34Z</time>
      </trkpt>
      <trkpt lat="47.04278" lon="5.62771">
        <ele>230</ele>
        <time>2012-09-18T15:03:35Z</time>
      </trkpt>
      <trkpt lat="47.04294" lon="5.62761">
        <ele>230</ele>
        <time>2012-09-18T15:03:37Z</time>
      </trkpt>
      <trkpt lat="47.0431" lon="5.62751">
        <ele>230</ele>
        <time>2012-09-18T15:03:39Z</time>
      </trkpt>
      <trkpt lat="47.04324" lon="5.62741">
        <ele>230</ele>
        <time>2012-09-18T15:03:41Z</time>
      </trkpt>
      <trkpt lat="47.04337" lon="5.62733">
        <ele>230</ele>
        <time>2012-09-18T15:03:43Z</time>
      </trkpt>
      <trkpt lat="47.04348" lon="5.62724">
        <ele>230</ele>
        <time>2012-09-18T15:03:45Z</time>
      </trkpt>
      <trkpt lat="47.04358" lon="5.62716">
        <ele>230</ele>
        <time>2012-09-18T15:03:47Z</time>
      </trkpt>
      <trkpt lat="47.04366" lon="5.62707">
        <ele>230</ele>
        <time>2012-09-18T15:03:49Z</time>
      </trkpt>
      <trkpt lat="47.04374" lon="5.62698">
        <ele>230</ele>
        <time>2012-09-18T15:03:51Z</time>
      </trkpt>
      <trkpt lat="47.04383" lon="5.62685">
        <ele>230</ele>
        <time>2012-09-18T15:03:54Z</time>
      </trkpt>
      <trkpt lat="47.04391" lon="5.6267">
        <ele>230</ele>
        <time>2012-09-18T15:03:57Z</time>
      </trkpt>
      <trkpt lat="47.04398" lon="5.62659">
        <ele>230</ele>
        <time>2012-09-18T15:03:59Z</time>
      </trkpt>
      <trkpt lat="47.04404" lon="5.62645">
        <ele>230</ele>
        <time>2012-09-18T15:04:01Z</time>
      </trkpt>
      <trkpt lat="47.0441" lon="5.62631">
        <ele>230</ele>
        <time>2012-09-18T15:04:03Z</time>
      </trkpt>
      <trkpt lat="47.04419" lon="5.62617">
        <ele>230</ele>
        <time>2012-09-18T15:04:05Z</time>
      </trkpt>
      <trkpt lat="47.0443" lon="5.62604">
        <ele>230</ele>
        <time>2012-09-18T15:04:07Z</time>
      </trkpt>
      <trkpt lat="47.04442" lon="5.62592">
        <ele>230</ele>
        <time>2012-09-18T15:04:09Z</time>
      </trkpt>
      <trkpt lat="47.04452" lon="5.62582">
        <ele>230</ele>
        <time>2012-09-18T15:04:11Z</time>
      </trkpt>
      <trkpt lat="47.0446" lon="5.62568">
        <ele>230</ele>
        <time>2012-09-18T15:04:13Z</time>
      </trkpt>
      <trkpt lat="47.04467" lon="5.62552">
        <ele>230</ele>
        <time>2012-09-18T15:04:15Z</time>
      </trkpt>
      <trkpt lat="47.04475" lon="5.62534">
        <ele>230</ele>
        <time>2012-09-18T15:04:17Z</time>
      </trkpt>
      <trkpt lat="47.04483" lon="5.62516">
        <ele>230</ele>
        <time>2012-09-18T15:04:19Z</time>
      </trkpt>
      <trkpt lat="47.04491" lon="5.62498">
        <ele>230</ele>
        <time>2012-09-18T15:04:21Z</time>
      </trkpt>
      <trkpt lat="47.04498" lon="5.62479">
        <ele>230</ele>
        <time>2012-09-18T15:04:23Z</time>
      </trkpt>
      <trkpt lat="47.04503" lon="5.6246">
        <ele>230</ele>
        <time>2012-09-18T15:04:25Z</time>
      </trkpt>
      <trkpt lat="47.04508" lon="5.6244">
        <ele>230</ele>
        <time>2012-09-18T15:04:27Z</time>
      </trkpt>
      <trkpt lat="47.04512" lon="5.62419">
        <ele>230</ele>
        <time>2012-09-18T15:04:29Z</time>
      </trkpt>
      <trkpt lat="47.04516" lon="5.62399">
        <ele>230</ele>
        <time>2012-09-18T15:04:31Z</time>
      </trkpt>
      <trkpt lat="47.04519" lon="5.6238">
        <ele>230</ele>
        <time>2012-09-18T15:04:33Z</time>
      </trkpt>
      <trkpt lat="47.04523" lon="5.6236">
        <ele>230</ele>
        <time>2012-09-18T15:04:35Z</time>
      </trkpt>
      <trkpt lat="47.04528" lon="5.62342">
        <ele>230</ele>
        <time>2012-09-18T15:04:37Z</time>
      </trkpt>
      <trkpt lat="47.04534" lon="5.62323">
        <ele>230</ele>
        <time>2012-09-18T15:04:39Z</time>
      </trkpt>
      <trkpt lat="47.0454" lon="5.62305">
        <ele>230</ele>
        <time>2012-09-18T15:04:41Z</time>
      </trkpt>
      <trkpt lat="47.04546" lon="5.62287">
        <ele>230</ele>
        <time>2012-09-18T15:04:43Z</time>
      </trkpt>
      <trkpt lat="47.04552" lon="5.62269">
        <ele>230</ele>
        <time>2012-09-18T15:04:45Z</time>
      </trkpt>
      <trkpt lat="47.0456" lon="5.62252">
        <ele>230</ele>
        <time>2012-09-18T15:04:47Z</time>
      </trkpt>
      <trkpt lat="47.04568" lon="5.62239">
        <ele>230</ele>
        <time>2012-09-18T15:04:49Z</time>
      </trkpt>
      <trkpt lat="47.04577" lon="5.62225">
        <ele>230</ele>
        <time>2012-09-18T15:04:51Z</time>
      </trkpt>
      <trkpt lat="47.04586" lon="5.62212">
        <ele>225</ele>
        <time>2012-09-18T15:04:53Z</time>
      </trkpt>
      <trkpt lat="47.04593" lon="5.62197">
        <ele>225</ele>
        <time>2012-09-18T15:04:55Z</time>
      </trkpt>
      <trkpt lat="47.04598" lon="5.62181">
        <ele>225</ele>
        <time>2012-09-18T15:04:57Z</time>
      </trkpt>
      <trkpt lat="47.046" lon="5.62164">
        <ele>225</ele>
        <time>2012-09-18T15:04:59Z</time>
      </trkpt>
      <trkpt lat="47.046" lon="5.62147">
        <ele>225</ele>
        <time>2012-09-18T15:05:01Z</time>
      </trkpt>
      <trkpt lat="47.04604" lon="5.62133">
        <ele>225</ele>
        <time>2012-09-18T15:05:03Z</time>
      </trkpt>
      <trkpt lat="47.04615" lon="5.62124">
        <ele>225</ele>
        <time>2012-09-18T15:05:05Z</time>
      </trkpt>
      <trkpt lat="47.04627" lon="5.62117">
        <ele>225</ele>
        <time>2012-09-18T15:05:07Z</time>
      </trkpt>
      <trkpt lat="47.04638" lon="5.62112">
        <ele>225</ele>
        <time>2012-09-18T15:05:09Z</time>
      </trkpt>
      <trkpt lat="47.0465" lon="5.62106">
        <ele>225</ele>
        <time>2012-09-18T15:05:11Z</time>
      </trkpt>
      <trkpt lat="47.04662" lon="5.62102">
        <ele>225</ele>
        <time>2012-09-18T15:05:13Z</time>
      </trkpt>
      <trkpt lat="47.04674" lon="5.62099">
        <ele>225</ele>
        <time>2012-09-18T15:05:15Z</time>
      </trkpt>
      <trkpt lat="47.04687" lon="5.62097">
        <ele>225</ele>
        <time>2012-09-18T15:05:17Z</time>
      </trkpt>
      <trkpt lat="47.04699" lon="5.62097">
        <ele>225</ele>
        <time>2012-09-18T15:05:19Z</time>
      </trkpt>
      <trkpt lat="47.04711" lon="5.62093">
        <ele>225</ele>
        <time>2012-09-18T15:05:21Z</time>
      </trkpt>
      <trkpt lat="47.04722" lon="5.62088">
        <ele>225</ele>
        <time>2012-09-18T15:05:23Z</time>
      </trkpt>
      <trkpt lat="47.04733" lon="5.62085">
        <ele>225</ele>
        <time>2012-09-18T15:05:25Z</time>
      </trkpt>
      <trkpt lat="47.04744" lon="5.62081">
        <ele>225</ele>
        <time>2012-09-18T15:05:27Z</time>
      </trkpt>
      <trkpt lat="47.04755" lon="5.62078">
        <ele>225</ele>
        <time>2012-09-18T15:05:29Z</time>
      </trkpt>
      <trkpt lat="47.04765" lon="5.62072">
        <ele>225</ele>
        <time>2012-09-18T15:05:31Z</time>
      </trkpt>
      <trkpt lat="47.04775" lon="5.62067">
        <ele>225</ele>
        <time>2012-09-18T15:05:33Z</time>
      </trkpt>
      <trkpt lat="47.04783" lon="5.62055">
        <ele>225</ele>
        <time>2012-09-18T15:05:35Z</time>
      </trkpt>
      <trkpt lat="47.04787" lon="5.6204">
        <ele>225</ele>
        <time>2012-09-18T15:05:37Z</time>
      </trkpt>
      <trkpt lat="47.04789" lon="5.62023">
        <ele>225</ele>
        <time>2012-09-18T15:05:39Z</time>
      </trkpt>
      <trkpt lat="47.04791" lon="5.62005">
        <ele>225</ele>
        <time>2012-09-18T15:05:41Z</time>
      </trkpt>
      <trkpt lat="47.04791" lon="5.61987">
        <ele>225</ele>
        <time>2012-09-18T15:05:43Z</time>
      </trkpt>
      <trkpt lat="47.04791" lon="5.61969">
        <ele>225</ele>
        <time>2012-09-18T15:05:45Z</time>
      </trkpt>
      <trkpt lat="47.04791" lon="5.61951">
        <ele>225</ele>
        <time>2012-09-18T15:05:47Z</time>
      </trkpt>
      <trkpt lat="47.0479" lon="5.61933">
        <ele>225</ele>
        <time>2012-09-18T15:05:49Z</time>
      </trkpt>
      <trkpt lat="47.04788" lon="5.61915">
        <ele>225</ele>
        <time>2012-09-18T15:05:51Z</time>
      </trkpt>
      <trkpt lat="47.04786" lon="5.61899">
        <ele>225</ele>
        <time>2012-09-18T15:05:53Z</time>
      </trkpt>
      <trkpt lat="47.04783" lon="5.61883">
        <ele>225</ele>
        <time>2012-09-18T15:05:55Z</time>
      </trkpt>
      <trkpt lat="47.04781" lon="5.61866">
        <ele>225</ele>
        <time>2012-09-18T15:05:57Z</time>
      </trkpt>
      <trkpt lat="47.04778" lon="5.61849">
        <ele>225</ele>
        <time>2012-09-18T15:05:59Z</time>
      </trkpt>
      <trkpt lat="47.04778" lon="5.61832">
        <ele>225</ele>
        <time>2012-09-18T15:06:01Z</time>
      </trkpt>
      <trkpt lat="47.04778" lon="5.61815">
        <ele>225</ele>
        <time>2012-09-18T15:06:03Z</time>
      </trkpt>
      <trkpt lat="47.0478" lon="5.61798">
        <ele>230</ele>
        <time>2012-09-18T15:06:05Z</time>
      </trkpt>
      <trkpt lat="47.04786" lon="5.61782">
        <ele>230</ele>
        <time>2012-09-18T15:06:07Z</time>
      </trkpt>
      <trkpt lat="47.04794" lon="5.61766">
        <ele>230</ele>
        <time>2012-09-18T15:06:09Z</time>
      </trkpt>
      <trkpt lat="47.04803" lon="5.61752">
        <ele>230</ele>
        <time>2012-09-18T15:06:11Z</time>
      </trkpt>
      <trkpt lat="47.0481" lon="5.61736">
        <ele>230</ele>
        <time>2012-09-18T15:06:13Z</time>
      </trkpt>
      <trkpt lat="47.04815" lon="5.61719">
        <ele>230</ele>
        <time>2012-09-18T15:06:15Z</time>
      </trkpt>
      <trkpt lat="47.04819" lon="5.61701">
        <ele>230</ele>
        <time>2012-09-18T15:06:17Z</time>
      </trkpt>
      <trkpt lat="47.04823" lon="5.61683">
        <ele>230</ele>
        <time>2012-09-18T15:06:19Z</time>
      </trkpt>
      <trkpt lat="47.04827" lon="5.61665">
        <ele>230</ele>
        <time>2012-09-18T15:06:21Z</time>
      </trkpt>
      <trkpt lat="47.0483" lon="5.61649">
        <ele>230</ele>
        <time>2012-09-18T15:06:23Z</time>
      </trkpt>
      <trkpt lat="47.04834" lon="5.61635">
        <ele>230</ele>
        <time>2012-09-18T15:06:25Z</time>
      </trkpt>
      <trkpt lat="47.04838" lon="5.61621">
        <ele>230</ele>
        <time>2012-09-18T15:06:27Z</time>
      </trkpt>
      <trkpt lat="47.04842" lon="5.61607">
        <ele>230</ele>
        <time>2012-09-18T15:06:29Z</time>
      </trkpt>
      <trkpt lat="47.04845" lon="5.61593">
        <ele>230</ele>
        <time>2012-09-18T15:06:31Z</time>
      </trkpt>
      <trkpt lat="47.04849" lon="5.61577">
        <ele>230</ele>
        <time>2012-09-18T15:06:33Z</time>
      </trkpt>
      <trkpt lat="47.04853" lon="5.61563">
        <ele>230</ele>
        <time>2012-09-18T15:06:35Z</time>
      </trkpt>
      <trkpt lat="47.04857" lon="5.61548">
        <ele>230</ele>
        <time>2012-09-18T15:06:37Z</time>
      </trkpt>
      <trkpt lat="47.04861" lon="5.61532">
        <ele>230</ele>
        <time>2012-09-18T15:06:39Z</time>
      </trkpt>
      <trkpt lat="47.04865" lon="5.61517">
        <ele>230</ele>
        <time>2012-09-18T15:06:41Z</time>
      </trkpt>
      <trkpt lat="47.0487" lon="5.61501">
        <ele>230</ele>
        <time>2012-09-18T15:06:43Z</time>
      </trkpt>
      <trkpt lat="47.04873" lon="5.61485">
        <ele>230</ele>
        <time>2012-09-18T15:06:45Z</time>
      </trkpt>
      <trkpt lat="47.04877" lon="5.61469">
        <ele>230</ele>
        <time>2012-09-18T15:06:47Z</time>
      </trkpt>
      <trkpt lat="47.0488" lon="5.61452">
        <ele>230</ele>
        <time>2012-09-18T15:06:49Z</time>
      </trkpt>
      <trkpt lat="47.04883" lon="5.61436">
        <ele>230</ele>
        <time>2012-09-18T15:06:51Z</time>
      </trkpt>
      <trkpt lat="47.04885" lon="5.61422">
        <ele>230</ele>
        <time>2012-09-18T15:06:53Z</time>
      </trkpt>
      <trkpt lat="47.04888" lon="5.61407">
        <ele>230</ele>
        <time>2012-09-18T15:06:55Z</time>
      </trkpt>
      <trkpt lat="47.04891" lon="5.61391">
        <ele>230</ele>
        <time>2012-09-18T15:06:57Z</time>
      </trkpt>
      <trkpt lat="47.04893" lon="5.61377">
        <ele>230</ele>
        <time>2012-09-18T15:06:59Z</time>
      </trkpt>
      <trkpt lat="47.04896" lon="5.61361">
        <ele>230</ele>
        <time>2012-09-18T15:07:01Z</time>
      </trkpt>
      <trkpt lat="47.04899" lon="5.61344">
        <ele>230</ele>
        <time>2012-09-18T15:07:03Z</time>
      </trkpt>
      <trkpt lat="47.04902" lon="5.61329">
        <ele>230</ele>
        <time>2012-09-18T15:07:05Z</time>
      </trkpt>
      <trkpt lat="47.04905" lon="5.61313">
        <ele>230</ele>
        <time>2012-09-18T15:07:07Z</time>
      </trkpt>
      <trkpt lat="47.04908" lon="5.61296">
        <ele>230</ele>
        <time>2012-09-18T15:07:09Z</time>
      </trkpt>
      <trkpt lat="47.04909" lon="5.61276">
        <ele>230</ele>
        <time>2012-09-18T15:07:11Z</time>
      </trkpt>
      <trkpt lat="47.0491" lon="5.61257">
        <ele>230</ele>
        <time>2012-09-18T15:07:13Z</time>
      </trkpt>
      <trkpt lat="47.04908" lon="5.61237">
        <ele>230</ele>
        <time>2012-09-18T15:07:15Z</time>
      </trkpt>
      <trkpt lat="47.04905" lon="5.61217">
        <ele>230</ele>
        <time>2012-09-18T15:07:17Z</time>
      </trkpt>
      <trkpt lat="47.04905" lon="5.61196">
        <ele>230</ele>
        <time>2012-09-18T15:07:19Z</time>
      </trkpt>
      <trkpt lat="47.04904" lon="5.61174">
        <ele>230</ele>
        <time>2012-09-18T15:07:21Z</time>
      </trkpt>
      <trkpt lat="47.04904" lon="5.61152">
        <ele>230</ele>
        <time>2012-09-18T15:07:23Z</time>
      </trkpt>
      <trkpt lat="47.04904" lon="5.6113">
        <ele>230</ele>
        <time>2012-09-18T15:07:25Z</time>
      </trkpt>
      <trkpt lat="47.04905" lon="5.61109">
        <ele>230</ele>
        <time>2012-09-18T15:07:27Z</time>
      </trkpt>
      <trkpt lat="47.04907" lon="5.61088">
        <ele>230</ele>
        <time>2012-09-18T15:07:29Z</time>
      </trkpt>
      <trkpt lat="47.04908" lon="5.61066">
        <ele>230</ele>
        <time>2012-09-18T15:07:31Z</time>
      </trkpt>
      <trkpt lat="47.0491" lon="5.61046">
        <ele>230</ele>
        <time>2012-09-18T15:07:33Z</time>
      </trkpt>
      <trkpt lat="47.04911" lon="5.61025">
        <ele>230</ele>
        <time>2012-09-18T15:07:35Z</time>
      </trkpt>
      <trkpt lat="47.04913" lon="5.61003">
        <ele>230</ele>
        <time>2012-09-18T15:07:37Z</time>
      </trkpt>
      <trkpt lat="47.04915" lon="5.60982">
        <ele>230</ele>
        <time>2012-09-18T15:07:39Z</time>
      </trkpt>
      <trkpt lat="47.04916" lon="5.60959">
        <ele>230</ele>
        <time>2012-09-18T15:07:41Z</time>
      </trkpt>
      <trkpt lat="47.04915" lon="5.60938">
        <ele>230</ele>
        <time>2012-09-18T15:07:43Z</time>
      </trkpt>
      <trkpt lat="47.04908" lon="5.6092">
        <ele>230</ele>
        <time>2012-09-18T15:07:45Z</time>
      </trkpt>
      <trkpt lat="47.04897" lon="5.60907">
        <ele>230</ele>
        <time>2012-09-18T15:07:47Z</time>
      </trkpt>
      <trkpt lat="47.04883" lon="5.60898">
        <ele>230</ele>
        <time>2012-09-18T15:07:49Z</time>
      </trkpt>
      <trkpt lat="47.04875" lon="5.60892">
        <ele>230</ele>
        <time>2012-09-18T15:07:50Z</time>
      </trkpt>
      <trkpt lat="47.04864" lon="5.60878">
        <ele>230</ele>
        <time>2012-09-18T15:07:52Z</time>
      </trkpt>
      <trkpt lat="47.04867" lon="5.60853">
        <ele>230</ele>
        <time>2012-09-18T15:07:54Z</time>
      </trkpt>
      <trkpt lat="47.04872" lon="5.6084">
        <ele>230</ele>
        <time>2012-09-18T15:07:55Z</time>
      </trkpt>
      <trkpt lat="47.04881" lon="5.60819">
        <ele>230</ele>
        <time>2012-09-18T15:07:57Z</time>
      </trkpt>
      <trkpt lat="47.04889" lon="5.608">
        <ele>230</ele>
        <time>2012-09-18T15:07:59Z</time>
      </trkpt>
      <trkpt lat="47.04897" lon="5.60781">
        <ele>230</ele>
        <time>2012-09-18T15:08:01Z</time>
      </trkpt>
      <trkpt lat="47.04903" lon="5.60763">
        <ele>230</ele>
        <time>2012-09-18T15:08:03Z</time>
      </trkpt>
      <trkpt lat="47.04907" lon="5.60743">
        <ele>230</ele>
        <time>2012-09-18T15:08:05Z</time>
      </trkpt>
      <trkpt lat="47.04911" lon="5.60721">
        <ele>230</ele>
        <time>2012-09-18T15:08:07Z</time>
      </trkpt>
      <trkpt lat="47.04915" lon="5.60701">
        <ele>230</ele>
        <time>2012-09-18T15:08:09Z</time>
      </trkpt>
      <trkpt lat="47.04918" lon="5.60681">
        <ele>230</ele>
        <time>2012-09-18T15:08:11Z</time>
      </trkpt>
      <trkpt lat="47.0492" lon="5.6066">
        <ele>230</ele>
        <time>2012-09-18T15:08:13Z</time>
      </trkpt>
      <trkpt lat="47.04923" lon="5.6064">
        <ele>224</ele>
        <time>2012-09-18T15:08:15Z</time>
      </trkpt>
      <trkpt lat="47.04923" lon="5.60618">
        <ele>224</ele>
        <time>2012-09-18T15:08:17Z</time>
      </trkpt>
      <trkpt lat="47.04924" lon="5.60596">
        <ele>224</ele>
        <time>2012-09-18T15:08:19Z</time>
      </trkpt>
      <trkpt lat="47.04923" lon="5.60575">
        <ele>224</ele>
        <time>2012-09-18T15:08:21Z</time>
      </trkpt>
      <trkpt lat="47.04923" lon="5.60553">
        <ele>224</ele>
        <time>2012-09-18T15:08:23Z</time>
      </trkpt>
      <trkpt lat="47.04922" lon="5.60533">
        <ele>224</ele>
        <time>2012-09-18T15:08:25Z</time>
      </trkpt>
      <trkpt lat="47.04921" lon="5.60511">
        <ele>224</ele>
        <time>2012-09-18T15:08:27Z</time>
      </trkpt>
      <trkpt lat="47.0492" lon="5.60489">
        <ele>224</ele>
        <time>2012-09-18T15:08:29Z</time>
      </trkpt>
      <trkpt lat="47.04919" lon="5.60469">
        <ele>224</ele>
        <time>2012-09-18T15:08:31Z</time>
      </trkpt>
      <trkpt lat="47.04917" lon="5.60448">
        <ele>224</ele>
        <time>2012-09-18T15:08:33Z</time>
      </trkpt>
      <trkpt lat="47.04915" lon="5.60428">
        <ele>224</ele>
        <time>2012-09-18T15:08:35Z</time>
      </trkpt>
      <trkpt lat="47.04913" lon="5.60409">
        <ele>224</ele>
        <time>2012-09-18T15:08:37Z</time>
      </trkpt>
      <trkpt lat="47.04911" lon="5.6039">
        <ele>224</ele>
        <time>2012-09-18T15:08:39Z</time>
      </trkpt>
      <trkpt lat="47.0491" lon="5.6037">
        <ele>224</ele>
        <time>2012-09-18T15:08:41Z</time>
      </trkpt>
      <trkpt lat="47.04908" lon="5.6035">
        <ele>224</ele>
        <time>2012-09-18T15:08:43Z</time>
      </trkpt>
      <trkpt lat="47.04907" lon="5.6033">
        <ele>224</ele>
        <time>2012-09-18T15:08:45Z</time>
      </trkpt>
      <trkpt lat="47.04908" lon="5.60312">
        <ele>224</ele>
        <time>2012-09-18T15:08:47Z</time>
      </trkpt>
      <trkpt lat="47.0491" lon="5.60292">
        <ele>224</ele>
        <time>2012-09-18T15:08:49Z</time>
      </trkpt>
      <trkpt lat="47.04913" lon="5.60273">
        <ele>224</ele>
        <time>2012-09-18T15:08:51Z</time>
      </trkpt>
      <trkpt lat="47.04916" lon="5.60254">
        <ele>224</ele>
        <time>2012-09-18T15:08:53Z</time>
      </trkpt>
      <trkpt lat="47.04919" lon="5.60235">
        <ele>224</ele>
        <time>2012-09-18T15:08:55Z</time>
      </trkpt>
      <trkpt lat="47.04923" lon="5.60217">
        <ele>224</ele>
        <time>2012-09-18T15:08:57Z</time>
      </trkpt>
      <trkpt lat="47.04925" lon="5.60201">
        <ele>224</ele>
        <time>2012-09-18T15:08:59Z</time>
      </trkpt>
      <trkpt lat="47.04929" lon="5.60184">
        <ele>224</ele>
        <time>2012-09-18T15:09:01Z</time>
      </trkpt>
      <trkpt lat="47.04932" lon="5.60166">
        <ele>224</ele>
        <time>2012-09-18T15:09:03Z</time>
      </trkpt>
      <trkpt lat="47.04936" lon="5.60147">
        <ele>224</ele>
        <time>2012-09-18T15:09:05Z</time>
      </trkpt>
      <trkpt lat="47.04942" lon="5.60131">
        <ele>224</ele>
        <time>2012-09-18T15:09:07Z</time>
      </trkpt>
      <trkpt lat="47.04948" lon="5.60114">
        <ele>224</ele>
        <time>2012-09-18T15:09:09Z</time>
      </trkpt>
      <trkpt lat="47.04955" lon="5.60097">
        <ele>230</ele>
        <time>2012-09-18T15:09:11Z</time>
      </trkpt>
      <trkpt lat="47.04963" lon="5.60082">
        <ele>230</ele>
        <time>2012-09-18T15:09:13Z</time>
      </trkpt>
      <trkpt lat="47.04971" lon="5.60065">
        <ele>230</ele>
        <time>2012-09-18T15:09:15Z</time>
      </trkpt>
      <trkpt lat="47.04978" lon="5.60049">
        <ele>230</ele>
        <time>2012-09-18T15:09:17Z</time>
      </trkpt>
      <trkpt lat="47.04986" lon="5.60033">
        <ele>230</ele>
        <time>2012-09-18T15:09:19Z</time>
      </trkpt>
      <trkpt lat="47.04995" lon="5.60019">
        <ele>230</ele>
        <time>2012-09-18T15:09:21Z</time>
      </trkpt>
      <trkpt lat="47.05004" lon="5.60003">
        <ele>230</ele>
        <time>2012-09-18T15:09:23Z</time>
      </trkpt>
      <trkpt lat="47.05011" lon="5.59986">
        <ele>230</ele>
        <time>2012-09-18T15:09:25Z</time>
      </trkpt>
      <trkpt lat="47.05019" lon="5.5997">
        <ele>230</ele>
        <time>2012-09-18T15:09:27Z</time>
      </trkpt>
      <trkpt lat="47.05027" lon="5.59954">
        <ele>230</ele>
        <time>2012-09-18T15:09:29Z</time>
      </trkpt>
      <trkpt lat="47.05035" lon="5.59939">
        <ele>230</ele>
        <time>2012-09-18T15:09:31Z</time>
      </trkpt>
      <trkpt lat="47.05044" lon="5.59922">
        <ele>230</ele>
        <time>2012-09-18T15:09:33Z</time>
      </trkpt>
      <trkpt lat="47.05053" lon="5.59905">
        <ele>230</ele>
        <time>2012-09-18T15:09:35Z</time>
      </trkpt>
      <trkpt lat="47.05063" lon="5.59888">
        <ele>230</ele>
        <time>2012-09-18T15:09:37Z</time>
      </trkpt>
      <trkpt lat="47.05072" lon="5.59871">
        <ele>230</ele>
        <time>2012-09-18T15:09:39Z</time>
      </trkpt>
      <trkpt lat="47.05082" lon="5.59854">
        <ele>230</ele>
        <time>2012-09-18T15:09:41Z</time>
      </trkpt>
      <trkpt lat="47.05091" lon="5.59836">
        <ele>230</ele>
        <time>2012-09-18T15:09:43Z</time>
      </trkpt>
      <trkpt lat="47.05102" lon="5.59818">
        <ele>230</ele>
        <time>2012-09-18T15:09:45Z</time>
      </trkpt>
      <trkpt lat="47.05113" lon="5.59801">
        <ele>230</ele>
        <time>2012-09-18T15:09:47Z</time>
      </trkpt>
      <trkpt lat="47.05123" lon="5.59784">
        <ele>230</ele>
        <time>2012-09-18T15:09:49Z</time>
      </trkpt>
      <trkpt lat="47.05134" lon="5.59765">
        <ele>230</ele>
        <time>2012-09-18T15:09:51Z</time>
      </trkpt>
      <trkpt lat="47.05144" lon="5.59747">
        <ele>230</ele>
        <time>2012-09-18T15:09:53Z</time>
      </trkpt>
      <trkpt lat="47.05152" lon="5.59728">
        <ele>230</ele>
        <time>2012-09-18T15:09:55Z</time>
      </trkpt>
      <trkpt lat="47.05158" lon="5.59709">
        <ele>230</ele>
        <time>2012-09-18T15:09:57Z</time>
      </trkpt>
      <trkpt lat="47.05163" lon="5.59689">
        <ele>230</ele>
        <time>2012-09-18T15:09:59Z</time>
      </trkpt>
      <trkpt lat="47.05168" lon="5.59671">
        <ele>230</ele>
        <time>2012-09-18T15:10:01Z</time>
      </trkpt>
      <trkpt lat="47.05173" lon="5.59654">
        <ele>230</ele>
        <time>2012-09-18T15:10:03Z</time>
      </trkpt>
      <trkpt lat="47.05178" lon="5.59639">
        <ele>230</ele>
        <time>2012-09-18T15:10:05Z</time>
      </trkpt>
      <trkpt lat="47.05182" lon="5.59622">
        <ele>230</ele>
        <time>2012-09-18T15:10:07Z</time>
      </trkpt>
      <trkpt lat="47.05186" lon="5.59606">
        <ele>230</ele>
        <time>2012-09-18T15:10:09Z</time>
      </trkpt>
      <trkpt lat="47.05191" lon="5.59589">
        <ele>230</ele>
        <time>2012-09-18T15:10:11Z</time>
      </trkpt>
      <trkpt lat="47.05195" lon="5.59571">
        <ele>230</ele>
        <time>2012-09-18T15:10:13Z</time>
      </trkpt>
      <trkpt lat="47.05201" lon="5.59556">
        <ele>230</ele>
        <time>2012-09-18T15:10:15Z</time>
      </trkpt>
      <trkpt lat="47.05205" lon="5.5954">
        <ele>230</ele>
        <time>2012-09-18T15:10:17Z</time>
      </trkpt>
      <trkpt lat="47.05209" lon="5.59523">
        <ele>230</ele>
        <time>2012-09-18T15:10:19Z</time>
      </trkpt>
      <trkpt lat="47.05213" lon="5.59505">
        <ele>230</ele>
        <time>2012-09-18T15:10:21Z</time>
      </trkpt>
      <trkpt lat="47.05217" lon="5.59486">
        <ele>230</ele>
        <time>2012-09-18T15:10:23Z</time>
      </trkpt>
      <trkpt lat="47.05222" lon="5.59469">
        <ele>230</ele>
        <time>2012-09-18T15:10:25Z</time>
      </trkpt>
      <trkpt lat="47.05228" lon="5.59455">
        <ele>230</ele>
        <time>2012-09-18T15:10:27Z</time>
      </trkpt>
      <trkpt lat="47.05233" lon="5.59438">
        <ele>230</ele>
        <time>2012-09-18T15:10:29Z</time>
      </trkpt>
      <trkpt lat="47.05239" lon="5.59422">
        <ele>230</ele>
        <time>2012-09-18T15:10:31Z</time>
      </trkpt>
      <trkpt lat="47.05245" lon="5.59405">
        <ele>230</ele>
        <time>2012-09-18T15:10:33Z</time>
      </trkpt>
      <trkpt lat="47.0525" lon="5.59386">
        <ele>230</ele>
        <time>2012-09-18T15:10:35Z</time>
      </trkpt>
      <trkpt lat="47.05257" lon="5.59369">
        <ele>230</ele>
        <time>2012-09-18T15:10:37Z</time>
      </trkpt>
      <trkpt lat="47.05263" lon="5.59352">
        <ele>230</ele>
        <time>2012-09-18T15:10:39Z</time>
      </trkpt>
      <trkpt lat="47.05269" lon="5.59334">
        <ele>230</ele>
        <time>2012-09-18T15:10:41Z</time>
      </trkpt>
      <trkpt lat="47.05274" lon="5.59315">
        <ele>230</ele>
        <time>2012-09-18T15:10:43Z</time>
      </trkpt>
      <trkpt lat="47.05277" lon="5.59297">
        <ele>230</ele>
        <time>2012-09-18T15:10:45Z</time>
      </trkpt>
      <trkpt lat="47.05277" lon="5.59277">
        <ele>230</ele>
        <time>2012-09-18T15:10:47Z</time>
      </trkpt>
      <trkpt lat="47.05276" lon="5.59256">
        <ele>230</ele>
        <time>2012-09-18T15:10:49Z</time>
      </trkpt>
      <trkpt lat="47.05274" lon="5.59234">
        <ele>230</ele>
        <time>2012-09-18T15:10:51Z</time>
      </trkpt>
      <trkpt lat="47.05273" lon="5.59212">
        <ele>230</ele>
        <time>2012-09-18T15:10:53Z</time>
      </trkpt>
      <trkpt lat="47.0527" lon="5.59191">
        <ele>230</ele>
        <time>2012-09-18T15:10:55Z</time>
      </trkpt>
      <trkpt lat="47.05266" lon="5.59168">
        <ele>230</ele>
        <time>2012-09-18T15:10:57Z</time>
      </trkpt>
      <trkpt lat="47.05263" lon="5.59146">
        <ele>230</ele>
        <time>2012-09-18T15:10:59Z</time>
      </trkpt>
      <trkpt lat="47.05259" lon="5.59122">
        <ele>230</ele>
        <time>2012-09-18T15:11:01Z</time>
      </trkpt>
      <trkpt lat="47.05255" lon="5.591">
        <ele>230</ele>
        <time>2012-09-18T15:11:03Z</time>
      </trkpt>
      <trkpt lat="47.0525" lon="5.59076">
        <ele>230</ele>
        <time>2012-09-18T15:11:05Z</time>
      </trkpt>
      <trkpt lat="47.05246" lon="5.59052">
        <ele>230</ele>
        <time>2012-09-18T15:11:07Z</time>
      </trkpt>
      <trkpt lat="47.05243" lon="5.59028">
        <ele>230</ele>
        <time>2012-09-18T15:11:09Z</time>
      </trkpt>
      <trkpt lat="47.05239" lon="5.59004">
        <ele>230</ele>
        <time>2012-09-18T15:11:11Z</time>
      </trkpt>
      <trkpt lat="47.05234" lon="5.5898">
        <ele>224</ele>
        <time>2012-09-18T15:11:13Z</time>
      </trkpt>
      <trkpt lat="47.05229" lon="5.58959">
        <ele>224</ele>
        <time>2012-09-18T15:11:15Z</time>
      </trkpt>
      <trkpt lat="47.05223" lon="5.58938">
        <ele>224</ele>
        <time>2012-09-18T15:11:17Z</time>
      </trkpt>
      <trkpt lat="47.05218" lon="5.58918">
        <ele>224</ele>
        <time>2012-09-18T15:11:19Z</time>
      </trkpt>
      <trkpt lat="47.05214" lon="5.58899">
        <ele>224</ele>
        <time>2012-09-18T15:11:21Z</time>
      </trkpt>
      <trkpt lat="47.05215" lon="5.58879">
        <ele>224</ele>
        <time>2012-09-18T15:11:23Z</time>
      </trkpt>
      <trkpt lat="47.05223" lon="5.58867">
        <ele>224</ele>
        <time>2012-09-18T15:11:25Z</time>
      </trkpt>
      <trkpt lat="47.05236" lon="5.58859">
        <ele>224</ele>
        <time>2012-09-18T15:11:28Z</time>
      </trkpt>
      <trkpt lat="47.05244" lon="5.58855">
        <ele>224</ele>
        <time>2012-09-18T15:11:30Z</time>
      </trkpt>
      <trkpt lat="47.05253" lon="5.5885">
        <ele>224</ele>
        <time>2012-09-18T15:11:32Z</time>
      </trkpt>
      <trkpt lat="47.05265" lon="5.58845">
        <ele>224</ele>
        <time>2012-09-18T15:11:35Z</time>
      </trkpt>
      <trkpt lat="47.05276" lon="5.58837">
        <ele>230</ele>
        <time>2012-09-18T15:11:38Z</time>
      </trkpt>
      <trkpt lat="47.05285" lon="5.58829">
        <ele>230</ele>
        <time>2012-09-18T15:11:41Z</time>
      </trkpt>
      <trkpt lat="47.05296" lon="5.58824">
        <ele>230</ele>
        <time>2012-09-18T15:11:44Z</time>
      </trkpt>
      <trkpt lat="47.05307" lon="5.58818">
        <ele>235</ele>
        <time>2012-09-18T15:11:47Z</time>
      </trkpt>
      <trkpt lat="47.05319" lon="5.58811">
        <ele>235</ele>
        <time>2012-09-18T15:11:50Z</time>
      </trkpt>
      <trkpt lat="47.05328" lon="5.58807">
        <ele>235</ele>
        <time>2012-09-18T15:11:52Z</time>
      </trkpt>
      <trkpt lat="47.0534" lon="5.58801">
        <ele>235</ele>
        <time>2012-09-18T15:11:55Z</time>
      </trkpt>
      <trkpt lat="47.05352" lon="5.58793">
        <ele>235</ele>
        <time>2012-09-18T15:11:58Z</time>
      </trkpt>
      <trkpt lat="47.05361" lon="5.58788">
        <ele>235</ele>
        <time>2012-09-18T15:12:00Z</time>
      </trkpt>
      <trkpt lat="47.0537" lon="5.58783">
        <ele>235</ele>
        <time>2012-09-18T15:12:02Z</time>
      </trkpt>
      <trkpt lat="47.0538" lon="5.58778">
        <ele>235</ele>
        <time>2012-09-18T15:12:04Z</time>
      </trkpt>
      <trkpt lat="47.0539" lon="5.58774">
        <ele>235</ele>
        <time>2012-09-18T15:12:06Z</time>
      </trkpt>
      <trkpt lat="47.054" lon="5.58767">
        <ele>235</ele>
        <time>2012-09-18T15:12:08Z</time>
      </trkpt>
      <trkpt lat="47.05409" lon="5.58762">
        <ele>235</ele>
        <time>2012-09-18T15:12:10Z</time>
      </trkpt>
      <trkpt lat="47.05418" lon="5.58756">
        <ele>235</ele>
        <time>2012-09-18T15:12:12Z</time>
      </trkpt>
      <trkpt lat="47.05428" lon="5.58751">
        <ele>235</ele>
        <time>2012-09-18T15:12:14Z</time>
      </trkpt>
      <trkpt lat="47.05438" lon="5.58747">
        <ele>235</ele>
        <time>2012-09-18T15:12:16Z</time>
      </trkpt>
      <trkpt lat="47.05449" lon="5.58741">
        <ele>235</ele>
        <time>2012-09-18T15:12:18Z</time>
      </trkpt>
      <trkpt lat="47.05459" lon="5.58736">
        <ele>235</ele>
        <time>2012-09-18T15:12:20Z</time>
      </trkpt>
      <trkpt lat="47.05469" lon="5.5873">
        <ele>235</ele>
        <time>2012-09-18T15:12:22Z</time>
      </trkpt>
      <trkpt lat="47.05479" lon="5.58724">
        <ele>235</ele>
        <time>2012-09-18T15:12:24Z</time>
      </trkpt>
      <trkpt lat="47.0549" lon="5.58719">
        <ele>235</ele>
        <time>2012-09-18T15:12:26Z</time>
      </trkpt>
      <trkpt lat="47.055" lon="5.58714">
        <ele>235</ele>
        <time>2012-09-18T15:12:28Z</time>
      </trkpt>
      <trkpt lat="47.05511" lon="5.58708">
        <ele>235</ele>
        <time>2012-09-18T15:12:30Z</time>
      </trkpt>
      <trkpt lat="47.05522" lon="5.58704">
        <ele>235</ele>
        <time>2012-09-18T15:12:32Z</time>
      </trkpt>
      <trkpt lat="47.05533" lon="5.58697">
        <ele>241</ele>
        <time>2012-09-18T15:12:34Z</time>
      </trkpt>
      <trkpt lat="47.05543" lon="5.58692">
        <ele>241</ele>
        <time>2012-09-18T15:12:36Z</time>
      </trkpt>
      <trkpt lat="47.05554" lon="5.58687">
        <ele>241</ele>
        <time>2012-09-18T15:12:38Z</time>
      </trkpt>
      <trkpt lat="47.05564" lon="5.58681">
        <ele>241</ele>
        <time>2012-09-18T15:12:40Z</time>
      </trkpt>
      <trkpt lat="47.05573" lon="5.58674">
        <ele>241</ele>
        <time>2012-09-18T15:12:42Z</time>
      </trkpt>
      <trkpt lat="47.05583" lon="5.5867">
        <ele>241</ele>
        <time>2012-09-18T15:12:44Z</time>
      </trkpt>
      <trkpt lat="47.05593" lon="5.58666">
        <ele>241</ele>
        <time>2012-09-18T15:12:46Z</time>
      </trkpt>
      <trkpt lat="47.05602" lon="5.58661">
        <ele>241</ele>
        <time>2012-09-18T15:12:48Z</time>
      </trkpt>
      <trkpt lat="47.05611" lon="5.58656">
        <ele>241</ele>
        <time>2012-09-18T15:12:50Z</time>
      </trkpt>
      <trkpt lat="47.05621" lon="5.58652">
        <ele>241</ele>
        <time>2012-09-18T15:12:52Z</time>
      </trkpt>
      <trkpt lat="47.0563" lon="5.58646">
        <ele>246</ele>
        <time>2012-09-18T15:12:54Z</time>
      </trkpt>
      <trkpt lat="47.05642" lon="5.58638">
        <ele>246</ele>
        <time>2012-09-18T15:12:57Z</time>
      </trkpt>
      <trkpt lat="47.05651" lon="5.58634">
        <ele>246</ele>
        <time>2012-09-18T15:12:59Z</time>
      </trkpt>
      <trkpt lat="47.05661" lon="5.58627">
        <ele>246</ele>
        <time>2012-09-18T15:13:01Z</time>
      </trkpt>
      <trkpt lat="47.0567" lon="5.58622">
        <ele>246</ele>
        <time>2012-09-18T15:13:03Z</time>
      </trkpt>
      <trkpt lat="47.0568" lon="5.58616">
        <ele>246</ele>
        <time>2012-09-18T15:13:05Z</time>
      </trkpt>
      <trkpt lat="47.0569" lon="5.58611">
        <ele>246</ele>
        <time>2012-09-18T15:13:07Z</time>
      </trkpt>
      <trkpt lat="47.057" lon="5.58606">
        <ele>246</ele>
        <time>2012-09-18T15:13:09Z</time>
      </trkpt>
      <trkpt lat="47.0571" lon="5.586">
        <ele>246</ele>
        <time>2012-09-18T15:13:11Z</time>
      </trkpt>
      <trkpt lat="47.0572" lon="5.58595">
        <ele>246</ele>
        <time>2012-09-18T15:13:13Z</time>
      </trkpt>
      <trkpt lat="47.0573" lon="5.5859">
        <ele>246</ele>
        <time>2012-09-18T15:13:15Z</time>
      </trkpt>
      <trkpt lat="47.0574" lon="5.58584">
        <ele>246</ele>
        <time>2012-09-18T15:13:17Z</time>
      </trkpt>
      <trkpt lat="47.0575" lon="5.58579">
        <ele>246</ele>
        <time>2012-09-18T15:13:19Z</time>
      </trkpt>
      <trkpt lat="47.05761" lon="5.58573">
        <ele>246</ele>
        <time>2012-09-18T15:13:21Z</time>
      </trkpt>
      <trkpt lat="47.0577" lon="5.58567">
        <ele>246</ele>
        <time>2012-09-18T15:13:23Z</time>
      </trkpt>
      <trkpt lat="47.05781" lon="5.58562">
        <ele>246</ele>
        <time>2012-09-18T15:13:25Z</time>
      </trkpt>
      <trkpt lat="47.05791" lon="5.58556">
        <ele>246</ele>
        <time>2012-09-18T15:13:27Z</time>
      </trkpt>
      <trkpt lat="47.05801" lon="5.58549">
        <ele>246</ele>
        <time>2012-09-18T15:13:29Z</time>
      </trkpt>
      <trkpt lat="47.05812" lon="5.58543">
        <ele>246</ele>
        <time>2012-09-18T15:13:31Z</time>
      </trkpt>
      <trkpt lat="47.05823" lon="5.58537">
        <ele>246</ele>
        <time>2012-09-18T15:13:33Z</time>
      </trkpt>
      <trkpt lat="47.05833" lon="5.5853">
        <ele>252</ele>
        <time>2012-09-18T15:13:35Z</time>
      </trkpt>
      <trkpt lat="47.05845" lon="5.58526">
        <ele>252</ele>
        <time>2012-09-18T15:13:37Z</time>
      </trkpt>
      <trkpt lat="47.05855" lon="5.58519">
        <ele>252</ele>
        <time>2012-09-18T15:13:39Z</time>
      </trkpt>
      <trkpt lat="47.05866" lon="5.58512">
        <ele>252</ele>
        <time>2012-09-18T15:13:41Z</time>
      </trkpt>
      <trkpt lat="47.05877" lon="5.58507">
        <ele>252</ele>
        <time>2012-09-18T15:13:43Z</time>
      </trkpt>
      <trkpt lat="47.05888" lon="5.58501">
        <ele>252</ele>
        <time>2012-09-18T15:13:45Z</time>
      </trkpt>
      <trkpt lat="47.05899" lon="5.58494">
        <ele>252</ele>
        <time>2012-09-18T15:13:47Z</time>
      </trkpt>
      <trkpt lat="47.05909" lon="5.58487">
        <ele>258</ele>
        <time>2012-09-18T15:13:49Z</time>
      </trkpt>
      <trkpt lat="47.0592" lon="5.58482">
        <ele>258</ele>
        <time>2012-09-18T15:13:51Z</time>
      </trkpt>
      <trkpt lat="47.05931" lon="5.58476">
        <ele>258</ele>
        <time>2012-09-18T15:13:53Z</time>
      </trkpt>
      <trkpt lat="47.0594" lon="5.5847">
        <ele>258</ele>
        <time>2012-09-18T15:13:55Z</time>
      </trkpt>
      <trkpt lat="47.05952" lon="5.58465">
        <ele>258</ele>
        <time>2012-09-18T15:13:57Z</time>
      </trkpt>
      <trkpt lat="47.05961" lon="5.58458">
        <ele>258</ele>
        <time>2012-09-18T15:13:59Z</time>
      </trkpt>
      <trkpt lat="47.05972" lon="5.58453">
        <ele>258</ele>
        <time>2012-09-18T15:14:01Z</time>
      </trkpt>
      <trkpt lat="47.05982" lon="5.58448">
        <ele>258</ele>
        <time>2012-09-18T15:14:03Z</time>
      </trkpt>
      <trkpt lat="47.05991" lon="5.58442">
        <ele>258</ele>
        <time>2012-09-18T15:14:05Z</time>
      </trkpt>
      <trkpt lat="47.06" lon="5.58436">
        <ele>258</ele>
        <time>2012-09-18T15:14:07Z</time>
      </trkpt>
      <trkpt lat="47.0601" lon="5.5843">
        <ele>258</ele>
        <time>2012-09-18T15:14:09Z</time>
      </trkpt>
      <trkpt lat="47.0602" lon="5.58423">
        <ele>258</ele>
        <time>2012-09-18T15:14:11Z</time>
      </trkpt>
      <trkpt lat="47.06031" lon="5.5842">
        <ele>258</ele>
        <time>2012-09-18T15:14:13Z</time>
      </trkpt>
      <trkpt lat="47.06041" lon="5.58413">
        <ele>258</ele>
        <time>2012-09-18T15:14:15Z</time>
      </trkpt>
      <trkpt lat="47.0605" lon="5.5841">
        <ele>258</ele>
        <time>2012-09-18T15:14:17Z</time>
      </trkpt>
      <trkpt lat="47.06062" lon="5.58403">
        <ele>258</ele>
        <time>2012-09-18T15:14:20Z</time>
      </trkpt>
      <trkpt lat="47.06072" lon="5.58399">
        <ele>258</ele>
        <time>2012-09-18T15:14:25Z</time>
      </trkpt>
      <trkpt lat="47.0608" lon="5.58405">
        <ele>246</ele>
        <time>2012-09-18T15:15:23Z</time>
      </trkpt>
      <trkpt lat="47.06088" lon="5.58397">
        <ele>246</ele>
        <time>2012-09-18T15:19:57Z</time>
      </trkpt>
      <trkpt lat="47.06097" lon="5.58393">
        <ele>246</ele>
        <time>2012-09-18T15:20:01Z</time>
      </trkpt>
      <trkpt lat="47.06107" lon="5.58389">
        <ele>246</ele>
        <time>2012-09-18T15:20:06Z</time>
      </trkpt>
      <trkpt lat="47.06115" lon="5.58383">
        <ele>246</ele>
        <time>2012-09-18T15:20:19Z</time>
      </trkpt>
      <trkpt lat="47.06125" lon="5.58375">
        <ele>246</ele>
        <time>2012-09-18T15:20:42Z</time>
      </trkpt>
      <trkpt lat="47.06134" lon="5.58371">
        <ele>246</ele>
        <time>2012-09-18T15:20:45Z</time>
      </trkpt>
      <trkpt lat="47.06145" lon="5.58364">
        <ele>246</ele>
        <time>2012-09-18T15:20:48Z</time>
      </trkpt>
      <trkpt lat="47.06157" lon="5.58358">
        <ele>246</ele>
        <time>2012-09-18T15:20:51Z</time>
      </trkpt>
      <trkpt lat="47.06165" lon="5.58352">
        <ele>246</ele>
        <time>2012-09-18T15:20:53Z</time>
      </trkpt>
      <trkpt lat="47.06175" lon="5.58346">
        <ele>252</ele>
        <time>2012-09-18T15:20:55Z</time>
      </trkpt>
      <trkpt lat="47.06185" lon="5.58339">
        <ele>252</ele>
        <time>2012-09-18T15:20:57Z</time>
      </trkpt>
      <trkpt lat="47.06195" lon="5.58334">
        <ele>252</ele>
        <time>2012-09-18T15:20:59Z</time>
      </trkpt>
      <trkpt lat="47.06204" lon="5.58326">
        <ele>252</ele>
        <time>2012-09-18T15:21:01Z</time>
      </trkpt>
      <trkpt lat="47.06214" lon="5.58321">
        <ele>252</ele>
        <time>2012-09-18T15:21:03Z</time>
      </trkpt>
      <trkpt lat="47.06225" lon="5.58315">
        <ele>252</ele>
        <time>2012-09-18T15:21:05Z</time>
      </trkpt>
      <trkpt lat="47.06237" lon="5.58308">
        <ele>252</ele>
        <time>2012-09-18T15:21:07Z</time>
      </trkpt>
      <trkpt lat="47.06249" lon="5.58302">
        <ele>252</ele>
        <time>2012-09-18T15:21:09Z</time>
      </trkpt>
      <trkpt lat="47.0626" lon="5.58296">
        <ele>252</ele>
        <time>2012-09-18T15:21:11Z</time>
      </trkpt>
      <trkpt lat="47.06271" lon="5.58289">
        <ele>252</ele>
        <time>2012-09-18T15:21:13Z</time>
      </trkpt>
      <trkpt lat="47.06282" lon="5.58283">
        <ele>252</ele>
        <time>2012-09-18T15:21:15Z</time>
      </trkpt>
      <trkpt lat="47.06293" lon="5.58277">
        <ele>252</ele>
        <time>2012-09-18T15:21:17Z</time>
      </trkpt>
      <trkpt lat="47.06303" lon="5.58271">
        <ele>252</ele>
        <time>2012-09-18T15:21:19Z</time>
      </trkpt>
      <trkpt lat="47.06314" lon="5.58265">
        <ele>252</ele>
        <time>2012-09-18T15:21:21Z</time>
      </trkpt>
      <trkpt lat="47.06325" lon="5.58261">
        <ele>252</ele>
        <time>2012-09-18T15:21:23Z</time>
      </trkpt>
      <trkpt lat="47.06335" lon="5.58255">
        <ele>252</ele>
        <time>2012-09-18T15:21:25Z</time>
      </trkpt>
      <trkpt lat="47.06346" lon="5.5825">
        <ele>252</ele>
        <time>2012-09-18T15:21:27Z</time>
      </trkpt>
      <trkpt lat="47.06357" lon="5.58245">
        <ele>252</ele>
        <time>2012-09-18T15:21:29Z</time>
      </trkpt>
      <trkpt lat="47.06367" lon="5.58239">
        <ele>252</ele>
        <time>2012-09-18T15:21:31Z</time>
      </trkpt>
      <trkpt lat="47.06378" lon="5.58233">
        <ele>252</ele>
        <time>2012-09-18T15:21:33Z</time>
      </trkpt>
      <trkpt lat="47.06388" lon="5.58228">
        <ele>252</ele>
        <time>2012-09-18T15:21:35Z</time>
      </trkpt>
      <trkpt lat="47.06399" lon="5.58221">
        <ele>257</ele>
        <time>2012-09-18T15:21:37Z</time>
      </trkpt>
      <trkpt lat="47.0641" lon="5.58216">
        <ele>257</ele>
        <time>2012-09-18T15:21:39Z</time>
      </trkpt>
      <trkpt lat="47.06421" lon="5.5821">
        <ele>257</ele>
        <time>2012-09-18T15:21:41Z</time>
      </trkpt>
      <trkpt lat="47.06432" lon="5.58205">
        <ele>257</ele>
        <time>2012-09-18T15:21:43Z</time>
      </trkpt>
      <trkpt lat="47.06443" lon="5.58199">
        <ele>257</ele>
        <time>2012-09-18T15:21:45Z</time>
      </trkpt>
      <trkpt lat="47.06455" lon="5.58193">
        <ele>257</ele>
        <time>2012-09-18T15:21:47Z</time>
      </trkpt>
      <trkpt lat="47.06468" lon="5.58186">
        <ele>257</ele>
        <time>2012-09-18T15:21:49Z</time>
      </trkpt>
      <trkpt lat="47.06481" lon="5.5818">
        <ele>257</ele>
        <time>2012-09-18T15:21:51Z</time>
      </trkpt>
      <trkpt lat="47.06494" lon="5.58173">
        <ele>257</ele>
        <time>2012-09-18T15:21:53Z</time>
      </trkpt>
      <trkpt lat="47.06506" lon="5.58166">
        <ele>257</ele>
        <time>2012-09-18T15:21:55Z</time>
      </trkpt>
      <trkpt lat="47.06521" lon="5.58157">
        <ele>257</ele>
        <time>2012-09-18T15:21:57Z</time>
      </trkpt>
      <trkpt lat="47.06535" lon="5.58151">
        <ele>257</ele>
        <time>2012-09-18T15:21:59Z</time>
      </trkpt>
      <trkpt lat="47.0655" lon="5.58145">
        <ele>257</ele>
        <time>2012-09-18T15:22:01Z</time>
      </trkpt>
      <trkpt lat="47.06566" lon="5.58138">
        <ele>257</ele>
        <time>2012-09-18T15:22:03Z</time>
      </trkpt>
      <trkpt lat="47.06581" lon="5.58128">
        <ele>257</ele>
        <time>2012-09-18T15:22:05Z</time>
      </trkpt>
      <trkpt lat="47.06596" lon="5.58119">
        <ele>257</ele>
        <time>2012-09-18T15:22:07Z</time>
      </trkpt>
      <trkpt lat="47.06611" lon="5.58112">
        <ele>257</ele>
        <time>2012-09-18T15:22:09Z</time>
      </trkpt>
      <trkpt lat="47.06626" lon="5.58103">
        <ele>257</ele>
        <time>2012-09-18T15:22:11Z</time>
      </trkpt>
      <trkpt lat="47.06641" lon="5.58095">
        <ele>257</ele>
        <time>2012-09-18T15:22:13Z</time>
      </trkpt>
      <trkpt lat="47.06655" lon="5.58086">
        <ele>257</ele>
        <time>2012-09-18T15:22:15Z</time>
      </trkpt>
      <trkpt lat="47.06669" lon="5.58079">
        <ele>257</ele>
        <time>2012-09-18T15:22:17Z</time>
      </trkpt>
      <trkpt lat="47.06683" lon="5.58071">
        <ele>257</ele>
        <time>2012-09-18T15:22:19Z</time>
      </trkpt>
      <trkpt lat="47.06694" lon="5.58063">
        <ele>257</ele>
        <time>2012-09-18T15:22:21Z</time>
      </trkpt>
      <trkpt lat="47.06707" lon="5.58056">
        <ele>263</ele>
        <time>2012-09-18T15:22:23Z</time>
      </trkpt>
      <trkpt lat="47.06719" lon="5.58051">
        <ele>263</ele>
        <time>2012-09-18T15:22:25Z</time>
      </trkpt>
      <trkpt lat="47.0673" lon="5.58045">
        <ele>263</ele>
        <time>2012-09-18T15:22:27Z</time>
      </trkpt>
      <trkpt lat="47.0674" lon="5.5804">
        <ele>263</ele>
        <time>2012-09-18T15:22:29Z</time>
      </trkpt>
      <trkpt lat="47.06748" lon="5.58034">
        <ele>263</ele>
        <time>2012-09-18T15:22:31Z</time>
      </trkpt>
      <trkpt lat="47.06759" lon="5.58025">
        <ele>263</ele>
        <time>2012-09-18T15:22:34Z</time>
      </trkpt>
      <trkpt lat="47.06767" lon="5.58022">
        <ele>269</ele>
        <time>2012-09-18T15:22:36Z</time>
      </trkpt>
      <trkpt lat="47.06779" lon="5.58013">
        <ele>269</ele>
        <time>2012-09-18T15:22:39Z</time>
      </trkpt>
      <trkpt lat="47.06788" lon="5.58008">
        <ele>269</ele>
        <time>2012-09-18T15:22:41Z</time>
      </trkpt>
      <trkpt lat="47.068" lon="5.58001">
        <ele>269</ele>
        <time>2012-09-18T15:22:44Z</time>
      </trkpt>
      <trkpt lat="47.06811" lon="5.57994">
        <ele>276</ele>
        <time>2012-09-18T15:22:47Z</time>
      </trkpt>
      <trkpt lat="47.06825" lon="5.5799">
        <ele>276</ele>
        <time>2012-09-18T15:22:50Z</time>
      </trkpt>
      <trkpt lat="47.06834" lon="5.57988">
        <ele>276</ele>
        <time>2012-09-18T15:22:52Z</time>
      </trkpt>
      <trkpt lat="47.06843" lon="5.57982">
        <ele>276</ele>
        <time>2012-09-18T15:22:54Z</time>
      </trkpt>
      <trkpt lat="47.06856" lon="5.57975">
        <ele>276</ele>
        <time>2012-09-18T15:22:57Z</time>
      </trkpt>
      <trkpt lat="47.06868" lon="5.5797">
        <ele>276</ele>
        <time>2012-09-18T15:23:00Z</time>
      </trkpt>
      <trkpt lat="47.06879" lon="5.57963">
        <ele>276</ele>
        <time>2012-09-18T15:23:03Z</time>
      </trkpt>
      <trkpt lat="47.06889" lon="5.57956">
        <ele>282</ele>
        <time>2012-09-18T15:23:06Z</time>
      </trkpt>
      <trkpt lat="47.06902" lon="5.57952">
        <ele>282</ele>
        <time>2012-09-18T15:23:09Z</time>
      </trkpt>
      <trkpt lat="47.06914" lon="5.57947">
        <ele>282</ele>
        <time>2012-09-18T15:23:12Z</time>
      </trkpt>
      <trkpt lat="47.06926" lon="5.57941">
        <ele>282</ele>
        <time>2012-09-18T15:23:15Z</time>
      </trkpt>
      <trkpt lat="47.06938" lon="5.57934">
        <ele>282</ele>
        <time>2012-09-18T15:23:18Z</time>
      </trkpt>
      <trkpt lat="47.06947" lon="5.57929">
        <ele>282</ele>
        <time>2012-09-18T15:23:20Z</time>
      </trkpt>
      <trkpt lat="47.06956" lon="5.57926">
        <ele>282</ele>
        <time>2012-09-18T15:23:22Z</time>
      </trkpt>
      <trkpt lat="47.06964" lon="5.57921">
        <ele>276</ele>
        <time>2012-09-18T15:23:24Z</time>
      </trkpt>
      <trkpt lat="47.06974" lon="5.57917">
        <ele>276</ele>
        <time>2012-09-18T15:23:26Z</time>
      </trkpt>
      <trkpt lat="47.06983" lon="5.57913">
        <ele>276</ele>
        <time>2012-09-18T15:23:28Z</time>
      </trkpt>
      <trkpt lat="47.06991" lon="5.57908">
        <ele>276</ele>
        <time>2012-09-18T15:23:30Z</time>
      </trkpt>
      <trkpt lat="47.07" lon="5.57903">
        <ele>276</ele>
        <time>2012-09-18T15:23:32Z</time>
      </trkpt>
      <trkpt lat="47.07009" lon="5.57897">
        <ele>276</ele>
        <time>2012-09-18T15:23:34Z</time>
      </trkpt>
      <trkpt lat="47.07021" lon="5.57892">
        <ele>276</ele>
        <time>2012-09-18T15:23:36Z</time>
      </trkpt>
      <trkpt lat="47.07034" lon="5.57884">
        <ele>276</ele>
        <time>2012-09-18T15:23:38Z</time>
      </trkpt>
      <trkpt lat="47.07048" lon="5.57876">
        <ele>276</ele>
        <time>2012-09-18T15:23:40Z</time>
      </trkpt>
      <trkpt lat="47.07063" lon="5.57868">
        <ele>276</ele>
        <time>2012-09-18T15:23:42Z</time>
      </trkpt>
      <trkpt lat="47.07079" lon="5.57859">
        <ele>270</ele>
        <time>2012-09-18T15:23:44Z</time>
      </trkpt>
      <trkpt lat="47.07088" lon="5.57854">
        <ele>270</ele>
        <time>2012-09-18T15:23:45Z</time>
      </trkpt>
      <trkpt lat="47.07104" lon="5.57845">
        <ele>270</ele>
        <time>2012-09-18T15:23:47Z</time>
      </trkpt>
      <trkpt lat="47.07113" lon="5.5784">
        <ele>270</ele>
        <time>2012-09-18T15:23:48Z</time>
      </trkpt>
      <trkpt lat="47.07123" lon="5.57835">
        <ele>270</ele>
        <time>2012-09-18T15:23:49Z</time>
      </trkpt>
      <trkpt lat="47.07132" lon="5.5783">
        <ele>270</ele>
        <time>2012-09-18T15:23:50Z</time>
      </trkpt>
      <trkpt lat="47.07143" lon="5.57826">
        <ele>270</ele>
        <time>2012-09-18T15:23:51Z</time>
      </trkpt>
      <trkpt lat="47.07153" lon="5.57822">
        <ele>265</ele>
        <time>2012-09-18T15:23:52Z</time>
      </trkpt>
      <trkpt lat="47.07163" lon="5.57819">
        <ele>265</ele>
        <time>2012-09-18T15:23:53Z</time>
      </trkpt>
      <trkpt lat="47.07172" lon="5.57814">
        <ele>265</ele>
        <time>2012-09-18T15:23:54Z</time>
      </trkpt>
      <trkpt lat="47.07182" lon="5.5781">
        <ele>259</ele>
        <time>2012-09-18T15:23:55Z</time>
      </trkpt>
      <trkpt lat="47.07193" lon="5.57804">
        <ele>259</ele>
        <time>2012-09-18T15:23:56Z</time>
      </trkpt>
      <trkpt lat="47.07202" lon="5.57799">
        <ele>259</ele>
        <time>2012-09-18T15:23:57Z</time>
      </trkpt>
      <trkpt lat="47.07213" lon="5.57794">
        <ele>259</ele>
        <time>2012-09-18T15:23:58Z</time>
      </trkpt>
      <trkpt lat="47.07223" lon="5.57787">
        <ele>259</ele>
        <time>2012-09-18T15:23:59Z</time>
      </trkpt>
      <trkpt lat="47.07234" lon="5.57782">
        <ele>259</ele>
        <time>2012-09-18T15:24:00Z</time>
      </trkpt>
      <trkpt lat="47.07245" lon="5.57776">
        <ele>259</ele>
        <time>2012-09-18T15:24:01Z</time>
      </trkpt>
      <trkpt lat="47.07255" lon="5.57769">
        <ele>259</ele>
        <time>2012-09-18T15:24:02Z</time>
      </trkpt>
      <trkpt lat="47.07266" lon="5.57763">
        <ele>254</ele>
        <time>2012-09-18T15:24:03Z</time>
      </trkpt>
      <trkpt lat="47.07275" lon="5.57757">
        <ele>254</ele>
        <time>2012-09-18T15:24:04Z</time>
      </trkpt>
      <trkpt lat="47.07285" lon="5.57751">
        <ele>254</ele>
        <time>2012-09-18T15:24:05Z</time>
      </trkpt>
      <trkpt lat="47.07295" lon="5.57746">
        <ele>254</ele>
        <time>2012-09-18T15:24:06Z</time>
      </trkpt>
      <trkpt lat="47.07304" lon="5.57742">
        <ele>254</ele>
        <time>2012-09-18T15:24:07Z</time>
      </trkpt>
      <trkpt lat="47.07313" lon="5.57737">
        <ele>254</ele>
        <time>2012-09-18T15:24:08Z</time>
      </trkpt>
      <trkpt lat="47.07322" lon="5.57733">
        <ele>254</ele>
        <time>2012-09-18T15:24:09Z</time>
      </trkpt>
      <trkpt lat="47.07337" lon="5.57724">
        <ele>254</ele>
        <time>2012-09-18T15:24:11Z</time>
      </trkpt>
      <trkpt lat="47.07353" lon="5.57716">
        <ele>254</ele>
        <time>2012-09-18T15:24:13Z</time>
      </trkpt>
      <trkpt lat="47.07368" lon="5.57707">
        <ele>254</ele>
        <time>2012-09-18T15:24:15Z</time>
      </trkpt>
      <trkpt lat="47.07382" lon="5.57699">
        <ele>254</ele>
        <time>2012-09-18T15:24:17Z</time>
      </trkpt>
      <trkpt lat="47.07396" lon="5.57691">
        <ele>254</ele>
        <time>2012-09-18T15:24:19Z</time>
      </trkpt>
      <trkpt lat="47.07411" lon="5.57685">
        <ele>254</ele>
        <time>2012-09-18T15:24:21Z</time>
      </trkpt>
      <trkpt lat="47.07423" lon="5.57678">
        <ele>254</ele>
        <time>2012-09-18T15:24:23Z</time>
      </trkpt>
      <trkpt lat="47.07436" lon="5.57671">
        <ele>254</ele>
        <time>2012-09-18T15:24:25Z</time>
      </trkpt>
      <trkpt lat="47.07447" lon="5.57663">
        <ele>254</ele>
        <time>2012-09-18T15:24:27Z</time>
      </trkpt>
      <trkpt lat="47.07458" lon="5.57657">
        <ele>254</ele>
        <time>2012-09-18T15:24:29Z</time>
      </trkpt>
      <trkpt lat="47.07468" lon="5.5765">
        <ele>254</ele>
        <time>2012-09-18T15:24:31Z</time>
      </trkpt>
      <trkpt lat="47.07476" lon="5.57643">
        <ele>254</ele>
        <time>2012-09-18T15:24:33Z</time>
      </trkpt>
      <trkpt lat="47.07479" lon="5.5763">
        <ele>259</ele>
        <time>2012-09-18T15:24:36Z</time>
      </trkpt>
      <trkpt lat="47.07475" lon="5.57618">
        <ele>259</ele>
        <time>2012-09-18T15:24:38Z</time>
      </trkpt>
      <trkpt lat="47.07465" lon="5.57603">
        <ele>259</ele>
        <time>2012-09-18T15:24:40Z</time>
      </trkpt>
      <trkpt lat="47.07458" lon="5.57586">
        <ele>259</ele>
        <time>2012-09-18T15:24:42Z</time>
      </trkpt>
      <trkpt lat="47.07453" lon="5.57572">
        <ele>259</ele>
        <time>2012-09-18T15:24:44Z</time>
      </trkpt>
      <trkpt lat="47.0745" lon="5.57555">
        <ele>259</ele>
        <time>2012-09-18T15:24:46Z</time>
      </trkpt>
      <trkpt lat="47.07445" lon="5.57539">
        <ele>259</ele>
        <time>2012-09-18T15:24:48Z</time>
      </trkpt>
      <trkpt lat="47.07442" lon="5.57521">
        <ele>259</ele>
        <time>2012-09-18T15:24:50Z</time>
      </trkpt>
      <trkpt lat="47.0744" lon="5.57503">
        <ele>259</ele>
        <time>2012-09-18T15:24:52Z</time>
      </trkpt>
      <trkpt lat="47.07436" lon="5.57486">
        <ele>259</ele>
        <time>2012-09-18T15:24:54Z</time>
      </trkpt>
      <trkpt lat="47.07431" lon="5.57469">
        <ele>259</ele>
        <time>2012-09-18T15:24:56Z</time>
      </trkpt>
      <trkpt lat="47.07428" lon="5.5745">
        <ele>251</ele>
        <time>2012-09-18T15:24:58Z</time>
      </trkpt>
      <trkpt lat="47.07424" lon="5.57429">
        <ele>251</ele>
        <time>2012-09-18T15:25:00Z</time>
      </trkpt>
      <trkpt lat="47.07419" lon="5.57411">
        <ele>251</ele>
        <time>2012-09-18T15:25:02Z</time>
      </trkpt>
      <trkpt lat="47.07415" lon="5.57389">
        <ele>246</ele>
        <time>2012-09-18T15:25:04Z</time>
      </trkpt>
      <trkpt lat="47.07409" lon="5.57367">
        <ele>246</ele>
        <time>2012-09-18T15:25:06Z</time>
      </trkpt>
      <trkpt lat="47.07404" lon="5.57344">
        <ele>246</ele>
        <time>2012-09-18T15:25:08Z</time>
      </trkpt>
      <trkpt lat="47.07401" lon="5.57332">
        <ele>246</ele>
        <time>2012-09-18T15:25:09Z</time>
      </trkpt>
      <trkpt lat="47.07397" lon="5.57309">
        <ele>246</ele>
        <time>2012-09-18T15:25:11Z</time>
      </trkpt>
      <trkpt lat="47.07395" lon="5.57296">
        <ele>240</ele>
        <time>2012-09-18T15:25:12Z</time>
      </trkpt>
      <trkpt lat="47.07388" lon="5.57274">
        <ele>240</ele>
        <time>2012-09-18T15:25:14Z</time>
      </trkpt>
      <trkpt lat="47.07383" lon="5.5725">
        <ele>240</ele>
        <time>2012-09-18T15:25:16Z</time>
      </trkpt>
      <trkpt lat="47.07378" lon="5.57225">
        <ele>240</ele>
        <time>2012-09-18T15:25:18Z</time>
      </trkpt>
      <trkpt lat="47.07374" lon="5.57212">
        <ele>240</ele>
        <time>2012-09-18T15:25:19Z</time>
      </trkpt>
      <trkpt lat="47.07372" lon="5.572">
        <ele>240</ele>
        <time>2012-09-18T15:25:20Z</time>
      </trkpt>
      <trkpt lat="47.07369" lon="5.57186">
        <ele>234</ele>
        <time>2012-09-18T15:25:21Z</time>
      </trkpt>
      <trkpt lat="47.07366" lon="5.57173">
        <ele>234</ele>
        <time>2012-09-18T15:25:22Z</time>
      </trkpt>
      <trkpt lat="47.07361" lon="5.5715">
        <ele>234</ele>
        <time>2012-09-18T15:25:24Z</time>
      </trkpt>
      <trkpt lat="47.07356" lon="5.57128">
        <ele>234</ele>
        <time>2012-09-18T15:25:26Z</time>
      </trkpt>
      <trkpt lat="47.07351" lon="5.57107">
        <ele>234</ele>
        <time>2012-09-18T15:25:28Z</time>
      </trkpt>
      <trkpt lat="47.07347" lon="5.57088">
        <ele>234</ele>
        <time>2012-09-18T15:25:30Z</time>
      </trkpt>
      <trkpt lat="47.07343" lon="5.5707">
        <ele>234</ele>
        <time>2012-09-18T15:25:32Z</time>
      </trkpt>
      <trkpt lat="47.07339" lon="5.57053">
        <ele>234</ele>
        <time>2012-09-18T15:25:34Z</time>
      </trkpt>
      <trkpt lat="47.07336" lon="5.57038">
        <ele>240</ele>
        <time>2012-09-18T15:25:36Z</time>
      </trkpt>
      <trkpt lat="47.07332" lon="5.57025">
        <ele>240</ele>
        <time>2012-09-18T15:25:38Z</time>
      </trkpt>
      <trkpt lat="47.07329" lon="5.57012">
        <ele>240</ele>
        <time>2012-09-18T15:25:40Z</time>
      </trkpt>
      <trkpt lat="47.07326" lon="5.57">
        <ele>246</ele>
        <time>2012-09-18T15:25:42Z</time>
      </trkpt>
      <trkpt lat="47.07322" lon="5.56985">
        <ele>246</ele>
        <time>2012-09-18T15:25:44Z</time>
      </trkpt>
      <trkpt lat="47.07318" lon="5.56972">
        <ele>246</ele>
        <time>2012-09-18T15:25:46Z</time>
      </trkpt>
      <trkpt lat="47.07316" lon="5.56958">
        <ele>246</ele>
        <time>2012-09-18T15:25:48Z</time>
      </trkpt>
      <trkpt lat="47.07312" lon="5.56946">
        <ele>246</ele>
        <time>2012-09-18T15:25:50Z</time>
      </trkpt>
      <trkpt lat="47.07307" lon="5.56929">
        <ele>246</ele>
        <time>2012-09-18T15:25:53Z</time>
      </trkpt>
      <trkpt lat="47.07306" lon="5.56913">
        <ele>246</ele>
        <time>2012-09-18T15:25:55Z</time>
      </trkpt>
      <trkpt lat="47.07301" lon="5.56895">
        <ele>252</ele>
        <time>2012-09-18T15:25:58Z</time>
      </trkpt>
      <trkpt lat="47.07295" lon="5.56876">
        <ele>252</ele>
        <time>2012-09-18T15:26:01Z</time>
      </trkpt>
      <trkpt lat="47.07293" lon="5.56862">
        <ele>252</ele>
        <time>2012-09-18T15:26:03Z</time>
      </trkpt>
      <trkpt lat="47.07288" lon="5.5685">
        <ele>252</ele>
        <time>2012-09-18T15:26:05Z</time>
      </trkpt>
      <trkpt lat="47.07286" lon="5.56834">
        <ele>252</ele>
        <time>2012-09-18T15:26:07Z</time>
      </trkpt>
      <trkpt lat="47.07283" lon="5.56821">
        <ele>252</ele>
        <time>2012-09-18T15:26:09Z</time>
      </trkpt>
      <trkpt lat="47.0728" lon="5.56806">
        <ele>252</ele>
        <time>2012-09-18T15:26:11Z</time>
      </trkpt>
      <trkpt lat="47.07276" lon="5.56791">
        <ele>252</ele>
        <time>2012-09-18T15:26:13Z</time>
      </trkpt>
      <trkpt lat="47.0727" lon="5.56773">
        <ele>252</ele>
        <time>2012-09-18T15:26:16Z</time>
      </trkpt>
      <trkpt lat="47.07266" lon="5.5676">
        <ele>252</ele>
        <time>2012-09-18T15:26:18Z</time>
      </trkpt>
      <trkpt lat="47.07263" lon="5.56745">
        <ele>252</ele>
        <time>2012-09-18T15:26:20Z</time>
      </trkpt>
      <trkpt lat="47.0726" lon="5.56731">
        <ele>252</ele>
        <time>2012-09-18T15:26:22Z</time>
      </trkpt>
      <trkpt lat="47.07257" lon="5.56718">
        <ele>252</ele>
        <time>2012-09-18T15:26:24Z</time>
      </trkpt>
      <trkpt lat="47.07255" lon="5.56705">
        <ele>259</ele>
        <time>2012-09-18T15:26:26Z</time>
      </trkpt>
      <trkpt lat="47.07252" lon="5.56691">
        <ele>259</ele>
        <time>2012-09-18T15:26:28Z</time>
      </trkpt>
      <trkpt lat="47.07248" lon="5.56678">
        <ele>259</ele>
        <time>2012-09-18T15:26:30Z</time>
      </trkpt>
      <trkpt lat="47.07245" lon="5.56664">
        <ele>259</ele>
        <time>2012-09-18T15:26:32Z</time>
      </trkpt>
      <trkpt lat="47.07242" lon="5.56648">
        <ele>259</ele>
        <time>2012-09-18T15:26:34Z</time>
      </trkpt>
      <trkpt lat="47.0724" lon="5.56633">
        <ele>259</ele>
        <time>2012-09-18T15:26:36Z</time>
      </trkpt>
      <trkpt lat="47.07237" lon="5.56616">
        <ele>259</ele>
        <time>2012-09-18T15:26:38Z</time>
      </trkpt>
      <trkpt lat="47.07235" lon="5.56598">
        <ele>259</ele>
        <time>2012-09-18T15:26:40Z</time>
      </trkpt>
      <trkpt lat="47.07232" lon="5.56582">
        <ele>259</ele>
        <time>2012-09-18T15:26:42Z</time>
      </trkpt>
      <trkpt lat="47.07228" lon="5.56567">
        <ele>259</ele>
        <time>2012-09-18T15:26:44Z</time>
      </trkpt>
      <trkpt lat="47.07223" lon="5.5655">
        <ele>259</ele>
        <time>2012-09-18T15:26:46Z</time>
      </trkpt>
      <trkpt lat="47.07218" lon="5.56533">
        <ele>259</ele>
        <time>2012-09-18T15:26:48Z</time>
      </trkpt>
      <trkpt lat="47.07214" lon="5.56513">
        <ele>259</ele>
        <time>2012-09-18T15:26:50Z</time>
      </trkpt>
      <trkpt lat="47.07209" lon="5.56496">
        <ele>259</ele>
        <time>2012-09-18T15:26:52Z</time>
      </trkpt>
      <trkpt lat="47.07205" lon="5.56478">
        <ele>252</ele>
        <time>2012-09-18T15:26:54Z</time>
      </trkpt>
      <trkpt lat="47.07202" lon="5.56458">
        <ele>252</ele>
        <time>2012-09-18T15:26:56Z</time>
      </trkpt>
      <trkpt lat="47.07199" lon="5.56437">
        <ele>252</ele>
        <time>2012-09-18T15:26:58Z</time>
      </trkpt>
      <trkpt lat="47.07195" lon="5.56417">
        <ele>252</ele>
        <time>2012-09-18T15:27:00Z</time>
      </trkpt>
      <trkpt lat="47.07191" lon="5.56397">
        <ele>246</ele>
        <time>2012-09-18T15:27:02Z</time>
      </trkpt>
      <trkpt lat="47.07186" lon="5.56376">
        <ele>246</ele>
        <time>2012-09-18T15:27:04Z</time>
      </trkpt>
      <trkpt lat="47.0718" lon="5.56355">
        <ele>246</ele>
        <time>2012-09-18T15:27:06Z</time>
      </trkpt>
      <trkpt lat="47.07175" lon="5.56333">
        <ele>246</ele>
        <time>2012-09-18T15:27:08Z</time>
      </trkpt>
      <trkpt lat="47.0717" lon="5.56311">
        <ele>246</ele>
        <time>2012-09-18T15:27:10Z</time>
      </trkpt>
      <trkpt lat="47.07166" lon="5.56288">
        <ele>240</ele>
        <time>2012-09-18T15:27:12Z</time>
      </trkpt>
      <trkpt lat="47.0716" lon="5.56265">
        <ele>240</ele>
        <time>2012-09-18T15:27:14Z</time>
      </trkpt>
      <trkpt lat="47.07155" lon="5.56242">
        <ele>240</ele>
        <time>2012-09-18T15:27:16Z</time>
      </trkpt>
      <trkpt lat="47.07151" lon="5.5622">
        <ele>240</ele>
        <time>2012-09-18T15:27:18Z</time>
      </trkpt>
      <trkpt lat="47.07147" lon="5.56199">
        <ele>240</ele>
        <time>2012-09-18T15:27:20Z</time>
      </trkpt>
      <trkpt lat="47.07142" lon="5.56179">
        <ele>240</ele>
        <time>2012-09-18T15:27:22Z</time>
      </trkpt>
      <trkpt lat="47.07138" lon="5.56159">
        <ele>240</ele>
        <time>2012-09-18T15:27:24Z</time>
      </trkpt>
      <trkpt lat="47.07132" lon="5.56138">
        <ele>240</ele>
        <time>2012-09-18T15:27:26Z</time>
      </trkpt>
      <trkpt lat="47.07127" lon="5.56116">
        <ele>240</ele>
        <time>2012-09-18T15:27:28Z</time>
      </trkpt>
      <trkpt lat="47.07121" lon="5.56091">
        <ele>240</ele>
        <time>2012-09-18T15:27:30Z</time>
      </trkpt>
      <trkpt lat="47.07119" lon="5.56079">
        <ele>240</ele>
        <time>2012-09-18T15:27:31Z</time>
      </trkpt>
      <trkpt lat="47.07117" lon="5.56065">
        <ele>240</ele>
        <time>2012-09-18T15:27:32Z</time>
      </trkpt>
      <trkpt lat="47.07112" lon="5.56042">
        <ele>240</ele>
        <time>2012-09-18T15:27:34Z</time>
      </trkpt>
      <trkpt lat="47.07109" lon="5.56029">
        <ele>240</ele>
        <time>2012-09-18T15:27:35Z</time>
      </trkpt>
      <trkpt lat="47.07104" lon="5.56008">
        <ele>240</ele>
        <time>2012-09-18T15:27:37Z</time>
      </trkpt>
      <trkpt lat="47.07099" lon="5.55987">
        <ele>240</ele>
        <time>2012-09-18T15:27:39Z</time>
      </trkpt>
      <trkpt lat="47.07095" lon="5.55967">
        <ele>240</ele>
        <time>2012-09-18T15:27:41Z</time>
      </trkpt>
      <trkpt lat="47.07091" lon="5.55949">
        <ele>240</ele>
        <time>2012-09-18T15:27:43Z</time>
      </trkpt>
      <trkpt lat="47.07086" lon="5.55932">
        <ele>240</ele>
        <time>2012-09-18T15:27:45Z</time>
      </trkpt>
      <trkpt lat="47.07082" lon="5.55916">
        <ele>246</ele>
        <time>2012-09-18T15:27:47Z</time>
      </trkpt>
      <trkpt lat="47.07078" lon="5.55899">
        <ele>246</ele>
        <time>2012-09-18T15:27:49Z</time>
      </trkpt>
      <trkpt lat="47.07075" lon="5.55884">
        <ele>246</ele>
        <time>2012-09-18T15:27:51Z</time>
      </trkpt>
      <trkpt lat="47.07071" lon="5.55869">
        <ele>246</ele>
        <time>2012-09-18T15:27:53Z</time>
      </trkpt>
      <trkpt lat="47.07068" lon="5.55853">
        <ele>246</ele>
        <time>2012-09-18T15:27:55Z</time>
      </trkpt>
      <trkpt lat="47.07065" lon="5.55839">
        <ele>246</ele>
        <time>2012-09-18T15:27:57Z</time>
      </trkpt>
      <trkpt lat="47.07062" lon="5.55826">
        <ele>246</ele>
        <time>2012-09-18T15:27:59Z</time>
      </trkpt>
      <trkpt lat="47.07057" lon="5.5581">
        <ele>251</ele>
        <time>2012-09-18T15:28:02Z</time>
      </trkpt>
      <trkpt lat="47.07052" lon="5.55796">
        <ele>251</ele>
        <time>2012-09-18T15:28:05Z</time>
      </trkpt>
      <trkpt lat="47.07047" lon="5.55782">
        <ele>251</ele>
        <time>2012-09-18T15:28:29Z</time>
      </trkpt>
      <trkpt lat="47.07044" lon="5.55765">
        <ele>251</ele>
        <time>2012-09-18T15:28:32Z</time>
      </trkpt>
      <trkpt lat="47.07041" lon="5.55746">
        <ele>251</ele>
        <time>2012-09-18T15:28:35Z</time>
      </trkpt>
      <trkpt lat="47.07039" lon="5.55733">
        <ele>251</ele>
        <time>2012-09-18T15:28:37Z</time>
      </trkpt>
      <trkpt lat="47.07035" lon="5.55719">
        <ele>251</ele>
        <time>2012-09-18T15:28:39Z</time>
      </trkpt>
      <trkpt lat="47.07032" lon="5.55704">
        <ele>251</ele>
        <time>2012-09-18T15:28:41Z</time>
      </trkpt>
      <trkpt lat="47.0703" lon="5.55687">
        <ele>251</ele>
        <time>2012-09-18T15:28:43Z</time>
      </trkpt>
      <trkpt lat="47.07027" lon="5.55671">
        <ele>251</ele>
        <time>2012-09-18T15:28:45Z</time>
      </trkpt>
      <trkpt lat="47.07024" lon="5.55657">
        <ele>251</ele>
        <time>2012-09-18T15:28:47Z</time>
      </trkpt>
      <trkpt lat="47.07021" lon="5.5564">
        <ele>251</ele>
        <time>2012-09-18T15:28:50Z</time>
      </trkpt>
      <trkpt lat="47.07015" lon="5.55623">
        <ele>251</ele>
        <time>2012-09-18T15:28:53Z</time>
      </trkpt>
      <trkpt lat="47.07011" lon="5.55604">
        <ele>251</ele>
        <time>2012-09-18T15:28:56Z</time>
      </trkpt>
      <trkpt lat="47.07007" lon="5.55592">
        <ele>251</ele>
        <time>2012-09-18T15:28:58Z</time>
      </trkpt>
      <trkpt lat="47.07005" lon="5.55578">
        <ele>251</ele>
        <time>2012-09-18T15:29:00Z</time>
      </trkpt>
      <trkpt lat="47.07001" lon="5.55564">
        <ele>251</ele>
        <time>2012-09-18T15:29:02Z</time>
      </trkpt>
      <trkpt lat="47.06997" lon="5.5555">
        <ele>251</ele>
        <time>2012-09-18T15:29:04Z</time>
      </trkpt>
      <trkpt lat="47.06994" lon="5.55535">
        <ele>251</ele>
        <time>2012-09-18T15:29:06Z</time>
      </trkpt>
      <trkpt lat="47.0699" lon="5.55521">
        <ele>251</ele>
        <time>2012-09-18T15:29:08Z</time>
      </trkpt>
      <trkpt lat="47.06986" lon="5.55507">
        <ele>251</ele>
        <time>2012-09-18T15:29:10Z</time>
      </trkpt>
      <trkpt lat="47.06983" lon="5.55489">
        <ele>251</ele>
        <time>2012-09-18T15:29:12Z</time>
      </trkpt>
      <trkpt lat="47.0698" lon="5.55471">
        <ele>251</ele>
        <time>2012-09-18T15:29:14Z</time>
      </trkpt>
      <trkpt lat="47.06977" lon="5.55452">
        <ele>251</ele>
        <time>2012-09-18T15:29:16Z</time>
      </trkpt>
      <trkpt lat="47.06973" lon="5.55434">
        <ele>251</ele>
        <time>2012-09-18T15:29:18Z</time>
      </trkpt>
      <trkpt lat="47.0697" lon="5.55414">
        <ele>251</ele>
        <time>2012-09-18T15:29:20Z</time>
      </trkpt>
      <trkpt lat="47.06966" lon="5.55396">
        <ele>251</ele>
        <time>2012-09-18T15:29:22Z</time>
      </trkpt>
      <trkpt lat="47.06962" lon="5.55377">
        <ele>251</ele>
        <time>2012-09-18T15:29:24Z</time>
      </trkpt>
      <trkpt lat="47.06958" lon="5.55358">
        <ele>251</ele>
        <time>2012-09-18T15:29:26Z</time>
      </trkpt>
      <trkpt lat="47.06953" lon="5.55339">
        <ele>251</ele>
        <time>2012-09-18T15:29:28Z</time>
      </trkpt>
      <trkpt lat="47.06949" lon="5.55321">
        <ele>251</ele>
        <time>2012-09-18T15:29:30Z</time>
      </trkpt>
      <trkpt lat="47.06945" lon="5.553">
        <ele>251</ele>
        <time>2012-09-18T15:29:32Z</time>
      </trkpt>
      <trkpt lat="47.0694" lon="5.55279">
        <ele>251</ele>
        <time>2012-09-18T15:29:34Z</time>
      </trkpt>
      <trkpt lat="47.06935" lon="5.5526">
        <ele>251</ele>
        <time>2012-09-18T15:29:36Z</time>
      </trkpt>
      <trkpt lat="47.0693" lon="5.55239">
        <ele>245</ele>
        <time>2012-09-18T15:29:38Z</time>
      </trkpt>
      <trkpt lat="47.06926" lon="5.55219">
        <ele>245</ele>
        <time>2012-09-18T15:29:40Z</time>
      </trkpt>
      <trkpt lat="47.06921" lon="5.55199">
        <ele>245</ele>
        <time>2012-09-18T15:29:42Z</time>
      </trkpt>
      <trkpt lat="47.06916" lon="5.5518">
        <ele>245</ele>
        <time>2012-09-18T15:29:44Z</time>
      </trkpt>
      <trkpt lat="47.06911" lon="5.55158">
        <ele>245</ele>
        <time>2012-09-18T15:29:46Z</time>
      </trkpt>
      <trkpt lat="47.06906" lon="5.55136">
        <ele>245</ele>
        <time>2012-09-18T15:29:48Z</time>
      </trkpt>
      <trkpt lat="47.06902" lon="5.55114">
        <ele>245</ele>
        <time>2012-09-18T15:29:50Z</time>
      </trkpt>
      <trkpt lat="47.06897" lon="5.55092">
        <ele>245</ele>
        <time>2012-09-18T15:29:52Z</time>
      </trkpt>
      <trkpt lat="47.06893" lon="5.5507">
        <ele>245</ele>
        <time>2012-09-18T15:29:54Z</time>
      </trkpt>
      <trkpt lat="47.06888" lon="5.55049">
        <ele>245</ele>
        <time>2012-09-18T15:29:56Z</time>
      </trkpt>
      <trkpt lat="47.06884" lon="5.55029">
        <ele>245</ele>
        <time>2012-09-18T15:29:58Z</time>
      </trkpt>
      <trkpt lat="47.06879" lon="5.55008">
        <ele>245</ele>
        <time>2012-09-18T15:30:00Z</time>
      </trkpt>
      <trkpt lat="47.06875" lon="5.54986">
        <ele>245</ele>
        <time>2012-09-18T15:30:02Z</time>
      </trkpt>
      <trkpt lat="47.0687" lon="5.54966">
        <ele>245</ele>
        <time>2012-09-18T15:30:04Z</time>
      </trkpt>
      <trkpt lat="47.06866" lon="5.54945">
        <ele>245</ele>
        <time>2012-09-18T15:30:06Z</time>
      </trkpt>
      <trkpt lat="47.06861" lon="5.54924">
        <ele>245</ele>
        <time>2012-09-18T15:30:08Z</time>
      </trkpt>
      <trkpt lat="47.06856" lon="5.54903">
        <ele>245</ele>
        <time>2012-09-18T15:30:10Z</time>
      </trkpt>
      <trkpt lat="47.0685" lon="5.54883">
        <ele>245</ele>
        <time>2012-09-18T15:30:12Z</time>
      </trkpt>
      <trkpt lat="47.06844" lon="5.54863">
        <ele>245</ele>
        <time>2012-09-18T15:30:14Z</time>
      </trkpt>
      <trkpt lat="47.0684" lon="5.54841">
        <ele>245</ele>
        <time>2012-09-18T15:30:16Z</time>
      </trkpt>
      <trkpt lat="47.06834" lon="5.54819">
        <ele>245</ele>
        <time>2012-09-18T15:30:18Z</time>
      </trkpt>
      <trkpt lat="47.06829" lon="5.548">
        <ele>245</ele>
        <time>2012-09-18T15:30:20Z</time>
      </trkpt>
      <trkpt lat="47.06824" lon="5.54778">
        <ele>245</ele>
        <time>2012-09-18T15:30:22Z</time>
      </trkpt>
      <trkpt lat="47.06819" lon="5.54757">
        <ele>245</ele>
        <time>2012-09-18T15:30:24Z</time>
      </trkpt>
      <trkpt lat="47.06815" lon="5.54738">
        <ele>245</ele>
        <time>2012-09-18T15:30:26Z</time>
      </trkpt>
      <trkpt lat="47.06811" lon="5.54717">
        <ele>245</ele>
        <time>2012-09-18T15:30:28Z</time>
      </trkpt>
      <trkpt lat="47.06807" lon="5.54694">
        <ele>245</ele>
        <time>2012-09-18T15:30:30Z</time>
      </trkpt>
      <trkpt lat="47.06804" lon="5.54674">
        <ele>245</ele>
        <time>2012-09-18T15:30:32Z</time>
      </trkpt>
      <trkpt lat="47.06799" lon="5.54651">
        <ele>245</ele>
        <time>2012-09-18T15:30:34Z</time>
      </trkpt>
      <trkpt lat="47.06794" lon="5.5463">
        <ele>245</ele>
        <time>2012-09-18T15:30:36Z</time>
      </trkpt>
      <trkpt lat="47.06789" lon="5.54609">
        <ele>245</ele>
        <time>2012-09-18T15:30:38Z</time>
      </trkpt>
      <trkpt lat="47.06784" lon="5.54588">
        <ele>240</ele>
        <time>2012-09-18T15:30:40Z</time>
      </trkpt>
      <trkpt lat="47.0678" lon="5.54566">
        <ele>240</ele>
        <time>2012-09-18T15:30:42Z</time>
      </trkpt>
      <trkpt lat="47.06775" lon="5.54544">
        <ele>240</ele>
        <time>2012-09-18T15:30:44Z</time>
      </trkpt>
      <trkpt lat="47.0677" lon="5.54525">
        <ele>240</ele>
        <time>2012-09-18T15:30:46Z</time>
      </trkpt>
      <trkpt lat="47.06767" lon="5.54505">
        <ele>240</ele>
        <time>2012-09-18T15:30:48Z</time>
      </trkpt>
      <trkpt lat="47.06762" lon="5.54485">
        <ele>240</ele>
        <time>2012-09-18T15:30:50Z</time>
      </trkpt>
      <trkpt lat="47.06757" lon="5.54467">
        <ele>240</ele>
        <time>2012-09-18T15:30:52Z</time>
      </trkpt>
      <trkpt lat="47.06754" lon="5.54447">
        <ele>240</ele>
        <time>2012-09-18T15:30:54Z</time>
      </trkpt>
      <trkpt lat="47.0675" lon="5.54429">
        <ele>240</ele>
        <time>2012-09-18T15:30:56Z</time>
      </trkpt>
      <trkpt lat="47.06746" lon="5.54409">
        <ele>240</ele>
        <time>2012-09-18T15:30:58Z</time>
      </trkpt>
      <trkpt lat="47.06743" lon="5.54388">
        <ele>240</ele>
        <time>2012-09-18T15:31:00Z</time>
      </trkpt>
      <trkpt lat="47.06739" lon="5.54371">
        <ele>240</ele>
        <time>2012-09-18T15:31:02Z</time>
      </trkpt>
      <trkpt lat="47.06734" lon="5.54353">
        <ele>240</ele>
        <time>2012-09-18T15:31:04Z</time>
      </trkpt>
      <trkpt lat="47.06729" lon="5.54335">
        <ele>240</ele>
        <time>2012-09-18T15:31:06Z</time>
      </trkpt>
      <trkpt lat="47.06724" lon="5.54315">
        <ele>240</ele>
        <time>2012-09-18T15:31:08Z</time>
      </trkpt>
      <trkpt lat="47.06719" lon="5.54296">
        <ele>240</ele>
        <time>2012-09-18T15:31:10Z</time>
      </trkpt>
      <trkpt lat="47.06715" lon="5.54275">
        <ele>240</ele>
        <time>2012-09-18T15:31:12Z</time>
      </trkpt>
      <trkpt lat="47.06711" lon="5.54254">
        <ele>240</ele>
        <time>2012-09-18T15:31:14Z</time>
      </trkpt>
      <trkpt lat="47.06707" lon="5.54234">
        <ele>240</ele>
        <time>2012-09-18T15:31:16Z</time>
      </trkpt>
      <trkpt lat="47.067" lon="5.54215">
        <ele>240</ele>
        <time>2012-09-18T15:31:18Z</time>
      </trkpt>
      <trkpt lat="47.06695" lon="5.54194">
        <ele>240</ele>
        <time>2012-09-18T15:31:20Z</time>
      </trkpt>
      <trkpt lat="47.06691" lon="5.54171">
        <ele>240</ele>
        <time>2012-09-18T15:31:22Z</time>
      </trkpt>
      <trkpt lat="47.06687" lon="5.54147">
        <ele>240</ele>
        <time>2012-09-18T15:31:24Z</time>
      </trkpt>
      <trkpt lat="47.06682" lon="5.54124">
        <ele>240</ele>
        <time>2012-09-18T15:31:26Z</time>
      </trkpt>
      <trkpt lat="47.06676" lon="5.54102">
        <ele>240</ele>
        <time>2012-09-18T15:31:28Z</time>
      </trkpt>
      <trkpt lat="47.06672" lon="5.54079">
        <ele>240</ele>
        <time>2012-09-18T15:31:30Z</time>
      </trkpt>
      <trkpt lat="47.06667" lon="5.54061">
        <ele>240</ele>
        <time>2012-09-18T15:31:32Z</time>
      </trkpt>
      <trkpt lat="47.06664" lon="5.54042">
        <ele>240</ele>
        <time>2012-09-18T15:31:34Z</time>
      </trkpt>
      <trkpt lat="47.06665" lon="5.54026">
        <ele>240</ele>
        <time>2012-09-18T15:31:36Z</time>
      </trkpt>
      <trkpt lat="47.06672" lon="5.54014">
        <ele>240</ele>
        <time>2012-09-18T15:31:38Z</time>
      </trkpt>
      <trkpt lat="47.06681" lon="5.54006">
        <ele>240</ele>
        <time>2012-09-18T15:31:40Z</time>
      </trkpt>
      <trkpt lat="47.06691" lon="5.54001">
        <ele>240</ele>
        <time>2012-09-18T15:31:42Z</time>
      </trkpt>
      <trkpt lat="47.067" lon="5.53994">
        <ele>240</ele>
        <time>2012-09-18T15:31:44Z</time>
      </trkpt>
      <trkpt lat="47.0671" lon="5.53987">
        <ele>240</ele>
        <time>2012-09-18T15:31:46Z</time>
      </trkpt>
      <trkpt lat="47.06719" lon="5.5398">
        <ele>240</ele>
        <time>2012-09-18T15:31:48Z</time>
      </trkpt>
      <trkpt lat="47.06727" lon="5.53973">
        <ele>240</ele>
        <time>2012-09-18T15:31:50Z</time>
      </trkpt>
      <trkpt lat="47.06736" lon="5.53966">
        <ele>247</ele>
        <time>2012-09-18T15:31:52Z</time>
      </trkpt>
      <trkpt lat="47.06745" lon="5.5396">
        <ele>247</ele>
        <time>2012-09-18T15:31:54Z</time>
      </trkpt>
      <trkpt lat="47.06754" lon="5.53952">
        <ele>247</ele>
        <time>2012-09-18T15:31:56Z</time>
      </trkpt>
      <trkpt lat="47.06763" lon="5.53945">
        <ele>247</ele>
        <time>2012-09-18T15:31:58Z</time>
      </trkpt>
      <trkpt lat="47.06773" lon="5.53939">
        <ele>247</ele>
        <time>2012-09-18T15:32:00Z</time>
      </trkpt>
      <trkpt lat="47.06783" lon="5.53932">
        <ele>253</ele>
        <time>2012-09-18T15:32:02Z</time>
      </trkpt>
      <trkpt lat="47.06793" lon="5.53926">
        <ele>253</ele>
        <time>2012-09-18T15:32:04Z</time>
      </trkpt>
      <trkpt lat="47.06804" lon="5.53919">
        <ele>253</ele>
        <time>2012-09-18T15:32:06Z</time>
      </trkpt>
      <trkpt lat="47.06815" lon="5.53913">
        <ele>253</ele>
        <time>2012-09-18T15:32:08Z</time>
      </trkpt>
      <trkpt lat="47.06826" lon="5.53907">
        <ele>253</ele>
        <time>2012-09-18T15:32:10Z</time>
      </trkpt>
      <trkpt lat="47.06837" lon="5.53899">
        <ele>253</ele>
        <time>2012-09-18T15:32:12Z</time>
      </trkpt>
      <trkpt lat="47.06848" lon="5.53893">
        <ele>253</ele>
        <time>2012-09-18T15:32:14Z</time>
      </trkpt>
      <trkpt lat="47.0686" lon="5.53887">
        <ele>253</ele>
        <time>2012-09-18T15:32:16Z</time>
      </trkpt>
      <trkpt lat="47.06872" lon="5.53879">
        <ele>253</ele>
        <time>2012-09-18T15:32:18Z</time>
      </trkpt>
      <trkpt lat="47.06885" lon="5.53871">
        <ele>253</ele>
        <time>2012-09-18T15:32:20Z</time>
      </trkpt>
      <trkpt lat="47.06898" lon="5.53863">
        <ele>253</ele>
        <time>2012-09-18T15:32:22Z</time>
      </trkpt>
      <trkpt lat="47.06912" lon="5.53855">
        <ele>246</ele>
        <time>2012-09-18T15:32:24Z</time>
      </trkpt>
      <trkpt lat="47.06924" lon="5.53844">
        <ele>246</ele>
        <time>2012-09-18T15:32:26Z</time>
      </trkpt>
      <trkpt lat="47.06936" lon="5.5383">
        <ele>246</ele>
        <time>2012-09-18T15:32:28Z</time>
      </trkpt>
      <trkpt lat="47.06947" lon="5.53816">
        <ele>246</ele>
        <time>2012-09-18T15:32:30Z</time>
      </trkpt>
      <trkpt lat="47.06958" lon="5.53802">
        <ele>246</ele>
        <time>2012-09-18T15:32:32Z</time>
      </trkpt>
      <trkpt lat="47.06969" lon="5.53788">
        <ele>246</ele>
        <time>2012-09-18T15:32:34Z</time>
      </trkpt>
      <trkpt lat="47.06979" lon="5.53775">
        <ele>246</ele>
        <time>2012-09-18T15:32:36Z</time>
      </trkpt>
      <trkpt lat="47.06989" lon="5.53762">
        <ele>246</ele>
        <time>2012-09-18T15:32:38Z</time>
      </trkpt>
      <trkpt lat="47.06999" lon="5.53749">
        <ele>246</ele>
        <time>2012-09-18T15:32:40Z</time>
      </trkpt>
      <trkpt lat="47.07007" lon="5.53736">
        <ele>246</ele>
        <time>2012-09-18T15:32:42Z</time>
      </trkpt>
      <trkpt lat="47.07016" lon="5.53721">
        <ele>246</ele>
        <time>2012-09-18T15:32:44Z</time>
      </trkpt>
      <trkpt lat="47.07023" lon="5.53705">
        <ele>246</ele>
        <time>2012-09-18T15:32:46Z</time>
      </trkpt>
      <trkpt lat="47.0703" lon="5.5369">
        <ele>246</ele>
        <time>2012-09-18T15:32:48Z</time>
      </trkpt>
      <trkpt lat="47.07037" lon="5.53674">
        <ele>246</ele>
        <time>2012-09-18T15:32:50Z</time>
      </trkpt>
      <trkpt lat="47.07043" lon="5.53659">
        <ele>241</ele>
        <time>2012-09-18T15:32:52Z</time>
      </trkpt>
      <trkpt lat="47.0705" lon="5.53643">
        <ele>241</ele>
        <time>2012-09-18T15:32:54Z</time>
      </trkpt>
      <trkpt lat="47.07056" lon="5.53628">
        <ele>241</ele>
        <time>2012-09-18T15:32:56Z</time>
      </trkpt>
      <trkpt lat="47.07063" lon="5.53613">
        <ele>241</ele>
        <time>2012-09-18T15:32:58Z</time>
      </trkpt>
      <trkpt lat="47.07069" lon="5.53599">
        <ele>241</ele>
        <time>2012-09-18T15:33:00Z</time>
      </trkpt>
      <trkpt lat="47.07075" lon="5.53583">
        <ele>241</ele>
        <time>2012-09-18T15:33:02Z</time>
      </trkpt>
      <trkpt lat="47.07082" lon="5.53568">
        <ele>241</ele>
        <time>2012-09-18T15:33:04Z</time>
      </trkpt>
      <trkpt lat="47.07086" lon="5.53552">
        <ele>241</ele>
        <time>2012-09-18T15:33:06Z</time>
      </trkpt>
      <trkpt lat="47.07093" lon="5.53537">
        <ele>241</ele>
        <time>2012-09-18T15:33:08Z</time>
      </trkpt>
      <trkpt lat="47.07099" lon="5.53519">
        <ele>241</ele>
        <time>2012-09-18T15:33:10Z</time>
      </trkpt>
      <trkpt lat="47.07105" lon="5.53503">
        <ele>241</ele>
        <time>2012-09-18T15:33:12Z</time>
      </trkpt>
      <trkpt lat="47.07113" lon="5.53486">
        <ele>241</ele>
        <time>2012-09-18T15:33:14Z</time>
      </trkpt>
      <trkpt lat="47.07119" lon="5.53469">
        <ele>241</ele>
        <time>2012-09-18T15:33:16Z</time>
      </trkpt>
      <trkpt lat="47.07126" lon="5.53452">
        <ele>241</ele>
        <time>2012-09-18T15:33:18Z</time>
      </trkpt>
      <trkpt lat="47.07132" lon="5.53435">
        <ele>241</ele>
        <time>2012-09-18T15:33:20Z</time>
      </trkpt>
      <trkpt lat="47.0714" lon="5.53419">
        <ele>241</ele>
        <time>2012-09-18T15:33:22Z</time>
      </trkpt>
      <trkpt lat="47.07147" lon="5.53402">
        <ele>241</ele>
        <time>2012-09-18T15:33:24Z</time>
      </trkpt>
      <trkpt lat="47.07154" lon="5.53386">
        <ele>241</ele>
        <time>2012-09-18T15:33:26Z</time>
      </trkpt>
      <trkpt lat="47.0716" lon="5.53369">
        <ele>241</ele>
        <time>2012-09-18T15:33:28Z</time>
      </trkpt>
      <trkpt lat="47.07166" lon="5.53354">
        <ele>241</ele>
        <time>2012-09-18T15:33:30Z</time>
      </trkpt>
      <trkpt lat="47.07172" lon="5.53339">
        <ele>241</ele>
        <time>2012-09-18T15:33:32Z</time>
      </trkpt>
      <trkpt lat="47.07179" lon="5.53324">
        <ele>241</ele>
        <time>2012-09-18T15:33:34Z</time>
      </trkpt>
      <trkpt lat="47.07185" lon="5.53308">
        <ele>241</ele>
        <time>2012-09-18T15:33:36Z</time>
      </trkpt>
      <trkpt lat="47.07192" lon="5.53293">
        <ele>241</ele>
        <time>2012-09-18T15:33:38Z</time>
      </trkpt>
      <trkpt lat="47.07199" lon="5.53279">
        <ele>235</ele>
        <time>2012-09-18T15:33:40Z</time>
      </trkpt>
      <trkpt lat="47.07204" lon="5.53263">
        <ele>235</ele>
        <time>2012-09-18T15:33:42Z</time>
      </trkpt>
      <trkpt lat="47.07212" lon="5.53246">
        <ele>235</ele>
        <time>2012-09-18T15:33:44Z</time>
      </trkpt>
      <trkpt lat="47.07218" lon="5.53231">
        <ele>235</ele>
        <time>2012-09-18T15:33:46Z</time>
      </trkpt>
      <trkpt lat="47.07225" lon="5.53215">
        <ele>235</ele>
        <time>2012-09-18T15:33:48Z</time>
      </trkpt>
      <trkpt lat="47.07231" lon="5.53199">
        <ele>235</ele>
        <time>2012-09-18T15:33:50Z</time>
      </trkpt>
      <trkpt lat="47.07239" lon="5.53184">
        <ele>235</ele>
        <time>2012-09-18T15:33:52Z</time>
      </trkpt>
      <trkpt lat="47.07246" lon="5.53166">
        <ele>235</ele>
        <time>2012-09-18T15:33:54Z</time>
      </trkpt>
      <trkpt lat="47.0725" lon="5.53147">
        <ele>235</ele>
        <time>2012-09-18T15:33:56Z</time>
      </trkpt>
      <trkpt lat="47.07256" lon="5.53129">
        <ele>235</ele>
        <time>2012-09-18T15:33:58Z</time>
      </trkpt>
      <trkpt lat="47.07263" lon="5.53112">
        <ele>235</ele>
        <time>2012-09-18T15:34:00Z</time>
      </trkpt>
      <trkpt lat="47.07268" lon="5.53091">
        <ele>235</ele>
        <time>2012-09-18T15:34:02Z</time>
      </trkpt>
      <trkpt lat="47.07274" lon="5.53072">
        <ele>235</ele>
        <time>2012-09-18T15:34:04Z</time>
      </trkpt>
      <trkpt lat="47.07279" lon="5.53051">
        <ele>235</ele>
        <time>2012-09-18T15:34:06Z</time>
      </trkpt>
      <trkpt lat="47.07285" lon="5.53031">
        <ele>235</ele>
        <time>2012-09-18T15:34:08Z</time>
      </trkpt>
      <trkpt lat="47.07292" lon="5.53011">
        <ele>235</ele>
        <time>2012-09-18T15:34:10Z</time>
      </trkpt>
      <trkpt lat="47.07299" lon="5.52992">
        <ele>235</ele>
        <time>2012-09-18T15:34:12Z</time>
      </trkpt>
      <trkpt lat="47.07306" lon="5.52972">
        <ele>235</ele>
        <time>2012-09-18T15:34:14Z</time>
      </trkpt>
      <trkpt lat="47.07312" lon="5.52953">
        <ele>235</ele>
        <time>2012-09-18T15:34:16Z</time>
      </trkpt>
      <trkpt lat="47.0732" lon="5.52931">
        <ele>235</ele>
        <time>2012-09-18T15:34:18Z</time>
      </trkpt>
      <trkpt lat="47.07326" lon="5.5291">
        <ele>235</ele>
        <time>2012-09-18T15:34:20Z</time>
      </trkpt>
      <trkpt lat="47.07334" lon="5.5289">
        <ele>235</ele>
        <time>2012-09-18T15:34:22Z</time>
      </trkpt>
      <trkpt lat="47.07341" lon="5.52868">
        <ele>235</ele>
        <time>2012-09-18T15:34:24Z</time>
      </trkpt>
      <trkpt lat="47.07347" lon="5.52846">
        <ele>235</ele>
        <time>2012-09-18T15:34:26Z</time>
      </trkpt>
      <trkpt lat="47.07347" lon="5.52832">
        <ele>240</ele>
        <time>2012-09-18T15:34:27Z</time>
      </trkpt>
      <trkpt lat="47.07355" lon="5.5281">
        <ele>240</ele>
        <time>2012-09-18T15:34:29Z</time>
      </trkpt>
      <trkpt lat="47.07361" lon="5.52786">
        <ele>240</ele>
        <time>2012-09-18T15:34:31Z</time>
      </trkpt>
      <trkpt lat="47.07369" lon="5.52763">
        <ele>240</ele>
        <time>2012-09-18T15:34:33Z</time>
      </trkpt>
      <trkpt lat="47.07374" lon="5.5274">
        <ele>240</ele>
        <time>2012-09-18T15:34:35Z</time>
      </trkpt>
      <trkpt lat="47.07374" lon="5.52715">
        <ele>240</ele>
        <time>2012-09-18T15:34:37Z</time>
      </trkpt>
      <trkpt lat="47.07371" lon="5.52694">
        <ele>240</ele>
        <time>2012-09-18T15:34:39Z</time>
      </trkpt>
      <trkpt lat="47.07365" lon="5.52671">
        <ele>240</ele>
        <time>2012-09-18T15:34:41Z</time>
      </trkpt>
      <trkpt lat="47.07363" lon="5.52659">
        <ele>240</ele>
        <time>2012-09-18T15:34:42Z</time>
      </trkpt>
      <trkpt lat="47.07362" lon="5.52645">
        <ele>240</ele>
        <time>2012-09-18T15:34:43Z</time>
      </trkpt>
      <trkpt lat="47.07366" lon="5.52622">
        <ele>240</ele>
        <time>2012-09-18T15:34:45Z</time>
      </trkpt>
      <trkpt lat="47.07377" lon="5.52603">
        <ele>240</ele>
        <time>2012-09-18T15:34:47Z</time>
      </trkpt>
      <trkpt lat="47.07387" lon="5.52591">
        <ele>234</ele>
        <time>2012-09-18T15:34:49Z</time>
      </trkpt>
      <trkpt lat="47.07395" lon="5.5258">
        <ele>234</ele>
        <time>2012-09-18T15:34:51Z</time>
      </trkpt>
      <trkpt lat="47.07403" lon="5.52567">
        <ele>234</ele>
        <time>2012-09-18T15:34:53Z</time>
      </trkpt>
      <trkpt lat="47.07409" lon="5.52556">
        <ele>234</ele>
        <time>2012-09-18T15:34:55Z</time>
      </trkpt>
      <trkpt lat="47.07414" lon="5.52542">
        <ele>234</ele>
        <time>2012-09-18T15:34:57Z</time>
      </trkpt>
      <trkpt lat="47.07419" lon="5.52531">
        <ele>234</ele>
        <time>2012-09-18T15:34:59Z</time>
      </trkpt>
      <trkpt lat="47.07424" lon="5.5252">
        <ele>234</ele>
        <time>2012-09-18T15:35:01Z</time>
      </trkpt>
      <trkpt lat="47.07427" lon="5.52507">
        <ele>234</ele>
        <time>2012-09-18T15:35:03Z</time>
      </trkpt>
      <trkpt lat="47.07432" lon="5.52495">
        <ele>234</ele>
        <time>2012-09-18T15:35:05Z</time>
      </trkpt>
      <trkpt lat="47.07438" lon="5.52484">
        <ele>234</ele>
        <time>2012-09-18T15:35:07Z</time>
      </trkpt>
      <trkpt lat="47.07442" lon="5.52471">
        <ele>234</ele>
        <time>2012-09-18T15:35:09Z</time>
      </trkpt>
      <trkpt lat="47.07445" lon="5.52459">
        <ele>234</ele>
        <time>2012-09-18T15:35:11Z</time>
      </trkpt>
      <trkpt lat="47.0745" lon="5.52447">
        <ele>240</ele>
        <time>2012-09-18T15:35:13Z</time>
      </trkpt>
      <trkpt lat="47.07453" lon="5.52433">
        <ele>240</ele>
        <time>2012-09-18T15:35:15Z</time>
      </trkpt>
      <trkpt lat="47.07458" lon="5.5242">
        <ele>240</ele>
        <time>2012-09-18T15:35:17Z</time>
      </trkpt>
      <trkpt lat="47.07462" lon="5.52405">
        <ele>240</ele>
        <time>2012-09-18T15:35:19Z</time>
      </trkpt>
      <trkpt lat="47.07466" lon="5.52389">
        <ele>240</ele>
        <time>2012-09-18T15:35:21Z</time>
      </trkpt>
      <trkpt lat="47.07471" lon="5.52376">
        <ele>240</ele>
        <time>2012-09-18T15:35:23Z</time>
      </trkpt>
      <trkpt lat="47.07476" lon="5.5236">
        <ele>240</ele>
        <time>2012-09-18T15:35:25Z</time>
      </trkpt>
      <trkpt lat="47.07479" lon="5.52344">
        <ele>240</ele>
        <time>2012-09-18T15:35:27Z</time>
      </trkpt>
      <trkpt lat="47.07483" lon="5.52327">
        <ele>240</ele>
        <time>2012-09-18T15:35:29Z</time>
      </trkpt>
      <trkpt lat="47.07486" lon="5.52313">
        <ele>240</ele>
        <time>2012-09-18T15:35:31Z</time>
      </trkpt>
      <trkpt lat="47.0749" lon="5.52297">
        <ele>240</ele>
        <time>2012-09-18T15:35:33Z</time>
      </trkpt>
      <trkpt lat="47.07494" lon="5.52279">
        <ele>240</ele>
        <time>2012-09-18T15:35:35Z</time>
      </trkpt>
      <trkpt lat="47.07498" lon="5.52264">
        <ele>240</ele>
        <time>2012-09-18T15:35:37Z</time>
      </trkpt>
      <trkpt lat="47.07501" lon="5.52247">
        <ele>240</ele>
        <time>2012-09-18T15:35:39Z</time>
      </trkpt>
      <trkpt lat="47.07504" lon="5.52231">
        <ele>240</ele>
        <time>2012-09-18T15:35:41Z</time>
      </trkpt>
      <trkpt lat="47.07508" lon="5.52218">
        <ele>240</ele>
        <time>2012-09-18T15:35:43Z</time>
      </trkpt>
      <trkpt lat="47.07512" lon="5.52203">
        <ele>240</ele>
        <time>2012-09-18T15:35:45Z</time>
      </trkpt>
      <trkpt lat="47.07515" lon="5.52189">
        <ele>240</ele>
        <time>2012-09-18T15:35:47Z</time>
      </trkpt>
      <trkpt lat="47.0752" lon="5.52174">
        <ele>240</ele>
        <time>2012-09-18T15:35:49Z</time>
      </trkpt>
      <trkpt lat="47.07523" lon="5.52159">
        <ele>240</ele>
        <time>2012-09-18T15:35:51Z</time>
      </trkpt>
      <trkpt lat="47.07527" lon="5.52142">
        <ele>240</ele>
        <time>2012-09-18T15:35:53Z</time>
      </trkpt>
      <trkpt lat="47.07532" lon="5.52126">
        <ele>240</ele>
        <time>2012-09-18T15:35:55Z</time>
      </trkpt>
      <trkpt lat="47.07535" lon="5.52109">
        <ele>240</ele>
        <time>2012-09-18T15:35:57Z</time>
      </trkpt>
      <trkpt lat="47.07539" lon="5.52092">
        <ele>240</ele>
        <time>2012-09-18T15:35:59Z</time>
      </trkpt>
      <trkpt lat="47.07544" lon="5.52078">
        <ele>240</ele>
        <time>2012-09-18T15:36:01Z</time>
      </trkpt>
      <trkpt lat="47.07547" lon="5.52064">
        <ele>240</ele>
        <time>2012-09-18T15:36:03Z</time>
      </trkpt>
      <trkpt lat="47.07551" lon="5.52049">
        <ele>240</ele>
        <time>2012-09-18T15:36:05Z</time>
      </trkpt>
      <trkpt lat="47.07554" lon="5.52032">
        <ele>240</ele>
        <time>2012-09-18T15:36:07Z</time>
      </trkpt>
      <trkpt lat="47.07558" lon="5.52013">
        <ele>240</ele>
        <time>2012-09-18T15:36:10Z</time>
      </trkpt>
      <trkpt lat="47.07561" lon="5.51998">
        <ele>240</ele>
        <time>2012-09-18T15:36:12Z</time>
      </trkpt>
      <trkpt lat="47.07564" lon="5.51981">
        <ele>240</ele>
        <time>2012-09-18T15:36:14Z</time>
      </trkpt>
      <trkpt lat="47.07567" lon="5.51964">
        <ele>240</ele>
        <time>2012-09-18T15:36:16Z</time>
      </trkpt>
      <trkpt lat="47.07571" lon="5.51949">
        <ele>240</ele>
        <time>2012-09-18T15:36:18Z</time>
      </trkpt>
      <trkpt lat="47.07576" lon="5.51935">
        <ele>240</ele>
        <time>2012-09-18T15:36:20Z</time>
      </trkpt>
      <trkpt lat="47.07579" lon="5.5192">
        <ele>240</ele>
        <time>2012-09-18T15:36:22Z</time>
      </trkpt>
      <trkpt lat="47.07584" lon="5.51907">
        <ele>240</ele>
        <time>2012-09-18T15:36:24Z</time>
      </trkpt>
      <trkpt lat="47.07587" lon="5.51893">
        <ele>240</ele>
        <time>2012-09-18T15:36:26Z</time>
      </trkpt>
      <trkpt lat="47.07589" lon="5.51877">
        <ele>240</ele>
        <time>2012-09-18T15:36:28Z</time>
      </trkpt>
      <trkpt lat="47.07593" lon="5.51865">
        <ele>240</ele>
        <time>2012-09-18T15:36:30Z</time>
      </trkpt>
      <trkpt lat="47.07598" lon="5.51847">
        <ele>240</ele>
        <time>2012-09-18T15:36:33Z</time>
      </trkpt>
      <trkpt lat="47.07601" lon="5.51829">
        <ele>240</ele>
        <time>2012-09-18T15:36:36Z</time>
      </trkpt>
      <trkpt lat="47.07606" lon="5.51811">
        <ele>240</ele>
        <time>2012-09-18T15:36:39Z</time>
      </trkpt>
      <trkpt lat="47.07609" lon="5.51798">
        <ele>240</ele>
        <time>2012-09-18T15:36:41Z</time>
      </trkpt>
      <trkpt lat="47.07612" lon="5.51785">
        <ele>240</ele>
        <time>2012-09-18T15:36:43Z</time>
      </trkpt>
      <trkpt lat="47.07616" lon="5.51772">
        <ele>240</ele>
        <time>2012-09-18T15:36:45Z</time>
      </trkpt>
      <trkpt lat="47.07619" lon="5.51758">
        <ele>240</ele>
        <time>2012-09-18T15:36:47Z</time>
      </trkpt>
      <trkpt lat="47.07623" lon="5.51743">
        <ele>240</ele>
        <time>2012-09-18T15:36:49Z</time>
      </trkpt>
      <trkpt lat="47.07627" lon="5.51728">
        <ele>240</ele>
        <time>2012-09-18T15:36:51Z</time>
      </trkpt>
      <trkpt lat="47.07632" lon="5.51714">
        <ele>240</ele>
        <time>2012-09-18T15:36:53Z</time>
      </trkpt>
      <trkpt lat="47.07637" lon="5.51698">
        <ele>240</ele>
        <time>2012-09-18T15:36:55Z</time>
      </trkpt>
      <trkpt lat="47.07641" lon="5.51682">
        <ele>240</ele>
        <time>2012-09-18T15:36:57Z</time>
      </trkpt>
      <trkpt lat="47.07647" lon="5.51666">
        <ele>240</ele>
        <time>2012-09-18T15:36:59Z</time>
      </trkpt>
      <trkpt lat="47.07652" lon="5.5165">
        <ele>240</ele>
        <time>2012-09-18T15:37:01Z</time>
      </trkpt>
      <trkpt lat="47.07657" lon="5.51635">
        <ele>240</ele>
        <time>2012-09-18T15:37:03Z</time>
      </trkpt>
      <trkpt lat="47.07662" lon="5.5162">
        <ele>240</ele>
        <time>2012-09-18T15:37:05Z</time>
      </trkpt>
      <trkpt lat="47.07668" lon="5.51606">
        <ele>240</ele>
        <time>2012-09-18T15:37:07Z</time>
      </trkpt>
      <trkpt lat="47.07673" lon="5.51592">
        <ele>240</ele>
        <time>2012-09-18T15:37:09Z</time>
      </trkpt>
      <trkpt lat="47.07677" lon="5.51578">
        <ele>240</ele>
        <time>2012-09-18T15:37:11Z</time>
      </trkpt>
      <trkpt lat="47.07681" lon="5.51566">
        <ele>240</ele>
        <time>2012-09-18T15:37:13Z</time>
      </trkpt>
      <trkpt lat="47.07685" lon="5.51552">
        <ele>240</ele>
        <time>2012-09-18T15:37:15Z</time>
      </trkpt>
      <trkpt lat="47.07689" lon="5.51538">
        <ele>240</ele>
        <time>2012-09-18T15:37:17Z</time>
      </trkpt>
      <trkpt lat="47.07692" lon="5.51524">
        <ele>240</ele>
        <time>2012-09-18T15:37:19Z</time>
      </trkpt>
      <trkpt lat="47.07695" lon="5.5151">
        <ele>240</ele>
        <time>2012-09-18T15:37:21Z</time>
      </trkpt>
      <trkpt lat="47.07699" lon="5.51495">
        <ele>240</ele>
        <time>2012-09-18T15:37:23Z</time>
      </trkpt>
      <trkpt lat="47.07702" lon="5.5148">
        <ele>240</ele>
        <time>2012-09-18T15:37:25Z</time>
      </trkpt>
      <trkpt lat="47.07704" lon="5.51465">
        <ele>240</ele>
        <time>2012-09-18T15:37:27Z</time>
      </trkpt>
      <trkpt lat="47.07708" lon="5.51451">
        <ele>240</ele>
        <time>2012-09-18T15:37:29Z</time>
      </trkpt>
      <trkpt lat="47.0771" lon="5.51436">
        <ele>240</ele>
        <time>2012-09-18T15:37:31Z</time>
      </trkpt>
      <trkpt lat="47.07713" lon="5.51421">
        <ele>240</ele>
        <time>2012-09-18T15:37:33Z</time>
      </trkpt>
      <trkpt lat="47.07716" lon="5.51407">
        <ele>240</ele>
        <time>2012-09-18T15:37:35Z</time>
      </trkpt>
      <trkpt lat="47.07719" lon="5.51392">
        <ele>240</ele>
        <time>2012-09-18T15:37:37Z</time>
      </trkpt>
      <trkpt lat="47.07722" lon="5.51378">
        <ele>240</ele>
        <time>2012-09-18T15:37:39Z</time>
      </trkpt>
      <trkpt lat="47.07724" lon="5.51364">
        <ele>240</ele>
        <time>2012-09-18T15:37:41Z</time>
      </trkpt>
      <trkpt lat="47.07727" lon="5.51349">
        <ele>240</ele>
        <time>2012-09-18T15:37:43Z</time>
      </trkpt>
      <trkpt lat="47.07731" lon="5.51334">
        <ele>240</ele>
        <time>2012-09-18T15:37:45Z</time>
      </trkpt>
      <trkpt lat="47.07734" lon="5.51319">
        <ele>240</ele>
        <time>2012-09-18T15:37:47Z</time>
      </trkpt>
      <trkpt lat="47.07737" lon="5.51304">
        <ele>240</ele>
        <time>2012-09-18T15:37:49Z</time>
      </trkpt>
      <trkpt lat="47.07739" lon="5.5129">
        <ele>240</ele>
        <time>2012-09-18T15:37:51Z</time>
      </trkpt>
      <trkpt lat="47.07743" lon="5.51275">
        <ele>240</ele>
        <time>2012-09-18T15:37:53Z</time>
      </trkpt>
      <trkpt lat="47.07745" lon="5.51258">
        <ele>235</ele>
        <time>2012-09-18T15:37:55Z</time>
      </trkpt>
      <trkpt lat="47.07746" lon="5.51241">
        <ele>235</ele>
        <time>2012-09-18T15:37:57Z</time>
      </trkpt>
      <trkpt lat="47.07747" lon="5.51224">
        <ele>235</ele>
        <time>2012-09-18T15:37:59Z</time>
      </trkpt>
      <trkpt lat="47.07748" lon="5.51206">
        <ele>235</ele>
        <time>2012-09-18T15:38:01Z</time>
      </trkpt>
      <trkpt lat="47.07748" lon="5.51187">
        <ele>235</ele>
        <time>2012-09-18T15:38:03Z</time>
      </trkpt>
      <trkpt lat="47.07748" lon="5.51169">
        <ele>235</ele>
        <time>2012-09-18T15:38:05Z</time>
      </trkpt>
      <trkpt lat="47.07747" lon="5.51153">
        <ele>235</ele>
        <time>2012-09-18T15:38:07Z</time>
      </trkpt>
      <trkpt lat="47.07747" lon="5.51136">
        <ele>235</ele>
        <time>2012-09-18T15:38:09Z</time>
      </trkpt>
      <trkpt lat="47.07745" lon="5.51119">
        <ele>235</ele>
        <time>2012-09-18T15:38:11Z</time>
      </trkpt>
      <trkpt lat="47.07741" lon="5.51103">
        <ele>235</ele>
        <time>2012-09-18T15:38:13Z</time>
      </trkpt>
      <trkpt lat="47.07738" lon="5.51087">
        <ele>235</ele>
        <time>2012-09-18T15:38:15Z</time>
      </trkpt>
      <trkpt lat="47.07735" lon="5.51072">
        <ele>235</ele>
        <time>2012-09-18T15:38:17Z</time>
      </trkpt>
      <trkpt lat="47.07731" lon="5.51056">
        <ele>235</ele>
        <time>2012-09-18T15:38:19Z</time>
      </trkpt>
      <trkpt lat="47.07729" lon="5.5104">
        <ele>235</ele>
        <time>2012-09-18T15:38:21Z</time>
      </trkpt>
      <trkpt lat="47.07728" lon="5.51024">
        <ele>235</ele>
        <time>2012-09-18T15:38:23Z</time>
      </trkpt>
      <trkpt lat="47.07729" lon="5.51007">
        <ele>235</ele>
        <time>2012-09-18T15:38:25Z</time>
      </trkpt>
      <trkpt lat="47.07732" lon="5.5099">
        <ele>235</ele>
        <time>2012-09-18T15:38:27Z</time>
      </trkpt>
      <trkpt lat="47.07738" lon="5.50975">
        <ele>235</ele>
        <time>2012-09-18T15:38:29Z</time>
      </trkpt>
      <trkpt lat="47.07746" lon="5.50962">
        <ele>235</ele>
        <time>2012-09-18T15:38:31Z</time>
      </trkpt>
      <trkpt lat="47.07755" lon="5.5095">
        <ele>235</ele>
        <time>2012-09-18T15:38:33Z</time>
      </trkpt>
      <trkpt lat="47.07763" lon="5.50941">
        <ele>235</ele>
        <time>2012-09-18T15:38:35Z</time>
      </trkpt>
      <trkpt lat="47.07772" lon="5.50931">
        <ele>235</ele>
        <time>2012-09-18T15:38:37Z</time>
      </trkpt>
      <trkpt lat="47.0778" lon="5.50922">
        <ele>235</ele>
        <time>2012-09-18T15:38:39Z</time>
      </trkpt>
      <trkpt lat="47.07787" lon="5.50913">
        <ele>235</ele>
        <time>2012-09-18T15:38:41Z</time>
      </trkpt>
      <trkpt lat="47.07798" lon="5.50903">
        <ele>235</ele>
        <time>2012-09-18T15:38:44Z</time>
      </trkpt>
      <trkpt lat="47.07809" lon="5.50891">
        <ele>235</ele>
        <time>2012-09-18T15:38:47Z</time>
      </trkpt>
      <trkpt lat="47.07816" lon="5.50883">
        <ele>235</ele>
        <time>2012-09-18T15:38:49Z</time>
      </trkpt>
      <trkpt lat="47.07824" lon="5.50875">
        <ele>235</ele>
        <time>2012-09-18T15:38:51Z</time>
      </trkpt>
      <trkpt lat="47.07831" lon="5.50867">
        <ele>235</ele>
        <time>2012-09-18T15:38:53Z</time>
      </trkpt>
      <trkpt lat="47.07838" lon="5.50859">
        <ele>235</ele>
        <time>2012-09-18T15:38:55Z</time>
      </trkpt>
      <trkpt lat="47.07849" lon="5.50847">
        <ele>235</ele>
        <time>2012-09-18T15:38:58Z</time>
      </trkpt>
      <trkpt lat="47.07857" lon="5.50839">
        <ele>235</ele>
        <time>2012-09-18T15:39:00Z</time>
      </trkpt>
      <trkpt lat="47.07865" lon="5.50831">
        <ele>235</ele>
        <time>2012-09-18T15:39:02Z</time>
      </trkpt>
      <trkpt lat="47.07873" lon="5.50824">
        <ele>235</ele>
        <time>2012-09-18T15:39:04Z</time>
      </trkpt>
      <trkpt lat="47.07881" lon="5.50817">
        <ele>235</ele>
        <time>2012-09-18T15:39:06Z</time>
      </trkpt>
      <trkpt lat="47.0789" lon="5.5081">
        <ele>235</ele>
        <time>2012-09-18T15:39:08Z</time>
      </trkpt>
      <trkpt lat="47.07898" lon="5.50803">
        <ele>235</ele>
        <time>2012-09-18T15:39:10Z</time>
      </trkpt>
      <trkpt lat="47.07907" lon="5.50796">
        <ele>235</ele>
        <time>2012-09-18T15:39:12Z</time>
      </trkpt>
      <trkpt lat="47.07916" lon="5.50789">
        <ele>235</ele>
        <time>2012-09-18T15:39:14Z</time>
      </trkpt>
      <trkpt lat="47.07925" lon="5.50781">
        <ele>235</ele>
        <time>2012-09-18T15:39:16Z</time>
      </trkpt>
      <trkpt lat="47.07935" lon="5.50773">
        <ele>235</ele>
        <time>2012-09-18T15:39:18Z</time>
      </trkpt>
      <trkpt lat="47.07944" lon="5.50765">
        <ele>235</ele>
        <time>2012-09-18T15:39:20Z</time>
      </trkpt>
      <trkpt lat="47.07954" lon="5.50757">
        <ele>235</ele>
        <time>2012-09-18T15:39:22Z</time>
      </trkpt>
      <trkpt lat="47.07963" lon="5.5075">
        <ele>235</ele>
        <time>2012-09-18T15:39:24Z</time>
      </trkpt>
      <trkpt lat="47.07973" lon="5.50742">
        <ele>235</ele>
        <time>2012-09-18T15:39:26Z</time>
      </trkpt>
      <trkpt lat="47.07983" lon="5.50735">
        <ele>235</ele>
        <time>2012-09-18T15:39:28Z</time>
      </trkpt>
      <trkpt lat="47.07992" lon="5.50728">
        <ele>235</ele>
        <time>2012-09-18T15:39:30Z</time>
      </trkpt>
      <trkpt lat="47.08001" lon="5.5072">
        <ele>235</ele>
        <time>2012-09-18T15:39:32Z</time>
      </trkpt>
      <trkpt lat="47.08011" lon="5.50713">
        <ele>235</ele>
        <time>2012-09-18T15:39:34Z</time>
      </trkpt>
      <trkpt lat="47.0802" lon="5.50706">
        <ele>235</ele>
        <time>2012-09-18T15:39:36Z</time>
      </trkpt>
      <trkpt lat="47.08028" lon="5.50697">
        <ele>235</ele>
        <time>2012-09-18T15:39:38Z</time>
      </trkpt>
      <trkpt lat="47.08038" lon="5.50688">
        <ele>235</ele>
        <time>2012-09-18T15:39:40Z</time>
      </trkpt>
      <trkpt lat="47.08048" lon="5.50679">
        <ele>235</ele>
        <time>2012-09-18T15:39:42Z</time>
      </trkpt>
      <trkpt lat="47.08057" lon="5.50668">
        <ele>235</ele>
        <time>2012-09-18T15:39:44Z</time>
      </trkpt>
      <trkpt lat="47.08067" lon="5.50657">
        <ele>235</ele>
        <time>2012-09-18T15:39:46Z</time>
      </trkpt>
      <trkpt lat="47.08076" lon="5.50645">
        <ele>235</ele>
        <time>2012-09-18T15:39:48Z</time>
      </trkpt>
      <trkpt lat="47.08087" lon="5.50633">
        <ele>235</ele>
        <time>2012-09-18T15:39:50Z</time>
      </trkpt>
      <trkpt lat="47.08097" lon="5.50622">
        <ele>235</ele>
        <time>2012-09-18T15:39:52Z</time>
      </trkpt>
      <trkpt lat="47.08106" lon="5.5061">
        <ele>235</ele>
        <time>2012-09-18T15:39:54Z</time>
      </trkpt>
      <trkpt lat="47.08116" lon="5.50598">
        <ele>235</ele>
        <time>2012-09-18T15:39:56Z</time>
      </trkpt>
      <trkpt lat="47.08125" lon="5.50586">
        <ele>235</ele>
        <time>2012-09-18T15:39:58Z</time>
      </trkpt>
      <trkpt lat="47.08135" lon="5.50576">
        <ele>235</ele>
        <time>2012-09-18T15:40:00Z</time>
      </trkpt>
      <trkpt lat="47.08144" lon="5.50566">
        <ele>235</ele>
        <time>2012-09-18T15:40:02Z</time>
      </trkpt>
      <trkpt lat="47.08153" lon="5.50554">
        <ele>235</ele>
        <time>2012-09-18T15:40:04Z</time>
      </trkpt>
      <trkpt lat="47.08162" lon="5.50542">
        <ele>235</ele>
        <time>2012-09-18T15:40:06Z</time>
      </trkpt>
      <trkpt lat="47.08172" lon="5.50531">
        <ele>235</ele>
        <time>2012-09-18T15:40:08Z</time>
      </trkpt>
      <trkpt lat="47.08181" lon="5.50518">
        <ele>235</ele>
        <time>2012-09-18T15:40:10Z</time>
      </trkpt>
      <trkpt lat="47.08186" lon="5.50501">
        <ele>235</ele>
        <time>2012-09-18T15:40:12Z</time>
      </trkpt>
      <trkpt lat="47.08184" lon="5.50483">
        <ele>235</ele>
        <time>2012-09-18T15:40:14Z</time>
      </trkpt>
      <trkpt lat="47.08182" lon="5.50466">
        <ele>235</ele>
        <time>2012-09-18T15:40:16Z</time>
      </trkpt>
      <trkpt lat="47.0818" lon="5.50448">
        <ele>235</ele>
        <time>2012-09-18T15:40:18Z</time>
      </trkpt>
      <trkpt lat="47.08179" lon="5.5043">
        <ele>235</ele>
        <time>2012-09-18T15:40:20Z</time>
      </trkpt>
      <trkpt lat="47.0818" lon="5.50412">
        <ele>235</ele>
        <time>2012-09-18T15:40:22Z</time>
      </trkpt>
      <trkpt lat="47.08181" lon="5.50394">
        <ele>235</ele>
        <time>2012-09-18T15:40:24Z</time>
      </trkpt>
      <trkpt lat="47.08181" lon="5.50375">
        <ele>235</ele>
        <time>2012-09-18T15:40:26Z</time>
      </trkpt>
      <trkpt lat="47.08183" lon="5.50357">
        <ele>235</ele>
        <time>2012-09-18T15:40:28Z</time>
      </trkpt>
      <trkpt lat="47.08183" lon="5.50337">
        <ele>235</ele>
        <time>2012-09-18T15:40:30Z</time>
      </trkpt>
      <trkpt lat="47.08184" lon="5.50318">
        <ele>235</ele>
        <time>2012-09-18T15:40:32Z</time>
      </trkpt>
      <trkpt lat="47.08185" lon="5.50298">
        <ele>235</ele>
        <time>2012-09-18T15:40:34Z</time>
      </trkpt>
      <trkpt lat="47.08186" lon="5.50277">
        <ele>235</ele>
        <time>2012-09-18T15:40:36Z</time>
      </trkpt>
      <trkpt lat="47.08186" lon="5.50257">
        <ele>229</ele>
        <time>2012-09-18T15:40:38Z</time>
      </trkpt>
      <trkpt lat="47.08186" lon="5.50236">
        <ele>229</ele>
        <time>2012-09-18T15:40:40Z</time>
      </trkpt>
      <trkpt lat="47.08184" lon="5.50215">
        <ele>229</ele>
        <time>2012-09-18T15:40:42Z</time>
      </trkpt>
      <trkpt lat="47.08181" lon="5.50194">
        <ele>229</ele>
        <time>2012-09-18T15:40:44Z</time>
      </trkpt>
      <trkpt lat="47.08176" lon="5.50173">
        <ele>229</ele>
        <time>2012-09-18T15:40:46Z</time>
      </trkpt>
      <trkpt lat="47.08171" lon="5.50153">
        <ele>229</ele>
        <time>2012-09-18T15:40:48Z</time>
      </trkpt>
      <trkpt lat="47.08167" lon="5.50133">
        <ele>229</ele>
        <time>2012-09-18T15:40:50Z</time>
      </trkpt>
      <trkpt lat="47.08166" lon="5.5011">
        <ele>229</ele>
        <time>2012-09-18T15:40:52Z</time>
      </trkpt>
      <trkpt lat="47.08167" lon="5.50088">
        <ele>229</ele>
        <time>2012-09-18T15:40:54Z</time>
      </trkpt>
      <trkpt lat="47.08169" lon="5.50066">
        <ele>229</ele>
        <time>2012-09-18T15:40:56Z</time>
      </trkpt>
      <trkpt lat="47.08171" lon="5.50045">
        <ele>229</ele>
        <time>2012-09-18T15:40:58Z</time>
      </trkpt>
      <trkpt lat="47.08173" lon="5.50024">
        <ele>229</ele>
        <time>2012-09-18T15:41:00Z</time>
      </trkpt>
      <trkpt lat="47.08175" lon="5.50003">
        <ele>229</ele>
        <time>2012-09-18T15:41:02Z</time>
      </trkpt>
      <trkpt lat="47.08176" lon="5.49983">
        <ele>224</ele>
        <time>2012-09-18T15:41:04Z</time>
      </trkpt>
      <trkpt lat="47.08178" lon="5.49963">
        <ele>224</ele>
        <time>2012-09-18T15:41:06Z</time>
      </trkpt>
      <trkpt lat="47.08179" lon="5.49944">
        <ele>224</ele>
        <time>2012-09-18T15:41:08Z</time>
      </trkpt>
      <trkpt lat="47.08181" lon="5.49926">
        <ele>224</ele>
        <time>2012-09-18T15:41:10Z</time>
      </trkpt>
      <trkpt lat="47.08183" lon="5.4991">
        <ele>224</ele>
        <time>2012-09-18T15:41:12Z</time>
      </trkpt>
      <trkpt lat="47.08185" lon="5.49895">
        <ele>224</ele>
        <time>2012-09-18T15:41:14Z</time>
      </trkpt>
      <trkpt lat="47.08186" lon="5.49879">
        <ele>224</ele>
        <time>2012-09-18T15:41:17Z</time>
      </trkpt>
      <trkpt lat="47.08189" lon="5.49867">
        <ele>224</ele>
        <time>2012-09-18T15:41:23Z</time>
      </trkpt>
      <trkpt lat="47.08188" lon="5.49853">
        <ele>230</ele>
        <time>2012-09-18T15:41:28Z</time>
      </trkpt>
      <trkpt lat="47.08194" lon="5.49839">
        <ele>230</ele>
        <time>2012-09-18T15:41:32Z</time>
      </trkpt>
      <trkpt lat="47.08203" lon="5.49835">
        <ele>230</ele>
        <time>2012-09-18T15:41:34Z</time>
      </trkpt>
      <trkpt lat="47.08215" lon="5.49831">
        <ele>230</ele>
        <time>2012-09-18T15:41:37Z</time>
      </trkpt>
      <trkpt lat="47.08225" lon="5.49828">
        <ele>236</ele>
        <time>2012-09-18T15:41:39Z</time>
      </trkpt>
      <trkpt lat="47.08236" lon="5.49826">
        <ele>236</ele>
        <time>2012-09-18T15:41:41Z</time>
      </trkpt>
      <trkpt lat="47.08247" lon="5.49823">
        <ele>236</ele>
        <time>2012-09-18T15:41:43Z</time>
      </trkpt>
      <trkpt lat="47.0826" lon="5.49821">
        <ele>236</ele>
        <time>2012-09-18T15:41:45Z</time>
      </trkpt>
      <trkpt lat="47.08273" lon="5.49817">
        <ele>242</ele>
        <time>2012-09-18T15:41:47Z</time>
      </trkpt>
      <trkpt lat="47.08289" lon="5.49811">
        <ele>242</ele>
        <time>2012-09-18T15:41:49Z</time>
      </trkpt>
      <trkpt lat="47.08304" lon="5.49803">
        <ele>242</ele>
        <time>2012-09-18T15:41:51Z</time>
      </trkpt>
      <trkpt lat="47.08319" lon="5.49793">
        <ele>242</ele>
        <time>2012-09-18T15:41:53Z</time>
      </trkpt>
      <trkpt lat="47.08335" lon="5.49784">
        <ele>242</ele>
        <time>2012-09-18T15:41:55Z</time>
      </trkpt>
      <trkpt lat="47.0835" lon="5.49775">
        <ele>236</ele>
        <time>2012-09-18T15:41:57Z</time>
      </trkpt>
      <trkpt lat="47.08365" lon="5.49766">
        <ele>236</ele>
        <time>2012-09-18T15:41:59Z</time>
      </trkpt>
      <trkpt lat="47.08374" lon="5.4976">
        <ele>236</ele>
        <time>2012-09-18T15:42:00Z</time>
      </trkpt>
      <trkpt lat="47.08391" lon="5.49748">
        <ele>236</ele>
        <time>2012-09-18T15:42:02Z</time>
      </trkpt>
      <trkpt lat="47.08399" lon="5.49744">
        <ele>236</ele>
        <time>2012-09-18T15:42:03Z</time>
      </trkpt>
      <trkpt lat="47.08408" lon="5.49738">
        <ele>236</ele>
        <time>2012-09-18T15:42:04Z</time>
      </trkpt>
      <trkpt lat="47.08418" lon="5.49731">
        <ele>236</ele>
        <time>2012-09-18T15:42:05Z</time>
      </trkpt>
      <trkpt lat="47.08428" lon="5.49726">
        <ele>229</ele>
        <time>2012-09-18T15:42:06Z</time>
      </trkpt>
      <trkpt lat="47.08437" lon="5.4972">
        <ele>229</ele>
        <time>2012-09-18T15:42:07Z</time>
      </trkpt>
      <trkpt lat="47.08447" lon="5.49714">
        <ele>229</ele>
        <time>2012-09-18T15:42:08Z</time>
      </trkpt>
      <trkpt lat="47.08456" lon="5.49708">
        <ele>229</ele>
        <time>2012-09-18T15:42:09Z</time>
      </trkpt>
      <trkpt lat="47.08466" lon="5.49702">
        <ele>223</ele>
        <time>2012-09-18T15:42:10Z</time>
      </trkpt>
      <trkpt lat="47.08475" lon="5.49697">
        <ele>223</ele>
        <time>2012-09-18T15:42:11Z</time>
      </trkpt>
      <trkpt lat="47.08484" lon="5.49693">
        <ele>223</ele>
        <time>2012-09-18T15:42:12Z</time>
      </trkpt>
      <trkpt lat="47.08494" lon="5.49686">
        <ele>223</ele>
        <time>2012-09-18T15:42:13Z</time>
      </trkpt>
      <trkpt lat="47.08503" lon="5.49681">
        <ele>217</ele>
        <time>2012-09-18T15:42:14Z</time>
      </trkpt>
      <trkpt lat="47.08512" lon="5.49676">
        <ele>217</ele>
        <time>2012-09-18T15:42:15Z</time>
      </trkpt>
      <trkpt lat="47.08522" lon="5.4967">
        <ele>217</ele>
        <time>2012-09-18T15:42:16Z</time>
      </trkpt>
      <trkpt lat="47.08532" lon="5.49665">
        <ele>217</ele>
        <time>2012-09-18T15:42:17Z</time>
      </trkpt>
      <trkpt lat="47.08541" lon="5.49659">
        <ele>217</ele>
        <time>2012-09-18T15:42:18Z</time>
      </trkpt>
      <trkpt lat="47.08551" lon="5.49653">
        <ele>217</ele>
        <time>2012-09-18T15:42:19Z</time>
      </trkpt>
      <trkpt lat="47.08561" lon="5.49647">
        <ele>212</ele>
        <time>2012-09-18T15:42:20Z</time>
      </trkpt>
      <trkpt lat="47.0857" lon="5.49641">
        <ele>212</ele>
        <time>2012-09-18T15:42:21Z</time>
      </trkpt>
      <trkpt lat="47.08579" lon="5.49635">
        <ele>212</ele>
        <time>2012-09-18T15:42:22Z</time>
      </trkpt>
      <trkpt lat="47.08588" lon="5.4963">
        <ele>212</ele>
        <time>2012-09-18T15:42:23Z</time>
      </trkpt>
      <trkpt lat="47.08605" lon="5.49619">
        <ele>212</ele>
        <time>2012-09-18T15:42:25Z</time>
      </trkpt>
      <trkpt lat="47.0862" lon="5.4961">
        <ele>212</ele>
        <time>2012-09-18T15:42:27Z</time>
      </trkpt>
      <trkpt lat="47.08635" lon="5.496">
        <ele>207</ele>
        <time>2012-09-18T15:42:29Z</time>
      </trkpt>
      <trkpt lat="47.08649" lon="5.49591">
        <ele>207</ele>
        <time>2012-09-18T15:42:31Z</time>
      </trkpt>
      <trkpt lat="47.08662" lon="5.49584">
        <ele>207</ele>
        <time>2012-09-18T15:42:33Z</time>
      </trkpt>
      <trkpt lat="47.08673" lon="5.49579">
        <ele>207</ele>
        <time>2012-09-18T15:42:35Z</time>
      </trkpt>
      <trkpt lat="47.08684" lon="5.49586">
        <ele>207</ele>
        <time>2012-09-18T15:42:38Z</time>
      </trkpt>
      <trkpt lat="47.08692" lon="5.49592">
        <ele>207</ele>
        <time>2012-09-18T15:42:41Z</time>
      </trkpt>
      <trkpt lat="47.08707" lon="5.49592">
        <ele>207</ele>
        <time>2012-09-18T15:42:44Z</time>
      </trkpt>
      <trkpt lat="47.08716" lon="5.49586">
        <ele>202</ele>
        <time>2012-09-18T15:42:46Z</time>
      </trkpt>
      <trkpt lat="47.08722" lon="5.49574">
        <ele>202</ele>
        <time>2012-09-18T15:42:48Z</time>
      </trkpt>
      <trkpt lat="47.08724" lon="5.49558">
        <ele>202</ele>
        <time>2012-09-18T15:42:50Z</time>
      </trkpt>
      <trkpt lat="47.08729" lon="5.49544">
        <ele>202</ele>
        <time>2012-09-18T15:42:52Z</time>
      </trkpt>
      <trkpt lat="47.08738" lon="5.49535">
        <ele>202</ele>
        <time>2012-09-18T15:42:55Z</time>
      </trkpt>
      <trkpt lat="47.08749" lon="5.49527">
        <ele>202</ele>
        <time>2012-09-18T15:42:59Z</time>
      </trkpt>
      <trkpt lat="47.08762" lon="5.49519">
        <ele>202</ele>
        <time>2012-09-18T15:43:02Z</time>
      </trkpt>
      <trkpt lat="47.08774" lon="5.4951">
        <ele>202</ele>
        <time>2012-09-18T15:43:05Z</time>
      </trkpt>
      <trkpt lat="47.08783" lon="5.49503">
        <ele>202</ele>
        <time>2012-09-18T15:43:07Z</time>
      </trkpt>
      <trkpt lat="47.08792" lon="5.49497">
        <ele>202</ele>
        <time>2012-09-18T15:43:09Z</time>
      </trkpt>
      <trkpt lat="47.08802" lon="5.4949">
        <ele>202</ele>
        <time>2012-09-18T15:43:11Z</time>
      </trkpt>
      <trkpt lat="47.08811" lon="5.49483">
        <ele>202</ele>
        <time>2012-09-18T15:43:13Z</time>
      </trkpt>
      <trkpt lat="47.08819" lon="5.49477">
        <ele>202</ele>
        <time>2012-09-18T15:43:15Z</time>
      </trkpt>
      <trkpt lat="47.08829" lon="5.49471">
        <ele>202</ele>
        <time>2012-09-18T15:43:18Z</time>
      </trkpt>
      <trkpt lat="47.08838" lon="5.49464">
        <ele>202</ele>
        <time>2012-09-18T15:43:22Z</time>
      </trkpt>
      <trkpt lat="47.08846" lon="5.49459">
        <ele>202</ele>
        <time>2012-09-18T15:43:24Z</time>
      </trkpt>
      <trkpt lat="47.08857" lon="5.49453">
        <ele>202</ele>
        <time>2012-09-18T15:43:26Z</time>
      </trkpt>
      <trkpt lat="47.08868" lon="5.49445">
        <ele>202</ele>
        <time>2012-09-18T15:43:28Z</time>
      </trkpt>
      <trkpt lat="47.0888" lon="5.49438">
        <ele>202</ele>
        <time>2012-09-18T15:43:30Z</time>
      </trkpt>
      <trkpt lat="47.08889" lon="5.49431">
        <ele>202</ele>
        <time>2012-09-18T15:43:32Z</time>
      </trkpt>
      <trkpt lat="47.08897" lon="5.4942">
        <ele>202</ele>
        <time>2012-09-18T15:43:34Z</time>
      </trkpt>
      <trkpt lat="47.08895" lon="5.49403">
        <ele>202</ele>
        <time>2012-09-18T15:43:36Z</time>
      </trkpt>
      <trkpt lat="47.08888" lon="5.49384">
        <ele>202</ele>
        <time>2012-09-18T15:43:38Z</time>
      </trkpt>
      <trkpt lat="47.08882" lon="5.49361">
        <ele>202</ele>
        <time>2012-09-18T15:43:40Z</time>
      </trkpt>
      <trkpt lat="47.08876" lon="5.49339">
        <ele>202</ele>
        <time>2012-09-18T15:43:42Z</time>
      </trkpt>
      <trkpt lat="47.0887" lon="5.49317">
        <ele>202</ele>
        <time>2012-09-18T15:43:44Z</time>
      </trkpt>
      <trkpt lat="47.08862" lon="5.49297">
        <ele>202</ele>
        <time>2012-09-18T15:43:46Z</time>
      </trkpt>
      <trkpt lat="47.08859" lon="5.49283">
        <ele>202</ele>
        <time>2012-09-18T15:43:48Z</time>
      </trkpt>
      <trkpt lat="47.08865" lon="5.49274">
        <ele>208</ele>
        <time>2012-09-18T15:43:51Z</time>
      </trkpt>
      <trkpt lat="47.08873" lon="5.49265">
        <ele>208</ele>
        <time>2012-09-18T15:43:53Z</time>
      </trkpt>
      <trkpt lat="47.08873" lon="5.49251">
        <ele>208</ele>
        <time>2012-09-18T15:43:55Z</time>
      </trkpt>
      <trkpt lat="47.08866" lon="5.49235">
        <ele>208</ele>
        <time>2012-09-18T15:43:57Z</time>
      </trkpt>
      <trkpt lat="47.08859" lon="5.49219">
        <ele>208</ele>
        <time>2012-09-18T15:43:59Z</time>
      </trkpt>
      <trkpt lat="47.08851" lon="5.49204">
        <ele>208</ele>
        <time>2012-09-18T15:44:01Z</time>
      </trkpt>
      <trkpt lat="47.08843" lon="5.4919">
        <ele>208</ele>
        <time>2012-09-18T15:44:03Z</time>
      </trkpt>
      <trkpt lat="47.08832" lon="5.49181">
        <ele>208</ele>
        <time>2012-09-18T15:44:05Z</time>
      </trkpt>
      <trkpt lat="47.08821" lon="5.49174">
        <ele>208</ele>
        <time>2012-09-18T15:44:07Z</time>
      </trkpt>
      <trkpt lat="47.08808" lon="5.49168">
        <ele>208</ele>
        <time>2012-09-18T15:44:09Z</time>
      </trkpt>
      <trkpt lat="47.08797" lon="5.49161">
        <ele>208</ele>
        <time>2012-09-18T15:44:11Z</time>
      </trkpt>
      <trkpt lat="47.08785" lon="5.49155">
        <ele>208</ele>
        <time>2012-09-18T15:44:13Z</time>
      </trkpt>
      <trkpt lat="47.08774" lon="5.49145">
        <ele>208</ele>
        <time>2012-09-18T15:44:15Z</time>
      </trkpt>
      <trkpt lat="47.08763" lon="5.49133">
        <ele>208</ele>
        <time>2012-09-18T15:44:17Z</time>
      </trkpt>
      <trkpt lat="47.08753" lon="5.4912">
        <ele>208</ele>
        <time>2012-09-18T15:44:19Z</time>
      </trkpt>
      <trkpt lat="47.08743" lon="5.49107">
        <ele>208</ele>
        <time>2012-09-18T15:44:21Z</time>
      </trkpt>
      <trkpt lat="47.08734" lon="5.49093">
        <ele>208</ele>
        <time>2012-09-18T15:44:23Z</time>
      </trkpt>
      <trkpt lat="47.08728" lon="5.49076">
        <ele>208</ele>
        <time>2012-09-18T15:44:25Z</time>
      </trkpt>
      <trkpt lat="47.08722" lon="5.4906">
        <ele>208</ele>
        <time>2012-09-18T15:44:27Z</time>
      </trkpt>
      <trkpt lat="47.08717" lon="5.49044">
        <ele>208</ele>
        <time>2012-09-18T15:44:29Z</time>
      </trkpt>
      <trkpt lat="47.0871" lon="5.49029">
        <ele>203</ele>
        <time>2012-09-18T15:44:31Z</time>
      </trkpt>
      <trkpt lat="47.08704" lon="5.49014">
        <ele>203</ele>
        <time>2012-09-18T15:44:33Z</time>
      </trkpt>
      <trkpt lat="47.08697" lon="5.48997">
        <ele>203</ele>
        <time>2012-09-18T15:44:35Z</time>
      </trkpt>
      <trkpt lat="47.08691" lon="5.48981">
        <ele>203</ele>
        <time>2012-09-18T15:44:37Z</time>
      </trkpt>
      <trkpt lat="47.08684" lon="5.48965">
        <ele>203</ele>
        <time>2012-09-18T15:44:39Z</time>
      </trkpt>
      <trkpt lat="47.08677" lon="5.48949">
        <ele>203</ele>
        <time>2012-09-18T15:44:41Z</time>
      </trkpt>
      <trkpt lat="47.0867" lon="5.48933">
        <ele>203</ele>
        <time>2012-09-18T15:44:43Z</time>
      </trkpt>
      <trkpt lat="47.08663" lon="5.48917">
        <ele>203</ele>
        <time>2012-09-18T15:44:45Z</time>
      </trkpt>
      <trkpt lat="47.08656" lon="5.48902">
        <ele>203</ele>
        <time>2012-09-18T15:44:47Z</time>
      </trkpt>
      <trkpt lat="47.08649" lon="5.48887">
        <ele>203</ele>
        <time>2012-09-18T15:44:49Z</time>
      </trkpt>
      <trkpt lat="47.08642" lon="5.48873">
        <ele>203</ele>
        <time>2012-09-18T15:44:51Z</time>
      </trkpt>
      <trkpt lat="47.08636" lon="5.48858">
        <ele>203</ele>
        <time>2012-09-18T15:44:53Z</time>
      </trkpt>
      <trkpt lat="47.0863" lon="5.48845">
        <ele>203</ele>
        <time>2012-09-18T15:44:55Z</time>
      </trkpt>
      <trkpt lat="47.08622" lon="5.48831">
        <ele>203</ele>
        <time>2012-09-18T15:44:57Z</time>
      </trkpt>
      <trkpt lat="47.08616" lon="5.48816">
        <ele>203</ele>
        <time>2012-09-18T15:44:59Z</time>
      </trkpt>
      <trkpt lat="47.0861" lon="5.488">
        <ele>203</ele>
        <time>2012-09-18T15:45:01Z</time>
      </trkpt>
      <trkpt lat="47.08604" lon="5.48784">
        <ele>203</ele>
        <time>2012-09-18T15:45:03Z</time>
      </trkpt>
      <trkpt lat="47.08597" lon="5.48769">
        <ele>203</ele>
        <time>2012-09-18T15:45:05Z</time>
      </trkpt>
      <trkpt lat="47.08591" lon="5.48753">
        <ele>203</ele>
        <time>2012-09-18T15:45:07Z</time>
      </trkpt>
      <trkpt lat="47.08584" lon="5.48739">
        <ele>203</ele>
        <time>2012-09-18T15:45:09Z</time>
      </trkpt>
      <trkpt lat="47.08577" lon="5.48724">
        <ele>203</ele>
        <time>2012-09-18T15:45:11Z</time>
      </trkpt>
      <trkpt lat="47.0857" lon="5.4871">
        <ele>203</ele>
        <time>2012-09-18T15:45:13Z</time>
      </trkpt>
      <trkpt lat="47.08562" lon="5.48695">
        <ele>203</ele>
        <time>2012-09-18T15:45:15Z</time>
      </trkpt>
      <trkpt lat="47.08555" lon="5.4868">
        <ele>203</ele>
        <time>2012-09-18T15:45:17Z</time>
      </trkpt>
      <trkpt lat="47.08548" lon="5.48667">
        <ele>203</ele>
        <time>2012-09-18T15:45:19Z</time>
      </trkpt>
      <trkpt lat="47.08539" lon="5.48654">
        <ele>203</ele>
        <time>2012-09-18T15:45:21Z</time>
      </trkpt>
      <trkpt lat="47.08532" lon="5.48643">
        <ele>203</ele>
        <time>2012-09-18T15:45:23Z</time>
      </trkpt>
      <trkpt lat="47.08525" lon="5.48633">
        <ele>203</ele>
        <time>2012-09-18T15:45:25Z</time>
      </trkpt>
      <trkpt lat="47.08526" lon="5.48614">
        <ele>203</ele>
        <time>2012-09-18T15:45:28Z</time>
      </trkpt>
      <trkpt lat="47.08537" lon="5.48604">
        <ele>203</ele>
        <time>2012-09-18T15:45:31Z</time>
      </trkpt>
      <trkpt lat="47.08546" lon="5.48597">
        <ele>203</ele>
        <time>2012-09-18T15:45:34Z</time>
      </trkpt>
      <trkpt lat="47.08555" lon="5.4859">
        <ele>203</ele>
        <time>2012-09-18T15:45:37Z</time>
      </trkpt>
      <trkpt lat="47.08564" lon="5.48581">
        <ele>209</ele>
        <time>2012-09-18T15:45:41Z</time>
      </trkpt>
      <trkpt lat="47.08575" lon="5.48575">
        <ele>209</ele>
        <time>2012-09-18T15:45:45Z</time>
      </trkpt>
      <trkpt lat="47.08584" lon="5.48571">
        <ele>215</ele>
        <time>2012-09-18T15:45:49Z</time>
      </trkpt>
      <trkpt lat="47.08594" lon="5.48566">
        <ele>215</ele>
        <time>2012-09-18T15:45:53Z</time>
      </trkpt>
      <trkpt lat="47.08604" lon="5.48562">
        <ele>222</ele>
        <time>2012-09-18T15:45:57Z</time>
      </trkpt>
      <trkpt lat="47.08613" lon="5.48559">
        <ele>222</ele>
        <time>2012-09-18T15:46:00Z</time>
      </trkpt>
      <trkpt lat="47.08622" lon="5.48555">
        <ele>222</ele>
        <time>2012-09-18T15:46:03Z</time>
      </trkpt>
      <trkpt lat="47.0863" lon="5.48547">
        <ele>222</ele>
        <time>2012-09-18T15:46:06Z</time>
      </trkpt>
      <trkpt lat="47.08638" lon="5.48535">
        <ele>222</ele>
        <time>2012-09-18T15:46:10Z</time>
      </trkpt>
      <trkpt lat="47.08643" lon="5.48524">
        <ele>222</ele>
        <time>2012-09-18T15:46:13Z</time>
      </trkpt>
      <trkpt lat="47.08646" lon="5.4851">
        <ele>222</ele>
        <time>2012-09-18T15:46:16Z</time>
      </trkpt>
      <trkpt lat="47.08649" lon="5.48498">
        <ele>222</ele>
        <time>2012-09-18T15:46:19Z</time>
      </trkpt>
      <trkpt lat="47.08653" lon="5.48484">
        <ele>222</ele>
        <time>2012-09-18T15:46:23Z</time>
      </trkpt>
      <trkpt lat="47.08657" lon="5.4847">
        <ele>222</ele>
        <time>2012-09-18T15:46:27Z</time>
      </trkpt>
      <trkpt lat="47.08662" lon="5.48457">
        <ele>222</ele>
        <time>2012-09-18T15:46:31Z</time>
      </trkpt>
      <trkpt lat="47.08668" lon="5.48442">
        <ele>222</ele>
        <time>2012-09-18T15:46:36Z</time>
      </trkpt>
      <trkpt lat="47.08676" lon="5.48435">
        <ele>222</ele>
        <time>2012-09-18T15:47:02Z</time>
      </trkpt>
      <trkpt lat="47.08686" lon="5.48445">
        <ele>222</ele>
        <time>2012-09-18T15:47:06Z</time>
      </trkpt>
      <trkpt lat="47.08694" lon="5.48457">
        <ele>222</ele>
        <time>2012-09-18T15:47:09Z</time>
      </trkpt>
      <trkpt lat="47.087" lon="5.48467">
        <ele>222</ele>
        <time>2012-09-18T15:47:11Z</time>
      </trkpt>
      <trkpt lat="47.08708" lon="5.48479">
        <ele>222</ele>
        <time>2012-09-18T15:47:13Z</time>
      </trkpt>
      <trkpt lat="47.08715" lon="5.48492">
        <ele>222</ele>
        <time>2012-09-18T15:47:15Z</time>
      </trkpt>
      <trkpt lat="47.08723" lon="5.48503">
        <ele>222</ele>
        <time>2012-09-18T15:47:17Z</time>
      </trkpt>
      <trkpt lat="47.0873" lon="5.48514">
        <ele>222</ele>
        <time>2012-09-18T15:47:19Z</time>
      </trkpt>
      <trkpt lat="47.08738" lon="5.48526">
        <ele>222</ele>
        <time>2012-09-18T15:47:21Z</time>
      </trkpt>
      <trkpt lat="47.08744" lon="5.48537">
        <ele>222</ele>
        <time>2012-09-18T15:47:23Z</time>
      </trkpt>
      <trkpt lat="47.08752" lon="5.48548">
        <ele>216</ele>
        <time>2012-09-18T15:47:25Z</time>
      </trkpt>
      <trkpt lat="47.0876" lon="5.4856">
        <ele>216</ele>
        <time>2012-09-18T15:47:27Z</time>
      </trkpt>
      <trkpt lat="47.08767" lon="5.48571">
        <ele>216</ele>
        <time>2012-09-18T15:47:29Z</time>
      </trkpt>
      <trkpt lat="47.08775" lon="5.48582">
        <ele>216</ele>
        <time>2012-09-18T15:47:31Z</time>
      </trkpt>
      <trkpt lat="47.08782" lon="5.48593">
        <ele>216</ele>
        <time>2012-09-18T15:47:33Z</time>
      </trkpt>
      <trkpt lat="47.08789" lon="5.48605">
        <ele>216</ele>
        <time>2012-09-18T15:47:35Z</time>
      </trkpt>
      <trkpt lat="47.08797" lon="5.48616">
        <ele>216</ele>
        <time>2012-09-18T15:47:37Z</time>
      </trkpt>
      <trkpt lat="47.08805" lon="5.48629">
        <ele>216</ele>
        <time>2012-09-18T15:47:39Z</time>
      </trkpt>
      <trkpt lat="47.08812" lon="5.4864">
        <ele>216</ele>
        <time>2012-09-18T15:47:41Z</time>
      </trkpt>
      <trkpt lat="47.08819" lon="5.48651">
        <ele>216</ele>
        <time>2012-09-18T15:47:43Z</time>
      </trkpt>
      <trkpt lat="47.08827" lon="5.48663">
        <ele>216</ele>
        <time>2012-09-18T15:47:46Z</time>
      </trkpt>
      <trkpt lat="47.08836" lon="5.48666">
        <ele>223</ele>
        <time>2012-09-18T15:48:03Z</time>
      </trkpt>
      <trkpt lat="47.08843" lon="5.48657">
        <ele>223</ele>
        <time>2012-09-18T15:48:06Z</time>
      </trkpt>
      <trkpt lat="47.08851" lon="5.48644">
        <ele>223</ele>
        <time>2012-09-18T15:48:09Z</time>
      </trkpt>
      <trkpt lat="47.08859" lon="5.48635">
        <ele>223</ele>
        <time>2012-09-18T15:48:11Z</time>
      </trkpt>
      <trkpt lat="47.08866" lon="5.48626">
        <ele>223</ele>
        <time>2012-09-18T15:48:13Z</time>
      </trkpt>
      <trkpt lat="47.08873" lon="5.48617">
        <ele>223</ele>
        <time>2012-09-18T15:48:15Z</time>
      </trkpt>
      <trkpt lat="47.08881" lon="5.48609">
        <ele>223</ele>
        <time>2012-09-18T15:48:17Z</time>
      </trkpt>
      <trkpt lat="47.08887" lon="5.48599">
        <ele>223</ele>
        <time>2012-09-18T15:48:19Z</time>
      </trkpt>
      <trkpt lat="47.08895" lon="5.48585">
        <ele>229</ele>
        <time>2012-09-18T15:48:22Z</time>
      </trkpt>
      <trkpt lat="47.08904" lon="5.48573">
        <ele>229</ele>
        <time>2012-09-18T15:48:25Z</time>
      </trkpt>
      <trkpt lat="47.08913" lon="5.48563">
        <ele>229</ele>
        <time>2012-09-18T15:48:28Z</time>
      </trkpt>
      <trkpt lat="47.08921" lon="5.48552">
        <ele>229</ele>
        <time>2012-09-18T15:48:31Z</time>
      </trkpt>
      <trkpt lat="47.0893" lon="5.4854">
        <ele>229</ele>
        <time>2012-09-18T15:48:34Z</time>
      </trkpt>
      <trkpt lat="47.08939" lon="5.48528">
        <ele>229</ele>
        <time>2012-09-18T15:48:37Z</time>
      </trkpt>
      <trkpt lat="47.08949" lon="5.48517">
        <ele>229</ele>
        <time>2012-09-18T15:48:40Z</time>
      </trkpt>
      <trkpt lat="47.08957" lon="5.48511">
        <ele>229</ele>
        <time>2012-09-18T15:48:44Z</time>
      </trkpt>
      <trkpt lat="47.08965" lon="5.48498">
        <ele>229</ele>
        <time>2012-09-18T15:48:50Z</time>
      </trkpt>
      <trkpt lat="47.08972" lon="5.48485">
        <ele>229</ele>
        <time>2012-09-18T15:48:53Z</time>
      </trkpt>
    </trkseg>
  </trk>
</gpx>